<?xml version="1.0" encoding="UTF-8" standalone="no" ?>
<gpx xmlns="http://www.topografix.com/GPX/1/1" xmlns:xsi="http://www.w3.org/2001/XMLSchema-instance" xsi:schemaLocation="http://www.topografix.com/GPX/1/1 http://www.topografix.com/GPX/1/1/gpx.xsd" version="1.1" creator="VisuGPX - https://www.visugpx.com">
  <metadata>
    <name>maguelonne</name>
    <desc><![CDATA[parcours mixte bitume/piste dammée]]></desc>
  </metadata>
  <trk>
    <name><![CDATA[Urban Biker – Vélo 1 – 27 oct. 2017 09:05]]></name>
    <trkseg>
      <trkpt lat="43.60816" lon="3.84051">
        <ele>85</ele>
        <time>2017-10-27T07:05:20.000Z</time>
      </trkpt>
      <trkpt lat="43.60831" lon="3.84085">
        <ele>84.2</ele>
        <time>2017-10-27T07:05:24.438Z</time>
      </trkpt>
      <trkpt lat="43.60835" lon="3.84101">
        <ele>68.5</ele>
        <time>2017-10-27T07:05:26.437Z</time>
      </trkpt>
      <trkpt lat="43.60844" lon="3.84108">
        <ele>58.2</ele>
        <time>2017-10-27T07:05:28.436Z</time>
      </trkpt>
      <trkpt lat="43.60848" lon="3.84109">
        <ele>57.5</ele>
        <time>2017-10-27T07:05:29.436Z</time>
      </trkpt>
      <trkpt lat="43.60851" lon="3.84109">
        <ele>57.9</ele>
        <time>2017-10-27T07:05:30.431Z</time>
      </trkpt>
      <trkpt lat="43.60853" lon="3.84109">
        <ele>58</ele>
        <time>2017-10-27T07:05:31.437Z</time>
      </trkpt>
      <trkpt lat="43.60856" lon="3.84109">
        <ele>58.1</ele>
        <time>2017-10-27T07:05:32.440Z</time>
      </trkpt>
      <trkpt lat="43.60858" lon="3.8411">
        <ele>58.2</ele>
        <time>2017-10-27T07:05:33.429Z</time>
      </trkpt>
      <trkpt lat="43.6086" lon="3.84111">
        <ele>58.6</ele>
        <time>2017-10-27T07:05:34.437Z</time>
      </trkpt>
      <trkpt lat="43.60861" lon="3.84113">
        <ele>58.7</ele>
        <time>2017-10-27T07:05:35.440Z</time>
      </trkpt>
      <trkpt lat="43.60862" lon="3.84116">
        <ele>58.7</ele>
        <time>2017-10-27T07:05:36.440Z</time>
      </trkpt>
      <trkpt lat="43.60862" lon="3.84118">
        <ele>58.9</ele>
        <time>2017-10-27T07:05:37.430Z</time>
      </trkpt>
      <trkpt lat="43.60863" lon="3.84121">
        <ele>59.1</ele>
        <time>2017-10-27T07:05:38.429Z</time>
      </trkpt>
      <trkpt lat="43.60863" lon="3.84124">
        <ele>59.1</ele>
        <time>2017-10-27T07:05:39.429Z</time>
      </trkpt>
      <trkpt lat="43.60864" lon="3.84127">
        <ele>59</ele>
        <time>2017-10-27T07:05:40.429Z</time>
      </trkpt>
      <trkpt lat="43.60864" lon="3.84131">
        <ele>58.8</ele>
        <time>2017-10-27T07:05:41.445Z</time>
      </trkpt>
      <trkpt lat="43.60864" lon="3.84134">
        <ele>58.4</ele>
        <time>2017-10-27T07:05:42.439Z</time>
      </trkpt>
      <trkpt lat="43.60864" lon="3.84138">
        <ele>58.2</ele>
        <time>2017-10-27T07:05:43.442Z</time>
      </trkpt>
      <trkpt lat="43.60865" lon="3.84141">
        <ele>58.3</ele>
        <time>2017-10-27T07:05:44.440Z</time>
      </trkpt>
      <trkpt lat="43.60865" lon="3.84145">
        <ele>58.5</ele>
        <time>2017-10-27T07:05:45.426Z</time>
      </trkpt>
      <trkpt lat="43.60865" lon="3.84148">
        <ele>58.7</ele>
        <time>2017-10-27T07:05:46.436Z</time>
      </trkpt>
      <trkpt lat="43.60864" lon="3.84152">
        <ele>58.9</ele>
        <time>2017-10-27T07:05:47.434Z</time>
      </trkpt>
      <trkpt lat="43.60863" lon="3.84155">
        <ele>59.1</ele>
        <time>2017-10-27T07:05:48.436Z</time>
      </trkpt>
      <trkpt lat="43.60862" lon="3.84157">
        <ele>58.5</ele>
        <time>2017-10-27T07:05:49.432Z</time>
      </trkpt>
      <trkpt lat="43.6086" lon="3.8416">
        <ele>58.7</ele>
        <time>2017-10-27T07:05:50.432Z</time>
      </trkpt>
      <trkpt lat="43.60858" lon="3.84161">
        <ele>58.9</ele>
        <time>2017-10-27T07:05:51.435Z</time>
      </trkpt>
      <trkpt lat="43.60855" lon="3.84161">
        <ele>59</ele>
        <time>2017-10-27T07:05:52.444Z</time>
      </trkpt>
      <trkpt lat="43.60852" lon="3.84162">
        <ele>59.3</ele>
        <time>2017-10-27T07:05:53.440Z</time>
      </trkpt>
      <trkpt lat="43.60848" lon="3.84162">
        <ele>59.4</ele>
        <time>2017-10-27T07:05:54.445Z</time>
      </trkpt>
      <trkpt lat="43.60845" lon="3.84163">
        <ele>59.9</ele>
        <time>2017-10-27T07:05:55.437Z</time>
      </trkpt>
      <trkpt lat="43.60842" lon="3.84163">
        <ele>60</ele>
        <time>2017-10-27T07:05:56.431Z</time>
      </trkpt>
      <trkpt lat="43.60838" lon="3.84164">
        <ele>60.2</ele>
        <time>2017-10-27T07:05:57.431Z</time>
      </trkpt>
      <trkpt lat="43.60835" lon="3.84164">
        <ele>60.4</ele>
        <time>2017-10-27T07:05:58.428Z</time>
      </trkpt>
      <trkpt lat="43.60831" lon="3.84165">
        <ele>60.6</ele>
        <time>2017-10-27T07:05:59.432Z</time>
      </trkpt>
      <trkpt lat="43.60828" lon="3.84165">
        <ele>60.8</ele>
        <time>2017-10-27T07:06:00.444Z</time>
      </trkpt>
      <trkpt lat="43.60824" lon="3.84165">
        <ele>60.9</ele>
        <time>2017-10-27T07:06:01.437Z</time>
      </trkpt>
      <trkpt lat="43.60821" lon="3.84166">
        <ele>61.1</ele>
        <time>2017-10-27T07:06:02.436Z</time>
      </trkpt>
      <trkpt lat="43.60817" lon="3.84167">
        <ele>61.5</ele>
        <time>2017-10-27T07:06:03.437Z</time>
      </trkpt>
      <trkpt lat="43.60814" lon="3.84168">
        <ele>61.7</ele>
        <time>2017-10-27T07:06:04.438Z</time>
      </trkpt>
      <trkpt lat="43.6081" lon="3.84169">
        <ele>61.7</ele>
        <time>2017-10-27T07:06:05.437Z</time>
      </trkpt>
      <trkpt lat="43.60807" lon="3.8417">
        <ele>61.9</ele>
        <time>2017-10-27T07:06:06.438Z</time>
      </trkpt>
      <trkpt lat="43.60804" lon="3.84171">
        <ele>62.4</ele>
        <time>2017-10-27T07:06:07.438Z</time>
      </trkpt>
      <trkpt lat="43.60801" lon="3.84172">
        <ele>62.6</ele>
        <time>2017-10-27T07:06:08.436Z</time>
      </trkpt>
      <trkpt lat="43.60797" lon="3.84173">
        <ele>62.6</ele>
        <time>2017-10-27T07:06:09.429Z</time>
      </trkpt>
      <trkpt lat="43.60794" lon="3.84174">
        <ele>62.8</ele>
        <time>2017-10-27T07:06:10.436Z</time>
      </trkpt>
      <trkpt lat="43.60791" lon="3.84175">
        <ele>63</ele>
        <time>2017-10-27T07:06:11.454Z</time>
      </trkpt>
      <trkpt lat="43.60788" lon="3.84177">
        <ele>63.1</ele>
        <time>2017-10-27T07:06:12.430Z</time>
      </trkpt>
      <trkpt lat="43.60785" lon="3.84178">
        <ele>63.1</ele>
        <time>2017-10-27T07:06:13.429Z</time>
      </trkpt>
      <trkpt lat="43.60782" lon="3.84179">
        <ele>63.4</ele>
        <time>2017-10-27T07:06:14.432Z</time>
      </trkpt>
      <trkpt lat="43.60779" lon="3.8418">
        <ele>63.5</ele>
        <time>2017-10-27T07:06:15.435Z</time>
      </trkpt>
      <trkpt lat="43.60776" lon="3.84182">
        <ele>63.8</ele>
        <time>2017-10-27T07:06:16.445Z</time>
      </trkpt>
      <trkpt lat="43.60773" lon="3.84183">
        <ele>63.8</ele>
        <time>2017-10-27T07:06:17.438Z</time>
      </trkpt>
      <trkpt lat="43.6077" lon="3.84184">
        <ele>63.9</ele>
        <time>2017-10-27T07:06:18.440Z</time>
      </trkpt>
      <trkpt lat="43.60767" lon="3.84185">
        <ele>64</ele>
        <time>2017-10-27T07:06:19.442Z</time>
      </trkpt>
      <trkpt lat="43.60765" lon="3.84186">
        <ele>64.1</ele>
        <time>2017-10-27T07:06:20.438Z</time>
      </trkpt>
      <trkpt lat="43.60762" lon="3.84186">
        <ele>64.2</ele>
        <time>2017-10-27T07:06:21.441Z</time>
      </trkpt>
      <trkpt lat="43.60759" lon="3.84187">
        <ele>64.3</ele>
        <time>2017-10-27T07:06:22.444Z</time>
      </trkpt>
      <trkpt lat="43.60756" lon="3.84187">
        <ele>64.4</ele>
        <time>2017-10-27T07:06:23.443Z</time>
      </trkpt>
      <trkpt lat="43.60753" lon="3.84187">
        <ele>64.6</ele>
        <time>2017-10-27T07:06:24.447Z</time>
      </trkpt>
      <trkpt lat="43.6075" lon="3.84187">
        <ele>64.7</ele>
        <time>2017-10-27T07:06:25.442Z</time>
      </trkpt>
      <trkpt lat="43.60747" lon="3.84188">
        <ele>64.9</ele>
        <time>2017-10-27T07:06:26.451Z</time>
      </trkpt>
      <trkpt lat="43.60744" lon="3.84188">
        <ele>65</ele>
        <time>2017-10-27T07:06:27.442Z</time>
      </trkpt>
      <trkpt lat="43.60742" lon="3.84188">
        <ele>65.2</ele>
        <time>2017-10-27T07:06:28.441Z</time>
      </trkpt>
      <trkpt lat="43.60739" lon="3.84189">
        <ele>65.4</ele>
        <time>2017-10-27T07:06:29.442Z</time>
      </trkpt>
      <trkpt lat="43.60736" lon="3.84189">
        <ele>65.6</ele>
        <time>2017-10-27T07:06:30.443Z</time>
      </trkpt>
      <trkpt lat="43.60733" lon="3.8419">
        <ele>65.8</ele>
        <time>2017-10-27T07:06:31.431Z</time>
      </trkpt>
      <trkpt lat="43.6073" lon="3.8419">
        <ele>65.9</ele>
        <time>2017-10-27T07:06:32.427Z</time>
      </trkpt>
      <trkpt lat="43.60727" lon="3.8419">
        <ele>66.2</ele>
        <time>2017-10-27T07:06:33.430Z</time>
      </trkpt>
      <trkpt lat="43.60724" lon="3.84191">
        <ele>66.4</ele>
        <time>2017-10-27T07:06:34.442Z</time>
      </trkpt>
      <trkpt lat="43.60722" lon="3.84191">
        <ele>66.6</ele>
        <time>2017-10-27T07:06:35.442Z</time>
      </trkpt>
      <trkpt lat="43.60719" lon="3.84191">
        <ele>66.8</ele>
        <time>2017-10-27T07:06:36.444Z</time>
      </trkpt>
      <trkpt lat="43.60716" lon="3.84191">
        <ele>67</ele>
        <time>2017-10-27T07:06:37.442Z</time>
      </trkpt>
      <trkpt lat="43.60713" lon="3.84191">
        <ele>67.1</ele>
        <time>2017-10-27T07:06:38.441Z</time>
      </trkpt>
      <trkpt lat="43.6071" lon="3.84191">
        <ele>67.3</ele>
        <time>2017-10-27T07:06:39.445Z</time>
      </trkpt>
      <trkpt lat="43.60708" lon="3.84192">
        <ele>67.6</ele>
        <time>2017-10-27T07:06:40.441Z</time>
      </trkpt>
      <trkpt lat="43.60705" lon="3.84192">
        <ele>67.8</ele>
        <time>2017-10-27T07:06:41.439Z</time>
      </trkpt>
      <trkpt lat="43.60702" lon="3.84192">
        <ele>68.1</ele>
        <time>2017-10-27T07:06:42.444Z</time>
      </trkpt>
      <trkpt lat="43.60699" lon="3.84192">
        <ele>68.3</ele>
        <time>2017-10-27T07:06:43.443Z</time>
      </trkpt>
      <trkpt lat="43.60696" lon="3.84193">
        <ele>68.6</ele>
        <time>2017-10-27T07:06:44.436Z</time>
      </trkpt>
      <trkpt lat="43.60694" lon="3.84193">
        <ele>68.9</ele>
        <time>2017-10-27T07:06:45.443Z</time>
      </trkpt>
      <trkpt lat="43.60691" lon="3.84193">
        <ele>69.1</ele>
        <time>2017-10-27T07:06:46.442Z</time>
      </trkpt>
      <trkpt lat="43.60688" lon="3.84193">
        <ele>69.4</ele>
        <time>2017-10-27T07:06:47.446Z</time>
      </trkpt>
      <trkpt lat="43.60685" lon="3.84194">
        <ele>69.7</ele>
        <time>2017-10-27T07:06:48.455Z</time>
      </trkpt>
      <trkpt lat="43.60682" lon="3.84194">
        <ele>69.9</ele>
        <time>2017-10-27T07:06:49.432Z</time>
      </trkpt>
      <trkpt lat="43.60679" lon="3.84195">
        <ele>70.2</ele>
        <time>2017-10-27T07:06:50.430Z</time>
      </trkpt>
      <trkpt lat="43.60677" lon="3.84196">
        <ele>70.5</ele>
        <time>2017-10-27T07:06:51.446Z</time>
      </trkpt>
      <trkpt lat="43.60674" lon="3.84197">
        <ele>70.8</ele>
        <time>2017-10-27T07:06:52.465Z</time>
      </trkpt>
      <trkpt lat="43.60671" lon="3.84197">
        <ele>70.9</ele>
        <time>2017-10-27T07:06:53.442Z</time>
      </trkpt>
      <trkpt lat="43.60668" lon="3.84197">
        <ele>71.1</ele>
        <time>2017-10-27T07:06:54.444Z</time>
      </trkpt>
      <trkpt lat="43.60665" lon="3.84197">
        <ele>71.2</ele>
        <time>2017-10-27T07:06:55.447Z</time>
      </trkpt>
      <trkpt lat="43.60663" lon="3.84197">
        <ele>71.4</ele>
        <time>2017-10-27T07:06:56.430Z</time>
      </trkpt>
      <trkpt lat="43.6066" lon="3.84197">
        <ele>71.7</ele>
        <time>2017-10-27T07:06:57.430Z</time>
      </trkpt>
      <trkpt lat="43.60657" lon="3.84197">
        <ele>72.3</ele>
        <time>2017-10-27T07:06:58.430Z</time>
      </trkpt>
      <trkpt lat="43.60654" lon="3.84197">
        <ele>72.5</ele>
        <time>2017-10-27T07:06:59.430Z</time>
      </trkpt>
      <trkpt lat="43.60652" lon="3.84198">
        <ele>72.8</ele>
        <time>2017-10-27T07:07:00.431Z</time>
      </trkpt>
      <trkpt lat="43.60649" lon="3.84198">
        <ele>73.1</ele>
        <time>2017-10-27T07:07:01.430Z</time>
      </trkpt>
      <trkpt lat="43.60647" lon="3.84199">
        <ele>73.4</ele>
        <time>2017-10-27T07:07:02.441Z</time>
      </trkpt>
      <trkpt lat="43.60644" lon="3.84199">
        <ele>73.5</ele>
        <time>2017-10-27T07:07:03.442Z</time>
      </trkpt>
      <trkpt lat="43.60642" lon="3.842">
        <ele>73.7</ele>
        <time>2017-10-27T07:07:04.441Z</time>
      </trkpt>
      <trkpt lat="43.60639" lon="3.84201">
        <ele>73.9</ele>
        <time>2017-10-27T07:07:05.444Z</time>
      </trkpt>
      <trkpt lat="43.60636" lon="3.84201">
        <ele>74</ele>
        <time>2017-10-27T07:07:06.445Z</time>
      </trkpt>
      <trkpt lat="43.60634" lon="3.84201">
        <ele>74.3</ele>
        <time>2017-10-27T07:07:07.444Z</time>
      </trkpt>
      <trkpt lat="43.60631" lon="3.84201">
        <ele>74.4</ele>
        <time>2017-10-27T07:07:08.446Z</time>
      </trkpt>
      <trkpt lat="43.60628" lon="3.84201">
        <ele>74.6</ele>
        <time>2017-10-27T07:07:09.456Z</time>
      </trkpt>
      <trkpt lat="43.60625" lon="3.84202">
        <ele>74.6</ele>
        <time>2017-10-27T07:07:10.447Z</time>
      </trkpt>
      <trkpt lat="43.60623" lon="3.84202">
        <ele>74.7</ele>
        <time>2017-10-27T07:07:11.441Z</time>
      </trkpt>
      <trkpt lat="43.6062" lon="3.84203">
        <ele>74.9</ele>
        <time>2017-10-27T07:07:12.443Z</time>
      </trkpt>
      <trkpt lat="43.60617" lon="3.84203">
        <ele>75</ele>
        <time>2017-10-27T07:07:13.430Z</time>
      </trkpt>
      <trkpt lat="43.60614" lon="3.84203">
        <ele>75.1</ele>
        <time>2017-10-27T07:07:14.431Z</time>
      </trkpt>
      <trkpt lat="43.60612" lon="3.84203">
        <ele>75.2</ele>
        <time>2017-10-27T07:07:15.431Z</time>
      </trkpt>
      <trkpt lat="43.60609" lon="3.84203">
        <ele>75.4</ele>
        <time>2017-10-27T07:07:16.452Z</time>
      </trkpt>
      <trkpt lat="43.60606" lon="3.84203">
        <ele>75.6</ele>
        <time>2017-10-27T07:07:17.444Z</time>
      </trkpt>
      <trkpt lat="43.60603" lon="3.84203">
        <ele>75.8</ele>
        <time>2017-10-27T07:07:18.445Z</time>
      </trkpt>
      <trkpt lat="43.606" lon="3.84203">
        <ele>76</ele>
        <time>2017-10-27T07:07:19.444Z</time>
      </trkpt>
      <trkpt lat="43.60597" lon="3.84203">
        <ele>76.2</ele>
        <time>2017-10-27T07:07:20.442Z</time>
      </trkpt>
      <trkpt lat="43.60595" lon="3.84204">
        <ele>76.3</ele>
        <time>2017-10-27T07:07:21.446Z</time>
      </trkpt>
      <trkpt lat="43.60592" lon="3.84205">
        <ele>77</ele>
        <time>2017-10-27T07:07:22.441Z</time>
      </trkpt>
      <trkpt lat="43.6059" lon="3.84206">
        <ele>77.2</ele>
        <time>2017-10-27T07:07:23.442Z</time>
      </trkpt>
      <trkpt lat="43.60588" lon="3.84208">
        <ele>77.5</ele>
        <time>2017-10-27T07:07:24.445Z</time>
      </trkpt>
      <trkpt lat="43.60586" lon="3.84211">
        <ele>77.7</ele>
        <time>2017-10-27T07:07:25.446Z</time>
      </trkpt>
      <trkpt lat="43.60584" lon="3.84214">
        <ele>77.6</ele>
        <time>2017-10-27T07:07:26.445Z</time>
      </trkpt>
      <trkpt lat="43.60582" lon="3.84217">
        <ele>77.1</ele>
        <time>2017-10-27T07:07:27.442Z</time>
      </trkpt>
      <trkpt lat="43.6058" lon="3.84221">
        <ele>77</ele>
        <time>2017-10-27T07:07:28.442Z</time>
      </trkpt>
      <trkpt lat="43.60579" lon="3.84224">
        <ele>76.9</ele>
        <time>2017-10-27T07:07:29.451Z</time>
      </trkpt>
      <trkpt lat="43.60577" lon="3.84228">
        <ele>76.7</ele>
        <time>2017-10-27T07:07:30.445Z</time>
      </trkpt>
      <trkpt lat="43.60575" lon="3.84231">
        <ele>76.5</ele>
        <time>2017-10-27T07:07:31.454Z</time>
      </trkpt>
      <trkpt lat="43.60573" lon="3.84235">
        <ele>76.2</ele>
        <time>2017-10-27T07:07:32.441Z</time>
      </trkpt>
      <trkpt lat="43.60572" lon="3.84239">
        <ele>76.2</ele>
        <time>2017-10-27T07:07:33.431Z</time>
      </trkpt>
      <trkpt lat="43.6057" lon="3.84242">
        <ele>76.5</ele>
        <time>2017-10-27T07:07:34.430Z</time>
      </trkpt>
      <trkpt lat="43.60568" lon="3.84246">
        <ele>76.5</ele>
        <time>2017-10-27T07:07:35.436Z</time>
      </trkpt>
      <trkpt lat="43.60565" lon="3.8425">
        <ele>76.1</ele>
        <time>2017-10-27T07:07:36.446Z</time>
      </trkpt>
      <trkpt lat="43.60563" lon="3.84254">
        <ele>76</ele>
        <time>2017-10-27T07:07:37.450Z</time>
      </trkpt>
      <trkpt lat="43.60561" lon="3.84258">
        <ele>76</ele>
        <time>2017-10-27T07:07:38.435Z</time>
      </trkpt>
      <trkpt lat="43.60558" lon="3.84261">
        <ele>75.5</ele>
        <time>2017-10-27T07:07:39.442Z</time>
      </trkpt>
      <trkpt lat="43.60556" lon="3.84265">
        <ele>75.2</ele>
        <time>2017-10-27T07:07:40.437Z</time>
      </trkpt>
      <trkpt lat="43.60553" lon="3.84269">
        <ele>74.7</ele>
        <time>2017-10-27T07:07:41.442Z</time>
      </trkpt>
      <trkpt lat="43.60551" lon="3.84273">
        <ele>74.4</ele>
        <time>2017-10-27T07:07:42.449Z</time>
      </trkpt>
      <trkpt lat="43.60548" lon="3.84278">
        <ele>74.5</ele>
        <time>2017-10-27T07:07:43.445Z</time>
      </trkpt>
      <trkpt lat="43.60545" lon="3.84283">
        <ele>74.4</ele>
        <time>2017-10-27T07:07:44.443Z</time>
      </trkpt>
      <trkpt lat="43.60543" lon="3.84287">
        <ele>74</ele>
        <time>2017-10-27T07:07:45.445Z</time>
      </trkpt>
      <trkpt lat="43.6054" lon="3.84292">
        <ele>73.4</ele>
        <time>2017-10-27T07:07:46.441Z</time>
      </trkpt>
      <trkpt lat="43.60537" lon="3.84297">
        <ele>73.4</ele>
        <time>2017-10-27T07:07:47.439Z</time>
      </trkpt>
      <trkpt lat="43.60534" lon="3.84302">
        <ele>73.2</ele>
        <time>2017-10-27T07:07:48.444Z</time>
      </trkpt>
      <trkpt lat="43.60531" lon="3.84307">
        <ele>72.7</ele>
        <time>2017-10-27T07:07:49.445Z</time>
      </trkpt>
      <trkpt lat="43.60528" lon="3.84312">
        <ele>72.5</ele>
        <time>2017-10-27T07:07:50.430Z</time>
      </trkpt>
      <trkpt lat="43.60524" lon="3.84317">
        <ele>72.1</ele>
        <time>2017-10-27T07:07:51.430Z</time>
      </trkpt>
      <trkpt lat="43.60521" lon="3.84323">
        <ele>71.6</ele>
        <time>2017-10-27T07:07:52.430Z</time>
      </trkpt>
      <trkpt lat="43.60518" lon="3.84328">
        <ele>71.5</ele>
        <time>2017-10-27T07:07:53.436Z</time>
      </trkpt>
      <trkpt lat="43.60514" lon="3.84334">
        <ele>71.2</ele>
        <time>2017-10-27T07:07:54.444Z</time>
      </trkpt>
      <trkpt lat="43.60511" lon="3.84339">
        <ele>71.4</ele>
        <time>2017-10-27T07:07:55.444Z</time>
      </trkpt>
      <trkpt lat="43.60507" lon="3.84345">
        <ele>70.6</ele>
        <time>2017-10-27T07:07:56.442Z</time>
      </trkpt>
      <trkpt lat="43.60504" lon="3.8435">
        <ele>70.3</ele>
        <time>2017-10-27T07:07:57.432Z</time>
      </trkpt>
      <trkpt lat="43.60499" lon="3.84355">
        <ele>67.7</ele>
        <time>2017-10-27T07:07:58.442Z</time>
      </trkpt>
      <trkpt lat="43.60496" lon="3.84361">
        <ele>68.1</ele>
        <time>2017-10-27T07:07:59.442Z</time>
      </trkpt>
      <trkpt lat="43.60492" lon="3.84367">
        <ele>67.8</ele>
        <time>2017-10-27T07:08:00.432Z</time>
      </trkpt>
      <trkpt lat="43.60488" lon="3.84373">
        <ele>67.3</ele>
        <time>2017-10-27T07:08:01.443Z</time>
      </trkpt>
      <trkpt lat="43.60485" lon="3.84379">
        <ele>67.1</ele>
        <time>2017-10-27T07:08:02.445Z</time>
      </trkpt>
      <trkpt lat="43.60481" lon="3.84384">
        <ele>66.8</ele>
        <time>2017-10-27T07:08:03.443Z</time>
      </trkpt>
      <trkpt lat="43.60477" lon="3.8439">
        <ele>66.6</ele>
        <time>2017-10-27T07:08:04.443Z</time>
      </trkpt>
      <trkpt lat="43.60473" lon="3.84397">
        <ele>66.6</ele>
        <time>2017-10-27T07:08:05.443Z</time>
      </trkpt>
      <trkpt lat="43.6047" lon="3.84403">
        <ele>66.3</ele>
        <time>2017-10-27T07:08:06.443Z</time>
      </trkpt>
      <trkpt lat="43.60466" lon="3.84409">
        <ele>66.3</ele>
        <time>2017-10-27T07:08:07.445Z</time>
      </trkpt>
      <trkpt lat="43.60462" lon="3.84415">
        <ele>66.1</ele>
        <time>2017-10-27T07:08:08.431Z</time>
      </trkpt>
      <trkpt lat="43.60459" lon="3.8442">
        <ele>65.9</ele>
        <time>2017-10-27T07:08:09.430Z</time>
      </trkpt>
      <trkpt lat="43.60454" lon="3.84423">
        <ele>65.7</ele>
        <time>2017-10-27T07:08:10.431Z</time>
      </trkpt>
      <trkpt lat="43.6045" lon="3.84425">
        <ele>65.6</ele>
        <time>2017-10-27T07:08:11.445Z</time>
      </trkpt>
      <trkpt lat="43.60446" lon="3.84429">
        <ele>65.5</ele>
        <time>2017-10-27T07:08:12.445Z</time>
      </trkpt>
      <trkpt lat="43.60444" lon="3.84434">
        <ele>65.5</ele>
        <time>2017-10-27T07:08:13.448Z</time>
      </trkpt>
      <trkpt lat="43.60443" lon="3.8444">
        <ele>65.4</ele>
        <time>2017-10-27T07:08:14.445Z</time>
      </trkpt>
      <trkpt lat="43.60443" lon="3.84446">
        <ele>65.2</ele>
        <time>2017-10-27T07:08:15.443Z</time>
      </trkpt>
      <trkpt lat="43.60442" lon="3.84453">
        <ele>65</ele>
        <time>2017-10-27T07:08:16.442Z</time>
      </trkpt>
      <trkpt lat="43.60441" lon="3.8446">
        <ele>64.6</ele>
        <time>2017-10-27T07:08:17.452Z</time>
      </trkpt>
      <trkpt lat="43.60439" lon="3.84467">
        <ele>64.4</ele>
        <time>2017-10-27T07:08:18.442Z</time>
      </trkpt>
      <trkpt lat="43.60437" lon="3.84474">
        <ele>64.3</ele>
        <time>2017-10-27T07:08:19.444Z</time>
      </trkpt>
      <trkpt lat="43.60435" lon="3.84481">
        <ele>64.1</ele>
        <time>2017-10-27T07:08:20.444Z</time>
      </trkpt>
      <trkpt lat="43.60431" lon="3.84488">
        <ele>63.7</ele>
        <time>2017-10-27T07:08:21.447Z</time>
      </trkpt>
      <trkpt lat="43.60428" lon="3.84495">
        <ele>63.4</ele>
        <time>2017-10-27T07:08:22.443Z</time>
      </trkpt>
      <trkpt lat="43.60425" lon="3.84503">
        <ele>63</ele>
        <time>2017-10-27T07:08:23.454Z</time>
      </trkpt>
      <trkpt lat="43.60421" lon="3.84512">
        <ele>62.7</ele>
        <time>2017-10-27T07:08:24.445Z</time>
      </trkpt>
      <trkpt lat="43.60417" lon="3.8452">
        <ele>62.4</ele>
        <time>2017-10-27T07:08:25.430Z</time>
      </trkpt>
      <trkpt lat="43.60414" lon="3.84528">
        <ele>62.1</ele>
        <time>2017-10-27T07:08:26.431Z</time>
      </trkpt>
      <trkpt lat="43.6041" lon="3.84537">
        <ele>61.9</ele>
        <time>2017-10-27T07:08:27.431Z</time>
      </trkpt>
      <trkpt lat="43.60408" lon="3.84546">
        <ele>61.6</ele>
        <time>2017-10-27T07:08:28.442Z</time>
      </trkpt>
      <trkpt lat="43.60406" lon="3.84556">
        <ele>61.3</ele>
        <time>2017-10-27T07:08:29.444Z</time>
      </trkpt>
      <trkpt lat="43.60404" lon="3.84565">
        <ele>61</ele>
        <time>2017-10-27T07:08:30.451Z</time>
      </trkpt>
      <trkpt lat="43.60403" lon="3.84575">
        <ele>60.6</ele>
        <time>2017-10-27T07:08:31.445Z</time>
      </trkpt>
      <trkpt lat="43.60401" lon="3.84585">
        <ele>60.2</ele>
        <time>2017-10-27T07:08:32.442Z</time>
      </trkpt>
      <trkpt lat="43.60399" lon="3.84595">
        <ele>60</ele>
        <time>2017-10-27T07:08:33.444Z</time>
      </trkpt>
      <trkpt lat="43.60397" lon="3.84604">
        <ele>59.7</ele>
        <time>2017-10-27T07:08:34.432Z</time>
      </trkpt>
      <trkpt lat="43.60395" lon="3.84613">
        <ele>59.5</ele>
        <time>2017-10-27T07:08:35.444Z</time>
      </trkpt>
      <trkpt lat="43.60393" lon="3.84621">
        <ele>59.1</ele>
        <time>2017-10-27T07:08:36.464Z</time>
      </trkpt>
      <trkpt lat="43.60392" lon="3.84629">
        <ele>60.7</ele>
        <time>2017-10-27T07:08:37.444Z</time>
      </trkpt>
      <trkpt lat="43.6039" lon="3.84635">
        <ele>60.2</ele>
        <time>2017-10-27T07:08:38.443Z</time>
      </trkpt>
      <trkpt lat="43.60388" lon="3.8464">
        <ele>60.5</ele>
        <time>2017-10-27T07:08:39.442Z</time>
      </trkpt>
      <trkpt lat="43.60384" lon="3.84644">
        <ele>60</ele>
        <time>2017-10-27T07:08:40.441Z</time>
      </trkpt>
      <trkpt lat="43.6038" lon="3.84646">
        <ele>59.7</ele>
        <time>2017-10-27T07:08:41.443Z</time>
      </trkpt>
      <trkpt lat="43.60374" lon="3.84649">
        <ele>58.8</ele>
        <time>2017-10-27T07:08:42.443Z</time>
      </trkpt>
      <trkpt lat="43.60368" lon="3.84652">
        <ele>58.2</ele>
        <time>2017-10-27T07:08:43.431Z</time>
      </trkpt>
      <trkpt lat="43.60362" lon="3.84656">
        <ele>57.4</ele>
        <time>2017-10-27T07:08:44.434Z</time>
      </trkpt>
      <trkpt lat="43.60355" lon="3.8466">
        <ele>56.8</ele>
        <time>2017-10-27T07:08:45.444Z</time>
      </trkpt>
      <trkpt lat="43.60347" lon="3.84665">
        <ele>56.4</ele>
        <time>2017-10-27T07:08:46.444Z</time>
      </trkpt>
      <trkpt lat="43.60339" lon="3.8467">
        <ele>55.9</ele>
        <time>2017-10-27T07:08:47.440Z</time>
      </trkpt>
      <trkpt lat="43.60331" lon="3.84677">
        <ele>55.3</ele>
        <time>2017-10-27T07:08:48.446Z</time>
      </trkpt>
      <trkpt lat="43.60323" lon="3.84684">
        <ele>54.7</ele>
        <time>2017-10-27T07:08:49.444Z</time>
      </trkpt>
      <trkpt lat="43.60315" lon="3.84692">
        <ele>54</ele>
        <time>2017-10-27T07:08:50.444Z</time>
      </trkpt>
      <trkpt lat="43.60307" lon="3.847">
        <ele>53.3</ele>
        <time>2017-10-27T07:08:51.442Z</time>
      </trkpt>
      <trkpt lat="43.60299" lon="3.8471">
        <ele>52.6</ele>
        <time>2017-10-27T07:08:52.437Z</time>
      </trkpt>
      <trkpt lat="43.60291" lon="3.84719">
        <ele>52</ele>
        <time>2017-10-27T07:08:53.441Z</time>
      </trkpt>
      <trkpt lat="43.60283" lon="3.84729">
        <ele>51.1</ele>
        <time>2017-10-27T07:08:54.443Z</time>
      </trkpt>
      <trkpt lat="43.60276" lon="3.84739">
        <ele>50.6</ele>
        <time>2017-10-27T07:08:55.442Z</time>
      </trkpt>
      <trkpt lat="43.60268" lon="3.84749">
        <ele>50.1</ele>
        <time>2017-10-27T07:08:56.444Z</time>
      </trkpt>
      <trkpt lat="43.60261" lon="3.84759">
        <ele>49.7</ele>
        <time>2017-10-27T07:08:57.431Z</time>
      </trkpt>
      <trkpt lat="43.60253" lon="3.84768">
        <ele>49.2</ele>
        <time>2017-10-27T07:08:58.447Z</time>
      </trkpt>
      <trkpt lat="43.60246" lon="3.84778">
        <ele>48.8</ele>
        <time>2017-10-27T07:08:59.442Z</time>
      </trkpt>
      <trkpt lat="43.60239" lon="3.84787">
        <ele>48.4</ele>
        <time>2017-10-27T07:09:00.431Z</time>
      </trkpt>
      <trkpt lat="43.60231" lon="3.84797">
        <ele>48</ele>
        <time>2017-10-27T07:09:01.430Z</time>
      </trkpt>
      <trkpt lat="43.60224" lon="3.84806">
        <ele>47.5</ele>
        <time>2017-10-27T07:09:02.430Z</time>
      </trkpt>
      <trkpt lat="43.60217" lon="3.84815">
        <ele>47.1</ele>
        <time>2017-10-27T07:09:03.445Z</time>
      </trkpt>
      <trkpt lat="43.60211" lon="3.84824">
        <ele>46.9</ele>
        <time>2017-10-27T07:09:04.444Z</time>
      </trkpt>
      <trkpt lat="43.60205" lon="3.8483">
        <ele>46.6</ele>
        <time>2017-10-27T07:09:05.444Z</time>
      </trkpt>
      <trkpt lat="43.60199" lon="3.84836">
        <ele>46.4</ele>
        <time>2017-10-27T07:09:06.443Z</time>
      </trkpt>
      <trkpt lat="43.60194" lon="3.84839">
        <ele>46.3</ele>
        <time>2017-10-27T07:09:07.444Z</time>
      </trkpt>
      <trkpt lat="43.60189" lon="3.84841">
        <ele>46.1</ele>
        <time>2017-10-27T07:09:08.454Z</time>
      </trkpt>
      <trkpt lat="43.60185" lon="3.84845">
        <ele>46</ele>
        <time>2017-10-27T07:09:09.442Z</time>
      </trkpt>
      <trkpt lat="43.60182" lon="3.84851">
        <ele>45.9</ele>
        <time>2017-10-27T07:09:10.442Z</time>
      </trkpt>
      <trkpt lat="43.6018" lon="3.84857">
        <ele>45.5</ele>
        <time>2017-10-27T07:09:11.452Z</time>
      </trkpt>
      <trkpt lat="43.60178" lon="3.84863">
        <ele>45.3</ele>
        <time>2017-10-27T07:09:12.444Z</time>
      </trkpt>
      <trkpt lat="43.60175" lon="3.84868">
        <ele>45.2</ele>
        <time>2017-10-27T07:09:13.442Z</time>
      </trkpt>
      <trkpt lat="43.60172" lon="3.84873">
        <ele>44.9</ele>
        <time>2017-10-27T07:09:14.446Z</time>
      </trkpt>
      <trkpt lat="43.60169" lon="3.84878">
        <ele>44.6</ele>
        <time>2017-10-27T07:09:15.442Z</time>
      </trkpt>
      <trkpt lat="43.60165" lon="3.84883">
        <ele>44.5</ele>
        <time>2017-10-27T07:09:16.430Z</time>
      </trkpt>
      <trkpt lat="43.60162" lon="3.84887">
        <ele>44.3</ele>
        <time>2017-10-27T07:09:17.431Z</time>
      </trkpt>
      <trkpt lat="43.60157" lon="3.84889">
        <ele>44.2</ele>
        <time>2017-10-27T07:09:18.432Z</time>
      </trkpt>
      <trkpt lat="43.60153" lon="3.84889">
        <ele>44</ele>
        <time>2017-10-27T07:09:19.443Z</time>
      </trkpt>
      <trkpt lat="43.60148" lon="3.84887">
        <ele>43.9</ele>
        <time>2017-10-27T07:09:20.439Z</time>
      </trkpt>
      <trkpt lat="43.60144" lon="3.84886">
        <ele>44.1</ele>
        <time>2017-10-27T07:09:21.432Z</time>
      </trkpt>
      <trkpt lat="43.60141" lon="3.84886">
        <ele>44.3</ele>
        <time>2017-10-27T07:09:22.449Z</time>
      </trkpt>
      <trkpt lat="43.60138" lon="3.84887">
        <ele>44.2</ele>
        <time>2017-10-27T07:09:23.442Z</time>
      </trkpt>
      <trkpt lat="43.60137" lon="3.8489">
        <ele>44.2</ele>
        <time>2017-10-27T07:09:24.445Z</time>
      </trkpt>
      <trkpt lat="43.60138" lon="3.84892">
        <ele>43.9</ele>
        <time>2017-10-27T07:09:25.443Z</time>
      </trkpt>
      <trkpt lat="43.60138" lon="3.84894">
        <ele>43.7</ele>
        <time>2017-10-27T07:09:26.442Z</time>
      </trkpt>
      <trkpt lat="43.60138" lon="3.84898">
        <ele>43.7</ele>
        <time>2017-10-27T07:09:27.434Z</time>
      </trkpt>
      <trkpt lat="43.60137" lon="3.84901">
        <ele>43.6</ele>
        <time>2017-10-27T07:09:28.447Z</time>
      </trkpt>
      <trkpt lat="43.60135" lon="3.84905">
        <ele>43.5</ele>
        <time>2017-10-27T07:09:29.441Z</time>
      </trkpt>
      <trkpt lat="43.60134" lon="3.84909">
        <ele>43.2</ele>
        <time>2017-10-27T07:09:30.447Z</time>
      </trkpt>
      <trkpt lat="43.60132" lon="3.84914">
        <ele>43.3</ele>
        <time>2017-10-27T07:09:31.444Z</time>
      </trkpt>
      <trkpt lat="43.60131" lon="3.84919">
        <ele>43</ele>
        <time>2017-10-27T07:09:32.442Z</time>
      </trkpt>
      <trkpt lat="43.6013" lon="3.84924">
        <ele>42.6</ele>
        <time>2017-10-27T07:09:33.448Z</time>
      </trkpt>
      <trkpt lat="43.60129" lon="3.84929">
        <ele>42.1</ele>
        <time>2017-10-27T07:09:34.444Z</time>
      </trkpt>
      <trkpt lat="43.60128" lon="3.84935">
        <ele>41.6</ele>
        <time>2017-10-27T07:09:35.443Z</time>
      </trkpt>
      <trkpt lat="43.60127" lon="3.84941">
        <ele>41.1</ele>
        <time>2017-10-27T07:09:36.443Z</time>
      </trkpt>
      <trkpt lat="43.60126" lon="3.84947">
        <ele>40.7</ele>
        <time>2017-10-27T07:09:37.431Z</time>
      </trkpt>
      <trkpt lat="43.60125" lon="3.84953">
        <ele>40.7</ele>
        <time>2017-10-27T07:09:38.430Z</time>
      </trkpt>
      <trkpt lat="43.60123" lon="3.84959">
        <ele>40.3</ele>
        <time>2017-10-27T07:09:39.433Z</time>
      </trkpt>
      <trkpt lat="43.60122" lon="3.84965">
        <ele>39.5</ele>
        <time>2017-10-27T07:09:40.439Z</time>
      </trkpt>
      <trkpt lat="43.60121" lon="3.84972">
        <ele>39.4</ele>
        <time>2017-10-27T07:09:41.440Z</time>
      </trkpt>
      <trkpt lat="43.60119" lon="3.84978">
        <ele>39.3</ele>
        <time>2017-10-27T07:09:42.466Z</time>
      </trkpt>
      <trkpt lat="43.60118" lon="3.84985">
        <ele>39</ele>
        <time>2017-10-27T07:09:43.454Z</time>
      </trkpt>
      <trkpt lat="43.60117" lon="3.84992">
        <ele>38.8</ele>
        <time>2017-10-27T07:09:44.455Z</time>
      </trkpt>
      <trkpt lat="43.60116" lon="3.84998">
        <ele>38.4</ele>
        <time>2017-10-27T07:09:45.443Z</time>
      </trkpt>
      <trkpt lat="43.60115" lon="3.85005">
        <ele>38.7</ele>
        <time>2017-10-27T07:09:46.448Z</time>
      </trkpt>
      <trkpt lat="43.60115" lon="3.85011">
        <ele>38.9</ele>
        <time>2017-10-27T07:09:47.444Z</time>
      </trkpt>
      <trkpt lat="43.60114" lon="3.85017">
        <ele>39.2</ele>
        <time>2017-10-27T07:09:48.444Z</time>
      </trkpt>
      <trkpt lat="43.60114" lon="3.85023">
        <ele>39.5</ele>
        <time>2017-10-27T07:09:49.445Z</time>
      </trkpt>
      <trkpt lat="43.60113" lon="3.85027">
        <ele>39.6</ele>
        <time>2017-10-27T07:09:50.441Z</time>
      </trkpt>
      <trkpt lat="43.60113" lon="3.85031">
        <ele>39.4</ele>
        <time>2017-10-27T07:09:51.442Z</time>
      </trkpt>
      <trkpt lat="43.60113" lon="3.85033">
        <ele>39.2</ele>
        <time>2017-10-27T07:09:52.441Z</time>
      </trkpt>
      <trkpt lat="43.60113" lon="3.85033">
        <ele>39.2</ele>
        <time>2017-10-27T07:11:03.161Z</time>
      </trkpt>
      <trkpt lat="43.60111" lon="3.85038">
        <ele>39.5</ele>
        <time>2017-10-27T07:11:12.444Z</time>
      </trkpt>
      <trkpt lat="43.6011" lon="3.85038">
        <ele>39.6</ele>
        <time>2017-10-27T07:11:13.445Z</time>
      </trkpt>
      <trkpt lat="43.60108" lon="3.85038">
        <ele>39.7</ele>
        <time>2017-10-27T07:11:14.443Z</time>
      </trkpt>
      <trkpt lat="43.60106" lon="3.85038">
        <ele>39.7</ele>
        <time>2017-10-27T07:11:15.433Z</time>
      </trkpt>
      <trkpt lat="43.60105" lon="3.85041">
        <ele>39.6</ele>
        <time>2017-10-27T07:11:16.430Z</time>
      </trkpt>
      <trkpt lat="43.60104" lon="3.85045">
        <ele>39.5</ele>
        <time>2017-10-27T07:11:17.432Z</time>
      </trkpt>
      <trkpt lat="43.60105" lon="3.85049">
        <ele>39.5</ele>
        <time>2017-10-27T07:11:18.446Z</time>
      </trkpt>
      <trkpt lat="43.60106" lon="3.85053">
        <ele>39.4</ele>
        <time>2017-10-27T07:11:19.450Z</time>
      </trkpt>
      <trkpt lat="43.60108" lon="3.85058">
        <ele>39.4</ele>
        <time>2017-10-27T07:11:20.443Z</time>
      </trkpt>
      <trkpt lat="43.6011" lon="3.85064">
        <ele>39.3</ele>
        <time>2017-10-27T07:11:21.445Z</time>
      </trkpt>
      <trkpt lat="43.60112" lon="3.85069">
        <ele>39.4</ele>
        <time>2017-10-27T07:11:22.442Z</time>
      </trkpt>
      <trkpt lat="43.60114" lon="3.85075">
        <ele>39.3</ele>
        <time>2017-10-27T07:11:23.444Z</time>
      </trkpt>
      <trkpt lat="43.60116" lon="3.85081">
        <ele>39.3</ele>
        <time>2017-10-27T07:11:24.446Z</time>
      </trkpt>
      <trkpt lat="43.60117" lon="3.85088">
        <ele>39.4</ele>
        <time>2017-10-27T07:11:25.443Z</time>
      </trkpt>
      <trkpt lat="43.60119" lon="3.85094">
        <ele>39.3</ele>
        <time>2017-10-27T07:11:26.443Z</time>
      </trkpt>
      <trkpt lat="43.60121" lon="3.85101">
        <ele>39.2</ele>
        <time>2017-10-27T07:11:27.443Z</time>
      </trkpt>
      <trkpt lat="43.60123" lon="3.85108">
        <ele>39.2</ele>
        <time>2017-10-27T07:11:28.442Z</time>
      </trkpt>
      <trkpt lat="43.60125" lon="3.85114">
        <ele>39.1</ele>
        <time>2017-10-27T07:11:29.452Z</time>
      </trkpt>
      <trkpt lat="43.60127" lon="3.85121">
        <ele>39.1</ele>
        <time>2017-10-27T07:11:30.445Z</time>
      </trkpt>
      <trkpt lat="43.60129" lon="3.85128">
        <ele>39.1</ele>
        <time>2017-10-27T07:11:31.445Z</time>
      </trkpt>
      <trkpt lat="43.60132" lon="3.85135">
        <ele>39</ele>
        <time>2017-10-27T07:11:32.448Z</time>
      </trkpt>
      <trkpt lat="43.60134" lon="3.85142">
        <ele>39</ele>
        <time>2017-10-27T07:11:33.431Z</time>
      </trkpt>
      <trkpt lat="43.60136" lon="3.8515">
        <ele>38.9</ele>
        <time>2017-10-27T07:11:34.431Z</time>
      </trkpt>
      <trkpt lat="43.60138" lon="3.85157">
        <ele>38.9</ele>
        <time>2017-10-27T07:11:35.431Z</time>
      </trkpt>
      <trkpt lat="43.6014" lon="3.85165">
        <ele>38.8</ele>
        <time>2017-10-27T07:11:36.444Z</time>
      </trkpt>
      <trkpt lat="43.60142" lon="3.85172">
        <ele>38.7</ele>
        <time>2017-10-27T07:11:37.449Z</time>
      </trkpt>
      <trkpt lat="43.60145" lon="3.8518">
        <ele>38.5</ele>
        <time>2017-10-27T07:11:38.464Z</time>
      </trkpt>
      <trkpt lat="43.60147" lon="3.85188">
        <ele>38.5</ele>
        <time>2017-10-27T07:11:39.460Z</time>
      </trkpt>
      <trkpt lat="43.6015" lon="3.85195">
        <ele>38.4</ele>
        <time>2017-10-27T07:11:40.442Z</time>
      </trkpt>
      <trkpt lat="43.60153" lon="3.85202">
        <ele>38.4</ele>
        <time>2017-10-27T07:11:41.445Z</time>
      </trkpt>
      <trkpt lat="43.60154" lon="3.85208">
        <ele>38.3</ele>
        <time>2017-10-27T07:11:42.445Z</time>
      </trkpt>
      <trkpt lat="43.60156" lon="3.85212">
        <ele>38.2</ele>
        <time>2017-10-27T07:11:43.431Z</time>
      </trkpt>
      <trkpt lat="43.60157" lon="3.85215">
        <ele>38.2</ele>
        <time>2017-10-27T07:11:44.443Z</time>
      </trkpt>
      <trkpt lat="43.60158" lon="3.85219">
        <ele>37.8</ele>
        <time>2017-10-27T07:11:45.445Z</time>
      </trkpt>
      <trkpt lat="43.6016" lon="3.85223">
        <ele>38.1</ele>
        <time>2017-10-27T07:11:46.449Z</time>
      </trkpt>
      <trkpt lat="43.60162" lon="3.85228">
        <ele>38</ele>
        <time>2017-10-27T07:11:47.457Z</time>
      </trkpt>
      <trkpt lat="43.60163" lon="3.85233">
        <ele>38</ele>
        <time>2017-10-27T07:11:48.446Z</time>
      </trkpt>
      <trkpt lat="43.60165" lon="3.85239">
        <ele>37.9</ele>
        <time>2017-10-27T07:11:49.444Z</time>
      </trkpt>
      <trkpt lat="43.60168" lon="3.85244">
        <ele>38</ele>
        <time>2017-10-27T07:11:50.445Z</time>
      </trkpt>
      <trkpt lat="43.6017" lon="3.8525">
        <ele>38</ele>
        <time>2017-10-27T07:11:51.452Z</time>
      </trkpt>
      <trkpt lat="43.60173" lon="3.85256">
        <ele>38</ele>
        <time>2017-10-27T07:11:52.431Z</time>
      </trkpt>
      <trkpt lat="43.60175" lon="3.85262">
        <ele>38</ele>
        <time>2017-10-27T07:11:53.431Z</time>
      </trkpt>
      <trkpt lat="43.60178" lon="3.85268">
        <ele>38</ele>
        <time>2017-10-27T07:11:54.433Z</time>
      </trkpt>
      <trkpt lat="43.60181" lon="3.85275">
        <ele>38</ele>
        <time>2017-10-27T07:11:55.460Z</time>
      </trkpt>
      <trkpt lat="43.60183" lon="3.85281">
        <ele>38</ele>
        <time>2017-10-27T07:11:56.444Z</time>
      </trkpt>
      <trkpt lat="43.60186" lon="3.85287">
        <ele>38</ele>
        <time>2017-10-27T07:11:57.431Z</time>
      </trkpt>
      <trkpt lat="43.6019" lon="3.85293">
        <ele>38</ele>
        <time>2017-10-27T07:11:58.443Z</time>
      </trkpt>
      <trkpt lat="43.60193" lon="3.853">
        <ele>38</ele>
        <time>2017-10-27T07:11:59.446Z</time>
      </trkpt>
      <trkpt lat="43.60196" lon="3.85306">
        <ele>38</ele>
        <time>2017-10-27T07:12:00.443Z</time>
      </trkpt>
      <trkpt lat="43.60198" lon="3.85313">
        <ele>38.1</ele>
        <time>2017-10-27T07:12:01.443Z</time>
      </trkpt>
      <trkpt lat="43.60201" lon="3.85319">
        <ele>38.4</ele>
        <time>2017-10-27T07:12:02.442Z</time>
      </trkpt>
      <trkpt lat="43.60204" lon="3.85326">
        <ele>38.7</ele>
        <time>2017-10-27T07:12:03.457Z</time>
      </trkpt>
      <trkpt lat="43.60207" lon="3.85332">
        <ele>38.6</ele>
        <time>2017-10-27T07:12:04.446Z</time>
      </trkpt>
      <trkpt lat="43.6021" lon="3.85339">
        <ele>38.8</ele>
        <time>2017-10-27T07:12:05.443Z</time>
      </trkpt>
      <trkpt lat="43.60213" lon="3.85346">
        <ele>38.8</ele>
        <time>2017-10-27T07:12:06.445Z</time>
      </trkpt>
      <trkpt lat="43.60215" lon="3.85352">
        <ele>39</ele>
        <time>2017-10-27T07:12:07.447Z</time>
      </trkpt>
      <trkpt lat="43.60218" lon="3.85359">
        <ele>39.1</ele>
        <time>2017-10-27T07:12:08.430Z</time>
      </trkpt>
      <trkpt lat="43.60221" lon="3.85366">
        <ele>39.2</ele>
        <time>2017-10-27T07:12:09.436Z</time>
      </trkpt>
      <trkpt lat="43.60224" lon="3.85372">
        <ele>39.3</ele>
        <time>2017-10-27T07:12:10.431Z</time>
      </trkpt>
      <trkpt lat="43.60227" lon="3.85379">
        <ele>39.4</ele>
        <time>2017-10-27T07:12:11.433Z</time>
      </trkpt>
      <trkpt lat="43.6023" lon="3.85386">
        <ele>39.6</ele>
        <time>2017-10-27T07:12:12.433Z</time>
      </trkpt>
      <trkpt lat="43.60232" lon="3.85393">
        <ele>39.7</ele>
        <time>2017-10-27T07:12:13.433Z</time>
      </trkpt>
      <trkpt lat="43.60235" lon="3.85399">
        <ele>39.5</ele>
        <time>2017-10-27T07:12:14.458Z</time>
      </trkpt>
      <trkpt lat="43.60237" lon="3.85406">
        <ele>39.5</ele>
        <time>2017-10-27T07:12:15.446Z</time>
      </trkpt>
      <trkpt lat="43.60239" lon="3.85414">
        <ele>39.6</ele>
        <time>2017-10-27T07:12:16.454Z</time>
      </trkpt>
      <trkpt lat="43.60242" lon="3.85421">
        <ele>39.5</ele>
        <time>2017-10-27T07:12:17.446Z</time>
      </trkpt>
      <trkpt lat="43.60245" lon="3.85427">
        <ele>39.6</ele>
        <time>2017-10-27T07:12:18.448Z</time>
      </trkpt>
      <trkpt lat="43.60248" lon="3.85434">
        <ele>39.5</ele>
        <time>2017-10-27T07:12:19.445Z</time>
      </trkpt>
      <trkpt lat="43.60251" lon="3.85441">
        <ele>39.3</ele>
        <time>2017-10-27T07:12:20.447Z</time>
      </trkpt>
      <trkpt lat="43.60253" lon="3.85447">
        <ele>39.2</ele>
        <time>2017-10-27T07:12:21.451Z</time>
      </trkpt>
      <trkpt lat="43.60256" lon="3.85454">
        <ele>39.3</ele>
        <time>2017-10-27T07:12:22.445Z</time>
      </trkpt>
      <trkpt lat="43.60259" lon="3.8546">
        <ele>39.1</ele>
        <time>2017-10-27T07:12:23.446Z</time>
      </trkpt>
      <trkpt lat="43.60262" lon="3.85467">
        <ele>39</ele>
        <time>2017-10-27T07:12:24.453Z</time>
      </trkpt>
      <trkpt lat="43.60264" lon="3.85473">
        <ele>39.1</ele>
        <time>2017-10-27T07:12:25.444Z</time>
      </trkpt>
      <trkpt lat="43.60267" lon="3.85479">
        <ele>39</ele>
        <time>2017-10-27T07:12:26.443Z</time>
      </trkpt>
      <trkpt lat="43.6027" lon="3.85486">
        <ele>39.1</ele>
        <time>2017-10-27T07:12:27.443Z</time>
      </trkpt>
      <trkpt lat="43.60272" lon="3.85492">
        <ele>39</ele>
        <time>2017-10-27T07:12:28.443Z</time>
      </trkpt>
      <trkpt lat="43.60274" lon="3.85498">
        <ele>39</ele>
        <time>2017-10-27T07:12:29.449Z</time>
      </trkpt>
      <trkpt lat="43.60277" lon="3.85504">
        <ele>39</ele>
        <time>2017-10-27T07:12:30.444Z</time>
      </trkpt>
      <trkpt lat="43.60279" lon="3.8551">
        <ele>38.8</ele>
        <time>2017-10-27T07:12:31.447Z</time>
      </trkpt>
      <trkpt lat="43.6028" lon="3.85516">
        <ele>38.9</ele>
        <time>2017-10-27T07:12:32.430Z</time>
      </trkpt>
      <trkpt lat="43.60281" lon="3.85523">
        <ele>39.2</ele>
        <time>2017-10-27T07:12:33.431Z</time>
      </trkpt>
      <trkpt lat="43.60281" lon="3.85529">
        <ele>39.3</ele>
        <time>2017-10-27T07:12:34.432Z</time>
      </trkpt>
      <trkpt lat="43.6028" lon="3.85535">
        <ele>38.8</ele>
        <time>2017-10-27T07:12:35.467Z</time>
      </trkpt>
      <trkpt lat="43.60278" lon="3.85541">
        <ele>39</ele>
        <time>2017-10-27T07:12:36.458Z</time>
      </trkpt>
      <trkpt lat="43.60276" lon="3.85546">
        <ele>39</ele>
        <time>2017-10-27T07:12:37.432Z</time>
      </trkpt>
      <trkpt lat="43.60273" lon="3.85551">
        <ele>39</ele>
        <time>2017-10-27T07:12:38.448Z</time>
      </trkpt>
      <trkpt lat="43.6027" lon="3.85556">
        <ele>38.9</ele>
        <time>2017-10-27T07:12:39.444Z</time>
      </trkpt>
      <trkpt lat="43.60267" lon="3.85561">
        <ele>38.9</ele>
        <time>2017-10-27T07:12:40.442Z</time>
      </trkpt>
      <trkpt lat="43.60265" lon="3.85566">
        <ele>38.8</ele>
        <time>2017-10-27T07:12:41.446Z</time>
      </trkpt>
      <trkpt lat="43.60262" lon="3.85571">
        <ele>38.8</ele>
        <time>2017-10-27T07:12:42.445Z</time>
      </trkpt>
      <trkpt lat="43.60259" lon="3.85577">
        <ele>38.4</ele>
        <time>2017-10-27T07:12:43.446Z</time>
      </trkpt>
      <trkpt lat="43.60256" lon="3.85582">
        <ele>38.6</ele>
        <time>2017-10-27T07:12:44.442Z</time>
      </trkpt>
      <trkpt lat="43.60253" lon="3.85588">
        <ele>38.6</ele>
        <time>2017-10-27T07:12:45.450Z</time>
      </trkpt>
      <trkpt lat="43.6025" lon="3.85594">
        <ele>39.2</ele>
        <time>2017-10-27T07:12:46.442Z</time>
      </trkpt>
      <trkpt lat="43.60247" lon="3.85599">
        <ele>38.9</ele>
        <time>2017-10-27T07:12:47.443Z</time>
      </trkpt>
      <trkpt lat="43.60244" lon="3.85604">
        <ele>38.7</ele>
        <time>2017-10-27T07:12:48.446Z</time>
      </trkpt>
      <trkpt lat="43.6024" lon="3.8561">
        <ele>38.8</ele>
        <time>2017-10-27T07:12:49.443Z</time>
      </trkpt>
      <trkpt lat="43.60237" lon="3.85615">
        <ele>38.8</ele>
        <time>2017-10-27T07:12:50.444Z</time>
      </trkpt>
      <trkpt lat="43.60234" lon="3.85621">
        <ele>38.8</ele>
        <time>2017-10-27T07:12:51.445Z</time>
      </trkpt>
      <trkpt lat="43.6023" lon="3.85626">
        <ele>38.7</ele>
        <time>2017-10-27T07:12:52.430Z</time>
      </trkpt>
      <trkpt lat="43.60227" lon="3.85632">
        <ele>38.8</ele>
        <time>2017-10-27T07:12:53.431Z</time>
      </trkpt>
      <trkpt lat="43.60224" lon="3.85638">
        <ele>38.8</ele>
        <time>2017-10-27T07:12:54.434Z</time>
      </trkpt>
      <trkpt lat="43.60221" lon="3.85643">
        <ele>38.8</ele>
        <time>2017-10-27T07:12:55.431Z</time>
      </trkpt>
      <trkpt lat="43.60217" lon="3.85649">
        <ele>38.7</ele>
        <time>2017-10-27T07:12:56.445Z</time>
      </trkpt>
      <trkpt lat="43.60214" lon="3.85654">
        <ele>38.7</ele>
        <time>2017-10-27T07:12:57.433Z</time>
      </trkpt>
      <trkpt lat="43.60211" lon="3.85659">
        <ele>38.6</ele>
        <time>2017-10-27T07:12:58.446Z</time>
      </trkpt>
      <trkpt lat="43.60207" lon="3.85664">
        <ele>38.5</ele>
        <time>2017-10-27T07:12:59.444Z</time>
      </trkpt>
      <trkpt lat="43.60204" lon="3.85669">
        <ele>38.5</ele>
        <time>2017-10-27T07:13:00.444Z</time>
      </trkpt>
      <trkpt lat="43.60201" lon="3.85674">
        <ele>38.3</ele>
        <time>2017-10-27T07:13:01.452Z</time>
      </trkpt>
      <trkpt lat="43.60198" lon="3.85679">
        <ele>38.3</ele>
        <time>2017-10-27T07:13:02.444Z</time>
      </trkpt>
      <trkpt lat="43.60195" lon="3.85684">
        <ele>38.3</ele>
        <time>2017-10-27T07:13:03.444Z</time>
      </trkpt>
      <trkpt lat="43.60192" lon="3.85689">
        <ele>38.2</ele>
        <time>2017-10-27T07:13:04.442Z</time>
      </trkpt>
      <trkpt lat="43.60188" lon="3.85694">
        <ele>38.1</ele>
        <time>2017-10-27T07:13:05.448Z</time>
      </trkpt>
      <trkpt lat="43.60184" lon="3.85699">
        <ele>37.9</ele>
        <time>2017-10-27T07:13:06.445Z</time>
      </trkpt>
      <trkpt lat="43.60182" lon="3.85705">
        <ele>37.7</ele>
        <time>2017-10-27T07:13:07.452Z</time>
      </trkpt>
      <trkpt lat="43.6018" lon="3.85712">
        <ele>37.9</ele>
        <time>2017-10-27T07:13:08.443Z</time>
      </trkpt>
      <trkpt lat="43.60179" lon="3.8572">
        <ele>37.9</ele>
        <time>2017-10-27T07:13:09.447Z</time>
      </trkpt>
      <trkpt lat="43.60179" lon="3.85727">
        <ele>38</ele>
        <time>2017-10-27T07:13:10.451Z</time>
      </trkpt>
      <trkpt lat="43.60177" lon="3.85733">
        <ele>37.9</ele>
        <time>2017-10-27T07:13:11.431Z</time>
      </trkpt>
      <trkpt lat="43.60174" lon="3.85739">
        <ele>37.7</ele>
        <time>2017-10-27T07:13:12.432Z</time>
      </trkpt>
      <trkpt lat="43.6017" lon="3.85743">
        <ele>37.5</ele>
        <time>2017-10-27T07:13:13.432Z</time>
      </trkpt>
      <trkpt lat="43.60166" lon="3.85747">
        <ele>37.4</ele>
        <time>2017-10-27T07:13:14.446Z</time>
      </trkpt>
      <trkpt lat="43.60161" lon="3.85752">
        <ele>36.9</ele>
        <time>2017-10-27T07:13:15.446Z</time>
      </trkpt>
      <trkpt lat="43.60157" lon="3.85758">
        <ele>36.7</ele>
        <time>2017-10-27T07:13:16.450Z</time>
      </trkpt>
      <trkpt lat="43.60152" lon="3.85763">
        <ele>36.2</ele>
        <time>2017-10-27T07:13:17.449Z</time>
      </trkpt>
      <trkpt lat="43.60148" lon="3.85769">
        <ele>36</ele>
        <time>2017-10-27T07:13:18.444Z</time>
      </trkpt>
      <trkpt lat="43.60143" lon="3.85774">
        <ele>36.1</ele>
        <time>2017-10-27T07:13:19.431Z</time>
      </trkpt>
      <trkpt lat="43.60139" lon="3.8578">
        <ele>35.9</ele>
        <time>2017-10-27T07:13:20.431Z</time>
      </trkpt>
      <trkpt lat="43.60134" lon="3.85786">
        <ele>35.8</ele>
        <time>2017-10-27T07:13:21.431Z</time>
      </trkpt>
      <trkpt lat="43.6013" lon="3.85792">
        <ele>35.6</ele>
        <time>2017-10-27T07:13:22.430Z</time>
      </trkpt>
      <trkpt lat="43.60125" lon="3.85798">
        <ele>36.2</ele>
        <time>2017-10-27T07:13:23.436Z</time>
      </trkpt>
      <trkpt lat="43.6012" lon="3.85805">
        <ele>35.9</ele>
        <time>2017-10-27T07:13:24.444Z</time>
      </trkpt>
      <trkpt lat="43.60115" lon="3.85811">
        <ele>35.9</ele>
        <time>2017-10-27T07:13:25.444Z</time>
      </trkpt>
      <trkpt lat="43.60111" lon="3.85817">
        <ele>35.7</ele>
        <time>2017-10-27T07:13:26.443Z</time>
      </trkpt>
      <trkpt lat="43.60106" lon="3.85823">
        <ele>35.6</ele>
        <time>2017-10-27T07:13:27.443Z</time>
      </trkpt>
      <trkpt lat="43.60101" lon="3.8583">
        <ele>35.5</ele>
        <time>2017-10-27T07:13:28.432Z</time>
      </trkpt>
      <trkpt lat="43.60096" lon="3.85836">
        <ele>35.4</ele>
        <time>2017-10-27T07:13:29.433Z</time>
      </trkpt>
      <trkpt lat="43.60091" lon="3.85843">
        <ele>35.3</ele>
        <time>2017-10-27T07:13:30.432Z</time>
      </trkpt>
      <trkpt lat="43.60086" lon="3.8585">
        <ele>35.2</ele>
        <time>2017-10-27T07:13:31.432Z</time>
      </trkpt>
      <trkpt lat="43.60081" lon="3.85856">
        <ele>35.2</ele>
        <time>2017-10-27T07:13:32.443Z</time>
      </trkpt>
      <trkpt lat="43.60075" lon="3.85863">
        <ele>35.1</ele>
        <time>2017-10-27T07:13:33.445Z</time>
      </trkpt>
      <trkpt lat="43.6007" lon="3.8587">
        <ele>35</ele>
        <time>2017-10-27T07:13:34.444Z</time>
      </trkpt>
      <trkpt lat="43.60065" lon="3.85876">
        <ele>34.9</ele>
        <time>2017-10-27T07:13:35.443Z</time>
      </trkpt>
      <trkpt lat="43.60061" lon="3.85883">
        <ele>34.6</ele>
        <time>2017-10-27T07:13:36.445Z</time>
      </trkpt>
      <trkpt lat="43.60056" lon="3.8589">
        <ele>34.4</ele>
        <time>2017-10-27T07:13:37.439Z</time>
      </trkpt>
      <trkpt lat="43.60051" lon="3.85897">
        <ele>34.3</ele>
        <time>2017-10-27T07:13:38.457Z</time>
      </trkpt>
      <trkpt lat="43.60046" lon="3.85903">
        <ele>34.3</ele>
        <time>2017-10-27T07:13:39.452Z</time>
      </trkpt>
      <trkpt lat="43.60042" lon="3.8591">
        <ele>34.3</ele>
        <time>2017-10-27T07:13:40.449Z</time>
      </trkpt>
      <trkpt lat="43.60037" lon="3.85917">
        <ele>34.3</ele>
        <time>2017-10-27T07:13:41.448Z</time>
      </trkpt>
      <trkpt lat="43.60033" lon="3.85924">
        <ele>34.3</ele>
        <time>2017-10-27T07:13:42.444Z</time>
      </trkpt>
      <trkpt lat="43.60029" lon="3.85931">
        <ele>34.3</ele>
        <time>2017-10-27T07:13:43.447Z</time>
      </trkpt>
      <trkpt lat="43.60025" lon="3.85938">
        <ele>34.3</ele>
        <time>2017-10-27T07:13:44.444Z</time>
      </trkpt>
      <trkpt lat="43.60021" lon="3.85944">
        <ele>34.4</ele>
        <time>2017-10-27T07:13:45.444Z</time>
      </trkpt>
      <trkpt lat="43.60017" lon="3.8595">
        <ele>34.4</ele>
        <time>2017-10-27T07:13:46.431Z</time>
      </trkpt>
      <trkpt lat="43.60012" lon="3.85956">
        <ele>34.4</ele>
        <time>2017-10-27T07:13:47.431Z</time>
      </trkpt>
      <trkpt lat="43.60008" lon="3.85962">
        <ele>34.5</ele>
        <time>2017-10-27T07:13:48.432Z</time>
      </trkpt>
      <trkpt lat="43.60004" lon="3.85968">
        <ele>34.6</ele>
        <time>2017-10-27T07:13:49.456Z</time>
      </trkpt>
      <trkpt lat="43.6" lon="3.85974">
        <ele>34.7</ele>
        <time>2017-10-27T07:13:50.444Z</time>
      </trkpt>
      <trkpt lat="43.59996" lon="3.8598">
        <ele>34.7</ele>
        <time>2017-10-27T07:13:51.444Z</time>
      </trkpt>
      <trkpt lat="43.59992" lon="3.85986">
        <ele>34.2</ele>
        <time>2017-10-27T07:13:52.443Z</time>
      </trkpt>
      <trkpt lat="43.59988" lon="3.85992">
        <ele>34.2</ele>
        <time>2017-10-27T07:13:53.443Z</time>
      </trkpt>
      <trkpt lat="43.59984" lon="3.85998">
        <ele>34.2</ele>
        <time>2017-10-27T07:13:54.445Z</time>
      </trkpt>
      <trkpt lat="43.59979" lon="3.86004">
        <ele>34.2</ele>
        <time>2017-10-27T07:13:55.444Z</time>
      </trkpt>
      <trkpt lat="43.59975" lon="3.8601">
        <ele>34.1</ele>
        <time>2017-10-27T07:13:56.443Z</time>
      </trkpt>
      <trkpt lat="43.59971" lon="3.86016">
        <ele>34.1</ele>
        <time>2017-10-27T07:13:57.432Z</time>
      </trkpt>
      <trkpt lat="43.59966" lon="3.86023">
        <ele>34.3</ele>
        <time>2017-10-27T07:13:58.440Z</time>
      </trkpt>
      <trkpt lat="43.59962" lon="3.86029">
        <ele>34</ele>
        <time>2017-10-27T07:13:59.443Z</time>
      </trkpt>
      <trkpt lat="43.59958" lon="3.86035">
        <ele>33.9</ele>
        <time>2017-10-27T07:14:00.445Z</time>
      </trkpt>
      <trkpt lat="43.59953" lon="3.86041">
        <ele>33.7</ele>
        <time>2017-10-27T07:14:01.445Z</time>
      </trkpt>
      <trkpt lat="43.59949" lon="3.86047">
        <ele>33.8</ele>
        <time>2017-10-27T07:14:02.431Z</time>
      </trkpt>
      <trkpt lat="43.59944" lon="3.86054">
        <ele>33.9</ele>
        <time>2017-10-27T07:14:03.431Z</time>
      </trkpt>
      <trkpt lat="43.5994" lon="3.8606">
        <ele>33.8</ele>
        <time>2017-10-27T07:14:04.431Z</time>
      </trkpt>
      <trkpt lat="43.59935" lon="3.86067">
        <ele>33.8</ele>
        <time>2017-10-27T07:14:05.432Z</time>
      </trkpt>
      <trkpt lat="43.59931" lon="3.86074">
        <ele>33.7</ele>
        <time>2017-10-27T07:14:06.446Z</time>
      </trkpt>
      <trkpt lat="43.59928" lon="3.86082">
        <ele>33.6</ele>
        <time>2017-10-27T07:14:07.438Z</time>
      </trkpt>
      <trkpt lat="43.59924" lon="3.86089">
        <ele>33.6</ele>
        <time>2017-10-27T07:14:08.443Z</time>
      </trkpt>
      <trkpt lat="43.5992" lon="3.86097">
        <ele>33.4</ele>
        <time>2017-10-27T07:14:09.453Z</time>
      </trkpt>
      <trkpt lat="43.59916" lon="3.86104">
        <ele>32.9</ele>
        <time>2017-10-27T07:14:10.443Z</time>
      </trkpt>
      <trkpt lat="43.59912" lon="3.86112">
        <ele>32.4</ele>
        <time>2017-10-27T07:14:11.447Z</time>
      </trkpt>
      <trkpt lat="43.59908" lon="3.86121">
        <ele>32.7</ele>
        <time>2017-10-27T07:14:12.446Z</time>
      </trkpt>
      <trkpt lat="43.59904" lon="3.86129">
        <ele>32.2</ele>
        <time>2017-10-27T07:14:13.447Z</time>
      </trkpt>
      <trkpt lat="43.599" lon="3.86138">
        <ele>31.8</ele>
        <time>2017-10-27T07:14:14.453Z</time>
      </trkpt>
      <trkpt lat="43.59896" lon="3.86148">
        <ele>32.1</ele>
        <time>2017-10-27T07:14:15.446Z</time>
      </trkpt>
      <trkpt lat="43.59892" lon="3.86157">
        <ele>31.7</ele>
        <time>2017-10-27T07:14:16.450Z</time>
      </trkpt>
      <trkpt lat="43.59888" lon="3.86166">
        <ele>31.4</ele>
        <time>2017-10-27T07:14:17.447Z</time>
      </trkpt>
      <trkpt lat="43.59884" lon="3.86176">
        <ele>31.2</ele>
        <time>2017-10-27T07:14:18.445Z</time>
      </trkpt>
      <trkpt lat="43.5988" lon="3.86185">
        <ele>30.6</ele>
        <time>2017-10-27T07:14:19.444Z</time>
      </trkpt>
      <trkpt lat="43.59877" lon="3.86195">
        <ele>30.1</ele>
        <time>2017-10-27T07:14:20.443Z</time>
      </trkpt>
      <trkpt lat="43.59873" lon="3.86204">
        <ele>29.7</ele>
        <time>2017-10-27T07:14:21.444Z</time>
      </trkpt>
      <trkpt lat="43.59869" lon="3.86214">
        <ele>29.4</ele>
        <time>2017-10-27T07:14:22.430Z</time>
      </trkpt>
      <trkpt lat="43.59865" lon="3.86223">
        <ele>29.2</ele>
        <time>2017-10-27T07:14:23.430Z</time>
      </trkpt>
      <trkpt lat="43.59861" lon="3.86232">
        <ele>29</ele>
        <time>2017-10-27T07:14:24.431Z</time>
      </trkpt>
      <trkpt lat="43.59857" lon="3.86241">
        <ele>29</ele>
        <time>2017-10-27T07:14:25.446Z</time>
      </trkpt>
      <trkpt lat="43.59853" lon="3.8625">
        <ele>29.3</ele>
        <time>2017-10-27T07:14:26.456Z</time>
      </trkpt>
      <trkpt lat="43.59849" lon="3.86259">
        <ele>29.2</ele>
        <time>2017-10-27T07:14:27.461Z</time>
      </trkpt>
      <trkpt lat="43.59844" lon="3.86267">
        <ele>29.1</ele>
        <time>2017-10-27T07:14:28.445Z</time>
      </trkpt>
      <trkpt lat="43.5984" lon="3.86275">
        <ele>28.9</ele>
        <time>2017-10-27T07:14:29.450Z</time>
      </trkpt>
      <trkpt lat="43.59835" lon="3.86284">
        <ele>28.9</ele>
        <time>2017-10-27T07:14:30.444Z</time>
      </trkpt>
      <trkpt lat="43.59831" lon="3.86292">
        <ele>29</ele>
        <time>2017-10-27T07:14:31.447Z</time>
      </trkpt>
      <trkpt lat="43.59826" lon="3.863">
        <ele>29.1</ele>
        <time>2017-10-27T07:14:32.451Z</time>
      </trkpt>
      <trkpt lat="43.59822" lon="3.86308">
        <ele>28.8</ele>
        <time>2017-10-27T07:14:33.431Z</time>
      </trkpt>
      <trkpt lat="43.59818" lon="3.86316">
        <ele>28.8</ele>
        <time>2017-10-27T07:14:34.436Z</time>
      </trkpt>
      <trkpt lat="43.59814" lon="3.86324">
        <ele>28.8</ele>
        <time>2017-10-27T07:14:35.444Z</time>
      </trkpt>
      <trkpt lat="43.59809" lon="3.86331">
        <ele>28.5</ele>
        <time>2017-10-27T07:14:36.433Z</time>
      </trkpt>
      <trkpt lat="43.59805" lon="3.86338">
        <ele>28.5</ele>
        <time>2017-10-27T07:14:37.433Z</time>
      </trkpt>
      <trkpt lat="43.598" lon="3.86344">
        <ele>28.8</ele>
        <time>2017-10-27T07:14:38.445Z</time>
      </trkpt>
      <trkpt lat="43.59794" lon="3.86349">
        <ele>28.9</ele>
        <time>2017-10-27T07:14:39.444Z</time>
      </trkpt>
      <trkpt lat="43.59789" lon="3.86355">
        <ele>28.9</ele>
        <time>2017-10-27T07:14:40.439Z</time>
      </trkpt>
      <trkpt lat="43.59784" lon="3.86361">
        <ele>28.7</ele>
        <time>2017-10-27T07:14:41.444Z</time>
      </trkpt>
      <trkpt lat="43.59779" lon="3.86366">
        <ele>28.5</ele>
        <time>2017-10-27T07:14:42.446Z</time>
      </trkpt>
      <trkpt lat="43.59774" lon="3.86371">
        <ele>28.3</ele>
        <time>2017-10-27T07:14:43.438Z</time>
      </trkpt>
      <trkpt lat="43.5977" lon="3.86376">
        <ele>28.2</ele>
        <time>2017-10-27T07:14:44.438Z</time>
      </trkpt>
      <trkpt lat="43.59766" lon="3.8638">
        <ele>28</ele>
        <time>2017-10-27T07:14:45.439Z</time>
      </trkpt>
      <trkpt lat="43.59762" lon="3.86384">
        <ele>27.7</ele>
        <time>2017-10-27T07:14:46.437Z</time>
      </trkpt>
      <trkpt lat="43.59759" lon="3.86387">
        <ele>27.3</ele>
        <time>2017-10-27T07:14:47.437Z</time>
      </trkpt>
      <trkpt lat="43.59756" lon="3.8639">
        <ele>26.8</ele>
        <time>2017-10-27T07:14:48.464Z</time>
      </trkpt>
      <trkpt lat="43.59754" lon="3.86392">
        <ele>26.3</ele>
        <time>2017-10-27T07:14:49.445Z</time>
      </trkpt>
      <trkpt lat="43.59752" lon="3.86394">
        <ele>26.1</ele>
        <time>2017-10-27T07:14:50.445Z</time>
      </trkpt>
      <trkpt lat="43.59747" lon="3.86399">
        <ele>24.9</ele>
        <time>2017-10-27T07:14:56.431Z</time>
      </trkpt>
      <trkpt lat="43.59746" lon="3.86401">
        <ele>24.7</ele>
        <time>2017-10-27T07:14:57.435Z</time>
      </trkpt>
      <trkpt lat="43.59744" lon="3.86403">
        <ele>24.6</ele>
        <time>2017-10-27T07:14:58.444Z</time>
      </trkpt>
      <trkpt lat="43.59742" lon="3.86406">
        <ele>24.7</ele>
        <time>2017-10-27T07:14:59.445Z</time>
      </trkpt>
      <trkpt lat="43.5974" lon="3.8641">
        <ele>24.7</ele>
        <time>2017-10-27T07:15:00.447Z</time>
      </trkpt>
      <trkpt lat="43.59739" lon="3.86415">
        <ele>25.1</ele>
        <time>2017-10-27T07:15:01.446Z</time>
      </trkpt>
      <trkpt lat="43.59738" lon="3.8642">
        <ele>25.3</ele>
        <time>2017-10-27T07:15:02.446Z</time>
      </trkpt>
      <trkpt lat="43.59737" lon="3.86426">
        <ele>25.4</ele>
        <time>2017-10-27T07:15:03.457Z</time>
      </trkpt>
      <trkpt lat="43.59734" lon="3.86431">
        <ele>25.9</ele>
        <time>2017-10-27T07:15:04.449Z</time>
      </trkpt>
      <trkpt lat="43.59732" lon="3.86436">
        <ele>26.4</ele>
        <time>2017-10-27T07:15:05.453Z</time>
      </trkpt>
      <trkpt lat="43.59729" lon="3.86442">
        <ele>26.7</ele>
        <time>2017-10-27T07:15:06.464Z</time>
      </trkpt>
      <trkpt lat="43.59726" lon="3.86447">
        <ele>26.9</ele>
        <time>2017-10-27T07:15:07.455Z</time>
      </trkpt>
      <trkpt lat="43.59723" lon="3.86452">
        <ele>27.2</ele>
        <time>2017-10-27T07:15:08.454Z</time>
      </trkpt>
      <trkpt lat="43.5972" lon="3.86457">
        <ele>27.4</ele>
        <time>2017-10-27T07:15:09.444Z</time>
      </trkpt>
      <trkpt lat="43.59717" lon="3.86462">
        <ele>27.3</ele>
        <time>2017-10-27T07:15:10.444Z</time>
      </trkpt>
      <trkpt lat="43.59714" lon="3.86467">
        <ele>27.3</ele>
        <time>2017-10-27T07:15:11.444Z</time>
      </trkpt>
      <trkpt lat="43.59711" lon="3.86473">
        <ele>26.9</ele>
        <time>2017-10-27T07:15:12.446Z</time>
      </trkpt>
      <trkpt lat="43.59708" lon="3.86478">
        <ele>26.8</ele>
        <time>2017-10-27T07:15:13.446Z</time>
      </trkpt>
      <trkpt lat="43.59705" lon="3.86484">
        <ele>26.7</ele>
        <time>2017-10-27T07:15:14.445Z</time>
      </trkpt>
      <trkpt lat="43.59702" lon="3.8649">
        <ele>26.7</ele>
        <time>2017-10-27T07:15:15.446Z</time>
      </trkpt>
      <trkpt lat="43.59698" lon="3.86496">
        <ele>26.5</ele>
        <time>2017-10-27T07:15:16.447Z</time>
      </trkpt>
      <trkpt lat="43.59695" lon="3.86502">
        <ele>26.4</ele>
        <time>2017-10-27T07:15:17.449Z</time>
      </trkpt>
      <trkpt lat="43.59692" lon="3.86508">
        <ele>26.2</ele>
        <time>2017-10-27T07:15:18.447Z</time>
      </trkpt>
      <trkpt lat="43.59688" lon="3.86514">
        <ele>26.3</ele>
        <time>2017-10-27T07:15:19.445Z</time>
      </trkpt>
      <trkpt lat="43.59685" lon="3.8652">
        <ele>26.2</ele>
        <time>2017-10-27T07:15:20.434Z</time>
      </trkpt>
      <trkpt lat="43.59681" lon="3.86526">
        <ele>26.1</ele>
        <time>2017-10-27T07:15:21.431Z</time>
      </trkpt>
      <trkpt lat="43.59678" lon="3.86532">
        <ele>26.2</ele>
        <time>2017-10-27T07:15:22.436Z</time>
      </trkpt>
      <trkpt lat="43.59675" lon="3.86539">
        <ele>26.1</ele>
        <time>2017-10-27T07:15:23.465Z</time>
      </trkpt>
      <trkpt lat="43.59671" lon="3.86545">
        <ele>26</ele>
        <time>2017-10-27T07:15:24.446Z</time>
      </trkpt>
      <trkpt lat="43.59667" lon="3.86551">
        <ele>25.9</ele>
        <time>2017-10-27T07:15:25.447Z</time>
      </trkpt>
      <trkpt lat="43.59662" lon="3.86556">
        <ele>25.7</ele>
        <time>2017-10-27T07:15:26.445Z</time>
      </trkpt>
      <trkpt lat="43.59656" lon="3.8656">
        <ele>25.6</ele>
        <time>2017-10-27T07:15:27.445Z</time>
      </trkpt>
      <trkpt lat="43.59649" lon="3.86562">
        <ele>25.5</ele>
        <time>2017-10-27T07:15:28.446Z</time>
      </trkpt>
      <trkpt lat="43.59642" lon="3.86563">
        <ele>25.4</ele>
        <time>2017-10-27T07:15:29.440Z</time>
      </trkpt>
      <trkpt lat="43.59635" lon="3.86564">
        <ele>25.3</ele>
        <time>2017-10-27T07:15:30.449Z</time>
      </trkpt>
      <trkpt lat="43.59628" lon="3.86565">
        <ele>25.2</ele>
        <time>2017-10-27T07:15:31.431Z</time>
      </trkpt>
      <trkpt lat="43.59621" lon="3.86567">
        <ele>25.1</ele>
        <time>2017-10-27T07:15:32.443Z</time>
      </trkpt>
      <trkpt lat="43.59614" lon="3.8657">
        <ele>25.1</ele>
        <time>2017-10-27T07:15:33.447Z</time>
      </trkpt>
      <trkpt lat="43.59609" lon="3.86575">
        <ele>25</ele>
        <time>2017-10-27T07:15:34.444Z</time>
      </trkpt>
      <trkpt lat="43.59604" lon="3.86582">
        <ele>25</ele>
        <time>2017-10-27T07:15:35.444Z</time>
      </trkpt>
      <trkpt lat="43.596" lon="3.8659">
        <ele>25</ele>
        <time>2017-10-27T07:15:36.445Z</time>
      </trkpt>
      <trkpt lat="43.59597" lon="3.86599">
        <ele>24.7</ele>
        <time>2017-10-27T07:15:37.448Z</time>
      </trkpt>
      <trkpt lat="43.59594" lon="3.86608">
        <ele>24.5</ele>
        <time>2017-10-27T07:15:38.431Z</time>
      </trkpt>
      <trkpt lat="43.59592" lon="3.86617">
        <ele>24.5</ele>
        <time>2017-10-27T07:15:39.431Z</time>
      </trkpt>
      <trkpt lat="43.59589" lon="3.86626">
        <ele>24.4</ele>
        <time>2017-10-27T07:15:40.432Z</time>
      </trkpt>
      <trkpt lat="43.59586" lon="3.86634">
        <ele>24.1</ele>
        <time>2017-10-27T07:15:41.434Z</time>
      </trkpt>
      <trkpt lat="43.59583" lon="3.86643">
        <ele>24</ele>
        <time>2017-10-27T07:15:42.442Z</time>
      </trkpt>
      <trkpt lat="43.5958" lon="3.86652">
        <ele>23.9</ele>
        <time>2017-10-27T07:15:43.445Z</time>
      </trkpt>
      <trkpt lat="43.59577" lon="3.8666">
        <ele>23.9</ele>
        <time>2017-10-27T07:15:44.444Z</time>
      </trkpt>
      <trkpt lat="43.59574" lon="3.86668">
        <ele>23.9</ele>
        <time>2017-10-27T07:15:45.432Z</time>
      </trkpt>
      <trkpt lat="43.5957" lon="3.86675">
        <ele>23.8</ele>
        <time>2017-10-27T07:15:46.443Z</time>
      </trkpt>
      <trkpt lat="43.59567" lon="3.86683">
        <ele>23.8</ele>
        <time>2017-10-27T07:15:47.443Z</time>
      </trkpt>
      <trkpt lat="43.59563" lon="3.86689">
        <ele>23.6</ele>
        <time>2017-10-27T07:15:48.451Z</time>
      </trkpt>
      <trkpt lat="43.59559" lon="3.86696">
        <ele>23.6</ele>
        <time>2017-10-27T07:15:49.451Z</time>
      </trkpt>
      <trkpt lat="43.59555" lon="3.86703">
        <ele>23.7</ele>
        <time>2017-10-27T07:15:50.453Z</time>
      </trkpt>
      <trkpt lat="43.59551" lon="3.86709">
        <ele>23.7</ele>
        <time>2017-10-27T07:15:51.444Z</time>
      </trkpt>
      <trkpt lat="43.59547" lon="3.86715">
        <ele>23.8</ele>
        <time>2017-10-27T07:15:52.443Z</time>
      </trkpt>
      <trkpt lat="43.59544" lon="3.86721">
        <ele>23.9</ele>
        <time>2017-10-27T07:15:53.444Z</time>
      </trkpt>
      <trkpt lat="43.5954" lon="3.86728">
        <ele>23.9</ele>
        <time>2017-10-27T07:15:54.445Z</time>
      </trkpt>
      <trkpt lat="43.59537" lon="3.86734">
        <ele>23.9</ele>
        <time>2017-10-27T07:15:55.444Z</time>
      </trkpt>
      <trkpt lat="43.59533" lon="3.8674">
        <ele>23.8</ele>
        <time>2017-10-27T07:15:56.445Z</time>
      </trkpt>
      <trkpt lat="43.5953" lon="3.86746">
        <ele>23.8</ele>
        <time>2017-10-27T07:15:57.431Z</time>
      </trkpt>
      <trkpt lat="43.59526" lon="3.86752">
        <ele>23.8</ele>
        <time>2017-10-27T07:15:58.431Z</time>
      </trkpt>
      <trkpt lat="43.59523" lon="3.86758">
        <ele>24</ele>
        <time>2017-10-27T07:15:59.431Z</time>
      </trkpt>
      <trkpt lat="43.59521" lon="3.86764">
        <ele>24.1</ele>
        <time>2017-10-27T07:16:00.433Z</time>
      </trkpt>
      <trkpt lat="43.59521" lon="3.8677">
        <ele>24.1</ele>
        <time>2017-10-27T07:16:01.434Z</time>
      </trkpt>
      <trkpt lat="43.59523" lon="3.86776">
        <ele>24.1</ele>
        <time>2017-10-27T07:16:02.442Z</time>
      </trkpt>
      <trkpt lat="43.59526" lon="3.86781">
        <ele>23.7</ele>
        <time>2017-10-27T07:16:03.448Z</time>
      </trkpt>
      <trkpt lat="43.59529" lon="3.86785">
        <ele>23.5</ele>
        <time>2017-10-27T07:16:04.455Z</time>
      </trkpt>
      <trkpt lat="43.59533" lon="3.86789">
        <ele>23.7</ele>
        <time>2017-10-27T07:16:05.444Z</time>
      </trkpt>
      <trkpt lat="43.59537" lon="3.86793">
        <ele>23.7</ele>
        <time>2017-10-27T07:16:06.448Z</time>
      </trkpt>
      <trkpt lat="43.59541" lon="3.86797">
        <ele>23.7</ele>
        <time>2017-10-27T07:16:07.445Z</time>
      </trkpt>
      <trkpt lat="43.59545" lon="3.86801">
        <ele>23.7</ele>
        <time>2017-10-27T07:16:08.431Z</time>
      </trkpt>
      <trkpt lat="43.59549" lon="3.86806">
        <ele>23.9</ele>
        <time>2017-10-27T07:16:09.454Z</time>
      </trkpt>
      <trkpt lat="43.59553" lon="3.86809">
        <ele>23.9</ele>
        <time>2017-10-27T07:16:10.441Z</time>
      </trkpt>
      <trkpt lat="43.59557" lon="3.86813">
        <ele>23.8</ele>
        <time>2017-10-27T07:16:11.444Z</time>
      </trkpt>
      <trkpt lat="43.59561" lon="3.86817">
        <ele>23.8</ele>
        <time>2017-10-27T07:16:12.441Z</time>
      </trkpt>
      <trkpt lat="43.59565" lon="3.8682">
        <ele>23.9</ele>
        <time>2017-10-27T07:16:13.443Z</time>
      </trkpt>
      <trkpt lat="43.59568" lon="3.86824">
        <ele>23.9</ele>
        <time>2017-10-27T07:16:14.443Z</time>
      </trkpt>
      <trkpt lat="43.59571" lon="3.86829">
        <ele>23.9</ele>
        <time>2017-10-27T07:16:15.439Z</time>
      </trkpt>
      <trkpt lat="43.59573" lon="3.86835">
        <ele>23.6</ele>
        <time>2017-10-27T07:16:16.444Z</time>
      </trkpt>
      <trkpt lat="43.59572" lon="3.86841">
        <ele>23.3</ele>
        <time>2017-10-27T07:16:17.454Z</time>
      </trkpt>
      <trkpt lat="43.5957" lon="3.86847">
        <ele>23</ele>
        <time>2017-10-27T07:16:18.432Z</time>
      </trkpt>
      <trkpt lat="43.59568" lon="3.86852">
        <ele>22.6</ele>
        <time>2017-10-27T07:16:19.431Z</time>
      </trkpt>
      <trkpt lat="43.59566" lon="3.86858">
        <ele>22.9</ele>
        <time>2017-10-27T07:16:20.431Z</time>
      </trkpt>
      <trkpt lat="43.59564" lon="3.86864">
        <ele>22.9</ele>
        <time>2017-10-27T07:16:21.456Z</time>
      </trkpt>
      <trkpt lat="43.59562" lon="3.8687">
        <ele>22.9</ele>
        <time>2017-10-27T07:16:22.444Z</time>
      </trkpt>
      <trkpt lat="43.59559" lon="3.86877">
        <ele>22.8</ele>
        <time>2017-10-27T07:16:23.444Z</time>
      </trkpt>
      <trkpt lat="43.59557" lon="3.86884">
        <ele>22.9</ele>
        <time>2017-10-27T07:16:24.448Z</time>
      </trkpt>
      <trkpt lat="43.59554" lon="3.86891">
        <ele>22.8</ele>
        <time>2017-10-27T07:16:25.444Z</time>
      </trkpt>
      <trkpt lat="43.59551" lon="3.86897">
        <ele>22.7</ele>
        <time>2017-10-27T07:16:26.444Z</time>
      </trkpt>
      <trkpt lat="43.59548" lon="3.86903">
        <ele>22.6</ele>
        <time>2017-10-27T07:16:27.444Z</time>
      </trkpt>
      <trkpt lat="43.59544" lon="3.86909">
        <ele>22.6</ele>
        <time>2017-10-27T07:16:28.450Z</time>
      </trkpt>
      <trkpt lat="43.5954" lon="3.86915">
        <ele>22.6</ele>
        <time>2017-10-27T07:16:29.443Z</time>
      </trkpt>
      <trkpt lat="43.59537" lon="3.86921">
        <ele>22.6</ele>
        <time>2017-10-27T07:16:30.445Z</time>
      </trkpt>
      <trkpt lat="43.59533" lon="3.86927">
        <ele>22.5</ele>
        <time>2017-10-27T07:16:31.447Z</time>
      </trkpt>
      <trkpt lat="43.5953" lon="3.86933">
        <ele>22.5</ele>
        <time>2017-10-27T07:16:32.443Z</time>
      </trkpt>
      <trkpt lat="43.59526" lon="3.86938">
        <ele>22.4</ele>
        <time>2017-10-27T07:16:33.444Z</time>
      </trkpt>
      <trkpt lat="43.59523" lon="3.86944">
        <ele>22.3</ele>
        <time>2017-10-27T07:16:34.454Z</time>
      </trkpt>
      <trkpt lat="43.59519" lon="3.86949">
        <ele>22.2</ele>
        <time>2017-10-27T07:16:35.432Z</time>
      </trkpt>
      <trkpt lat="43.59516" lon="3.86953">
        <ele>22.2</ele>
        <time>2017-10-27T07:16:36.432Z</time>
      </trkpt>
      <trkpt lat="43.59513" lon="3.86957">
        <ele>22.2</ele>
        <time>2017-10-27T07:16:37.431Z</time>
      </trkpt>
      <trkpt lat="43.5951" lon="3.86961">
        <ele>22.2</ele>
        <time>2017-10-27T07:16:38.448Z</time>
      </trkpt>
      <trkpt lat="43.59507" lon="3.86965">
        <ele>22.3</ele>
        <time>2017-10-27T07:16:39.455Z</time>
      </trkpt>
      <trkpt lat="43.59504" lon="3.86969">
        <ele>22.3</ele>
        <time>2017-10-27T07:16:40.451Z</time>
      </trkpt>
      <trkpt lat="43.59502" lon="3.86973">
        <ele>22.3</ele>
        <time>2017-10-27T07:16:41.449Z</time>
      </trkpt>
      <trkpt lat="43.59499" lon="3.86977">
        <ele>22.2</ele>
        <time>2017-10-27T07:16:42.446Z</time>
      </trkpt>
      <trkpt lat="43.59496" lon="3.86982">
        <ele>22.1</ele>
        <time>2017-10-27T07:16:43.447Z</time>
      </trkpt>
      <trkpt lat="43.59494" lon="3.86987">
        <ele>22</ele>
        <time>2017-10-27T07:16:44.445Z</time>
      </trkpt>
      <trkpt lat="43.59492" lon="3.86993">
        <ele>22</ele>
        <time>2017-10-27T07:16:45.440Z</time>
      </trkpt>
      <trkpt lat="43.5949" lon="3.86999">
        <ele>22</ele>
        <time>2017-10-27T07:16:46.443Z</time>
      </trkpt>
      <trkpt lat="43.59489" lon="3.87006">
        <ele>21.8</ele>
        <time>2017-10-27T07:16:47.444Z</time>
      </trkpt>
      <trkpt lat="43.59488" lon="3.87013">
        <ele>21.9</ele>
        <time>2017-10-27T07:16:48.445Z</time>
      </trkpt>
      <trkpt lat="43.59487" lon="3.8702">
        <ele>21.9</ele>
        <time>2017-10-27T07:16:49.445Z</time>
      </trkpt>
      <trkpt lat="43.59487" lon="3.87027">
        <ele>21.9</ele>
        <time>2017-10-27T07:16:50.444Z</time>
      </trkpt>
      <trkpt lat="43.59487" lon="3.87034">
        <ele>22</ele>
        <time>2017-10-27T07:16:51.453Z</time>
      </trkpt>
      <trkpt lat="43.59486" lon="3.87042">
        <ele>22</ele>
        <time>2017-10-27T07:16:52.443Z</time>
      </trkpt>
      <trkpt lat="43.59486" lon="3.87049">
        <ele>21.9</ele>
        <time>2017-10-27T07:16:53.445Z</time>
      </trkpt>
      <trkpt lat="43.59486" lon="3.87057">
        <ele>21.9</ele>
        <time>2017-10-27T07:16:54.435Z</time>
      </trkpt>
      <trkpt lat="43.59485" lon="3.87064">
        <ele>21.8</ele>
        <time>2017-10-27T07:16:55.431Z</time>
      </trkpt>
      <trkpt lat="43.59485" lon="3.87071">
        <ele>21.8</ele>
        <time>2017-10-27T07:16:56.433Z</time>
      </trkpt>
      <trkpt lat="43.59485" lon="3.87079">
        <ele>21.9</ele>
        <time>2017-10-27T07:16:57.431Z</time>
      </trkpt>
      <trkpt lat="43.59484" lon="3.87086">
        <ele>21.8</ele>
        <time>2017-10-27T07:16:58.443Z</time>
      </trkpt>
      <trkpt lat="43.59484" lon="3.87094">
        <ele>21.7</ele>
        <time>2017-10-27T07:16:59.452Z</time>
      </trkpt>
      <trkpt lat="43.59483" lon="3.87101">
        <ele>21.7</ele>
        <time>2017-10-27T07:17:00.451Z</time>
      </trkpt>
      <trkpt lat="43.59482" lon="3.87108">
        <ele>21.7</ele>
        <time>2017-10-27T07:17:01.446Z</time>
      </trkpt>
      <trkpt lat="43.59481" lon="3.87114">
        <ele>21.7</ele>
        <time>2017-10-27T07:17:02.444Z</time>
      </trkpt>
      <trkpt lat="43.59479" lon="3.87119">
        <ele>21.8</ele>
        <time>2017-10-27T07:17:03.445Z</time>
      </trkpt>
      <trkpt lat="43.59479" lon="3.87124">
        <ele>21.8</ele>
        <time>2017-10-27T07:17:04.443Z</time>
      </trkpt>
      <trkpt lat="43.59479" lon="3.87129">
        <ele>21.7</ele>
        <time>2017-10-27T07:17:05.444Z</time>
      </trkpt>
      <trkpt lat="43.5948" lon="3.87134">
        <ele>21.7</ele>
        <time>2017-10-27T07:17:06.445Z</time>
      </trkpt>
      <trkpt lat="43.5948" lon="3.87139">
        <ele>21.7</ele>
        <time>2017-10-27T07:17:07.441Z</time>
      </trkpt>
      <trkpt lat="43.59478" lon="3.87145">
        <ele>21.6</ele>
        <time>2017-10-27T07:17:08.442Z</time>
      </trkpt>
      <trkpt lat="43.59476" lon="3.87149">
        <ele>21.5</ele>
        <time>2017-10-27T07:17:09.438Z</time>
      </trkpt>
      <trkpt lat="43.59473" lon="3.87154">
        <ele>21.5</ele>
        <time>2017-10-27T07:17:10.495Z</time>
      </trkpt>
      <trkpt lat="43.5947" lon="3.87159">
        <ele>21.7</ele>
        <time>2017-10-27T07:17:11.461Z</time>
      </trkpt>
      <trkpt lat="43.59467" lon="3.87164">
        <ele>21.7</ele>
        <time>2017-10-27T07:17:12.464Z</time>
      </trkpt>
      <trkpt lat="43.59464" lon="3.87169">
        <ele>21.6</ele>
        <time>2017-10-27T07:17:13.444Z</time>
      </trkpt>
      <trkpt lat="43.59461" lon="3.87174">
        <ele>21.5</ele>
        <time>2017-10-27T07:17:14.433Z</time>
      </trkpt>
      <trkpt lat="43.59458" lon="3.87179">
        <ele>21.5</ele>
        <time>2017-10-27T07:17:15.431Z</time>
      </trkpt>
      <trkpt lat="43.59455" lon="3.87184">
        <ele>21.4</ele>
        <time>2017-10-27T07:17:16.431Z</time>
      </trkpt>
      <trkpt lat="43.59452" lon="3.8719">
        <ele>21.3</ele>
        <time>2017-10-27T07:17:17.431Z</time>
      </trkpt>
      <trkpt lat="43.59449" lon="3.87195">
        <ele>21.3</ele>
        <time>2017-10-27T07:17:18.456Z</time>
      </trkpt>
      <trkpt lat="43.59446" lon="3.872">
        <ele>21.3</ele>
        <time>2017-10-27T07:17:19.465Z</time>
      </trkpt>
      <trkpt lat="43.59443" lon="3.87205">
        <ele>21.3</ele>
        <time>2017-10-27T07:17:20.449Z</time>
      </trkpt>
      <trkpt lat="43.5944" lon="3.8721">
        <ele>21.3</ele>
        <time>2017-10-27T07:17:21.445Z</time>
      </trkpt>
      <trkpt lat="43.59437" lon="3.87215">
        <ele>21.3</ele>
        <time>2017-10-27T07:17:22.446Z</time>
      </trkpt>
      <trkpt lat="43.59434" lon="3.87221">
        <ele>21.2</ele>
        <time>2017-10-27T07:17:23.444Z</time>
      </trkpt>
      <trkpt lat="43.59432" lon="3.87226">
        <ele>21.2</ele>
        <time>2017-10-27T07:17:24.451Z</time>
      </trkpt>
      <trkpt lat="43.59429" lon="3.8723">
        <ele>21.1</ele>
        <time>2017-10-27T07:17:25.444Z</time>
      </trkpt>
      <trkpt lat="43.59427" lon="3.87233">
        <ele>21.2</ele>
        <time>2017-10-27T07:17:26.433Z</time>
      </trkpt>
      <trkpt lat="43.59425" lon="3.87236">
        <ele>21.1</ele>
        <time>2017-10-27T07:17:27.444Z</time>
      </trkpt>
      <trkpt lat="43.59423" lon="3.87239">
        <ele>21.1</ele>
        <time>2017-10-27T07:17:28.443Z</time>
      </trkpt>
      <trkpt lat="43.59423" lon="3.8724">
        <ele>21.1</ele>
        <time>2017-10-27T07:17:29.454Z</time>
      </trkpt>
      <trkpt lat="43.59423" lon="3.8724">
        <ele>21.1</ele>
        <time>2017-10-27T07:17:34.087Z</time>
      </trkpt>
      <trkpt lat="43.59419" lon="3.87239">
        <ele>21</ele>
        <time>2017-10-27T07:17:41.452Z</time>
      </trkpt>
      <trkpt lat="43.59417" lon="3.8724">
        <ele>21</ele>
        <time>2017-10-27T07:17:42.445Z</time>
      </trkpt>
      <trkpt lat="43.59414" lon="3.87242">
        <ele>20.9</ele>
        <time>2017-10-27T07:17:43.444Z</time>
      </trkpt>
      <trkpt lat="43.59412" lon="3.87245">
        <ele>20.9</ele>
        <time>2017-10-27T07:17:44.431Z</time>
      </trkpt>
      <trkpt lat="43.59409" lon="3.87248">
        <ele>21</ele>
        <time>2017-10-27T07:17:45.431Z</time>
      </trkpt>
      <trkpt lat="43.59407" lon="3.87252">
        <ele>21</ele>
        <time>2017-10-27T07:17:46.431Z</time>
      </trkpt>
      <trkpt lat="43.59404" lon="3.87256">
        <ele>20.9</ele>
        <time>2017-10-27T07:17:47.434Z</time>
      </trkpt>
      <trkpt lat="43.59401" lon="3.87261">
        <ele>21</ele>
        <time>2017-10-27T07:17:48.444Z</time>
      </trkpt>
      <trkpt lat="43.59398" lon="3.87265">
        <ele>21</ele>
        <time>2017-10-27T07:17:49.438Z</time>
      </trkpt>
      <trkpt lat="43.59395" lon="3.8727">
        <ele>20.9</ele>
        <time>2017-10-27T07:17:50.446Z</time>
      </trkpt>
      <trkpt lat="43.59392" lon="3.87275">
        <ele>20.9</ele>
        <time>2017-10-27T07:17:51.431Z</time>
      </trkpt>
      <trkpt lat="43.59389" lon="3.87281">
        <ele>20.9</ele>
        <time>2017-10-27T07:17:52.437Z</time>
      </trkpt>
      <trkpt lat="43.59385" lon="3.87286">
        <ele>20.9</ele>
        <time>2017-10-27T07:17:53.444Z</time>
      </trkpt>
      <trkpt lat="43.59382" lon="3.87291">
        <ele>20.9</ele>
        <time>2017-10-27T07:17:54.440Z</time>
      </trkpt>
      <trkpt lat="43.59379" lon="3.87297">
        <ele>20.9</ele>
        <time>2017-10-27T07:17:55.445Z</time>
      </trkpt>
      <trkpt lat="43.59376" lon="3.87302">
        <ele>20.9</ele>
        <time>2017-10-27T07:17:56.440Z</time>
      </trkpt>
      <trkpt lat="43.59372" lon="3.87308">
        <ele>20.9</ele>
        <time>2017-10-27T07:17:57.433Z</time>
      </trkpt>
      <trkpt lat="43.59369" lon="3.87314">
        <ele>20.9</ele>
        <time>2017-10-27T07:17:58.452Z</time>
      </trkpt>
      <trkpt lat="43.59365" lon="3.87319">
        <ele>20.8</ele>
        <time>2017-10-27T07:17:59.446Z</time>
      </trkpt>
      <trkpt lat="43.59362" lon="3.87325">
        <ele>20.8</ele>
        <time>2017-10-27T07:18:00.455Z</time>
      </trkpt>
      <trkpt lat="43.59359" lon="3.87331">
        <ele>20.9</ele>
        <time>2017-10-27T07:18:01.444Z</time>
      </trkpt>
      <trkpt lat="43.59355" lon="3.87337">
        <ele>20.9</ele>
        <time>2017-10-27T07:18:02.444Z</time>
      </trkpt>
      <trkpt lat="43.59352" lon="3.87343">
        <ele>20.9</ele>
        <time>2017-10-27T07:18:03.444Z</time>
      </trkpt>
      <trkpt lat="43.59348" lon="3.87349">
        <ele>20.9</ele>
        <time>2017-10-27T07:18:04.431Z</time>
      </trkpt>
      <trkpt lat="43.59344" lon="3.87355">
        <ele>20.8</ele>
        <time>2017-10-27T07:18:05.431Z</time>
      </trkpt>
      <trkpt lat="43.5934" lon="3.87361">
        <ele>20.9</ele>
        <time>2017-10-27T07:18:06.435Z</time>
      </trkpt>
      <trkpt lat="43.59336" lon="3.87367">
        <ele>20.8</ele>
        <time>2017-10-27T07:18:07.447Z</time>
      </trkpt>
      <trkpt lat="43.59332" lon="3.87372">
        <ele>20.9</ele>
        <time>2017-10-27T07:18:08.465Z</time>
      </trkpt>
      <trkpt lat="43.59328" lon="3.87378">
        <ele>20.7</ele>
        <time>2017-10-27T07:18:09.444Z</time>
      </trkpt>
      <trkpt lat="43.59324" lon="3.87384">
        <ele>20.6</ele>
        <time>2017-10-27T07:18:10.444Z</time>
      </trkpt>
      <trkpt lat="43.5932" lon="3.8739">
        <ele>20.7</ele>
        <time>2017-10-27T07:18:11.445Z</time>
      </trkpt>
      <trkpt lat="43.59316" lon="3.87397">
        <ele>20.7</ele>
        <time>2017-10-27T07:18:12.445Z</time>
      </trkpt>
      <trkpt lat="43.59312" lon="3.87403">
        <ele>20.9</ele>
        <time>2017-10-27T07:18:13.432Z</time>
      </trkpt>
      <trkpt lat="43.59308" lon="3.87409">
        <ele>20.9</ele>
        <time>2017-10-27T07:18:14.446Z</time>
      </trkpt>
      <trkpt lat="43.59304" lon="3.87415">
        <ele>20.6</ele>
        <time>2017-10-27T07:18:15.445Z</time>
      </trkpt>
      <trkpt lat="43.59301" lon="3.87421">
        <ele>20.5</ele>
        <time>2017-10-27T07:18:16.443Z</time>
      </trkpt>
      <trkpt lat="43.59297" lon="3.87428">
        <ele>20.3</ele>
        <time>2017-10-27T07:18:17.449Z</time>
      </trkpt>
      <trkpt lat="43.59295" lon="3.87434">
        <ele>20.2</ele>
        <time>2017-10-27T07:18:18.445Z</time>
      </trkpt>
      <trkpt lat="43.59293" lon="3.87441">
        <ele>20.2</ele>
        <time>2017-10-27T07:18:19.447Z</time>
      </trkpt>
      <trkpt lat="43.59291" lon="3.87447">
        <ele>20.2</ele>
        <time>2017-10-27T07:18:20.445Z</time>
      </trkpt>
      <trkpt lat="43.59289" lon="3.87452">
        <ele>20.2</ele>
        <time>2017-10-27T07:18:21.444Z</time>
      </trkpt>
      <trkpt lat="43.59285" lon="3.87454">
        <ele>20.3</ele>
        <time>2017-10-27T07:18:22.431Z</time>
      </trkpt>
      <trkpt lat="43.59281" lon="3.87453">
        <ele>20.4</ele>
        <time>2017-10-27T07:18:23.432Z</time>
      </trkpt>
      <trkpt lat="43.59278" lon="3.87451">
        <ele>20.5</ele>
        <time>2017-10-27T07:18:24.436Z</time>
      </trkpt>
      <trkpt lat="43.59274" lon="3.87448">
        <ele>20.6</ele>
        <time>2017-10-27T07:18:25.436Z</time>
      </trkpt>
      <trkpt lat="43.59271" lon="3.87444">
        <ele>20.8</ele>
        <time>2017-10-27T07:18:26.451Z</time>
      </trkpt>
      <trkpt lat="43.59267" lon="3.87441">
        <ele>20.9</ele>
        <time>2017-10-27T07:18:27.453Z</time>
      </trkpt>
      <trkpt lat="43.59264" lon="3.87438">
        <ele>21.1</ele>
        <time>2017-10-27T07:18:28.443Z</time>
      </trkpt>
      <trkpt lat="43.5926" lon="3.87434">
        <ele>21.2</ele>
        <time>2017-10-27T07:18:29.446Z</time>
      </trkpt>
      <trkpt lat="43.59256" lon="3.87431">
        <ele>21.3</ele>
        <time>2017-10-27T07:18:30.445Z</time>
      </trkpt>
      <trkpt lat="43.59253" lon="3.87427">
        <ele>21.3</ele>
        <time>2017-10-27T07:18:31.445Z</time>
      </trkpt>
      <trkpt lat="43.59249" lon="3.87424">
        <ele>21.3</ele>
        <time>2017-10-27T07:18:32.445Z</time>
      </trkpt>
      <trkpt lat="43.59245" lon="3.87421">
        <ele>21.3</ele>
        <time>2017-10-27T07:18:33.454Z</time>
      </trkpt>
      <trkpt lat="43.59241" lon="3.87417">
        <ele>21.4</ele>
        <time>2017-10-27T07:18:34.444Z</time>
      </trkpt>
      <trkpt lat="43.59237" lon="3.87413">
        <ele>21.4</ele>
        <time>2017-10-27T07:18:35.444Z</time>
      </trkpt>
      <trkpt lat="43.59233" lon="3.8741">
        <ele>21.3</ele>
        <time>2017-10-27T07:18:36.445Z</time>
      </trkpt>
      <trkpt lat="43.59229" lon="3.87407">
        <ele>21.3</ele>
        <time>2017-10-27T07:18:37.443Z</time>
      </trkpt>
      <trkpt lat="43.59225" lon="3.87403">
        <ele>21.3</ele>
        <time>2017-10-27T07:18:38.452Z</time>
      </trkpt>
      <trkpt lat="43.59221" lon="3.874">
        <ele>21.4</ele>
        <time>2017-10-27T07:18:39.448Z</time>
      </trkpt>
      <trkpt lat="43.59216" lon="3.87397">
        <ele>21.4</ele>
        <time>2017-10-27T07:18:40.431Z</time>
      </trkpt>
      <trkpt lat="43.59212" lon="3.87394">
        <ele>21.4</ele>
        <time>2017-10-27T07:18:41.431Z</time>
      </trkpt>
      <trkpt lat="43.59208" lon="3.87392">
        <ele>21.5</ele>
        <time>2017-10-27T07:18:42.432Z</time>
      </trkpt>
      <trkpt lat="43.59203" lon="3.87389">
        <ele>21.6</ele>
        <time>2017-10-27T07:18:43.434Z</time>
      </trkpt>
      <trkpt lat="43.59199" lon="3.87387">
        <ele>21.6</ele>
        <time>2017-10-27T07:18:44.441Z</time>
      </trkpt>
      <trkpt lat="43.59195" lon="3.87384">
        <ele>21.6</ele>
        <time>2017-10-27T07:18:45.458Z</time>
      </trkpt>
      <trkpt lat="43.5919" lon="3.87381">
        <ele>21.8</ele>
        <time>2017-10-27T07:18:46.450Z</time>
      </trkpt>
      <trkpt lat="43.59186" lon="3.87379">
        <ele>21.9</ele>
        <time>2017-10-27T07:18:47.451Z</time>
      </trkpt>
      <trkpt lat="43.59181" lon="3.87376">
        <ele>22</ele>
        <time>2017-10-27T07:18:48.448Z</time>
      </trkpt>
      <trkpt lat="43.59177" lon="3.87374">
        <ele>22.1</ele>
        <time>2017-10-27T07:18:49.444Z</time>
      </trkpt>
      <trkpt lat="43.59172" lon="3.87371">
        <ele>22.3</ele>
        <time>2017-10-27T07:18:50.441Z</time>
      </trkpt>
      <trkpt lat="43.59167" lon="3.87368">
        <ele>22.5</ele>
        <time>2017-10-27T07:18:51.445Z</time>
      </trkpt>
      <trkpt lat="43.59163" lon="3.87365">
        <ele>22.5</ele>
        <time>2017-10-27T07:18:52.444Z</time>
      </trkpt>
      <trkpt lat="43.59157" lon="3.87362">
        <ele>22.6</ele>
        <time>2017-10-27T07:18:53.444Z</time>
      </trkpt>
      <trkpt lat="43.59152" lon="3.8736">
        <ele>22.7</ele>
        <time>2017-10-27T07:18:54.444Z</time>
      </trkpt>
      <trkpt lat="43.59147" lon="3.87358">
        <ele>22.7</ele>
        <time>2017-10-27T07:18:55.447Z</time>
      </trkpt>
      <trkpt lat="43.59141" lon="3.87356">
        <ele>22.7</ele>
        <time>2017-10-27T07:18:56.446Z</time>
      </trkpt>
      <trkpt lat="43.59136" lon="3.87354">
        <ele>22.8</ele>
        <time>2017-10-27T07:18:57.432Z</time>
      </trkpt>
      <trkpt lat="43.5913" lon="3.87352">
        <ele>22.8</ele>
        <time>2017-10-27T07:18:58.431Z</time>
      </trkpt>
      <trkpt lat="43.59125" lon="3.8735">
        <ele>22.9</ele>
        <time>2017-10-27T07:18:59.433Z</time>
      </trkpt>
      <trkpt lat="43.59119" lon="3.87348">
        <ele>23</ele>
        <time>2017-10-27T07:19:00.432Z</time>
      </trkpt>
      <trkpt lat="43.59114" lon="3.87347">
        <ele>23.3</ele>
        <time>2017-10-27T07:19:01.432Z</time>
      </trkpt>
      <trkpt lat="43.59109" lon="3.87345">
        <ele>23.4</ele>
        <time>2017-10-27T07:19:02.445Z</time>
      </trkpt>
      <trkpt lat="43.59103" lon="3.87344">
        <ele>23.7</ele>
        <time>2017-10-27T07:19:03.444Z</time>
      </trkpt>
      <trkpt lat="43.59098" lon="3.87342">
        <ele>23.8</ele>
        <time>2017-10-27T07:19:04.449Z</time>
      </trkpt>
      <trkpt lat="43.59093" lon="3.8734">
        <ele>23.8</ele>
        <time>2017-10-27T07:19:05.438Z</time>
      </trkpt>
      <trkpt lat="43.59088" lon="3.87339">
        <ele>24</ele>
        <time>2017-10-27T07:19:06.456Z</time>
      </trkpt>
      <trkpt lat="43.59083" lon="3.87338">
        <ele>24.3</ele>
        <time>2017-10-27T07:19:07.431Z</time>
      </trkpt>
      <trkpt lat="43.59079" lon="3.87337">
        <ele>24.4</ele>
        <time>2017-10-27T07:19:08.444Z</time>
      </trkpt>
      <trkpt lat="43.59074" lon="3.87337">
        <ele>24.6</ele>
        <time>2017-10-27T07:19:09.444Z</time>
      </trkpt>
      <trkpt lat="43.59069" lon="3.87336">
        <ele>24.7</ele>
        <time>2017-10-27T07:19:10.450Z</time>
      </trkpt>
      <trkpt lat="43.59064" lon="3.87334">
        <ele>24.9</ele>
        <time>2017-10-27T07:19:11.444Z</time>
      </trkpt>
      <trkpt lat="43.5906" lon="3.87333">
        <ele>25.1</ele>
        <time>2017-10-27T07:19:12.445Z</time>
      </trkpt>
      <trkpt lat="43.59056" lon="3.87331">
        <ele>25.3</ele>
        <time>2017-10-27T07:19:13.444Z</time>
      </trkpt>
      <trkpt lat="43.59051" lon="3.87329">
        <ele>25.4</ele>
        <time>2017-10-27T07:19:14.450Z</time>
      </trkpt>
      <trkpt lat="43.59047" lon="3.87327">
        <ele>25.5</ele>
        <time>2017-10-27T07:19:15.443Z</time>
      </trkpt>
      <trkpt lat="43.59042" lon="3.87325">
        <ele>25.6</ele>
        <time>2017-10-27T07:19:16.435Z</time>
      </trkpt>
      <trkpt lat="43.59037" lon="3.87323">
        <ele>25.7</ele>
        <time>2017-10-27T07:19:17.431Z</time>
      </trkpt>
      <trkpt lat="43.59033" lon="3.87321">
        <ele>25.8</ele>
        <time>2017-10-27T07:19:18.433Z</time>
      </trkpt>
      <trkpt lat="43.59028" lon="3.8732">
        <ele>25.9</ele>
        <time>2017-10-27T07:19:19.455Z</time>
      </trkpt>
      <trkpt lat="43.59024" lon="3.87318">
        <ele>26.1</ele>
        <time>2017-10-27T07:19:20.464Z</time>
      </trkpt>
      <trkpt lat="43.59019" lon="3.87316">
        <ele>26.3</ele>
        <time>2017-10-27T07:19:21.449Z</time>
      </trkpt>
      <trkpt lat="43.59015" lon="3.87314">
        <ele>26.5</ele>
        <time>2017-10-27T07:19:22.454Z</time>
      </trkpt>
      <trkpt lat="43.59011" lon="3.87312">
        <ele>26.6</ele>
        <time>2017-10-27T07:19:23.445Z</time>
      </trkpt>
      <trkpt lat="43.59007" lon="3.8731">
        <ele>26.7</ele>
        <time>2017-10-27T07:19:24.444Z</time>
      </trkpt>
      <trkpt lat="43.59003" lon="3.87307">
        <ele>26.9</ele>
        <time>2017-10-27T07:19:25.450Z</time>
      </trkpt>
      <trkpt lat="43.58999" lon="3.87305">
        <ele>27</ele>
        <time>2017-10-27T07:19:26.443Z</time>
      </trkpt>
      <trkpt lat="43.58995" lon="3.87303">
        <ele>27</ele>
        <time>2017-10-27T07:19:27.449Z</time>
      </trkpt>
      <trkpt lat="43.58991" lon="3.87301">
        <ele>27.1</ele>
        <time>2017-10-27T07:19:28.442Z</time>
      </trkpt>
      <trkpt lat="43.58987" lon="3.873">
        <ele>27.2</ele>
        <time>2017-10-27T07:19:29.445Z</time>
      </trkpt>
      <trkpt lat="43.58983" lon="3.87298">
        <ele>27.4</ele>
        <time>2017-10-27T07:19:30.446Z</time>
      </trkpt>
      <trkpt lat="43.58978" lon="3.87296">
        <ele>27.6</ele>
        <time>2017-10-27T07:19:31.446Z</time>
      </trkpt>
      <trkpt lat="43.58974" lon="3.87295">
        <ele>27.6</ele>
        <time>2017-10-27T07:19:32.449Z</time>
      </trkpt>
      <trkpt lat="43.5897" lon="3.87293">
        <ele>27.7</ele>
        <time>2017-10-27T07:19:33.445Z</time>
      </trkpt>
      <trkpt lat="43.58966" lon="3.87291">
        <ele>27.7</ele>
        <time>2017-10-27T07:19:34.450Z</time>
      </trkpt>
      <trkpt lat="43.58961" lon="3.87289">
        <ele>27.8</ele>
        <time>2017-10-27T07:19:35.452Z</time>
      </trkpt>
      <trkpt lat="43.58957" lon="3.87287">
        <ele>27.9</ele>
        <time>2017-10-27T07:19:36.443Z</time>
      </trkpt>
      <trkpt lat="43.58952" lon="3.87285">
        <ele>28.1</ele>
        <time>2017-10-27T07:19:37.444Z</time>
      </trkpt>
      <trkpt lat="43.58948" lon="3.87283">
        <ele>28.2</ele>
        <time>2017-10-27T07:19:38.432Z</time>
      </trkpt>
      <trkpt lat="43.58943" lon="3.87282">
        <ele>28.4</ele>
        <time>2017-10-27T07:19:39.433Z</time>
      </trkpt>
      <trkpt lat="43.58939" lon="3.8728">
        <ele>28.5</ele>
        <time>2017-10-27T07:19:40.430Z</time>
      </trkpt>
      <trkpt lat="43.58934" lon="3.87278">
        <ele>28.6</ele>
        <time>2017-10-27T07:19:41.445Z</time>
      </trkpt>
      <trkpt lat="43.58929" lon="3.87277">
        <ele>28.7</ele>
        <time>2017-10-27T07:19:42.439Z</time>
      </trkpt>
      <trkpt lat="43.58925" lon="3.87275">
        <ele>28.9</ele>
        <time>2017-10-27T07:19:43.436Z</time>
      </trkpt>
      <trkpt lat="43.5892" lon="3.87274">
        <ele>29.1</ele>
        <time>2017-10-27T07:19:44.444Z</time>
      </trkpt>
      <trkpt lat="43.58916" lon="3.87272">
        <ele>29.2</ele>
        <time>2017-10-27T07:19:45.437Z</time>
      </trkpt>
      <trkpt lat="43.58911" lon="3.8727">
        <ele>29.4</ele>
        <time>2017-10-27T07:19:46.461Z</time>
      </trkpt>
      <trkpt lat="43.58907" lon="3.87268">
        <ele>29.4</ele>
        <time>2017-10-27T07:19:47.462Z</time>
      </trkpt>
      <trkpt lat="43.58903" lon="3.87266">
        <ele>29.4</ele>
        <time>2017-10-27T07:19:48.445Z</time>
      </trkpt>
      <trkpt lat="43.58899" lon="3.87263">
        <ele>29.4</ele>
        <time>2017-10-27T07:19:49.455Z</time>
      </trkpt>
      <trkpt lat="43.58894" lon="3.87261">
        <ele>29.5</ele>
        <time>2017-10-27T07:19:50.446Z</time>
      </trkpt>
      <trkpt lat="43.5889" lon="3.87259">
        <ele>29.5</ele>
        <time>2017-10-27T07:19:51.447Z</time>
      </trkpt>
      <trkpt lat="43.58886" lon="3.87257">
        <ele>29.6</ele>
        <time>2017-10-27T07:19:52.445Z</time>
      </trkpt>
      <trkpt lat="43.58881" lon="3.87255">
        <ele>29.8</ele>
        <time>2017-10-27T07:19:53.443Z</time>
      </trkpt>
      <trkpt lat="43.58877" lon="3.87253">
        <ele>29.9</ele>
        <time>2017-10-27T07:19:54.445Z</time>
      </trkpt>
      <trkpt lat="43.58873" lon="3.8725">
        <ele>30</ele>
        <time>2017-10-27T07:19:55.443Z</time>
      </trkpt>
      <trkpt lat="43.58868" lon="3.87248">
        <ele>30.1</ele>
        <time>2017-10-27T07:19:56.443Z</time>
      </trkpt>
      <trkpt lat="43.58864" lon="3.87246">
        <ele>30.2</ele>
        <time>2017-10-27T07:19:57.431Z</time>
      </trkpt>
      <trkpt lat="43.5886" lon="3.87244">
        <ele>30.4</ele>
        <time>2017-10-27T07:19:58.444Z</time>
      </trkpt>
      <trkpt lat="43.58856" lon="3.87242">
        <ele>30.4</ele>
        <time>2017-10-27T07:19:59.439Z</time>
      </trkpt>
      <trkpt lat="43.58852" lon="3.8724">
        <ele>30.5</ele>
        <time>2017-10-27T07:20:00.440Z</time>
      </trkpt>
      <trkpt lat="43.58847" lon="3.87238">
        <ele>30.5</ele>
        <time>2017-10-27T07:20:01.451Z</time>
      </trkpt>
      <trkpt lat="43.58843" lon="3.87236">
        <ele>30.6</ele>
        <time>2017-10-27T07:20:02.429Z</time>
      </trkpt>
      <trkpt lat="43.58839" lon="3.87234">
        <ele>30.8</ele>
        <time>2017-10-27T07:20:03.431Z</time>
      </trkpt>
      <trkpt lat="43.58835" lon="3.87232">
        <ele>30.9</ele>
        <time>2017-10-27T07:20:04.430Z</time>
      </trkpt>
      <trkpt lat="43.58832" lon="3.8723">
        <ele>31.1</ele>
        <time>2017-10-27T07:20:05.431Z</time>
      </trkpt>
      <trkpt lat="43.58828" lon="3.87228">
        <ele>31.3</ele>
        <time>2017-10-27T07:20:06.433Z</time>
      </trkpt>
      <trkpt lat="43.58824" lon="3.87226">
        <ele>31.5</ele>
        <time>2017-10-27T07:20:07.431Z</time>
      </trkpt>
      <trkpt lat="43.5882" lon="3.87224">
        <ele>31.6</ele>
        <time>2017-10-27T07:20:08.442Z</time>
      </trkpt>
      <trkpt lat="43.58816" lon="3.87222">
        <ele>31.8</ele>
        <time>2017-10-27T07:20:09.451Z</time>
      </trkpt>
      <trkpt lat="43.58812" lon="3.87221">
        <ele>32</ele>
        <time>2017-10-27T07:20:10.452Z</time>
      </trkpt>
      <trkpt lat="43.58808" lon="3.87219">
        <ele>32.2</ele>
        <time>2017-10-27T07:20:11.435Z</time>
      </trkpt>
      <trkpt lat="43.58805" lon="3.87218">
        <ele>32.3</ele>
        <time>2017-10-27T07:20:12.445Z</time>
      </trkpt>
      <trkpt lat="43.58801" lon="3.87216">
        <ele>32.5</ele>
        <time>2017-10-27T07:20:13.442Z</time>
      </trkpt>
      <trkpt lat="43.58797" lon="3.87214">
        <ele>32.7</ele>
        <time>2017-10-27T07:20:14.444Z</time>
      </trkpt>
      <trkpt lat="43.58793" lon="3.87212">
        <ele>33</ele>
        <time>2017-10-27T07:20:15.444Z</time>
      </trkpt>
      <trkpt lat="43.58789" lon="3.87211">
        <ele>33.3</ele>
        <time>2017-10-27T07:20:16.443Z</time>
      </trkpt>
      <trkpt lat="43.58786" lon="3.8721">
        <ele>33.5</ele>
        <time>2017-10-27T07:20:17.452Z</time>
      </trkpt>
      <trkpt lat="43.58782" lon="3.87209">
        <ele>33.7</ele>
        <time>2017-10-27T07:20:18.447Z</time>
      </trkpt>
      <trkpt lat="43.58778" lon="3.87208">
        <ele>33.9</ele>
        <time>2017-10-27T07:20:19.446Z</time>
      </trkpt>
      <trkpt lat="43.58775" lon="3.87207">
        <ele>34.1</ele>
        <time>2017-10-27T07:20:20.438Z</time>
      </trkpt>
      <trkpt lat="43.58771" lon="3.87206">
        <ele>34.3</ele>
        <time>2017-10-27T07:20:21.442Z</time>
      </trkpt>
      <trkpt lat="43.58767" lon="3.87206">
        <ele>34.5</ele>
        <time>2017-10-27T07:20:22.449Z</time>
      </trkpt>
      <trkpt lat="43.58764" lon="3.87206">
        <ele>34.6</ele>
        <time>2017-10-27T07:20:23.441Z</time>
      </trkpt>
      <trkpt lat="43.5876" lon="3.87206">
        <ele>34.8</ele>
        <time>2017-10-27T07:20:24.436Z</time>
      </trkpt>
      <trkpt lat="43.58756" lon="3.87206">
        <ele>35</ele>
        <time>2017-10-27T07:20:25.434Z</time>
      </trkpt>
      <trkpt lat="43.58753" lon="3.87207">
        <ele>35.1</ele>
        <time>2017-10-27T07:20:26.428Z</time>
      </trkpt>
      <trkpt lat="43.58749" lon="3.87208">
        <ele>35.3</ele>
        <time>2017-10-27T07:20:27.431Z</time>
      </trkpt>
      <trkpt lat="43.58746" lon="3.87209">
        <ele>35.5</ele>
        <time>2017-10-27T07:20:28.442Z</time>
      </trkpt>
      <trkpt lat="43.58742" lon="3.8721">
        <ele>35.7</ele>
        <time>2017-10-27T07:20:29.431Z</time>
      </trkpt>
      <trkpt lat="43.58739" lon="3.87212">
        <ele>35.9</ele>
        <time>2017-10-27T07:20:30.432Z</time>
      </trkpt>
      <trkpt lat="43.58736" lon="3.87215">
        <ele>36.1</ele>
        <time>2017-10-27T07:20:31.432Z</time>
      </trkpt>
      <trkpt lat="43.58733" lon="3.87217">
        <ele>36.2</ele>
        <time>2017-10-27T07:20:32.446Z</time>
      </trkpt>
      <trkpt lat="43.5873" lon="3.87219">
        <ele>36.3</ele>
        <time>2017-10-27T07:20:33.446Z</time>
      </trkpt>
      <trkpt lat="43.58728" lon="3.87221">
        <ele>36.4</ele>
        <time>2017-10-27T07:20:34.453Z</time>
      </trkpt>
      <trkpt lat="43.58725" lon="3.87223">
        <ele>36.5</ele>
        <time>2017-10-27T07:20:35.459Z</time>
      </trkpt>
      <trkpt lat="43.58722" lon="3.87226">
        <ele>36.6</ele>
        <time>2017-10-27T07:20:36.432Z</time>
      </trkpt>
      <trkpt lat="43.58719" lon="3.87228">
        <ele>36.8</ele>
        <time>2017-10-27T07:20:37.437Z</time>
      </trkpt>
      <trkpt lat="43.58716" lon="3.8723">
        <ele>36.9</ele>
        <time>2017-10-27T07:20:38.442Z</time>
      </trkpt>
      <trkpt lat="43.58713" lon="3.87233">
        <ele>37</ele>
        <time>2017-10-27T07:20:39.443Z</time>
      </trkpt>
      <trkpt lat="43.5871" lon="3.87235">
        <ele>37.1</ele>
        <time>2017-10-27T07:20:40.432Z</time>
      </trkpt>
      <trkpt lat="43.58707" lon="3.87237">
        <ele>37.1</ele>
        <time>2017-10-27T07:20:41.452Z</time>
      </trkpt>
      <trkpt lat="43.58703" lon="3.8724">
        <ele>37.2</ele>
        <time>2017-10-27T07:20:42.444Z</time>
      </trkpt>
      <trkpt lat="43.587" lon="3.87242">
        <ele>37.3</ele>
        <time>2017-10-27T07:20:43.449Z</time>
      </trkpt>
      <trkpt lat="43.58697" lon="3.87244">
        <ele>37.2</ele>
        <time>2017-10-27T07:20:44.441Z</time>
      </trkpt>
      <trkpt lat="43.58693" lon="3.87244">
        <ele>36.8</ele>
        <time>2017-10-27T07:20:45.428Z</time>
      </trkpt>
      <trkpt lat="43.58689" lon="3.87243">
        <ele>36.7</ele>
        <time>2017-10-27T07:20:46.439Z</time>
      </trkpt>
      <trkpt lat="43.58685" lon="3.8724">
        <ele>36.6</ele>
        <time>2017-10-27T07:20:47.440Z</time>
      </trkpt>
      <trkpt lat="43.58682" lon="3.87235">
        <ele>36.2</ele>
        <time>2017-10-27T07:20:48.429Z</time>
      </trkpt>
      <trkpt lat="43.58679" lon="3.87229">
        <ele>35.7</ele>
        <time>2017-10-27T07:20:49.442Z</time>
      </trkpt>
      <trkpt lat="43.58676" lon="3.87223">
        <ele>35.3</ele>
        <time>2017-10-27T07:20:50.429Z</time>
      </trkpt>
      <trkpt lat="43.58673" lon="3.87216">
        <ele>34.9</ele>
        <time>2017-10-27T07:20:51.426Z</time>
      </trkpt>
      <trkpt lat="43.5867" lon="3.87209">
        <ele>34.5</ele>
        <time>2017-10-27T07:20:52.430Z</time>
      </trkpt>
      <trkpt lat="43.58666" lon="3.87202">
        <ele>34.1</ele>
        <time>2017-10-27T07:20:53.439Z</time>
      </trkpt>
      <trkpt lat="43.58662" lon="3.87194">
        <ele>33.7</ele>
        <time>2017-10-27T07:20:54.449Z</time>
      </trkpt>
      <trkpt lat="43.58658" lon="3.87187">
        <ele>33.4</ele>
        <time>2017-10-27T07:20:55.446Z</time>
      </trkpt>
      <trkpt lat="43.58654" lon="3.8718">
        <ele>33.3</ele>
        <time>2017-10-27T07:20:56.444Z</time>
      </trkpt>
      <trkpt lat="43.5865" lon="3.87174">
        <ele>33</ele>
        <time>2017-10-27T07:20:57.431Z</time>
      </trkpt>
      <trkpt lat="43.58646" lon="3.87169">
        <ele>32.9</ele>
        <time>2017-10-27T07:20:58.445Z</time>
      </trkpt>
      <trkpt lat="43.58642" lon="3.87164">
        <ele>32.8</ele>
        <time>2017-10-27T07:20:59.447Z</time>
      </trkpt>
      <trkpt lat="43.58637" lon="3.87162">
        <ele>32.7</ele>
        <time>2017-10-27T07:21:00.450Z</time>
      </trkpt>
      <trkpt lat="43.58632" lon="3.87161">
        <ele>32.2</ele>
        <time>2017-10-27T07:21:01.444Z</time>
      </trkpt>
      <trkpt lat="43.58626" lon="3.87163">
        <ele>31.8</ele>
        <time>2017-10-27T07:21:02.445Z</time>
      </trkpt>
      <trkpt lat="43.5862" lon="3.87165">
        <ele>31.4</ele>
        <time>2017-10-27T07:21:03.445Z</time>
      </trkpt>
      <trkpt lat="43.58614" lon="3.87167">
        <ele>31</ele>
        <time>2017-10-27T07:21:04.442Z</time>
      </trkpt>
      <trkpt lat="43.58608" lon="3.8717">
        <ele>30.6</ele>
        <time>2017-10-27T07:21:05.448Z</time>
      </trkpt>
      <trkpt lat="43.58601" lon="3.87172">
        <ele>30.2</ele>
        <time>2017-10-27T07:21:06.444Z</time>
      </trkpt>
      <trkpt lat="43.58595" lon="3.87175">
        <ele>29.7</ele>
        <time>2017-10-27T07:21:07.447Z</time>
      </trkpt>
      <trkpt lat="43.58588" lon="3.87178">
        <ele>29.2</ele>
        <time>2017-10-27T07:21:08.453Z</time>
      </trkpt>
      <trkpt lat="43.58581" lon="3.87182">
        <ele>28.8</ele>
        <time>2017-10-27T07:21:09.448Z</time>
      </trkpt>
      <trkpt lat="43.58574" lon="3.87185">
        <ele>28.3</ele>
        <time>2017-10-27T07:21:10.444Z</time>
      </trkpt>
      <trkpt lat="43.58567" lon="3.87189">
        <ele>28</ele>
        <time>2017-10-27T07:21:11.435Z</time>
      </trkpt>
      <trkpt lat="43.5856" lon="3.87193">
        <ele>27.5</ele>
        <time>2017-10-27T07:21:12.431Z</time>
      </trkpt>
      <trkpt lat="43.58553" lon="3.87197">
        <ele>27</ele>
        <time>2017-10-27T07:21:13.434Z</time>
      </trkpt>
      <trkpt lat="43.58545" lon="3.872">
        <ele>26.5</ele>
        <time>2017-10-27T07:21:14.440Z</time>
      </trkpt>
      <trkpt lat="43.58538" lon="3.87203">
        <ele>26.1</ele>
        <time>2017-10-27T07:21:15.451Z</time>
      </trkpt>
      <trkpt lat="43.58531" lon="3.87207">
        <ele>25.6</ele>
        <time>2017-10-27T07:21:16.446Z</time>
      </trkpt>
      <trkpt lat="43.58524" lon="3.8721">
        <ele>25.2</ele>
        <time>2017-10-27T07:21:17.449Z</time>
      </trkpt>
      <trkpt lat="43.58518" lon="3.87213">
        <ele>25</ele>
        <time>2017-10-27T07:21:18.445Z</time>
      </trkpt>
      <trkpt lat="43.58512" lon="3.87216">
        <ele>24.7</ele>
        <time>2017-10-27T07:21:19.450Z</time>
      </trkpt>
      <trkpt lat="43.58507" lon="3.87219">
        <ele>24.5</ele>
        <time>2017-10-27T07:21:20.443Z</time>
      </trkpt>
      <trkpt lat="43.58501" lon="3.87223">
        <ele>24.4</ele>
        <time>2017-10-27T07:21:21.439Z</time>
      </trkpt>
      <trkpt lat="43.58496" lon="3.87227">
        <ele>24.2</ele>
        <time>2017-10-27T07:21:22.442Z</time>
      </trkpt>
      <trkpt lat="43.58491" lon="3.87231">
        <ele>24.1</ele>
        <time>2017-10-27T07:21:23.443Z</time>
      </trkpt>
      <trkpt lat="43.58486" lon="3.87234">
        <ele>24</ele>
        <time>2017-10-27T07:21:24.444Z</time>
      </trkpt>
      <trkpt lat="43.58482" lon="3.87237">
        <ele>23.7</ele>
        <time>2017-10-27T07:21:25.448Z</time>
      </trkpt>
      <trkpt lat="43.58479" lon="3.87239">
        <ele>23.5</ele>
        <time>2017-10-27T07:21:26.450Z</time>
      </trkpt>
      <trkpt lat="43.58476" lon="3.87241">
        <ele>23.3</ele>
        <time>2017-10-27T07:21:27.447Z</time>
      </trkpt>
      <trkpt lat="43.58475" lon="3.87241">
        <ele>23.1</ele>
        <time>2017-10-27T07:21:28.456Z</time>
      </trkpt>
      <trkpt lat="43.58473" lon="3.87241">
        <ele>22.7</ele>
        <time>2017-10-27T07:21:29.431Z</time>
      </trkpt>
      <trkpt lat="43.58471" lon="3.87241">
        <ele>22.5</ele>
        <time>2017-10-27T07:21:30.432Z</time>
      </trkpt>
      <trkpt lat="43.58468" lon="3.87241">
        <ele>22.3</ele>
        <time>2017-10-27T07:21:31.459Z</time>
      </trkpt>
      <trkpt lat="43.58464" lon="3.87242">
        <ele>22</ele>
        <time>2017-10-27T07:21:32.430Z</time>
      </trkpt>
      <trkpt lat="43.58461" lon="3.87243">
        <ele>21.8</ele>
        <time>2017-10-27T07:21:33.443Z</time>
      </trkpt>
      <trkpt lat="43.58457" lon="3.87244">
        <ele>21.7</ele>
        <time>2017-10-27T07:21:34.456Z</time>
      </trkpt>
      <trkpt lat="43.58453" lon="3.87244">
        <ele>21.6</ele>
        <time>2017-10-27T07:21:35.446Z</time>
      </trkpt>
      <trkpt lat="43.58449" lon="3.87245">
        <ele>22.1</ele>
        <time>2017-10-27T07:21:36.450Z</time>
      </trkpt>
      <trkpt lat="43.58445" lon="3.87245">
        <ele>22</ele>
        <time>2017-10-27T07:21:37.443Z</time>
      </trkpt>
      <trkpt lat="43.5844" lon="3.87245">
        <ele>22.1</ele>
        <time>2017-10-27T07:21:38.443Z</time>
      </trkpt>
      <trkpt lat="43.58436" lon="3.87245">
        <ele>22.3</ele>
        <time>2017-10-27T07:21:39.443Z</time>
      </trkpt>
      <trkpt lat="43.58432" lon="3.87246">
        <ele>22.2</ele>
        <time>2017-10-27T07:21:40.447Z</time>
      </trkpt>
      <trkpt lat="43.58427" lon="3.87246">
        <ele>22</ele>
        <time>2017-10-27T07:21:41.443Z</time>
      </trkpt>
      <trkpt lat="43.58423" lon="3.87245">
        <ele>22.1</ele>
        <time>2017-10-27T07:21:42.446Z</time>
      </trkpt>
      <trkpt lat="43.5842" lon="3.87245">
        <ele>22.1</ele>
        <time>2017-10-27T07:21:43.445Z</time>
      </trkpt>
      <trkpt lat="43.58416" lon="3.87245">
        <ele>22.1</ele>
        <time>2017-10-27T07:21:44.448Z</time>
      </trkpt>
      <trkpt lat="43.58414" lon="3.87245">
        <ele>21.9</ele>
        <time>2017-10-27T07:21:45.454Z</time>
      </trkpt>
      <trkpt lat="43.58412" lon="3.87245">
        <ele>21.6</ele>
        <time>2017-10-27T07:21:46.442Z</time>
      </trkpt>
      <trkpt lat="43.5841" lon="3.87245">
        <ele>21.7</ele>
        <time>2017-10-27T07:21:47.443Z</time>
      </trkpt>
      <trkpt lat="43.58409" lon="3.87246">
        <ele>21.7</ele>
        <time>2017-10-27T07:21:48.445Z</time>
      </trkpt>
      <trkpt lat="43.58408" lon="3.87246">
        <ele>21.8</ele>
        <time>2017-10-27T07:21:49.444Z</time>
      </trkpt>
      <trkpt lat="43.58406" lon="3.87246">
        <ele>21.8</ele>
        <time>2017-10-27T07:21:50.446Z</time>
      </trkpt>
      <trkpt lat="43.58404" lon="3.87246">
        <ele>21.8</ele>
        <time>2017-10-27T07:21:51.431Z</time>
      </trkpt>
      <trkpt lat="43.58402" lon="3.87245">
        <ele>21.6</ele>
        <time>2017-10-27T07:21:52.430Z</time>
      </trkpt>
      <trkpt lat="43.58399" lon="3.87244">
        <ele>21.6</ele>
        <time>2017-10-27T07:21:53.431Z</time>
      </trkpt>
      <trkpt lat="43.58397" lon="3.87243">
        <ele>21.6</ele>
        <time>2017-10-27T07:21:54.447Z</time>
      </trkpt>
      <trkpt lat="43.58395" lon="3.87241">
        <ele>21.6</ele>
        <time>2017-10-27T07:21:55.454Z</time>
      </trkpt>
      <trkpt lat="43.58393" lon="3.87239">
        <ele>21.7</ele>
        <time>2017-10-27T07:21:56.455Z</time>
      </trkpt>
      <trkpt lat="43.58391" lon="3.87237">
        <ele>21.7</ele>
        <time>2017-10-27T07:21:57.431Z</time>
      </trkpt>
      <trkpt lat="43.58388" lon="3.87235">
        <ele>21.7</ele>
        <time>2017-10-27T07:21:58.443Z</time>
      </trkpt>
      <trkpt lat="43.58385" lon="3.87234">
        <ele>21.8</ele>
        <time>2017-10-27T07:21:59.445Z</time>
      </trkpt>
      <trkpt lat="43.58382" lon="3.87231">
        <ele>21.9</ele>
        <time>2017-10-27T07:22:00.445Z</time>
      </trkpt>
      <trkpt lat="43.58378" lon="3.87229">
        <ele>22</ele>
        <time>2017-10-27T07:22:01.448Z</time>
      </trkpt>
      <trkpt lat="43.58374" lon="3.87227">
        <ele>22</ele>
        <time>2017-10-27T07:22:02.443Z</time>
      </trkpt>
      <trkpt lat="43.5837" lon="3.87225">
        <ele>22</ele>
        <time>2017-10-27T07:22:03.446Z</time>
      </trkpt>
      <trkpt lat="43.58365" lon="3.87225">
        <ele>22</ele>
        <time>2017-10-27T07:22:04.442Z</time>
      </trkpt>
      <trkpt lat="43.58361" lon="3.87224">
        <ele>22</ele>
        <time>2017-10-27T07:22:05.444Z</time>
      </trkpt>
      <trkpt lat="43.58356" lon="3.87223">
        <ele>22.1</ele>
        <time>2017-10-27T07:22:06.444Z</time>
      </trkpt>
      <trkpt lat="43.58351" lon="3.87222">
        <ele>22</ele>
        <time>2017-10-27T07:22:07.444Z</time>
      </trkpt>
      <trkpt lat="43.58346" lon="3.87221">
        <ele>21.9</ele>
        <time>2017-10-27T07:22:08.442Z</time>
      </trkpt>
      <trkpt lat="43.5834" lon="3.87219">
        <ele>21.8</ele>
        <time>2017-10-27T07:22:09.440Z</time>
      </trkpt>
      <trkpt lat="43.58335" lon="3.87218">
        <ele>21.6</ele>
        <time>2017-10-27T07:22:10.430Z</time>
      </trkpt>
      <trkpt lat="43.58329" lon="3.87217">
        <ele>21.4</ele>
        <time>2017-10-27T07:22:11.433Z</time>
      </trkpt>
      <trkpt lat="43.58323" lon="3.87217">
        <ele>21.5</ele>
        <time>2017-10-27T07:22:12.438Z</time>
      </trkpt>
      <trkpt lat="43.58317" lon="3.87216">
        <ele>21.4</ele>
        <time>2017-10-27T07:22:13.453Z</time>
      </trkpt>
      <trkpt lat="43.58311" lon="3.87215">
        <ele>21.4</ele>
        <time>2017-10-27T07:22:14.446Z</time>
      </trkpt>
      <trkpt lat="43.58305" lon="3.87214">
        <ele>21.3</ele>
        <time>2017-10-27T07:22:15.448Z</time>
      </trkpt>
      <trkpt lat="43.58299" lon="3.87213">
        <ele>21.1</ele>
        <time>2017-10-27T07:22:16.458Z</time>
      </trkpt>
      <trkpt lat="43.58293" lon="3.87212">
        <ele>21.1</ele>
        <time>2017-10-27T07:22:17.457Z</time>
      </trkpt>
      <trkpt lat="43.58287" lon="3.87212">
        <ele>21</ele>
        <time>2017-10-27T07:22:18.445Z</time>
      </trkpt>
      <trkpt lat="43.58281" lon="3.87212">
        <ele>21.1</ele>
        <time>2017-10-27T07:22:19.445Z</time>
      </trkpt>
      <trkpt lat="43.58274" lon="3.87212">
        <ele>20.9</ele>
        <time>2017-10-27T07:22:20.450Z</time>
      </trkpt>
      <trkpt lat="43.58268" lon="3.87211">
        <ele>20.7</ele>
        <time>2017-10-27T07:22:21.443Z</time>
      </trkpt>
      <trkpt lat="43.58261" lon="3.87209">
        <ele>20.6</ele>
        <time>2017-10-27T07:22:22.444Z</time>
      </trkpt>
      <trkpt lat="43.58255" lon="3.87207">
        <ele>20.6</ele>
        <time>2017-10-27T07:22:23.444Z</time>
      </trkpt>
      <trkpt lat="43.58248" lon="3.87204">
        <ele>20.6</ele>
        <time>2017-10-27T07:22:24.444Z</time>
      </trkpt>
      <trkpt lat="43.58242" lon="3.872">
        <ele>20.4</ele>
        <time>2017-10-27T07:22:25.443Z</time>
      </trkpt>
      <trkpt lat="43.58236" lon="3.87196">
        <ele>20.3</ele>
        <time>2017-10-27T07:22:26.447Z</time>
      </trkpt>
      <trkpt lat="43.58229" lon="3.87193">
        <ele>20.4</ele>
        <time>2017-10-27T07:22:27.449Z</time>
      </trkpt>
      <trkpt lat="43.58223" lon="3.87189">
        <ele>20.5</ele>
        <time>2017-10-27T07:22:28.445Z</time>
      </trkpt>
      <trkpt lat="43.58216" lon="3.87185">
        <ele>20.5</ele>
        <time>2017-10-27T07:22:29.436Z</time>
      </trkpt>
      <trkpt lat="43.5821" lon="3.87181">
        <ele>20.4</ele>
        <time>2017-10-27T07:22:30.444Z</time>
      </trkpt>
      <trkpt lat="43.58205" lon="3.87176">
        <ele>20.2</ele>
        <time>2017-10-27T07:22:31.450Z</time>
      </trkpt>
      <trkpt lat="43.58199" lon="3.87171">
        <ele>20</ele>
        <time>2017-10-27T07:22:32.443Z</time>
      </trkpt>
      <trkpt lat="43.58194" lon="3.87169">
        <ele>19.8</ele>
        <time>2017-10-27T07:22:33.458Z</time>
      </trkpt>
      <trkpt lat="43.58189" lon="3.87169">
        <ele>19.3</ele>
        <time>2017-10-27T07:22:34.445Z</time>
      </trkpt>
      <trkpt lat="43.58184" lon="3.87172">
        <ele>18.7</ele>
        <time>2017-10-27T07:22:35.431Z</time>
      </trkpt>
      <trkpt lat="43.58179" lon="3.87176">
        <ele>18.2</ele>
        <time>2017-10-27T07:22:36.431Z</time>
      </trkpt>
      <trkpt lat="43.58174" lon="3.87181">
        <ele>18.1</ele>
        <time>2017-10-27T07:22:37.431Z</time>
      </trkpt>
      <trkpt lat="43.58169" lon="3.87186">
        <ele>17.8</ele>
        <time>2017-10-27T07:22:38.442Z</time>
      </trkpt>
      <trkpt lat="43.58164" lon="3.87192">
        <ele>17.6</ele>
        <time>2017-10-27T07:22:39.445Z</time>
      </trkpt>
      <trkpt lat="43.58159" lon="3.87198">
        <ele>17.4</ele>
        <time>2017-10-27T07:22:40.443Z</time>
      </trkpt>
      <trkpt lat="43.58154" lon="3.87204">
        <ele>17.2</ele>
        <time>2017-10-27T07:22:41.446Z</time>
      </trkpt>
      <trkpt lat="43.58149" lon="3.8721">
        <ele>16.9</ele>
        <time>2017-10-27T07:22:42.450Z</time>
      </trkpt>
      <trkpt lat="43.58143" lon="3.87216">
        <ele>16.6</ele>
        <time>2017-10-27T07:22:43.445Z</time>
      </trkpt>
      <trkpt lat="43.58138" lon="3.87222">
        <ele>16.6</ele>
        <time>2017-10-27T07:22:44.444Z</time>
      </trkpt>
      <trkpt lat="43.58132" lon="3.87228">
        <ele>16.3</ele>
        <time>2017-10-27T07:22:45.452Z</time>
      </trkpt>
      <trkpt lat="43.58126" lon="3.87235">
        <ele>16.1</ele>
        <time>2017-10-27T07:22:46.442Z</time>
      </trkpt>
      <trkpt lat="43.58121" lon="3.87241">
        <ele>15.8</ele>
        <time>2017-10-27T07:22:47.451Z</time>
      </trkpt>
      <trkpt lat="43.58115" lon="3.87248">
        <ele>15.6</ele>
        <time>2017-10-27T07:22:48.451Z</time>
      </trkpt>
      <trkpt lat="43.58109" lon="3.87254">
        <ele>15.4</ele>
        <time>2017-10-27T07:22:49.447Z</time>
      </trkpt>
      <trkpt lat="43.58103" lon="3.87259">
        <ele>15.2</ele>
        <time>2017-10-27T07:22:50.454Z</time>
      </trkpt>
      <trkpt lat="43.58096" lon="3.87265">
        <ele>14.9</ele>
        <time>2017-10-27T07:22:51.431Z</time>
      </trkpt>
      <trkpt lat="43.5809" lon="3.8727">
        <ele>14.9</ele>
        <time>2017-10-27T07:22:52.430Z</time>
      </trkpt>
      <trkpt lat="43.58084" lon="3.87275">
        <ele>14.9</ele>
        <time>2017-10-27T07:22:53.431Z</time>
      </trkpt>
      <trkpt lat="43.58077" lon="3.87281">
        <ele>14.9</ele>
        <time>2017-10-27T07:22:54.439Z</time>
      </trkpt>
      <trkpt lat="43.58071" lon="3.87286">
        <ele>15.1</ele>
        <time>2017-10-27T07:22:55.444Z</time>
      </trkpt>
      <trkpt lat="43.58064" lon="3.87291">
        <ele>15</ele>
        <time>2017-10-27T07:22:56.437Z</time>
      </trkpt>
      <trkpt lat="43.58057" lon="3.87296">
        <ele>15</ele>
        <time>2017-10-27T07:22:57.431Z</time>
      </trkpt>
      <trkpt lat="43.58051" lon="3.873">
        <ele>15.1</ele>
        <time>2017-10-27T07:22:58.453Z</time>
      </trkpt>
      <trkpt lat="43.58045" lon="3.87305">
        <ele>15.2</ele>
        <time>2017-10-27T07:22:59.454Z</time>
      </trkpt>
      <trkpt lat="43.58038" lon="3.87309">
        <ele>15</ele>
        <time>2017-10-27T07:23:00.449Z</time>
      </trkpt>
      <trkpt lat="43.58032" lon="3.87313">
        <ele>15</ele>
        <time>2017-10-27T07:23:01.432Z</time>
      </trkpt>
      <trkpt lat="43.58026" lon="3.87318">
        <ele>15</ele>
        <time>2017-10-27T07:23:02.430Z</time>
      </trkpt>
      <trkpt lat="43.5802" lon="3.87323">
        <ele>15.3</ele>
        <time>2017-10-27T07:23:03.432Z</time>
      </trkpt>
      <trkpt lat="43.58014" lon="3.87327">
        <ele>15.3</ele>
        <time>2017-10-27T07:23:04.432Z</time>
      </trkpt>
      <trkpt lat="43.58009" lon="3.87331">
        <ele>15.2</ele>
        <time>2017-10-27T07:23:05.444Z</time>
      </trkpt>
      <trkpt lat="43.58003" lon="3.87334">
        <ele>15.2</ele>
        <time>2017-10-27T07:23:06.446Z</time>
      </trkpt>
      <trkpt lat="43.57997" lon="3.87337">
        <ele>15.3</ele>
        <time>2017-10-27T07:23:07.447Z</time>
      </trkpt>
      <trkpt lat="43.57991" lon="3.87339">
        <ele>15.3</ele>
        <time>2017-10-27T07:23:08.450Z</time>
      </trkpt>
      <trkpt lat="43.57985" lon="3.87341">
        <ele>15.3</ele>
        <time>2017-10-27T07:23:09.444Z</time>
      </trkpt>
      <trkpt lat="43.5798" lon="3.87341">
        <ele>15.5</ele>
        <time>2017-10-27T07:23:10.442Z</time>
      </trkpt>
      <trkpt lat="43.57974" lon="3.87341">
        <ele>15.6</ele>
        <time>2017-10-27T07:23:11.443Z</time>
      </trkpt>
      <trkpt lat="43.5797" lon="3.8734">
        <ele>15.7</ele>
        <time>2017-10-27T07:23:12.462Z</time>
      </trkpt>
      <trkpt lat="43.57965" lon="3.87339">
        <ele>15.8</ele>
        <time>2017-10-27T07:23:13.448Z</time>
      </trkpt>
      <trkpt lat="43.57961" lon="3.87338">
        <ele>15.4</ele>
        <time>2017-10-27T07:23:14.445Z</time>
      </trkpt>
      <trkpt lat="43.57957" lon="3.8734">
        <ele>15.5</ele>
        <time>2017-10-27T07:23:15.447Z</time>
      </trkpt>
      <trkpt lat="43.57954" lon="3.87342">
        <ele>15.3</ele>
        <time>2017-10-27T07:23:16.445Z</time>
      </trkpt>
      <trkpt lat="43.57952" lon="3.87346">
        <ele>14.8</ele>
        <time>2017-10-27T07:23:17.456Z</time>
      </trkpt>
      <trkpt lat="43.57949" lon="3.87351">
        <ele>14.6</ele>
        <time>2017-10-27T07:23:18.444Z</time>
      </trkpt>
      <trkpt lat="43.57947" lon="3.87357">
        <ele>14.4</ele>
        <time>2017-10-27T07:23:19.443Z</time>
      </trkpt>
      <trkpt lat="43.57944" lon="3.87363">
        <ele>14.3</ele>
        <time>2017-10-27T07:23:20.443Z</time>
      </trkpt>
      <trkpt lat="43.57941" lon="3.8737">
        <ele>14.1</ele>
        <time>2017-10-27T07:23:21.444Z</time>
      </trkpt>
      <trkpt lat="43.57938" lon="3.87376">
        <ele>13.9</ele>
        <time>2017-10-27T07:23:22.442Z</time>
      </trkpt>
      <trkpt lat="43.57935" lon="3.87382">
        <ele>13.6</ele>
        <time>2017-10-27T07:23:23.431Z</time>
      </trkpt>
      <trkpt lat="43.57932" lon="3.87387">
        <ele>13.3</ele>
        <time>2017-10-27T07:23:24.432Z</time>
      </trkpt>
      <trkpt lat="43.57928" lon="3.87393">
        <ele>13.1</ele>
        <time>2017-10-27T07:23:25.431Z</time>
      </trkpt>
      <trkpt lat="43.57925" lon="3.87399">
        <ele>13</ele>
        <time>2017-10-27T07:23:26.430Z</time>
      </trkpt>
      <trkpt lat="43.57921" lon="3.87406">
        <ele>12.9</ele>
        <time>2017-10-27T07:23:27.446Z</time>
      </trkpt>
      <trkpt lat="43.57917" lon="3.87412">
        <ele>12.5</ele>
        <time>2017-10-27T07:23:28.445Z</time>
      </trkpt>
      <trkpt lat="43.57912" lon="3.87419">
        <ele>12.2</ele>
        <time>2017-10-27T07:23:29.447Z</time>
      </trkpt>
      <trkpt lat="43.57908" lon="3.87425">
        <ele>12.3</ele>
        <time>2017-10-27T07:23:30.445Z</time>
      </trkpt>
      <trkpt lat="43.57904" lon="3.87431">
        <ele>12.4</ele>
        <time>2017-10-27T07:23:31.448Z</time>
      </trkpt>
      <trkpt lat="43.57899" lon="3.87437">
        <ele>12.6</ele>
        <time>2017-10-27T07:23:32.445Z</time>
      </trkpt>
      <trkpt lat="43.57894" lon="3.87442">
        <ele>12.7</ele>
        <time>2017-10-27T07:23:33.454Z</time>
      </trkpt>
      <trkpt lat="43.57889" lon="3.87446">
        <ele>12.8</ele>
        <time>2017-10-27T07:23:34.442Z</time>
      </trkpt>
      <trkpt lat="43.57884" lon="3.87452">
        <ele>12.7</ele>
        <time>2017-10-27T07:23:35.443Z</time>
      </trkpt>
      <trkpt lat="43.5788" lon="3.87458">
        <ele>13.1</ele>
        <time>2017-10-27T07:23:36.447Z</time>
      </trkpt>
      <trkpt lat="43.57876" lon="3.87464">
        <ele>13</ele>
        <time>2017-10-27T07:23:37.443Z</time>
      </trkpt>
      <trkpt lat="43.57872" lon="3.87471">
        <ele>12.9</ele>
        <time>2017-10-27T07:23:38.443Z</time>
      </trkpt>
      <trkpt lat="43.57868" lon="3.87478">
        <ele>12.7</ele>
        <time>2017-10-27T07:23:39.452Z</time>
      </trkpt>
      <trkpt lat="43.57865" lon="3.87485">
        <ele>12.6</ele>
        <time>2017-10-27T07:23:40.442Z</time>
      </trkpt>
      <trkpt lat="43.57863" lon="3.87493">
        <ele>12.8</ele>
        <time>2017-10-27T07:23:41.452Z</time>
      </trkpt>
      <trkpt lat="43.5786" lon="3.875">
        <ele>12.9</ele>
        <time>2017-10-27T07:23:42.444Z</time>
      </trkpt>
      <trkpt lat="43.57857" lon="3.87507">
        <ele>12.9</ele>
        <time>2017-10-27T07:23:43.435Z</time>
      </trkpt>
      <trkpt lat="43.57854" lon="3.87515">
        <ele>12.9</ele>
        <time>2017-10-27T07:23:44.430Z</time>
      </trkpt>
      <trkpt lat="43.57852" lon="3.87523">
        <ele>12.8</ele>
        <time>2017-10-27T07:23:45.438Z</time>
      </trkpt>
      <trkpt lat="43.57849" lon="3.8753">
        <ele>12.7</ele>
        <time>2017-10-27T07:23:46.430Z</time>
      </trkpt>
      <trkpt lat="43.57846" lon="3.87537">
        <ele>12.7</ele>
        <time>2017-10-27T07:23:47.445Z</time>
      </trkpt>
      <trkpt lat="43.57842" lon="3.87543">
        <ele>12.7</ele>
        <time>2017-10-27T07:23:48.447Z</time>
      </trkpt>
      <trkpt lat="43.57838" lon="3.87548">
        <ele>12.7</ele>
        <time>2017-10-27T07:23:49.446Z</time>
      </trkpt>
      <trkpt lat="43.57834" lon="3.87553">
        <ele>12.7</ele>
        <time>2017-10-27T07:23:50.431Z</time>
      </trkpt>
      <trkpt lat="43.5783" lon="3.87558">
        <ele>12.7</ele>
        <time>2017-10-27T07:23:51.443Z</time>
      </trkpt>
      <trkpt lat="43.57827" lon="3.87562">
        <ele>12.8</ele>
        <time>2017-10-27T07:23:52.443Z</time>
      </trkpt>
      <trkpt lat="43.57825" lon="3.87565">
        <ele>12.5</ele>
        <time>2017-10-27T07:23:53.446Z</time>
      </trkpt>
      <trkpt lat="43.57826" lon="3.87569">
        <ele>12.5</ele>
        <time>2017-10-27T07:23:54.445Z</time>
      </trkpt>
      <trkpt lat="43.57827" lon="3.87572">
        <ele>12.4</ele>
        <time>2017-10-27T07:23:55.445Z</time>
      </trkpt>
      <trkpt lat="43.57827" lon="3.87575">
        <ele>12.5</ele>
        <time>2017-10-27T07:23:56.445Z</time>
      </trkpt>
      <trkpt lat="43.57826" lon="3.87577">
        <ele>12.6</ele>
        <time>2017-10-27T07:23:57.433Z</time>
      </trkpt>
      <trkpt lat="43.57825" lon="3.87579">
        <ele>12.5</ele>
        <time>2017-10-27T07:23:58.455Z</time>
      </trkpt>
      <trkpt lat="43.57822" lon="3.87581">
        <ele>12.2</ele>
        <time>2017-10-27T07:23:59.431Z</time>
      </trkpt>
      <trkpt lat="43.5782" lon="3.87584">
        <ele>12.3</ele>
        <time>2017-10-27T07:24:00.441Z</time>
      </trkpt>
      <trkpt lat="43.57819" lon="3.87587">
        <ele>12.2</ele>
        <time>2017-10-27T07:24:01.438Z</time>
      </trkpt>
      <trkpt lat="43.57818" lon="3.87591">
        <ele>11.9</ele>
        <time>2017-10-27T07:24:02.430Z</time>
      </trkpt>
      <trkpt lat="43.57818" lon="3.87595">
        <ele>11.9</ele>
        <time>2017-10-27T07:24:03.431Z</time>
      </trkpt>
      <trkpt lat="43.57819" lon="3.876">
        <ele>11.5</ele>
        <time>2017-10-27T07:24:04.434Z</time>
      </trkpt>
      <trkpt lat="43.5782" lon="3.87604">
        <ele>11</ele>
        <time>2017-10-27T07:24:05.433Z</time>
      </trkpt>
      <trkpt lat="43.57822" lon="3.87609">
        <ele>11</ele>
        <time>2017-10-27T07:24:06.438Z</time>
      </trkpt>
      <trkpt lat="43.57824" lon="3.87614">
        <ele>10.8</ele>
        <time>2017-10-27T07:24:07.455Z</time>
      </trkpt>
      <trkpt lat="43.57826" lon="3.87619">
        <ele>10.7</ele>
        <time>2017-10-27T07:24:08.463Z</time>
      </trkpt>
      <trkpt lat="43.57828" lon="3.87623">
        <ele>10.5</ele>
        <time>2017-10-27T07:24:09.446Z</time>
      </trkpt>
      <trkpt lat="43.57831" lon="3.87629">
        <ele>10.3</ele>
        <time>2017-10-27T07:24:10.445Z</time>
      </trkpt>
      <trkpt lat="43.57833" lon="3.87634">
        <ele>10.1</ele>
        <time>2017-10-27T07:24:11.444Z</time>
      </trkpt>
      <trkpt lat="43.57835" lon="3.87639">
        <ele>9.9</ele>
        <time>2017-10-27T07:24:12.451Z</time>
      </trkpt>
      <trkpt lat="43.57838" lon="3.87644">
        <ele>9.8</ele>
        <time>2017-10-27T07:24:13.444Z</time>
      </trkpt>
      <trkpt lat="43.57839" lon="3.87649">
        <ele>9.6</ele>
        <time>2017-10-27T07:24:14.442Z</time>
      </trkpt>
      <trkpt lat="43.57842" lon="3.87653">
        <ele>9.4</ele>
        <time>2017-10-27T07:24:15.450Z</time>
      </trkpt>
      <trkpt lat="43.57844" lon="3.87658">
        <ele>9.3</ele>
        <time>2017-10-27T07:24:16.442Z</time>
      </trkpt>
      <trkpt lat="43.57847" lon="3.87662">
        <ele>9.2</ele>
        <time>2017-10-27T07:24:17.446Z</time>
      </trkpt>
      <trkpt lat="43.57849" lon="3.87666">
        <ele>9.1</ele>
        <time>2017-10-27T07:24:18.446Z</time>
      </trkpt>
      <trkpt lat="43.57851" lon="3.8767">
        <ele>9.1</ele>
        <time>2017-10-27T07:24:19.437Z</time>
      </trkpt>
      <trkpt lat="43.57853" lon="3.87674">
        <ele>9.1</ele>
        <time>2017-10-27T07:24:20.447Z</time>
      </trkpt>
      <trkpt lat="43.57854" lon="3.87677">
        <ele>9.1</ele>
        <time>2017-10-27T07:24:21.445Z</time>
      </trkpt>
      <trkpt lat="43.57855" lon="3.87682">
        <ele>9.1</ele>
        <time>2017-10-27T07:24:22.443Z</time>
      </trkpt>
      <trkpt lat="43.57856" lon="3.87686">
        <ele>9.1</ele>
        <time>2017-10-27T07:24:23.449Z</time>
      </trkpt>
      <trkpt lat="43.57856" lon="3.87692">
        <ele>9.1</ele>
        <time>2017-10-27T07:24:24.433Z</time>
      </trkpt>
      <trkpt lat="43.57857" lon="3.87698">
        <ele>9</ele>
        <time>2017-10-27T07:24:25.431Z</time>
      </trkpt>
      <trkpt lat="43.57858" lon="3.87703">
        <ele>8.9</ele>
        <time>2017-10-27T07:24:26.431Z</time>
      </trkpt>
      <trkpt lat="43.57859" lon="3.87708">
        <ele>9</ele>
        <time>2017-10-27T07:24:27.432Z</time>
      </trkpt>
      <trkpt lat="43.57861" lon="3.87713">
        <ele>9</ele>
        <time>2017-10-27T07:24:28.430Z</time>
      </trkpt>
      <trkpt lat="43.57864" lon="3.87718">
        <ele>9</ele>
        <time>2017-10-27T07:24:29.455Z</time>
      </trkpt>
      <trkpt lat="43.57867" lon="3.87723">
        <ele>9</ele>
        <time>2017-10-27T07:24:30.440Z</time>
      </trkpt>
      <trkpt lat="43.57869" lon="3.87727">
        <ele>9</ele>
        <time>2017-10-27T07:24:31.442Z</time>
      </trkpt>
      <trkpt lat="43.57872" lon="3.87732">
        <ele>9.1</ele>
        <time>2017-10-27T07:24:32.444Z</time>
      </trkpt>
      <trkpt lat="43.57874" lon="3.87736">
        <ele>9.3</ele>
        <time>2017-10-27T07:24:33.438Z</time>
      </trkpt>
      <trkpt lat="43.57876" lon="3.87741">
        <ele>9.4</ele>
        <time>2017-10-27T07:24:34.444Z</time>
      </trkpt>
      <trkpt lat="43.57879" lon="3.87746">
        <ele>9.6</ele>
        <time>2017-10-27T07:24:35.443Z</time>
      </trkpt>
      <trkpt lat="43.57882" lon="3.87751">
        <ele>9.3</ele>
        <time>2017-10-27T07:24:36.446Z</time>
      </trkpt>
      <trkpt lat="43.57885" lon="3.87756">
        <ele>9.4</ele>
        <time>2017-10-27T07:24:37.443Z</time>
      </trkpt>
      <trkpt lat="43.57888" lon="3.87761">
        <ele>9.4</ele>
        <time>2017-10-27T07:24:38.445Z</time>
      </trkpt>
      <trkpt lat="43.5789" lon="3.87767">
        <ele>9.5</ele>
        <time>2017-10-27T07:24:39.444Z</time>
      </trkpt>
      <trkpt lat="43.57893" lon="3.87772">
        <ele>9.4</ele>
        <time>2017-10-27T07:24:40.450Z</time>
      </trkpt>
      <trkpt lat="43.57896" lon="3.87778">
        <ele>9.5</ele>
        <time>2017-10-27T07:24:41.444Z</time>
      </trkpt>
      <trkpt lat="43.57899" lon="3.87784">
        <ele>9.5</ele>
        <time>2017-10-27T07:24:42.448Z</time>
      </trkpt>
      <trkpt lat="43.57902" lon="3.87789">
        <ele>9.5</ele>
        <time>2017-10-27T07:24:43.444Z</time>
      </trkpt>
      <trkpt lat="43.57905" lon="3.87795">
        <ele>9.6</ele>
        <time>2017-10-27T07:24:44.434Z</time>
      </trkpt>
      <trkpt lat="43.57908" lon="3.87802">
        <ele>9.7</ele>
        <time>2017-10-27T07:24:45.431Z</time>
      </trkpt>
      <trkpt lat="43.57911" lon="3.87808">
        <ele>9.8</ele>
        <time>2017-10-27T07:24:46.434Z</time>
      </trkpt>
      <trkpt lat="43.57914" lon="3.87814">
        <ele>10</ele>
        <time>2017-10-27T07:24:47.435Z</time>
      </trkpt>
      <trkpt lat="43.57917" lon="3.8782">
        <ele>10.1</ele>
        <time>2017-10-27T07:24:48.454Z</time>
      </trkpt>
      <trkpt lat="43.5792" lon="3.87825">
        <ele>10.2</ele>
        <time>2017-10-27T07:24:49.446Z</time>
      </trkpt>
      <trkpt lat="43.57922" lon="3.87831">
        <ele>10.3</ele>
        <time>2017-10-27T07:24:50.444Z</time>
      </trkpt>
      <trkpt lat="43.57925" lon="3.87837">
        <ele>10.4</ele>
        <time>2017-10-27T07:24:51.444Z</time>
      </trkpt>
      <trkpt lat="43.57928" lon="3.87843">
        <ele>10.6</ele>
        <time>2017-10-27T07:24:52.444Z</time>
      </trkpt>
      <trkpt lat="43.57931" lon="3.87849">
        <ele>10.7</ele>
        <time>2017-10-27T07:24:53.444Z</time>
      </trkpt>
      <trkpt lat="43.57934" lon="3.87854">
        <ele>11</ele>
        <time>2017-10-27T07:24:54.444Z</time>
      </trkpt>
      <trkpt lat="43.57937" lon="3.8786">
        <ele>11.1</ele>
        <time>2017-10-27T07:24:55.443Z</time>
      </trkpt>
      <trkpt lat="43.5794" lon="3.87866">
        <ele>11.2</ele>
        <time>2017-10-27T07:24:56.451Z</time>
      </trkpt>
      <trkpt lat="43.57943" lon="3.87871">
        <ele>11.5</ele>
        <time>2017-10-27T07:24:57.431Z</time>
      </trkpt>
      <trkpt lat="43.57946" lon="3.87877">
        <ele>11.6</ele>
        <time>2017-10-27T07:24:58.436Z</time>
      </trkpt>
      <trkpt lat="43.57949" lon="3.87882">
        <ele>11.8</ele>
        <time>2017-10-27T07:24:59.444Z</time>
      </trkpt>
      <trkpt lat="43.57952" lon="3.87887">
        <ele>11.8</ele>
        <time>2017-10-27T07:25:00.433Z</time>
      </trkpt>
      <trkpt lat="43.57955" lon="3.87892">
        <ele>11.9</ele>
        <time>2017-10-27T07:25:01.434Z</time>
      </trkpt>
      <trkpt lat="43.57958" lon="3.87897">
        <ele>12</ele>
        <time>2017-10-27T07:25:02.440Z</time>
      </trkpt>
      <trkpt lat="43.5796" lon="3.87902">
        <ele>12.1</ele>
        <time>2017-10-27T07:25:03.450Z</time>
      </trkpt>
      <trkpt lat="43.57963" lon="3.87907">
        <ele>12.3</ele>
        <time>2017-10-27T07:25:04.454Z</time>
      </trkpt>
      <trkpt lat="43.57966" lon="3.87911">
        <ele>12.4</ele>
        <time>2017-10-27T07:25:05.445Z</time>
      </trkpt>
      <trkpt lat="43.57969" lon="3.87916">
        <ele>12.5</ele>
        <time>2017-10-27T07:25:06.457Z</time>
      </trkpt>
      <trkpt lat="43.57972" lon="3.87921">
        <ele>12.6</ele>
        <time>2017-10-27T07:25:07.435Z</time>
      </trkpt>
      <trkpt lat="43.57975" lon="3.87926">
        <ele>12.7</ele>
        <time>2017-10-27T07:25:08.430Z</time>
      </trkpt>
      <trkpt lat="43.57977" lon="3.8793">
        <ele>12.7</ele>
        <time>2017-10-27T07:25:09.431Z</time>
      </trkpt>
      <trkpt lat="43.5798" lon="3.87935">
        <ele>12.7</ele>
        <time>2017-10-27T07:25:10.430Z</time>
      </trkpt>
      <trkpt lat="43.57983" lon="3.8794">
        <ele>12.7</ele>
        <time>2017-10-27T07:25:11.432Z</time>
      </trkpt>
      <trkpt lat="43.57985" lon="3.87944">
        <ele>12.8</ele>
        <time>2017-10-27T07:25:12.432Z</time>
      </trkpt>
      <trkpt lat="43.57988" lon="3.87949">
        <ele>13</ele>
        <time>2017-10-27T07:25:13.446Z</time>
      </trkpt>
      <trkpt lat="43.5799" lon="3.87954">
        <ele>13</ele>
        <time>2017-10-27T07:25:14.446Z</time>
      </trkpt>
      <trkpt lat="43.57993" lon="3.87959">
        <ele>13</ele>
        <time>2017-10-27T07:25:15.454Z</time>
      </trkpt>
      <trkpt lat="43.57995" lon="3.87964">
        <ele>13.1</ele>
        <time>2017-10-27T07:25:16.444Z</time>
      </trkpt>
      <trkpt lat="43.57998" lon="3.87969">
        <ele>13.2</ele>
        <time>2017-10-27T07:25:17.454Z</time>
      </trkpt>
      <trkpt lat="43.58" lon="3.87974">
        <ele>13.2</ele>
        <time>2017-10-27T07:25:18.450Z</time>
      </trkpt>
      <trkpt lat="43.58003" lon="3.87979">
        <ele>13.3</ele>
        <time>2017-10-27T07:25:19.447Z</time>
      </trkpt>
      <trkpt lat="43.58005" lon="3.87984">
        <ele>13.4</ele>
        <time>2017-10-27T07:25:20.451Z</time>
      </trkpt>
      <trkpt lat="43.58008" lon="3.8799">
        <ele>13.3</ele>
        <time>2017-10-27T07:25:21.445Z</time>
      </trkpt>
      <trkpt lat="43.5801" lon="3.87995">
        <ele>13.2</ele>
        <time>2017-10-27T07:25:22.449Z</time>
      </trkpt>
      <trkpt lat="43.58013" lon="3.88001">
        <ele>13.1</ele>
        <time>2017-10-27T07:25:23.447Z</time>
      </trkpt>
      <trkpt lat="43.58015" lon="3.88006">
        <ele>13.1</ele>
        <time>2017-10-27T07:25:24.446Z</time>
      </trkpt>
      <trkpt lat="43.58018" lon="3.88012">
        <ele>13</ele>
        <time>2017-10-27T07:25:25.457Z</time>
      </trkpt>
      <trkpt lat="43.5802" lon="3.88018">
        <ele>13</ele>
        <time>2017-10-27T07:25:26.444Z</time>
      </trkpt>
      <trkpt lat="43.58022" lon="3.88025">
        <ele>12.9</ele>
        <time>2017-10-27T07:25:27.453Z</time>
      </trkpt>
      <trkpt lat="43.58024" lon="3.88031">
        <ele>12.8</ele>
        <time>2017-10-27T07:25:28.443Z</time>
      </trkpt>
      <trkpt lat="43.58026" lon="3.88038">
        <ele>12.8</ele>
        <time>2017-10-27T07:25:29.431Z</time>
      </trkpt>
      <trkpt lat="43.58029" lon="3.88045">
        <ele>12.7</ele>
        <time>2017-10-27T07:25:30.432Z</time>
      </trkpt>
      <trkpt lat="43.58031" lon="3.88052">
        <ele>12.6</ele>
        <time>2017-10-27T07:25:31.433Z</time>
      </trkpt>
      <trkpt lat="43.58032" lon="3.8806">
        <ele>12.5</ele>
        <time>2017-10-27T07:25:32.436Z</time>
      </trkpt>
      <trkpt lat="43.58034" lon="3.88067">
        <ele>12.5</ele>
        <time>2017-10-27T07:25:33.446Z</time>
      </trkpt>
      <trkpt lat="43.58036" lon="3.88074">
        <ele>12.5</ele>
        <time>2017-10-27T07:25:34.447Z</time>
      </trkpt>
      <trkpt lat="43.58038" lon="3.88082">
        <ele>12.5</ele>
        <time>2017-10-27T07:25:35.446Z</time>
      </trkpt>
      <trkpt lat="43.5804" lon="3.88089">
        <ele>12.5</ele>
        <time>2017-10-27T07:25:36.446Z</time>
      </trkpt>
      <trkpt lat="43.58042" lon="3.88096">
        <ele>12.5</ele>
        <time>2017-10-27T07:25:37.445Z</time>
      </trkpt>
      <trkpt lat="43.58044" lon="3.88103">
        <ele>12.6</ele>
        <time>2017-10-27T07:25:38.445Z</time>
      </trkpt>
      <trkpt lat="43.58045" lon="3.88111">
        <ele>12.5</ele>
        <time>2017-10-27T07:25:39.449Z</time>
      </trkpt>
      <trkpt lat="43.58047" lon="3.88118">
        <ele>12.6</ele>
        <time>2017-10-27T07:25:40.444Z</time>
      </trkpt>
      <trkpt lat="43.58049" lon="3.88126">
        <ele>12.6</ele>
        <time>2017-10-27T07:25:41.442Z</time>
      </trkpt>
      <trkpt lat="43.58051" lon="3.88134">
        <ele>12.7</ele>
        <time>2017-10-27T07:25:42.445Z</time>
      </trkpt>
      <trkpt lat="43.58053" lon="3.88142">
        <ele>12.9</ele>
        <time>2017-10-27T07:25:43.431Z</time>
      </trkpt>
      <trkpt lat="43.58055" lon="3.8815">
        <ele>12.9</ele>
        <time>2017-10-27T07:25:44.430Z</time>
      </trkpt>
      <trkpt lat="43.58057" lon="3.88158">
        <ele>12.9</ele>
        <time>2017-10-27T07:25:45.445Z</time>
      </trkpt>
      <trkpt lat="43.58059" lon="3.88166">
        <ele>12.9</ele>
        <time>2017-10-27T07:25:46.442Z</time>
      </trkpt>
      <trkpt lat="43.58061" lon="3.88174">
        <ele>12.8</ele>
        <time>2017-10-27T07:25:47.448Z</time>
      </trkpt>
      <trkpt lat="43.58063" lon="3.88183">
        <ele>12.8</ele>
        <time>2017-10-27T07:25:48.445Z</time>
      </trkpt>
      <trkpt lat="43.58064" lon="3.88191">
        <ele>12.8</ele>
        <time>2017-10-27T07:25:49.447Z</time>
      </trkpt>
      <trkpt lat="43.58066" lon="3.882">
        <ele>12.7</ele>
        <time>2017-10-27T07:25:50.447Z</time>
      </trkpt>
      <trkpt lat="43.58068" lon="3.88208">
        <ele>12.6</ele>
        <time>2017-10-27T07:25:51.471Z</time>
      </trkpt>
      <trkpt lat="43.5807" lon="3.88216">
        <ele>12.6</ele>
        <time>2017-10-27T07:25:52.450Z</time>
      </trkpt>
      <trkpt lat="43.58072" lon="3.88224">
        <ele>12.5</ele>
        <time>2017-10-27T07:25:53.432Z</time>
      </trkpt>
      <trkpt lat="43.58074" lon="3.88232">
        <ele>12.4</ele>
        <time>2017-10-27T07:25:54.434Z</time>
      </trkpt>
      <trkpt lat="43.58076" lon="3.8824">
        <ele>12.3</ele>
        <time>2017-10-27T07:25:55.439Z</time>
      </trkpt>
      <trkpt lat="43.58079" lon="3.88247">
        <ele>12.2</ele>
        <time>2017-10-27T07:25:56.431Z</time>
      </trkpt>
      <trkpt lat="43.58081" lon="3.88255">
        <ele>12.1</ele>
        <time>2017-10-27T07:25:57.439Z</time>
      </trkpt>
      <trkpt lat="43.58084" lon="3.88263">
        <ele>12</ele>
        <time>2017-10-27T07:25:58.449Z</time>
      </trkpt>
      <trkpt lat="43.58086" lon="3.88271">
        <ele>11.9</ele>
        <time>2017-10-27T07:25:59.449Z</time>
      </trkpt>
      <trkpt lat="43.58089" lon="3.88279">
        <ele>11.9</ele>
        <time>2017-10-27T07:26:00.448Z</time>
      </trkpt>
      <trkpt lat="43.58091" lon="3.88287">
        <ele>11.9</ele>
        <time>2017-10-27T07:26:01.448Z</time>
      </trkpt>
      <trkpt lat="43.58094" lon="3.88295">
        <ele>12</ele>
        <time>2017-10-27T07:26:02.447Z</time>
      </trkpt>
      <trkpt lat="43.58097" lon="3.88303">
        <ele>11.9</ele>
        <time>2017-10-27T07:26:03.452Z</time>
      </trkpt>
      <trkpt lat="43.581" lon="3.8831">
        <ele>11.9</ele>
        <time>2017-10-27T07:26:04.447Z</time>
      </trkpt>
      <trkpt lat="43.58103" lon="3.88318">
        <ele>12</ele>
        <time>2017-10-27T07:26:05.448Z</time>
      </trkpt>
      <trkpt lat="43.58105" lon="3.88326">
        <ele>12.1</ele>
        <time>2017-10-27T07:26:06.448Z</time>
      </trkpt>
      <trkpt lat="43.58108" lon="3.88333">
        <ele>12.1</ele>
        <time>2017-10-27T07:26:07.439Z</time>
      </trkpt>
      <trkpt lat="43.58111" lon="3.88341">
        <ele>12.1</ele>
        <time>2017-10-27T07:26:08.449Z</time>
      </trkpt>
      <trkpt lat="43.58113" lon="3.88348">
        <ele>12.1</ele>
        <time>2017-10-27T07:26:09.449Z</time>
      </trkpt>
      <trkpt lat="43.58116" lon="3.88355">
        <ele>12.2</ele>
        <time>2017-10-27T07:26:10.456Z</time>
      </trkpt>
      <trkpt lat="43.58119" lon="3.88363">
        <ele>12.3</ele>
        <time>2017-10-27T07:26:11.435Z</time>
      </trkpt>
      <trkpt lat="43.58121" lon="3.8837">
        <ele>12.5</ele>
        <time>2017-10-27T07:26:12.436Z</time>
      </trkpt>
      <trkpt lat="43.58124" lon="3.88377">
        <ele>12.7</ele>
        <time>2017-10-27T07:26:13.438Z</time>
      </trkpt>
      <trkpt lat="43.58127" lon="3.88384">
        <ele>12.7</ele>
        <time>2017-10-27T07:26:14.437Z</time>
      </trkpt>
      <trkpt lat="43.58129" lon="3.88391">
        <ele>12.7</ele>
        <time>2017-10-27T07:26:15.457Z</time>
      </trkpt>
      <trkpt lat="43.58132" lon="3.88398">
        <ele>12.9</ele>
        <time>2017-10-27T07:26:16.457Z</time>
      </trkpt>
      <trkpt lat="43.58135" lon="3.88406">
        <ele>13</ele>
        <time>2017-10-27T07:26:17.449Z</time>
      </trkpt>
      <trkpt lat="43.58137" lon="3.88413">
        <ele>13.2</ele>
        <time>2017-10-27T07:26:18.449Z</time>
      </trkpt>
      <trkpt lat="43.5814" lon="3.88419">
        <ele>13.4</ele>
        <time>2017-10-27T07:26:19.447Z</time>
      </trkpt>
      <trkpt lat="43.58142" lon="3.88426">
        <ele>13.6</ele>
        <time>2017-10-27T07:26:20.447Z</time>
      </trkpt>
      <trkpt lat="43.58145" lon="3.88433">
        <ele>13.7</ele>
        <time>2017-10-27T07:26:21.446Z</time>
      </trkpt>
      <trkpt lat="43.58147" lon="3.8844">
        <ele>13.8</ele>
        <time>2017-10-27T07:26:22.440Z</time>
      </trkpt>
      <trkpt lat="43.5815" lon="3.88447">
        <ele>14</ele>
        <time>2017-10-27T07:26:23.431Z</time>
      </trkpt>
      <trkpt lat="43.58153" lon="3.88454">
        <ele>14.1</ele>
        <time>2017-10-27T07:26:24.447Z</time>
      </trkpt>
      <trkpt lat="43.58155" lon="3.88461">
        <ele>14.3</ele>
        <time>2017-10-27T07:26:25.445Z</time>
      </trkpt>
      <trkpt lat="43.58158" lon="3.88468">
        <ele>14.5</ele>
        <time>2017-10-27T07:26:26.438Z</time>
      </trkpt>
      <trkpt lat="43.5816" lon="3.88475">
        <ele>14.7</ele>
        <time>2017-10-27T07:26:27.434Z</time>
      </trkpt>
      <trkpt lat="43.58163" lon="3.88482">
        <ele>14.9</ele>
        <time>2017-10-27T07:26:28.445Z</time>
      </trkpt>
      <trkpt lat="43.58165" lon="3.88489">
        <ele>15</ele>
        <time>2017-10-27T07:26:29.445Z</time>
      </trkpt>
      <trkpt lat="43.58168" lon="3.88496">
        <ele>15.2</ele>
        <time>2017-10-27T07:26:30.454Z</time>
      </trkpt>
      <trkpt lat="43.5817" lon="3.88503">
        <ele>15.3</ele>
        <time>2017-10-27T07:26:31.445Z</time>
      </trkpt>
      <trkpt lat="43.58172" lon="3.88509">
        <ele>15.5</ele>
        <time>2017-10-27T07:26:32.430Z</time>
      </trkpt>
      <trkpt lat="43.58175" lon="3.88516">
        <ele>15.6</ele>
        <time>2017-10-27T07:26:33.432Z</time>
      </trkpt>
      <trkpt lat="43.58177" lon="3.88522">
        <ele>15.7</ele>
        <time>2017-10-27T07:26:34.431Z</time>
      </trkpt>
      <trkpt lat="43.5818" lon="3.88529">
        <ele>15.9</ele>
        <time>2017-10-27T07:26:35.447Z</time>
      </trkpt>
      <trkpt lat="43.58182" lon="3.88535">
        <ele>16</ele>
        <time>2017-10-27T07:26:36.452Z</time>
      </trkpt>
      <trkpt lat="43.58184" lon="3.88541">
        <ele>16.1</ele>
        <time>2017-10-27T07:26:37.449Z</time>
      </trkpt>
      <trkpt lat="43.58187" lon="3.88548">
        <ele>16.2</ele>
        <time>2017-10-27T07:26:38.448Z</time>
      </trkpt>
      <trkpt lat="43.58189" lon="3.88554">
        <ele>16.3</ele>
        <time>2017-10-27T07:26:39.444Z</time>
      </trkpt>
      <trkpt lat="43.58192" lon="3.8856">
        <ele>16.4</ele>
        <time>2017-10-27T07:26:40.445Z</time>
      </trkpt>
      <trkpt lat="43.58195" lon="3.88566">
        <ele>16.4</ele>
        <time>2017-10-27T07:26:41.446Z</time>
      </trkpt>
      <trkpt lat="43.58198" lon="3.88573">
        <ele>16.4</ele>
        <time>2017-10-27T07:26:42.446Z</time>
      </trkpt>
      <trkpt lat="43.58201" lon="3.8858">
        <ele>16.5</ele>
        <time>2017-10-27T07:26:43.447Z</time>
      </trkpt>
      <trkpt lat="43.58204" lon="3.88586">
        <ele>16.7</ele>
        <time>2017-10-27T07:26:44.445Z</time>
      </trkpt>
      <trkpt lat="43.58207" lon="3.88593">
        <ele>16.8</ele>
        <time>2017-10-27T07:26:45.444Z</time>
      </trkpt>
      <trkpt lat="43.5821" lon="3.886">
        <ele>16.9</ele>
        <time>2017-10-27T07:26:46.444Z</time>
      </trkpt>
      <trkpt lat="43.58213" lon="3.88607">
        <ele>17</ele>
        <time>2017-10-27T07:26:47.444Z</time>
      </trkpt>
      <trkpt lat="43.58217" lon="3.88613">
        <ele>17.1</ele>
        <time>2017-10-27T07:26:48.446Z</time>
      </trkpt>
      <trkpt lat="43.58221" lon="3.8862">
        <ele>17.2</ele>
        <time>2017-10-27T07:26:49.432Z</time>
      </trkpt>
      <trkpt lat="43.58224" lon="3.88626">
        <ele>17.2</ele>
        <time>2017-10-27T07:26:50.430Z</time>
      </trkpt>
      <trkpt lat="43.58228" lon="3.88632">
        <ele>17.4</ele>
        <time>2017-10-27T07:26:51.433Z</time>
      </trkpt>
      <trkpt lat="43.58232" lon="3.88638">
        <ele>17.5</ele>
        <time>2017-10-27T07:26:52.444Z</time>
      </trkpt>
      <trkpt lat="43.58236" lon="3.88643">
        <ele>17.6</ele>
        <time>2017-10-27T07:26:53.448Z</time>
      </trkpt>
      <trkpt lat="43.58239" lon="3.88649">
        <ele>17.7</ele>
        <time>2017-10-27T07:26:54.446Z</time>
      </trkpt>
      <trkpt lat="43.58243" lon="3.88654">
        <ele>17.7</ele>
        <time>2017-10-27T07:26:55.448Z</time>
      </trkpt>
      <trkpt lat="43.58247" lon="3.88659">
        <ele>17.8</ele>
        <time>2017-10-27T07:26:56.447Z</time>
      </trkpt>
      <trkpt lat="43.5825" lon="3.88663">
        <ele>17.8</ele>
        <time>2017-10-27T07:26:57.432Z</time>
      </trkpt>
      <trkpt lat="43.58254" lon="3.88668">
        <ele>17.8</ele>
        <time>2017-10-27T07:26:58.444Z</time>
      </trkpt>
      <trkpt lat="43.58257" lon="3.88672">
        <ele>17.8</ele>
        <time>2017-10-27T07:26:59.445Z</time>
      </trkpt>
      <trkpt lat="43.58261" lon="3.88677">
        <ele>17.9</ele>
        <time>2017-10-27T07:27:00.445Z</time>
      </trkpt>
      <trkpt lat="43.58264" lon="3.88681">
        <ele>17.9</ele>
        <time>2017-10-27T07:27:01.447Z</time>
      </trkpt>
      <trkpt lat="43.58268" lon="3.88685">
        <ele>17.9</ele>
        <time>2017-10-27T07:27:02.431Z</time>
      </trkpt>
      <trkpt lat="43.58271" lon="3.88689">
        <ele>17.9</ele>
        <time>2017-10-27T07:27:03.449Z</time>
      </trkpt>
      <trkpt lat="43.58274" lon="3.88693">
        <ele>17.8</ele>
        <time>2017-10-27T07:27:04.444Z</time>
      </trkpt>
      <trkpt lat="43.58277" lon="3.88697">
        <ele>17.8</ele>
        <time>2017-10-27T07:27:05.450Z</time>
      </trkpt>
      <trkpt lat="43.5828" lon="3.88701">
        <ele>17.7</ele>
        <time>2017-10-27T07:27:06.446Z</time>
      </trkpt>
      <trkpt lat="43.58283" lon="3.88705">
        <ele>17.6</ele>
        <time>2017-10-27T07:27:07.444Z</time>
      </trkpt>
      <trkpt lat="43.58286" lon="3.88709">
        <ele>17.5</ele>
        <time>2017-10-27T07:27:08.454Z</time>
      </trkpt>
      <trkpt lat="43.58289" lon="3.88712">
        <ele>17.5</ele>
        <time>2017-10-27T07:27:09.444Z</time>
      </trkpt>
      <trkpt lat="43.58293" lon="3.88716">
        <ele>17.4</ele>
        <time>2017-10-27T07:27:10.431Z</time>
      </trkpt>
      <trkpt lat="43.58296" lon="3.8872">
        <ele>17.3</ele>
        <time>2017-10-27T07:27:11.432Z</time>
      </trkpt>
      <trkpt lat="43.58298" lon="3.88725">
        <ele>16.9</ele>
        <time>2017-10-27T07:27:12.433Z</time>
      </trkpt>
      <trkpt lat="43.583" lon="3.8873">
        <ele>17.1</ele>
        <time>2017-10-27T07:27:13.446Z</time>
      </trkpt>
      <trkpt lat="43.58301" lon="3.88733">
        <ele>17.2</ele>
        <time>2017-10-27T07:27:14.447Z</time>
      </trkpt>
      <trkpt lat="43.58297" lon="3.88738">
        <ele>16.3</ele>
        <time>2017-10-27T07:27:29.453Z</time>
      </trkpt>
      <trkpt lat="43.58296" lon="3.88741">
        <ele>16.1</ele>
        <time>2017-10-27T07:27:30.446Z</time>
      </trkpt>
      <trkpt lat="43.58294" lon="3.88743">
        <ele>16.2</ele>
        <time>2017-10-27T07:27:31.431Z</time>
      </trkpt>
      <trkpt lat="43.58292" lon="3.88745">
        <ele>16.3</ele>
        <time>2017-10-27T07:27:32.445Z</time>
      </trkpt>
      <trkpt lat="43.5829" lon="3.88748">
        <ele>16.2</ele>
        <time>2017-10-27T07:27:33.444Z</time>
      </trkpt>
      <trkpt lat="43.58288" lon="3.8875">
        <ele>16.3</ele>
        <time>2017-10-27T07:27:34.455Z</time>
      </trkpt>
      <trkpt lat="43.58286" lon="3.88753">
        <ele>16.2</ele>
        <time>2017-10-27T07:27:35.445Z</time>
      </trkpt>
      <trkpt lat="43.58284" lon="3.88756">
        <ele>16.2</ele>
        <time>2017-10-27T07:27:36.455Z</time>
      </trkpt>
      <trkpt lat="43.58281" lon="3.88759">
        <ele>16.1</ele>
        <time>2017-10-27T07:27:37.438Z</time>
      </trkpt>
      <trkpt lat="43.58279" lon="3.88762">
        <ele>16.1</ele>
        <time>2017-10-27T07:27:38.445Z</time>
      </trkpt>
      <trkpt lat="43.58277" lon="3.88765">
        <ele>16</ele>
        <time>2017-10-27T07:27:39.445Z</time>
      </trkpt>
      <trkpt lat="43.58275" lon="3.88768">
        <ele>15.9</ele>
        <time>2017-10-27T07:27:40.445Z</time>
      </trkpt>
      <trkpt lat="43.58272" lon="3.88772">
        <ele>15.8</ele>
        <time>2017-10-27T07:27:41.434Z</time>
      </trkpt>
      <trkpt lat="43.5827" lon="3.88775">
        <ele>15.9</ele>
        <time>2017-10-27T07:27:42.434Z</time>
      </trkpt>
      <trkpt lat="43.58268" lon="3.88778">
        <ele>15.8</ele>
        <time>2017-10-27T07:27:43.433Z</time>
      </trkpt>
      <trkpt lat="43.58266" lon="3.8878">
        <ele>15.8</ele>
        <time>2017-10-27T07:27:44.433Z</time>
      </trkpt>
      <trkpt lat="43.58264" lon="3.88784">
        <ele>15.7</ele>
        <time>2017-10-27T07:27:45.448Z</time>
      </trkpt>
      <trkpt lat="43.58262" lon="3.88786">
        <ele>15.6</ele>
        <time>2017-10-27T07:27:46.445Z</time>
      </trkpt>
      <trkpt lat="43.58261" lon="3.88788">
        <ele>15.6</ele>
        <time>2017-10-27T07:27:47.445Z</time>
      </trkpt>
      <trkpt lat="43.58258" lon="3.88796">
        <ele>15.4</ele>
        <time>2017-10-27T07:27:56.449Z</time>
      </trkpt>
      <trkpt lat="43.58259" lon="3.88799">
        <ele>15.4</ele>
        <time>2017-10-27T07:27:57.431Z</time>
      </trkpt>
      <trkpt lat="43.58261" lon="3.88802">
        <ele>15.3</ele>
        <time>2017-10-27T07:27:58.437Z</time>
      </trkpt>
      <trkpt lat="43.58263" lon="3.88805">
        <ele>15.4</ele>
        <time>2017-10-27T07:27:59.444Z</time>
      </trkpt>
      <trkpt lat="43.58265" lon="3.88809">
        <ele>15.4</ele>
        <time>2017-10-27T07:28:00.452Z</time>
      </trkpt>
      <trkpt lat="43.58268" lon="3.88813">
        <ele>15.4</ele>
        <time>2017-10-27T07:28:01.448Z</time>
      </trkpt>
      <trkpt lat="43.5827" lon="3.88817">
        <ele>15.4</ele>
        <time>2017-10-27T07:28:02.443Z</time>
      </trkpt>
      <trkpt lat="43.58273" lon="3.88821">
        <ele>15.4</ele>
        <time>2017-10-27T07:28:03.445Z</time>
      </trkpt>
      <trkpt lat="43.58276" lon="3.88825">
        <ele>15.4</ele>
        <time>2017-10-27T07:28:04.443Z</time>
      </trkpt>
      <trkpt lat="43.58279" lon="3.8883">
        <ele>15.4</ele>
        <time>2017-10-27T07:28:05.444Z</time>
      </trkpt>
      <trkpt lat="43.58283" lon="3.88834">
        <ele>15.3</ele>
        <time>2017-10-27T07:28:06.448Z</time>
      </trkpt>
      <trkpt lat="43.58286" lon="3.88838">
        <ele>15.3</ele>
        <time>2017-10-27T07:28:07.440Z</time>
      </trkpt>
      <trkpt lat="43.5829" lon="3.88843">
        <ele>15.2</ele>
        <time>2017-10-27T07:28:08.446Z</time>
      </trkpt>
      <trkpt lat="43.58293" lon="3.88848">
        <ele>15.1</ele>
        <time>2017-10-27T07:28:09.447Z</time>
      </trkpt>
      <trkpt lat="43.58296" lon="3.88853">
        <ele>15</ele>
        <time>2017-10-27T07:28:10.439Z</time>
      </trkpt>
      <trkpt lat="43.583" lon="3.88858">
        <ele>14.9</ele>
        <time>2017-10-27T07:28:11.454Z</time>
      </trkpt>
      <trkpt lat="43.58303" lon="3.88864">
        <ele>14.8</ele>
        <time>2017-10-27T07:28:12.445Z</time>
      </trkpt>
      <trkpt lat="43.58305" lon="3.8887">
        <ele>14.8</ele>
        <time>2017-10-27T07:28:13.430Z</time>
      </trkpt>
      <trkpt lat="43.58307" lon="3.88877">
        <ele>14.8</ele>
        <time>2017-10-27T07:28:14.430Z</time>
      </trkpt>
      <trkpt lat="43.58307" lon="3.88884">
        <ele>14.7</ele>
        <time>2017-10-27T07:28:15.433Z</time>
      </trkpt>
      <trkpt lat="43.58308" lon="3.88892">
        <ele>14.6</ele>
        <time>2017-10-27T07:28:16.435Z</time>
      </trkpt>
      <trkpt lat="43.58307" lon="3.88899">
        <ele>14.8</ele>
        <time>2017-10-27T07:28:17.447Z</time>
      </trkpt>
      <trkpt lat="43.58306" lon="3.88906">
        <ele>14.7</ele>
        <time>2017-10-27T07:28:18.469Z</time>
      </trkpt>
      <trkpt lat="43.58305" lon="3.88914">
        <ele>14.7</ele>
        <time>2017-10-27T07:28:19.454Z</time>
      </trkpt>
      <trkpt lat="43.58303" lon="3.88921">
        <ele>14.6</ele>
        <time>2017-10-27T07:28:20.446Z</time>
      </trkpt>
      <trkpt lat="43.583" lon="3.88928">
        <ele>14.7</ele>
        <time>2017-10-27T07:28:21.445Z</time>
      </trkpt>
      <trkpt lat="43.58296" lon="3.88934">
        <ele>14.6</ele>
        <time>2017-10-27T07:28:22.445Z</time>
      </trkpt>
      <trkpt lat="43.58291" lon="3.8894">
        <ele>14.5</ele>
        <time>2017-10-27T07:28:23.445Z</time>
      </trkpt>
      <trkpt lat="43.58287" lon="3.88946">
        <ele>14.4</ele>
        <time>2017-10-27T07:28:24.449Z</time>
      </trkpt>
      <trkpt lat="43.58282" lon="3.88952">
        <ele>14.2</ele>
        <time>2017-10-27T07:28:25.451Z</time>
      </trkpt>
      <trkpt lat="43.58277" lon="3.88959">
        <ele>14</ele>
        <time>2017-10-27T07:28:26.444Z</time>
      </trkpt>
      <trkpt lat="43.58272" lon="3.88966">
        <ele>13.9</ele>
        <time>2017-10-27T07:28:27.444Z</time>
      </trkpt>
      <trkpt lat="43.58267" lon="3.88973">
        <ele>13.7</ele>
        <time>2017-10-27T07:28:28.442Z</time>
      </trkpt>
      <trkpt lat="43.58261" lon="3.8898">
        <ele>13.6</ele>
        <time>2017-10-27T07:28:29.444Z</time>
      </trkpt>
      <trkpt lat="43.58256" lon="3.88987">
        <ele>13.4</ele>
        <time>2017-10-27T07:28:30.452Z</time>
      </trkpt>
      <trkpt lat="43.5825" lon="3.88995">
        <ele>13.2</ele>
        <time>2017-10-27T07:28:31.445Z</time>
      </trkpt>
      <trkpt lat="43.58245" lon="3.89002">
        <ele>13</ele>
        <time>2017-10-27T07:28:32.446Z</time>
      </trkpt>
      <trkpt lat="43.58239" lon="3.8901">
        <ele>12.7</ele>
        <time>2017-10-27T07:28:33.444Z</time>
      </trkpt>
      <trkpt lat="43.58233" lon="3.89018">
        <ele>12.5</ele>
        <time>2017-10-27T07:28:34.442Z</time>
      </trkpt>
      <trkpt lat="43.58227" lon="3.89026">
        <ele>12.4</ele>
        <time>2017-10-27T07:28:35.443Z</time>
      </trkpt>
      <trkpt lat="43.58221" lon="3.89034">
        <ele>12.2</ele>
        <time>2017-10-27T07:28:36.439Z</time>
      </trkpt>
      <trkpt lat="43.58215" lon="3.89042">
        <ele>12</ele>
        <time>2017-10-27T07:28:37.431Z</time>
      </trkpt>
      <trkpt lat="43.58209" lon="3.8905">
        <ele>11.7</ele>
        <time>2017-10-27T07:28:38.430Z</time>
      </trkpt>
      <trkpt lat="43.58203" lon="3.89058">
        <ele>11.5</ele>
        <time>2017-10-27T07:28:39.431Z</time>
      </trkpt>
      <trkpt lat="43.58197" lon="3.89067">
        <ele>11.3</ele>
        <time>2017-10-27T07:28:40.444Z</time>
      </trkpt>
      <trkpt lat="43.58191" lon="3.89075">
        <ele>11.1</ele>
        <time>2017-10-27T07:28:41.444Z</time>
      </trkpt>
      <trkpt lat="43.58185" lon="3.89083">
        <ele>10.9</ele>
        <time>2017-10-27T07:28:42.442Z</time>
      </trkpt>
      <trkpt lat="43.58179" lon="3.89092">
        <ele>10.7</ele>
        <time>2017-10-27T07:28:43.430Z</time>
      </trkpt>
      <trkpt lat="43.58172" lon="3.891">
        <ele>10.5</ele>
        <time>2017-10-27T07:28:44.445Z</time>
      </trkpt>
      <trkpt lat="43.58166" lon="3.89109">
        <ele>10.3</ele>
        <time>2017-10-27T07:28:45.444Z</time>
      </trkpt>
      <trkpt lat="43.5816" lon="3.89117">
        <ele>10.2</ele>
        <time>2017-10-27T07:28:46.435Z</time>
      </trkpt>
      <trkpt lat="43.58154" lon="3.89125">
        <ele>10</ele>
        <time>2017-10-27T07:28:47.444Z</time>
      </trkpt>
      <trkpt lat="43.58148" lon="3.89133">
        <ele>9.9</ele>
        <time>2017-10-27T07:28:48.445Z</time>
      </trkpt>
      <trkpt lat="43.58141" lon="3.89141">
        <ele>9.6</ele>
        <time>2017-10-27T07:28:49.444Z</time>
      </trkpt>
      <trkpt lat="43.58135" lon="3.89149">
        <ele>9.3</ele>
        <time>2017-10-27T07:28:50.443Z</time>
      </trkpt>
      <trkpt lat="43.58129" lon="3.89157">
        <ele>9</ele>
        <time>2017-10-27T07:28:51.444Z</time>
      </trkpt>
      <trkpt lat="43.58123" lon="3.89166">
        <ele>8.7</ele>
        <time>2017-10-27T07:28:52.443Z</time>
      </trkpt>
      <trkpt lat="43.58116" lon="3.89174">
        <ele>8.3</ele>
        <time>2017-10-27T07:28:53.444Z</time>
      </trkpt>
      <trkpt lat="43.5811" lon="3.89183">
        <ele>8</ele>
        <time>2017-10-27T07:28:54.446Z</time>
      </trkpt>
      <trkpt lat="43.58104" lon="3.89192">
        <ele>7.7</ele>
        <time>2017-10-27T07:28:55.432Z</time>
      </trkpt>
      <trkpt lat="43.58097" lon="3.89201">
        <ele>7.8</ele>
        <time>2017-10-27T07:28:56.430Z</time>
      </trkpt>
      <trkpt lat="43.5809" lon="3.8921">
        <ele>7.6</ele>
        <time>2017-10-27T07:28:57.430Z</time>
      </trkpt>
      <trkpt lat="43.58083" lon="3.89223">
        <ele>7.1</ele>
        <time>2017-10-27T07:28:58.431Z</time>
      </trkpt>
      <trkpt lat="43.58075" lon="3.89235">
        <ele>3.5</ele>
        <time>2017-10-27T07:28:59.431Z</time>
      </trkpt>
      <trkpt lat="43.58069" lon="3.89245">
        <ele>3.5</ele>
        <time>2017-10-27T07:29:00.448Z</time>
      </trkpt>
      <trkpt lat="43.58063" lon="3.89255">
        <ele>4</ele>
        <time>2017-10-27T07:29:01.466Z</time>
      </trkpt>
      <trkpt lat="43.58057" lon="3.89265">
        <ele>3.9</ele>
        <time>2017-10-27T07:29:02.466Z</time>
      </trkpt>
      <trkpt lat="43.58049" lon="3.89275">
        <ele>3.6</ele>
        <time>2017-10-27T07:29:03.464Z</time>
      </trkpt>
      <trkpt lat="43.58044" lon="3.89284">
        <ele>5.4</ele>
        <time>2017-10-27T07:29:04.451Z</time>
      </trkpt>
      <trkpt lat="43.5804" lon="3.89295">
        <ele>6.1</ele>
        <time>2017-10-27T07:29:05.445Z</time>
      </trkpt>
      <trkpt lat="43.58036" lon="3.89306">
        <ele>6.2</ele>
        <time>2017-10-27T07:29:06.445Z</time>
      </trkpt>
      <trkpt lat="43.58033" lon="3.89317">
        <ele>6</ele>
        <time>2017-10-27T07:29:07.441Z</time>
      </trkpt>
      <trkpt lat="43.58031" lon="3.89329">
        <ele>5.8</ele>
        <time>2017-10-27T07:29:08.443Z</time>
      </trkpt>
      <trkpt lat="43.58029" lon="3.8934">
        <ele>5.6</ele>
        <time>2017-10-27T07:29:09.445Z</time>
      </trkpt>
      <trkpt lat="43.58028" lon="3.89351">
        <ele>5.4</ele>
        <time>2017-10-27T07:29:10.442Z</time>
      </trkpt>
      <trkpt lat="43.58027" lon="3.89362">
        <ele>5.4</ele>
        <time>2017-10-27T07:29:11.445Z</time>
      </trkpt>
      <trkpt lat="43.58027" lon="3.89373">
        <ele>5.2</ele>
        <time>2017-10-27T07:29:12.450Z</time>
      </trkpt>
      <trkpt lat="43.58028" lon="3.89383">
        <ele>5.1</ele>
        <time>2017-10-27T07:29:13.447Z</time>
      </trkpt>
      <trkpt lat="43.58029" lon="3.89394">
        <ele>4.9</ele>
        <time>2017-10-27T07:29:14.429Z</time>
      </trkpt>
      <trkpt lat="43.58031" lon="3.89404">
        <ele>4.7</ele>
        <time>2017-10-27T07:29:15.430Z</time>
      </trkpt>
      <trkpt lat="43.58033" lon="3.89415">
        <ele>4.7</ele>
        <time>2017-10-27T07:29:16.430Z</time>
      </trkpt>
      <trkpt lat="43.58036" lon="3.89425">
        <ele>4.8</ele>
        <time>2017-10-27T07:29:17.433Z</time>
      </trkpt>
      <trkpt lat="43.58039" lon="3.89435">
        <ele>5</ele>
        <time>2017-10-27T07:29:18.432Z</time>
      </trkpt>
      <trkpt lat="43.58043" lon="3.89445">
        <ele>4.8</ele>
        <time>2017-10-27T07:29:19.450Z</time>
      </trkpt>
      <trkpt lat="43.58048" lon="3.89454">
        <ele>4.7</ele>
        <time>2017-10-27T07:29:20.449Z</time>
      </trkpt>
      <trkpt lat="43.58052" lon="3.89463">
        <ele>4.5</ele>
        <time>2017-10-27T07:29:21.454Z</time>
      </trkpt>
      <trkpt lat="43.58057" lon="3.89471">
        <ele>4.3</ele>
        <time>2017-10-27T07:29:22.444Z</time>
      </trkpt>
      <trkpt lat="43.58061" lon="3.8948">
        <ele>4.3</ele>
        <time>2017-10-27T07:29:23.445Z</time>
      </trkpt>
      <trkpt lat="43.58066" lon="3.89488">
        <ele>4.3</ele>
        <time>2017-10-27T07:29:24.446Z</time>
      </trkpt>
      <trkpt lat="43.58071" lon="3.89496">
        <ele>4.3</ele>
        <time>2017-10-27T07:29:25.449Z</time>
      </trkpt>
      <trkpt lat="43.58076" lon="3.89505">
        <ele>4.2</ele>
        <time>2017-10-27T07:29:26.444Z</time>
      </trkpt>
      <trkpt lat="43.58081" lon="3.89513">
        <ele>4.2</ele>
        <time>2017-10-27T07:29:27.445Z</time>
      </trkpt>
      <trkpt lat="43.58085" lon="3.89521">
        <ele>4.1</ele>
        <time>2017-10-27T07:29:28.443Z</time>
      </trkpt>
      <trkpt lat="43.5809" lon="3.89529">
        <ele>4.2</ele>
        <time>2017-10-27T07:29:29.445Z</time>
      </trkpt>
      <trkpt lat="43.58094" lon="3.89538">
        <ele>4.4</ele>
        <time>2017-10-27T07:29:30.455Z</time>
      </trkpt>
      <trkpt lat="43.58098" lon="3.89546">
        <ele>4.5</ele>
        <time>2017-10-27T07:29:31.445Z</time>
      </trkpt>
      <trkpt lat="43.58102" lon="3.89555">
        <ele>4.5</ele>
        <time>2017-10-27T07:29:32.444Z</time>
      </trkpt>
      <trkpt lat="43.58105" lon="3.89565">
        <ele>4.6</ele>
        <time>2017-10-27T07:29:33.432Z</time>
      </trkpt>
      <trkpt lat="43.58108" lon="3.89574">
        <ele>4.6</ele>
        <time>2017-10-27T07:29:34.430Z</time>
      </trkpt>
      <trkpt lat="43.5811" lon="3.89584">
        <ele>4.5</ele>
        <time>2017-10-27T07:29:35.433Z</time>
      </trkpt>
      <trkpt lat="43.58113" lon="3.89593">
        <ele>4.5</ele>
        <time>2017-10-27T07:29:36.446Z</time>
      </trkpt>
      <trkpt lat="43.58116" lon="3.89603">
        <ele>4.5</ele>
        <time>2017-10-27T07:29:37.445Z</time>
      </trkpt>
      <trkpt lat="43.58118" lon="3.89613">
        <ele>4.4</ele>
        <time>2017-10-27T07:29:38.447Z</time>
      </trkpt>
      <trkpt lat="43.5812" lon="3.89622">
        <ele>4.4</ele>
        <time>2017-10-27T07:29:39.445Z</time>
      </trkpt>
      <trkpt lat="43.58123" lon="3.89632">
        <ele>4.3</ele>
        <time>2017-10-27T07:29:40.438Z</time>
      </trkpt>
      <trkpt lat="43.58125" lon="3.89642">
        <ele>4.3</ele>
        <time>2017-10-27T07:29:41.431Z</time>
      </trkpt>
      <trkpt lat="43.58128" lon="3.89652">
        <ele>4.4</ele>
        <time>2017-10-27T07:29:42.448Z</time>
      </trkpt>
      <trkpt lat="43.5813" lon="3.89661">
        <ele>4.4</ele>
        <time>2017-10-27T07:29:43.444Z</time>
      </trkpt>
      <trkpt lat="43.58131" lon="3.89671">
        <ele>4.5</ele>
        <time>2017-10-27T07:29:44.447Z</time>
      </trkpt>
      <trkpt lat="43.5813" lon="3.89679">
        <ele>4.8</ele>
        <time>2017-10-27T07:29:45.449Z</time>
      </trkpt>
      <trkpt lat="43.58127" lon="3.89687">
        <ele>5.2</ele>
        <time>2017-10-27T07:29:46.447Z</time>
      </trkpt>
      <trkpt lat="43.58123" lon="3.89693">
        <ele>5.4</ele>
        <time>2017-10-27T07:29:47.448Z</time>
      </trkpt>
      <trkpt lat="43.58118" lon="3.89698">
        <ele>5.6</ele>
        <time>2017-10-27T07:29:48.448Z</time>
      </trkpt>
      <trkpt lat="43.58112" lon="3.897">
        <ele>5.6</ele>
        <time>2017-10-27T07:29:49.451Z</time>
      </trkpt>
      <trkpt lat="43.58106" lon="3.89701">
        <ele>5.4</ele>
        <time>2017-10-27T07:29:50.446Z</time>
      </trkpt>
      <trkpt lat="43.58099" lon="3.89702">
        <ele>5.1</ele>
        <time>2017-10-27T07:29:51.447Z</time>
      </trkpt>
      <trkpt lat="43.58093" lon="3.89703">
        <ele>4.9</ele>
        <time>2017-10-27T07:29:52.447Z</time>
      </trkpt>
      <trkpt lat="43.58086" lon="3.89706">
        <ele>4.7</ele>
        <time>2017-10-27T07:29:53.447Z</time>
      </trkpt>
      <trkpt lat="43.5808" lon="3.89711">
        <ele>4.4</ele>
        <time>2017-10-27T07:29:54.435Z</time>
      </trkpt>
      <trkpt lat="43.58075" lon="3.89717">
        <ele>4.2</ele>
        <time>2017-10-27T07:29:55.435Z</time>
      </trkpt>
      <trkpt lat="43.58071" lon="3.89725">
        <ele>4</ele>
        <time>2017-10-27T07:29:56.432Z</time>
      </trkpt>
      <trkpt lat="43.58067" lon="3.89733">
        <ele>3.8</ele>
        <time>2017-10-27T07:29:57.448Z</time>
      </trkpt>
      <trkpt lat="43.58063" lon="3.89741">
        <ele>3.8</ele>
        <time>2017-10-27T07:29:58.438Z</time>
      </trkpt>
      <trkpt lat="43.5806" lon="3.8975">
        <ele>3.7</ele>
        <time>2017-10-27T07:29:59.433Z</time>
      </trkpt>
      <trkpt lat="43.58056" lon="3.89758">
        <ele>3.6</ele>
        <time>2017-10-27T07:30:00.450Z</time>
      </trkpt>
      <trkpt lat="43.58053" lon="3.89767">
        <ele>3.6</ele>
        <time>2017-10-27T07:30:01.448Z</time>
      </trkpt>
      <trkpt lat="43.58049" lon="3.89776">
        <ele>3.4</ele>
        <time>2017-10-27T07:30:02.447Z</time>
      </trkpt>
      <trkpt lat="43.58045" lon="3.89783">
        <ele>3.5</ele>
        <time>2017-10-27T07:30:03.448Z</time>
      </trkpt>
      <trkpt lat="43.58039" lon="3.89789">
        <ele>3.5</ele>
        <time>2017-10-27T07:30:04.445Z</time>
      </trkpt>
      <trkpt lat="43.58033" lon="3.89793">
        <ele>3.5</ele>
        <time>2017-10-27T07:30:05.448Z</time>
      </trkpt>
      <trkpt lat="43.58027" lon="3.89795">
        <ele>3.6</ele>
        <time>2017-10-27T07:30:06.447Z</time>
      </trkpt>
      <trkpt lat="43.5802" lon="3.89796">
        <ele>4</ele>
        <time>2017-10-27T07:30:07.446Z</time>
      </trkpt>
      <trkpt lat="43.58013" lon="3.89795">
        <ele>3.9</ele>
        <time>2017-10-27T07:30:08.446Z</time>
      </trkpt>
      <trkpt lat="43.58007" lon="3.89795">
        <ele>4</ele>
        <time>2017-10-27T07:30:09.434Z</time>
      </trkpt>
      <trkpt lat="43.58" lon="3.89794">
        <ele>4.1</ele>
        <time>2017-10-27T07:30:10.453Z</time>
      </trkpt>
      <trkpt lat="43.57994" lon="3.89793">
        <ele>4.1</ele>
        <time>2017-10-27T07:30:11.447Z</time>
      </trkpt>
      <trkpt lat="43.57987" lon="3.89792">
        <ele>4.1</ele>
        <time>2017-10-27T07:30:12.448Z</time>
      </trkpt>
      <trkpt lat="43.57981" lon="3.89791">
        <ele>4.2</ele>
        <time>2017-10-27T07:30:13.445Z</time>
      </trkpt>
      <trkpt lat="43.57974" lon="3.8979">
        <ele>4.3</ele>
        <time>2017-10-27T07:30:14.436Z</time>
      </trkpt>
      <trkpt lat="43.57968" lon="3.89789">
        <ele>4.3</ele>
        <time>2017-10-27T07:30:15.433Z</time>
      </trkpt>
      <trkpt lat="43.57962" lon="3.89788">
        <ele>4.4</ele>
        <time>2017-10-27T07:30:16.430Z</time>
      </trkpt>
      <trkpt lat="43.57956" lon="3.89788">
        <ele>4.5</ele>
        <time>2017-10-27T07:30:17.433Z</time>
      </trkpt>
      <trkpt lat="43.57949" lon="3.89787">
        <ele>4.6</ele>
        <time>2017-10-27T07:30:18.446Z</time>
      </trkpt>
      <trkpt lat="43.57943" lon="3.89785">
        <ele>4.8</ele>
        <time>2017-10-27T07:30:19.445Z</time>
      </trkpt>
      <trkpt lat="43.57937" lon="3.89784">
        <ele>4.9</ele>
        <time>2017-10-27T07:30:20.445Z</time>
      </trkpt>
      <trkpt lat="43.57931" lon="3.89783">
        <ele>4.9</ele>
        <time>2017-10-27T07:30:21.430Z</time>
      </trkpt>
      <trkpt lat="43.57925" lon="3.89782">
        <ele>4.9</ele>
        <time>2017-10-27T07:30:22.430Z</time>
      </trkpt>
      <trkpt lat="43.57919" lon="3.89781">
        <ele>4.9</ele>
        <time>2017-10-27T07:30:23.441Z</time>
      </trkpt>
      <trkpt lat="43.57913" lon="3.89779">
        <ele>4.9</ele>
        <time>2017-10-27T07:30:24.432Z</time>
      </trkpt>
      <trkpt lat="43.57907" lon="3.89778">
        <ele>5</ele>
        <time>2017-10-27T07:30:25.449Z</time>
      </trkpt>
      <trkpt lat="43.57901" lon="3.89777">
        <ele>5</ele>
        <time>2017-10-27T07:30:26.438Z</time>
      </trkpt>
      <trkpt lat="43.57895" lon="3.89775">
        <ele>5</ele>
        <time>2017-10-27T07:30:27.462Z</time>
      </trkpt>
      <trkpt lat="43.57889" lon="3.89774">
        <ele>5</ele>
        <time>2017-10-27T07:30:28.462Z</time>
      </trkpt>
      <trkpt lat="43.57884" lon="3.89773">
        <ele>5</ele>
        <time>2017-10-27T07:30:29.462Z</time>
      </trkpt>
      <trkpt lat="43.57878" lon="3.89771">
        <ele>5</ele>
        <time>2017-10-27T07:30:30.457Z</time>
      </trkpt>
      <trkpt lat="43.57873" lon="3.8977">
        <ele>5.1</ele>
        <time>2017-10-27T07:30:31.446Z</time>
      </trkpt>
      <trkpt lat="43.57867" lon="3.89769">
        <ele>5.1</ele>
        <time>2017-10-27T07:30:32.446Z</time>
      </trkpt>
      <trkpt lat="43.57861" lon="3.89767">
        <ele>5.2</ele>
        <time>2017-10-27T07:30:33.446Z</time>
      </trkpt>
      <trkpt lat="43.57856" lon="3.89765">
        <ele>5.2</ele>
        <time>2017-10-27T07:30:34.465Z</time>
      </trkpt>
      <trkpt lat="43.5785" lon="3.89764">
        <ele>5.2</ele>
        <time>2017-10-27T07:30:35.448Z</time>
      </trkpt>
      <trkpt lat="43.57844" lon="3.89762">
        <ele>5.2</ele>
        <time>2017-10-27T07:30:36.446Z</time>
      </trkpt>
      <trkpt lat="43.57839" lon="3.89761">
        <ele>5.2</ele>
        <time>2017-10-27T07:30:37.448Z</time>
      </trkpt>
      <trkpt lat="43.57833" lon="3.89759">
        <ele>5.1</ele>
        <time>2017-10-27T07:30:38.444Z</time>
      </trkpt>
      <trkpt lat="43.57827" lon="3.89758">
        <ele>5.2</ele>
        <time>2017-10-27T07:30:39.451Z</time>
      </trkpt>
      <trkpt lat="43.57822" lon="3.89756">
        <ele>5.2</ele>
        <time>2017-10-27T07:30:40.430Z</time>
      </trkpt>
      <trkpt lat="43.57816" lon="3.89754">
        <ele>5.2</ele>
        <time>2017-10-27T07:30:41.430Z</time>
      </trkpt>
      <trkpt lat="43.5781" lon="3.89753">
        <ele>5.1</ele>
        <time>2017-10-27T07:30:42.431Z</time>
      </trkpt>
      <trkpt lat="43.57804" lon="3.89751">
        <ele>5.1</ele>
        <time>2017-10-27T07:30:43.453Z</time>
      </trkpt>
      <trkpt lat="43.57799" lon="3.8975">
        <ele>5</ele>
        <time>2017-10-27T07:30:44.446Z</time>
      </trkpt>
      <trkpt lat="43.57793" lon="3.89749">
        <ele>4.9</ele>
        <time>2017-10-27T07:30:45.444Z</time>
      </trkpt>
      <trkpt lat="43.57788" lon="3.89747">
        <ele>4.9</ele>
        <time>2017-10-27T07:30:46.448Z</time>
      </trkpt>
      <trkpt lat="43.57782" lon="3.89745">
        <ele>4.9</ele>
        <time>2017-10-27T07:30:47.445Z</time>
      </trkpt>
      <trkpt lat="43.57777" lon="3.89744">
        <ele>5.1</ele>
        <time>2017-10-27T07:30:48.447Z</time>
      </trkpt>
      <trkpt lat="43.57771" lon="3.89742">
        <ele>5</ele>
        <time>2017-10-27T07:30:49.444Z</time>
      </trkpt>
      <trkpt lat="43.57766" lon="3.89741">
        <ele>5.1</ele>
        <time>2017-10-27T07:30:50.444Z</time>
      </trkpt>
      <trkpt lat="43.57761" lon="3.8974">
        <ele>5.2</ele>
        <time>2017-10-27T07:30:51.444Z</time>
      </trkpt>
      <trkpt lat="43.57756" lon="3.89738">
        <ele>5.6</ele>
        <time>2017-10-27T07:30:52.447Z</time>
      </trkpt>
      <trkpt lat="43.57751" lon="3.89737">
        <ele>5.9</ele>
        <time>2017-10-27T07:30:53.454Z</time>
      </trkpt>
      <trkpt lat="43.57745" lon="3.89735">
        <ele>5.9</ele>
        <time>2017-10-27T07:30:54.447Z</time>
      </trkpt>
      <trkpt lat="43.5774" lon="3.89734">
        <ele>6.1</ele>
        <time>2017-10-27T07:30:55.451Z</time>
      </trkpt>
      <trkpt lat="43.57735" lon="3.89733">
        <ele>6.3</ele>
        <time>2017-10-27T07:30:56.446Z</time>
      </trkpt>
      <trkpt lat="43.5773" lon="3.89732">
        <ele>6.2</ele>
        <time>2017-10-27T07:30:57.430Z</time>
      </trkpt>
      <trkpt lat="43.57725" lon="3.8973">
        <ele>6</ele>
        <time>2017-10-27T07:30:58.450Z</time>
      </trkpt>
      <trkpt lat="43.5772" lon="3.89729">
        <ele>6</ele>
        <time>2017-10-27T07:30:59.444Z</time>
      </trkpt>
      <trkpt lat="43.57715" lon="3.89728">
        <ele>6.1</ele>
        <time>2017-10-27T07:31:00.445Z</time>
      </trkpt>
      <trkpt lat="43.5771" lon="3.89726">
        <ele>5.9</ele>
        <time>2017-10-27T07:31:01.431Z</time>
      </trkpt>
      <trkpt lat="43.57705" lon="3.89725">
        <ele>6.7</ele>
        <time>2017-10-27T07:31:02.429Z</time>
      </trkpt>
      <trkpt lat="43.57701" lon="3.89724">
        <ele>6.8</ele>
        <time>2017-10-27T07:31:03.430Z</time>
      </trkpt>
      <trkpt lat="43.57696" lon="3.89723">
        <ele>7.1</ele>
        <time>2017-10-27T07:31:04.448Z</time>
      </trkpt>
      <trkpt lat="43.57691" lon="3.89721">
        <ele>7.3</ele>
        <time>2017-10-27T07:31:05.444Z</time>
      </trkpt>
      <trkpt lat="43.57687" lon="3.8972">
        <ele>7.7</ele>
        <time>2017-10-27T07:31:06.450Z</time>
      </trkpt>
      <trkpt lat="43.57682" lon="3.89719">
        <ele>7.8</ele>
        <time>2017-10-27T07:31:07.445Z</time>
      </trkpt>
      <trkpt lat="43.57677" lon="3.89717">
        <ele>7.8</ele>
        <time>2017-10-27T07:31:08.445Z</time>
      </trkpt>
      <trkpt lat="43.57672" lon="3.89716">
        <ele>7.6</ele>
        <time>2017-10-27T07:31:09.440Z</time>
      </trkpt>
      <trkpt lat="43.57668" lon="3.89715">
        <ele>7.8</ele>
        <time>2017-10-27T07:31:10.445Z</time>
      </trkpt>
      <trkpt lat="43.57663" lon="3.89714">
        <ele>7.8</ele>
        <time>2017-10-27T07:31:11.430Z</time>
      </trkpt>
      <trkpt lat="43.57658" lon="3.89712">
        <ele>7.7</ele>
        <time>2017-10-27T07:31:12.445Z</time>
      </trkpt>
      <trkpt lat="43.57653" lon="3.89711">
        <ele>7.8</ele>
        <time>2017-10-27T07:31:13.444Z</time>
      </trkpt>
      <trkpt lat="43.57648" lon="3.8971">
        <ele>7.8</ele>
        <time>2017-10-27T07:31:14.440Z</time>
      </trkpt>
      <trkpt lat="43.57643" lon="3.89709">
        <ele>7.7</ele>
        <time>2017-10-27T07:31:15.444Z</time>
      </trkpt>
      <trkpt lat="43.57638" lon="3.89707">
        <ele>7.6</ele>
        <time>2017-10-27T07:31:16.443Z</time>
      </trkpt>
      <trkpt lat="43.57634" lon="3.89706">
        <ele>7.5</ele>
        <time>2017-10-27T07:31:17.447Z</time>
      </trkpt>
      <trkpt lat="43.57629" lon="3.89705">
        <ele>7.3</ele>
        <time>2017-10-27T07:31:18.447Z</time>
      </trkpt>
      <trkpt lat="43.57624" lon="3.89703">
        <ele>7.3</ele>
        <time>2017-10-27T07:31:19.445Z</time>
      </trkpt>
      <trkpt lat="43.5762" lon="3.89702">
        <ele>7.3</ele>
        <time>2017-10-27T07:31:20.445Z</time>
      </trkpt>
      <trkpt lat="43.57615" lon="3.89701">
        <ele>7.3</ele>
        <time>2017-10-27T07:31:21.431Z</time>
      </trkpt>
      <trkpt lat="43.57611" lon="3.897">
        <ele>7.2</ele>
        <time>2017-10-27T07:31:22.430Z</time>
      </trkpt>
      <trkpt lat="43.57606" lon="3.89698">
        <ele>7.2</ele>
        <time>2017-10-27T07:31:23.446Z</time>
      </trkpt>
      <trkpt lat="43.57602" lon="3.89697">
        <ele>7.2</ele>
        <time>2017-10-27T07:31:24.456Z</time>
      </trkpt>
      <trkpt lat="43.57598" lon="3.89695">
        <ele>7.1</ele>
        <time>2017-10-27T07:31:25.450Z</time>
      </trkpt>
      <trkpt lat="43.57594" lon="3.89693">
        <ele>7</ele>
        <time>2017-10-27T07:31:26.444Z</time>
      </trkpt>
      <trkpt lat="43.5759" lon="3.89691">
        <ele>7</ele>
        <time>2017-10-27T07:31:27.434Z</time>
      </trkpt>
      <trkpt lat="43.57586" lon="3.89689">
        <ele>6.9</ele>
        <time>2017-10-27T07:31:28.444Z</time>
      </trkpt>
      <trkpt lat="43.57582" lon="3.89687">
        <ele>6.9</ele>
        <time>2017-10-27T07:31:29.450Z</time>
      </trkpt>
      <trkpt lat="43.57578" lon="3.89685">
        <ele>6.9</ele>
        <time>2017-10-27T07:31:30.446Z</time>
      </trkpt>
      <trkpt lat="43.57573" lon="3.89683">
        <ele>6.8</ele>
        <time>2017-10-27T07:31:31.443Z</time>
      </trkpt>
      <trkpt lat="43.57569" lon="3.8968">
        <ele>6.7</ele>
        <time>2017-10-27T07:31:32.451Z</time>
      </trkpt>
      <trkpt lat="43.57565" lon="3.89678">
        <ele>6.7</ele>
        <time>2017-10-27T07:31:33.444Z</time>
      </trkpt>
      <trkpt lat="43.57561" lon="3.89676">
        <ele>6.6</ele>
        <time>2017-10-27T07:31:34.442Z</time>
      </trkpt>
      <trkpt lat="43.57557" lon="3.89674">
        <ele>6.6</ele>
        <time>2017-10-27T07:31:35.443Z</time>
      </trkpt>
      <trkpt lat="43.57553" lon="3.89671">
        <ele>6.5</ele>
        <time>2017-10-27T07:31:36.452Z</time>
      </trkpt>
      <trkpt lat="43.57549" lon="3.89669">
        <ele>6.5</ele>
        <time>2017-10-27T07:31:37.440Z</time>
      </trkpt>
      <trkpt lat="43.57545" lon="3.89666">
        <ele>6.4</ele>
        <time>2017-10-27T07:31:38.444Z</time>
      </trkpt>
      <trkpt lat="43.57541" lon="3.89664">
        <ele>6.4</ele>
        <time>2017-10-27T07:31:39.444Z</time>
      </trkpt>
      <trkpt lat="43.57538" lon="3.89661">
        <ele>6.5</ele>
        <time>2017-10-27T07:31:40.429Z</time>
      </trkpt>
      <trkpt lat="43.57534" lon="3.89658">
        <ele>6.5</ele>
        <time>2017-10-27T07:31:41.430Z</time>
      </trkpt>
      <trkpt lat="43.5753" lon="3.89656">
        <ele>6.6</ele>
        <time>2017-10-27T07:31:42.436Z</time>
      </trkpt>
      <trkpt lat="43.57527" lon="3.89653">
        <ele>6.5</ele>
        <time>2017-10-27T07:31:43.431Z</time>
      </trkpt>
      <trkpt lat="43.57523" lon="3.89651">
        <ele>6.5</ele>
        <time>2017-10-27T07:31:44.444Z</time>
      </trkpt>
      <trkpt lat="43.57519" lon="3.89648">
        <ele>6.5</ele>
        <time>2017-10-27T07:31:45.445Z</time>
      </trkpt>
      <trkpt lat="43.57516" lon="3.89645">
        <ele>6.5</ele>
        <time>2017-10-27T07:31:46.450Z</time>
      </trkpt>
      <trkpt lat="43.57512" lon="3.89643">
        <ele>6.4</ele>
        <time>2017-10-27T07:31:47.444Z</time>
      </trkpt>
      <trkpt lat="43.57509" lon="3.8964">
        <ele>6.3</ele>
        <time>2017-10-27T07:31:48.445Z</time>
      </trkpt>
      <trkpt lat="43.57505" lon="3.89637">
        <ele>6.4</ele>
        <time>2017-10-27T07:31:49.443Z</time>
      </trkpt>
      <trkpt lat="43.57502" lon="3.89634">
        <ele>6.4</ele>
        <time>2017-10-27T07:31:50.443Z</time>
      </trkpt>
      <trkpt lat="43.57498" lon="3.89631">
        <ele>6.4</ele>
        <time>2017-10-27T07:31:51.444Z</time>
      </trkpt>
      <trkpt lat="43.57495" lon="3.89628">
        <ele>6.4</ele>
        <time>2017-10-27T07:31:52.442Z</time>
      </trkpt>
      <trkpt lat="43.57491" lon="3.89625">
        <ele>6.4</ele>
        <time>2017-10-27T07:31:53.447Z</time>
      </trkpt>
      <trkpt lat="43.57488" lon="3.89621">
        <ele>6.4</ele>
        <time>2017-10-27T07:31:54.445Z</time>
      </trkpt>
      <trkpt lat="43.57484" lon="3.89618">
        <ele>6.4</ele>
        <time>2017-10-27T07:31:55.438Z</time>
      </trkpt>
      <trkpt lat="43.5748" lon="3.89614">
        <ele>6.4</ele>
        <time>2017-10-27T07:31:56.445Z</time>
      </trkpt>
      <trkpt lat="43.57477" lon="3.8961">
        <ele>6.4</ele>
        <time>2017-10-27T07:31:57.436Z</time>
      </trkpt>
      <trkpt lat="43.57473" lon="3.89607">
        <ele>6.4</ele>
        <time>2017-10-27T07:31:58.429Z</time>
      </trkpt>
      <trkpt lat="43.5747" lon="3.89603">
        <ele>6.4</ele>
        <time>2017-10-27T07:31:59.430Z</time>
      </trkpt>
      <trkpt lat="43.57466" lon="3.89599">
        <ele>6.4</ele>
        <time>2017-10-27T07:32:00.433Z</time>
      </trkpt>
      <trkpt lat="43.57463" lon="3.89595">
        <ele>6.4</ele>
        <time>2017-10-27T07:32:01.446Z</time>
      </trkpt>
      <trkpt lat="43.57459" lon="3.89592">
        <ele>6.4</ele>
        <time>2017-10-27T07:32:02.461Z</time>
      </trkpt>
      <trkpt lat="43.57456" lon="3.89588">
        <ele>6.3</ele>
        <time>2017-10-27T07:32:03.468Z</time>
      </trkpt>
      <trkpt lat="43.57452" lon="3.89584">
        <ele>6.3</ele>
        <time>2017-10-27T07:32:04.443Z</time>
      </trkpt>
      <trkpt lat="43.57449" lon="3.89579">
        <ele>6.3</ele>
        <time>2017-10-27T07:32:05.450Z</time>
      </trkpt>
      <trkpt lat="43.57445" lon="3.89575">
        <ele>6.3</ele>
        <time>2017-10-27T07:32:06.445Z</time>
      </trkpt>
      <trkpt lat="43.57442" lon="3.89571">
        <ele>6.3</ele>
        <time>2017-10-27T07:32:07.443Z</time>
      </trkpt>
      <trkpt lat="43.57438" lon="3.89567">
        <ele>6.3</ele>
        <time>2017-10-27T07:32:08.445Z</time>
      </trkpt>
      <trkpt lat="43.57435" lon="3.89563">
        <ele>6.4</ele>
        <time>2017-10-27T07:32:09.444Z</time>
      </trkpt>
      <trkpt lat="43.57431" lon="3.89559">
        <ele>6.4</ele>
        <time>2017-10-27T07:32:10.443Z</time>
      </trkpt>
      <trkpt lat="43.57428" lon="3.89555">
        <ele>6.4</ele>
        <time>2017-10-27T07:32:11.443Z</time>
      </trkpt>
      <trkpt lat="43.57424" lon="3.89551">
        <ele>6.5</ele>
        <time>2017-10-27T07:32:12.445Z</time>
      </trkpt>
      <trkpt lat="43.57421" lon="3.89547">
        <ele>6.5</ele>
        <time>2017-10-27T07:32:13.445Z</time>
      </trkpt>
      <trkpt lat="43.57418" lon="3.89544">
        <ele>6.5</ele>
        <time>2017-10-27T07:32:14.432Z</time>
      </trkpt>
      <trkpt lat="43.57415" lon="3.8954">
        <ele>6.5</ele>
        <time>2017-10-27T07:32:15.431Z</time>
      </trkpt>
      <trkpt lat="43.57412" lon="3.89536">
        <ele>6.5</ele>
        <time>2017-10-27T07:32:16.440Z</time>
      </trkpt>
      <trkpt lat="43.57408" lon="3.89532">
        <ele>6.6</ele>
        <time>2017-10-27T07:32:17.446Z</time>
      </trkpt>
      <trkpt lat="43.57405" lon="3.89528">
        <ele>6.6</ele>
        <time>2017-10-27T07:32:18.447Z</time>
      </trkpt>
      <trkpt lat="43.57402" lon="3.89525">
        <ele>6.5</ele>
        <time>2017-10-27T07:32:19.445Z</time>
      </trkpt>
      <trkpt lat="43.57398" lon="3.89521">
        <ele>6.5</ele>
        <time>2017-10-27T07:32:20.448Z</time>
      </trkpt>
      <trkpt lat="43.57395" lon="3.89517">
        <ele>6.4</ele>
        <time>2017-10-27T07:32:21.447Z</time>
      </trkpt>
      <trkpt lat="43.57392" lon="3.89513">
        <ele>6.5</ele>
        <time>2017-10-27T07:32:22.443Z</time>
      </trkpt>
      <trkpt lat="43.57389" lon="3.89509">
        <ele>6.5</ele>
        <time>2017-10-27T07:32:23.444Z</time>
      </trkpt>
      <trkpt lat="43.57385" lon="3.89505">
        <ele>6.6</ele>
        <time>2017-10-27T07:32:24.445Z</time>
      </trkpt>
      <trkpt lat="43.57382" lon="3.89501">
        <ele>6.6</ele>
        <time>2017-10-27T07:32:25.449Z</time>
      </trkpt>
      <trkpt lat="43.57378" lon="3.89497">
        <ele>6.7</ele>
        <time>2017-10-27T07:32:26.443Z</time>
      </trkpt>
      <trkpt lat="43.57375" lon="3.89493">
        <ele>6.7</ele>
        <time>2017-10-27T07:32:27.446Z</time>
      </trkpt>
      <trkpt lat="43.57371" lon="3.8949">
        <ele>6.7</ele>
        <time>2017-10-27T07:32:28.443Z</time>
      </trkpt>
      <trkpt lat="43.57368" lon="3.89486">
        <ele>6.8</ele>
        <time>2017-10-27T07:32:29.445Z</time>
      </trkpt>
      <trkpt lat="43.57364" lon="3.89482">
        <ele>6.8</ele>
        <time>2017-10-27T07:32:30.445Z</time>
      </trkpt>
      <trkpt lat="43.57361" lon="3.89478">
        <ele>6.9</ele>
        <time>2017-10-27T07:32:31.449Z</time>
      </trkpt>
      <trkpt lat="43.57358" lon="3.89475">
        <ele>6.8</ele>
        <time>2017-10-27T07:32:32.430Z</time>
      </trkpt>
      <trkpt lat="43.57355" lon="3.89471">
        <ele>6.9</ele>
        <time>2017-10-27T07:32:33.435Z</time>
      </trkpt>
      <trkpt lat="43.57352" lon="3.89467">
        <ele>6.9</ele>
        <time>2017-10-27T07:32:34.430Z</time>
      </trkpt>
      <trkpt lat="43.57349" lon="3.89464">
        <ele>6.9</ele>
        <time>2017-10-27T07:32:35.440Z</time>
      </trkpt>
      <trkpt lat="43.57346" lon="3.8946">
        <ele>7</ele>
        <time>2017-10-27T07:32:36.448Z</time>
      </trkpt>
      <trkpt lat="43.57343" lon="3.89457">
        <ele>7</ele>
        <time>2017-10-27T07:32:37.448Z</time>
      </trkpt>
      <trkpt lat="43.57339" lon="3.89454">
        <ele>7</ele>
        <time>2017-10-27T07:32:38.454Z</time>
      </trkpt>
      <trkpt lat="43.57336" lon="3.89451">
        <ele>7</ele>
        <time>2017-10-27T07:32:39.451Z</time>
      </trkpt>
      <trkpt lat="43.57332" lon="3.89449">
        <ele>7</ele>
        <time>2017-10-27T07:32:40.443Z</time>
      </trkpt>
      <trkpt lat="43.57328" lon="3.89446">
        <ele>6.9</ele>
        <time>2017-10-27T07:32:41.443Z</time>
      </trkpt>
      <trkpt lat="43.57325" lon="3.89444">
        <ele>6.9</ele>
        <time>2017-10-27T07:32:42.444Z</time>
      </trkpt>
      <trkpt lat="43.57321" lon="3.89442">
        <ele>6.9</ele>
        <time>2017-10-27T07:32:43.443Z</time>
      </trkpt>
      <trkpt lat="43.57317" lon="3.8944">
        <ele>6.9</ele>
        <time>2017-10-27T07:32:44.443Z</time>
      </trkpt>
      <trkpt lat="43.57313" lon="3.89438">
        <ele>6.9</ele>
        <time>2017-10-27T07:32:45.443Z</time>
      </trkpt>
      <trkpt lat="43.57309" lon="3.89436">
        <ele>7</ele>
        <time>2017-10-27T07:32:46.444Z</time>
      </trkpt>
      <trkpt lat="43.57306" lon="3.89433">
        <ele>6.9</ele>
        <time>2017-10-27T07:32:47.443Z</time>
      </trkpt>
      <trkpt lat="43.57302" lon="3.89431">
        <ele>6.9</ele>
        <time>2017-10-27T07:32:48.446Z</time>
      </trkpt>
      <trkpt lat="43.57298" lon="3.89429">
        <ele>6.9</ele>
        <time>2017-10-27T07:32:49.430Z</time>
      </trkpt>
      <trkpt lat="43.57294" lon="3.89427">
        <ele>6.9</ele>
        <time>2017-10-27T07:32:50.429Z</time>
      </trkpt>
      <trkpt lat="43.5729" lon="3.89424">
        <ele>6.9</ele>
        <time>2017-10-27T07:32:51.433Z</time>
      </trkpt>
      <trkpt lat="43.57287" lon="3.89421">
        <ele>6.9</ele>
        <time>2017-10-27T07:32:52.445Z</time>
      </trkpt>
      <trkpt lat="43.57284" lon="3.89417">
        <ele>7</ele>
        <time>2017-10-27T07:32:53.447Z</time>
      </trkpt>
      <trkpt lat="43.57283" lon="3.89411">
        <ele>7</ele>
        <time>2017-10-27T07:32:54.456Z</time>
      </trkpt>
      <trkpt lat="43.57282" lon="3.89406">
        <ele>6.7</ele>
        <time>2017-10-27T07:32:55.444Z</time>
      </trkpt>
      <trkpt lat="43.57282" lon="3.894">
        <ele>6.6</ele>
        <time>2017-10-27T07:32:56.432Z</time>
      </trkpt>
      <trkpt lat="43.57282" lon="3.89395">
        <ele>6.4</ele>
        <time>2017-10-27T07:32:57.433Z</time>
      </trkpt>
      <trkpt lat="43.57283" lon="3.89389">
        <ele>6.3</ele>
        <time>2017-10-27T07:32:58.443Z</time>
      </trkpt>
      <trkpt lat="43.57285" lon="3.89384">
        <ele>6.1</ele>
        <time>2017-10-27T07:32:59.438Z</time>
      </trkpt>
      <trkpt lat="43.57286" lon="3.89378">
        <ele>6</ele>
        <time>2017-10-27T07:33:00.438Z</time>
      </trkpt>
      <trkpt lat="43.57287" lon="3.89373">
        <ele>6</ele>
        <time>2017-10-27T07:33:01.444Z</time>
      </trkpt>
      <trkpt lat="43.57288" lon="3.89367">
        <ele>5.9</ele>
        <time>2017-10-27T07:33:02.462Z</time>
      </trkpt>
      <trkpt lat="43.57289" lon="3.89361">
        <ele>5.8</ele>
        <time>2017-10-27T07:33:03.450Z</time>
      </trkpt>
      <trkpt lat="43.5729" lon="3.89356">
        <ele>5.8</ele>
        <time>2017-10-27T07:33:04.444Z</time>
      </trkpt>
      <trkpt lat="43.57291" lon="3.8935">
        <ele>5.8</ele>
        <time>2017-10-27T07:33:05.447Z</time>
      </trkpt>
      <trkpt lat="43.57292" lon="3.89345">
        <ele>5.8</ele>
        <time>2017-10-27T07:33:06.445Z</time>
      </trkpt>
      <trkpt lat="43.57292" lon="3.89339">
        <ele>5.8</ele>
        <time>2017-10-27T07:33:07.446Z</time>
      </trkpt>
      <trkpt lat="43.57293" lon="3.89334">
        <ele>5.8</ele>
        <time>2017-10-27T07:33:08.445Z</time>
      </trkpt>
      <trkpt lat="43.57293" lon="3.89329">
        <ele>5.7</ele>
        <time>2017-10-27T07:33:09.445Z</time>
      </trkpt>
      <trkpt lat="43.57293" lon="3.89324">
        <ele>5.7</ele>
        <time>2017-10-27T07:33:10.430Z</time>
      </trkpt>
      <trkpt lat="43.57293" lon="3.8932">
        <ele>5.6</ele>
        <time>2017-10-27T07:33:11.431Z</time>
      </trkpt>
      <trkpt lat="43.57292" lon="3.89316">
        <ele>5.6</ele>
        <time>2017-10-27T07:33:12.434Z</time>
      </trkpt>
      <trkpt lat="43.57292" lon="3.89312">
        <ele>5.7</ele>
        <time>2017-10-27T07:33:13.431Z</time>
      </trkpt>
      <trkpt lat="43.57292" lon="3.89309">
        <ele>5.7</ele>
        <time>2017-10-27T07:33:14.452Z</time>
      </trkpt>
      <trkpt lat="43.57292" lon="3.89305">
        <ele>5.8</ele>
        <time>2017-10-27T07:33:15.449Z</time>
      </trkpt>
      <trkpt lat="43.57292" lon="3.89301">
        <ele>5.8</ele>
        <time>2017-10-27T07:33:16.453Z</time>
      </trkpt>
      <trkpt lat="43.57293" lon="3.89298">
        <ele>5.8</ele>
        <time>2017-10-27T07:33:17.444Z</time>
      </trkpt>
      <trkpt lat="43.57293" lon="3.89294">
        <ele>5.7</ele>
        <time>2017-10-27T07:33:18.446Z</time>
      </trkpt>
      <trkpt lat="43.57293" lon="3.89291">
        <ele>5.7</ele>
        <time>2017-10-27T07:33:19.446Z</time>
      </trkpt>
      <trkpt lat="43.57293" lon="3.89287">
        <ele>5.3</ele>
        <time>2017-10-27T07:33:20.443Z</time>
      </trkpt>
      <trkpt lat="43.57293" lon="3.89282">
        <ele>5.2</ele>
        <time>2017-10-27T07:33:21.451Z</time>
      </trkpt>
      <trkpt lat="43.57292" lon="3.89278">
        <ele>5.1</ele>
        <time>2017-10-27T07:33:22.445Z</time>
      </trkpt>
      <trkpt lat="43.5729" lon="3.89274">
        <ele>5.1</ele>
        <time>2017-10-27T07:33:23.444Z</time>
      </trkpt>
      <trkpt lat="43.57289" lon="3.8927">
        <ele>5.1</ele>
        <time>2017-10-27T07:33:24.444Z</time>
      </trkpt>
      <trkpt lat="43.57287" lon="3.89265">
        <ele>5.1</ele>
        <time>2017-10-27T07:33:25.445Z</time>
      </trkpt>
      <trkpt lat="43.57285" lon="3.89261">
        <ele>5.2</ele>
        <time>2017-10-27T07:33:26.445Z</time>
      </trkpt>
      <trkpt lat="43.57283" lon="3.89257">
        <ele>5.2</ele>
        <time>2017-10-27T07:33:27.445Z</time>
      </trkpt>
      <trkpt lat="43.57281" lon="3.89253">
        <ele>5.2</ele>
        <time>2017-10-27T07:33:28.446Z</time>
      </trkpt>
      <trkpt lat="43.57279" lon="3.8925">
        <ele>5.2</ele>
        <time>2017-10-27T07:33:29.446Z</time>
      </trkpt>
      <trkpt lat="43.57277" lon="3.89246">
        <ele>5.3</ele>
        <time>2017-10-27T07:33:30.451Z</time>
      </trkpt>
      <trkpt lat="43.57275" lon="3.89243">
        <ele>5.4</ele>
        <time>2017-10-27T07:33:31.449Z</time>
      </trkpt>
      <trkpt lat="43.57273" lon="3.8924">
        <ele>5.5</ele>
        <time>2017-10-27T07:33:32.444Z</time>
      </trkpt>
      <trkpt lat="43.57271" lon="3.89239">
        <ele>5.5</ele>
        <time>2017-10-27T07:33:33.445Z</time>
      </trkpt>
      <trkpt lat="43.57268" lon="3.89238">
        <ele>5.6</ele>
        <time>2017-10-27T07:33:34.443Z</time>
      </trkpt>
      <trkpt lat="43.57266" lon="3.89239">
        <ele>5.6</ele>
        <time>2017-10-27T07:33:35.444Z</time>
      </trkpt>
      <trkpt lat="43.57263" lon="3.8924">
        <ele>5.7</ele>
        <time>2017-10-27T07:33:36.434Z</time>
      </trkpt>
      <trkpt lat="43.57261" lon="3.89241">
        <ele>5.7</ele>
        <time>2017-10-27T07:33:37.431Z</time>
      </trkpt>
      <trkpt lat="43.57258" lon="3.89242">
        <ele>5.6</ele>
        <time>2017-10-27T07:33:38.430Z</time>
      </trkpt>
      <trkpt lat="43.57254" lon="3.89241">
        <ele>5.4</ele>
        <time>2017-10-27T07:33:39.431Z</time>
      </trkpt>
      <trkpt lat="43.57251" lon="3.8924">
        <ele>5.4</ele>
        <time>2017-10-27T07:33:40.444Z</time>
      </trkpt>
      <trkpt lat="43.57249" lon="3.89241">
        <ele>5.5</ele>
        <time>2017-10-27T07:33:41.445Z</time>
      </trkpt>
      <trkpt lat="43.57246" lon="3.89244">
        <ele>5.7</ele>
        <time>2017-10-27T07:33:42.450Z</time>
      </trkpt>
      <trkpt lat="43.57245" lon="3.89248">
        <ele>5.6</ele>
        <time>2017-10-27T07:33:43.448Z</time>
      </trkpt>
      <trkpt lat="43.57243" lon="3.89252">
        <ele>5.6</ele>
        <time>2017-10-27T07:33:44.444Z</time>
      </trkpt>
      <trkpt lat="43.5724" lon="3.89256">
        <ele>5.7</ele>
        <time>2017-10-27T07:33:45.444Z</time>
      </trkpt>
      <trkpt lat="43.57238" lon="3.8926">
        <ele>5.6</ele>
        <time>2017-10-27T07:33:46.429Z</time>
      </trkpt>
      <trkpt lat="43.57236" lon="3.89263">
        <ele>5.5</ele>
        <time>2017-10-27T07:33:47.444Z</time>
      </trkpt>
      <trkpt lat="43.57234" lon="3.89267">
        <ele>5.3</ele>
        <time>2017-10-27T07:33:48.447Z</time>
      </trkpt>
      <trkpt lat="43.5723" lon="3.89268">
        <ele>5.3</ele>
        <time>2017-10-27T07:33:49.437Z</time>
      </trkpt>
      <trkpt lat="43.57227" lon="3.89268">
        <ele>5.4</ele>
        <time>2017-10-27T07:33:50.438Z</time>
      </trkpt>
      <trkpt lat="43.57224" lon="3.89268">
        <ele>5.3</ele>
        <time>2017-10-27T07:33:51.444Z</time>
      </trkpt>
      <trkpt lat="43.57222" lon="3.8927">
        <ele>5.2</ele>
        <time>2017-10-27T07:33:52.447Z</time>
      </trkpt>
      <trkpt lat="43.57221" lon="3.89273">
        <ele>5.4</ele>
        <time>2017-10-27T07:33:53.431Z</time>
      </trkpt>
      <trkpt lat="43.57222" lon="3.89276">
        <ele>5.4</ele>
        <time>2017-10-27T07:33:54.434Z</time>
      </trkpt>
      <trkpt lat="43.57224" lon="3.89279">
        <ele>5.5</ele>
        <time>2017-10-27T07:33:55.431Z</time>
      </trkpt>
      <trkpt lat="43.57227" lon="3.89282">
        <ele>5.5</ele>
        <time>2017-10-27T07:33:56.431Z</time>
      </trkpt>
      <trkpt lat="43.57229" lon="3.89285">
        <ele>5.6</ele>
        <time>2017-10-27T07:33:57.432Z</time>
      </trkpt>
      <trkpt lat="43.57231" lon="3.89289">
        <ele>5.2</ele>
        <time>2017-10-27T07:33:58.448Z</time>
      </trkpt>
      <trkpt lat="43.57232" lon="3.89294">
        <ele>5</ele>
        <time>2017-10-27T07:33:59.444Z</time>
      </trkpt>
      <trkpt lat="43.57233" lon="3.89299">
        <ele>4.8</ele>
        <time>2017-10-27T07:34:00.445Z</time>
      </trkpt>
      <trkpt lat="43.57235" lon="3.89305">
        <ele>4.7</ele>
        <time>2017-10-27T07:34:01.445Z</time>
      </trkpt>
      <trkpt lat="43.57238" lon="3.8931">
        <ele>4.5</ele>
        <time>2017-10-27T07:34:02.444Z</time>
      </trkpt>
      <trkpt lat="43.57241" lon="3.89315">
        <ele>5.2</ele>
        <time>2017-10-27T07:34:03.444Z</time>
      </trkpt>
      <trkpt lat="43.57244" lon="3.8932">
        <ele>5.2</ele>
        <time>2017-10-27T07:34:04.443Z</time>
      </trkpt>
      <trkpt lat="43.57247" lon="3.89324">
        <ele>5.3</ele>
        <time>2017-10-27T07:34:05.444Z</time>
      </trkpt>
      <trkpt lat="43.57248" lon="3.8933">
        <ele>5.3</ele>
        <time>2017-10-27T07:34:06.450Z</time>
      </trkpt>
      <trkpt lat="43.5725" lon="3.89335">
        <ele>5.3</ele>
        <time>2017-10-27T07:34:07.454Z</time>
      </trkpt>
      <trkpt lat="43.57251" lon="3.89341">
        <ele>5.2</ele>
        <time>2017-10-27T07:34:08.450Z</time>
      </trkpt>
      <trkpt lat="43.57251" lon="3.89348">
        <ele>5.1</ele>
        <time>2017-10-27T07:34:09.440Z</time>
      </trkpt>
      <trkpt lat="43.5725" lon="3.89354">
        <ele>5.1</ele>
        <time>2017-10-27T07:34:10.444Z</time>
      </trkpt>
      <trkpt lat="43.57249" lon="3.89361">
        <ele>5.1</ele>
        <time>2017-10-27T07:34:11.444Z</time>
      </trkpt>
      <trkpt lat="43.57248" lon="3.89367">
        <ele>5.1</ele>
        <time>2017-10-27T07:34:12.445Z</time>
      </trkpt>
      <trkpt lat="43.57246" lon="3.89374">
        <ele>5.2</ele>
        <time>2017-10-27T07:34:13.444Z</time>
      </trkpt>
      <trkpt lat="43.57245" lon="3.8938">
        <ele>5.2</ele>
        <time>2017-10-27T07:34:14.452Z</time>
      </trkpt>
      <trkpt lat="43.57243" lon="3.89386">
        <ele>5.3</ele>
        <time>2017-10-27T07:34:15.431Z</time>
      </trkpt>
      <trkpt lat="43.57241" lon="3.89393">
        <ele>5.4</ele>
        <time>2017-10-27T07:34:16.429Z</time>
      </trkpt>
      <trkpt lat="43.5724" lon="3.89399">
        <ele>5.4</ele>
        <time>2017-10-27T07:34:17.432Z</time>
      </trkpt>
      <trkpt lat="43.57239" lon="3.89405">
        <ele>5.3</ele>
        <time>2017-10-27T07:34:18.435Z</time>
      </trkpt>
      <trkpt lat="43.57238" lon="3.89412">
        <ele>5.3</ele>
        <time>2017-10-27T07:34:19.431Z</time>
      </trkpt>
      <trkpt lat="43.57237" lon="3.89418">
        <ele>5.2</ele>
        <time>2017-10-27T07:34:20.444Z</time>
      </trkpt>
      <trkpt lat="43.57236" lon="3.89425">
        <ele>5.1</ele>
        <time>2017-10-27T07:34:21.450Z</time>
      </trkpt>
      <trkpt lat="43.57234" lon="3.89432">
        <ele>5.1</ele>
        <time>2017-10-27T07:34:22.451Z</time>
      </trkpt>
      <trkpt lat="43.57232" lon="3.89438">
        <ele>5.1</ele>
        <time>2017-10-27T07:34:23.444Z</time>
      </trkpt>
      <trkpt lat="43.5723" lon="3.89444">
        <ele>5.2</ele>
        <time>2017-10-27T07:34:24.445Z</time>
      </trkpt>
      <trkpt lat="43.57227" lon="3.89451">
        <ele>5.2</ele>
        <time>2017-10-27T07:34:25.454Z</time>
      </trkpt>
      <trkpt lat="43.57225" lon="3.89457">
        <ele>5.3</ele>
        <time>2017-10-27T07:34:26.444Z</time>
      </trkpt>
      <trkpt lat="43.57222" lon="3.89463">
        <ele>5.5</ele>
        <time>2017-10-27T07:34:27.449Z</time>
      </trkpt>
      <trkpt lat="43.5722" lon="3.89469">
        <ele>5.7</ele>
        <time>2017-10-27T07:34:28.445Z</time>
      </trkpt>
      <trkpt lat="43.57218" lon="3.89475">
        <ele>5.8</ele>
        <time>2017-10-27T07:34:29.444Z</time>
      </trkpt>
      <trkpt lat="43.57215" lon="3.8948">
        <ele>6</ele>
        <time>2017-10-27T07:34:30.445Z</time>
      </trkpt>
      <trkpt lat="43.57213" lon="3.89485">
        <ele>6.3</ele>
        <time>2017-10-27T07:34:31.447Z</time>
      </trkpt>
      <trkpt lat="43.57211" lon="3.8949">
        <ele>6.6</ele>
        <time>2017-10-27T07:34:32.445Z</time>
      </trkpt>
      <trkpt lat="43.57209" lon="3.89495">
        <ele>6.9</ele>
        <time>2017-10-27T07:34:33.437Z</time>
      </trkpt>
      <trkpt lat="43.57206" lon="3.895">
        <ele>7.3</ele>
        <time>2017-10-27T07:34:34.444Z</time>
      </trkpt>
      <trkpt lat="43.57203" lon="3.89505">
        <ele>7.5</ele>
        <time>2017-10-27T07:34:35.450Z</time>
      </trkpt>
      <trkpt lat="43.572" lon="3.89509">
        <ele>7.8</ele>
        <time>2017-10-27T07:34:36.433Z</time>
      </trkpt>
      <trkpt lat="43.57197" lon="3.89513">
        <ele>8</ele>
        <time>2017-10-27T07:34:37.431Z</time>
      </trkpt>
      <trkpt lat="43.57194" lon="3.89518">
        <ele>8.4</ele>
        <time>2017-10-27T07:34:38.438Z</time>
      </trkpt>
      <trkpt lat="43.57191" lon="3.89523">
        <ele>8.6</ele>
        <time>2017-10-27T07:34:39.444Z</time>
      </trkpt>
      <trkpt lat="43.57189" lon="3.89528">
        <ele>8.8</ele>
        <time>2017-10-27T07:34:40.435Z</time>
      </trkpt>
      <trkpt lat="43.57187" lon="3.89533">
        <ele>9</ele>
        <time>2017-10-27T07:34:41.430Z</time>
      </trkpt>
      <trkpt lat="43.57184" lon="3.89538">
        <ele>9.3</ele>
        <time>2017-10-27T07:34:42.447Z</time>
      </trkpt>
      <trkpt lat="43.57182" lon="3.89543">
        <ele>9.6</ele>
        <time>2017-10-27T07:34:43.430Z</time>
      </trkpt>
      <trkpt lat="43.5718" lon="3.89547">
        <ele>9.8</ele>
        <time>2017-10-27T07:34:44.442Z</time>
      </trkpt>
      <trkpt lat="43.57177" lon="3.89551">
        <ele>10.1</ele>
        <time>2017-10-27T07:34:45.441Z</time>
      </trkpt>
      <trkpt lat="43.57175" lon="3.89555">
        <ele>10.4</ele>
        <time>2017-10-27T07:34:46.453Z</time>
      </trkpt>
      <trkpt lat="43.57173" lon="3.89559">
        <ele>10.6</ele>
        <time>2017-10-27T07:34:47.442Z</time>
      </trkpt>
      <trkpt lat="43.57172" lon="3.89563">
        <ele>10.8</ele>
        <time>2017-10-27T07:34:48.456Z</time>
      </trkpt>
      <trkpt lat="43.5717" lon="3.89566">
        <ele>10.9</ele>
        <time>2017-10-27T07:34:49.445Z</time>
      </trkpt>
      <trkpt lat="43.57169" lon="3.8957">
        <ele>11</ele>
        <time>2017-10-27T07:34:50.452Z</time>
      </trkpt>
      <trkpt lat="43.57166" lon="3.89574">
        <ele>11.1</ele>
        <time>2017-10-27T07:34:51.431Z</time>
      </trkpt>
      <trkpt lat="43.57164" lon="3.89578">
        <ele>11.3</ele>
        <time>2017-10-27T07:34:52.442Z</time>
      </trkpt>
      <trkpt lat="43.57161" lon="3.89583">
        <ele>11.3</ele>
        <time>2017-10-27T07:34:53.455Z</time>
      </trkpt>
      <trkpt lat="43.57159" lon="3.89588">
        <ele>11.4</ele>
        <time>2017-10-27T07:34:54.432Z</time>
      </trkpt>
      <trkpt lat="43.57157" lon="3.89593">
        <ele>11.6</ele>
        <time>2017-10-27T07:34:55.446Z</time>
      </trkpt>
      <trkpt lat="43.57155" lon="3.89598">
        <ele>11.7</ele>
        <time>2017-10-27T07:34:56.430Z</time>
      </trkpt>
      <trkpt lat="43.57153" lon="3.89603">
        <ele>11.6</ele>
        <time>2017-10-27T07:34:57.454Z</time>
      </trkpt>
      <trkpt lat="43.5715" lon="3.89609">
        <ele>11.6</ele>
        <time>2017-10-27T07:34:58.443Z</time>
      </trkpt>
      <trkpt lat="43.57148" lon="3.89614">
        <ele>11.6</ele>
        <time>2017-10-27T07:34:59.449Z</time>
      </trkpt>
      <trkpt lat="43.57145" lon="3.89619">
        <ele>11.6</ele>
        <time>2017-10-27T07:35:00.452Z</time>
      </trkpt>
      <trkpt lat="43.57143" lon="3.89625">
        <ele>11.5</ele>
        <time>2017-10-27T07:35:01.454Z</time>
      </trkpt>
      <trkpt lat="43.5714" lon="3.8963">
        <ele>11.4</ele>
        <time>2017-10-27T07:35:02.443Z</time>
      </trkpt>
      <trkpt lat="43.57138" lon="3.89636">
        <ele>11.3</ele>
        <time>2017-10-27T07:35:03.450Z</time>
      </trkpt>
      <trkpt lat="43.57135" lon="3.89642">
        <ele>11.2</ele>
        <time>2017-10-27T07:35:04.442Z</time>
      </trkpt>
      <trkpt lat="43.57132" lon="3.89648">
        <ele>11</ele>
        <time>2017-10-27T07:35:05.452Z</time>
      </trkpt>
      <trkpt lat="43.57129" lon="3.89654">
        <ele>10.9</ele>
        <time>2017-10-27T07:35:06.450Z</time>
      </trkpt>
      <trkpt lat="43.57126" lon="3.8966">
        <ele>10.6</ele>
        <time>2017-10-27T07:35:07.445Z</time>
      </trkpt>
      <trkpt lat="43.57122" lon="3.89666">
        <ele>10.3</ele>
        <time>2017-10-27T07:35:08.444Z</time>
      </trkpt>
      <trkpt lat="43.57119" lon="3.8967">
        <ele>10</ele>
        <time>2017-10-27T07:35:09.444Z</time>
      </trkpt>
      <trkpt lat="43.57115" lon="3.89674">
        <ele>9.6</ele>
        <time>2017-10-27T07:35:10.443Z</time>
      </trkpt>
      <trkpt lat="43.57113" lon="3.89677">
        <ele>9.4</ele>
        <time>2017-10-27T07:35:11.454Z</time>
      </trkpt>
      <trkpt lat="43.57112" lon="3.8968">
        <ele>9.2</ele>
        <time>2017-10-27T07:35:12.446Z</time>
      </trkpt>
      <trkpt lat="43.57112" lon="3.89684">
        <ele>9.2</ele>
        <time>2017-10-27T07:35:13.431Z</time>
      </trkpt>
      <trkpt lat="43.57113" lon="3.89688">
        <ele>9.1</ele>
        <time>2017-10-27T07:35:14.430Z</time>
      </trkpt>
      <trkpt lat="43.57112" lon="3.89692">
        <ele>9</ele>
        <time>2017-10-27T07:35:15.431Z</time>
      </trkpt>
      <trkpt lat="43.5711" lon="3.89695">
        <ele>8.9</ele>
        <time>2017-10-27T07:35:16.431Z</time>
      </trkpt>
      <trkpt lat="43.57108" lon="3.89699">
        <ele>8.7</ele>
        <time>2017-10-27T07:35:17.431Z</time>
      </trkpt>
      <trkpt lat="43.57106" lon="3.89704">
        <ele>8.6</ele>
        <time>2017-10-27T07:35:18.447Z</time>
      </trkpt>
      <trkpt lat="43.57104" lon="3.89708">
        <ele>8.7</ele>
        <time>2017-10-27T07:35:19.444Z</time>
      </trkpt>
      <trkpt lat="43.57101" lon="3.89711">
        <ele>8.6</ele>
        <time>2017-10-27T07:35:20.449Z</time>
      </trkpt>
      <trkpt lat="43.57097" lon="3.89714">
        <ele>8.5</ele>
        <time>2017-10-27T07:35:21.452Z</time>
      </trkpt>
      <trkpt lat="43.57095" lon="3.89717">
        <ele>8.4</ele>
        <time>2017-10-27T07:35:22.443Z</time>
      </trkpt>
      <trkpt lat="43.57093" lon="3.89719">
        <ele>8.4</ele>
        <time>2017-10-27T07:35:23.452Z</time>
      </trkpt>
      <trkpt lat="43.57091" lon="3.8972">
        <ele>8.5</ele>
        <time>2017-10-27T07:35:24.446Z</time>
      </trkpt>
      <trkpt lat="43.5709" lon="3.89719">
        <ele>8.5</ele>
        <time>2017-10-27T07:35:25.446Z</time>
      </trkpt>
      <trkpt lat="43.57088" lon="3.89717">
        <ele>8.3</ele>
        <time>2017-10-27T07:35:26.444Z</time>
      </trkpt>
      <trkpt lat="43.57085" lon="3.89715">
        <ele>7.8</ele>
        <time>2017-10-27T07:35:27.431Z</time>
      </trkpt>
      <trkpt lat="43.57082" lon="3.89714">
        <ele>7.9</ele>
        <time>2017-10-27T07:35:28.430Z</time>
      </trkpt>
      <trkpt lat="43.57078" lon="3.89715">
        <ele>7.6</ele>
        <time>2017-10-27T07:35:29.443Z</time>
      </trkpt>
      <trkpt lat="43.57073" lon="3.89716">
        <ele>7.4</ele>
        <time>2017-10-27T07:35:30.438Z</time>
      </trkpt>
      <trkpt lat="43.57068" lon="3.89718">
        <ele>7.4</ele>
        <time>2017-10-27T07:35:31.446Z</time>
      </trkpt>
      <trkpt lat="43.57064" lon="3.89718">
        <ele>7.3</ele>
        <time>2017-10-27T07:35:32.444Z</time>
      </trkpt>
      <trkpt lat="43.57059" lon="3.89717">
        <ele>7.3</ele>
        <time>2017-10-27T07:35:33.453Z</time>
      </trkpt>
      <trkpt lat="43.57054" lon="3.89716">
        <ele>7.3</ele>
        <time>2017-10-27T07:35:34.449Z</time>
      </trkpt>
      <trkpt lat="43.57049" lon="3.89716">
        <ele>7.3</ele>
        <time>2017-10-27T07:35:35.456Z</time>
      </trkpt>
      <trkpt lat="43.57044" lon="3.89714">
        <ele>7.3</ele>
        <time>2017-10-27T07:35:36.432Z</time>
      </trkpt>
      <trkpt lat="43.57039" lon="3.89713">
        <ele>7.2</ele>
        <time>2017-10-27T07:35:37.450Z</time>
      </trkpt>
      <trkpt lat="43.57034" lon="3.89712">
        <ele>7.1</ele>
        <time>2017-10-27T07:35:38.444Z</time>
      </trkpt>
      <trkpt lat="43.57029" lon="3.8971">
        <ele>7.1</ele>
        <time>2017-10-27T07:35:39.453Z</time>
      </trkpt>
      <trkpt lat="43.57024" lon="3.89709">
        <ele>7.1</ele>
        <time>2017-10-27T07:35:40.442Z</time>
      </trkpt>
      <trkpt lat="43.57019" lon="3.89707">
        <ele>7.1</ele>
        <time>2017-10-27T07:35:41.437Z</time>
      </trkpt>
      <trkpt lat="43.57015" lon="3.89705">
        <ele>7.1</ele>
        <time>2017-10-27T07:35:42.433Z</time>
      </trkpt>
      <trkpt lat="43.5701" lon="3.89704">
        <ele>7</ele>
        <time>2017-10-27T07:35:43.430Z</time>
      </trkpt>
      <trkpt lat="43.57005" lon="3.89702">
        <ele>7</ele>
        <time>2017-10-27T07:35:44.430Z</time>
      </trkpt>
      <trkpt lat="43.57" lon="3.89701">
        <ele>7</ele>
        <time>2017-10-27T07:35:45.435Z</time>
      </trkpt>
      <trkpt lat="43.56995" lon="3.89699">
        <ele>7</ele>
        <time>2017-10-27T07:35:46.425Z</time>
      </trkpt>
      <trkpt lat="43.5699" lon="3.89697">
        <ele>7</ele>
        <time>2017-10-27T07:35:47.440Z</time>
      </trkpt>
      <trkpt lat="43.56985" lon="3.89696">
        <ele>7</ele>
        <time>2017-10-27T07:35:48.440Z</time>
      </trkpt>
      <trkpt lat="43.5698" lon="3.89694">
        <ele>7</ele>
        <time>2017-10-27T07:35:49.440Z</time>
      </trkpt>
      <trkpt lat="43.56975" lon="3.89693">
        <ele>7.1</ele>
        <time>2017-10-27T07:35:50.441Z</time>
      </trkpt>
      <trkpt lat="43.5697" lon="3.89691">
        <ele>7.1</ele>
        <time>2017-10-27T07:35:51.438Z</time>
      </trkpt>
      <trkpt lat="43.56965" lon="3.8969">
        <ele>7.1</ele>
        <time>2017-10-27T07:35:52.441Z</time>
      </trkpt>
      <trkpt lat="43.5696" lon="3.89688">
        <ele>7.2</ele>
        <time>2017-10-27T07:35:53.445Z</time>
      </trkpt>
      <trkpt lat="43.56955" lon="3.89687">
        <ele>7.2</ele>
        <time>2017-10-27T07:35:54.445Z</time>
      </trkpt>
      <trkpt lat="43.5695" lon="3.89685">
        <ele>7.2</ele>
        <time>2017-10-27T07:35:55.444Z</time>
      </trkpt>
      <trkpt lat="43.56945" lon="3.89684">
        <ele>7.2</ele>
        <time>2017-10-27T07:35:56.448Z</time>
      </trkpt>
      <trkpt lat="43.56941" lon="3.89682">
        <ele>7.2</ele>
        <time>2017-10-27T07:35:57.435Z</time>
      </trkpt>
      <trkpt lat="43.56936" lon="3.89681">
        <ele>7.3</ele>
        <time>2017-10-27T07:35:58.443Z</time>
      </trkpt>
      <trkpt lat="43.56931" lon="3.89679">
        <ele>7.3</ele>
        <time>2017-10-27T07:35:59.446Z</time>
      </trkpt>
      <trkpt lat="43.56926" lon="3.89678">
        <ele>7.3</ele>
        <time>2017-10-27T07:36:00.446Z</time>
      </trkpt>
      <trkpt lat="43.56921" lon="3.89677">
        <ele>7.3</ele>
        <time>2017-10-27T07:36:01.445Z</time>
      </trkpt>
      <trkpt lat="43.56917" lon="3.89675">
        <ele>7.4</ele>
        <time>2017-10-27T07:36:02.454Z</time>
      </trkpt>
      <trkpt lat="43.56912" lon="3.89674">
        <ele>7.4</ele>
        <time>2017-10-27T07:36:03.448Z</time>
      </trkpt>
      <trkpt lat="43.56908" lon="3.89673">
        <ele>7.4</ele>
        <time>2017-10-27T07:36:04.447Z</time>
      </trkpt>
      <trkpt lat="43.56903" lon="3.89671">
        <ele>7.4</ele>
        <time>2017-10-27T07:36:05.447Z</time>
      </trkpt>
      <trkpt lat="43.56899" lon="3.8967">
        <ele>7.4</ele>
        <time>2017-10-27T07:36:06.449Z</time>
      </trkpt>
      <trkpt lat="43.56894" lon="3.89669">
        <ele>7.4</ele>
        <time>2017-10-27T07:36:07.432Z</time>
      </trkpt>
      <trkpt lat="43.5689" lon="3.89668">
        <ele>7.5</ele>
        <time>2017-10-27T07:36:08.430Z</time>
      </trkpt>
      <trkpt lat="43.56886" lon="3.89666">
        <ele>7.4</ele>
        <time>2017-10-27T07:36:09.431Z</time>
      </trkpt>
      <trkpt lat="43.56881" lon="3.89665">
        <ele>7.4</ele>
        <time>2017-10-27T07:36:10.439Z</time>
      </trkpt>
      <trkpt lat="43.56877" lon="3.89664">
        <ele>7.5</ele>
        <time>2017-10-27T07:36:11.450Z</time>
      </trkpt>
      <trkpt lat="43.56872" lon="3.89662">
        <ele>7.5</ele>
        <time>2017-10-27T07:36:12.447Z</time>
      </trkpt>
      <trkpt lat="43.56868" lon="3.89661">
        <ele>7.6</ele>
        <time>2017-10-27T07:36:13.454Z</time>
      </trkpt>
      <trkpt lat="43.56864" lon="3.8966">
        <ele>7.6</ele>
        <time>2017-10-27T07:36:14.431Z</time>
      </trkpt>
      <trkpt lat="43.56859" lon="3.89659">
        <ele>7.5</ele>
        <time>2017-10-27T07:36:15.431Z</time>
      </trkpt>
      <trkpt lat="43.56855" lon="3.89657">
        <ele>7.6</ele>
        <time>2017-10-27T07:36:16.431Z</time>
      </trkpt>
      <trkpt lat="43.56851" lon="3.89656">
        <ele>7.5</ele>
        <time>2017-10-27T07:36:17.435Z</time>
      </trkpt>
      <trkpt lat="43.56847" lon="3.89655">
        <ele>7.5</ele>
        <time>2017-10-27T07:36:18.444Z</time>
      </trkpt>
      <trkpt lat="43.56842" lon="3.89654">
        <ele>7.5</ele>
        <time>2017-10-27T07:36:19.445Z</time>
      </trkpt>
      <trkpt lat="43.56838" lon="3.89653">
        <ele>7.5</ele>
        <time>2017-10-27T07:36:20.447Z</time>
      </trkpt>
      <trkpt lat="43.56833" lon="3.89652">
        <ele>7.5</ele>
        <time>2017-10-27T07:36:21.445Z</time>
      </trkpt>
      <trkpt lat="43.56829" lon="3.89651">
        <ele>7.5</ele>
        <time>2017-10-27T07:36:22.444Z</time>
      </trkpt>
      <trkpt lat="43.56825" lon="3.8965">
        <ele>7.5</ele>
        <time>2017-10-27T07:36:23.445Z</time>
      </trkpt>
      <trkpt lat="43.5682" lon="3.89649">
        <ele>7.4</ele>
        <time>2017-10-27T07:36:24.459Z</time>
      </trkpt>
      <trkpt lat="43.56816" lon="3.89649">
        <ele>7.4</ele>
        <time>2017-10-27T07:36:25.445Z</time>
      </trkpt>
      <trkpt lat="43.56811" lon="3.89648">
        <ele>7.4</ele>
        <time>2017-10-27T07:36:26.431Z</time>
      </trkpt>
      <trkpt lat="43.56807" lon="3.89648">
        <ele>7.4</ele>
        <time>2017-10-27T07:36:27.432Z</time>
      </trkpt>
      <trkpt lat="43.56802" lon="3.89647">
        <ele>7.4</ele>
        <time>2017-10-27T07:36:28.430Z</time>
      </trkpt>
      <trkpt lat="43.56797" lon="3.89646">
        <ele>7.4</ele>
        <time>2017-10-27T07:36:29.433Z</time>
      </trkpt>
      <trkpt lat="43.56793" lon="3.89646">
        <ele>7.4</ele>
        <time>2017-10-27T07:36:30.446Z</time>
      </trkpt>
      <trkpt lat="43.56788" lon="3.89646">
        <ele>7.4</ele>
        <time>2017-10-27T07:36:31.445Z</time>
      </trkpt>
      <trkpt lat="43.56784" lon="3.89645">
        <ele>7.4</ele>
        <time>2017-10-27T07:36:32.445Z</time>
      </trkpt>
      <trkpt lat="43.56779" lon="3.89645">
        <ele>7.4</ele>
        <time>2017-10-27T07:36:33.444Z</time>
      </trkpt>
      <trkpt lat="43.56775" lon="3.89644">
        <ele>7.4</ele>
        <time>2017-10-27T07:36:34.446Z</time>
      </trkpt>
      <trkpt lat="43.5677" lon="3.89644">
        <ele>7.4</ele>
        <time>2017-10-27T07:36:35.445Z</time>
      </trkpt>
      <trkpt lat="43.56766" lon="3.89643">
        <ele>7.4</ele>
        <time>2017-10-27T07:36:36.449Z</time>
      </trkpt>
      <trkpt lat="43.56761" lon="3.89643">
        <ele>7.4</ele>
        <time>2017-10-27T07:36:37.445Z</time>
      </trkpt>
      <trkpt lat="43.56756" lon="3.89642">
        <ele>7.4</ele>
        <time>2017-10-27T07:36:38.444Z</time>
      </trkpt>
      <trkpt lat="43.56752" lon="3.89642">
        <ele>7.3</ele>
        <time>2017-10-27T07:36:39.445Z</time>
      </trkpt>
      <trkpt lat="43.56747" lon="3.89641">
        <ele>7.3</ele>
        <time>2017-10-27T07:36:40.446Z</time>
      </trkpt>
      <trkpt lat="43.56743" lon="3.8964">
        <ele>7.4</ele>
        <time>2017-10-27T07:36:41.450Z</time>
      </trkpt>
      <trkpt lat="43.56738" lon="3.8964">
        <ele>7.4</ele>
        <time>2017-10-27T07:36:42.450Z</time>
      </trkpt>
      <trkpt lat="43.56734" lon="3.89639">
        <ele>7.4</ele>
        <time>2017-10-27T07:36:43.450Z</time>
      </trkpt>
      <trkpt lat="43.56729" lon="3.89638">
        <ele>7.5</ele>
        <time>2017-10-27T07:36:44.439Z</time>
      </trkpt>
      <trkpt lat="43.56725" lon="3.89638">
        <ele>7.4</ele>
        <time>2017-10-27T07:36:45.445Z</time>
      </trkpt>
      <trkpt lat="43.56721" lon="3.89637">
        <ele>7.5</ele>
        <time>2017-10-27T07:36:46.446Z</time>
      </trkpt>
      <trkpt lat="43.56716" lon="3.89636">
        <ele>7.5</ele>
        <time>2017-10-27T07:36:47.456Z</time>
      </trkpt>
      <trkpt lat="43.56712" lon="3.89635">
        <ele>7.5</ele>
        <time>2017-10-27T07:36:48.433Z</time>
      </trkpt>
      <trkpt lat="43.56708" lon="3.89635">
        <ele>7.5</ele>
        <time>2017-10-27T07:36:49.432Z</time>
      </trkpt>
      <trkpt lat="43.56703" lon="3.89634">
        <ele>7.6</ele>
        <time>2017-10-27T07:36:50.431Z</time>
      </trkpt>
      <trkpt lat="43.56699" lon="3.89633">
        <ele>7.6</ele>
        <time>2017-10-27T07:36:51.432Z</time>
      </trkpt>
      <trkpt lat="43.56694" lon="3.89632">
        <ele>7.6</ele>
        <time>2017-10-27T07:36:52.447Z</time>
      </trkpt>
      <trkpt lat="43.5669" lon="3.89631">
        <ele>7.7</ele>
        <time>2017-10-27T07:36:53.448Z</time>
      </trkpt>
      <trkpt lat="43.56685" lon="3.8963">
        <ele>7.7</ele>
        <time>2017-10-27T07:36:54.448Z</time>
      </trkpt>
      <trkpt lat="43.56681" lon="3.89628">
        <ele>7.8</ele>
        <time>2017-10-27T07:36:55.446Z</time>
      </trkpt>
      <trkpt lat="43.56676" lon="3.89627">
        <ele>7.8</ele>
        <time>2017-10-27T07:36:56.445Z</time>
      </trkpt>
      <trkpt lat="43.56672" lon="3.89626">
        <ele>7.8</ele>
        <time>2017-10-27T07:36:57.432Z</time>
      </trkpt>
      <trkpt lat="43.56667" lon="3.89624">
        <ele>7.8</ele>
        <time>2017-10-27T07:36:58.430Z</time>
      </trkpt>
      <trkpt lat="43.56663" lon="3.89622">
        <ele>7.8</ele>
        <time>2017-10-27T07:36:59.448Z</time>
      </trkpt>
      <trkpt lat="43.56658" lon="3.89621">
        <ele>7.7</ele>
        <time>2017-10-27T07:37:00.446Z</time>
      </trkpt>
      <trkpt lat="43.56654" lon="3.89619">
        <ele>7.6</ele>
        <time>2017-10-27T07:37:01.449Z</time>
      </trkpt>
      <trkpt lat="43.56649" lon="3.89617">
        <ele>7.6</ele>
        <time>2017-10-27T07:37:02.445Z</time>
      </trkpt>
      <trkpt lat="43.56645" lon="3.89616">
        <ele>7.6</ele>
        <time>2017-10-27T07:37:03.445Z</time>
      </trkpt>
      <trkpt lat="43.56641" lon="3.89614">
        <ele>7.6</ele>
        <time>2017-10-27T07:37:04.446Z</time>
      </trkpt>
      <trkpt lat="43.56636" lon="3.89612">
        <ele>7.6</ele>
        <time>2017-10-27T07:37:05.445Z</time>
      </trkpt>
      <trkpt lat="43.56632" lon="3.89611">
        <ele>7.6</ele>
        <time>2017-10-27T07:37:06.435Z</time>
      </trkpt>
      <trkpt lat="43.56627" lon="3.89609">
        <ele>7.6</ele>
        <time>2017-10-27T07:37:07.432Z</time>
      </trkpt>
      <trkpt lat="43.56623" lon="3.89608">
        <ele>7.6</ele>
        <time>2017-10-27T07:37:08.431Z</time>
      </trkpt>
      <trkpt lat="43.56618" lon="3.89606">
        <ele>7.6</ele>
        <time>2017-10-27T07:37:09.495Z</time>
      </trkpt>
      <trkpt lat="43.56614" lon="3.89604">
        <ele>7.7</ele>
        <time>2017-10-27T07:37:10.446Z</time>
      </trkpt>
      <trkpt lat="43.5661" lon="3.89603">
        <ele>7.7</ele>
        <time>2017-10-27T07:37:11.447Z</time>
      </trkpt>
      <trkpt lat="43.56605" lon="3.89601">
        <ele>7.6</ele>
        <time>2017-10-27T07:37:12.451Z</time>
      </trkpt>
      <trkpt lat="43.56601" lon="3.896">
        <ele>7.6</ele>
        <time>2017-10-27T07:37:13.445Z</time>
      </trkpt>
      <trkpt lat="43.56596" lon="3.89598">
        <ele>7.7</ele>
        <time>2017-10-27T07:37:14.440Z</time>
      </trkpt>
      <trkpt lat="43.56592" lon="3.89596">
        <ele>7.7</ele>
        <time>2017-10-27T07:37:15.446Z</time>
      </trkpt>
      <trkpt lat="43.56587" lon="3.89595">
        <ele>7.7</ele>
        <time>2017-10-27T07:37:16.444Z</time>
      </trkpt>
      <trkpt lat="43.56583" lon="3.89593">
        <ele>7.7</ele>
        <time>2017-10-27T07:37:17.445Z</time>
      </trkpt>
      <trkpt lat="43.56579" lon="3.89591">
        <ele>7.7</ele>
        <time>2017-10-27T07:37:18.457Z</time>
      </trkpt>
      <trkpt lat="43.56574" lon="3.8959">
        <ele>7.7</ele>
        <time>2017-10-27T07:37:19.445Z</time>
      </trkpt>
      <trkpt lat="43.5657" lon="3.89588">
        <ele>7.7</ele>
        <time>2017-10-27T07:37:20.445Z</time>
      </trkpt>
      <trkpt lat="43.56565" lon="3.89587">
        <ele>7.7</ele>
        <time>2017-10-27T07:37:21.445Z</time>
      </trkpt>
      <trkpt lat="43.56561" lon="3.89585">
        <ele>7.8</ele>
        <time>2017-10-27T07:37:22.449Z</time>
      </trkpt>
      <trkpt lat="43.56556" lon="3.89583">
        <ele>7.8</ele>
        <time>2017-10-27T07:37:23.444Z</time>
      </trkpt>
      <trkpt lat="43.56552" lon="3.89581">
        <ele>7.8</ele>
        <time>2017-10-27T07:37:24.447Z</time>
      </trkpt>
      <trkpt lat="43.56548" lon="3.8958">
        <ele>7.8</ele>
        <time>2017-10-27T07:37:25.434Z</time>
      </trkpt>
      <trkpt lat="43.56543" lon="3.89578">
        <ele>7.8</ele>
        <time>2017-10-27T07:37:26.431Z</time>
      </trkpt>
      <trkpt lat="43.56539" lon="3.89576">
        <ele>7.8</ele>
        <time>2017-10-27T07:37:27.438Z</time>
      </trkpt>
      <trkpt lat="43.56535" lon="3.89575">
        <ele>7.8</ele>
        <time>2017-10-27T07:37:28.455Z</time>
      </trkpt>
      <trkpt lat="43.5653" lon="3.89573">
        <ele>7.9</ele>
        <time>2017-10-27T07:37:29.453Z</time>
      </trkpt>
      <trkpt lat="43.56526" lon="3.89572">
        <ele>7.9</ele>
        <time>2017-10-27T07:37:30.454Z</time>
      </trkpt>
      <trkpt lat="43.56522" lon="3.8957">
        <ele>7.9</ele>
        <time>2017-10-27T07:37:31.449Z</time>
      </trkpt>
      <trkpt lat="43.56518" lon="3.89569">
        <ele>7.8</ele>
        <time>2017-10-27T07:37:32.445Z</time>
      </trkpt>
      <trkpt lat="43.56513" lon="3.89567">
        <ele>7.9</ele>
        <time>2017-10-27T07:37:33.445Z</time>
      </trkpt>
      <trkpt lat="43.56509" lon="3.89566">
        <ele>7.9</ele>
        <time>2017-10-27T07:37:34.450Z</time>
      </trkpt>
      <trkpt lat="43.56504" lon="3.89565">
        <ele>7.9</ele>
        <time>2017-10-27T07:37:35.445Z</time>
      </trkpt>
      <trkpt lat="43.565" lon="3.89563">
        <ele>7.9</ele>
        <time>2017-10-27T07:37:36.446Z</time>
      </trkpt>
      <trkpt lat="43.56496" lon="3.89562">
        <ele>7.9</ele>
        <time>2017-10-27T07:37:37.446Z</time>
      </trkpt>
      <trkpt lat="43.56492" lon="3.8956">
        <ele>7.9</ele>
        <time>2017-10-27T07:37:38.445Z</time>
      </trkpt>
      <trkpt lat="43.56487" lon="3.89559">
        <ele>7.9</ele>
        <time>2017-10-27T07:37:39.446Z</time>
      </trkpt>
      <trkpt lat="43.56483" lon="3.89558">
        <ele>7.9</ele>
        <time>2017-10-27T07:37:40.447Z</time>
      </trkpt>
      <trkpt lat="43.56479" lon="3.89557">
        <ele>7.9</ele>
        <time>2017-10-27T07:37:41.445Z</time>
      </trkpt>
      <trkpt lat="43.56474" lon="3.89555">
        <ele>8</ele>
        <time>2017-10-27T07:37:42.451Z</time>
      </trkpt>
      <trkpt lat="43.5647" lon="3.89554">
        <ele>8</ele>
        <time>2017-10-27T07:37:43.431Z</time>
      </trkpt>
      <trkpt lat="43.56466" lon="3.89553">
        <ele>8</ele>
        <time>2017-10-27T07:37:44.431Z</time>
      </trkpt>
      <trkpt lat="43.56461" lon="3.89552">
        <ele>8</ele>
        <time>2017-10-27T07:37:45.432Z</time>
      </trkpt>
      <trkpt lat="43.56457" lon="3.89551">
        <ele>8</ele>
        <time>2017-10-27T07:37:46.437Z</time>
      </trkpt>
      <trkpt lat="43.56452" lon="3.89549">
        <ele>8</ele>
        <time>2017-10-27T07:37:47.436Z</time>
      </trkpt>
      <trkpt lat="43.56448" lon="3.89548">
        <ele>8</ele>
        <time>2017-10-27T07:37:48.432Z</time>
      </trkpt>
      <trkpt lat="43.56443" lon="3.89547">
        <ele>8</ele>
        <time>2017-10-27T07:37:49.432Z</time>
      </trkpt>
      <trkpt lat="43.56439" lon="3.89546">
        <ele>8.1</ele>
        <time>2017-10-27T07:37:50.430Z</time>
      </trkpt>
      <trkpt lat="43.56434" lon="3.89545">
        <ele>8.1</ele>
        <time>2017-10-27T07:37:51.433Z</time>
      </trkpt>
      <trkpt lat="43.5643" lon="3.89544">
        <ele>8</ele>
        <time>2017-10-27T07:37:52.442Z</time>
      </trkpt>
      <trkpt lat="43.56426" lon="3.89543">
        <ele>8</ele>
        <time>2017-10-27T07:37:53.452Z</time>
      </trkpt>
      <trkpt lat="43.56421" lon="3.89542">
        <ele>8</ele>
        <time>2017-10-27T07:37:54.454Z</time>
      </trkpt>
      <trkpt lat="43.56417" lon="3.89541">
        <ele>8</ele>
        <time>2017-10-27T07:37:55.462Z</time>
      </trkpt>
      <trkpt lat="43.56413" lon="3.8954">
        <ele>8</ele>
        <time>2017-10-27T07:37:56.445Z</time>
      </trkpt>
      <trkpt lat="43.5641" lon="3.89539">
        <ele>8</ele>
        <time>2017-10-27T07:37:57.432Z</time>
      </trkpt>
      <trkpt lat="43.56406" lon="3.89538">
        <ele>8</ele>
        <time>2017-10-27T07:37:58.455Z</time>
      </trkpt>
      <trkpt lat="43.56402" lon="3.89537">
        <ele>8</ele>
        <time>2017-10-27T07:37:59.445Z</time>
      </trkpt>
      <trkpt lat="43.56398" lon="3.89536">
        <ele>8</ele>
        <time>2017-10-27T07:38:00.445Z</time>
      </trkpt>
      <trkpt lat="43.56394" lon="3.89535">
        <ele>8</ele>
        <time>2017-10-27T07:38:01.452Z</time>
      </trkpt>
      <trkpt lat="43.5639" lon="3.89534">
        <ele>8</ele>
        <time>2017-10-27T07:38:02.430Z</time>
      </trkpt>
      <trkpt lat="43.56386" lon="3.89533">
        <ele>8.1</ele>
        <time>2017-10-27T07:38:03.432Z</time>
      </trkpt>
      <trkpt lat="43.56382" lon="3.89532">
        <ele>8.2</ele>
        <time>2017-10-27T07:38:04.429Z</time>
      </trkpt>
      <trkpt lat="43.56378" lon="3.89531">
        <ele>8.2</ele>
        <time>2017-10-27T07:38:05.446Z</time>
      </trkpt>
      <trkpt lat="43.56375" lon="3.8953">
        <ele>8.2</ele>
        <time>2017-10-27T07:38:06.464Z</time>
      </trkpt>
      <trkpt lat="43.56371" lon="3.89528">
        <ele>8.2</ele>
        <time>2017-10-27T07:38:07.433Z</time>
      </trkpt>
      <trkpt lat="43.56366" lon="3.89527">
        <ele>8.3</ele>
        <time>2017-10-27T07:38:08.444Z</time>
      </trkpt>
      <trkpt lat="43.56362" lon="3.89525">
        <ele>8.3</ele>
        <time>2017-10-27T07:38:09.445Z</time>
      </trkpt>
      <trkpt lat="43.56358" lon="3.89524">
        <ele>8.3</ele>
        <time>2017-10-27T07:38:10.447Z</time>
      </trkpt>
      <trkpt lat="43.56354" lon="3.89523">
        <ele>8.4</ele>
        <time>2017-10-27T07:38:11.446Z</time>
      </trkpt>
      <trkpt lat="43.5635" lon="3.89521">
        <ele>8.4</ele>
        <time>2017-10-27T07:38:12.451Z</time>
      </trkpt>
      <trkpt lat="43.56346" lon="3.8952">
        <ele>8.4</ele>
        <time>2017-10-27T07:38:13.445Z</time>
      </trkpt>
      <trkpt lat="43.56342" lon="3.89518">
        <ele>8.5</ele>
        <time>2017-10-27T07:38:14.445Z</time>
      </trkpt>
      <trkpt lat="43.56338" lon="3.89517">
        <ele>8.5</ele>
        <time>2017-10-27T07:38:15.455Z</time>
      </trkpt>
      <trkpt lat="43.56334" lon="3.89516">
        <ele>8.6</ele>
        <time>2017-10-27T07:38:16.444Z</time>
      </trkpt>
      <trkpt lat="43.5633" lon="3.89515">
        <ele>8.6</ele>
        <time>2017-10-27T07:38:17.458Z</time>
      </trkpt>
      <trkpt lat="43.56326" lon="3.89513">
        <ele>8.6</ele>
        <time>2017-10-27T07:38:18.446Z</time>
      </trkpt>
      <trkpt lat="43.56322" lon="3.89512">
        <ele>8.6</ele>
        <time>2017-10-27T07:38:19.445Z</time>
      </trkpt>
      <trkpt lat="43.56318" lon="3.8951">
        <ele>8.7</ele>
        <time>2017-10-27T07:38:20.446Z</time>
      </trkpt>
      <trkpt lat="43.56314" lon="3.89507">
        <ele>8.7</ele>
        <time>2017-10-27T07:38:21.445Z</time>
      </trkpt>
      <trkpt lat="43.5631" lon="3.89504">
        <ele>8.7</ele>
        <time>2017-10-27T07:38:22.443Z</time>
      </trkpt>
      <trkpt lat="43.56307" lon="3.89499">
        <ele>8.8</ele>
        <time>2017-10-27T07:38:23.431Z</time>
      </trkpt>
      <trkpt lat="43.56305" lon="3.89495">
        <ele>8.9</ele>
        <time>2017-10-27T07:38:24.435Z</time>
      </trkpt>
      <trkpt lat="43.56303" lon="3.89489">
        <ele>9</ele>
        <time>2017-10-27T07:38:25.439Z</time>
      </trkpt>
      <trkpt lat="43.56301" lon="3.89484">
        <ele>8.8</ele>
        <time>2017-10-27T07:38:26.436Z</time>
      </trkpt>
      <trkpt lat="43.563" lon="3.89479">
        <ele>8.9</ele>
        <time>2017-10-27T07:38:27.454Z</time>
      </trkpt>
      <trkpt lat="43.56299" lon="3.89473">
        <ele>8.9</ele>
        <time>2017-10-27T07:38:28.443Z</time>
      </trkpt>
      <trkpt lat="43.56297" lon="3.89467">
        <ele>8.8</ele>
        <time>2017-10-27T07:38:29.445Z</time>
      </trkpt>
      <trkpt lat="43.56295" lon="3.89461">
        <ele>8.8</ele>
        <time>2017-10-27T07:38:30.451Z</time>
      </trkpt>
      <trkpt lat="43.56293" lon="3.89456">
        <ele>8.8</ele>
        <time>2017-10-27T07:38:31.447Z</time>
      </trkpt>
      <trkpt lat="43.5629" lon="3.89451">
        <ele>9</ele>
        <time>2017-10-27T07:38:32.432Z</time>
      </trkpt>
      <trkpt lat="43.56287" lon="3.89447">
        <ele>9</ele>
        <time>2017-10-27T07:38:33.433Z</time>
      </trkpt>
      <trkpt lat="43.56283" lon="3.89444">
        <ele>9</ele>
        <time>2017-10-27T07:38:34.449Z</time>
      </trkpt>
      <trkpt lat="43.56279" lon="3.89442">
        <ele>9</ele>
        <time>2017-10-27T07:38:35.438Z</time>
      </trkpt>
      <trkpt lat="43.56275" lon="3.89441">
        <ele>9</ele>
        <time>2017-10-27T07:38:36.446Z</time>
      </trkpt>
      <trkpt lat="43.56271" lon="3.8944">
        <ele>9</ele>
        <time>2017-10-27T07:38:37.461Z</time>
      </trkpt>
      <trkpt lat="43.56266" lon="3.8944">
        <ele>9</ele>
        <time>2017-10-27T07:38:38.466Z</time>
      </trkpt>
      <trkpt lat="43.56262" lon="3.89439">
        <ele>9</ele>
        <time>2017-10-27T07:38:39.434Z</time>
      </trkpt>
      <trkpt lat="43.56258" lon="3.89438">
        <ele>9.1</ele>
        <time>2017-10-27T07:38:40.446Z</time>
      </trkpt>
      <trkpt lat="43.56254" lon="3.89438">
        <ele>9</ele>
        <time>2017-10-27T07:38:41.446Z</time>
      </trkpt>
      <trkpt lat="43.56251" lon="3.89438">
        <ele>9</ele>
        <time>2017-10-27T07:38:42.451Z</time>
      </trkpt>
      <trkpt lat="43.56247" lon="3.89438">
        <ele>9</ele>
        <time>2017-10-27T07:38:43.447Z</time>
      </trkpt>
      <trkpt lat="43.56243" lon="3.89438">
        <ele>9</ele>
        <time>2017-10-27T07:38:44.451Z</time>
      </trkpt>
      <trkpt lat="43.56239" lon="3.89438">
        <ele>8.9</ele>
        <time>2017-10-27T07:38:45.448Z</time>
      </trkpt>
      <trkpt lat="43.56235" lon="3.89438">
        <ele>8.9</ele>
        <time>2017-10-27T07:38:46.446Z</time>
      </trkpt>
      <trkpt lat="43.56231" lon="3.89438">
        <ele>8.9</ele>
        <time>2017-10-27T07:38:47.446Z</time>
      </trkpt>
      <trkpt lat="43.56227" lon="3.89437">
        <ele>8.8</ele>
        <time>2017-10-27T07:38:48.449Z</time>
      </trkpt>
      <trkpt lat="43.56223" lon="3.89437">
        <ele>8.8</ele>
        <time>2017-10-27T07:38:49.447Z</time>
      </trkpt>
      <trkpt lat="43.56218" lon="3.89436">
        <ele>8.8</ele>
        <time>2017-10-27T07:38:50.430Z</time>
      </trkpt>
      <trkpt lat="43.56214" lon="3.89436">
        <ele>8.8</ele>
        <time>2017-10-27T07:38:51.431Z</time>
      </trkpt>
      <trkpt lat="43.5621" lon="3.89436">
        <ele>8.8</ele>
        <time>2017-10-27T07:38:52.432Z</time>
      </trkpt>
      <trkpt lat="43.56205" lon="3.89435">
        <ele>8.7</ele>
        <time>2017-10-27T07:38:53.453Z</time>
      </trkpt>
      <trkpt lat="43.56201" lon="3.89435">
        <ele>8.7</ele>
        <time>2017-10-27T07:38:54.471Z</time>
      </trkpt>
      <trkpt lat="43.56196" lon="3.89435">
        <ele>8.6</ele>
        <time>2017-10-27T07:38:55.446Z</time>
      </trkpt>
      <trkpt lat="43.56192" lon="3.89434">
        <ele>8.6</ele>
        <time>2017-10-27T07:38:56.448Z</time>
      </trkpt>
      <trkpt lat="43.56187" lon="3.89434">
        <ele>8.6</ele>
        <time>2017-10-27T07:38:57.434Z</time>
      </trkpt>
      <trkpt lat="43.56183" lon="3.89434">
        <ele>8.6</ele>
        <time>2017-10-27T07:38:58.446Z</time>
      </trkpt>
      <trkpt lat="43.56178" lon="3.89434">
        <ele>8.6</ele>
        <time>2017-10-27T07:38:59.449Z</time>
      </trkpt>
      <trkpt lat="43.56174" lon="3.89434">
        <ele>8.6</ele>
        <time>2017-10-27T07:39:00.450Z</time>
      </trkpt>
      <trkpt lat="43.56169" lon="3.89434">
        <ele>8.6</ele>
        <time>2017-10-27T07:39:01.444Z</time>
      </trkpt>
      <trkpt lat="43.56165" lon="3.89434">
        <ele>8.5</ele>
        <time>2017-10-27T07:39:02.445Z</time>
      </trkpt>
      <trkpt lat="43.56161" lon="3.89434">
        <ele>8.5</ele>
        <time>2017-10-27T07:39:03.446Z</time>
      </trkpt>
      <trkpt lat="43.56156" lon="3.89435">
        <ele>8.5</ele>
        <time>2017-10-27T07:39:04.442Z</time>
      </trkpt>
      <trkpt lat="43.56152" lon="3.89435">
        <ele>8.4</ele>
        <time>2017-10-27T07:39:05.445Z</time>
      </trkpt>
      <trkpt lat="43.56148" lon="3.89435">
        <ele>8.4</ele>
        <time>2017-10-27T07:39:06.448Z</time>
      </trkpt>
      <trkpt lat="43.56143" lon="3.89436">
        <ele>8.4</ele>
        <time>2017-10-27T07:39:07.448Z</time>
      </trkpt>
      <trkpt lat="43.56139" lon="3.89436">
        <ele>8.3</ele>
        <time>2017-10-27T07:39:08.447Z</time>
      </trkpt>
      <trkpt lat="43.56135" lon="3.89435">
        <ele>8.3</ele>
        <time>2017-10-27T07:39:09.445Z</time>
      </trkpt>
      <trkpt lat="43.56132" lon="3.89435">
        <ele>8.3</ele>
        <time>2017-10-27T07:39:10.446Z</time>
      </trkpt>
      <trkpt lat="43.56128" lon="3.89435">
        <ele>8.3</ele>
        <time>2017-10-27T07:39:11.432Z</time>
      </trkpt>
      <trkpt lat="43.56124" lon="3.89436">
        <ele>8.2</ele>
        <time>2017-10-27T07:39:12.433Z</time>
      </trkpt>
      <trkpt lat="43.56121" lon="3.89437">
        <ele>8.2</ele>
        <time>2017-10-27T07:39:13.435Z</time>
      </trkpt>
      <trkpt lat="43.56117" lon="3.89438">
        <ele>8.1</ele>
        <time>2017-10-27T07:39:14.438Z</time>
      </trkpt>
      <trkpt lat="43.56113" lon="3.89439">
        <ele>8.2</ele>
        <time>2017-10-27T07:39:15.437Z</time>
      </trkpt>
      <trkpt lat="43.56109" lon="3.89439">
        <ele>8.1</ele>
        <time>2017-10-27T07:39:16.445Z</time>
      </trkpt>
      <trkpt lat="43.56105" lon="3.89439">
        <ele>8.1</ele>
        <time>2017-10-27T07:39:17.446Z</time>
      </trkpt>
      <trkpt lat="43.561" lon="3.89439">
        <ele>8.1</ele>
        <time>2017-10-27T07:39:18.445Z</time>
      </trkpt>
      <trkpt lat="43.56096" lon="3.89439">
        <ele>8.1</ele>
        <time>2017-10-27T07:39:19.452Z</time>
      </trkpt>
      <trkpt lat="43.56092" lon="3.89439">
        <ele>8</ele>
        <time>2017-10-27T07:39:20.444Z</time>
      </trkpt>
      <trkpt lat="43.56087" lon="3.89439">
        <ele>8</ele>
        <time>2017-10-27T07:39:21.446Z</time>
      </trkpt>
      <trkpt lat="43.56083" lon="3.89439">
        <ele>8</ele>
        <time>2017-10-27T07:39:22.446Z</time>
      </trkpt>
      <trkpt lat="43.56078" lon="3.89438">
        <ele>8</ele>
        <time>2017-10-27T07:39:23.440Z</time>
      </trkpt>
      <trkpt lat="43.56074" lon="3.89438">
        <ele>8</ele>
        <time>2017-10-27T07:39:24.433Z</time>
      </trkpt>
      <trkpt lat="43.5607" lon="3.89438">
        <ele>8</ele>
        <time>2017-10-27T07:39:25.445Z</time>
      </trkpt>
      <trkpt lat="43.56066" lon="3.89438">
        <ele>8</ele>
        <time>2017-10-27T07:39:26.447Z</time>
      </trkpt>
      <trkpt lat="43.56062" lon="3.89437">
        <ele>8</ele>
        <time>2017-10-27T07:39:27.447Z</time>
      </trkpt>
      <trkpt lat="43.56057" lon="3.89437">
        <ele>8</ele>
        <time>2017-10-27T07:39:28.444Z</time>
      </trkpt>
      <trkpt lat="43.56053" lon="3.89437">
        <ele>8</ele>
        <time>2017-10-27T07:39:29.432Z</time>
      </trkpt>
      <trkpt lat="43.56049" lon="3.89437">
        <ele>8</ele>
        <time>2017-10-27T07:39:30.435Z</time>
      </trkpt>
      <trkpt lat="43.56045" lon="3.89437">
        <ele>8</ele>
        <time>2017-10-27T07:39:31.432Z</time>
      </trkpt>
      <trkpt lat="43.5604" lon="3.89436">
        <ele>8</ele>
        <time>2017-10-27T07:39:32.431Z</time>
      </trkpt>
      <trkpt lat="43.56036" lon="3.89435">
        <ele>8</ele>
        <time>2017-10-27T07:39:33.458Z</time>
      </trkpt>
      <trkpt lat="43.56032" lon="3.89434">
        <ele>7.9</ele>
        <time>2017-10-27T07:39:34.445Z</time>
      </trkpt>
      <trkpt lat="43.56028" lon="3.89432">
        <ele>7.9</ele>
        <time>2017-10-27T07:39:35.451Z</time>
      </trkpt>
      <trkpt lat="43.56023" lon="3.89431">
        <ele>7.8</ele>
        <time>2017-10-27T07:39:36.450Z</time>
      </trkpt>
      <trkpt lat="43.56019" lon="3.89429">
        <ele>7.7</ele>
        <time>2017-10-27T07:39:37.452Z</time>
      </trkpt>
      <trkpt lat="43.56015" lon="3.89427">
        <ele>7.7</ele>
        <time>2017-10-27T07:39:38.445Z</time>
      </trkpt>
      <trkpt lat="43.56011" lon="3.89425">
        <ele>7.6</ele>
        <time>2017-10-27T07:39:39.445Z</time>
      </trkpt>
      <trkpt lat="43.56006" lon="3.89423">
        <ele>7.6</ele>
        <time>2017-10-27T07:39:40.445Z</time>
      </trkpt>
      <trkpt lat="43.56002" lon="3.8942">
        <ele>7.5</ele>
        <time>2017-10-27T07:39:41.445Z</time>
      </trkpt>
      <trkpt lat="43.55998" lon="3.89417">
        <ele>7.5</ele>
        <time>2017-10-27T07:39:42.446Z</time>
      </trkpt>
      <trkpt lat="43.55994" lon="3.89414">
        <ele>7.4</ele>
        <time>2017-10-27T07:39:43.449Z</time>
      </trkpt>
      <trkpt lat="43.5599" lon="3.89411">
        <ele>7.5</ele>
        <time>2017-10-27T07:39:44.445Z</time>
      </trkpt>
      <trkpt lat="43.55985" lon="3.89407">
        <ele>7.5</ele>
        <time>2017-10-27T07:39:45.445Z</time>
      </trkpt>
      <trkpt lat="43.55981" lon="3.89404">
        <ele>7.6</ele>
        <time>2017-10-27T07:39:46.450Z</time>
      </trkpt>
      <trkpt lat="43.55977" lon="3.894">
        <ele>7.6</ele>
        <time>2017-10-27T07:39:47.445Z</time>
      </trkpt>
      <trkpt lat="43.55973" lon="3.89397">
        <ele>7.5</ele>
        <time>2017-10-27T07:39:48.447Z</time>
      </trkpt>
      <trkpt lat="43.55968" lon="3.89393">
        <ele>7.6</ele>
        <time>2017-10-27T07:39:49.445Z</time>
      </trkpt>
      <trkpt lat="43.55964" lon="3.89389">
        <ele>7.6</ele>
        <time>2017-10-27T07:39:50.431Z</time>
      </trkpt>
      <trkpt lat="43.5596" lon="3.89386">
        <ele>7.5</ele>
        <time>2017-10-27T07:39:51.432Z</time>
      </trkpt>
      <trkpt lat="43.55956" lon="3.89382">
        <ele>7.5</ele>
        <time>2017-10-27T07:39:52.431Z</time>
      </trkpt>
      <trkpt lat="43.55951" lon="3.89379">
        <ele>7.6</ele>
        <time>2017-10-27T07:39:53.432Z</time>
      </trkpt>
      <trkpt lat="43.55947" lon="3.89375">
        <ele>7.6</ele>
        <time>2017-10-27T07:39:54.445Z</time>
      </trkpt>
      <trkpt lat="43.55942" lon="3.89372">
        <ele>7.7</ele>
        <time>2017-10-27T07:39:55.446Z</time>
      </trkpt>
      <trkpt lat="43.55938" lon="3.89368">
        <ele>7.7</ele>
        <time>2017-10-27T07:39:56.451Z</time>
      </trkpt>
      <trkpt lat="43.55934" lon="3.89365">
        <ele>7.7</ele>
        <time>2017-10-27T07:39:57.432Z</time>
      </trkpt>
      <trkpt lat="43.55929" lon="3.89361">
        <ele>7.6</ele>
        <time>2017-10-27T07:39:58.447Z</time>
      </trkpt>
      <trkpt lat="43.55925" lon="3.89358">
        <ele>7.8</ele>
        <time>2017-10-27T07:39:59.446Z</time>
      </trkpt>
      <trkpt lat="43.55921" lon="3.89354">
        <ele>7.8</ele>
        <time>2017-10-27T07:40:00.440Z</time>
      </trkpt>
      <trkpt lat="43.55916" lon="3.89351">
        <ele>7.9</ele>
        <time>2017-10-27T07:40:01.445Z</time>
      </trkpt>
      <trkpt lat="43.55912" lon="3.89348">
        <ele>7.9</ele>
        <time>2017-10-27T07:40:02.437Z</time>
      </trkpt>
      <trkpt lat="43.55907" lon="3.89345">
        <ele>8</ele>
        <time>2017-10-27T07:40:03.439Z</time>
      </trkpt>
      <trkpt lat="43.55903" lon="3.89343">
        <ele>8</ele>
        <time>2017-10-27T07:40:04.432Z</time>
      </trkpt>
      <trkpt lat="43.55898" lon="3.8934">
        <ele>8</ele>
        <time>2017-10-27T07:40:05.447Z</time>
      </trkpt>
      <trkpt lat="43.55893" lon="3.89339">
        <ele>8</ele>
        <time>2017-10-27T07:40:06.440Z</time>
      </trkpt>
      <trkpt lat="43.55889" lon="3.89337">
        <ele>8</ele>
        <time>2017-10-27T07:40:07.447Z</time>
      </trkpt>
      <trkpt lat="43.55884" lon="3.89336">
        <ele>8</ele>
        <time>2017-10-27T07:40:08.447Z</time>
      </trkpt>
      <trkpt lat="43.55879" lon="3.89335">
        <ele>8</ele>
        <time>2017-10-27T07:40:09.441Z</time>
      </trkpt>
      <trkpt lat="43.55874" lon="3.89334">
        <ele>8</ele>
        <time>2017-10-27T07:40:10.439Z</time>
      </trkpt>
      <trkpt lat="43.55869" lon="3.89334">
        <ele>7.9</ele>
        <time>2017-10-27T07:40:11.441Z</time>
      </trkpt>
      <trkpt lat="43.55864" lon="3.89334">
        <ele>8</ele>
        <time>2017-10-27T07:40:12.444Z</time>
      </trkpt>
      <trkpt lat="43.5586" lon="3.89334">
        <ele>8</ele>
        <time>2017-10-27T07:40:13.441Z</time>
      </trkpt>
      <trkpt lat="43.55855" lon="3.89334">
        <ele>8</ele>
        <time>2017-10-27T07:40:14.427Z</time>
      </trkpt>
      <trkpt lat="43.5585" lon="3.89335">
        <ele>8.1</ele>
        <time>2017-10-27T07:40:15.428Z</time>
      </trkpt>
      <trkpt lat="43.55845" lon="3.89335">
        <ele>8.1</ele>
        <time>2017-10-27T07:40:16.431Z</time>
      </trkpt>
      <trkpt lat="43.55839" lon="3.89336">
        <ele>8.1</ele>
        <time>2017-10-27T07:40:17.441Z</time>
      </trkpt>
      <trkpt lat="43.55834" lon="3.89338">
        <ele>8.1</ele>
        <time>2017-10-27T07:40:18.455Z</time>
      </trkpt>
      <trkpt lat="43.55829" lon="3.8934">
        <ele>8.2</ele>
        <time>2017-10-27T07:40:19.446Z</time>
      </trkpt>
      <trkpt lat="43.55824" lon="3.89341">
        <ele>8.2</ele>
        <time>2017-10-27T07:40:20.448Z</time>
      </trkpt>
      <trkpt lat="43.55819" lon="3.89343">
        <ele>8.2</ele>
        <time>2017-10-27T07:40:21.445Z</time>
      </trkpt>
      <trkpt lat="43.55814" lon="3.89345">
        <ele>8.3</ele>
        <time>2017-10-27T07:40:22.446Z</time>
      </trkpt>
      <trkpt lat="43.55809" lon="3.89347">
        <ele>8.2</ele>
        <time>2017-10-27T07:40:23.446Z</time>
      </trkpt>
      <trkpt lat="43.55803" lon="3.8935">
        <ele>8.3</ele>
        <time>2017-10-27T07:40:24.448Z</time>
      </trkpt>
      <trkpt lat="43.55798" lon="3.89353">
        <ele>8.2</ele>
        <time>2017-10-27T07:40:25.445Z</time>
      </trkpt>
      <trkpt lat="43.55793" lon="3.89356">
        <ele>8.2</ele>
        <time>2017-10-27T07:40:26.451Z</time>
      </trkpt>
      <trkpt lat="43.55788" lon="3.8936">
        <ele>8.2</ele>
        <time>2017-10-27T07:40:27.447Z</time>
      </trkpt>
      <trkpt lat="43.55783" lon="3.89364">
        <ele>8.2</ele>
        <time>2017-10-27T07:40:28.445Z</time>
      </trkpt>
      <trkpt lat="43.55778" lon="3.89368">
        <ele>8.2</ele>
        <time>2017-10-27T07:40:29.447Z</time>
      </trkpt>
      <trkpt lat="43.55774" lon="3.89372">
        <ele>8.2</ele>
        <time>2017-10-27T07:40:30.447Z</time>
      </trkpt>
      <trkpt lat="43.55769" lon="3.89376">
        <ele>8.2</ele>
        <time>2017-10-27T07:40:31.447Z</time>
      </trkpt>
      <trkpt lat="43.55765" lon="3.89381">
        <ele>8.2</ele>
        <time>2017-10-27T07:40:32.448Z</time>
      </trkpt>
      <trkpt lat="43.5576" lon="3.89386">
        <ele>8.1</ele>
        <time>2017-10-27T07:40:33.449Z</time>
      </trkpt>
      <trkpt lat="43.55756" lon="3.89392">
        <ele>8.1</ele>
        <time>2017-10-27T07:40:34.433Z</time>
      </trkpt>
      <trkpt lat="43.55752" lon="3.89398">
        <ele>8</ele>
        <time>2017-10-27T07:40:35.433Z</time>
      </trkpt>
      <trkpt lat="43.55748" lon="3.89404">
        <ele>8</ele>
        <time>2017-10-27T07:40:36.438Z</time>
      </trkpt>
      <trkpt lat="43.55745" lon="3.8941">
        <ele>8</ele>
        <time>2017-10-27T07:40:37.441Z</time>
      </trkpt>
      <trkpt lat="43.55741" lon="3.89417">
        <ele>8</ele>
        <time>2017-10-27T07:40:38.447Z</time>
      </trkpt>
      <trkpt lat="43.55738" lon="3.89424">
        <ele>8</ele>
        <time>2017-10-27T07:40:39.447Z</time>
      </trkpt>
      <trkpt lat="43.55734" lon="3.89431">
        <ele>7.9</ele>
        <time>2017-10-27T07:40:40.447Z</time>
      </trkpt>
      <trkpt lat="43.55731" lon="3.89438">
        <ele>7.9</ele>
        <time>2017-10-27T07:40:41.449Z</time>
      </trkpt>
      <trkpt lat="43.55728" lon="3.89444">
        <ele>7.9</ele>
        <time>2017-10-27T07:40:42.447Z</time>
      </trkpt>
      <trkpt lat="43.55724" lon="3.89451">
        <ele>7.9</ele>
        <time>2017-10-27T07:40:43.446Z</time>
      </trkpt>
      <trkpt lat="43.55721" lon="3.89458">
        <ele>7.9</ele>
        <time>2017-10-27T07:40:44.447Z</time>
      </trkpt>
      <trkpt lat="43.55719" lon="3.89464">
        <ele>7.9</ele>
        <time>2017-10-27T07:40:45.434Z</time>
      </trkpt>
      <trkpt lat="43.55716" lon="3.89471">
        <ele>7.9</ele>
        <time>2017-10-27T07:40:46.446Z</time>
      </trkpt>
      <trkpt lat="43.55712" lon="3.89477">
        <ele>7.9</ele>
        <time>2017-10-27T07:40:47.455Z</time>
      </trkpt>
      <trkpt lat="43.55709" lon="3.89483">
        <ele>7.9</ele>
        <time>2017-10-27T07:40:48.448Z</time>
      </trkpt>
      <trkpt lat="43.55706" lon="3.8949">
        <ele>7.8</ele>
        <time>2017-10-27T07:40:49.446Z</time>
      </trkpt>
      <trkpt lat="43.55703" lon="3.89497">
        <ele>7.8</ele>
        <time>2017-10-27T07:40:50.455Z</time>
      </trkpt>
      <trkpt lat="43.557" lon="3.89503">
        <ele>7.7</ele>
        <time>2017-10-27T07:40:51.442Z</time>
      </trkpt>
      <trkpt lat="43.55697" lon="3.8951">
        <ele>7.7</ele>
        <time>2017-10-27T07:40:52.446Z</time>
      </trkpt>
      <trkpt lat="43.55694" lon="3.89516">
        <ele>7.7</ele>
        <time>2017-10-27T07:40:53.434Z</time>
      </trkpt>
      <trkpt lat="43.55691" lon="3.89523">
        <ele>7.7</ele>
        <time>2017-10-27T07:40:54.434Z</time>
      </trkpt>
      <trkpt lat="43.55688" lon="3.89529">
        <ele>7.7</ele>
        <time>2017-10-27T07:40:55.445Z</time>
      </trkpt>
      <trkpt lat="43.55685" lon="3.89536">
        <ele>7.7</ele>
        <time>2017-10-27T07:40:56.437Z</time>
      </trkpt>
      <trkpt lat="43.55682" lon="3.89543">
        <ele>7.7</ele>
        <time>2017-10-27T07:40:57.433Z</time>
      </trkpt>
      <trkpt lat="43.55678" lon="3.89549">
        <ele>7.7</ele>
        <time>2017-10-27T07:40:58.447Z</time>
      </trkpt>
      <trkpt lat="43.55675" lon="3.89556">
        <ele>7.7</ele>
        <time>2017-10-27T07:40:59.446Z</time>
      </trkpt>
      <trkpt lat="43.55672" lon="3.89563">
        <ele>7.7</ele>
        <time>2017-10-27T07:41:00.454Z</time>
      </trkpt>
      <trkpt lat="43.55668" lon="3.8957">
        <ele>7.7</ele>
        <time>2017-10-27T07:41:01.449Z</time>
      </trkpt>
      <trkpt lat="43.55664" lon="3.89576">
        <ele>7.7</ele>
        <time>2017-10-27T07:41:02.447Z</time>
      </trkpt>
      <trkpt lat="43.5566" lon="3.89582">
        <ele>7.7</ele>
        <time>2017-10-27T07:41:03.447Z</time>
      </trkpt>
      <trkpt lat="43.55656" lon="3.89588">
        <ele>7.7</ele>
        <time>2017-10-27T07:41:04.447Z</time>
      </trkpt>
      <trkpt lat="43.55652" lon="3.89594">
        <ele>7.7</ele>
        <time>2017-10-27T07:41:05.448Z</time>
      </trkpt>
      <trkpt lat="43.55647" lon="3.89599">
        <ele>7.7</ele>
        <time>2017-10-27T07:41:06.449Z</time>
      </trkpt>
      <trkpt lat="43.55641" lon="3.89603">
        <ele>7.7</ele>
        <time>2017-10-27T07:41:07.447Z</time>
      </trkpt>
      <trkpt lat="43.55636" lon="3.89607">
        <ele>7.7</ele>
        <time>2017-10-27T07:41:08.455Z</time>
      </trkpt>
      <trkpt lat="43.5563" lon="3.89611">
        <ele>7.7</ele>
        <time>2017-10-27T07:41:09.454Z</time>
      </trkpt>
      <trkpt lat="43.55624" lon="3.89614">
        <ele>7.7</ele>
        <time>2017-10-27T07:41:10.454Z</time>
      </trkpt>
      <trkpt lat="43.55618" lon="3.89617">
        <ele>7.7</ele>
        <time>2017-10-27T07:41:11.449Z</time>
      </trkpt>
      <trkpt lat="43.55612" lon="3.8962">
        <ele>7.7</ele>
        <time>2017-10-27T07:41:12.455Z</time>
      </trkpt>
      <trkpt lat="43.55606" lon="3.89622">
        <ele>7.7</ele>
        <time>2017-10-27T07:41:13.448Z</time>
      </trkpt>
      <trkpt lat="43.556" lon="3.89624">
        <ele>7.7</ele>
        <time>2017-10-27T07:41:14.456Z</time>
      </trkpt>
      <trkpt lat="43.55594" lon="3.89626">
        <ele>7.7</ele>
        <time>2017-10-27T07:41:15.447Z</time>
      </trkpt>
      <trkpt lat="43.55588" lon="3.89628">
        <ele>7.7</ele>
        <time>2017-10-27T07:41:16.450Z</time>
      </trkpt>
      <trkpt lat="43.55582" lon="3.8963">
        <ele>7.7</ele>
        <time>2017-10-27T07:41:17.449Z</time>
      </trkpt>
      <trkpt lat="43.55576" lon="3.89632">
        <ele>7.7</ele>
        <time>2017-10-27T07:41:18.448Z</time>
      </trkpt>
      <trkpt lat="43.5557" lon="3.89634">
        <ele>7.6</ele>
        <time>2017-10-27T07:41:19.433Z</time>
      </trkpt>
      <trkpt lat="43.55565" lon="3.89636">
        <ele>7.7</ele>
        <time>2017-10-27T07:41:20.434Z</time>
      </trkpt>
      <trkpt lat="43.55559" lon="3.89637">
        <ele>7.7</ele>
        <time>2017-10-27T07:41:21.433Z</time>
      </trkpt>
      <trkpt lat="43.55553" lon="3.89639">
        <ele>7.7</ele>
        <time>2017-10-27T07:41:22.449Z</time>
      </trkpt>
      <trkpt lat="43.55547" lon="3.8964">
        <ele>7.7</ele>
        <time>2017-10-27T07:41:23.446Z</time>
      </trkpt>
      <trkpt lat="43.55541" lon="3.89642">
        <ele>7.7</ele>
        <time>2017-10-27T07:41:24.449Z</time>
      </trkpt>
      <trkpt lat="43.55535" lon="3.89643">
        <ele>7.7</ele>
        <time>2017-10-27T07:41:25.449Z</time>
      </trkpt>
      <trkpt lat="43.5553" lon="3.89643">
        <ele>7.7</ele>
        <time>2017-10-27T07:41:26.433Z</time>
      </trkpt>
      <trkpt lat="43.55524" lon="3.89644">
        <ele>7.7</ele>
        <time>2017-10-27T07:41:27.447Z</time>
      </trkpt>
      <trkpt lat="43.55518" lon="3.89643">
        <ele>7.7</ele>
        <time>2017-10-27T07:41:28.432Z</time>
      </trkpt>
      <trkpt lat="43.55512" lon="3.89643">
        <ele>7.7</ele>
        <time>2017-10-27T07:41:29.433Z</time>
      </trkpt>
      <trkpt lat="43.55507" lon="3.89642">
        <ele>7.7</ele>
        <time>2017-10-27T07:41:30.436Z</time>
      </trkpt>
      <trkpt lat="43.55501" lon="3.89641">
        <ele>7.7</ele>
        <time>2017-10-27T07:41:31.443Z</time>
      </trkpt>
      <trkpt lat="43.55496" lon="3.8964">
        <ele>7.7</ele>
        <time>2017-10-27T07:41:32.446Z</time>
      </trkpt>
      <trkpt lat="43.5549" lon="3.89639">
        <ele>7.7</ele>
        <time>2017-10-27T07:41:33.456Z</time>
      </trkpt>
      <trkpt lat="43.55484" lon="3.89637">
        <ele>7.7</ele>
        <time>2017-10-27T07:41:34.448Z</time>
      </trkpt>
      <trkpt lat="43.55479" lon="3.89636">
        <ele>7.8</ele>
        <time>2017-10-27T07:41:35.462Z</time>
      </trkpt>
      <trkpt lat="43.55474" lon="3.89635">
        <ele>7.8</ele>
        <time>2017-10-27T07:41:36.471Z</time>
      </trkpt>
      <trkpt lat="43.55468" lon="3.89633">
        <ele>7.8</ele>
        <time>2017-10-27T07:41:37.469Z</time>
      </trkpt>
      <trkpt lat="43.55463" lon="3.89632">
        <ele>7.8</ele>
        <time>2017-10-27T07:41:38.453Z</time>
      </trkpt>
      <trkpt lat="43.55458" lon="3.8963">
        <ele>7.8</ele>
        <time>2017-10-27T07:41:39.454Z</time>
      </trkpt>
      <trkpt lat="43.55452" lon="3.89629">
        <ele>7.9</ele>
        <time>2017-10-27T07:41:40.448Z</time>
      </trkpt>
      <trkpt lat="43.55447" lon="3.89628">
        <ele>7.9</ele>
        <time>2017-10-27T07:41:41.446Z</time>
      </trkpt>
      <trkpt lat="43.55442" lon="3.89627">
        <ele>7.9</ele>
        <time>2017-10-27T07:41:42.457Z</time>
      </trkpt>
      <trkpt lat="43.55437" lon="3.89626">
        <ele>7.9</ele>
        <time>2017-10-27T07:41:43.447Z</time>
      </trkpt>
      <trkpt lat="43.55432" lon="3.89625">
        <ele>7.9</ele>
        <time>2017-10-27T07:41:44.435Z</time>
      </trkpt>
      <trkpt lat="43.55426" lon="3.89624">
        <ele>7.9</ele>
        <time>2017-10-27T07:41:45.435Z</time>
      </trkpt>
      <trkpt lat="43.55421" lon="3.89623">
        <ele>7.9</ele>
        <time>2017-10-27T07:41:46.436Z</time>
      </trkpt>
      <trkpt lat="43.55416" lon="3.89622">
        <ele>8</ele>
        <time>2017-10-27T07:41:47.448Z</time>
      </trkpt>
      <trkpt lat="43.55411" lon="3.89621">
        <ele>8</ele>
        <time>2017-10-27T07:41:48.454Z</time>
      </trkpt>
      <trkpt lat="43.55406" lon="3.89621">
        <ele>8</ele>
        <time>2017-10-27T07:41:49.454Z</time>
      </trkpt>
      <trkpt lat="43.554" lon="3.8962">
        <ele>7.9</ele>
        <time>2017-10-27T07:41:50.448Z</time>
      </trkpt>
      <trkpt lat="43.55395" lon="3.8962">
        <ele>8</ele>
        <time>2017-10-27T07:41:51.436Z</time>
      </trkpt>
      <trkpt lat="43.5539" lon="3.89619">
        <ele>8</ele>
        <time>2017-10-27T07:41:52.448Z</time>
      </trkpt>
      <trkpt lat="43.55385" lon="3.89619">
        <ele>8.1</ele>
        <time>2017-10-27T07:41:53.449Z</time>
      </trkpt>
      <trkpt lat="43.5538" lon="3.89618">
        <ele>8.1</ele>
        <time>2017-10-27T07:41:54.450Z</time>
      </trkpt>
      <trkpt lat="43.55374" lon="3.89617">
        <ele>8.1</ele>
        <time>2017-10-27T07:41:55.449Z</time>
      </trkpt>
      <trkpt lat="43.55369" lon="3.89616">
        <ele>8.1</ele>
        <time>2017-10-27T07:41:56.450Z</time>
      </trkpt>
      <trkpt lat="43.55364" lon="3.89616">
        <ele>8.1</ele>
        <time>2017-10-27T07:41:57.449Z</time>
      </trkpt>
      <trkpt lat="43.55358" lon="3.89615">
        <ele>8.1</ele>
        <time>2017-10-27T07:41:58.449Z</time>
      </trkpt>
      <trkpt lat="43.55353" lon="3.89614">
        <ele>8</ele>
        <time>2017-10-27T07:41:59.449Z</time>
      </trkpt>
      <trkpt lat="43.55348" lon="3.89613">
        <ele>8</ele>
        <time>2017-10-27T07:42:00.450Z</time>
      </trkpt>
      <trkpt lat="43.55342" lon="3.89612">
        <ele>8.1</ele>
        <time>2017-10-27T07:42:01.448Z</time>
      </trkpt>
      <trkpt lat="43.55337" lon="3.89611">
        <ele>8.1</ele>
        <time>2017-10-27T07:42:02.448Z</time>
      </trkpt>
      <trkpt lat="43.55331" lon="3.8961">
        <ele>8</ele>
        <time>2017-10-27T07:42:03.457Z</time>
      </trkpt>
      <trkpt lat="43.55326" lon="3.89609">
        <ele>8</ele>
        <time>2017-10-27T07:42:04.448Z</time>
      </trkpt>
      <trkpt lat="43.5532" lon="3.89608">
        <ele>8</ele>
        <time>2017-10-27T07:42:05.448Z</time>
      </trkpt>
      <trkpt lat="43.55315" lon="3.89608">
        <ele>8</ele>
        <time>2017-10-27T07:42:06.438Z</time>
      </trkpt>
      <trkpt lat="43.55309" lon="3.89607">
        <ele>8</ele>
        <time>2017-10-27T07:42:07.432Z</time>
      </trkpt>
      <trkpt lat="43.55304" lon="3.89606">
        <ele>8</ele>
        <time>2017-10-27T07:42:08.435Z</time>
      </trkpt>
      <trkpt lat="43.55298" lon="3.89605">
        <ele>7.9</ele>
        <time>2017-10-27T07:42:09.446Z</time>
      </trkpt>
      <trkpt lat="43.55292" lon="3.89604">
        <ele>7.9</ele>
        <time>2017-10-27T07:42:10.447Z</time>
      </trkpt>
      <trkpt lat="43.55286" lon="3.89604">
        <ele>7.9</ele>
        <time>2017-10-27T07:42:11.445Z</time>
      </trkpt>
      <trkpt lat="43.55281" lon="3.89603">
        <ele>7.9</ele>
        <time>2017-10-27T07:42:12.447Z</time>
      </trkpt>
      <trkpt lat="43.55275" lon="3.89603">
        <ele>7.9</ele>
        <time>2017-10-27T07:42:13.438Z</time>
      </trkpt>
      <trkpt lat="43.5527" lon="3.89602">
        <ele>7.9</ele>
        <time>2017-10-27T07:42:14.441Z</time>
      </trkpt>
      <trkpt lat="43.55264" lon="3.89602">
        <ele>7.9</ele>
        <time>2017-10-27T07:42:15.431Z</time>
      </trkpt>
      <trkpt lat="43.55259" lon="3.89601">
        <ele>7.9</ele>
        <time>2017-10-27T07:42:16.444Z</time>
      </trkpt>
      <trkpt lat="43.55253" lon="3.896">
        <ele>7.9</ele>
        <time>2017-10-27T07:42:17.432Z</time>
      </trkpt>
      <trkpt lat="43.55248" lon="3.896">
        <ele>7.9</ele>
        <time>2017-10-27T07:42:18.434Z</time>
      </trkpt>
      <trkpt lat="43.55243" lon="3.89599">
        <ele>7.9</ele>
        <time>2017-10-27T07:42:19.446Z</time>
      </trkpt>
      <trkpt lat="43.55237" lon="3.89598">
        <ele>7.9</ele>
        <time>2017-10-27T07:42:20.445Z</time>
      </trkpt>
      <trkpt lat="43.55232" lon="3.89598">
        <ele>7.8</ele>
        <time>2017-10-27T07:42:21.445Z</time>
      </trkpt>
      <trkpt lat="43.55227" lon="3.89597">
        <ele>7.8</ele>
        <time>2017-10-27T07:42:22.450Z</time>
      </trkpt>
      <trkpt lat="43.55222" lon="3.89597">
        <ele>7.7</ele>
        <time>2017-10-27T07:42:23.450Z</time>
      </trkpt>
      <trkpt lat="43.55217" lon="3.89596">
        <ele>7.8</ele>
        <time>2017-10-27T07:42:24.447Z</time>
      </trkpt>
      <trkpt lat="43.55212" lon="3.89596">
        <ele>7.7</ele>
        <time>2017-10-27T07:42:25.433Z</time>
      </trkpt>
      <trkpt lat="43.55207" lon="3.89595">
        <ele>7.7</ele>
        <time>2017-10-27T07:42:26.432Z</time>
      </trkpt>
      <trkpt lat="43.55201" lon="3.89595">
        <ele>7.7</ele>
        <time>2017-10-27T07:42:27.432Z</time>
      </trkpt>
      <trkpt lat="43.55196" lon="3.89594">
        <ele>7.7</ele>
        <time>2017-10-27T07:42:28.434Z</time>
      </trkpt>
      <trkpt lat="43.55191" lon="3.89594">
        <ele>7.7</ele>
        <time>2017-10-27T07:42:29.453Z</time>
      </trkpt>
      <trkpt lat="43.55186" lon="3.89594">
        <ele>7.7</ele>
        <time>2017-10-27T07:42:30.454Z</time>
      </trkpt>
      <trkpt lat="43.55181" lon="3.89593">
        <ele>7.7</ele>
        <time>2017-10-27T07:42:31.446Z</time>
      </trkpt>
      <trkpt lat="43.55177" lon="3.89593">
        <ele>7.7</ele>
        <time>2017-10-27T07:42:32.444Z</time>
      </trkpt>
      <trkpt lat="43.55171" lon="3.89593">
        <ele>7.7</ele>
        <time>2017-10-27T07:42:33.445Z</time>
      </trkpt>
      <trkpt lat="43.55166" lon="3.89592">
        <ele>7.7</ele>
        <time>2017-10-27T07:42:34.445Z</time>
      </trkpt>
      <trkpt lat="43.55161" lon="3.89592">
        <ele>7.7</ele>
        <time>2017-10-27T07:42:35.445Z</time>
      </trkpt>
      <trkpt lat="43.55156" lon="3.89592">
        <ele>7.8</ele>
        <time>2017-10-27T07:42:36.454Z</time>
      </trkpt>
      <trkpt lat="43.55151" lon="3.89591">
        <ele>7.8</ele>
        <time>2017-10-27T07:42:37.443Z</time>
      </trkpt>
      <trkpt lat="43.55146" lon="3.89591">
        <ele>7.9</ele>
        <time>2017-10-27T07:42:38.449Z</time>
      </trkpt>
      <trkpt lat="43.55141" lon="3.89591">
        <ele>7.9</ele>
        <time>2017-10-27T07:42:39.445Z</time>
      </trkpt>
      <trkpt lat="43.55136" lon="3.8959">
        <ele>7.9</ele>
        <time>2017-10-27T07:42:40.442Z</time>
      </trkpt>
      <trkpt lat="43.55131" lon="3.8959">
        <ele>7.9</ele>
        <time>2017-10-27T07:42:41.445Z</time>
      </trkpt>
      <trkpt lat="43.55126" lon="3.8959">
        <ele>7.9</ele>
        <time>2017-10-27T07:42:42.437Z</time>
      </trkpt>
      <trkpt lat="43.55121" lon="3.89589">
        <ele>7.9</ele>
        <time>2017-10-27T07:42:43.431Z</time>
      </trkpt>
      <trkpt lat="43.55116" lon="3.89589">
        <ele>7.9</ele>
        <time>2017-10-27T07:42:44.434Z</time>
      </trkpt>
      <trkpt lat="43.55111" lon="3.89588">
        <ele>7.8</ele>
        <time>2017-10-27T07:42:45.439Z</time>
      </trkpt>
      <trkpt lat="43.55106" lon="3.89587">
        <ele>7.8</ele>
        <time>2017-10-27T07:42:46.445Z</time>
      </trkpt>
      <trkpt lat="43.55101" lon="3.89587">
        <ele>7.8</ele>
        <time>2017-10-27T07:42:47.434Z</time>
      </trkpt>
      <trkpt lat="43.55096" lon="3.89586">
        <ele>7.7</ele>
        <time>2017-10-27T07:42:48.447Z</time>
      </trkpt>
      <trkpt lat="43.55091" lon="3.89586">
        <ele>7.7</ele>
        <time>2017-10-27T07:42:49.452Z</time>
      </trkpt>
      <trkpt lat="43.55086" lon="3.89585">
        <ele>7.7</ele>
        <time>2017-10-27T07:42:50.445Z</time>
      </trkpt>
      <trkpt lat="43.55081" lon="3.89585">
        <ele>7.7</ele>
        <time>2017-10-27T07:42:51.447Z</time>
      </trkpt>
      <trkpt lat="43.55076" lon="3.89584">
        <ele>7.7</ele>
        <time>2017-10-27T07:42:52.445Z</time>
      </trkpt>
      <trkpt lat="43.55071" lon="3.89583">
        <ele>7.7</ele>
        <time>2017-10-27T07:42:53.446Z</time>
      </trkpt>
      <trkpt lat="43.55066" lon="3.89583">
        <ele>7.7</ele>
        <time>2017-10-27T07:42:54.447Z</time>
      </trkpt>
      <trkpt lat="43.55061" lon="3.89582">
        <ele>7.6</ele>
        <time>2017-10-27T07:42:55.456Z</time>
      </trkpt>
      <trkpt lat="43.55056" lon="3.89582">
        <ele>7.6</ele>
        <time>2017-10-27T07:42:56.444Z</time>
      </trkpt>
      <trkpt lat="43.55051" lon="3.89581">
        <ele>7.6</ele>
        <time>2017-10-27T07:42:57.432Z</time>
      </trkpt>
      <trkpt lat="43.55046" lon="3.89581">
        <ele>7.6</ele>
        <time>2017-10-27T07:42:58.445Z</time>
      </trkpt>
      <trkpt lat="43.55041" lon="3.8958">
        <ele>7.6</ele>
        <time>2017-10-27T07:42:59.447Z</time>
      </trkpt>
      <trkpt lat="43.55037" lon="3.8958">
        <ele>7.6</ele>
        <time>2017-10-27T07:43:00.452Z</time>
      </trkpt>
      <trkpt lat="43.55032" lon="3.8958">
        <ele>7.5</ele>
        <time>2017-10-27T07:43:01.447Z</time>
      </trkpt>
      <trkpt lat="43.55027" lon="3.8958">
        <ele>7.5</ele>
        <time>2017-10-27T07:43:02.432Z</time>
      </trkpt>
      <trkpt lat="43.55022" lon="3.89579">
        <ele>7.5</ele>
        <time>2017-10-27T07:43:03.434Z</time>
      </trkpt>
      <trkpt lat="43.55017" lon="3.89579">
        <ele>7.5</ele>
        <time>2017-10-27T07:43:04.431Z</time>
      </trkpt>
      <trkpt lat="43.55012" lon="3.89579">
        <ele>7.5</ele>
        <time>2017-10-27T07:43:05.436Z</time>
      </trkpt>
      <trkpt lat="43.55007" lon="3.89579">
        <ele>7.5</ele>
        <time>2017-10-27T07:43:06.450Z</time>
      </trkpt>
      <trkpt lat="43.55002" lon="3.89579">
        <ele>7.5</ele>
        <time>2017-10-27T07:43:07.432Z</time>
      </trkpt>
      <trkpt lat="43.54997" lon="3.89578">
        <ele>7.5</ele>
        <time>2017-10-27T07:43:08.437Z</time>
      </trkpt>
      <trkpt lat="43.54992" lon="3.89577">
        <ele>7.5</ele>
        <time>2017-10-27T07:43:09.446Z</time>
      </trkpt>
      <trkpt lat="43.54988" lon="3.89576">
        <ele>7.5</ele>
        <time>2017-10-27T07:43:10.442Z</time>
      </trkpt>
      <trkpt lat="43.54983" lon="3.89575">
        <ele>7.5</ele>
        <time>2017-10-27T07:43:11.437Z</time>
      </trkpt>
      <trkpt lat="43.54978" lon="3.89574">
        <ele>7.5</ele>
        <time>2017-10-27T07:43:12.445Z</time>
      </trkpt>
      <trkpt lat="43.54973" lon="3.89572">
        <ele>7.5</ele>
        <time>2017-10-27T07:43:13.463Z</time>
      </trkpt>
      <trkpt lat="43.54968" lon="3.89571">
        <ele>7.6</ele>
        <time>2017-10-27T07:43:14.445Z</time>
      </trkpt>
      <trkpt lat="43.54962" lon="3.89569">
        <ele>7.6</ele>
        <time>2017-10-27T07:43:15.445Z</time>
      </trkpt>
      <trkpt lat="43.54957" lon="3.89568">
        <ele>7.5</ele>
        <time>2017-10-27T07:43:16.445Z</time>
      </trkpt>
      <trkpt lat="43.54952" lon="3.89567">
        <ele>7.5</ele>
        <time>2017-10-27T07:43:17.444Z</time>
      </trkpt>
      <trkpt lat="43.54947" lon="3.89566">
        <ele>7.5</ele>
        <time>2017-10-27T07:43:18.445Z</time>
      </trkpt>
      <trkpt lat="43.54942" lon="3.89566">
        <ele>7.5</ele>
        <time>2017-10-27T07:43:19.450Z</time>
      </trkpt>
      <trkpt lat="43.54937" lon="3.89566">
        <ele>7.5</ele>
        <time>2017-10-27T07:43:20.448Z</time>
      </trkpt>
      <trkpt lat="43.54932" lon="3.89566">
        <ele>7.5</ele>
        <time>2017-10-27T07:43:21.448Z</time>
      </trkpt>
      <trkpt lat="43.54927" lon="3.89567">
        <ele>7.5</ele>
        <time>2017-10-27T07:43:22.432Z</time>
      </trkpt>
      <trkpt lat="43.54922" lon="3.89568">
        <ele>7.5</ele>
        <time>2017-10-27T07:43:23.432Z</time>
      </trkpt>
      <trkpt lat="43.54917" lon="3.8957">
        <ele>7.5</ele>
        <time>2017-10-27T07:43:24.433Z</time>
      </trkpt>
      <trkpt lat="43.54912" lon="3.89572">
        <ele>7.5</ele>
        <time>2017-10-27T07:43:25.468Z</time>
      </trkpt>
      <trkpt lat="43.54907" lon="3.89574">
        <ele>7.5</ele>
        <time>2017-10-27T07:43:26.449Z</time>
      </trkpt>
      <trkpt lat="43.54903" lon="3.89576">
        <ele>7.5</ele>
        <time>2017-10-27T07:43:27.446Z</time>
      </trkpt>
      <trkpt lat="43.54898" lon="3.89578">
        <ele>7.5</ele>
        <time>2017-10-27T07:43:28.450Z</time>
      </trkpt>
      <trkpt lat="43.54893" lon="3.8958">
        <ele>7.4</ele>
        <time>2017-10-27T07:43:29.445Z</time>
      </trkpt>
      <trkpt lat="43.54888" lon="3.89582">
        <ele>7.4</ele>
        <time>2017-10-27T07:43:30.446Z</time>
      </trkpt>
      <trkpt lat="43.54884" lon="3.89584">
        <ele>7.4</ele>
        <time>2017-10-27T07:43:31.446Z</time>
      </trkpt>
      <trkpt lat="43.54879" lon="3.89586">
        <ele>7.4</ele>
        <time>2017-10-27T07:43:32.440Z</time>
      </trkpt>
      <trkpt lat="43.54874" lon="3.89589">
        <ele>7.4</ele>
        <time>2017-10-27T07:43:33.446Z</time>
      </trkpt>
      <trkpt lat="43.5487" lon="3.89591">
        <ele>7.4</ele>
        <time>2017-10-27T07:43:34.446Z</time>
      </trkpt>
      <trkpt lat="43.54865" lon="3.89593">
        <ele>7.3</ele>
        <time>2017-10-27T07:43:35.446Z</time>
      </trkpt>
      <trkpt lat="43.5486" lon="3.89595">
        <ele>7.3</ele>
        <time>2017-10-27T07:43:36.448Z</time>
      </trkpt>
      <trkpt lat="43.54855" lon="3.89597">
        <ele>7.3</ele>
        <time>2017-10-27T07:43:37.445Z</time>
      </trkpt>
      <trkpt lat="43.5485" lon="3.89599">
        <ele>7.3</ele>
        <time>2017-10-27T07:43:38.445Z</time>
      </trkpt>
      <trkpt lat="43.54845" lon="3.89601">
        <ele>7.3</ele>
        <time>2017-10-27T07:43:39.446Z</time>
      </trkpt>
      <trkpt lat="43.5484" lon="3.89603">
        <ele>7.3</ele>
        <time>2017-10-27T07:43:40.450Z</time>
      </trkpt>
      <trkpt lat="43.54835" lon="3.89605">
        <ele>7.2</ele>
        <time>2017-10-27T07:43:41.445Z</time>
      </trkpt>
      <trkpt lat="43.5483" lon="3.89607">
        <ele>7.2</ele>
        <time>2017-10-27T07:43:42.447Z</time>
      </trkpt>
      <trkpt lat="43.54825" lon="3.89608">
        <ele>7.2</ele>
        <time>2017-10-27T07:43:43.446Z</time>
      </trkpt>
      <trkpt lat="43.5482" lon="3.8961">
        <ele>7.2</ele>
        <time>2017-10-27T07:43:44.450Z</time>
      </trkpt>
      <trkpt lat="43.54815" lon="3.89611">
        <ele>7.2</ele>
        <time>2017-10-27T07:43:45.454Z</time>
      </trkpt>
      <trkpt lat="43.5481" lon="3.89612">
        <ele>7.1</ele>
        <time>2017-10-27T07:43:46.443Z</time>
      </trkpt>
      <trkpt lat="43.54805" lon="3.89613">
        <ele>7.1</ele>
        <time>2017-10-27T07:43:47.446Z</time>
      </trkpt>
      <trkpt lat="43.548" lon="3.89614">
        <ele>7.1</ele>
        <time>2017-10-27T07:43:48.447Z</time>
      </trkpt>
      <trkpt lat="43.54795" lon="3.89615">
        <ele>7</ele>
        <time>2017-10-27T07:43:49.432Z</time>
      </trkpt>
      <trkpt lat="43.5479" lon="3.89616">
        <ele>6.9</ele>
        <time>2017-10-27T07:43:50.432Z</time>
      </trkpt>
      <trkpt lat="43.54785" lon="3.89617">
        <ele>6.9</ele>
        <time>2017-10-27T07:43:51.432Z</time>
      </trkpt>
      <trkpt lat="43.5478" lon="3.89618">
        <ele>6.9</ele>
        <time>2017-10-27T07:43:52.446Z</time>
      </trkpt>
      <trkpt lat="43.54775" lon="3.89619">
        <ele>6.9</ele>
        <time>2017-10-27T07:43:53.444Z</time>
      </trkpt>
      <trkpt lat="43.5477" lon="3.89621">
        <ele>6.8</ele>
        <time>2017-10-27T07:43:54.451Z</time>
      </trkpt>
      <trkpt lat="43.54765" lon="3.89623">
        <ele>6.8</ele>
        <time>2017-10-27T07:43:55.439Z</time>
      </trkpt>
      <trkpt lat="43.5476" lon="3.89624">
        <ele>6.8</ele>
        <time>2017-10-27T07:43:56.464Z</time>
      </trkpt>
      <trkpt lat="43.54755" lon="3.89626">
        <ele>6.8</ele>
        <time>2017-10-27T07:43:57.447Z</time>
      </trkpt>
      <trkpt lat="43.54749" lon="3.89627">
        <ele>6.8</ele>
        <time>2017-10-27T07:43:58.455Z</time>
      </trkpt>
      <trkpt lat="43.54744" lon="3.89629">
        <ele>6.7</ele>
        <time>2017-10-27T07:43:59.478Z</time>
      </trkpt>
      <trkpt lat="43.54739" lon="3.8963">
        <ele>6.8</ele>
        <time>2017-10-27T07:44:00.464Z</time>
      </trkpt>
      <trkpt lat="43.54734" lon="3.89632">
        <ele>6.8</ele>
        <time>2017-10-27T07:44:01.445Z</time>
      </trkpt>
      <trkpt lat="43.54728" lon="3.89633">
        <ele>6.8</ele>
        <time>2017-10-27T07:44:02.445Z</time>
      </trkpt>
      <trkpt lat="43.54723" lon="3.89634">
        <ele>6.7</ele>
        <time>2017-10-27T07:44:03.446Z</time>
      </trkpt>
      <trkpt lat="43.54718" lon="3.89636">
        <ele>6.7</ele>
        <time>2017-10-27T07:44:04.451Z</time>
      </trkpt>
      <trkpt lat="43.54712" lon="3.89637">
        <ele>6.6</ele>
        <time>2017-10-27T07:44:05.454Z</time>
      </trkpt>
      <trkpt lat="43.54707" lon="3.89637">
        <ele>6.7</ele>
        <time>2017-10-27T07:44:06.450Z</time>
      </trkpt>
      <trkpt lat="43.54701" lon="3.89638">
        <ele>6.7</ele>
        <time>2017-10-27T07:44:07.449Z</time>
      </trkpt>
      <trkpt lat="43.54696" lon="3.89639">
        <ele>6.7</ele>
        <time>2017-10-27T07:44:08.452Z</time>
      </trkpt>
      <trkpt lat="43.54691" lon="3.89639">
        <ele>6.7</ele>
        <time>2017-10-27T07:44:09.450Z</time>
      </trkpt>
      <trkpt lat="43.54685" lon="3.8964">
        <ele>6.7</ele>
        <time>2017-10-27T07:44:10.446Z</time>
      </trkpt>
      <trkpt lat="43.5468" lon="3.8964">
        <ele>6.6</ele>
        <time>2017-10-27T07:44:11.451Z</time>
      </trkpt>
      <trkpt lat="43.54674" lon="3.8964">
        <ele>6.6</ele>
        <time>2017-10-27T07:44:12.451Z</time>
      </trkpt>
      <trkpt lat="43.54669" lon="3.8964">
        <ele>6.5</ele>
        <time>2017-10-27T07:44:13.450Z</time>
      </trkpt>
      <trkpt lat="43.54663" lon="3.89639">
        <ele>6.5</ele>
        <time>2017-10-27T07:44:14.447Z</time>
      </trkpt>
      <trkpt lat="43.54658" lon="3.89639">
        <ele>6.5</ele>
        <time>2017-10-27T07:44:15.447Z</time>
      </trkpt>
      <trkpt lat="43.54652" lon="3.89638">
        <ele>6.4</ele>
        <time>2017-10-27T07:44:16.432Z</time>
      </trkpt>
      <trkpt lat="43.54647" lon="3.89637">
        <ele>6.4</ele>
        <time>2017-10-27T07:44:17.440Z</time>
      </trkpt>
      <trkpt lat="43.54642" lon="3.89636">
        <ele>6.3</ele>
        <time>2017-10-27T07:44:18.437Z</time>
      </trkpt>
      <trkpt lat="43.54636" lon="3.89635">
        <ele>6.3</ele>
        <time>2017-10-27T07:44:19.432Z</time>
      </trkpt>
      <trkpt lat="43.54631" lon="3.89634">
        <ele>6.3</ele>
        <time>2017-10-27T07:44:20.447Z</time>
      </trkpt>
      <trkpt lat="43.54626" lon="3.89634">
        <ele>6.2</ele>
        <time>2017-10-27T07:44:21.451Z</time>
      </trkpt>
      <trkpt lat="43.5462" lon="3.89633">
        <ele>6.2</ele>
        <time>2017-10-27T07:44:22.450Z</time>
      </trkpt>
      <trkpt lat="43.54615" lon="3.89632">
        <ele>6.2</ele>
        <time>2017-10-27T07:44:23.448Z</time>
      </trkpt>
      <trkpt lat="43.5461" lon="3.89631">
        <ele>6.2</ele>
        <time>2017-10-27T07:44:24.447Z</time>
      </trkpt>
      <trkpt lat="43.54604" lon="3.8963">
        <ele>6.2</ele>
        <time>2017-10-27T07:44:25.446Z</time>
      </trkpt>
      <trkpt lat="43.54599" lon="3.89629">
        <ele>6.2</ele>
        <time>2017-10-27T07:44:26.446Z</time>
      </trkpt>
      <trkpt lat="43.54594" lon="3.89629">
        <ele>6.2</ele>
        <time>2017-10-27T07:44:27.448Z</time>
      </trkpt>
      <trkpt lat="43.54588" lon="3.89628">
        <ele>6.2</ele>
        <time>2017-10-27T07:44:28.446Z</time>
      </trkpt>
      <trkpt lat="43.54583" lon="3.89627">
        <ele>6.2</ele>
        <time>2017-10-27T07:44:29.446Z</time>
      </trkpt>
      <trkpt lat="43.54578" lon="3.89627">
        <ele>6.2</ele>
        <time>2017-10-27T07:44:30.445Z</time>
      </trkpt>
      <trkpt lat="43.54572" lon="3.89626">
        <ele>6.2</ele>
        <time>2017-10-27T07:44:31.445Z</time>
      </trkpt>
      <trkpt lat="43.54567" lon="3.89626">
        <ele>6.2</ele>
        <time>2017-10-27T07:44:32.445Z</time>
      </trkpt>
      <trkpt lat="43.54561" lon="3.89625">
        <ele>6.2</ele>
        <time>2017-10-27T07:44:33.446Z</time>
      </trkpt>
      <trkpt lat="43.54556" lon="3.89625">
        <ele>6.1</ele>
        <time>2017-10-27T07:44:34.445Z</time>
      </trkpt>
      <trkpt lat="43.54551" lon="3.89626">
        <ele>6.1</ele>
        <time>2017-10-27T07:44:35.444Z</time>
      </trkpt>
      <trkpt lat="43.54545" lon="3.89626">
        <ele>6.1</ele>
        <time>2017-10-27T07:44:36.440Z</time>
      </trkpt>
      <trkpt lat="43.5454" lon="3.89627">
        <ele>6</ele>
        <time>2017-10-27T07:44:37.446Z</time>
      </trkpt>
      <trkpt lat="43.54534" lon="3.89627">
        <ele>6</ele>
        <time>2017-10-27T07:44:38.446Z</time>
      </trkpt>
      <trkpt lat="43.54529" lon="3.89628">
        <ele>6</ele>
        <time>2017-10-27T07:44:39.440Z</time>
      </trkpt>
      <trkpt lat="43.54523" lon="3.89628">
        <ele>6</ele>
        <time>2017-10-27T07:44:40.433Z</time>
      </trkpt>
      <trkpt lat="43.54518" lon="3.89629">
        <ele>6</ele>
        <time>2017-10-27T07:44:41.433Z</time>
      </trkpt>
      <trkpt lat="43.54512" lon="3.8963">
        <ele>6</ele>
        <time>2017-10-27T07:44:42.434Z</time>
      </trkpt>
      <trkpt lat="43.54507" lon="3.8963">
        <ele>6</ele>
        <time>2017-10-27T07:44:43.446Z</time>
      </trkpt>
      <trkpt lat="43.54501" lon="3.89631">
        <ele>6</ele>
        <time>2017-10-27T07:44:44.450Z</time>
      </trkpt>
      <trkpt lat="43.54496" lon="3.89632">
        <ele>5.9</ele>
        <time>2017-10-27T07:44:45.445Z</time>
      </trkpt>
      <trkpt lat="43.5449" lon="3.89633">
        <ele>5.9</ele>
        <time>2017-10-27T07:44:46.433Z</time>
      </trkpt>
      <trkpt lat="43.54485" lon="3.89634">
        <ele>5.9</ele>
        <time>2017-10-27T07:44:47.432Z</time>
      </trkpt>
      <trkpt lat="43.54479" lon="3.89635">
        <ele>5.9</ele>
        <time>2017-10-27T07:44:48.456Z</time>
      </trkpt>
      <trkpt lat="43.54474" lon="3.89637">
        <ele>5.9</ele>
        <time>2017-10-27T07:44:49.445Z</time>
      </trkpt>
      <trkpt lat="43.54468" lon="3.89638">
        <ele>5.9</ele>
        <time>2017-10-27T07:44:50.440Z</time>
      </trkpt>
      <trkpt lat="43.54463" lon="3.8964">
        <ele>5.9</ele>
        <time>2017-10-27T07:44:51.441Z</time>
      </trkpt>
      <trkpt lat="43.54457" lon="3.89641">
        <ele>5.8</ele>
        <time>2017-10-27T07:44:52.444Z</time>
      </trkpt>
      <trkpt lat="43.54452" lon="3.89643">
        <ele>5.9</ele>
        <time>2017-10-27T07:44:53.445Z</time>
      </trkpt>
      <trkpt lat="43.54447" lon="3.89644">
        <ele>5.9</ele>
        <time>2017-10-27T07:44:54.446Z</time>
      </trkpt>
      <trkpt lat="43.54441" lon="3.89645">
        <ele>5.8</ele>
        <time>2017-10-27T07:44:55.460Z</time>
      </trkpt>
      <trkpt lat="43.54436" lon="3.89646">
        <ele>5.8</ele>
        <time>2017-10-27T07:44:56.445Z</time>
      </trkpt>
      <trkpt lat="43.54431" lon="3.89648">
        <ele>5.8</ele>
        <time>2017-10-27T07:44:57.432Z</time>
      </trkpt>
      <trkpt lat="43.54425" lon="3.89649">
        <ele>5.8</ele>
        <time>2017-10-27T07:44:58.445Z</time>
      </trkpt>
      <trkpt lat="43.5442" lon="3.8965">
        <ele>5.8</ele>
        <time>2017-10-27T07:44:59.445Z</time>
      </trkpt>
      <trkpt lat="43.54415" lon="3.89651">
        <ele>5.8</ele>
        <time>2017-10-27T07:45:00.433Z</time>
      </trkpt>
      <trkpt lat="43.5441" lon="3.89652">
        <ele>5.8</ele>
        <time>2017-10-27T07:45:01.431Z</time>
      </trkpt>
      <trkpt lat="43.54405" lon="3.89653">
        <ele>5.9</ele>
        <time>2017-10-27T07:45:02.437Z</time>
      </trkpt>
      <trkpt lat="43.544" lon="3.89654">
        <ele>5.9</ele>
        <time>2017-10-27T07:45:03.433Z</time>
      </trkpt>
      <trkpt lat="43.54395" lon="3.89655">
        <ele>6</ele>
        <time>2017-10-27T07:45:04.432Z</time>
      </trkpt>
      <trkpt lat="43.54391" lon="3.89656">
        <ele>6</ele>
        <time>2017-10-27T07:45:05.446Z</time>
      </trkpt>
      <trkpt lat="43.54386" lon="3.89658">
        <ele>6</ele>
        <time>2017-10-27T07:45:06.447Z</time>
      </trkpt>
      <trkpt lat="43.54381" lon="3.89659">
        <ele>6</ele>
        <time>2017-10-27T07:45:07.445Z</time>
      </trkpt>
      <trkpt lat="43.54376" lon="3.8966">
        <ele>5.9</ele>
        <time>2017-10-27T07:45:08.446Z</time>
      </trkpt>
      <trkpt lat="43.54371" lon="3.89661">
        <ele>5.8</ele>
        <time>2017-10-27T07:45:09.446Z</time>
      </trkpt>
      <trkpt lat="43.54366" lon="3.89662">
        <ele>5.8</ele>
        <time>2017-10-27T07:45:10.445Z</time>
      </trkpt>
      <trkpt lat="43.54361" lon="3.89664">
        <ele>5.8</ele>
        <time>2017-10-27T07:45:11.445Z</time>
      </trkpt>
      <trkpt lat="43.54356" lon="3.89665">
        <ele>5.8</ele>
        <time>2017-10-27T07:45:12.446Z</time>
      </trkpt>
      <trkpt lat="43.54351" lon="3.89667">
        <ele>5.8</ele>
        <time>2017-10-27T07:45:13.450Z</time>
      </trkpt>
      <trkpt lat="43.54347" lon="3.89668">
        <ele>5.8</ele>
        <time>2017-10-27T07:45:14.447Z</time>
      </trkpt>
      <trkpt lat="43.54342" lon="3.89669">
        <ele>5.8</ele>
        <time>2017-10-27T07:45:15.448Z</time>
      </trkpt>
      <trkpt lat="43.54336" lon="3.89671">
        <ele>5.7</ele>
        <time>2017-10-27T07:45:16.437Z</time>
      </trkpt>
      <trkpt lat="43.54331" lon="3.89672">
        <ele>5.7</ele>
        <time>2017-10-27T07:45:17.435Z</time>
      </trkpt>
      <trkpt lat="43.54326" lon="3.89674">
        <ele>5.6</ele>
        <time>2017-10-27T07:45:18.448Z</time>
      </trkpt>
      <trkpt lat="43.54321" lon="3.89675">
        <ele>5.6</ele>
        <time>2017-10-27T07:45:19.442Z</time>
      </trkpt>
      <trkpt lat="43.54315" lon="3.89676">
        <ele>5.6</ele>
        <time>2017-10-27T07:45:20.445Z</time>
      </trkpt>
      <trkpt lat="43.5431" lon="3.89678">
        <ele>5.6</ele>
        <time>2017-10-27T07:45:21.449Z</time>
      </trkpt>
      <trkpt lat="43.54305" lon="3.8968">
        <ele>5.6</ele>
        <time>2017-10-27T07:45:22.454Z</time>
      </trkpt>
      <trkpt lat="43.54299" lon="3.89681">
        <ele>5.7</ele>
        <time>2017-10-27T07:45:23.456Z</time>
      </trkpt>
      <trkpt lat="43.54294" lon="3.89683">
        <ele>5.7</ele>
        <time>2017-10-27T07:45:24.434Z</time>
      </trkpt>
      <trkpt lat="43.54289" lon="3.89684">
        <ele>5.7</ele>
        <time>2017-10-27T07:45:25.433Z</time>
      </trkpt>
      <trkpt lat="43.54284" lon="3.89685">
        <ele>5.7</ele>
        <time>2017-10-27T07:45:26.433Z</time>
      </trkpt>
      <trkpt lat="43.54278" lon="3.89687">
        <ele>5.6</ele>
        <time>2017-10-27T07:45:27.433Z</time>
      </trkpt>
      <trkpt lat="43.54273" lon="3.89688">
        <ele>5.6</ele>
        <time>2017-10-27T07:45:28.432Z</time>
      </trkpt>
      <trkpt lat="43.54267" lon="3.89689">
        <ele>5.5</ele>
        <time>2017-10-27T07:45:29.450Z</time>
      </trkpt>
      <trkpt lat="43.54262" lon="3.8969">
        <ele>5.5</ele>
        <time>2017-10-27T07:45:30.451Z</time>
      </trkpt>
      <trkpt lat="43.54257" lon="3.89691">
        <ele>5.6</ele>
        <time>2017-10-27T07:45:31.456Z</time>
      </trkpt>
      <trkpt lat="43.54251" lon="3.89692">
        <ele>5.6</ele>
        <time>2017-10-27T07:45:32.446Z</time>
      </trkpt>
      <trkpt lat="43.54246" lon="3.89694">
        <ele>5.5</ele>
        <time>2017-10-27T07:45:33.446Z</time>
      </trkpt>
      <trkpt lat="43.54241" lon="3.89696">
        <ele>5.5</ele>
        <time>2017-10-27T07:45:34.445Z</time>
      </trkpt>
      <trkpt lat="43.54236" lon="3.89697">
        <ele>5.5</ele>
        <time>2017-10-27T07:45:35.438Z</time>
      </trkpt>
      <trkpt lat="43.5423" lon="3.897">
        <ele>5.5</ele>
        <time>2017-10-27T07:45:36.447Z</time>
      </trkpt>
      <trkpt lat="43.54225" lon="3.89702">
        <ele>5.5</ele>
        <time>2017-10-27T07:45:37.448Z</time>
      </trkpt>
      <trkpt lat="43.5422" lon="3.89704">
        <ele>5.5</ele>
        <time>2017-10-27T07:45:38.454Z</time>
      </trkpt>
      <trkpt lat="43.54215" lon="3.89707">
        <ele>5.5</ele>
        <time>2017-10-27T07:45:39.449Z</time>
      </trkpt>
      <trkpt lat="43.5421" lon="3.89711">
        <ele>5.5</ele>
        <time>2017-10-27T07:45:40.447Z</time>
      </trkpt>
      <trkpt lat="43.54206" lon="3.89714">
        <ele>5.4</ele>
        <time>2017-10-27T07:45:41.445Z</time>
      </trkpt>
      <trkpt lat="43.54201" lon="3.89718">
        <ele>5.4</ele>
        <time>2017-10-27T07:45:42.447Z</time>
      </trkpt>
      <trkpt lat="43.54197" lon="3.89721">
        <ele>5.5</ele>
        <time>2017-10-27T07:45:43.433Z</time>
      </trkpt>
      <trkpt lat="43.54192" lon="3.89723">
        <ele>5.5</ele>
        <time>2017-10-27T07:45:44.433Z</time>
      </trkpt>
      <trkpt lat="43.54187" lon="3.89725">
        <ele>5.4</ele>
        <time>2017-10-27T07:45:45.443Z</time>
      </trkpt>
      <trkpt lat="43.54183" lon="3.89728">
        <ele>5.4</ele>
        <time>2017-10-27T07:45:46.446Z</time>
      </trkpt>
      <trkpt lat="43.54178" lon="3.89729">
        <ele>5.4</ele>
        <time>2017-10-27T07:45:47.448Z</time>
      </trkpt>
      <trkpt lat="43.54174" lon="3.89731">
        <ele>5.4</ele>
        <time>2017-10-27T07:45:48.456Z</time>
      </trkpt>
      <trkpt lat="43.5417" lon="3.89732">
        <ele>5.4</ele>
        <time>2017-10-27T07:45:49.451Z</time>
      </trkpt>
      <trkpt lat="43.54165" lon="3.89734">
        <ele>5.3</ele>
        <time>2017-10-27T07:45:50.437Z</time>
      </trkpt>
      <trkpt lat="43.54161" lon="3.89735">
        <ele>5.3</ele>
        <time>2017-10-27T07:45:51.446Z</time>
      </trkpt>
      <trkpt lat="43.54157" lon="3.89737">
        <ele>5.2</ele>
        <time>2017-10-27T07:45:52.445Z</time>
      </trkpt>
      <trkpt lat="43.54153" lon="3.89738">
        <ele>5.1</ele>
        <time>2017-10-27T07:45:53.445Z</time>
      </trkpt>
      <trkpt lat="43.54148" lon="3.89739">
        <ele>5.1</ele>
        <time>2017-10-27T07:45:54.447Z</time>
      </trkpt>
      <trkpt lat="43.54144" lon="3.8974">
        <ele>5.1</ele>
        <time>2017-10-27T07:45:55.454Z</time>
      </trkpt>
      <trkpt lat="43.5414" lon="3.89742">
        <ele>5.1</ele>
        <time>2017-10-27T07:45:56.447Z</time>
      </trkpt>
      <trkpt lat="43.54136" lon="3.89742">
        <ele>5.2</ele>
        <time>2017-10-27T07:45:57.438Z</time>
      </trkpt>
      <trkpt lat="43.54132" lon="3.89743">
        <ele>5.2</ele>
        <time>2017-10-27T07:45:58.445Z</time>
      </trkpt>
      <trkpt lat="43.54129" lon="3.89743">
        <ele>5.2</ele>
        <time>2017-10-27T07:45:59.450Z</time>
      </trkpt>
      <trkpt lat="43.54126" lon="3.89743">
        <ele>5.2</ele>
        <time>2017-10-27T07:46:00.451Z</time>
      </trkpt>
      <trkpt lat="43.54122" lon="3.89743">
        <ele>5.2</ele>
        <time>2017-10-27T07:46:01.448Z</time>
      </trkpt>
      <trkpt lat="43.54119" lon="3.89742">
        <ele>5.2</ele>
        <time>2017-10-27T07:46:02.446Z</time>
      </trkpt>
      <trkpt lat="43.54116" lon="3.89741">
        <ele>5.2</ele>
        <time>2017-10-27T07:46:03.449Z</time>
      </trkpt>
      <trkpt lat="43.54113" lon="3.8974">
        <ele>5.2</ele>
        <time>2017-10-27T07:46:04.447Z</time>
      </trkpt>
      <trkpt lat="43.5411" lon="3.89739">
        <ele>5.3</ele>
        <time>2017-10-27T07:46:05.442Z</time>
      </trkpt>
      <trkpt lat="43.54108" lon="3.8974">
        <ele>5.4</ele>
        <time>2017-10-27T07:46:06.436Z</time>
      </trkpt>
      <trkpt lat="43.54105" lon="3.8974">
        <ele>5.5</ele>
        <time>2017-10-27T07:46:07.435Z</time>
      </trkpt>
      <trkpt lat="43.54103" lon="3.89741">
        <ele>5.5</ele>
        <time>2017-10-27T07:46:08.433Z</time>
      </trkpt>
      <trkpt lat="43.54101" lon="3.89742">
        <ele>5.5</ele>
        <time>2017-10-27T07:46:09.454Z</time>
      </trkpt>
      <trkpt lat="43.54099" lon="3.89743">
        <ele>5.5</ele>
        <time>2017-10-27T07:46:10.446Z</time>
      </trkpt>
      <trkpt lat="43.54097" lon="3.89744">
        <ele>5.4</ele>
        <time>2017-10-27T07:46:11.447Z</time>
      </trkpt>
      <trkpt lat="43.54095" lon="3.89745">
        <ele>5.4</ele>
        <time>2017-10-27T07:46:12.448Z</time>
      </trkpt>
      <trkpt lat="43.54092" lon="3.89746">
        <ele>5.3</ele>
        <time>2017-10-27T07:46:13.451Z</time>
      </trkpt>
      <trkpt lat="43.5409" lon="3.89746">
        <ele>5.3</ele>
        <time>2017-10-27T07:46:14.447Z</time>
      </trkpt>
      <trkpt lat="43.54088" lon="3.89747">
        <ele>5.3</ele>
        <time>2017-10-27T07:46:15.448Z</time>
      </trkpt>
      <trkpt lat="43.54085" lon="3.89748">
        <ele>5.3</ele>
        <time>2017-10-27T07:46:16.454Z</time>
      </trkpt>
      <trkpt lat="43.54083" lon="3.89749">
        <ele>5.3</ele>
        <time>2017-10-27T07:46:17.446Z</time>
      </trkpt>
      <trkpt lat="43.5408" lon="3.8975">
        <ele>5.4</ele>
        <time>2017-10-27T07:46:18.454Z</time>
      </trkpt>
      <trkpt lat="43.54078" lon="3.89752">
        <ele>5.3</ele>
        <time>2017-10-27T07:46:19.447Z</time>
      </trkpt>
      <trkpt lat="43.54075" lon="3.89753">
        <ele>5.2</ele>
        <time>2017-10-27T07:46:20.446Z</time>
      </trkpt>
      <trkpt lat="43.54072" lon="3.89754">
        <ele>5.2</ele>
        <time>2017-10-27T07:46:21.447Z</time>
      </trkpt>
      <trkpt lat="43.54068" lon="3.89755">
        <ele>5.2</ele>
        <time>2017-10-27T07:46:22.454Z</time>
      </trkpt>
      <trkpt lat="43.54065" lon="3.89757">
        <ele>5.1</ele>
        <time>2017-10-27T07:46:23.446Z</time>
      </trkpt>
      <trkpt lat="43.54062" lon="3.89758">
        <ele>5.1</ele>
        <time>2017-10-27T07:46:24.434Z</time>
      </trkpt>
      <trkpt lat="43.54058" lon="3.8976">
        <ele>5</ele>
        <time>2017-10-27T07:46:25.431Z</time>
      </trkpt>
      <trkpt lat="43.54055" lon="3.89762">
        <ele>5</ele>
        <time>2017-10-27T07:46:26.432Z</time>
      </trkpt>
      <trkpt lat="43.54052" lon="3.89765">
        <ele>5</ele>
        <time>2017-10-27T07:46:27.432Z</time>
      </trkpt>
      <trkpt lat="43.54049" lon="3.89768">
        <ele>5</ele>
        <time>2017-10-27T07:46:28.448Z</time>
      </trkpt>
      <trkpt lat="43.54046" lon="3.89772">
        <ele>4.9</ele>
        <time>2017-10-27T07:46:29.431Z</time>
      </trkpt>
      <trkpt lat="43.54045" lon="3.89777">
        <ele>4.9</ele>
        <time>2017-10-27T07:46:30.442Z</time>
      </trkpt>
      <trkpt lat="43.54043" lon="3.89782">
        <ele>4.8</ele>
        <time>2017-10-27T07:46:31.443Z</time>
      </trkpt>
      <trkpt lat="43.54042" lon="3.89788">
        <ele>4.7</ele>
        <time>2017-10-27T07:46:32.437Z</time>
      </trkpt>
      <trkpt lat="43.5404" lon="3.89794">
        <ele>4.6</ele>
        <time>2017-10-27T07:46:33.476Z</time>
      </trkpt>
      <trkpt lat="43.54038" lon="3.89799">
        <ele>4.5</ele>
        <time>2017-10-27T07:46:34.441Z</time>
      </trkpt>
      <trkpt lat="43.54036" lon="3.89804">
        <ele>4.4</ele>
        <time>2017-10-27T07:46:35.462Z</time>
      </trkpt>
      <trkpt lat="43.54033" lon="3.89809">
        <ele>4.4</ele>
        <time>2017-10-27T07:46:36.463Z</time>
      </trkpt>
      <trkpt lat="43.5403" lon="3.89814">
        <ele>4.3</ele>
        <time>2017-10-27T07:46:37.463Z</time>
      </trkpt>
      <trkpt lat="43.54027" lon="3.89818">
        <ele>4.1</ele>
        <time>2017-10-27T07:46:38.447Z</time>
      </trkpt>
      <trkpt lat="43.54024" lon="3.89822">
        <ele>4.1</ele>
        <time>2017-10-27T07:46:39.447Z</time>
      </trkpt>
      <trkpt lat="43.54023" lon="3.89827">
        <ele>4</ele>
        <time>2017-10-27T07:46:40.447Z</time>
      </trkpt>
      <trkpt lat="43.54022" lon="3.89832">
        <ele>3.9</ele>
        <time>2017-10-27T07:46:41.446Z</time>
      </trkpt>
      <trkpt lat="43.54021" lon="3.89837">
        <ele>3.7</ele>
        <time>2017-10-27T07:46:42.448Z</time>
      </trkpt>
      <trkpt lat="43.54019" lon="3.89842">
        <ele>3.6</ele>
        <time>2017-10-27T07:46:43.446Z</time>
      </trkpt>
      <trkpt lat="43.54018" lon="3.89847">
        <ele>3.5</ele>
        <time>2017-10-27T07:46:44.446Z</time>
      </trkpt>
      <trkpt lat="43.54015" lon="3.89852">
        <ele>3.4</ele>
        <time>2017-10-27T07:46:45.447Z</time>
      </trkpt>
      <trkpt lat="43.54013" lon="3.89857">
        <ele>3.4</ele>
        <time>2017-10-27T07:46:46.446Z</time>
      </trkpt>
      <trkpt lat="43.54009" lon="3.8986">
        <ele>3.3</ele>
        <time>2017-10-27T07:46:47.446Z</time>
      </trkpt>
      <trkpt lat="43.54004" lon="3.89862">
        <ele>3.2</ele>
        <time>2017-10-27T07:46:48.455Z</time>
      </trkpt>
      <trkpt lat="43.53999" lon="3.89863">
        <ele>3.2</ele>
        <time>2017-10-27T07:46:49.432Z</time>
      </trkpt>
      <trkpt lat="43.53994" lon="3.89864">
        <ele>3.2</ele>
        <time>2017-10-27T07:46:50.432Z</time>
      </trkpt>
      <trkpt lat="43.53989" lon="3.89865">
        <ele>3.1</ele>
        <time>2017-10-27T07:46:51.433Z</time>
      </trkpt>
      <trkpt lat="43.53984" lon="3.89866">
        <ele>3</ele>
        <time>2017-10-27T07:46:52.462Z</time>
      </trkpt>
      <trkpt lat="43.53978" lon="3.89868">
        <ele>3</ele>
        <time>2017-10-27T07:46:53.448Z</time>
      </trkpt>
      <trkpt lat="43.53973" lon="3.89871">
        <ele>2.9</ele>
        <time>2017-10-27T07:46:54.454Z</time>
      </trkpt>
      <trkpt lat="43.53969" lon="3.89875">
        <ele>2.9</ele>
        <time>2017-10-27T07:46:55.446Z</time>
      </trkpt>
      <trkpt lat="43.53964" lon="3.89879">
        <ele>2.9</ele>
        <time>2017-10-27T07:46:56.454Z</time>
      </trkpt>
      <trkpt lat="43.5396" lon="3.89885">
        <ele>2.8</ele>
        <time>2017-10-27T07:46:57.451Z</time>
      </trkpt>
      <trkpt lat="43.53956" lon="3.89891">
        <ele>2.8</ele>
        <time>2017-10-27T07:46:58.452Z</time>
      </trkpt>
      <trkpt lat="43.53952" lon="3.89897">
        <ele>2.8</ele>
        <time>2017-10-27T07:46:59.446Z</time>
      </trkpt>
      <trkpt lat="43.53948" lon="3.89903">
        <ele>2.8</ele>
        <time>2017-10-27T07:47:00.448Z</time>
      </trkpt>
      <trkpt lat="43.53944" lon="3.89909">
        <ele>2.7</ele>
        <time>2017-10-27T07:47:01.445Z</time>
      </trkpt>
      <trkpt lat="43.5394" lon="3.89916">
        <ele>2.7</ele>
        <time>2017-10-27T07:47:02.449Z</time>
      </trkpt>
      <trkpt lat="43.53936" lon="3.89922">
        <ele>2.6</ele>
        <time>2017-10-27T07:47:03.445Z</time>
      </trkpt>
      <trkpt lat="43.53932" lon="3.89929">
        <ele>2.6</ele>
        <time>2017-10-27T07:47:04.444Z</time>
      </trkpt>
      <trkpt lat="43.53928" lon="3.89936">
        <ele>2.6</ele>
        <time>2017-10-27T07:47:05.448Z</time>
      </trkpt>
      <trkpt lat="43.53924" lon="3.89943">
        <ele>2.6</ele>
        <time>2017-10-27T07:47:06.458Z</time>
      </trkpt>
      <trkpt lat="43.53919" lon="3.8995">
        <ele>2.6</ele>
        <time>2017-10-27T07:47:07.455Z</time>
      </trkpt>
      <trkpt lat="43.53915" lon="3.89956">
        <ele>2.6</ele>
        <time>2017-10-27T07:47:08.455Z</time>
      </trkpt>
      <trkpt lat="43.53911" lon="3.89963">
        <ele>2.6</ele>
        <time>2017-10-27T07:47:09.447Z</time>
      </trkpt>
      <trkpt lat="43.53906" lon="3.8997">
        <ele>2.5</ele>
        <time>2017-10-27T07:47:10.445Z</time>
      </trkpt>
      <trkpt lat="43.53902" lon="3.89977">
        <ele>2.5</ele>
        <time>2017-10-27T07:47:11.445Z</time>
      </trkpt>
      <trkpt lat="43.53898" lon="3.89984">
        <ele>2.4</ele>
        <time>2017-10-27T07:47:12.453Z</time>
      </trkpt>
      <trkpt lat="43.53893" lon="3.89991">
        <ele>2.4</ele>
        <time>2017-10-27T07:47:13.431Z</time>
      </trkpt>
      <trkpt lat="43.53889" lon="3.89998">
        <ele>2.3</ele>
        <time>2017-10-27T07:47:14.432Z</time>
      </trkpt>
      <trkpt lat="43.53884" lon="3.90005">
        <ele>2.3</ele>
        <time>2017-10-27T07:47:15.432Z</time>
      </trkpt>
      <trkpt lat="43.5388" lon="3.90012">
        <ele>2.3</ele>
        <time>2017-10-27T07:47:16.432Z</time>
      </trkpt>
      <trkpt lat="43.53875" lon="3.90019">
        <ele>2.3</ele>
        <time>2017-10-27T07:47:17.432Z</time>
      </trkpt>
      <trkpt lat="43.53871" lon="3.90027">
        <ele>2.3</ele>
        <time>2017-10-27T07:47:18.446Z</time>
      </trkpt>
      <trkpt lat="43.53866" lon="3.90034">
        <ele>2.2</ele>
        <time>2017-10-27T07:47:19.446Z</time>
      </trkpt>
      <trkpt lat="43.53862" lon="3.90041">
        <ele>2.2</ele>
        <time>2017-10-27T07:47:20.445Z</time>
      </trkpt>
      <trkpt lat="43.53857" lon="3.90049">
        <ele>2.3</ele>
        <time>2017-10-27T07:47:21.451Z</time>
      </trkpt>
      <trkpt lat="43.53853" lon="3.90056">
        <ele>2.3</ele>
        <time>2017-10-27T07:47:22.447Z</time>
      </trkpt>
      <trkpt lat="43.53848" lon="3.90063">
        <ele>2.3</ele>
        <time>2017-10-27T07:47:23.455Z</time>
      </trkpt>
      <trkpt lat="43.53844" lon="3.9007">
        <ele>2.3</ele>
        <time>2017-10-27T07:47:24.448Z</time>
      </trkpt>
      <trkpt lat="43.5384" lon="3.90077">
        <ele>2.3</ele>
        <time>2017-10-27T07:47:25.446Z</time>
      </trkpt>
      <trkpt lat="43.53835" lon="3.90085">
        <ele>2.3</ele>
        <time>2017-10-27T07:47:26.445Z</time>
      </trkpt>
      <trkpt lat="43.53831" lon="3.90092">
        <ele>2.3</ele>
        <time>2017-10-27T07:47:27.438Z</time>
      </trkpt>
      <trkpt lat="43.53827" lon="3.90099">
        <ele>2.3</ele>
        <time>2017-10-27T07:47:28.431Z</time>
      </trkpt>
      <trkpt lat="43.53822" lon="3.90106">
        <ele>2.3</ele>
        <time>2017-10-27T07:47:29.445Z</time>
      </trkpt>
      <trkpt lat="43.53818" lon="3.90113">
        <ele>2.3</ele>
        <time>2017-10-27T07:47:30.447Z</time>
      </trkpt>
      <trkpt lat="43.53814" lon="3.9012">
        <ele>2.4</ele>
        <time>2017-10-27T07:47:31.446Z</time>
      </trkpt>
      <trkpt lat="43.53809" lon="3.90127">
        <ele>2.4</ele>
        <time>2017-10-27T07:47:32.446Z</time>
      </trkpt>
      <trkpt lat="43.53805" lon="3.90133">
        <ele>2.4</ele>
        <time>2017-10-27T07:47:33.445Z</time>
      </trkpt>
      <trkpt lat="43.53801" lon="3.9014">
        <ele>2.5</ele>
        <time>2017-10-27T07:47:34.439Z</time>
      </trkpt>
      <trkpt lat="43.53796" lon="3.90147">
        <ele>2.6</ele>
        <time>2017-10-27T07:47:35.432Z</time>
      </trkpt>
      <trkpt lat="43.53792" lon="3.90154">
        <ele>2.6</ele>
        <time>2017-10-27T07:47:36.434Z</time>
      </trkpt>
      <trkpt lat="43.53788" lon="3.9016">
        <ele>2.5</ele>
        <time>2017-10-27T07:47:37.438Z</time>
      </trkpt>
      <trkpt lat="43.53783" lon="3.90167">
        <ele>2.4</ele>
        <time>2017-10-27T07:47:38.435Z</time>
      </trkpt>
      <trkpt lat="43.53778" lon="3.90173">
        <ele>2.3</ele>
        <time>2017-10-27T07:47:39.464Z</time>
      </trkpt>
      <trkpt lat="43.53773" lon="3.9018">
        <ele>2.3</ele>
        <time>2017-10-27T07:47:40.447Z</time>
      </trkpt>
      <trkpt lat="43.53768" lon="3.90186">
        <ele>2.2</ele>
        <time>2017-10-27T07:47:41.465Z</time>
      </trkpt>
      <trkpt lat="43.53762" lon="3.90192">
        <ele>2.2</ele>
        <time>2017-10-27T07:47:42.448Z</time>
      </trkpt>
      <trkpt lat="43.53757" lon="3.90199">
        <ele>2.2</ele>
        <time>2017-10-27T07:47:43.446Z</time>
      </trkpt>
      <trkpt lat="43.53752" lon="3.90206">
        <ele>2.2</ele>
        <time>2017-10-27T07:47:44.446Z</time>
      </trkpt>
      <trkpt lat="43.53747" lon="3.90212">
        <ele>2.2</ele>
        <time>2017-10-27T07:47:45.446Z</time>
      </trkpt>
      <trkpt lat="43.53741" lon="3.90219">
        <ele>2.2</ele>
        <time>2017-10-27T07:47:46.452Z</time>
      </trkpt>
      <trkpt lat="43.53736" lon="3.90225">
        <ele>2.3</ele>
        <time>2017-10-27T07:47:47.449Z</time>
      </trkpt>
      <trkpt lat="43.53731" lon="3.90232">
        <ele>2.3</ele>
        <time>2017-10-27T07:47:48.451Z</time>
      </trkpt>
      <trkpt lat="43.53726" lon="3.90238">
        <ele>2.3</ele>
        <time>2017-10-27T07:47:49.446Z</time>
      </trkpt>
      <trkpt lat="43.53721" lon="3.90245">
        <ele>2.2</ele>
        <time>2017-10-27T07:47:50.446Z</time>
      </trkpt>
      <trkpt lat="43.53716" lon="3.90251">
        <ele>2.2</ele>
        <time>2017-10-27T07:47:51.446Z</time>
      </trkpt>
      <trkpt lat="43.53711" lon="3.90258">
        <ele>2.2</ele>
        <time>2017-10-27T07:47:52.450Z</time>
      </trkpt>
      <trkpt lat="43.53707" lon="3.90265">
        <ele>2.3</ele>
        <time>2017-10-27T07:47:53.437Z</time>
      </trkpt>
      <trkpt lat="43.53702" lon="3.90271">
        <ele>2.3</ele>
        <time>2017-10-27T07:47:54.434Z</time>
      </trkpt>
      <trkpt lat="43.53698" lon="3.90278">
        <ele>2.4</ele>
        <time>2017-10-27T07:47:55.434Z</time>
      </trkpt>
      <trkpt lat="43.53693" lon="3.90285">
        <ele>2.4</ele>
        <time>2017-10-27T07:47:56.432Z</time>
      </trkpt>
      <trkpt lat="43.53689" lon="3.90291">
        <ele>2.3</ele>
        <time>2017-10-27T07:47:57.437Z</time>
      </trkpt>
      <trkpt lat="43.53684" lon="3.90298">
        <ele>2.3</ele>
        <time>2017-10-27T07:47:58.446Z</time>
      </trkpt>
      <trkpt lat="43.5368" lon="3.90305">
        <ele>2.3</ele>
        <time>2017-10-27T07:47:59.446Z</time>
      </trkpt>
      <trkpt lat="43.53675" lon="3.90311">
        <ele>2.4</ele>
        <time>2017-10-27T07:48:00.449Z</time>
      </trkpt>
      <trkpt lat="43.53671" lon="3.90318">
        <ele>2.5</ele>
        <time>2017-10-27T07:48:01.446Z</time>
      </trkpt>
      <trkpt lat="43.53667" lon="3.90324">
        <ele>2.5</ele>
        <time>2017-10-27T07:48:02.447Z</time>
      </trkpt>
      <trkpt lat="43.53663" lon="3.90331">
        <ele>2.6</ele>
        <time>2017-10-27T07:48:03.446Z</time>
      </trkpt>
      <trkpt lat="43.53659" lon="3.90337">
        <ele>2.7</ele>
        <time>2017-10-27T07:48:04.445Z</time>
      </trkpt>
      <trkpt lat="43.53655" lon="3.90344">
        <ele>2.7</ele>
        <time>2017-10-27T07:48:05.446Z</time>
      </trkpt>
      <trkpt lat="43.5365" lon="3.9035">
        <ele>2.8</ele>
        <time>2017-10-27T07:48:06.447Z</time>
      </trkpt>
      <trkpt lat="43.53646" lon="3.90356">
        <ele>2.9</ele>
        <time>2017-10-27T07:48:07.446Z</time>
      </trkpt>
      <trkpt lat="43.53642" lon="3.90363">
        <ele>2.9</ele>
        <time>2017-10-27T07:48:08.448Z</time>
      </trkpt>
      <trkpt lat="43.53638" lon="3.90369">
        <ele>2.9</ele>
        <time>2017-10-27T07:48:09.446Z</time>
      </trkpt>
      <trkpt lat="43.53634" lon="3.90376">
        <ele>2.9</ele>
        <time>2017-10-27T07:48:10.445Z</time>
      </trkpt>
      <trkpt lat="43.53629" lon="3.90382">
        <ele>2.9</ele>
        <time>2017-10-27T07:48:11.446Z</time>
      </trkpt>
      <trkpt lat="43.53625" lon="3.90389">
        <ele>2.8</ele>
        <time>2017-10-27T07:48:12.448Z</time>
      </trkpt>
      <trkpt lat="43.53621" lon="3.90395">
        <ele>2.8</ele>
        <time>2017-10-27T07:48:13.454Z</time>
      </trkpt>
      <trkpt lat="43.53617" lon="3.90402">
        <ele>2.8</ele>
        <time>2017-10-27T07:48:14.432Z</time>
      </trkpt>
      <trkpt lat="43.53612" lon="3.90408">
        <ele>2.8</ele>
        <time>2017-10-27T07:48:15.432Z</time>
      </trkpt>
      <trkpt lat="43.53608" lon="3.90415">
        <ele>2.8</ele>
        <time>2017-10-27T07:48:16.433Z</time>
      </trkpt>
      <trkpt lat="43.53604" lon="3.90421">
        <ele>2.8</ele>
        <time>2017-10-27T07:48:17.447Z</time>
      </trkpt>
      <trkpt lat="43.536" lon="3.90428">
        <ele>2.9</ele>
        <time>2017-10-27T07:48:18.524Z</time>
      </trkpt>
      <trkpt lat="43.53596" lon="3.90434">
        <ele>2.9</ele>
        <time>2017-10-27T07:48:19.454Z</time>
      </trkpt>
      <trkpt lat="43.53592" lon="3.90441">
        <ele>2.9</ele>
        <time>2017-10-27T07:48:20.456Z</time>
      </trkpt>
      <trkpt lat="43.53588" lon="3.90447">
        <ele>2.8</ele>
        <time>2017-10-27T07:48:21.446Z</time>
      </trkpt>
      <trkpt lat="43.53584" lon="3.90453">
        <ele>2.8</ele>
        <time>2017-10-27T07:48:22.446Z</time>
      </trkpt>
      <trkpt lat="43.5358" lon="3.90459">
        <ele>2.8</ele>
        <time>2017-10-27T07:48:23.447Z</time>
      </trkpt>
      <trkpt lat="43.53576" lon="3.90465">
        <ele>2.8</ele>
        <time>2017-10-27T07:48:24.452Z</time>
      </trkpt>
      <trkpt lat="43.53572" lon="3.90471">
        <ele>2.7</ele>
        <time>2017-10-27T07:48:25.445Z</time>
      </trkpt>
      <trkpt lat="43.53568" lon="3.90477">
        <ele>2.8</ele>
        <time>2017-10-27T07:48:26.448Z</time>
      </trkpt>
      <trkpt lat="43.53564" lon="3.90482">
        <ele>2.7</ele>
        <time>2017-10-27T07:48:27.436Z</time>
      </trkpt>
      <trkpt lat="43.53561" lon="3.90488">
        <ele>2.6</ele>
        <time>2017-10-27T07:48:28.447Z</time>
      </trkpt>
      <trkpt lat="43.53557" lon="3.90494">
        <ele>2.6</ele>
        <time>2017-10-27T07:48:29.445Z</time>
      </trkpt>
      <trkpt lat="43.53553" lon="3.905">
        <ele>2.5</ele>
        <time>2017-10-27T07:48:30.447Z</time>
      </trkpt>
      <trkpt lat="43.53549" lon="3.90506">
        <ele>2.5</ele>
        <time>2017-10-27T07:48:31.446Z</time>
      </trkpt>
      <trkpt lat="43.53545" lon="3.90512">
        <ele>2.5</ele>
        <time>2017-10-27T07:48:32.448Z</time>
      </trkpt>
      <trkpt lat="43.53542" lon="3.90517">
        <ele>2.6</ele>
        <time>2017-10-27T07:48:33.437Z</time>
      </trkpt>
      <trkpt lat="43.53538" lon="3.90523">
        <ele>2.6</ele>
        <time>2017-10-27T07:48:34.432Z</time>
      </trkpt>
      <trkpt lat="43.53534" lon="3.90529">
        <ele>2.6</ele>
        <time>2017-10-27T07:48:35.438Z</time>
      </trkpt>
      <trkpt lat="43.5353" lon="3.90535">
        <ele>2.7</ele>
        <time>2017-10-27T07:48:36.442Z</time>
      </trkpt>
      <trkpt lat="43.53526" lon="3.9054">
        <ele>2.6</ele>
        <time>2017-10-27T07:48:37.438Z</time>
      </trkpt>
      <trkpt lat="43.53523" lon="3.90545">
        <ele>2.6</ele>
        <time>2017-10-27T07:48:38.432Z</time>
      </trkpt>
      <trkpt lat="43.53519" lon="3.90551">
        <ele>2.5</ele>
        <time>2017-10-27T07:48:39.432Z</time>
      </trkpt>
      <trkpt lat="43.53515" lon="3.90556">
        <ele>2.5</ele>
        <time>2017-10-27T07:48:40.451Z</time>
      </trkpt>
      <trkpt lat="43.53511" lon="3.90562">
        <ele>2.5</ele>
        <time>2017-10-27T07:48:41.438Z</time>
      </trkpt>
      <trkpt lat="43.53507" lon="3.90567">
        <ele>2.5</ele>
        <time>2017-10-27T07:48:42.447Z</time>
      </trkpt>
      <trkpt lat="43.53503" lon="3.90572">
        <ele>2.5</ele>
        <time>2017-10-27T07:48:43.452Z</time>
      </trkpt>
      <trkpt lat="43.535" lon="3.90578">
        <ele>2.5</ele>
        <time>2017-10-27T07:48:44.446Z</time>
      </trkpt>
      <trkpt lat="43.53496" lon="3.90583">
        <ele>2.5</ele>
        <time>2017-10-27T07:48:45.446Z</time>
      </trkpt>
      <trkpt lat="43.53492" lon="3.90588">
        <ele>2.5</ele>
        <time>2017-10-27T07:48:46.445Z</time>
      </trkpt>
      <trkpt lat="43.53488" lon="3.90594">
        <ele>2.4</ele>
        <time>2017-10-27T07:48:47.446Z</time>
      </trkpt>
      <trkpt lat="43.53484" lon="3.90599">
        <ele>2.5</ele>
        <time>2017-10-27T07:48:48.447Z</time>
      </trkpt>
      <trkpt lat="43.53481" lon="3.90605">
        <ele>2.5</ele>
        <time>2017-10-27T07:48:49.446Z</time>
      </trkpt>
      <trkpt lat="43.53477" lon="3.90611">
        <ele>2.5</ele>
        <time>2017-10-27T07:48:50.446Z</time>
      </trkpt>
      <trkpt lat="43.53474" lon="3.90617">
        <ele>2.5</ele>
        <time>2017-10-27T07:48:51.433Z</time>
      </trkpt>
      <trkpt lat="43.53471" lon="3.90624">
        <ele>2.5</ele>
        <time>2017-10-27T07:48:52.432Z</time>
      </trkpt>
      <trkpt lat="43.53468" lon="3.9063">
        <ele>2.5</ele>
        <time>2017-10-27T07:48:53.433Z</time>
      </trkpt>
      <trkpt lat="43.53466" lon="3.90638">
        <ele>2.4</ele>
        <time>2017-10-27T07:48:54.436Z</time>
      </trkpt>
      <trkpt lat="43.53463" lon="3.90645">
        <ele>2.4</ele>
        <time>2017-10-27T07:48:55.447Z</time>
      </trkpt>
      <trkpt lat="43.53461" lon="3.90652">
        <ele>2.3</ele>
        <time>2017-10-27T07:48:56.447Z</time>
      </trkpt>
      <trkpt lat="43.5346" lon="3.9066">
        <ele>2.3</ele>
        <time>2017-10-27T07:48:57.435Z</time>
      </trkpt>
      <trkpt lat="43.53458" lon="3.90668">
        <ele>2.3</ele>
        <time>2017-10-27T07:48:58.450Z</time>
      </trkpt>
      <trkpt lat="43.53457" lon="3.90677">
        <ele>2.3</ele>
        <time>2017-10-27T07:48:59.448Z</time>
      </trkpt>
      <trkpt lat="43.53456" lon="3.90685">
        <ele>2.3</ele>
        <time>2017-10-27T07:49:00.453Z</time>
      </trkpt>
      <trkpt lat="43.53455" lon="3.90694">
        <ele>2.3</ele>
        <time>2017-10-27T07:49:01.447Z</time>
      </trkpt>
      <trkpt lat="43.53455" lon="3.90702">
        <ele>2.3</ele>
        <time>2017-10-27T07:49:02.447Z</time>
      </trkpt>
      <trkpt lat="43.53454" lon="3.90711">
        <ele>2.3</ele>
        <time>2017-10-27T07:49:03.447Z</time>
      </trkpt>
      <trkpt lat="43.53454" lon="3.90719">
        <ele>2.3</ele>
        <time>2017-10-27T07:49:04.445Z</time>
      </trkpt>
      <trkpt lat="43.53454" lon="3.90728">
        <ele>2.2</ele>
        <time>2017-10-27T07:49:05.447Z</time>
      </trkpt>
      <trkpt lat="43.53454" lon="3.90736">
        <ele>2.2</ele>
        <time>2017-10-27T07:49:06.430Z</time>
      </trkpt>
      <trkpt lat="43.53454" lon="3.90744">
        <ele>2.1</ele>
        <time>2017-10-27T07:49:07.447Z</time>
      </trkpt>
      <trkpt lat="43.53454" lon="3.90753">
        <ele>2.1</ele>
        <time>2017-10-27T07:49:08.452Z</time>
      </trkpt>
      <trkpt lat="43.53455" lon="3.90761">
        <ele>2</ele>
        <time>2017-10-27T07:49:09.456Z</time>
      </trkpt>
      <trkpt lat="43.53456" lon="3.9077">
        <ele>2</ele>
        <time>2017-10-27T07:49:10.447Z</time>
      </trkpt>
      <trkpt lat="43.53456" lon="3.90778">
        <ele>1.9</ele>
        <time>2017-10-27T07:49:11.446Z</time>
      </trkpt>
      <trkpt lat="43.53457" lon="3.90786">
        <ele>1.9</ele>
        <time>2017-10-27T07:49:12.448Z</time>
      </trkpt>
      <trkpt lat="43.53458" lon="3.90794">
        <ele>1.8</ele>
        <time>2017-10-27T07:49:13.433Z</time>
      </trkpt>
      <trkpt lat="43.53459" lon="3.90803">
        <ele>1.8</ele>
        <time>2017-10-27T07:49:14.433Z</time>
      </trkpt>
      <trkpt lat="43.5346" lon="3.90811">
        <ele>1.7</ele>
        <time>2017-10-27T07:49:15.434Z</time>
      </trkpt>
      <trkpt lat="43.53461" lon="3.90819">
        <ele>1.6</ele>
        <time>2017-10-27T07:49:16.445Z</time>
      </trkpt>
      <trkpt lat="43.53461" lon="3.90827">
        <ele>1.5</ele>
        <time>2017-10-27T07:49:17.447Z</time>
      </trkpt>
      <trkpt lat="43.53462" lon="3.90835">
        <ele>1.5</ele>
        <time>2017-10-27T07:49:18.434Z</time>
      </trkpt>
      <trkpt lat="43.53463" lon="3.90843">
        <ele>1.4</ele>
        <time>2017-10-27T07:49:19.433Z</time>
      </trkpt>
      <trkpt lat="43.53464" lon="3.90852">
        <ele>1.4</ele>
        <time>2017-10-27T07:49:20.449Z</time>
      </trkpt>
      <trkpt lat="43.53465" lon="3.9086">
        <ele>1.4</ele>
        <time>2017-10-27T07:49:21.451Z</time>
      </trkpt>
      <trkpt lat="43.53466" lon="3.90868">
        <ele>1.3</ele>
        <time>2017-10-27T07:49:22.454Z</time>
      </trkpt>
      <trkpt lat="43.53467" lon="3.90876">
        <ele>1.2</ele>
        <time>2017-10-27T07:49:23.448Z</time>
      </trkpt>
      <trkpt lat="43.53468" lon="3.90884">
        <ele>1.1</ele>
        <time>2017-10-27T07:49:24.465Z</time>
      </trkpt>
      <trkpt lat="43.53469" lon="3.90893">
        <ele>1.1</ele>
        <time>2017-10-27T07:49:25.463Z</time>
      </trkpt>
      <trkpt lat="43.5347" lon="3.90901">
        <ele>1</ele>
        <time>2017-10-27T07:49:26.449Z</time>
      </trkpt>
      <trkpt lat="43.53471" lon="3.9091">
        <ele>0.9</ele>
        <time>2017-10-27T07:49:27.449Z</time>
      </trkpt>
      <trkpt lat="43.53472" lon="3.90918">
        <ele>0.9</ele>
        <time>2017-10-27T07:49:28.445Z</time>
      </trkpt>
      <trkpt lat="43.53473" lon="3.90927">
        <ele>0.8</ele>
        <time>2017-10-27T07:49:29.445Z</time>
      </trkpt>
      <trkpt lat="43.53474" lon="3.90936">
        <ele>0.8</ele>
        <time>2017-10-27T07:49:30.450Z</time>
      </trkpt>
      <trkpt lat="43.53475" lon="3.90945">
        <ele>0.8</ele>
        <time>2017-10-27T07:49:31.446Z</time>
      </trkpt>
      <trkpt lat="43.53476" lon="3.90954">
        <ele>0.7</ele>
        <time>2017-10-27T07:49:32.445Z</time>
      </trkpt>
      <trkpt lat="43.53477" lon="3.90963">
        <ele>0.7</ele>
        <time>2017-10-27T07:49:33.448Z</time>
      </trkpt>
      <trkpt lat="43.53478" lon="3.90972">
        <ele>0.7</ele>
        <time>2017-10-27T07:49:34.446Z</time>
      </trkpt>
      <trkpt lat="43.53479" lon="3.90981">
        <ele>0.7</ele>
        <time>2017-10-27T07:49:35.446Z</time>
      </trkpt>
      <trkpt lat="43.5348" lon="3.9099">
        <ele>0.7</ele>
        <time>2017-10-27T07:49:36.446Z</time>
      </trkpt>
      <trkpt lat="43.53481" lon="3.90999">
        <ele>0.7</ele>
        <time>2017-10-27T07:49:37.446Z</time>
      </trkpt>
      <trkpt lat="43.53482" lon="3.91008">
        <ele>0.7</ele>
        <time>2017-10-27T07:49:38.432Z</time>
      </trkpt>
      <trkpt lat="43.53483" lon="3.91017">
        <ele>0.7</ele>
        <time>2017-10-27T07:49:39.432Z</time>
      </trkpt>
      <trkpt lat="43.53484" lon="3.91026">
        <ele>0.7</ele>
        <time>2017-10-27T07:49:40.432Z</time>
      </trkpt>
      <trkpt lat="43.53485" lon="3.91034">
        <ele>0.7</ele>
        <time>2017-10-27T07:49:41.452Z</time>
      </trkpt>
      <trkpt lat="43.53486" lon="3.91043">
        <ele>0.7</ele>
        <time>2017-10-27T07:49:42.447Z</time>
      </trkpt>
      <trkpt lat="43.53487" lon="3.91051">
        <ele>0.8</ele>
        <time>2017-10-27T07:49:43.446Z</time>
      </trkpt>
      <trkpt lat="43.53488" lon="3.91059">
        <ele>0.8</ele>
        <time>2017-10-27T07:49:44.447Z</time>
      </trkpt>
      <trkpt lat="43.53489" lon="3.91068">
        <ele>0.8</ele>
        <time>2017-10-27T07:49:45.445Z</time>
      </trkpt>
      <trkpt lat="43.5349" lon="3.91076">
        <ele>0.7</ele>
        <time>2017-10-27T07:49:46.445Z</time>
      </trkpt>
      <trkpt lat="43.53491" lon="3.91084">
        <ele>0.7</ele>
        <time>2017-10-27T07:49:47.446Z</time>
      </trkpt>
      <trkpt lat="43.53492" lon="3.91092">
        <ele>0.7</ele>
        <time>2017-10-27T07:49:48.445Z</time>
      </trkpt>
      <trkpt lat="43.53493" lon="3.911">
        <ele>0.7</ele>
        <time>2017-10-27T07:49:49.446Z</time>
      </trkpt>
      <trkpt lat="43.53493" lon="3.91109">
        <ele>0.7</ele>
        <time>2017-10-27T07:49:50.449Z</time>
      </trkpt>
      <trkpt lat="43.53494" lon="3.91117">
        <ele>0.7</ele>
        <time>2017-10-27T07:49:51.446Z</time>
      </trkpt>
      <trkpt lat="43.53495" lon="3.91125">
        <ele>0.7</ele>
        <time>2017-10-27T07:49:52.445Z</time>
      </trkpt>
      <trkpt lat="43.53496" lon="3.91133">
        <ele>0.7</ele>
        <time>2017-10-27T07:49:53.455Z</time>
      </trkpt>
      <trkpt lat="43.53497" lon="3.91141">
        <ele>0.6</ele>
        <time>2017-10-27T07:49:54.446Z</time>
      </trkpt>
      <trkpt lat="43.53497" lon="3.91149">
        <ele>0.5</ele>
        <time>2017-10-27T07:49:55.445Z</time>
      </trkpt>
      <trkpt lat="43.53498" lon="3.91157">
        <ele>0.4</ele>
        <time>2017-10-27T07:49:56.431Z</time>
      </trkpt>
      <trkpt lat="43.53499" lon="3.91166">
        <ele>0.3</ele>
        <time>2017-10-27T07:49:57.432Z</time>
      </trkpt>
      <trkpt lat="43.535" lon="3.91174">
        <ele>0.2</ele>
        <time>2017-10-27T07:49:58.450Z</time>
      </trkpt>
      <trkpt lat="43.53501" lon="3.91183">
        <ele>0.2</ele>
        <time>2017-10-27T07:49:59.445Z</time>
      </trkpt>
      <trkpt lat="43.53502" lon="3.91192">
        <ele>0.2</ele>
        <time>2017-10-27T07:50:00.447Z</time>
      </trkpt>
      <trkpt lat="43.53504" lon="3.912">
        <ele>0.2</ele>
        <time>2017-10-27T07:50:01.442Z</time>
      </trkpt>
      <trkpt lat="43.53504" lon="3.91209">
        <ele>0.2</ele>
        <time>2017-10-27T07:50:02.431Z</time>
      </trkpt>
      <trkpt lat="43.53505" lon="3.91218">
        <ele>0.2</ele>
        <time>2017-10-27T07:50:03.432Z</time>
      </trkpt>
      <trkpt lat="43.53506" lon="3.91227">
        <ele>0.2</ele>
        <time>2017-10-27T07:50:04.438Z</time>
      </trkpt>
      <trkpt lat="43.53507" lon="3.91236">
        <ele>0.1</ele>
        <time>2017-10-27T07:50:05.433Z</time>
      </trkpt>
      <trkpt lat="43.53508" lon="3.91244">
        <ele>0.1</ele>
        <time>2017-10-27T07:50:06.463Z</time>
      </trkpt>
      <trkpt lat="43.53508" lon="3.91253">
        <ele>0.1</ele>
        <time>2017-10-27T07:50:07.448Z</time>
      </trkpt>
      <trkpt lat="43.53509" lon="3.91262">
        <ele>1</ele>
        <time>2017-10-27T07:50:08.463Z</time>
      </trkpt>
      <trkpt lat="43.5351" lon="3.91271">
        <ele>1</ele>
        <time>2017-10-27T07:50:09.468Z</time>
      </trkpt>
      <trkpt lat="43.5351" lon="3.9128">
        <ele>-0.1</ele>
        <time>2017-10-27T07:50:10.446Z</time>
      </trkpt>
      <trkpt lat="43.53511" lon="3.91289">
        <ele>-0.1</ele>
        <time>2017-10-27T07:50:11.450Z</time>
      </trkpt>
      <trkpt lat="43.53512" lon="3.91298">
        <ele>-0.1</ele>
        <time>2017-10-27T07:50:12.450Z</time>
      </trkpt>
      <trkpt lat="43.53512" lon="3.91307">
        <ele>-0.1</ele>
        <time>2017-10-27T07:50:13.447Z</time>
      </trkpt>
      <trkpt lat="43.53513" lon="3.91316">
        <ele>-0.1</ele>
        <time>2017-10-27T07:50:14.458Z</time>
      </trkpt>
      <trkpt lat="43.53513" lon="3.91325">
        <ele>-0.1</ele>
        <time>2017-10-27T07:50:15.447Z</time>
      </trkpt>
      <trkpt lat="43.53513" lon="3.91335">
        <ele>-0.1</ele>
        <time>2017-10-27T07:50:16.446Z</time>
      </trkpt>
      <trkpt lat="43.53513" lon="3.91344">
        <ele>-0.1</ele>
        <time>2017-10-27T07:50:17.445Z</time>
      </trkpt>
      <trkpt lat="43.53513" lon="3.91353">
        <ele>1</ele>
        <time>2017-10-27T07:50:18.448Z</time>
      </trkpt>
      <trkpt lat="43.53512" lon="3.91363">
        <ele>1</ele>
        <time>2017-10-27T07:50:19.446Z</time>
      </trkpt>
      <trkpt lat="43.53512" lon="3.91372">
        <ele>1</ele>
        <time>2017-10-27T07:50:20.451Z</time>
      </trkpt>
      <trkpt lat="43.53512" lon="3.91382">
        <ele>1</ele>
        <time>2017-10-27T07:50:21.446Z</time>
      </trkpt>
      <trkpt lat="43.53511" lon="3.91391">
        <ele>1</ele>
        <time>2017-10-27T07:50:22.432Z</time>
      </trkpt>
      <trkpt lat="43.5351" lon="3.91401">
        <ele>1</ele>
        <time>2017-10-27T07:50:23.432Z</time>
      </trkpt>
      <trkpt lat="43.53509" lon="3.9141">
        <ele>1</ele>
        <time>2017-10-27T07:50:24.443Z</time>
      </trkpt>
      <trkpt lat="43.53508" lon="3.9142">
        <ele>1</ele>
        <time>2017-10-27T07:50:25.448Z</time>
      </trkpt>
      <trkpt lat="43.53506" lon="3.91429">
        <ele>1</ele>
        <time>2017-10-27T07:50:26.450Z</time>
      </trkpt>
      <trkpt lat="43.53505" lon="3.91439">
        <ele>1</ele>
        <time>2017-10-27T07:50:27.461Z</time>
      </trkpt>
      <trkpt lat="43.53503" lon="3.91448">
        <ele>1</ele>
        <time>2017-10-27T07:50:28.452Z</time>
      </trkpt>
      <trkpt lat="43.535" lon="3.91458">
        <ele>1</ele>
        <time>2017-10-27T07:50:29.451Z</time>
      </trkpt>
      <trkpt lat="43.53498" lon="3.91467">
        <ele>0.1</ele>
        <time>2017-10-27T07:50:30.452Z</time>
      </trkpt>
      <trkpt lat="43.53495" lon="3.91476">
        <ele>0.1</ele>
        <time>2017-10-27T07:50:31.451Z</time>
      </trkpt>
      <trkpt lat="43.53492" lon="3.91485">
        <ele>0.2</ele>
        <time>2017-10-27T07:50:32.449Z</time>
      </trkpt>
      <trkpt lat="43.53489" lon="3.91494">
        <ele>0.2</ele>
        <time>2017-10-27T07:50:33.449Z</time>
      </trkpt>
      <trkpt lat="43.53486" lon="3.91504">
        <ele>0.2</ele>
        <time>2017-10-27T07:50:34.448Z</time>
      </trkpt>
      <trkpt lat="43.53483" lon="3.91513">
        <ele>0.2</ele>
        <time>2017-10-27T07:50:35.449Z</time>
      </trkpt>
      <trkpt lat="43.5348" lon="3.91522">
        <ele>0.2</ele>
        <time>2017-10-27T07:50:36.437Z</time>
      </trkpt>
      <trkpt lat="43.53477" lon="3.91531">
        <ele>0.2</ele>
        <time>2017-10-27T07:50:37.438Z</time>
      </trkpt>
      <trkpt lat="43.53474" lon="3.9154">
        <ele>0.2</ele>
        <time>2017-10-27T07:50:38.449Z</time>
      </trkpt>
      <trkpt lat="43.5347" lon="3.9155">
        <ele>0.2</ele>
        <time>2017-10-27T07:50:39.450Z</time>
      </trkpt>
      <trkpt lat="43.53467" lon="3.91559">
        <ele>0.2</ele>
        <time>2017-10-27T07:50:40.453Z</time>
      </trkpt>
      <trkpt lat="43.53464" lon="3.91568">
        <ele>0.2</ele>
        <time>2017-10-27T07:50:41.448Z</time>
      </trkpt>
      <trkpt lat="43.53461" lon="3.91577">
        <ele>0.3</ele>
        <time>2017-10-27T07:50:42.451Z</time>
      </trkpt>
      <trkpt lat="43.53458" lon="3.91586">
        <ele>0.4</ele>
        <time>2017-10-27T07:50:43.449Z</time>
      </trkpt>
      <trkpt lat="43.53455" lon="3.91595">
        <ele>0.4</ele>
        <time>2017-10-27T07:50:44.434Z</time>
      </trkpt>
      <trkpt lat="43.53452" lon="3.91603">
        <ele>0.5</ele>
        <time>2017-10-27T07:50:45.449Z</time>
      </trkpt>
      <trkpt lat="43.53449" lon="3.91611">
        <ele>0.6</ele>
        <time>2017-10-27T07:50:46.451Z</time>
      </trkpt>
      <trkpt lat="43.53446" lon="3.91619">
        <ele>0.7</ele>
        <time>2017-10-27T07:50:47.430Z</time>
      </trkpt>
      <trkpt lat="43.53442" lon="3.91625">
        <ele>0.8</ele>
        <time>2017-10-27T07:50:48.431Z</time>
      </trkpt>
      <trkpt lat="43.53436" lon="3.9163">
        <ele>0.9</ele>
        <time>2017-10-27T07:50:49.432Z</time>
      </trkpt>
      <trkpt lat="43.53431" lon="3.91632">
        <ele>0.9</ele>
        <time>2017-10-27T07:50:50.432Z</time>
      </trkpt>
      <trkpt lat="43.53425" lon="3.91632">
        <ele>0.9</ele>
        <time>2017-10-27T07:50:51.448Z</time>
      </trkpt>
      <trkpt lat="43.5342" lon="3.9163">
        <ele>0.9</ele>
        <time>2017-10-27T07:50:52.454Z</time>
      </trkpt>
      <trkpt lat="43.53415" lon="3.91627">
        <ele>0.9</ele>
        <time>2017-10-27T07:50:53.449Z</time>
      </trkpt>
      <trkpt lat="43.5341" lon="3.91622">
        <ele>0.8</ele>
        <time>2017-10-27T07:50:54.456Z</time>
      </trkpt>
      <trkpt lat="43.53407" lon="3.91617">
        <ele>0.8</ele>
        <time>2017-10-27T07:50:55.450Z</time>
      </trkpt>
      <trkpt lat="43.53404" lon="3.91611">
        <ele>0.7</ele>
        <time>2017-10-27T07:50:56.448Z</time>
      </trkpt>
      <trkpt lat="43.53401" lon="3.91605">
        <ele>0.7</ele>
        <time>2017-10-27T07:50:57.435Z</time>
      </trkpt>
      <trkpt lat="43.53399" lon="3.91599">
        <ele>0.5</ele>
        <time>2017-10-27T07:50:58.445Z</time>
      </trkpt>
      <trkpt lat="43.53397" lon="3.91592">
        <ele>0.2</ele>
        <time>2017-10-27T07:50:59.446Z</time>
      </trkpt>
      <trkpt lat="43.53395" lon="3.91586">
        <ele>1.2</ele>
        <time>2017-10-27T07:51:00.447Z</time>
      </trkpt>
      <trkpt lat="43.53393" lon="3.9158">
        <ele>0.1</ele>
        <time>2017-10-27T07:51:01.447Z</time>
      </trkpt>
      <trkpt lat="43.53391" lon="3.91573">
        <ele>0.1</ele>
        <time>2017-10-27T07:51:02.446Z</time>
      </trkpt>
      <trkpt lat="43.5339" lon="3.91567">
        <ele>1</ele>
        <time>2017-10-27T07:51:03.452Z</time>
      </trkpt>
      <trkpt lat="43.53388" lon="3.91562">
        <ele>1</ele>
        <time>2017-10-27T07:51:04.443Z</time>
      </trkpt>
      <trkpt lat="43.53387" lon="3.91556">
        <ele>-0.1</ele>
        <time>2017-10-27T07:51:05.440Z</time>
      </trkpt>
      <trkpt lat="43.53386" lon="3.9155">
        <ele>-0.3</ele>
        <time>2017-10-27T07:51:06.442Z</time>
      </trkpt>
      <trkpt lat="43.53385" lon="3.91545">
        <ele>-0.5</ele>
        <time>2017-10-27T07:51:07.447Z</time>
      </trkpt>
      <trkpt lat="43.53384" lon="3.91539">
        <ele>-0.6</ele>
        <time>2017-10-27T07:51:08.435Z</time>
      </trkpt>
      <trkpt lat="43.53383" lon="3.91534">
        <ele>-0.6</ele>
        <time>2017-10-27T07:51:09.432Z</time>
      </trkpt>
      <trkpt lat="43.53382" lon="3.91528">
        <ele>-0.6</ele>
        <time>2017-10-27T07:51:10.435Z</time>
      </trkpt>
      <trkpt lat="43.53383" lon="3.91522">
        <ele>-0.7</ele>
        <time>2017-10-27T07:51:11.449Z</time>
      </trkpt>
      <trkpt lat="43.53385" lon="3.91517">
        <ele>-0.9</ele>
        <time>2017-10-27T07:51:12.480Z</time>
      </trkpt>
      <trkpt lat="43.53387" lon="3.91513">
        <ele>-0.8</ele>
        <time>2017-10-27T07:51:13.446Z</time>
      </trkpt>
      <trkpt lat="43.5339" lon="3.91509">
        <ele>-0.7</ele>
        <time>2017-10-27T07:51:14.448Z</time>
      </trkpt>
      <trkpt lat="43.53392" lon="3.91505">
        <ele>-0.6</ele>
        <time>2017-10-27T07:51:15.446Z</time>
      </trkpt>
      <trkpt lat="43.53395" lon="3.91501">
        <ele>-0.5</ele>
        <time>2017-10-27T07:51:16.445Z</time>
      </trkpt>
      <trkpt lat="43.53398" lon="3.91498">
        <ele>-0.6</ele>
        <time>2017-10-27T07:51:17.445Z</time>
      </trkpt>
      <trkpt lat="43.534" lon="3.91494">
        <ele>-0.6</ele>
        <time>2017-10-27T07:51:18.452Z</time>
      </trkpt>
      <trkpt lat="43.53403" lon="3.91491">
        <ele>-0.7</ele>
        <time>2017-10-27T07:51:19.445Z</time>
      </trkpt>
      <trkpt lat="43.53406" lon="3.91487">
        <ele>-0.6</ele>
        <time>2017-10-27T07:51:20.447Z</time>
      </trkpt>
      <trkpt lat="43.53409" lon="3.91483">
        <ele>-0.6</ele>
        <time>2017-10-27T07:51:21.445Z</time>
      </trkpt>
      <trkpt lat="43.53411" lon="3.9148">
        <ele>-0.7</ele>
        <time>2017-10-27T07:51:22.444Z</time>
      </trkpt>
      <trkpt lat="43.53414" lon="3.91476">
        <ele>-0.6</ele>
        <time>2017-10-27T07:51:23.445Z</time>
      </trkpt>
      <trkpt lat="43.53416" lon="3.91472">
        <ele>-0.6</ele>
        <time>2017-10-27T07:51:24.448Z</time>
      </trkpt>
      <trkpt lat="43.53419" lon="3.91469">
        <ele>-0.6</ele>
        <time>2017-10-27T07:51:25.446Z</time>
      </trkpt>
      <trkpt lat="43.53421" lon="3.91466">
        <ele>-0.6</ele>
        <time>2017-10-27T07:51:26.432Z</time>
      </trkpt>
      <trkpt lat="43.53423" lon="3.91462">
        <ele>-0.6</ele>
        <time>2017-10-27T07:51:27.433Z</time>
      </trkpt>
      <trkpt lat="43.53426" lon="3.91459">
        <ele>-0.7</ele>
        <time>2017-10-27T07:51:28.431Z</time>
      </trkpt>
      <trkpt lat="43.53428" lon="3.91456">
        <ele>-0.7</ele>
        <time>2017-10-27T07:51:29.437Z</time>
      </trkpt>
      <trkpt lat="43.5343" lon="3.91453">
        <ele>-0.7</ele>
        <time>2017-10-27T07:51:30.468Z</time>
      </trkpt>
      <trkpt lat="43.53433" lon="3.91451">
        <ele>-1</ele>
        <time>2017-10-27T07:51:31.452Z</time>
      </trkpt>
      <trkpt lat="43.53436" lon="3.9145">
        <ele>-1.2</ele>
        <time>2017-10-27T07:51:32.446Z</time>
      </trkpt>
      <trkpt lat="43.53439" lon="3.91453">
        <ele>-1.5</ele>
        <time>2017-10-27T07:51:33.456Z</time>
      </trkpt>
      <trkpt lat="43.53441" lon="3.91457">
        <ele>-1.6</ele>
        <time>2017-10-27T07:51:34.446Z</time>
      </trkpt>
      <trkpt lat="43.53443" lon="3.91461">
        <ele>-1.6</ele>
        <time>2017-10-27T07:51:35.451Z</time>
      </trkpt>
      <trkpt lat="43.53444" lon="3.91466">
        <ele>-1.6</ele>
        <time>2017-10-27T07:51:36.447Z</time>
      </trkpt>
      <trkpt lat="43.53444" lon="3.91472">
        <ele>-1.5</ele>
        <time>2017-10-27T07:51:37.432Z</time>
      </trkpt>
      <trkpt lat="43.53444" lon="3.91477">
        <ele>-1.3</ele>
        <time>2017-10-27T07:51:38.450Z</time>
      </trkpt>
      <trkpt lat="43.53443" lon="3.91483">
        <ele>-1.2</ele>
        <time>2017-10-27T07:51:39.447Z</time>
      </trkpt>
      <trkpt lat="43.53442" lon="3.91489">
        <ele>-1.1</ele>
        <time>2017-10-27T07:51:40.445Z</time>
      </trkpt>
      <trkpt lat="43.53441" lon="3.91494">
        <ele>-1</ele>
        <time>2017-10-27T07:51:41.448Z</time>
      </trkpt>
      <trkpt lat="43.5344" lon="3.915">
        <ele>-0.8</ele>
        <time>2017-10-27T07:51:42.448Z</time>
      </trkpt>
      <trkpt lat="43.53439" lon="3.91507">
        <ele>-0.7</ele>
        <time>2017-10-27T07:51:43.447Z</time>
      </trkpt>
      <trkpt lat="43.53438" lon="3.91513">
        <ele>-0.5</ele>
        <time>2017-10-27T07:51:44.431Z</time>
      </trkpt>
      <trkpt lat="43.53437" lon="3.91519">
        <ele>-0.3</ele>
        <time>2017-10-27T07:51:45.432Z</time>
      </trkpt>
      <trkpt lat="43.53436" lon="3.91524">
        <ele>-0.1</ele>
        <time>2017-10-27T07:51:46.431Z</time>
      </trkpt>
      <trkpt lat="43.53435" lon="3.9153">
        <ele>0.2</ele>
        <time>2017-10-27T07:51:47.433Z</time>
      </trkpt>
      <trkpt lat="43.53433" lon="3.91536">
        <ele>0.5</ele>
        <time>2017-10-27T07:51:48.447Z</time>
      </trkpt>
      <trkpt lat="43.53432" lon="3.91541">
        <ele>0.8</ele>
        <time>2017-10-27T07:51:49.450Z</time>
      </trkpt>
      <trkpt lat="43.5343" lon="3.91547">
        <ele>1.1</ele>
        <time>2017-10-27T07:51:50.446Z</time>
      </trkpt>
      <trkpt lat="43.53429" lon="3.91552">
        <ele>1.5</ele>
        <time>2017-10-27T07:51:51.454Z</time>
      </trkpt>
      <trkpt lat="43.53427" lon="3.91558">
        <ele>1.8</ele>
        <time>2017-10-27T07:51:52.450Z</time>
      </trkpt>
      <trkpt lat="43.53426" lon="3.91563">
        <ele>2.3</ele>
        <time>2017-10-27T07:51:53.447Z</time>
      </trkpt>
      <trkpt lat="43.53425" lon="3.91568">
        <ele>2.6</ele>
        <time>2017-10-27T07:51:54.446Z</time>
      </trkpt>
      <trkpt lat="43.53423" lon="3.91573">
        <ele>2.8</ele>
        <time>2017-10-27T07:51:55.457Z</time>
      </trkpt>
      <trkpt lat="43.53421" lon="3.91578">
        <ele>3</ele>
        <time>2017-10-27T07:51:56.444Z</time>
      </trkpt>
      <trkpt lat="43.5342" lon="3.91583">
        <ele>3.3</ele>
        <time>2017-10-27T07:51:57.434Z</time>
      </trkpt>
      <trkpt lat="43.53418" lon="3.91587">
        <ele>3.5</ele>
        <time>2017-10-27T07:51:58.445Z</time>
      </trkpt>
      <trkpt lat="43.53416" lon="3.91592">
        <ele>3.7</ele>
        <time>2017-10-27T07:51:59.446Z</time>
      </trkpt>
      <trkpt lat="43.53415" lon="3.91596">
        <ele>3.9</ele>
        <time>2017-10-27T07:52:00.447Z</time>
      </trkpt>
      <trkpt lat="43.53413" lon="3.91601">
        <ele>4.1</ele>
        <time>2017-10-27T07:52:01.455Z</time>
      </trkpt>
      <trkpt lat="43.53412" lon="3.91605">
        <ele>4.2</ele>
        <time>2017-10-27T07:52:02.446Z</time>
      </trkpt>
      <trkpt lat="43.5341" lon="3.91609">
        <ele>4.4</ele>
        <time>2017-10-27T07:52:03.432Z</time>
      </trkpt>
      <trkpt lat="43.53409" lon="3.91613">
        <ele>4.6</ele>
        <time>2017-10-27T07:52:04.432Z</time>
      </trkpt>
      <trkpt lat="43.53407" lon="3.91617">
        <ele>4.7</ele>
        <time>2017-10-27T07:52:05.435Z</time>
      </trkpt>
      <trkpt lat="43.53405" lon="3.91622">
        <ele>4.9</ele>
        <time>2017-10-27T07:52:06.437Z</time>
      </trkpt>
      <trkpt lat="43.53404" lon="3.91626">
        <ele>5</ele>
        <time>2017-10-27T07:52:07.487Z</time>
      </trkpt>
      <trkpt lat="43.53402" lon="3.9163">
        <ele>5.2</ele>
        <time>2017-10-27T07:52:08.449Z</time>
      </trkpt>
      <trkpt lat="43.53401" lon="3.91635">
        <ele>5.3</ele>
        <time>2017-10-27T07:52:09.447Z</time>
      </trkpt>
      <trkpt lat="43.53399" lon="3.91639">
        <ele>5.4</ele>
        <time>2017-10-27T07:52:10.445Z</time>
      </trkpt>
      <trkpt lat="43.53397" lon="3.91643">
        <ele>5.5</ele>
        <time>2017-10-27T07:52:11.451Z</time>
      </trkpt>
      <trkpt lat="43.53396" lon="3.91648">
        <ele>5.6</ele>
        <time>2017-10-27T07:52:12.455Z</time>
      </trkpt>
      <trkpt lat="43.53394" lon="3.91652">
        <ele>5.7</ele>
        <time>2017-10-27T07:52:13.452Z</time>
      </trkpt>
      <trkpt lat="43.53392" lon="3.91656">
        <ele>5.8</ele>
        <time>2017-10-27T07:52:14.448Z</time>
      </trkpt>
      <trkpt lat="43.53391" lon="3.9166">
        <ele>5.9</ele>
        <time>2017-10-27T07:52:15.446Z</time>
      </trkpt>
      <trkpt lat="43.53389" lon="3.91664">
        <ele>5.9</ele>
        <time>2017-10-27T07:52:16.446Z</time>
      </trkpt>
      <trkpt lat="43.53387" lon="3.91668">
        <ele>6</ele>
        <time>2017-10-27T07:52:17.447Z</time>
      </trkpt>
      <trkpt lat="43.53385" lon="3.91672">
        <ele>6.1</ele>
        <time>2017-10-27T07:52:18.447Z</time>
      </trkpt>
      <trkpt lat="43.53383" lon="3.91677">
        <ele>6.1</ele>
        <time>2017-10-27T07:52:19.446Z</time>
      </trkpt>
      <trkpt lat="43.53382" lon="3.91681">
        <ele>6.1</ele>
        <time>2017-10-27T07:52:20.447Z</time>
      </trkpt>
      <trkpt lat="43.5338" lon="3.91685">
        <ele>6.1</ele>
        <time>2017-10-27T07:52:21.446Z</time>
      </trkpt>
      <trkpt lat="43.53378" lon="3.91689">
        <ele>6.1</ele>
        <time>2017-10-27T07:52:22.447Z</time>
      </trkpt>
      <trkpt lat="43.53376" lon="3.91694">
        <ele>6.1</ele>
        <time>2017-10-27T07:52:23.459Z</time>
      </trkpt>
      <trkpt lat="43.53373" lon="3.91698">
        <ele>6.1</ele>
        <time>2017-10-27T07:52:24.454Z</time>
      </trkpt>
      <trkpt lat="43.53371" lon="3.91703">
        <ele>6</ele>
        <time>2017-10-27T07:52:25.445Z</time>
      </trkpt>
      <trkpt lat="43.53369" lon="3.91708">
        <ele>6</ele>
        <time>2017-10-27T07:52:26.454Z</time>
      </trkpt>
      <trkpt lat="43.53367" lon="3.91713">
        <ele>6</ele>
        <time>2017-10-27T07:52:27.454Z</time>
      </trkpt>
      <trkpt lat="43.53364" lon="3.91718">
        <ele>5.9</ele>
        <time>2017-10-27T07:52:28.433Z</time>
      </trkpt>
      <trkpt lat="43.53362" lon="3.91723">
        <ele>5.8</ele>
        <time>2017-10-27T07:52:29.432Z</time>
      </trkpt>
      <trkpt lat="43.53359" lon="3.91729">
        <ele>5.7</ele>
        <time>2017-10-27T07:52:30.433Z</time>
      </trkpt>
      <trkpt lat="43.53356" lon="3.91734">
        <ele>5.6</ele>
        <time>2017-10-27T07:52:31.435Z</time>
      </trkpt>
      <trkpt lat="43.53353" lon="3.9174">
        <ele>5.5</ele>
        <time>2017-10-27T07:52:32.431Z</time>
      </trkpt>
      <trkpt lat="43.5335" lon="3.91746">
        <ele>5.3</ele>
        <time>2017-10-27T07:52:33.446Z</time>
      </trkpt>
      <trkpt lat="43.53347" lon="3.91752">
        <ele>5.2</ele>
        <time>2017-10-27T07:52:34.434Z</time>
      </trkpt>
      <trkpt lat="43.53344" lon="3.91759">
        <ele>5.1</ele>
        <time>2017-10-27T07:52:35.432Z</time>
      </trkpt>
      <trkpt lat="43.5334" lon="3.91765">
        <ele>4.9</ele>
        <time>2017-10-27T07:52:36.456Z</time>
      </trkpt>
      <trkpt lat="43.53337" lon="3.91772">
        <ele>4.7</ele>
        <time>2017-10-27T07:52:37.440Z</time>
      </trkpt>
      <trkpt lat="43.53333" lon="3.91778">
        <ele>4.5</ele>
        <time>2017-10-27T07:52:38.445Z</time>
      </trkpt>
      <trkpt lat="43.53329" lon="3.91785">
        <ele>4.3</ele>
        <time>2017-10-27T07:52:39.447Z</time>
      </trkpt>
      <trkpt lat="43.53325" lon="3.91792">
        <ele>4.2</ele>
        <time>2017-10-27T07:52:40.448Z</time>
      </trkpt>
      <trkpt lat="43.53321" lon="3.91798">
        <ele>4</ele>
        <time>2017-10-27T07:52:41.451Z</time>
      </trkpt>
      <trkpt lat="43.53317" lon="3.91805">
        <ele>3.8</ele>
        <time>2017-10-27T07:52:42.448Z</time>
      </trkpt>
      <trkpt lat="43.53313" lon="3.91812">
        <ele>3.4</ele>
        <time>2017-10-27T07:52:43.448Z</time>
      </trkpt>
      <trkpt lat="43.53309" lon="3.91818">
        <ele>3.1</ele>
        <time>2017-10-27T07:52:44.454Z</time>
      </trkpt>
      <trkpt lat="43.53305" lon="3.91825">
        <ele>2.9</ele>
        <time>2017-10-27T07:52:45.444Z</time>
      </trkpt>
      <trkpt lat="43.533" lon="3.91833">
        <ele>2.6</ele>
        <time>2017-10-27T07:52:46.454Z</time>
      </trkpt>
      <trkpt lat="43.53295" lon="3.9184">
        <ele>2.4</ele>
        <time>2017-10-27T07:52:47.446Z</time>
      </trkpt>
      <trkpt lat="43.53291" lon="3.91847">
        <ele>2.2</ele>
        <time>2017-10-27T07:52:48.434Z</time>
      </trkpt>
      <trkpt lat="43.53286" lon="3.91854">
        <ele>1.9</ele>
        <time>2017-10-27T07:52:49.449Z</time>
      </trkpt>
      <trkpt lat="43.53281" lon="3.91861">
        <ele>1.7</ele>
        <time>2017-10-27T07:52:50.446Z</time>
      </trkpt>
      <trkpt lat="43.53276" lon="3.91869">
        <ele>1.4</ele>
        <time>2017-10-27T07:52:51.446Z</time>
      </trkpt>
      <trkpt lat="43.53271" lon="3.91876">
        <ele>1.1</ele>
        <time>2017-10-27T07:52:52.446Z</time>
      </trkpt>
      <trkpt lat="43.53266" lon="3.91883">
        <ele>0.9</ele>
        <time>2017-10-27T07:52:53.432Z</time>
      </trkpt>
      <trkpt lat="43.5326" lon="3.91889">
        <ele>0.6</ele>
        <time>2017-10-27T07:52:54.434Z</time>
      </trkpt>
      <trkpt lat="43.53253" lon="3.91894">
        <ele>0.3</ele>
        <time>2017-10-27T07:52:55.432Z</time>
      </trkpt>
      <trkpt lat="43.53247" lon="3.919">
        <ele>0.1</ele>
        <time>2017-10-27T07:52:56.434Z</time>
      </trkpt>
      <trkpt lat="43.53241" lon="3.91906">
        <ele>0.1</ele>
        <time>2017-10-27T07:52:57.435Z</time>
      </trkpt>
      <trkpt lat="43.53235" lon="3.91913">
        <ele>0.2</ele>
        <time>2017-10-27T07:52:58.446Z</time>
      </trkpt>
      <trkpt lat="43.5323" lon="3.91921">
        <ele>0.3</ele>
        <time>2017-10-27T07:52:59.449Z</time>
      </trkpt>
      <trkpt lat="43.53225" lon="3.91928">
        <ele>0.3</ele>
        <time>2017-10-27T07:53:00.450Z</time>
      </trkpt>
      <trkpt lat="43.53221" lon="3.91936">
        <ele>0.3</ele>
        <time>2017-10-27T07:53:01.454Z</time>
      </trkpt>
      <trkpt lat="43.53216" lon="3.91943">
        <ele>0.3</ele>
        <time>2017-10-27T07:53:02.446Z</time>
      </trkpt>
      <trkpt lat="43.53212" lon="3.91951">
        <ele>0.4</ele>
        <time>2017-10-27T07:53:03.452Z</time>
      </trkpt>
      <trkpt lat="43.53208" lon="3.91958">
        <ele>0.3</ele>
        <time>2017-10-27T07:53:04.445Z</time>
      </trkpt>
      <trkpt lat="43.53203" lon="3.91965">
        <ele>0.3</ele>
        <time>2017-10-27T07:53:05.449Z</time>
      </trkpt>
      <trkpt lat="43.53199" lon="3.91973">
        <ele>0.4</ele>
        <time>2017-10-27T07:53:06.448Z</time>
      </trkpt>
      <trkpt lat="43.53194" lon="3.9198">
        <ele>0.5</ele>
        <time>2017-10-27T07:53:07.444Z</time>
      </trkpt>
      <trkpt lat="43.5319" lon="3.91987">
        <ele>0.5</ele>
        <time>2017-10-27T07:53:08.432Z</time>
      </trkpt>
      <trkpt lat="43.53185" lon="3.91994">
        <ele>0.5</ele>
        <time>2017-10-27T07:53:09.449Z</time>
      </trkpt>
      <trkpt lat="43.53181" lon="3.92001">
        <ele>0.5</ele>
        <time>2017-10-27T07:53:10.447Z</time>
      </trkpt>
      <trkpt lat="43.53176" lon="3.92008">
        <ele>0.5</ele>
        <time>2017-10-27T07:53:11.447Z</time>
      </trkpt>
      <trkpt lat="43.53171" lon="3.92015">
        <ele>0.5</ele>
        <time>2017-10-27T07:53:12.440Z</time>
      </trkpt>
      <trkpt lat="43.53167" lon="3.92022">
        <ele>0.5</ele>
        <time>2017-10-27T07:53:13.432Z</time>
      </trkpt>
      <trkpt lat="43.53162" lon="3.92029">
        <ele>0.5</ele>
        <time>2017-10-27T07:53:14.432Z</time>
      </trkpt>
      <trkpt lat="43.53157" lon="3.92036">
        <ele>0.5</ele>
        <time>2017-10-27T07:53:15.448Z</time>
      </trkpt>
      <trkpt lat="43.53153" lon="3.92042">
        <ele>0.5</ele>
        <time>2017-10-27T07:53:16.467Z</time>
      </trkpt>
      <trkpt lat="43.53148" lon="3.92049">
        <ele>0.5</ele>
        <time>2017-10-27T07:53:17.447Z</time>
      </trkpt>
      <trkpt lat="43.53143" lon="3.92057">
        <ele>0.5</ele>
        <time>2017-10-27T07:53:18.433Z</time>
      </trkpt>
      <trkpt lat="43.53138" lon="3.92064">
        <ele>0.4</ele>
        <time>2017-10-27T07:53:19.448Z</time>
      </trkpt>
      <trkpt lat="43.53133" lon="3.92071">
        <ele>0.4</ele>
        <time>2017-10-27T07:53:20.431Z</time>
      </trkpt>
      <trkpt lat="43.53128" lon="3.92078">
        <ele>0.4</ele>
        <time>2017-10-27T07:53:21.443Z</time>
      </trkpt>
      <trkpt lat="43.53123" lon="3.92085">
        <ele>0.4</ele>
        <time>2017-10-27T07:53:22.441Z</time>
      </trkpt>
      <trkpt lat="43.53118" lon="3.92092">
        <ele>0.5</ele>
        <time>2017-10-27T07:53:23.448Z</time>
      </trkpt>
      <trkpt lat="43.53113" lon="3.92099">
        <ele>0.6</ele>
        <time>2017-10-27T07:53:24.449Z</time>
      </trkpt>
      <trkpt lat="43.53109" lon="3.92106">
        <ele>0.6</ele>
        <time>2017-10-27T07:53:25.447Z</time>
      </trkpt>
      <trkpt lat="43.53104" lon="3.92113">
        <ele>0.7</ele>
        <time>2017-10-27T07:53:26.447Z</time>
      </trkpt>
      <trkpt lat="43.53099" lon="3.9212">
        <ele>0.7</ele>
        <time>2017-10-27T07:53:27.448Z</time>
      </trkpt>
      <trkpt lat="43.53094" lon="3.92127">
        <ele>0.7</ele>
        <time>2017-10-27T07:53:28.455Z</time>
      </trkpt>
      <trkpt lat="43.5309" lon="3.92133">
        <ele>0.8</ele>
        <time>2017-10-27T07:53:29.448Z</time>
      </trkpt>
      <trkpt lat="43.53085" lon="3.9214">
        <ele>0.8</ele>
        <time>2017-10-27T07:53:30.451Z</time>
      </trkpt>
      <trkpt lat="43.53081" lon="3.92148">
        <ele>0.8</ele>
        <time>2017-10-27T07:53:31.433Z</time>
      </trkpt>
      <trkpt lat="43.53076" lon="3.92154">
        <ele>0.9</ele>
        <time>2017-10-27T07:53:32.433Z</time>
      </trkpt>
      <trkpt lat="43.53071" lon="3.92161">
        <ele>0.9</ele>
        <time>2017-10-27T07:53:33.433Z</time>
      </trkpt>
      <trkpt lat="43.53067" lon="3.92168">
        <ele>0.9</ele>
        <time>2017-10-27T07:53:34.446Z</time>
      </trkpt>
      <trkpt lat="43.53062" lon="3.92175">
        <ele>0.9</ele>
        <time>2017-10-27T07:53:35.447Z</time>
      </trkpt>
      <trkpt lat="43.53057" lon="3.92182">
        <ele>1</ele>
        <time>2017-10-27T07:53:36.449Z</time>
      </trkpt>
      <trkpt lat="43.53053" lon="3.92188">
        <ele>1.1</ele>
        <time>2017-10-27T07:53:37.456Z</time>
      </trkpt>
      <trkpt lat="43.53048" lon="3.92195">
        <ele>1.2</ele>
        <time>2017-10-27T07:53:38.450Z</time>
      </trkpt>
      <trkpt lat="43.53043" lon="3.92202">
        <ele>1.2</ele>
        <time>2017-10-27T07:53:39.446Z</time>
      </trkpt>
      <trkpt lat="43.53039" lon="3.92208">
        <ele>1.3</ele>
        <time>2017-10-27T07:53:40.446Z</time>
      </trkpt>
      <trkpt lat="43.53034" lon="3.92215">
        <ele>1.3</ele>
        <time>2017-10-27T07:53:41.446Z</time>
      </trkpt>
      <trkpt lat="43.5303" lon="3.92221">
        <ele>1.3</ele>
        <time>2017-10-27T07:53:42.449Z</time>
      </trkpt>
      <trkpt lat="43.53025" lon="3.92228">
        <ele>1.4</ele>
        <time>2017-10-27T07:53:43.449Z</time>
      </trkpt>
      <trkpt lat="43.5302" lon="3.92233">
        <ele>1.4</ele>
        <time>2017-10-27T07:53:44.447Z</time>
      </trkpt>
      <trkpt lat="43.53015" lon="3.92238">
        <ele>1.6</ele>
        <time>2017-10-27T07:53:45.456Z</time>
      </trkpt>
      <trkpt lat="43.53009" lon="3.9224">
        <ele>1.7</ele>
        <time>2017-10-27T07:53:46.449Z</time>
      </trkpt>
      <trkpt lat="43.53003" lon="3.9224">
        <ele>1.6</ele>
        <time>2017-10-27T07:53:47.443Z</time>
      </trkpt>
      <trkpt lat="43.52998" lon="3.9224">
        <ele>1.6</ele>
        <time>2017-10-27T07:53:48.444Z</time>
      </trkpt>
      <trkpt lat="43.52993" lon="3.92241">
        <ele>1.5</ele>
        <time>2017-10-27T07:53:49.460Z</time>
      </trkpt>
      <trkpt lat="43.52988" lon="3.92243">
        <ele>1.4</ele>
        <time>2017-10-27T07:53:50.434Z</time>
      </trkpt>
      <trkpt lat="43.52984" lon="3.92244">
        <ele>1.4</ele>
        <time>2017-10-27T07:53:51.434Z</time>
      </trkpt>
      <trkpt lat="43.5298" lon="3.92244">
        <ele>1.4</ele>
        <time>2017-10-27T07:53:52.433Z</time>
      </trkpt>
      <trkpt lat="43.52976" lon="3.92245">
        <ele>1.5</ele>
        <time>2017-10-27T07:53:53.457Z</time>
      </trkpt>
      <trkpt lat="43.52972" lon="3.92246">
        <ele>1.7</ele>
        <time>2017-10-27T07:53:54.451Z</time>
      </trkpt>
      <trkpt lat="43.52968" lon="3.92248">
        <ele>1.7</ele>
        <time>2017-10-27T07:53:55.452Z</time>
      </trkpt>
      <trkpt lat="43.52964" lon="3.9225">
        <ele>1.7</ele>
        <time>2017-10-27T07:53:56.449Z</time>
      </trkpt>
      <trkpt lat="43.52961" lon="3.92253">
        <ele>1.8</ele>
        <time>2017-10-27T07:53:57.436Z</time>
      </trkpt>
      <trkpt lat="43.52957" lon="3.92256">
        <ele>1.8</ele>
        <time>2017-10-27T07:53:58.454Z</time>
      </trkpt>
      <trkpt lat="43.52954" lon="3.92259">
        <ele>1.8</ele>
        <time>2017-10-27T07:53:59.448Z</time>
      </trkpt>
      <trkpt lat="43.5295" lon="3.9226">
        <ele>1.8</ele>
        <time>2017-10-27T07:54:00.450Z</time>
      </trkpt>
      <trkpt lat="43.52946" lon="3.9226">
        <ele>1.8</ele>
        <time>2017-10-27T07:54:01.449Z</time>
      </trkpt>
      <trkpt lat="43.52942" lon="3.92259">
        <ele>1.7</ele>
        <time>2017-10-27T07:54:02.452Z</time>
      </trkpt>
      <trkpt lat="43.52938" lon="3.92258">
        <ele>1.6</ele>
        <time>2017-10-27T07:54:03.449Z</time>
      </trkpt>
      <trkpt lat="43.52934" lon="3.92256">
        <ele>1.6</ele>
        <time>2017-10-27T07:54:04.447Z</time>
      </trkpt>
      <trkpt lat="43.5293" lon="3.92254">
        <ele>1.5</ele>
        <time>2017-10-27T07:54:05.449Z</time>
      </trkpt>
      <trkpt lat="43.52926" lon="3.92251">
        <ele>1.6</ele>
        <time>2017-10-27T07:54:06.452Z</time>
      </trkpt>
      <trkpt lat="43.52923" lon="3.92247">
        <ele>1.6</ele>
        <time>2017-10-27T07:54:07.449Z</time>
      </trkpt>
      <trkpt lat="43.5292" lon="3.92244">
        <ele>1.6</ele>
        <time>2017-10-27T07:54:08.448Z</time>
      </trkpt>
      <trkpt lat="43.52916" lon="3.9224">
        <ele>1.6</ele>
        <time>2017-10-27T07:54:09.448Z</time>
      </trkpt>
      <trkpt lat="43.52913" lon="3.92237">
        <ele>1.5</ele>
        <time>2017-10-27T07:54:10.436Z</time>
      </trkpt>
      <trkpt lat="43.5291" lon="3.92234">
        <ele>1.4</ele>
        <time>2017-10-27T07:54:11.434Z</time>
      </trkpt>
      <trkpt lat="43.52907" lon="3.92231">
        <ele>1.3</ele>
        <time>2017-10-27T07:54:12.440Z</time>
      </trkpt>
      <trkpt lat="43.52904" lon="3.92228">
        <ele>1.3</ele>
        <time>2017-10-27T07:54:13.438Z</time>
      </trkpt>
      <trkpt lat="43.52901" lon="3.92225">
        <ele>1.3</ele>
        <time>2017-10-27T07:54:14.453Z</time>
      </trkpt>
      <trkpt lat="43.52898" lon="3.92222">
        <ele>1.2</ele>
        <time>2017-10-27T07:54:15.454Z</time>
      </trkpt>
      <trkpt lat="43.52895" lon="3.92218">
        <ele>1.3</ele>
        <time>2017-10-27T07:54:16.450Z</time>
      </trkpt>
      <trkpt lat="43.52891" lon="3.92215">
        <ele>1.3</ele>
        <time>2017-10-27T07:54:17.450Z</time>
      </trkpt>
      <trkpt lat="43.52888" lon="3.92212">
        <ele>1.4</ele>
        <time>2017-10-27T07:54:18.439Z</time>
      </trkpt>
      <trkpt lat="43.52885" lon="3.92208">
        <ele>1.5</ele>
        <time>2017-10-27T07:54:19.450Z</time>
      </trkpt>
      <trkpt lat="43.52881" lon="3.92205">
        <ele>1.6</ele>
        <time>2017-10-27T07:54:20.447Z</time>
      </trkpt>
      <trkpt lat="43.52878" lon="3.92201">
        <ele>1.6</ele>
        <time>2017-10-27T07:54:21.450Z</time>
      </trkpt>
      <trkpt lat="43.52874" lon="3.92198">
        <ele>1.6</ele>
        <time>2017-10-27T07:54:22.445Z</time>
      </trkpt>
      <trkpt lat="43.52871" lon="3.92194">
        <ele>1.6</ele>
        <time>2017-10-27T07:54:23.450Z</time>
      </trkpt>
      <trkpt lat="43.52867" lon="3.92191">
        <ele>1.6</ele>
        <time>2017-10-27T07:54:24.452Z</time>
      </trkpt>
      <trkpt lat="43.52864" lon="3.92187">
        <ele>1.6</ele>
        <time>2017-10-27T07:54:25.451Z</time>
      </trkpt>
      <trkpt lat="43.5286" lon="3.92183">
        <ele>1.5</ele>
        <time>2017-10-27T07:54:26.459Z</time>
      </trkpt>
      <trkpt lat="43.52857" lon="3.9218">
        <ele>1.4</ele>
        <time>2017-10-27T07:54:27.436Z</time>
      </trkpt>
      <trkpt lat="43.52853" lon="3.92176">
        <ele>1.4</ele>
        <time>2017-10-27T07:54:28.436Z</time>
      </trkpt>
      <trkpt lat="43.52849" lon="3.92172">
        <ele>1.3</ele>
        <time>2017-10-27T07:54:29.449Z</time>
      </trkpt>
      <trkpt lat="43.52845" lon="3.92168">
        <ele>1.3</ele>
        <time>2017-10-27T07:54:30.437Z</time>
      </trkpt>
      <trkpt lat="43.52842" lon="3.92164">
        <ele>1.3</ele>
        <time>2017-10-27T07:54:31.451Z</time>
      </trkpt>
      <trkpt lat="43.52838" lon="3.9216">
        <ele>1.2</ele>
        <time>2017-10-27T07:54:32.454Z</time>
      </trkpt>
      <trkpt lat="43.52834" lon="3.92156">
        <ele>1.2</ele>
        <time>2017-10-27T07:54:33.438Z</time>
      </trkpt>
      <trkpt lat="43.5283" lon="3.92153">
        <ele>1.2</ele>
        <time>2017-10-27T07:54:34.436Z</time>
      </trkpt>
      <trkpt lat="43.52826" lon="3.92149">
        <ele>1.2</ele>
        <time>2017-10-27T07:54:35.454Z</time>
      </trkpt>
      <trkpt lat="43.52822" lon="3.92145">
        <ele>1.2</ele>
        <time>2017-10-27T07:54:36.452Z</time>
      </trkpt>
      <trkpt lat="43.52818" lon="3.92141">
        <ele>1.3</ele>
        <time>2017-10-27T07:54:37.454Z</time>
      </trkpt>
      <trkpt lat="43.52814" lon="3.92137">
        <ele>1.3</ele>
        <time>2017-10-27T07:54:38.452Z</time>
      </trkpt>
      <trkpt lat="43.5281" lon="3.92133">
        <ele>1.3</ele>
        <time>2017-10-27T07:54:39.445Z</time>
      </trkpt>
      <trkpt lat="43.52806" lon="3.92129">
        <ele>1.3</ele>
        <time>2017-10-27T07:54:40.449Z</time>
      </trkpt>
      <trkpt lat="43.52803" lon="3.92125">
        <ele>1.3</ele>
        <time>2017-10-27T07:54:41.450Z</time>
      </trkpt>
      <trkpt lat="43.52799" lon="3.92121">
        <ele>1.3</ele>
        <time>2017-10-27T07:54:42.451Z</time>
      </trkpt>
      <trkpt lat="43.52795" lon="3.92117">
        <ele>1.3</ele>
        <time>2017-10-27T07:54:43.450Z</time>
      </trkpt>
      <trkpt lat="43.52791" lon="3.92113">
        <ele>1.3</ele>
        <time>2017-10-27T07:54:44.450Z</time>
      </trkpt>
      <trkpt lat="43.52787" lon="3.92109">
        <ele>1.3</ele>
        <time>2017-10-27T07:54:45.444Z</time>
      </trkpt>
      <trkpt lat="43.52783" lon="3.92105">
        <ele>1.4</ele>
        <time>2017-10-27T07:54:46.450Z</time>
      </trkpt>
      <trkpt lat="43.52779" lon="3.92101">
        <ele>1.4</ele>
        <time>2017-10-27T07:54:47.450Z</time>
      </trkpt>
      <trkpt lat="43.52775" lon="3.92097">
        <ele>1.4</ele>
        <time>2017-10-27T07:54:48.452Z</time>
      </trkpt>
      <trkpt lat="43.52771" lon="3.92093">
        <ele>1.4</ele>
        <time>2017-10-27T07:54:49.437Z</time>
      </trkpt>
      <trkpt lat="43.52767" lon="3.92089">
        <ele>1.4</ele>
        <time>2017-10-27T07:54:50.436Z</time>
      </trkpt>
      <trkpt lat="43.52763" lon="3.92085">
        <ele>1.4</ele>
        <time>2017-10-27T07:54:51.436Z</time>
      </trkpt>
      <trkpt lat="43.52759" lon="3.92081">
        <ele>1.4</ele>
        <time>2017-10-27T07:54:52.436Z</time>
      </trkpt>
      <trkpt lat="43.52756" lon="3.92077">
        <ele>1.4</ele>
        <time>2017-10-27T07:54:53.446Z</time>
      </trkpt>
      <trkpt lat="43.52752" lon="3.92073">
        <ele>1.4</ele>
        <time>2017-10-27T07:54:54.452Z</time>
      </trkpt>
      <trkpt lat="43.52748" lon="3.92069">
        <ele>1.4</ele>
        <time>2017-10-27T07:54:55.450Z</time>
      </trkpt>
      <trkpt lat="43.52744" lon="3.92065">
        <ele>1.5</ele>
        <time>2017-10-27T07:54:56.446Z</time>
      </trkpt>
      <trkpt lat="43.5274" lon="3.92061">
        <ele>1.5</ele>
        <time>2017-10-27T07:54:57.436Z</time>
      </trkpt>
      <trkpt lat="43.52737" lon="3.92057">
        <ele>1.6</ele>
        <time>2017-10-27T07:54:58.437Z</time>
      </trkpt>
      <trkpt lat="43.52733" lon="3.92054">
        <ele>1.6</ele>
        <time>2017-10-27T07:54:59.451Z</time>
      </trkpt>
      <trkpt lat="43.52729" lon="3.9205">
        <ele>1.6</ele>
        <time>2017-10-27T07:55:00.456Z</time>
      </trkpt>
      <trkpt lat="43.52726" lon="3.92046">
        <ele>1.6</ele>
        <time>2017-10-27T07:55:01.470Z</time>
      </trkpt>
      <trkpt lat="43.52722" lon="3.92043">
        <ele>1.6</ele>
        <time>2017-10-27T07:55:02.472Z</time>
      </trkpt>
      <trkpt lat="43.52718" lon="3.92039">
        <ele>1.6</ele>
        <time>2017-10-27T07:55:03.472Z</time>
      </trkpt>
      <trkpt lat="43.52715" lon="3.92036">
        <ele>1.7</ele>
        <time>2017-10-27T07:55:04.465Z</time>
      </trkpt>
      <trkpt lat="43.52712" lon="3.92032">
        <ele>1.7</ele>
        <time>2017-10-27T07:55:05.452Z</time>
      </trkpt>
      <trkpt lat="43.52708" lon="3.92029">
        <ele>1.7</ele>
        <time>2017-10-27T07:55:06.455Z</time>
      </trkpt>
      <trkpt lat="43.52705" lon="3.92025">
        <ele>1.8</ele>
        <time>2017-10-27T07:55:07.448Z</time>
      </trkpt>
      <trkpt lat="43.52702" lon="3.92022">
        <ele>1.9</ele>
        <time>2017-10-27T07:55:08.446Z</time>
      </trkpt>
      <trkpt lat="43.52698" lon="3.92019">
        <ele>2</ele>
        <time>2017-10-27T07:55:09.447Z</time>
      </trkpt>
      <trkpt lat="43.52695" lon="3.92016">
        <ele>2.1</ele>
        <time>2017-10-27T07:55:10.450Z</time>
      </trkpt>
      <trkpt lat="43.52692" lon="3.92013">
        <ele>2.1</ele>
        <time>2017-10-27T07:55:11.452Z</time>
      </trkpt>
      <trkpt lat="43.52689" lon="3.92009">
        <ele>2.2</ele>
        <time>2017-10-27T07:55:12.454Z</time>
      </trkpt>
      <trkpt lat="43.52685" lon="3.92006">
        <ele>2.2</ele>
        <time>2017-10-27T07:55:13.444Z</time>
      </trkpt>
      <trkpt lat="43.52682" lon="3.92003">
        <ele>2.4</ele>
        <time>2017-10-27T07:55:14.447Z</time>
      </trkpt>
      <trkpt lat="43.52679" lon="3.92">
        <ele>2.7</ele>
        <time>2017-10-27T07:55:15.434Z</time>
      </trkpt>
      <trkpt lat="43.52676" lon="3.91997">
        <ele>3</ele>
        <time>2017-10-27T07:55:16.432Z</time>
      </trkpt>
      <trkpt lat="43.52673" lon="3.91994">
        <ele>3.3</ele>
        <time>2017-10-27T07:55:17.445Z</time>
      </trkpt>
      <trkpt lat="43.5267" lon="3.91991">
        <ele>3.5</ele>
        <time>2017-10-27T07:55:18.438Z</time>
      </trkpt>
      <trkpt lat="43.52667" lon="3.91988">
        <ele>3.6</ele>
        <time>2017-10-27T07:55:19.446Z</time>
      </trkpt>
      <trkpt lat="43.52664" lon="3.91986">
        <ele>3.8</ele>
        <time>2017-10-27T07:55:20.454Z</time>
      </trkpt>
      <trkpt lat="43.52661" lon="3.91983">
        <ele>3.8</ele>
        <time>2017-10-27T07:55:21.447Z</time>
      </trkpt>
      <trkpt lat="43.52659" lon="3.9198">
        <ele>3.8</ele>
        <time>2017-10-27T07:55:22.445Z</time>
      </trkpt>
      <trkpt lat="43.52656" lon="3.91978">
        <ele>3.6</ele>
        <time>2017-10-27T07:55:23.447Z</time>
      </trkpt>
      <trkpt lat="43.52653" lon="3.91975">
        <ele>3.5</ele>
        <time>2017-10-27T07:55:24.454Z</time>
      </trkpt>
      <trkpt lat="43.5265" lon="3.91972">
        <ele>3.3</ele>
        <time>2017-10-27T07:55:25.455Z</time>
      </trkpt>
      <trkpt lat="43.52646" lon="3.91968">
        <ele>2.9</ele>
        <time>2017-10-27T07:55:26.452Z</time>
      </trkpt>
      <trkpt lat="43.52642" lon="3.91965">
        <ele>2.5</ele>
        <time>2017-10-27T07:55:27.447Z</time>
      </trkpt>
      <trkpt lat="43.52638" lon="3.91961">
        <ele>2.2</ele>
        <time>2017-10-27T07:55:28.447Z</time>
      </trkpt>
      <trkpt lat="43.52634" lon="3.91957">
        <ele>2.1</ele>
        <time>2017-10-27T07:55:29.447Z</time>
      </trkpt>
      <trkpt lat="43.52629" lon="3.91953">
        <ele>2</ele>
        <time>2017-10-27T07:55:30.454Z</time>
      </trkpt>
      <trkpt lat="43.52625" lon="3.9195">
        <ele>1.9</ele>
        <time>2017-10-27T07:55:31.447Z</time>
      </trkpt>
      <trkpt lat="43.5262" lon="3.91946">
        <ele>1.8</ele>
        <time>2017-10-27T07:55:32.449Z</time>
      </trkpt>
      <trkpt lat="43.52615" lon="3.91943">
        <ele>1.9</ele>
        <time>2017-10-27T07:55:33.447Z</time>
      </trkpt>
      <trkpt lat="43.52611" lon="3.9194">
        <ele>1.9</ele>
        <time>2017-10-27T07:55:34.454Z</time>
      </trkpt>
      <trkpt lat="43.52606" lon="3.91937">
        <ele>2</ele>
        <time>2017-10-27T07:55:35.433Z</time>
      </trkpt>
      <trkpt lat="43.52602" lon="3.91934">
        <ele>2</ele>
        <time>2017-10-27T07:55:36.435Z</time>
      </trkpt>
      <trkpt lat="43.52597" lon="3.91931">
        <ele>2</ele>
        <time>2017-10-27T07:55:37.439Z</time>
      </trkpt>
      <trkpt lat="43.52593" lon="3.91928">
        <ele>2</ele>
        <time>2017-10-27T07:55:38.433Z</time>
      </trkpt>
      <trkpt lat="43.52588" lon="3.91926">
        <ele>1.9</ele>
        <time>2017-10-27T07:55:39.433Z</time>
      </trkpt>
      <trkpt lat="43.52584" lon="3.91924">
        <ele>1.9</ele>
        <time>2017-10-27T07:55:40.449Z</time>
      </trkpt>
      <trkpt lat="43.52579" lon="3.91921">
        <ele>1.9</ele>
        <time>2017-10-27T07:55:41.451Z</time>
      </trkpt>
      <trkpt lat="43.52575" lon="3.9192">
        <ele>1.9</ele>
        <time>2017-10-27T07:55:42.450Z</time>
      </trkpt>
      <trkpt lat="43.5257" lon="3.91918">
        <ele>1.9</ele>
        <time>2017-10-27T07:55:43.451Z</time>
      </trkpt>
      <trkpt lat="43.52566" lon="3.91916">
        <ele>1.9</ele>
        <time>2017-10-27T07:55:44.453Z</time>
      </trkpt>
      <trkpt lat="43.52562" lon="3.91915">
        <ele>1.8</ele>
        <time>2017-10-27T07:55:45.448Z</time>
      </trkpt>
      <trkpt lat="43.52557" lon="3.91913">
        <ele>1.9</ele>
        <time>2017-10-27T07:55:46.446Z</time>
      </trkpt>
      <trkpt lat="43.52553" lon="3.91912">
        <ele>1.9</ele>
        <time>2017-10-27T07:55:47.441Z</time>
      </trkpt>
      <trkpt lat="43.52548" lon="3.91911">
        <ele>1.9</ele>
        <time>2017-10-27T07:55:48.449Z</time>
      </trkpt>
      <trkpt lat="43.52544" lon="3.9191">
        <ele>1.9</ele>
        <time>2017-10-27T07:55:49.447Z</time>
      </trkpt>
      <trkpt lat="43.52539" lon="3.91909">
        <ele>1.9</ele>
        <time>2017-10-27T07:55:50.447Z</time>
      </trkpt>
      <trkpt lat="43.52535" lon="3.91908">
        <ele>2</ele>
        <time>2017-10-27T07:55:51.447Z</time>
      </trkpt>
      <trkpt lat="43.5253" lon="3.91908">
        <ele>2</ele>
        <time>2017-10-27T07:55:52.446Z</time>
      </trkpt>
      <trkpt lat="43.52526" lon="3.91907">
        <ele>2</ele>
        <time>2017-10-27T07:55:53.444Z</time>
      </trkpt>
      <trkpt lat="43.52521" lon="3.91907">
        <ele>2.1</ele>
        <time>2017-10-27T07:55:54.446Z</time>
      </trkpt>
      <trkpt lat="43.52517" lon="3.91907">
        <ele>2.1</ele>
        <time>2017-10-27T07:55:55.449Z</time>
      </trkpt>
      <trkpt lat="43.52512" lon="3.91907">
        <ele>2.1</ele>
        <time>2017-10-27T07:55:56.445Z</time>
      </trkpt>
      <trkpt lat="43.52507" lon="3.91907">
        <ele>2.1</ele>
        <time>2017-10-27T07:55:57.433Z</time>
      </trkpt>
      <trkpt lat="43.52503" lon="3.91908">
        <ele>2.2</ele>
        <time>2017-10-27T07:55:58.433Z</time>
      </trkpt>
      <trkpt lat="43.52498" lon="3.91908">
        <ele>2.2</ele>
        <time>2017-10-27T07:55:59.439Z</time>
      </trkpt>
      <trkpt lat="43.52493" lon="3.91909">
        <ele>2.2</ele>
        <time>2017-10-27T07:56:00.449Z</time>
      </trkpt>
      <trkpt lat="43.52489" lon="3.91909">
        <ele>2.2</ele>
        <time>2017-10-27T07:56:01.454Z</time>
      </trkpt>
      <trkpt lat="43.52484" lon="3.9191">
        <ele>2.3</ele>
        <time>2017-10-27T07:56:02.448Z</time>
      </trkpt>
      <trkpt lat="43.52479" lon="3.91912">
        <ele>2.3</ele>
        <time>2017-10-27T07:56:03.447Z</time>
      </trkpt>
      <trkpt lat="43.52475" lon="3.91913">
        <ele>2.4</ele>
        <time>2017-10-27T07:56:04.448Z</time>
      </trkpt>
      <trkpt lat="43.5247" lon="3.91914">
        <ele>2.4</ele>
        <time>2017-10-27T07:56:05.446Z</time>
      </trkpt>
      <trkpt lat="43.52466" lon="3.91916">
        <ele>2.5</ele>
        <time>2017-10-27T07:56:06.452Z</time>
      </trkpt>
      <trkpt lat="43.52461" lon="3.91917">
        <ele>2.5</ele>
        <time>2017-10-27T07:56:07.448Z</time>
      </trkpt>
      <trkpt lat="43.52457" lon="3.91919">
        <ele>2.6</ele>
        <time>2017-10-27T07:56:08.450Z</time>
      </trkpt>
      <trkpt lat="43.52452" lon="3.91921">
        <ele>2.7</ele>
        <time>2017-10-27T07:56:09.452Z</time>
      </trkpt>
      <trkpt lat="43.52448" lon="3.91923">
        <ele>2.7</ele>
        <time>2017-10-27T07:56:10.452Z</time>
      </trkpt>
      <trkpt lat="43.52443" lon="3.91925">
        <ele>2.8</ele>
        <time>2017-10-27T07:56:11.450Z</time>
      </trkpt>
      <trkpt lat="43.52439" lon="3.91927">
        <ele>2.8</ele>
        <time>2017-10-27T07:56:12.448Z</time>
      </trkpt>
      <trkpt lat="43.52435" lon="3.91929">
        <ele>2.8</ele>
        <time>2017-10-27T07:56:13.446Z</time>
      </trkpt>
      <trkpt lat="43.5243" lon="3.91932">
        <ele>2.7</ele>
        <time>2017-10-27T07:56:14.446Z</time>
      </trkpt>
      <trkpt lat="43.52426" lon="3.91935">
        <ele>2.7</ele>
        <time>2017-10-27T07:56:15.434Z</time>
      </trkpt>
      <trkpt lat="43.52421" lon="3.91937">
        <ele>2.7</ele>
        <time>2017-10-27T07:56:16.433Z</time>
      </trkpt>
      <trkpt lat="43.52417" lon="3.9194">
        <ele>2.8</ele>
        <time>2017-10-27T07:56:17.433Z</time>
      </trkpt>
      <trkpt lat="43.52412" lon="3.91943">
        <ele>2.8</ele>
        <time>2017-10-27T07:56:18.435Z</time>
      </trkpt>
      <trkpt lat="43.52408" lon="3.91946">
        <ele>2.8</ele>
        <time>2017-10-27T07:56:19.438Z</time>
      </trkpt>
      <trkpt lat="43.52403" lon="3.91949">
        <ele>2.9</ele>
        <time>2017-10-27T07:56:20.441Z</time>
      </trkpt>
      <trkpt lat="43.52399" lon="3.91952">
        <ele>2.9</ele>
        <time>2017-10-27T07:56:21.447Z</time>
      </trkpt>
      <trkpt lat="43.52394" lon="3.91955">
        <ele>2.9</ele>
        <time>2017-10-27T07:56:22.449Z</time>
      </trkpt>
      <trkpt lat="43.5239" lon="3.91959">
        <ele>2.9</ele>
        <time>2017-10-27T07:56:23.453Z</time>
      </trkpt>
      <trkpt lat="43.52386" lon="3.91962">
        <ele>2.9</ele>
        <time>2017-10-27T07:56:24.450Z</time>
      </trkpt>
      <trkpt lat="43.52381" lon="3.91966">
        <ele>3</ele>
        <time>2017-10-27T07:56:25.447Z</time>
      </trkpt>
      <trkpt lat="43.52377" lon="3.91969">
        <ele>3</ele>
        <time>2017-10-27T07:56:26.447Z</time>
      </trkpt>
      <trkpt lat="43.52373" lon="3.91972">
        <ele>3</ele>
        <time>2017-10-27T07:56:27.449Z</time>
      </trkpt>
      <trkpt lat="43.52368" lon="3.91976">
        <ele>3.1</ele>
        <time>2017-10-27T07:56:28.446Z</time>
      </trkpt>
      <trkpt lat="43.52364" lon="3.91979">
        <ele>3.1</ele>
        <time>2017-10-27T07:56:29.447Z</time>
      </trkpt>
      <trkpt lat="43.5236" lon="3.91983">
        <ele>3.1</ele>
        <time>2017-10-27T07:56:30.437Z</time>
      </trkpt>
      <trkpt lat="43.52356" lon="3.91986">
        <ele>3</ele>
        <time>2017-10-27T07:56:31.444Z</time>
      </trkpt>
      <trkpt lat="43.52351" lon="3.91989">
        <ele>2.9</ele>
        <time>2017-10-27T07:56:32.448Z</time>
      </trkpt>
      <trkpt lat="43.52347" lon="3.91991">
        <ele>3</ele>
        <time>2017-10-27T07:56:33.446Z</time>
      </trkpt>
      <trkpt lat="43.52342" lon="3.91991">
        <ele>3</ele>
        <time>2017-10-27T07:56:34.447Z</time>
      </trkpt>
      <trkpt lat="43.52337" lon="3.91989">
        <ele>3</ele>
        <time>2017-10-27T07:56:35.448Z</time>
      </trkpt>
      <trkpt lat="43.52334" lon="3.91986">
        <ele>2.7</ele>
        <time>2017-10-27T07:56:36.436Z</time>
      </trkpt>
      <trkpt lat="43.52331" lon="3.91981">
        <ele>2.5</ele>
        <time>2017-10-27T07:56:37.438Z</time>
      </trkpt>
      <trkpt lat="43.52328" lon="3.91976">
        <ele>2.3</ele>
        <time>2017-10-27T07:56:38.434Z</time>
      </trkpt>
      <trkpt lat="43.52325" lon="3.91971">
        <ele>2.1</ele>
        <time>2017-10-27T07:56:39.445Z</time>
      </trkpt>
      <trkpt lat="43.52323" lon="3.91967">
        <ele>2.1</ele>
        <time>2017-10-27T07:56:40.447Z</time>
      </trkpt>
      <trkpt lat="43.52321" lon="3.91962">
        <ele>1.9</ele>
        <time>2017-10-27T07:56:41.453Z</time>
      </trkpt>
      <trkpt lat="43.52319" lon="3.91957">
        <ele>2.1</ele>
        <time>2017-10-27T07:56:42.450Z</time>
      </trkpt>
      <trkpt lat="43.52317" lon="3.91952">
        <ele>2.1</ele>
        <time>2017-10-27T07:56:43.458Z</time>
      </trkpt>
      <trkpt lat="43.52315" lon="3.91948">
        <ele>2.2</ele>
        <time>2017-10-27T07:56:44.447Z</time>
      </trkpt>
      <trkpt lat="43.52313" lon="3.91944">
        <ele>2.1</ele>
        <time>2017-10-27T07:56:45.447Z</time>
      </trkpt>
      <trkpt lat="43.52311" lon="3.91939">
        <ele>2</ele>
        <time>2017-10-27T07:56:46.448Z</time>
      </trkpt>
      <trkpt lat="43.5231" lon="3.91934">
        <ele>1.9</ele>
        <time>2017-10-27T07:56:47.447Z</time>
      </trkpt>
      <trkpt lat="43.52309" lon="3.91929">
        <ele>1.9</ele>
        <time>2017-10-27T07:56:48.454Z</time>
      </trkpt>
      <trkpt lat="43.52308" lon="3.91924">
        <ele>1.8</ele>
        <time>2017-10-27T07:56:49.448Z</time>
      </trkpt>
      <trkpt lat="43.52306" lon="3.91919">
        <ele>1.8</ele>
        <time>2017-10-27T07:56:50.447Z</time>
      </trkpt>
      <trkpt lat="43.52305" lon="3.91914">
        <ele>1.8</ele>
        <time>2017-10-27T07:56:51.454Z</time>
      </trkpt>
      <trkpt lat="43.52303" lon="3.91909">
        <ele>1.8</ele>
        <time>2017-10-27T07:56:52.446Z</time>
      </trkpt>
      <trkpt lat="43.52302" lon="3.91905">
        <ele>1.7</ele>
        <time>2017-10-27T07:56:53.446Z</time>
      </trkpt>
      <trkpt lat="43.523" lon="3.919">
        <ele>1.7</ele>
        <time>2017-10-27T07:56:54.442Z</time>
      </trkpt>
      <trkpt lat="43.52299" lon="3.91895">
        <ele>1.6</ele>
        <time>2017-10-27T07:56:55.433Z</time>
      </trkpt>
      <trkpt lat="43.52297" lon="3.91891">
        <ele>1.6</ele>
        <time>2017-10-27T07:56:56.433Z</time>
      </trkpt>
      <trkpt lat="43.52295" lon="3.91886">
        <ele>1.6</ele>
        <time>2017-10-27T07:56:57.435Z</time>
      </trkpt>
      <trkpt lat="43.52294" lon="3.91881">
        <ele>1.5</ele>
        <time>2017-10-27T07:56:58.448Z</time>
      </trkpt>
      <trkpt lat="43.52293" lon="3.91876">
        <ele>1.6</ele>
        <time>2017-10-27T07:56:59.450Z</time>
      </trkpt>
      <trkpt lat="43.52292" lon="3.91871">
        <ele>1.6</ele>
        <time>2017-10-27T07:57:00.452Z</time>
      </trkpt>
      <trkpt lat="43.5229" lon="3.91867">
        <ele>1.6</ele>
        <time>2017-10-27T07:57:01.452Z</time>
      </trkpt>
      <trkpt lat="43.52289" lon="3.91862">
        <ele>1.6</ele>
        <time>2017-10-27T07:57:02.446Z</time>
      </trkpt>
      <trkpt lat="43.52288" lon="3.91858">
        <ele>1.5</ele>
        <time>2017-10-27T07:57:03.448Z</time>
      </trkpt>
      <trkpt lat="43.52286" lon="3.91854">
        <ele>1.5</ele>
        <time>2017-10-27T07:57:04.446Z</time>
      </trkpt>
      <trkpt lat="43.52285" lon="3.9185">
        <ele>1.5</ele>
        <time>2017-10-27T07:57:05.450Z</time>
      </trkpt>
      <trkpt lat="43.52283" lon="3.91846">
        <ele>1.4</ele>
        <time>2017-10-27T07:57:06.449Z</time>
      </trkpt>
      <trkpt lat="43.52282" lon="3.91841">
        <ele>1.4</ele>
        <time>2017-10-27T07:57:07.434Z</time>
      </trkpt>
      <trkpt lat="43.52281" lon="3.91837">
        <ele>1.3</ele>
        <time>2017-10-27T07:57:08.447Z</time>
      </trkpt>
      <trkpt lat="43.52279" lon="3.91833">
        <ele>1.2</ele>
        <time>2017-10-27T07:57:09.454Z</time>
      </trkpt>
      <trkpt lat="43.52278" lon="3.91829">
        <ele>1.1</ele>
        <time>2017-10-27T07:57:10.448Z</time>
      </trkpt>
      <trkpt lat="43.52276" lon="3.91824">
        <ele>1</ele>
        <time>2017-10-27T07:57:11.447Z</time>
      </trkpt>
      <trkpt lat="43.52275" lon="3.9182">
        <ele>0.9</ele>
        <time>2017-10-27T07:57:12.461Z</time>
      </trkpt>
      <trkpt lat="43.52273" lon="3.91816">
        <ele>1.1</ele>
        <time>2017-10-27T07:57:13.448Z</time>
      </trkpt>
      <trkpt lat="43.52272" lon="3.91812">
        <ele>0.9</ele>
        <time>2017-10-27T07:57:14.452Z</time>
      </trkpt>
      <trkpt lat="43.5227" lon="3.91808">
        <ele>0.8</ele>
        <time>2017-10-27T07:57:15.447Z</time>
      </trkpt>
      <trkpt lat="43.52269" lon="3.91804">
        <ele>0.6</ele>
        <time>2017-10-27T07:57:16.447Z</time>
      </trkpt>
      <trkpt lat="43.52267" lon="3.918">
        <ele>0.7</ele>
        <time>2017-10-27T07:57:17.433Z</time>
      </trkpt>
      <trkpt lat="43.52266" lon="3.91796">
        <ele>0.7</ele>
        <time>2017-10-27T07:57:18.439Z</time>
      </trkpt>
      <trkpt lat="43.52265" lon="3.91792">
        <ele>0.6</ele>
        <time>2017-10-27T07:57:19.434Z</time>
      </trkpt>
      <trkpt lat="43.52263" lon="3.91788">
        <ele>0.5</ele>
        <time>2017-10-27T07:57:20.433Z</time>
      </trkpt>
      <trkpt lat="43.52262" lon="3.91784">
        <ele>0.4</ele>
        <time>2017-10-27T07:57:21.433Z</time>
      </trkpt>
      <trkpt lat="43.5226" lon="3.91779">
        <ele>0.3</ele>
        <time>2017-10-27T07:57:22.432Z</time>
      </trkpt>
      <trkpt lat="43.52259" lon="3.91775">
        <ele>0.3</ele>
        <time>2017-10-27T07:57:23.435Z</time>
      </trkpt>
      <trkpt lat="43.52257" lon="3.91771">
        <ele>1</ele>
        <time>2017-10-27T07:57:24.452Z</time>
      </trkpt>
      <trkpt lat="43.52255" lon="3.91767">
        <ele>-0.1</ele>
        <time>2017-10-27T07:57:25.451Z</time>
      </trkpt>
      <trkpt lat="43.52253" lon="3.91764">
        <ele>-0.2</ele>
        <time>2017-10-27T07:57:26.449Z</time>
      </trkpt>
      <trkpt lat="43.52252" lon="3.9176">
        <ele>-0.3</ele>
        <time>2017-10-27T07:57:27.469Z</time>
      </trkpt>
      <trkpt lat="43.5225" lon="3.91756">
        <ele>-0.3</ele>
        <time>2017-10-27T07:57:28.469Z</time>
      </trkpt>
      <trkpt lat="43.52249" lon="3.91751">
        <ele>-0.4</ele>
        <time>2017-10-27T07:57:29.455Z</time>
      </trkpt>
      <trkpt lat="43.52248" lon="3.91747">
        <ele>-0.5</ele>
        <time>2017-10-27T07:57:30.468Z</time>
      </trkpt>
      <trkpt lat="43.52246" lon="3.91743">
        <ele>-0.7</ele>
        <time>2017-10-27T07:57:31.455Z</time>
      </trkpt>
      <trkpt lat="43.52244" lon="3.91739">
        <ele>-0.7</ele>
        <time>2017-10-27T07:57:32.447Z</time>
      </trkpt>
      <trkpt lat="43.52242" lon="3.91735">
        <ele>-0.8</ele>
        <time>2017-10-27T07:57:33.448Z</time>
      </trkpt>
      <trkpt lat="43.5224" lon="3.9173">
        <ele>-0.5</ele>
        <time>2017-10-27T07:57:34.448Z</time>
      </trkpt>
      <trkpt lat="43.52238" lon="3.91726">
        <ele>-0.5</ele>
        <time>2017-10-27T07:57:35.449Z</time>
      </trkpt>
      <trkpt lat="43.52237" lon="3.91722">
        <ele>-0.6</ele>
        <time>2017-10-27T07:57:36.455Z</time>
      </trkpt>
      <trkpt lat="43.52235" lon="3.91718">
        <ele>-0.7</ele>
        <time>2017-10-27T07:57:37.448Z</time>
      </trkpt>
      <trkpt lat="43.52233" lon="3.91713">
        <ele>-0.7</ele>
        <time>2017-10-27T07:57:38.454Z</time>
      </trkpt>
      <trkpt lat="43.52231" lon="3.91709">
        <ele>-0.8</ele>
        <time>2017-10-27T07:57:39.447Z</time>
      </trkpt>
      <trkpt lat="43.52229" lon="3.91705">
        <ele>-0.6</ele>
        <time>2017-10-27T07:57:40.448Z</time>
      </trkpt>
      <trkpt lat="43.52228" lon="3.91701">
        <ele>-0.5</ele>
        <time>2017-10-27T07:57:41.433Z</time>
      </trkpt>
      <trkpt lat="43.52226" lon="3.91697">
        <ele>-0.4</ele>
        <time>2017-10-27T07:57:42.434Z</time>
      </trkpt>
      <trkpt lat="43.52224" lon="3.91693">
        <ele>-0.4</ele>
        <time>2017-10-27T07:57:43.434Z</time>
      </trkpt>
      <trkpt lat="43.52222" lon="3.91689">
        <ele>-0.4</ele>
        <time>2017-10-27T07:57:44.445Z</time>
      </trkpt>
      <trkpt lat="43.5222" lon="3.91686">
        <ele>-0.4</ele>
        <time>2017-10-27T07:57:45.454Z</time>
      </trkpt>
      <trkpt lat="43.52218" lon="3.91682">
        <ele>-0.3</ele>
        <time>2017-10-27T07:57:46.445Z</time>
      </trkpt>
      <trkpt lat="43.52217" lon="3.91679">
        <ele>-0.3</ele>
        <time>2017-10-27T07:57:47.436Z</time>
      </trkpt>
      <trkpt lat="43.52215" lon="3.91675">
        <ele>-0.5</ele>
        <time>2017-10-27T07:57:48.448Z</time>
      </trkpt>
      <trkpt lat="43.52213" lon="3.91672">
        <ele>-0.4</ele>
        <time>2017-10-27T07:57:49.448Z</time>
      </trkpt>
      <trkpt lat="43.52211" lon="3.91668">
        <ele>-0.4</ele>
        <time>2017-10-27T07:57:50.447Z</time>
      </trkpt>
      <trkpt lat="43.52209" lon="3.91664">
        <ele>-0.3</ele>
        <time>2017-10-27T07:57:51.447Z</time>
      </trkpt>
      <trkpt lat="43.52207" lon="3.9166">
        <ele>-0.3</ele>
        <time>2017-10-27T07:57:52.446Z</time>
      </trkpt>
      <trkpt lat="43.52205" lon="3.91656">
        <ele>-0.4</ele>
        <time>2017-10-27T07:57:53.451Z</time>
      </trkpt>
      <trkpt lat="43.52203" lon="3.91652">
        <ele>-0.5</ele>
        <time>2017-10-27T07:57:54.444Z</time>
      </trkpt>
      <trkpt lat="43.52201" lon="3.91648">
        <ele>-0.7</ele>
        <time>2017-10-27T07:57:55.447Z</time>
      </trkpt>
      <trkpt lat="43.522" lon="3.91643">
        <ele>-0.3</ele>
        <time>2017-10-27T07:57:56.448Z</time>
      </trkpt>
      <trkpt lat="43.52198" lon="3.91639">
        <ele>-0.4</ele>
        <time>2017-10-27T07:57:57.433Z</time>
      </trkpt>
      <trkpt lat="43.52196" lon="3.91634">
        <ele>-0.3</ele>
        <time>2017-10-27T07:57:58.446Z</time>
      </trkpt>
      <trkpt lat="43.52194" lon="3.9163">
        <ele>-0.2</ele>
        <time>2017-10-27T07:57:59.447Z</time>
      </trkpt>
      <trkpt lat="43.52192" lon="3.91626">
        <ele>-0.1</ele>
        <time>2017-10-27T07:58:00.451Z</time>
      </trkpt>
      <trkpt lat="43.5219" lon="3.91622">
        <ele>-0.1</ele>
        <time>2017-10-27T07:58:01.435Z</time>
      </trkpt>
      <trkpt lat="43.52188" lon="3.91617">
        <ele>1.2</ele>
        <time>2017-10-27T07:58:02.445Z</time>
      </trkpt>
      <trkpt lat="43.52187" lon="3.91613">
        <ele>1.3</ele>
        <time>2017-10-27T07:58:03.433Z</time>
      </trkpt>
      <trkpt lat="43.52185" lon="3.91609">
        <ele>1.4</ele>
        <time>2017-10-27T07:58:04.433Z</time>
      </trkpt>
      <trkpt lat="43.52183" lon="3.91604">
        <ele>1.4</ele>
        <time>2017-10-27T07:58:05.438Z</time>
      </trkpt>
      <trkpt lat="43.52181" lon="3.916">
        <ele>-0.1</ele>
        <time>2017-10-27T07:58:06.456Z</time>
      </trkpt>
      <trkpt lat="43.52179" lon="3.91595">
        <ele>-0.1</ele>
        <time>2017-10-27T07:58:07.456Z</time>
      </trkpt>
      <trkpt lat="43.52177" lon="3.9159">
        <ele>1.6</ele>
        <time>2017-10-27T07:58:08.441Z</time>
      </trkpt>
      <trkpt lat="43.52175" lon="3.91586">
        <ele>-0.1</ele>
        <time>2017-10-27T07:58:09.443Z</time>
      </trkpt>
      <trkpt lat="43.52173" lon="3.91582">
        <ele>-0.2</ele>
        <time>2017-10-27T07:58:10.449Z</time>
      </trkpt>
      <trkpt lat="43.52171" lon="3.91577">
        <ele>-0.1</ele>
        <time>2017-10-27T07:58:11.490Z</time>
      </trkpt>
      <trkpt lat="43.52169" lon="3.91572">
        <ele>-0.1</ele>
        <time>2017-10-27T07:58:12.471Z</time>
      </trkpt>
      <trkpt lat="43.52167" lon="3.91567">
        <ele>-0.1</ele>
        <time>2017-10-27T07:58:13.464Z</time>
      </trkpt>
      <trkpt lat="43.52165" lon="3.91562">
        <ele>1.3</ele>
        <time>2017-10-27T07:58:14.447Z</time>
      </trkpt>
      <trkpt lat="43.52163" lon="3.91557">
        <ele>1.2</ele>
        <time>2017-10-27T07:58:15.471Z</time>
      </trkpt>
      <trkpt lat="43.52161" lon="3.91552">
        <ele>1.2</ele>
        <time>2017-10-27T07:58:16.449Z</time>
      </trkpt>
      <trkpt lat="43.52158" lon="3.91548">
        <ele>1.3</ele>
        <time>2017-10-27T07:58:17.443Z</time>
      </trkpt>
      <trkpt lat="43.52156" lon="3.91543">
        <ele>1.4</ele>
        <time>2017-10-27T07:58:18.448Z</time>
      </trkpt>
      <trkpt lat="43.52153" lon="3.91538">
        <ele>0.1</ele>
        <time>2017-10-27T07:58:19.449Z</time>
      </trkpt>
      <trkpt lat="43.52151" lon="3.91533">
        <ele>0.1</ele>
        <time>2017-10-27T07:58:20.451Z</time>
      </trkpt>
      <trkpt lat="43.52149" lon="3.91529">
        <ele>0.1</ele>
        <time>2017-10-27T07:58:21.447Z</time>
      </trkpt>
      <trkpt lat="43.52146" lon="3.91524">
        <ele>0.1</ele>
        <time>2017-10-27T07:58:22.447Z</time>
      </trkpt>
      <trkpt lat="43.52144" lon="3.9152">
        <ele>0.1</ele>
        <time>2017-10-27T07:58:23.447Z</time>
      </trkpt>
      <trkpt lat="43.52141" lon="3.91515">
        <ele>0.1</ele>
        <time>2017-10-27T07:58:24.440Z</time>
      </trkpt>
      <trkpt lat="43.52139" lon="3.91511">
        <ele>0.2</ele>
        <time>2017-10-27T07:58:25.446Z</time>
      </trkpt>
      <trkpt lat="43.52137" lon="3.91506">
        <ele>0.2</ele>
        <time>2017-10-27T07:58:26.447Z</time>
      </trkpt>
      <trkpt lat="43.52135" lon="3.91502">
        <ele>0.2</ele>
        <time>2017-10-27T07:58:27.448Z</time>
      </trkpt>
      <trkpt lat="43.52132" lon="3.91498">
        <ele>0.2</ele>
        <time>2017-10-27T07:58:28.447Z</time>
      </trkpt>
      <trkpt lat="43.5213" lon="3.91493">
        <ele>0.2</ele>
        <time>2017-10-27T07:58:29.449Z</time>
      </trkpt>
      <trkpt lat="43.52128" lon="3.91489">
        <ele>0.1</ele>
        <time>2017-10-27T07:58:30.437Z</time>
      </trkpt>
      <trkpt lat="43.52126" lon="3.91484">
        <ele>0.1</ele>
        <time>2017-10-27T07:58:31.435Z</time>
      </trkpt>
      <trkpt lat="43.52124" lon="3.9148">
        <ele>0.1</ele>
        <time>2017-10-27T07:58:32.436Z</time>
      </trkpt>
      <trkpt lat="43.52121" lon="3.91476">
        <ele>0.1</ele>
        <time>2017-10-27T07:58:33.436Z</time>
      </trkpt>
      <trkpt lat="43.52119" lon="3.91471">
        <ele>0.1</ele>
        <time>2017-10-27T07:58:34.449Z</time>
      </trkpt>
      <trkpt lat="43.52116" lon="3.91467">
        <ele>0.1</ele>
        <time>2017-10-27T07:58:35.455Z</time>
      </trkpt>
      <trkpt lat="43.52114" lon="3.91463">
        <ele>1.6</ele>
        <time>2017-10-27T07:58:36.456Z</time>
      </trkpt>
      <trkpt lat="43.52112" lon="3.91459">
        <ele>1.5</ele>
        <time>2017-10-27T07:58:37.436Z</time>
      </trkpt>
      <trkpt lat="43.52109" lon="3.91454">
        <ele>1.4</ele>
        <time>2017-10-27T07:58:38.448Z</time>
      </trkpt>
      <trkpt lat="43.52107" lon="3.9145">
        <ele>0.1</ele>
        <time>2017-10-27T07:58:39.451Z</time>
      </trkpt>
      <trkpt lat="43.52105" lon="3.91445">
        <ele>0.3</ele>
        <time>2017-10-27T07:58:40.452Z</time>
      </trkpt>
      <trkpt lat="43.52102" lon="3.91441">
        <ele>0.3</ele>
        <time>2017-10-27T07:58:41.447Z</time>
      </trkpt>
      <trkpt lat="43.521" lon="3.91437">
        <ele>0.3</ele>
        <time>2017-10-27T07:58:42.448Z</time>
      </trkpt>
      <trkpt lat="43.52097" lon="3.91433">
        <ele>0.2</ele>
        <time>2017-10-27T07:58:43.456Z</time>
      </trkpt>
      <trkpt lat="43.52094" lon="3.91428">
        <ele>0.2</ele>
        <time>2017-10-27T07:58:44.448Z</time>
      </trkpt>
      <trkpt lat="43.52091" lon="3.91424">
        <ele>0.2</ele>
        <time>2017-10-27T07:58:45.458Z</time>
      </trkpt>
      <trkpt lat="43.52087" lon="3.91419">
        <ele>0.3</ele>
        <time>2017-10-27T07:58:46.448Z</time>
      </trkpt>
      <trkpt lat="43.52084" lon="3.91415">
        <ele>0.4</ele>
        <time>2017-10-27T07:58:47.451Z</time>
      </trkpt>
      <trkpt lat="43.52082" lon="3.9141">
        <ele>0.6</ele>
        <time>2017-10-27T07:58:48.450Z</time>
      </trkpt>
      <trkpt lat="43.52079" lon="3.91405">
        <ele>0.7</ele>
        <time>2017-10-27T07:58:49.447Z</time>
      </trkpt>
      <trkpt lat="43.52076" lon="3.914">
        <ele>0.8</ele>
        <time>2017-10-27T07:58:50.447Z</time>
      </trkpt>
      <trkpt lat="43.52074" lon="3.91395">
        <ele>0.9</ele>
        <time>2017-10-27T07:58:51.438Z</time>
      </trkpt>
      <trkpt lat="43.52071" lon="3.9139">
        <ele>1</ele>
        <time>2017-10-27T07:58:52.442Z</time>
      </trkpt>
      <trkpt lat="43.52069" lon="3.91385">
        <ele>0.9</ele>
        <time>2017-10-27T07:58:53.433Z</time>
      </trkpt>
      <trkpt lat="43.52066" lon="3.9138">
        <ele>1</ele>
        <time>2017-10-27T07:58:54.436Z</time>
      </trkpt>
      <trkpt lat="43.52063" lon="3.91375">
        <ele>1.1</ele>
        <time>2017-10-27T07:58:55.438Z</time>
      </trkpt>
      <trkpt lat="43.52061" lon="3.91371">
        <ele>1.2</ele>
        <time>2017-10-27T07:58:56.449Z</time>
      </trkpt>
      <trkpt lat="43.52058" lon="3.91366">
        <ele>1.2</ele>
        <time>2017-10-27T07:58:57.446Z</time>
      </trkpt>
      <trkpt lat="43.52055" lon="3.91362">
        <ele>1.3</ele>
        <time>2017-10-27T07:58:58.450Z</time>
      </trkpt>
      <trkpt lat="43.52052" lon="3.91357">
        <ele>1.4</ele>
        <time>2017-10-27T07:58:59.447Z</time>
      </trkpt>
      <trkpt lat="43.52049" lon="3.91353">
        <ele>1.4</ele>
        <time>2017-10-27T07:59:00.449Z</time>
      </trkpt>
      <trkpt lat="43.52046" lon="3.91348">
        <ele>1.4</ele>
        <time>2017-10-27T07:59:01.451Z</time>
      </trkpt>
      <trkpt lat="43.52043" lon="3.91343">
        <ele>1.5</ele>
        <time>2017-10-27T07:59:02.433Z</time>
      </trkpt>
      <trkpt lat="43.52041" lon="3.91337">
        <ele>1.5</ele>
        <time>2017-10-27T07:59:03.437Z</time>
      </trkpt>
      <trkpt lat="43.52039" lon="3.91332">
        <ele>1.8</ele>
        <time>2017-10-27T07:59:04.445Z</time>
      </trkpt>
      <trkpt lat="43.52036" lon="3.91327">
        <ele>1.8</ele>
        <time>2017-10-27T07:59:05.447Z</time>
      </trkpt>
      <trkpt lat="43.52034" lon="3.91322">
        <ele>1.9</ele>
        <time>2017-10-27T07:59:06.448Z</time>
      </trkpt>
      <trkpt lat="43.52031" lon="3.91317">
        <ele>2</ele>
        <time>2017-10-27T07:59:07.449Z</time>
      </trkpt>
      <trkpt lat="43.52029" lon="3.91312">
        <ele>2</ele>
        <time>2017-10-27T07:59:08.443Z</time>
      </trkpt>
      <trkpt lat="43.52027" lon="3.91307">
        <ele>2</ele>
        <time>2017-10-27T07:59:09.450Z</time>
      </trkpt>
      <trkpt lat="43.52024" lon="3.91302">
        <ele>2.1</ele>
        <time>2017-10-27T07:59:10.448Z</time>
      </trkpt>
      <trkpt lat="43.52022" lon="3.91297">
        <ele>2.1</ele>
        <time>2017-10-27T07:59:11.447Z</time>
      </trkpt>
      <trkpt lat="43.5202" lon="3.91292">
        <ele>2.2</ele>
        <time>2017-10-27T07:59:12.439Z</time>
      </trkpt>
      <trkpt lat="43.52018" lon="3.91288">
        <ele>2.3</ele>
        <time>2017-10-27T07:59:13.436Z</time>
      </trkpt>
      <trkpt lat="43.52016" lon="3.91283">
        <ele>2.4</ele>
        <time>2017-10-27T07:59:14.433Z</time>
      </trkpt>
      <trkpt lat="43.52014" lon="3.91279">
        <ele>2.5</ele>
        <time>2017-10-27T07:59:15.433Z</time>
      </trkpt>
      <trkpt lat="43.52012" lon="3.91275">
        <ele>2.8</ele>
        <time>2017-10-27T07:59:16.434Z</time>
      </trkpt>
      <trkpt lat="43.5201" lon="3.91271">
        <ele>2.9</ele>
        <time>2017-10-27T07:59:17.443Z</time>
      </trkpt>
      <trkpt lat="43.52008" lon="3.91267">
        <ele>2.9</ele>
        <time>2017-10-27T07:59:18.440Z</time>
      </trkpt>
      <trkpt lat="43.52006" lon="3.91263">
        <ele>2.9</ele>
        <time>2017-10-27T07:59:19.453Z</time>
      </trkpt>
      <trkpt lat="43.52004" lon="3.91259">
        <ele>2.9</ele>
        <time>2017-10-27T07:59:20.449Z</time>
      </trkpt>
      <trkpt lat="43.52003" lon="3.91255">
        <ele>2.9</ele>
        <time>2017-10-27T07:59:21.435Z</time>
      </trkpt>
      <trkpt lat="43.52001" lon="3.91251">
        <ele>2.9</ele>
        <time>2017-10-27T07:59:22.447Z</time>
      </trkpt>
      <trkpt lat="43.51999" lon="3.91247">
        <ele>2.8</ele>
        <time>2017-10-27T07:59:23.446Z</time>
      </trkpt>
      <trkpt lat="43.51997" lon="3.91244">
        <ele>2.9</ele>
        <time>2017-10-27T07:59:24.454Z</time>
      </trkpt>
      <trkpt lat="43.51996" lon="3.9124">
        <ele>2.8</ele>
        <time>2017-10-27T07:59:25.447Z</time>
      </trkpt>
      <trkpt lat="43.51994" lon="3.91236">
        <ele>2.8</ele>
        <time>2017-10-27T07:59:26.448Z</time>
      </trkpt>
      <trkpt lat="43.51992" lon="3.91232">
        <ele>2.7</ele>
        <time>2017-10-27T07:59:27.434Z</time>
      </trkpt>
      <trkpt lat="43.5199" lon="3.91227">
        <ele>2.5</ele>
        <time>2017-10-27T07:59:28.447Z</time>
      </trkpt>
      <trkpt lat="43.51989" lon="3.91222">
        <ele>2.3</ele>
        <time>2017-10-27T07:59:29.449Z</time>
      </trkpt>
      <trkpt lat="43.51987" lon="3.91216">
        <ele>2.2</ele>
        <time>2017-10-27T07:59:30.447Z</time>
      </trkpt>
      <trkpt lat="43.51986" lon="3.9121">
        <ele>1.9</ele>
        <time>2017-10-27T07:59:31.437Z</time>
      </trkpt>
      <trkpt lat="43.51985" lon="3.91204">
        <ele>1.7</ele>
        <time>2017-10-27T07:59:32.445Z</time>
      </trkpt>
      <trkpt lat="43.51984" lon="3.91197">
        <ele>1.7</ele>
        <time>2017-10-27T07:59:33.446Z</time>
      </trkpt>
      <trkpt lat="43.51983" lon="3.91191">
        <ele>1.5</ele>
        <time>2017-10-27T07:59:34.447Z</time>
      </trkpt>
      <trkpt lat="43.51982" lon="3.91184">
        <ele>1.4</ele>
        <time>2017-10-27T07:59:35.431Z</time>
      </trkpt>
      <trkpt lat="43.51981" lon="3.91178">
        <ele>1.2</ele>
        <time>2017-10-27T07:59:36.434Z</time>
      </trkpt>
      <trkpt lat="43.5198" lon="3.91171">
        <ele>1.1</ele>
        <time>2017-10-27T07:59:37.443Z</time>
      </trkpt>
      <trkpt lat="43.51979" lon="3.91164">
        <ele>0.9</ele>
        <time>2017-10-27T07:59:38.431Z</time>
      </trkpt>
      <trkpt lat="43.51978" lon="3.91157">
        <ele>0.9</ele>
        <time>2017-10-27T07:59:39.440Z</time>
      </trkpt>
      <trkpt lat="43.51977" lon="3.9115">
        <ele>0.8</ele>
        <time>2017-10-27T07:59:40.446Z</time>
      </trkpt>
      <trkpt lat="43.51976" lon="3.91143">
        <ele>0.7</ele>
        <time>2017-10-27T07:59:41.449Z</time>
      </trkpt>
      <trkpt lat="43.51975" lon="3.91136">
        <ele>0.7</ele>
        <time>2017-10-27T07:59:42.435Z</time>
      </trkpt>
      <trkpt lat="43.51974" lon="3.91129">
        <ele>0.7</ele>
        <time>2017-10-27T07:59:43.446Z</time>
      </trkpt>
      <trkpt lat="43.51973" lon="3.91122">
        <ele>0.7</ele>
        <time>2017-10-27T07:59:44.445Z</time>
      </trkpt>
      <trkpt lat="43.51971" lon="3.91115">
        <ele>0.8</ele>
        <time>2017-10-27T07:59:45.446Z</time>
      </trkpt>
      <trkpt lat="43.5197" lon="3.91108">
        <ele>0.9</ele>
        <time>2017-10-27T07:59:46.446Z</time>
      </trkpt>
      <trkpt lat="43.51969" lon="3.91102">
        <ele>0.9</ele>
        <time>2017-10-27T07:59:47.449Z</time>
      </trkpt>
      <trkpt lat="43.51968" lon="3.91095">
        <ele>0.9</ele>
        <time>2017-10-27T07:59:48.457Z</time>
      </trkpt>
      <trkpt lat="43.51967" lon="3.91088">
        <ele>1</ele>
        <time>2017-10-27T07:59:49.449Z</time>
      </trkpt>
      <trkpt lat="43.51966" lon="3.91081">
        <ele>1</ele>
        <time>2017-10-27T07:59:50.446Z</time>
      </trkpt>
      <trkpt lat="43.51965" lon="3.91075">
        <ele>1</ele>
        <time>2017-10-27T07:59:51.446Z</time>
      </trkpt>
      <trkpt lat="43.51964" lon="3.91068">
        <ele>1.1</ele>
        <time>2017-10-27T07:59:52.437Z</time>
      </trkpt>
      <trkpt lat="43.51963" lon="3.91062">
        <ele>1.1</ele>
        <time>2017-10-27T07:59:53.450Z</time>
      </trkpt>
      <trkpt lat="43.51962" lon="3.91055">
        <ele>1.2</ele>
        <time>2017-10-27T07:59:54.448Z</time>
      </trkpt>
      <trkpt lat="43.51961" lon="3.91049">
        <ele>1.2</ele>
        <time>2017-10-27T07:59:55.446Z</time>
      </trkpt>
      <trkpt lat="43.5196" lon="3.91042">
        <ele>1.2</ele>
        <time>2017-10-27T07:59:56.445Z</time>
      </trkpt>
      <trkpt lat="43.51959" lon="3.91036">
        <ele>1.2</ele>
        <time>2017-10-27T07:59:57.432Z</time>
      </trkpt>
      <trkpt lat="43.51959" lon="3.91029">
        <ele>1.2</ele>
        <time>2017-10-27T07:59:58.433Z</time>
      </trkpt>
      <trkpt lat="43.51958" lon="3.91023">
        <ele>1.3</ele>
        <time>2017-10-27T07:59:59.434Z</time>
      </trkpt>
      <trkpt lat="43.51958" lon="3.91017">
        <ele>1.3</ele>
        <time>2017-10-27T08:00:00.433Z</time>
      </trkpt>
      <trkpt lat="43.51959" lon="3.91011">
        <ele>1.2</ele>
        <time>2017-10-27T08:00:01.435Z</time>
      </trkpt>
      <trkpt lat="43.51959" lon="3.91005">
        <ele>1.3</ele>
        <time>2017-10-27T08:00:02.440Z</time>
      </trkpt>
      <trkpt lat="43.5196" lon="3.90999">
        <ele>1.2</ele>
        <time>2017-10-27T08:00:03.447Z</time>
      </trkpt>
      <trkpt lat="43.51962" lon="3.90994">
        <ele>1.1</ele>
        <time>2017-10-27T08:00:04.455Z</time>
      </trkpt>
      <trkpt lat="43.51964" lon="3.90988">
        <ele>1</ele>
        <time>2017-10-27T08:00:05.434Z</time>
      </trkpt>
      <trkpt lat="43.51965" lon="3.90983">
        <ele>0.9</ele>
        <time>2017-10-27T08:00:06.447Z</time>
      </trkpt>
      <trkpt lat="43.51968" lon="3.90978">
        <ele>0.9</ele>
        <time>2017-10-27T08:00:07.446Z</time>
      </trkpt>
      <trkpt lat="43.5197" lon="3.90973">
        <ele>0.9</ele>
        <time>2017-10-27T08:00:08.446Z</time>
      </trkpt>
      <trkpt lat="43.51972" lon="3.90968">
        <ele>0.9</ele>
        <time>2017-10-27T08:00:09.456Z</time>
      </trkpt>
      <trkpt lat="43.51974" lon="3.90964">
        <ele>0.8</ele>
        <time>2017-10-27T08:00:10.449Z</time>
      </trkpt>
      <trkpt lat="43.51976" lon="3.90959">
        <ele>0.8</ele>
        <time>2017-10-27T08:00:11.454Z</time>
      </trkpt>
      <trkpt lat="43.51979" lon="3.90954">
        <ele>0.8</ele>
        <time>2017-10-27T08:00:12.447Z</time>
      </trkpt>
      <trkpt lat="43.51981" lon="3.90949">
        <ele>0.8</ele>
        <time>2017-10-27T08:00:13.446Z</time>
      </trkpt>
      <trkpt lat="43.51983" lon="3.90945">
        <ele>0.9</ele>
        <time>2017-10-27T08:00:14.445Z</time>
      </trkpt>
      <trkpt lat="43.51985" lon="3.9094">
        <ele>0.9</ele>
        <time>2017-10-27T08:00:15.447Z</time>
      </trkpt>
      <trkpt lat="43.51987" lon="3.90935">
        <ele>1</ele>
        <time>2017-10-27T08:00:16.445Z</time>
      </trkpt>
      <trkpt lat="43.51989" lon="3.9093">
        <ele>1</ele>
        <time>2017-10-27T08:00:17.447Z</time>
      </trkpt>
      <trkpt lat="43.51991" lon="3.90925">
        <ele>1</ele>
        <time>2017-10-27T08:00:18.448Z</time>
      </trkpt>
      <trkpt lat="43.51993" lon="3.9092">
        <ele>1</ele>
        <time>2017-10-27T08:00:19.447Z</time>
      </trkpt>
      <trkpt lat="43.51995" lon="3.90915">
        <ele>1</ele>
        <time>2017-10-27T08:00:20.435Z</time>
      </trkpt>
      <trkpt lat="43.51996" lon="3.9091">
        <ele>1</ele>
        <time>2017-10-27T08:00:21.434Z</time>
      </trkpt>
      <trkpt lat="43.51998" lon="3.90905">
        <ele>0.9</ele>
        <time>2017-10-27T08:00:22.432Z</time>
      </trkpt>
      <trkpt lat="43.51998" lon="3.90899">
        <ele>0.9</ele>
        <time>2017-10-27T08:00:23.439Z</time>
      </trkpt>
      <trkpt lat="43.51998" lon="3.90894">
        <ele>0.8</ele>
        <time>2017-10-27T08:00:24.453Z</time>
      </trkpt>
      <trkpt lat="43.51997" lon="3.90888">
        <ele>0.8</ele>
        <time>2017-10-27T08:00:25.450Z</time>
      </trkpt>
      <trkpt lat="43.51996" lon="3.90883">
        <ele>0.8</ele>
        <time>2017-10-27T08:00:26.450Z</time>
      </trkpt>
      <trkpt lat="43.51995" lon="3.90878">
        <ele>0.7</ele>
        <time>2017-10-27T08:00:27.454Z</time>
      </trkpt>
      <trkpt lat="43.51993" lon="3.90873">
        <ele>0.7</ele>
        <time>2017-10-27T08:00:28.447Z</time>
      </trkpt>
      <trkpt lat="43.51991" lon="3.90868">
        <ele>0.7</ele>
        <time>2017-10-27T08:00:29.446Z</time>
      </trkpt>
      <trkpt lat="43.51988" lon="3.90863">
        <ele>0.7</ele>
        <time>2017-10-27T08:00:30.452Z</time>
      </trkpt>
      <trkpt lat="43.51986" lon="3.90858">
        <ele>0.7</ele>
        <time>2017-10-27T08:00:31.459Z</time>
      </trkpt>
      <trkpt lat="43.51983" lon="3.90854">
        <ele>0.7</ele>
        <time>2017-10-27T08:00:32.431Z</time>
      </trkpt>
      <trkpt lat="43.51981" lon="3.90849">
        <ele>0.7</ele>
        <time>2017-10-27T08:00:33.431Z</time>
      </trkpt>
      <trkpt lat="43.51978" lon="3.90844">
        <ele>0.7</ele>
        <time>2017-10-27T08:00:34.431Z</time>
      </trkpt>
      <trkpt lat="43.51976" lon="3.9084">
        <ele>0.8</ele>
        <time>2017-10-27T08:00:35.431Z</time>
      </trkpt>
      <trkpt lat="43.51974" lon="3.90835">
        <ele>0.8</ele>
        <time>2017-10-27T08:00:36.433Z</time>
      </trkpt>
      <trkpt lat="43.51971" lon="3.9083">
        <ele>0.8</ele>
        <time>2017-10-27T08:00:37.431Z</time>
      </trkpt>
      <trkpt lat="43.51969" lon="3.90826">
        <ele>0.7</ele>
        <time>2017-10-27T08:00:38.445Z</time>
      </trkpt>
      <trkpt lat="43.51966" lon="3.90821">
        <ele>0.8</ele>
        <time>2017-10-27T08:00:39.446Z</time>
      </trkpt>
      <trkpt lat="43.51964" lon="3.90817">
        <ele>0.9</ele>
        <time>2017-10-27T08:00:40.445Z</time>
      </trkpt>
      <trkpt lat="43.51962" lon="3.90812">
        <ele>1</ele>
        <time>2017-10-27T08:00:41.447Z</time>
      </trkpt>
      <trkpt lat="43.51959" lon="3.90807">
        <ele>1.2</ele>
        <time>2017-10-27T08:00:42.447Z</time>
      </trkpt>
      <trkpt lat="43.51957" lon="3.90802">
        <ele>1.2</ele>
        <time>2017-10-27T08:00:43.445Z</time>
      </trkpt>
      <trkpt lat="43.51955" lon="3.90797">
        <ele>1.3</ele>
        <time>2017-10-27T08:00:44.449Z</time>
      </trkpt>
      <trkpt lat="43.51954" lon="3.90792">
        <ele>1.5</ele>
        <time>2017-10-27T08:00:45.446Z</time>
      </trkpt>
      <trkpt lat="43.51953" lon="3.90787">
        <ele>1.6</ele>
        <time>2017-10-27T08:00:46.431Z</time>
      </trkpt>
      <trkpt lat="43.51952" lon="3.90781">
        <ele>1.7</ele>
        <time>2017-10-27T08:00:47.431Z</time>
      </trkpt>
      <trkpt lat="43.51952" lon="3.90776">
        <ele>1.7</ele>
        <time>2017-10-27T08:00:48.433Z</time>
      </trkpt>
      <trkpt lat="43.51953" lon="3.90771">
        <ele>1.7</ele>
        <time>2017-10-27T08:00:49.432Z</time>
      </trkpt>
      <trkpt lat="43.51954" lon="3.90765">
        <ele>1.8</ele>
        <time>2017-10-27T08:00:50.431Z</time>
      </trkpt>
      <trkpt lat="43.51955" lon="3.9076">
        <ele>1.8</ele>
        <time>2017-10-27T08:00:51.447Z</time>
      </trkpt>
      <trkpt lat="43.51956" lon="3.90756">
        <ele>1.7</ele>
        <time>2017-10-27T08:00:52.462Z</time>
      </trkpt>
      <trkpt lat="43.51958" lon="3.90751">
        <ele>1.8</ele>
        <time>2017-10-27T08:00:53.454Z</time>
      </trkpt>
      <trkpt lat="43.51959" lon="3.90746">
        <ele>1.9</ele>
        <time>2017-10-27T08:00:54.464Z</time>
      </trkpt>
      <trkpt lat="43.51961" lon="3.90742">
        <ele>1.9</ele>
        <time>2017-10-27T08:00:55.459Z</time>
      </trkpt>
      <trkpt lat="43.51963" lon="3.90737">
        <ele>1.9</ele>
        <time>2017-10-27T08:00:56.447Z</time>
      </trkpt>
      <trkpt lat="43.51964" lon="3.90733">
        <ele>1.8</ele>
        <time>2017-10-27T08:00:57.427Z</time>
      </trkpt>
      <trkpt lat="43.51966" lon="3.90729">
        <ele>1.8</ele>
        <time>2017-10-27T08:00:58.456Z</time>
      </trkpt>
      <trkpt lat="43.51967" lon="3.90725">
        <ele>1.6</ele>
        <time>2017-10-27T08:00:59.443Z</time>
      </trkpt>
      <trkpt lat="43.51969" lon="3.9072">
        <ele>1.7</ele>
        <time>2017-10-27T08:01:00.451Z</time>
      </trkpt>
      <trkpt lat="43.51971" lon="3.90716">
        <ele>1.7</ele>
        <time>2017-10-27T08:01:01.442Z</time>
      </trkpt>
      <trkpt lat="43.51972" lon="3.90712">
        <ele>1.7</ele>
        <time>2017-10-27T08:01:02.446Z</time>
      </trkpt>
      <trkpt lat="43.51974" lon="3.90708">
        <ele>1.8</ele>
        <time>2017-10-27T08:01:03.446Z</time>
      </trkpt>
      <trkpt lat="43.51975" lon="3.90703">
        <ele>1.8</ele>
        <time>2017-10-27T08:01:04.442Z</time>
      </trkpt>
      <trkpt lat="43.51977" lon="3.90699">
        <ele>1.8</ele>
        <time>2017-10-27T08:01:05.446Z</time>
      </trkpt>
      <trkpt lat="43.51978" lon="3.90695">
        <ele>1.7</ele>
        <time>2017-10-27T08:01:06.447Z</time>
      </trkpt>
      <trkpt lat="43.5198" lon="3.90691">
        <ele>1.7</ele>
        <time>2017-10-27T08:01:07.446Z</time>
      </trkpt>
      <trkpt lat="43.51981" lon="3.90687">
        <ele>1.8</ele>
        <time>2017-10-27T08:01:08.449Z</time>
      </trkpt>
      <trkpt lat="43.51982" lon="3.90683">
        <ele>1.8</ele>
        <time>2017-10-27T08:01:09.440Z</time>
      </trkpt>
      <trkpt lat="43.51983" lon="3.90678">
        <ele>1.8</ele>
        <time>2017-10-27T08:01:10.432Z</time>
      </trkpt>
      <trkpt lat="43.51984" lon="3.90674">
        <ele>1.6</ele>
        <time>2017-10-27T08:01:11.432Z</time>
      </trkpt>
      <trkpt lat="43.51984" lon="3.90669">
        <ele>1.5</ele>
        <time>2017-10-27T08:01:12.441Z</time>
      </trkpt>
      <trkpt lat="43.51984" lon="3.90664">
        <ele>1.8</ele>
        <time>2017-10-27T08:01:13.431Z</time>
      </trkpt>
      <trkpt lat="43.51984" lon="3.90659">
        <ele>1.8</ele>
        <time>2017-10-27T08:01:14.445Z</time>
      </trkpt>
      <trkpt lat="43.51984" lon="3.90654">
        <ele>1.7</ele>
        <time>2017-10-27T08:01:15.447Z</time>
      </trkpt>
      <trkpt lat="43.51983" lon="3.9065">
        <ele>1.6</ele>
        <time>2017-10-27T08:01:16.446Z</time>
      </trkpt>
      <trkpt lat="43.51981" lon="3.90645">
        <ele>1.7</ele>
        <time>2017-10-27T08:01:17.446Z</time>
      </trkpt>
      <trkpt lat="43.51979" lon="3.90641">
        <ele>1.6</ele>
        <time>2017-10-27T08:01:18.447Z</time>
      </trkpt>
      <trkpt lat="43.51977" lon="3.90636">
        <ele>1.5</ele>
        <time>2017-10-27T08:01:19.447Z</time>
      </trkpt>
      <trkpt lat="43.51975" lon="3.90632">
        <ele>1.4</ele>
        <time>2017-10-27T08:01:20.447Z</time>
      </trkpt>
      <trkpt lat="43.51973" lon="3.90628">
        <ele>1.3</ele>
        <time>2017-10-27T08:01:21.446Z</time>
      </trkpt>
      <trkpt lat="43.51971" lon="3.90623">
        <ele>1.3</ele>
        <time>2017-10-27T08:01:22.446Z</time>
      </trkpt>
      <trkpt lat="43.51969" lon="3.90619">
        <ele>1.4</ele>
        <time>2017-10-27T08:01:23.446Z</time>
      </trkpt>
      <trkpt lat="43.51967" lon="3.90615">
        <ele>1.4</ele>
        <time>2017-10-27T08:01:24.450Z</time>
      </trkpt>
      <trkpt lat="43.51965" lon="3.9061">
        <ele>1.4</ele>
        <time>2017-10-27T08:01:25.445Z</time>
      </trkpt>
      <trkpt lat="43.51963" lon="3.90606">
        <ele>1.4</ele>
        <time>2017-10-27T08:01:26.446Z</time>
      </trkpt>
      <trkpt lat="43.51961" lon="3.90602">
        <ele>1.4</ele>
        <time>2017-10-27T08:01:27.444Z</time>
      </trkpt>
      <trkpt lat="43.51959" lon="3.90598">
        <ele>1.3</ele>
        <time>2017-10-27T08:01:28.448Z</time>
      </trkpt>
      <trkpt lat="43.51957" lon="3.90594">
        <ele>1.2</ele>
        <time>2017-10-27T08:01:29.458Z</time>
      </trkpt>
      <trkpt lat="43.51956" lon="3.90589">
        <ele>1.3</ele>
        <time>2017-10-27T08:01:30.452Z</time>
      </trkpt>
      <trkpt lat="43.51954" lon="3.90585">
        <ele>1.2</ele>
        <time>2017-10-27T08:01:31.457Z</time>
      </trkpt>
      <trkpt lat="43.51952" lon="3.90581">
        <ele>1.2</ele>
        <time>2017-10-27T08:01:32.446Z</time>
      </trkpt>
      <trkpt lat="43.5195" lon="3.90577">
        <ele>1.2</ele>
        <time>2017-10-27T08:01:33.452Z</time>
      </trkpt>
      <trkpt lat="43.51948" lon="3.90573">
        <ele>1.1</ele>
        <time>2017-10-27T08:01:34.432Z</time>
      </trkpt>
      <trkpt lat="43.51946" lon="3.90569">
        <ele>1</ele>
        <time>2017-10-27T08:01:35.431Z</time>
      </trkpt>
      <trkpt lat="43.51944" lon="3.90565">
        <ele>0.9</ele>
        <time>2017-10-27T08:01:36.433Z</time>
      </trkpt>
      <trkpt lat="43.51942" lon="3.90561">
        <ele>0.8</ele>
        <time>2017-10-27T08:01:37.450Z</time>
      </trkpt>
      <trkpt lat="43.5194" lon="3.90557">
        <ele>0.8</ele>
        <time>2017-10-27T08:01:38.446Z</time>
      </trkpt>
      <trkpt lat="43.51938" lon="3.90553">
        <ele>0.8</ele>
        <time>2017-10-27T08:01:39.448Z</time>
      </trkpt>
      <trkpt lat="43.51937" lon="3.90549">
        <ele>0.8</ele>
        <time>2017-10-27T08:01:40.446Z</time>
      </trkpt>
      <trkpt lat="43.51935" lon="3.90545">
        <ele>0.8</ele>
        <time>2017-10-27T08:01:41.445Z</time>
      </trkpt>
      <trkpt lat="43.51933" lon="3.90541">
        <ele>0.6</ele>
        <time>2017-10-27T08:01:42.439Z</time>
      </trkpt>
      <trkpt lat="43.51931" lon="3.90537">
        <ele>0.5</ele>
        <time>2017-10-27T08:01:43.456Z</time>
      </trkpt>
      <trkpt lat="43.51929" lon="3.90533">
        <ele>0.6</ele>
        <time>2017-10-27T08:01:44.434Z</time>
      </trkpt>
      <trkpt lat="43.51927" lon="3.90529">
        <ele>0.8</ele>
        <time>2017-10-27T08:01:45.446Z</time>
      </trkpt>
      <trkpt lat="43.51926" lon="3.90525">
        <ele>0.7</ele>
        <time>2017-10-27T08:01:46.445Z</time>
      </trkpt>
      <trkpt lat="43.51924" lon="3.90521">
        <ele>0.7</ele>
        <time>2017-10-27T08:01:47.437Z</time>
      </trkpt>
      <trkpt lat="43.51922" lon="3.90518">
        <ele>0.7</ele>
        <time>2017-10-27T08:01:48.447Z</time>
      </trkpt>
      <trkpt lat="43.5192" lon="3.90514">
        <ele>0.8</ele>
        <time>2017-10-27T08:01:49.444Z</time>
      </trkpt>
      <trkpt lat="43.51918" lon="3.9051">
        <ele>0.7</ele>
        <time>2017-10-27T08:01:50.446Z</time>
      </trkpt>
      <trkpt lat="43.51916" lon="3.90507">
        <ele>0.7</ele>
        <time>2017-10-27T08:01:51.467Z</time>
      </trkpt>
      <trkpt lat="43.51914" lon="3.90503">
        <ele>0.8</ele>
        <time>2017-10-27T08:01:52.447Z</time>
      </trkpt>
      <trkpt lat="43.51912" lon="3.905">
        <ele>0.8</ele>
        <time>2017-10-27T08:01:53.455Z</time>
      </trkpt>
      <trkpt lat="43.51909" lon="3.90497">
        <ele>0.8</ele>
        <time>2017-10-27T08:01:54.451Z</time>
      </trkpt>
      <trkpt lat="43.51906" lon="3.90494">
        <ele>0.7</ele>
        <time>2017-10-27T08:01:55.432Z</time>
      </trkpt>
      <trkpt lat="43.51903" lon="3.90491">
        <ele>0.7</ele>
        <time>2017-10-27T08:01:56.433Z</time>
      </trkpt>
      <trkpt lat="43.519" lon="3.90489">
        <ele>0.7</ele>
        <time>2017-10-27T08:01:57.433Z</time>
      </trkpt>
      <trkpt lat="43.51896" lon="3.90487">
        <ele>0.7</ele>
        <time>2017-10-27T08:01:58.432Z</time>
      </trkpt>
      <trkpt lat="43.51892" lon="3.90485">
        <ele>0.8</ele>
        <time>2017-10-27T08:01:59.444Z</time>
      </trkpt>
      <trkpt lat="43.51888" lon="3.90483">
        <ele>0.8</ele>
        <time>2017-10-27T08:02:00.450Z</time>
      </trkpt>
      <trkpt lat="43.51884" lon="3.90482">
        <ele>0.8</ele>
        <time>2017-10-27T08:02:01.451Z</time>
      </trkpt>
      <trkpt lat="43.5188" lon="3.90481">
        <ele>0.8</ele>
        <time>2017-10-27T08:02:02.448Z</time>
      </trkpt>
      <trkpt lat="43.51876" lon="3.90481">
        <ele>0.7</ele>
        <time>2017-10-27T08:02:03.450Z</time>
      </trkpt>
      <trkpt lat="43.51871" lon="3.9048">
        <ele>0.7</ele>
        <time>2017-10-27T08:02:04.447Z</time>
      </trkpt>
      <trkpt lat="43.51867" lon="3.9048">
        <ele>0.7</ele>
        <time>2017-10-27T08:02:05.448Z</time>
      </trkpt>
      <trkpt lat="43.51862" lon="3.9048">
        <ele>0.7</ele>
        <time>2017-10-27T08:02:06.449Z</time>
      </trkpt>
      <trkpt lat="43.51858" lon="3.9048">
        <ele>0.7</ele>
        <time>2017-10-27T08:02:07.447Z</time>
      </trkpt>
      <trkpt lat="43.51853" lon="3.9048">
        <ele>0.7</ele>
        <time>2017-10-27T08:02:08.447Z</time>
      </trkpt>
      <trkpt lat="43.51849" lon="3.9048">
        <ele>0.7</ele>
        <time>2017-10-27T08:02:09.451Z</time>
      </trkpt>
      <trkpt lat="43.51844" lon="3.9048">
        <ele>0.7</ele>
        <time>2017-10-27T08:02:10.447Z</time>
      </trkpt>
      <trkpt lat="43.5184" lon="3.9048">
        <ele>0.8</ele>
        <time>2017-10-27T08:02:11.448Z</time>
      </trkpt>
      <trkpt lat="43.51835" lon="3.9048">
        <ele>0.8</ele>
        <time>2017-10-27T08:02:12.448Z</time>
      </trkpt>
      <trkpt lat="43.5183" lon="3.9048">
        <ele>0.8</ele>
        <time>2017-10-27T08:02:13.449Z</time>
      </trkpt>
      <trkpt lat="43.51826" lon="3.9048">
        <ele>0.8</ele>
        <time>2017-10-27T08:02:14.432Z</time>
      </trkpt>
      <trkpt lat="43.51821" lon="3.90481">
        <ele>0.8</ele>
        <time>2017-10-27T08:02:15.431Z</time>
      </trkpt>
      <trkpt lat="43.51817" lon="3.90481">
        <ele>0.9</ele>
        <time>2017-10-27T08:02:16.432Z</time>
      </trkpt>
      <trkpt lat="43.51812" lon="3.90481">
        <ele>0.9</ele>
        <time>2017-10-27T08:02:17.434Z</time>
      </trkpt>
      <trkpt lat="43.51808" lon="3.90481">
        <ele>1</ele>
        <time>2017-10-27T08:02:18.436Z</time>
      </trkpt>
      <trkpt lat="43.51803" lon="3.90482">
        <ele>1.1</ele>
        <time>2017-10-27T08:02:19.448Z</time>
      </trkpt>
      <trkpt lat="43.51799" lon="3.90482">
        <ele>1.1</ele>
        <time>2017-10-27T08:02:20.448Z</time>
      </trkpt>
      <trkpt lat="43.51794" lon="3.90482">
        <ele>1.2</ele>
        <time>2017-10-27T08:02:21.447Z</time>
      </trkpt>
      <trkpt lat="43.51789" lon="3.90482">
        <ele>1.2</ele>
        <time>2017-10-27T08:02:22.450Z</time>
      </trkpt>
      <trkpt lat="43.51785" lon="3.90482">
        <ele>1.2</ele>
        <time>2017-10-27T08:02:23.445Z</time>
      </trkpt>
      <trkpt lat="43.5178" lon="3.90483">
        <ele>1.2</ele>
        <time>2017-10-27T08:02:24.447Z</time>
      </trkpt>
      <trkpt lat="43.51776" lon="3.90483">
        <ele>1.3</ele>
        <time>2017-10-27T08:02:25.437Z</time>
      </trkpt>
      <trkpt lat="43.51771" lon="3.90484">
        <ele>1.3</ele>
        <time>2017-10-27T08:02:26.432Z</time>
      </trkpt>
      <trkpt lat="43.51766" lon="3.90485">
        <ele>1.3</ele>
        <time>2017-10-27T08:02:27.451Z</time>
      </trkpt>
      <trkpt lat="43.51761" lon="3.90486">
        <ele>1.3</ele>
        <time>2017-10-27T08:02:28.435Z</time>
      </trkpt>
      <trkpt lat="43.51756" lon="3.90487">
        <ele>1.3</ele>
        <time>2017-10-27T08:02:29.447Z</time>
      </trkpt>
      <trkpt lat="43.51751" lon="3.90487">
        <ele>1.3</ele>
        <time>2017-10-27T08:02:30.450Z</time>
      </trkpt>
      <trkpt lat="43.51746" lon="3.90487">
        <ele>1.3</ele>
        <time>2017-10-27T08:02:31.438Z</time>
      </trkpt>
      <trkpt lat="43.51741" lon="3.90487">
        <ele>1.4</ele>
        <time>2017-10-27T08:02:32.447Z</time>
      </trkpt>
      <trkpt lat="43.51736" lon="3.90487">
        <ele>1.4</ele>
        <time>2017-10-27T08:02:33.450Z</time>
      </trkpt>
      <trkpt lat="43.51731" lon="3.90486">
        <ele>1.4</ele>
        <time>2017-10-27T08:02:34.457Z</time>
      </trkpt>
      <trkpt lat="43.51726" lon="3.90486">
        <ele>1.4</ele>
        <time>2017-10-27T08:02:35.450Z</time>
      </trkpt>
      <trkpt lat="43.51721" lon="3.90485">
        <ele>1.5</ele>
        <time>2017-10-27T08:02:36.452Z</time>
      </trkpt>
      <trkpt lat="43.51716" lon="3.90485">
        <ele>1.5</ele>
        <time>2017-10-27T08:02:37.447Z</time>
      </trkpt>
      <trkpt lat="43.51711" lon="3.90484">
        <ele>1.5</ele>
        <time>2017-10-27T08:02:38.436Z</time>
      </trkpt>
      <trkpt lat="43.51706" lon="3.90484">
        <ele>1.5</ele>
        <time>2017-10-27T08:02:39.435Z</time>
      </trkpt>
      <trkpt lat="43.51701" lon="3.90484">
        <ele>1.5</ele>
        <time>2017-10-27T08:02:40.437Z</time>
      </trkpt>
      <trkpt lat="43.51696" lon="3.90484">
        <ele>1.4</ele>
        <time>2017-10-27T08:02:41.459Z</time>
      </trkpt>
      <trkpt lat="43.51691" lon="3.90484">
        <ele>1.5</ele>
        <time>2017-10-27T08:02:42.458Z</time>
      </trkpt>
      <trkpt lat="43.51686" lon="3.90484">
        <ele>1.4</ele>
        <time>2017-10-27T08:02:43.449Z</time>
      </trkpt>
      <trkpt lat="43.51682" lon="3.90484">
        <ele>1.4</ele>
        <time>2017-10-27T08:02:44.454Z</time>
      </trkpt>
      <trkpt lat="43.51677" lon="3.90483">
        <ele>1.4</ele>
        <time>2017-10-27T08:02:45.449Z</time>
      </trkpt>
      <trkpt lat="43.51672" lon="3.90483">
        <ele>1.5</ele>
        <time>2017-10-27T08:02:46.450Z</time>
      </trkpt>
      <trkpt lat="43.51667" lon="3.90482">
        <ele>1.4</ele>
        <time>2017-10-27T08:02:47.451Z</time>
      </trkpt>
      <trkpt lat="43.51662" lon="3.90481">
        <ele>1.4</ele>
        <time>2017-10-27T08:02:48.457Z</time>
      </trkpt>
      <trkpt lat="43.51657" lon="3.90479">
        <ele>1.3</ele>
        <time>2017-10-27T08:02:49.452Z</time>
      </trkpt>
      <trkpt lat="43.51652" lon="3.90476">
        <ele>1.3</ele>
        <time>2017-10-27T08:02:50.447Z</time>
      </trkpt>
      <trkpt lat="43.51648" lon="3.90472">
        <ele>1.4</ele>
        <time>2017-10-27T08:02:51.449Z</time>
      </trkpt>
      <trkpt lat="43.51644" lon="3.90468">
        <ele>1.4</ele>
        <time>2017-10-27T08:02:52.446Z</time>
      </trkpt>
      <trkpt lat="43.51641" lon="3.90463">
        <ele>1.4</ele>
        <time>2017-10-27T08:02:53.453Z</time>
      </trkpt>
      <trkpt lat="43.51638" lon="3.90457">
        <ele>1.4</ele>
        <time>2017-10-27T08:02:54.432Z</time>
      </trkpt>
      <trkpt lat="43.51635" lon="3.90451">
        <ele>1.4</ele>
        <time>2017-10-27T08:02:55.448Z</time>
      </trkpt>
      <trkpt lat="43.51633" lon="3.90446">
        <ele>1.5</ele>
        <time>2017-10-27T08:02:56.446Z</time>
      </trkpt>
      <trkpt lat="43.5163" lon="3.9044">
        <ele>1.5</ele>
        <time>2017-10-27T08:02:57.446Z</time>
      </trkpt>
      <trkpt lat="43.51628" lon="3.90435">
        <ele>1.6</ele>
        <time>2017-10-27T08:02:58.445Z</time>
      </trkpt>
      <trkpt lat="43.51625" lon="3.90429">
        <ele>1.6</ele>
        <time>2017-10-27T08:02:59.459Z</time>
      </trkpt>
      <trkpt lat="43.51623" lon="3.90424">
        <ele>1.6</ele>
        <time>2017-10-27T08:03:00.448Z</time>
      </trkpt>
      <trkpt lat="43.5162" lon="3.90418">
        <ele>1.4</ele>
        <time>2017-10-27T08:03:01.455Z</time>
      </trkpt>
      <trkpt lat="43.51618" lon="3.90413">
        <ele>1.3</ele>
        <time>2017-10-27T08:03:02.449Z</time>
      </trkpt>
      <trkpt lat="43.51615" lon="3.90408">
        <ele>1.3</ele>
        <time>2017-10-27T08:03:03.453Z</time>
      </trkpt>
      <trkpt lat="43.51613" lon="3.90403">
        <ele>1.3</ele>
        <time>2017-10-27T08:03:04.431Z</time>
      </trkpt>
      <trkpt lat="43.51611" lon="3.90398">
        <ele>1.3</ele>
        <time>2017-10-27T08:03:05.432Z</time>
      </trkpt>
      <trkpt lat="43.51608" lon="3.90393">
        <ele>1.2</ele>
        <time>2017-10-27T08:03:06.433Z</time>
      </trkpt>
      <trkpt lat="43.51606" lon="3.90387">
        <ele>1.2</ele>
        <time>2017-10-27T08:03:07.451Z</time>
      </trkpt>
      <trkpt lat="43.51603" lon="3.90382">
        <ele>1.2</ele>
        <time>2017-10-27T08:03:08.446Z</time>
      </trkpt>
      <trkpt lat="43.51601" lon="3.90377">
        <ele>1.2</ele>
        <time>2017-10-27T08:03:09.452Z</time>
      </trkpt>
      <trkpt lat="43.51599" lon="3.90371">
        <ele>1.3</ele>
        <time>2017-10-27T08:03:10.445Z</time>
      </trkpt>
      <trkpt lat="43.51596" lon="3.90366">
        <ele>1.3</ele>
        <time>2017-10-27T08:03:11.465Z</time>
      </trkpt>
      <trkpt lat="43.51593" lon="3.90361">
        <ele>1.3</ele>
        <time>2017-10-27T08:03:12.456Z</time>
      </trkpt>
      <trkpt lat="43.51591" lon="3.90356">
        <ele>1.3</ele>
        <time>2017-10-27T08:03:13.472Z</time>
      </trkpt>
      <trkpt lat="43.51589" lon="3.90351">
        <ele>1.3</ele>
        <time>2017-10-27T08:03:14.453Z</time>
      </trkpt>
      <trkpt lat="43.51586" lon="3.90345">
        <ele>1.4</ele>
        <time>2017-10-27T08:03:15.450Z</time>
      </trkpt>
      <trkpt lat="43.51584" lon="3.9034">
        <ele>1.4</ele>
        <time>2017-10-27T08:03:16.449Z</time>
      </trkpt>
      <trkpt lat="43.51582" lon="3.90335">
        <ele>1.6</ele>
        <time>2017-10-27T08:03:17.451Z</time>
      </trkpt>
      <trkpt lat="43.5158" lon="3.9033">
        <ele>1.5</ele>
        <time>2017-10-27T08:03:18.451Z</time>
      </trkpt>
      <trkpt lat="43.51578" lon="3.90325">
        <ele>1.5</ele>
        <time>2017-10-27T08:03:19.447Z</time>
      </trkpt>
      <trkpt lat="43.51575" lon="3.9032">
        <ele>1.6</ele>
        <time>2017-10-27T08:03:20.455Z</time>
      </trkpt>
      <trkpt lat="43.51573" lon="3.90315">
        <ele>1.6</ele>
        <time>2017-10-27T08:03:21.458Z</time>
      </trkpt>
      <trkpt lat="43.51571" lon="3.9031">
        <ele>1.7</ele>
        <time>2017-10-27T08:03:22.450Z</time>
      </trkpt>
      <trkpt lat="43.51568" lon="3.90305">
        <ele>1.7</ele>
        <time>2017-10-27T08:03:23.448Z</time>
      </trkpt>
      <trkpt lat="43.51566" lon="3.90301">
        <ele>1.6</ele>
        <time>2017-10-27T08:03:24.450Z</time>
      </trkpt>
      <trkpt lat="43.51564" lon="3.90296">
        <ele>1.6</ele>
        <time>2017-10-27T08:03:25.457Z</time>
      </trkpt>
      <trkpt lat="43.51562" lon="3.90291">
        <ele>1.6</ele>
        <time>2017-10-27T08:03:26.447Z</time>
      </trkpt>
      <trkpt lat="43.51559" lon="3.90286">
        <ele>1.6</ele>
        <time>2017-10-27T08:03:27.448Z</time>
      </trkpt>
      <trkpt lat="43.51557" lon="3.90281">
        <ele>1.6</ele>
        <time>2017-10-27T08:03:28.452Z</time>
      </trkpt>
      <trkpt lat="43.51555" lon="3.90276">
        <ele>1.6</ele>
        <time>2017-10-27T08:03:29.445Z</time>
      </trkpt>
      <trkpt lat="43.51552" lon="3.90271">
        <ele>1.6</ele>
        <time>2017-10-27T08:03:30.438Z</time>
      </trkpt>
      <trkpt lat="43.5155" lon="3.90266">
        <ele>1.6</ele>
        <time>2017-10-27T08:03:31.431Z</time>
      </trkpt>
      <trkpt lat="43.51548" lon="3.90261">
        <ele>1.6</ele>
        <time>2017-10-27T08:03:32.432Z</time>
      </trkpt>
      <trkpt lat="43.51545" lon="3.90257">
        <ele>1.7</ele>
        <time>2017-10-27T08:03:33.431Z</time>
      </trkpt>
      <trkpt lat="43.51543" lon="3.90252">
        <ele>1.8</ele>
        <time>2017-10-27T08:03:34.445Z</time>
      </trkpt>
      <trkpt lat="43.51541" lon="3.90247">
        <ele>1.8</ele>
        <time>2017-10-27T08:03:35.447Z</time>
      </trkpt>
      <trkpt lat="43.51539" lon="3.90242">
        <ele>1.9</ele>
        <time>2017-10-27T08:03:36.448Z</time>
      </trkpt>
      <trkpt lat="43.51536" lon="3.90237">
        <ele>2.1</ele>
        <time>2017-10-27T08:03:37.451Z</time>
      </trkpt>
      <trkpt lat="43.51534" lon="3.90232">
        <ele>2.1</ele>
        <time>2017-10-27T08:03:38.446Z</time>
      </trkpt>
      <trkpt lat="43.51532" lon="3.90227">
        <ele>2</ele>
        <time>2017-10-27T08:03:39.448Z</time>
      </trkpt>
      <trkpt lat="43.51529" lon="3.90222">
        <ele>2.1</ele>
        <time>2017-10-27T08:03:40.445Z</time>
      </trkpt>
      <trkpt lat="43.51527" lon="3.90217">
        <ele>2.1</ele>
        <time>2017-10-27T08:03:41.446Z</time>
      </trkpt>
      <trkpt lat="43.51525" lon="3.90212">
        <ele>2.1</ele>
        <time>2017-10-27T08:03:42.448Z</time>
      </trkpt>
      <trkpt lat="43.51523" lon="3.90208">
        <ele>2.2</ele>
        <time>2017-10-27T08:03:43.453Z</time>
      </trkpt>
      <trkpt lat="43.51521" lon="3.90203">
        <ele>2.2</ele>
        <time>2017-10-27T08:03:44.469Z</time>
      </trkpt>
      <trkpt lat="43.51518" lon="3.90198">
        <ele>2.2</ele>
        <time>2017-10-27T08:03:45.451Z</time>
      </trkpt>
      <trkpt lat="43.51516" lon="3.90194">
        <ele>2.3</ele>
        <time>2017-10-27T08:03:46.446Z</time>
      </trkpt>
      <trkpt lat="43.51514" lon="3.90189">
        <ele>2.2</ele>
        <time>2017-10-27T08:03:47.446Z</time>
      </trkpt>
      <trkpt lat="43.51512" lon="3.90184">
        <ele>2.2</ele>
        <time>2017-10-27T08:03:48.447Z</time>
      </trkpt>
      <trkpt lat="43.51509" lon="3.90179">
        <ele>2.2</ele>
        <time>2017-10-27T08:03:49.451Z</time>
      </trkpt>
      <trkpt lat="43.51507" lon="3.90174">
        <ele>2.2</ele>
        <time>2017-10-27T08:03:50.431Z</time>
      </trkpt>
      <trkpt lat="43.51505" lon="3.90169">
        <ele>2.2</ele>
        <time>2017-10-27T08:03:51.432Z</time>
      </trkpt>
      <trkpt lat="43.51502" lon="3.90165">
        <ele>2.2</ele>
        <time>2017-10-27T08:03:52.432Z</time>
      </trkpt>
      <trkpt lat="43.515" lon="3.9016">
        <ele>2.2</ele>
        <time>2017-10-27T08:03:53.433Z</time>
      </trkpt>
      <trkpt lat="43.51498" lon="3.90155">
        <ele>2.3</ele>
        <time>2017-10-27T08:03:54.467Z</time>
      </trkpt>
      <trkpt lat="43.51496" lon="3.9015">
        <ele>2.3</ele>
        <time>2017-10-27T08:03:55.451Z</time>
      </trkpt>
      <trkpt lat="43.51493" lon="3.90145">
        <ele>2.3</ele>
        <time>2017-10-27T08:03:56.448Z</time>
      </trkpt>
      <trkpt lat="43.51491" lon="3.9014">
        <ele>2.4</ele>
        <time>2017-10-27T08:03:57.431Z</time>
      </trkpt>
      <trkpt lat="43.51489" lon="3.90136">
        <ele>2.2</ele>
        <time>2017-10-27T08:03:58.448Z</time>
      </trkpt>
      <trkpt lat="43.51487" lon="3.90131">
        <ele>2.2</ele>
        <time>2017-10-27T08:03:59.462Z</time>
      </trkpt>
      <trkpt lat="43.51484" lon="3.90127">
        <ele>2.2</ele>
        <time>2017-10-27T08:04:00.454Z</time>
      </trkpt>
      <trkpt lat="43.51482" lon="3.90122">
        <ele>2.2</ele>
        <time>2017-10-27T08:04:01.447Z</time>
      </trkpt>
      <trkpt lat="43.5148" lon="3.90117">
        <ele>2.1</ele>
        <time>2017-10-27T08:04:02.448Z</time>
      </trkpt>
      <trkpt lat="43.51478" lon="3.90113">
        <ele>2</ele>
        <time>2017-10-27T08:04:03.451Z</time>
      </trkpt>
      <trkpt lat="43.51476" lon="3.90109">
        <ele>2</ele>
        <time>2017-10-27T08:04:04.452Z</time>
      </trkpt>
      <trkpt lat="43.51474" lon="3.90104">
        <ele>2</ele>
        <time>2017-10-27T08:04:05.446Z</time>
      </trkpt>
      <trkpt lat="43.51472" lon="3.901">
        <ele>1.9</ele>
        <time>2017-10-27T08:04:06.448Z</time>
      </trkpt>
      <trkpt lat="43.5147" lon="3.90096">
        <ele>1.9</ele>
        <time>2017-10-27T08:04:07.442Z</time>
      </trkpt>
      <trkpt lat="43.51468" lon="3.90092">
        <ele>1.9</ele>
        <time>2017-10-27T08:04:08.444Z</time>
      </trkpt>
      <trkpt lat="43.51466" lon="3.90088">
        <ele>1.7</ele>
        <time>2017-10-27T08:04:09.477Z</time>
      </trkpt>
      <trkpt lat="43.51464" lon="3.90084">
        <ele>1.6</ele>
        <time>2017-10-27T08:04:10.450Z</time>
      </trkpt>
      <trkpt lat="43.51462" lon="3.9008">
        <ele>1.5</ele>
        <time>2017-10-27T08:04:11.447Z</time>
      </trkpt>
      <trkpt lat="43.5146" lon="3.90075">
        <ele>1.5</ele>
        <time>2017-10-27T08:04:12.447Z</time>
      </trkpt>
      <trkpt lat="43.51458" lon="3.90071">
        <ele>1.5</ele>
        <time>2017-10-27T08:04:13.433Z</time>
      </trkpt>
      <trkpt lat="43.51456" lon="3.90066">
        <ele>1.4</ele>
        <time>2017-10-27T08:04:14.431Z</time>
      </trkpt>
      <trkpt lat="43.51454" lon="3.90062">
        <ele>1.2</ele>
        <time>2017-10-27T08:04:15.432Z</time>
      </trkpt>
      <trkpt lat="43.51452" lon="3.90057">
        <ele>1.1</ele>
        <time>2017-10-27T08:04:16.447Z</time>
      </trkpt>
      <trkpt lat="43.51449" lon="3.90053">
        <ele>1.2</ele>
        <time>2017-10-27T08:04:17.448Z</time>
      </trkpt>
      <trkpt lat="43.51447" lon="3.90048">
        <ele>1.2</ele>
        <time>2017-10-27T08:04:18.449Z</time>
      </trkpt>
      <trkpt lat="43.51445" lon="3.90043">
        <ele>1.4</ele>
        <time>2017-10-27T08:04:19.460Z</time>
      </trkpt>
      <trkpt lat="43.51443" lon="3.90038">
        <ele>1.4</ele>
        <time>2017-10-27T08:04:20.448Z</time>
      </trkpt>
      <trkpt lat="43.51441" lon="3.90034">
        <ele>1.4</ele>
        <time>2017-10-27T08:04:21.450Z</time>
      </trkpt>
      <trkpt lat="43.51439" lon="3.9003">
        <ele>1.4</ele>
        <time>2017-10-27T08:04:22.446Z</time>
      </trkpt>
      <trkpt lat="43.51436" lon="3.90025">
        <ele>1.3</ele>
        <time>2017-10-27T08:04:23.452Z</time>
      </trkpt>
      <trkpt lat="43.51434" lon="3.90021">
        <ele>1.3</ele>
        <time>2017-10-27T08:04:24.455Z</time>
      </trkpt>
      <trkpt lat="43.51432" lon="3.90016">
        <ele>1.3</ele>
        <time>2017-10-27T08:04:25.447Z</time>
      </trkpt>
      <trkpt lat="43.5143" lon="3.90012">
        <ele>1.3</ele>
        <time>2017-10-27T08:04:26.453Z</time>
      </trkpt>
      <trkpt lat="43.51428" lon="3.90008">
        <ele>1.2</ele>
        <time>2017-10-27T08:04:27.457Z</time>
      </trkpt>
      <trkpt lat="43.51426" lon="3.90003">
        <ele>1.2</ele>
        <time>2017-10-27T08:04:28.447Z</time>
      </trkpt>
      <trkpt lat="43.51424" lon="3.89999">
        <ele>1.1</ele>
        <time>2017-10-27T08:04:29.448Z</time>
      </trkpt>
      <trkpt lat="43.51422" lon="3.89995">
        <ele>1.1</ele>
        <time>2017-10-27T08:04:30.448Z</time>
      </trkpt>
      <trkpt lat="43.5142" lon="3.8999">
        <ele>1.1</ele>
        <time>2017-10-27T08:04:31.447Z</time>
      </trkpt>
      <trkpt lat="43.51418" lon="3.89986">
        <ele>1.1</ele>
        <time>2017-10-27T08:04:32.447Z</time>
      </trkpt>
      <trkpt lat="43.51416" lon="3.89982">
        <ele>1.1</ele>
        <time>2017-10-27T08:04:33.434Z</time>
      </trkpt>
      <trkpt lat="43.51414" lon="3.89977">
        <ele>1.1</ele>
        <time>2017-10-27T08:04:34.432Z</time>
      </trkpt>
      <trkpt lat="43.51412" lon="3.89973">
        <ele>1.1</ele>
        <time>2017-10-27T08:04:35.432Z</time>
      </trkpt>
      <trkpt lat="43.5141" lon="3.89968">
        <ele>1</ele>
        <time>2017-10-27T08:04:36.434Z</time>
      </trkpt>
      <trkpt lat="43.51408" lon="3.89963">
        <ele>1</ele>
        <time>2017-10-27T08:04:37.432Z</time>
      </trkpt>
      <trkpt lat="43.51406" lon="3.89959">
        <ele>1</ele>
        <time>2017-10-27T08:04:38.434Z</time>
      </trkpt>
      <trkpt lat="43.51403" lon="3.89954">
        <ele>1.1</ele>
        <time>2017-10-27T08:04:39.457Z</time>
      </trkpt>
      <trkpt lat="43.51401" lon="3.89949">
        <ele>1.1</ele>
        <time>2017-10-27T08:04:40.454Z</time>
      </trkpt>
      <trkpt lat="43.51399" lon="3.89945">
        <ele>1.1</ele>
        <time>2017-10-27T08:04:41.447Z</time>
      </trkpt>
      <trkpt lat="43.51397" lon="3.8994">
        <ele>1.1</ele>
        <time>2017-10-27T08:04:42.449Z</time>
      </trkpt>
      <trkpt lat="43.51394" lon="3.89935">
        <ele>1.1</ele>
        <time>2017-10-27T08:04:43.447Z</time>
      </trkpt>
      <trkpt lat="43.51392" lon="3.8993">
        <ele>1.2</ele>
        <time>2017-10-27T08:04:44.445Z</time>
      </trkpt>
      <trkpt lat="43.5139" lon="3.89926">
        <ele>1.3</ele>
        <time>2017-10-27T08:04:45.446Z</time>
      </trkpt>
      <trkpt lat="43.51387" lon="3.89921">
        <ele>1.3</ele>
        <time>2017-10-27T08:04:46.445Z</time>
      </trkpt>
      <trkpt lat="43.51385" lon="3.89916">
        <ele>1.4</ele>
        <time>2017-10-27T08:04:47.446Z</time>
      </trkpt>
      <trkpt lat="43.51383" lon="3.89911">
        <ele>1.2</ele>
        <time>2017-10-27T08:04:48.442Z</time>
      </trkpt>
      <trkpt lat="43.51381" lon="3.89906">
        <ele>1.2</ele>
        <time>2017-10-27T08:04:49.445Z</time>
      </trkpt>
      <trkpt lat="43.51378" lon="3.89901">
        <ele>1.2</ele>
        <time>2017-10-27T08:04:50.445Z</time>
      </trkpt>
      <trkpt lat="43.51376" lon="3.89897">
        <ele>1.2</ele>
        <time>2017-10-27T08:04:51.446Z</time>
      </trkpt>
      <trkpt lat="43.51374" lon="3.89892">
        <ele>1.2</ele>
        <time>2017-10-27T08:04:52.456Z</time>
      </trkpt>
      <trkpt lat="43.51371" lon="3.89887">
        <ele>1.2</ele>
        <time>2017-10-27T08:04:53.433Z</time>
      </trkpt>
      <trkpt lat="43.51369" lon="3.89882">
        <ele>1.2</ele>
        <time>2017-10-27T08:04:54.433Z</time>
      </trkpt>
      <trkpt lat="43.51367" lon="3.89877">
        <ele>1.3</ele>
        <time>2017-10-27T08:04:55.433Z</time>
      </trkpt>
      <trkpt lat="43.51365" lon="3.89872">
        <ele>1.3</ele>
        <time>2017-10-27T08:04:56.445Z</time>
      </trkpt>
      <trkpt lat="43.51362" lon="3.89867">
        <ele>1.3</ele>
        <time>2017-10-27T08:04:57.431Z</time>
      </trkpt>
      <trkpt lat="43.5136" lon="3.89862">
        <ele>1.3</ele>
        <time>2017-10-27T08:04:58.446Z</time>
      </trkpt>
      <trkpt lat="43.51358" lon="3.89857">
        <ele>1.4</ele>
        <time>2017-10-27T08:04:59.464Z</time>
      </trkpt>
      <trkpt lat="43.51355" lon="3.89852">
        <ele>1.4</ele>
        <time>2017-10-27T08:05:00.452Z</time>
      </trkpt>
      <trkpt lat="43.51353" lon="3.89847">
        <ele>1.4</ele>
        <time>2017-10-27T08:05:01.446Z</time>
      </trkpt>
      <trkpt lat="43.5135" lon="3.89841">
        <ele>1.4</ele>
        <time>2017-10-27T08:05:02.452Z</time>
      </trkpt>
      <trkpt lat="43.51348" lon="3.89836">
        <ele>1.4</ele>
        <time>2017-10-27T08:05:03.447Z</time>
      </trkpt>
      <trkpt lat="43.51345" lon="3.89831">
        <ele>1.4</ele>
        <time>2017-10-27T08:05:04.445Z</time>
      </trkpt>
      <trkpt lat="43.51343" lon="3.89825">
        <ele>1.4</ele>
        <time>2017-10-27T08:05:05.449Z</time>
      </trkpt>
      <trkpt lat="43.5134" lon="3.8982">
        <ele>1.4</ele>
        <time>2017-10-27T08:05:06.450Z</time>
      </trkpt>
      <trkpt lat="43.51338" lon="3.89815">
        <ele>1.4</ele>
        <time>2017-10-27T08:05:07.446Z</time>
      </trkpt>
      <trkpt lat="43.51336" lon="3.89809">
        <ele>1.3</ele>
        <time>2017-10-27T08:05:08.450Z</time>
      </trkpt>
      <trkpt lat="43.51333" lon="3.89803">
        <ele>1.3</ele>
        <time>2017-10-27T08:05:09.452Z</time>
      </trkpt>
      <trkpt lat="43.51331" lon="3.89798">
        <ele>1.3</ele>
        <time>2017-10-27T08:05:10.446Z</time>
      </trkpt>
      <trkpt lat="43.51328" lon="3.89792">
        <ele>1.4</ele>
        <time>2017-10-27T08:05:11.448Z</time>
      </trkpt>
      <trkpt lat="43.51325" lon="3.89787">
        <ele>1.3</ele>
        <time>2017-10-27T08:05:12.452Z</time>
      </trkpt>
      <trkpt lat="43.51323" lon="3.89781">
        <ele>1.4</ele>
        <time>2017-10-27T08:05:13.448Z</time>
      </trkpt>
      <trkpt lat="43.5132" lon="3.89776">
        <ele>1.5</ele>
        <time>2017-10-27T08:05:14.448Z</time>
      </trkpt>
      <trkpt lat="43.51318" lon="3.8977">
        <ele>1.3</ele>
        <time>2017-10-27T08:05:15.449Z</time>
      </trkpt>
      <trkpt lat="43.51315" lon="3.89765">
        <ele>1.3</ele>
        <time>2017-10-27T08:05:16.453Z</time>
      </trkpt>
      <trkpt lat="43.51312" lon="3.89759">
        <ele>1.3</ele>
        <time>2017-10-27T08:05:17.446Z</time>
      </trkpt>
      <trkpt lat="43.5131" lon="3.89754">
        <ele>1.3</ele>
        <time>2017-10-27T08:05:18.433Z</time>
      </trkpt>
      <trkpt lat="43.51307" lon="3.89749">
        <ele>1.3</ele>
        <time>2017-10-27T08:05:19.432Z</time>
      </trkpt>
      <trkpt lat="43.51305" lon="3.89744">
        <ele>1.2</ele>
        <time>2017-10-27T08:05:20.434Z</time>
      </trkpt>
      <trkpt lat="43.51303" lon="3.89739">
        <ele>1.2</ele>
        <time>2017-10-27T08:05:21.448Z</time>
      </trkpt>
      <trkpt lat="43.51301" lon="3.89733">
        <ele>1.2</ele>
        <time>2017-10-27T08:05:22.451Z</time>
      </trkpt>
      <trkpt lat="43.51298" lon="3.89728">
        <ele>1.2</ele>
        <time>2017-10-27T08:05:23.446Z</time>
      </trkpt>
      <trkpt lat="43.51296" lon="3.89723">
        <ele>1.2</ele>
        <time>2017-10-27T08:05:24.433Z</time>
      </trkpt>
      <trkpt lat="43.51293" lon="3.89718">
        <ele>1.1</ele>
        <time>2017-10-27T08:05:25.447Z</time>
      </trkpt>
      <trkpt lat="43.51291" lon="3.89713">
        <ele>1</ele>
        <time>2017-10-27T08:05:26.447Z</time>
      </trkpt>
      <trkpt lat="43.51288" lon="3.89708">
        <ele>1</ele>
        <time>2017-10-27T08:05:27.452Z</time>
      </trkpt>
      <trkpt lat="43.51286" lon="3.89702">
        <ele>1</ele>
        <time>2017-10-27T08:05:28.448Z</time>
      </trkpt>
      <trkpt lat="43.51283" lon="3.89697">
        <ele>1</ele>
        <time>2017-10-27T08:05:29.451Z</time>
      </trkpt>
      <trkpt lat="43.51281" lon="3.89691">
        <ele>1</ele>
        <time>2017-10-27T08:05:30.448Z</time>
      </trkpt>
      <trkpt lat="43.51278" lon="3.89686">
        <ele>1</ele>
        <time>2017-10-27T08:05:31.451Z</time>
      </trkpt>
      <trkpt lat="43.51276" lon="3.89681">
        <ele>0.9</ele>
        <time>2017-10-27T08:05:32.446Z</time>
      </trkpt>
      <trkpt lat="43.51273" lon="3.89676">
        <ele>1</ele>
        <time>2017-10-27T08:05:33.446Z</time>
      </trkpt>
      <trkpt lat="43.51271" lon="3.8967">
        <ele>0.9</ele>
        <time>2017-10-27T08:05:34.450Z</time>
      </trkpt>
      <trkpt lat="43.51268" lon="3.89665">
        <ele>0.8</ele>
        <time>2017-10-27T08:05:35.447Z</time>
      </trkpt>
      <trkpt lat="43.51266" lon="3.89659">
        <ele>0.8</ele>
        <time>2017-10-27T08:05:36.454Z</time>
      </trkpt>
      <trkpt lat="43.51263" lon="3.89654">
        <ele>0.9</ele>
        <time>2017-10-27T08:05:37.445Z</time>
      </trkpt>
      <trkpt lat="43.5126" lon="3.89649">
        <ele>0.9</ele>
        <time>2017-10-27T08:05:38.431Z</time>
      </trkpt>
      <trkpt lat="43.51258" lon="3.89643">
        <ele>0.8</ele>
        <time>2017-10-27T08:05:39.434Z</time>
      </trkpt>
      <trkpt lat="43.51255" lon="3.89638">
        <ele>0.8</ele>
        <time>2017-10-27T08:05:40.432Z</time>
      </trkpt>
      <trkpt lat="43.51253" lon="3.89632">
        <ele>0.8</ele>
        <time>2017-10-27T08:05:41.437Z</time>
      </trkpt>
      <trkpt lat="43.51251" lon="3.89627">
        <ele>0.7</ele>
        <time>2017-10-27T08:05:42.457Z</time>
      </trkpt>
      <trkpt lat="43.51248" lon="3.89622">
        <ele>0.6</ele>
        <time>2017-10-27T08:05:43.431Z</time>
      </trkpt>
      <trkpt lat="43.51246" lon="3.89616">
        <ele>0.5</ele>
        <time>2017-10-27T08:05:44.443Z</time>
      </trkpt>
      <trkpt lat="43.51243" lon="3.89611">
        <ele>0.2</ele>
        <time>2017-10-27T08:05:45.432Z</time>
      </trkpt>
      <trkpt lat="43.51241" lon="3.89606">
        <ele>0.2</ele>
        <time>2017-10-27T08:05:46.434Z</time>
      </trkpt>
      <trkpt lat="43.51238" lon="3.89601">
        <ele>1.6</ele>
        <time>2017-10-27T08:05:47.443Z</time>
      </trkpt>
      <trkpt lat="43.51236" lon="3.89596">
        <ele>-0.1</ele>
        <time>2017-10-27T08:05:48.458Z</time>
      </trkpt>
      <trkpt lat="43.51233" lon="3.89591">
        <ele>-0.4</ele>
        <time>2017-10-27T08:05:49.465Z</time>
      </trkpt>
      <trkpt lat="43.51231" lon="3.89586">
        <ele>-0.6</ele>
        <time>2017-10-27T08:05:50.445Z</time>
      </trkpt>
      <trkpt lat="43.51228" lon="3.89581">
        <ele>-0.6</ele>
        <time>2017-10-27T08:05:51.444Z</time>
      </trkpt>
      <trkpt lat="43.51226" lon="3.89576">
        <ele>-0.5</ele>
        <time>2017-10-27T08:05:52.445Z</time>
      </trkpt>
      <trkpt lat="43.51224" lon="3.89571">
        <ele>-0.3</ele>
        <time>2017-10-27T08:05:53.452Z</time>
      </trkpt>
      <trkpt lat="43.51222" lon="3.89567">
        <ele>-0.4</ele>
        <time>2017-10-27T08:05:54.458Z</time>
      </trkpt>
      <trkpt lat="43.5122" lon="3.89562">
        <ele>-0.3</ele>
        <time>2017-10-27T08:05:55.451Z</time>
      </trkpt>
      <trkpt lat="43.51217" lon="3.89558">
        <ele>-0.3</ele>
        <time>2017-10-27T08:05:56.446Z</time>
      </trkpt>
      <trkpt lat="43.51215" lon="3.89553">
        <ele>-0.2</ele>
        <time>2017-10-27T08:05:57.434Z</time>
      </trkpt>
      <trkpt lat="43.51213" lon="3.89549">
        <ele>-0.4</ele>
        <time>2017-10-27T08:05:58.451Z</time>
      </trkpt>
      <trkpt lat="43.51211" lon="3.89544">
        <ele>-0.4</ele>
        <time>2017-10-27T08:05:59.446Z</time>
      </trkpt>
      <trkpt lat="43.51209" lon="3.89539">
        <ele>-0.3</ele>
        <time>2017-10-27T08:06:00.448Z</time>
      </trkpt>
      <trkpt lat="43.51207" lon="3.89535">
        <ele>-0.2</ele>
        <time>2017-10-27T08:06:01.435Z</time>
      </trkpt>
      <trkpt lat="43.51204" lon="3.8953">
        <ele>-0.2</ele>
        <time>2017-10-27T08:06:02.431Z</time>
      </trkpt>
      <trkpt lat="43.51202" lon="3.89525">
        <ele>0.3</ele>
        <time>2017-10-27T08:06:03.431Z</time>
      </trkpt>
      <trkpt lat="43.512" lon="3.8952">
        <ele>0.2</ele>
        <time>2017-10-27T08:06:04.431Z</time>
      </trkpt>
      <trkpt lat="43.51198" lon="3.89516">
        <ele>0.2</ele>
        <time>2017-10-27T08:06:05.466Z</time>
      </trkpt>
      <trkpt lat="43.51196" lon="3.89511">
        <ele>0.1</ele>
        <time>2017-10-27T08:06:06.454Z</time>
      </trkpt>
      <trkpt lat="43.51193" lon="3.89506">
        <ele>0.1</ele>
        <time>2017-10-27T08:06:07.447Z</time>
      </trkpt>
      <trkpt lat="43.51191" lon="3.89501">
        <ele>-0.1</ele>
        <time>2017-10-27T08:06:08.445Z</time>
      </trkpt>
      <trkpt lat="43.51189" lon="3.89496">
        <ele>-0.2</ele>
        <time>2017-10-27T08:06:09.481Z</time>
      </trkpt>
      <trkpt lat="43.51187" lon="3.89491">
        <ele>-0.2</ele>
        <time>2017-10-27T08:06:10.447Z</time>
      </trkpt>
      <trkpt lat="43.51184" lon="3.89486">
        <ele>-0.3</ele>
        <time>2017-10-27T08:06:11.446Z</time>
      </trkpt>
      <trkpt lat="43.51182" lon="3.89482">
        <ele>-0.3</ele>
        <time>2017-10-27T08:06:12.455Z</time>
      </trkpt>
      <trkpt lat="43.5118" lon="3.89477">
        <ele>-0.4</ele>
        <time>2017-10-27T08:06:13.456Z</time>
      </trkpt>
      <trkpt lat="43.51178" lon="3.89472">
        <ele>-0.4</ele>
        <time>2017-10-27T08:06:14.447Z</time>
      </trkpt>
      <trkpt lat="43.51175" lon="3.89468">
        <ele>-0.5</ele>
        <time>2017-10-27T08:06:15.449Z</time>
      </trkpt>
      <trkpt lat="43.51173" lon="3.89463">
        <ele>-0.5</ele>
        <time>2017-10-27T08:06:16.431Z</time>
      </trkpt>
      <trkpt lat="43.51171" lon="3.89458">
        <ele>-0.5</ele>
        <time>2017-10-27T08:06:17.446Z</time>
      </trkpt>
      <trkpt lat="43.51169" lon="3.89453">
        <ele>-0.5</ele>
        <time>2017-10-27T08:06:18.467Z</time>
      </trkpt>
      <trkpt lat="43.51167" lon="3.89448">
        <ele>-0.5</ele>
        <time>2017-10-27T08:06:19.446Z</time>
      </trkpt>
      <trkpt lat="43.51164" lon="3.89443">
        <ele>-0.5</ele>
        <time>2017-10-27T08:06:20.454Z</time>
      </trkpt>
      <trkpt lat="43.51162" lon="3.89438">
        <ele>-0.5</ele>
        <time>2017-10-27T08:06:21.449Z</time>
      </trkpt>
      <trkpt lat="43.5116" lon="3.89433">
        <ele>-0.5</ele>
        <time>2017-10-27T08:06:22.450Z</time>
      </trkpt>
      <trkpt lat="43.51157" lon="3.89428">
        <ele>-0.6</ele>
        <time>2017-10-27T08:06:23.431Z</time>
      </trkpt>
      <trkpt lat="43.51155" lon="3.89423">
        <ele>-0.8</ele>
        <time>2017-10-27T08:06:24.435Z</time>
      </trkpt>
      <trkpt lat="43.51152" lon="3.89418">
        <ele>-0.7</ele>
        <time>2017-10-27T08:06:25.433Z</time>
      </trkpt>
      <trkpt lat="43.5115" lon="3.89413">
        <ele>-0.7</ele>
        <time>2017-10-27T08:06:26.457Z</time>
      </trkpt>
      <trkpt lat="43.51148" lon="3.89408">
        <ele>-0.6</ele>
        <time>2017-10-27T08:06:27.456Z</time>
      </trkpt>
      <trkpt lat="43.51145" lon="3.89403">
        <ele>-0.6</ele>
        <time>2017-10-27T08:06:28.460Z</time>
      </trkpt>
      <trkpt lat="43.51143" lon="3.89398">
        <ele>-0.6</ele>
        <time>2017-10-27T08:06:29.451Z</time>
      </trkpt>
      <trkpt lat="43.5114" lon="3.89393">
        <ele>-0.7</ele>
        <time>2017-10-27T08:06:30.451Z</time>
      </trkpt>
      <trkpt lat="43.51138" lon="3.89387">
        <ele>-0.7</ele>
        <time>2017-10-27T08:06:31.449Z</time>
      </trkpt>
      <trkpt lat="43.51135" lon="3.89382">
        <ele>-0.8</ele>
        <time>2017-10-27T08:06:32.450Z</time>
      </trkpt>
      <trkpt lat="43.51133" lon="3.89377">
        <ele>-0.8</ele>
        <time>2017-10-27T08:06:33.436Z</time>
      </trkpt>
      <trkpt lat="43.51131" lon="3.89372">
        <ele>-0.8</ele>
        <time>2017-10-27T08:06:34.452Z</time>
      </trkpt>
      <trkpt lat="43.51129" lon="3.89367">
        <ele>-0.8</ele>
        <time>2017-10-27T08:06:35.454Z</time>
      </trkpt>
      <trkpt lat="43.51126" lon="3.89362">
        <ele>-0.8</ele>
        <time>2017-10-27T08:06:36.455Z</time>
      </trkpt>
      <trkpt lat="43.51124" lon="3.89358">
        <ele>-0.8</ele>
        <time>2017-10-27T08:06:37.448Z</time>
      </trkpt>
      <trkpt lat="43.51122" lon="3.89353">
        <ele>-0.8</ele>
        <time>2017-10-27T08:06:38.449Z</time>
      </trkpt>
      <trkpt lat="43.51119" lon="3.89348">
        <ele>-0.9</ele>
        <time>2017-10-27T08:06:39.461Z</time>
      </trkpt>
      <trkpt lat="43.51117" lon="3.89343">
        <ele>-0.9</ele>
        <time>2017-10-27T08:06:40.449Z</time>
      </trkpt>
      <trkpt lat="43.51115" lon="3.89339">
        <ele>-1</ele>
        <time>2017-10-27T08:06:41.453Z</time>
      </trkpt>
      <trkpt lat="43.51112" lon="3.89334">
        <ele>-0.8</ele>
        <time>2017-10-27T08:06:42.449Z</time>
      </trkpt>
      <trkpt lat="43.5111" lon="3.89329">
        <ele>-0.7</ele>
        <time>2017-10-27T08:06:43.449Z</time>
      </trkpt>
      <trkpt lat="43.51108" lon="3.89324">
        <ele>-0.7</ele>
        <time>2017-10-27T08:06:44.460Z</time>
      </trkpt>
      <trkpt lat="43.51105" lon="3.89319">
        <ele>-0.6</ele>
        <time>2017-10-27T08:06:45.437Z</time>
      </trkpt>
      <trkpt lat="43.51103" lon="3.89314">
        <ele>-0.5</ele>
        <time>2017-10-27T08:06:46.434Z</time>
      </trkpt>
      <trkpt lat="43.511" lon="3.8931">
        <ele>-0.6</ele>
        <time>2017-10-27T08:06:47.435Z</time>
      </trkpt>
      <trkpt lat="43.51098" lon="3.89305">
        <ele>-0.8</ele>
        <time>2017-10-27T08:06:48.455Z</time>
      </trkpt>
      <trkpt lat="43.51095" lon="3.89299">
        <ele>-0.7</ele>
        <time>2017-10-27T08:06:49.451Z</time>
      </trkpt>
      <trkpt lat="43.51093" lon="3.89294">
        <ele>-0.5</ele>
        <time>2017-10-27T08:06:50.447Z</time>
      </trkpt>
      <trkpt lat="43.5109" lon="3.89288">
        <ele>-0.5</ele>
        <time>2017-10-27T08:06:51.449Z</time>
      </trkpt>
      <trkpt lat="43.51088" lon="3.89282">
        <ele>-0.5</ele>
        <time>2017-10-27T08:06:52.449Z</time>
      </trkpt>
      <trkpt lat="43.51086" lon="3.89277">
        <ele>-0.6</ele>
        <time>2017-10-27T08:06:53.448Z</time>
      </trkpt>
      <trkpt lat="43.51084" lon="3.89271">
        <ele>-0.7</ele>
        <time>2017-10-27T08:06:54.450Z</time>
      </trkpt>
      <trkpt lat="43.51082" lon="3.89266">
        <ele>-0.8</ele>
        <time>2017-10-27T08:06:55.450Z</time>
      </trkpt>
      <trkpt lat="43.51079" lon="3.89261">
        <ele>-0.9</ele>
        <time>2017-10-27T08:06:56.454Z</time>
      </trkpt>
      <trkpt lat="43.51077" lon="3.89256">
        <ele>-0.9</ele>
        <time>2017-10-27T08:06:57.437Z</time>
      </trkpt>
      <trkpt lat="43.51074" lon="3.89251">
        <ele>-0.9</ele>
        <time>2017-10-27T08:06:58.448Z</time>
      </trkpt>
      <trkpt lat="43.51072" lon="3.89246">
        <ele>-0.7</ele>
        <time>2017-10-27T08:06:59.484Z</time>
      </trkpt>
      <trkpt lat="43.5107" lon="3.89241">
        <ele>-0.6</ele>
        <time>2017-10-27T08:07:00.460Z</time>
      </trkpt>
      <trkpt lat="43.51068" lon="3.89236">
        <ele>-0.6</ele>
        <time>2017-10-27T08:07:01.456Z</time>
      </trkpt>
      <trkpt lat="43.51065" lon="3.89232">
        <ele>-0.6</ele>
        <time>2017-10-27T08:07:02.449Z</time>
      </trkpt>
      <trkpt lat="43.51063" lon="3.89227">
        <ele>-0.6</ele>
        <time>2017-10-27T08:07:03.455Z</time>
      </trkpt>
      <trkpt lat="43.51061" lon="3.89222">
        <ele>-0.7</ele>
        <time>2017-10-27T08:07:04.456Z</time>
      </trkpt>
      <trkpt lat="43.51059" lon="3.89217">
        <ele>-0.7</ele>
        <time>2017-10-27T08:07:05.449Z</time>
      </trkpt>
      <trkpt lat="43.51056" lon="3.89213">
        <ele>-0.6</ele>
        <time>2017-10-27T08:07:06.450Z</time>
      </trkpt>
      <trkpt lat="43.51054" lon="3.89208">
        <ele>-0.7</ele>
        <time>2017-10-27T08:07:07.447Z</time>
      </trkpt>
      <trkpt lat="43.51052" lon="3.89203">
        <ele>-0.4</ele>
        <time>2017-10-27T08:07:08.434Z</time>
      </trkpt>
      <trkpt lat="43.5105" lon="3.89199">
        <ele>-0.4</ele>
        <time>2017-10-27T08:07:09.432Z</time>
      </trkpt>
      <trkpt lat="43.51048" lon="3.89194">
        <ele>-0.4</ele>
        <time>2017-10-27T08:07:10.435Z</time>
      </trkpt>
      <trkpt lat="43.51046" lon="3.89189">
        <ele>-0.4</ele>
        <time>2017-10-27T08:07:11.446Z</time>
      </trkpt>
      <trkpt lat="43.51043" lon="3.89184">
        <ele>-0.3</ele>
        <time>2017-10-27T08:07:12.455Z</time>
      </trkpt>
      <trkpt lat="43.51041" lon="3.8918">
        <ele>-0.5</ele>
        <time>2017-10-27T08:07:13.453Z</time>
      </trkpt>
      <trkpt lat="43.51039" lon="3.89175">
        <ele>-0.5</ele>
        <time>2017-10-27T08:07:14.450Z</time>
      </trkpt>
      <trkpt lat="43.51037" lon="3.8917">
        <ele>-0.4</ele>
        <time>2017-10-27T08:07:15.445Z</time>
      </trkpt>
      <trkpt lat="43.51035" lon="3.89166">
        <ele>-0.4</ele>
        <time>2017-10-27T08:07:16.448Z</time>
      </trkpt>
      <trkpt lat="43.51032" lon="3.89161">
        <ele>-0.4</ele>
        <time>2017-10-27T08:07:17.446Z</time>
      </trkpt>
      <trkpt lat="43.5103" lon="3.89156">
        <ele>-0.4</ele>
        <time>2017-10-27T08:07:18.455Z</time>
      </trkpt>
      <trkpt lat="43.51028" lon="3.89152">
        <ele>-0.3</ele>
        <time>2017-10-27T08:07:19.432Z</time>
      </trkpt>
      <trkpt lat="43.51026" lon="3.89147">
        <ele>-0.2</ele>
        <time>2017-10-27T08:07:20.446Z</time>
      </trkpt>
      <trkpt lat="43.51024" lon="3.89142">
        <ele>-0.2</ele>
        <time>2017-10-27T08:07:21.433Z</time>
      </trkpt>
      <trkpt lat="43.51022" lon="3.89138">
        <ele>-0.1</ele>
        <time>2017-10-27T08:07:22.433Z</time>
      </trkpt>
      <trkpt lat="43.51019" lon="3.89133">
        <ele>-0.2</ele>
        <time>2017-10-27T08:07:23.445Z</time>
      </trkpt>
      <trkpt lat="43.51018" lon="3.89129">
        <ele>-0.2</ele>
        <time>2017-10-27T08:07:24.437Z</time>
      </trkpt>
      <trkpt lat="43.51016" lon="3.89126">
        <ele>-0.3</ele>
        <time>2017-10-27T08:07:25.484Z</time>
      </trkpt>
      <trkpt lat="43.51014" lon="3.89122">
        <ele>-0.3</ele>
        <time>2017-10-27T08:07:26.459Z</time>
      </trkpt>
      <trkpt lat="43.51012" lon="3.89119">
        <ele>-0.4</ele>
        <time>2017-10-27T08:07:27.456Z</time>
      </trkpt>
      <trkpt lat="43.51011" lon="3.89115">
        <ele>-0.3</ele>
        <time>2017-10-27T08:07:28.446Z</time>
      </trkpt>
      <trkpt lat="43.51009" lon="3.89111">
        <ele>-0.1</ele>
        <time>2017-10-27T08:07:29.446Z</time>
      </trkpt>
      <trkpt lat="43.51007" lon="3.89106">
        <ele>-0.2</ele>
        <time>2017-10-27T08:07:30.435Z</time>
      </trkpt>
      <trkpt lat="43.51005" lon="3.89102">
        <ele>-0.3</ele>
        <time>2017-10-27T08:07:31.432Z</time>
      </trkpt>
      <trkpt lat="43.51003" lon="3.89098">
        <ele>-0.3</ele>
        <time>2017-10-27T08:07:32.436Z</time>
      </trkpt>
      <trkpt lat="43.51001" lon="3.89095">
        <ele>-0.6</ele>
        <time>2017-10-27T08:07:33.433Z</time>
      </trkpt>
      <trkpt lat="43.50999" lon="3.89091">
        <ele>-0.6</ele>
        <time>2017-10-27T08:07:34.446Z</time>
      </trkpt>
      <trkpt lat="43.50997" lon="3.89087">
        <ele>-0.6</ele>
        <time>2017-10-27T08:07:35.451Z</time>
      </trkpt>
      <trkpt lat="43.50995" lon="3.89083">
        <ele>-0.5</ele>
        <time>2017-10-27T08:07:36.447Z</time>
      </trkpt>
      <trkpt lat="43.50992" lon="3.89078">
        <ele>-0.3</ele>
        <time>2017-10-27T08:07:37.457Z</time>
      </trkpt>
      <trkpt lat="43.5099" lon="3.89073">
        <ele>-0.3</ele>
        <time>2017-10-27T08:07:38.448Z</time>
      </trkpt>
      <trkpt lat="43.50988" lon="3.89068">
        <ele>-0.2</ele>
        <time>2017-10-27T08:07:39.458Z</time>
      </trkpt>
      <trkpt lat="43.50986" lon="3.89063">
        <ele>-0.2</ele>
        <time>2017-10-27T08:07:40.456Z</time>
      </trkpt>
      <trkpt lat="43.50984" lon="3.89059">
        <ele>-0.7</ele>
        <time>2017-10-27T08:07:41.446Z</time>
      </trkpt>
      <trkpt lat="43.50982" lon="3.89055">
        <ele>-0.9</ele>
        <time>2017-10-27T08:07:42.446Z</time>
      </trkpt>
      <trkpt lat="43.50981" lon="3.89051">
        <ele>-1.1</ele>
        <time>2017-10-27T08:07:43.446Z</time>
      </trkpt>
      <trkpt lat="43.50979" lon="3.89047">
        <ele>-1.2</ele>
        <time>2017-10-27T08:07:44.457Z</time>
      </trkpt>
      <trkpt lat="43.50977" lon="3.89042">
        <ele>-1.2</ele>
        <time>2017-10-27T08:07:45.449Z</time>
      </trkpt>
      <trkpt lat="43.50975" lon="3.89037">
        <ele>-1.2</ele>
        <time>2017-10-27T08:07:46.449Z</time>
      </trkpt>
      <trkpt lat="43.50973" lon="3.89033">
        <ele>-1.1</ele>
        <time>2017-10-27T08:07:47.447Z</time>
      </trkpt>
      <trkpt lat="43.50971" lon="3.89029">
        <ele>-1.1</ele>
        <time>2017-10-27T08:07:48.450Z</time>
      </trkpt>
      <trkpt lat="43.5097" lon="3.89025">
        <ele>-1</ele>
        <time>2017-10-27T08:07:49.448Z</time>
      </trkpt>
      <trkpt lat="43.50968" lon="3.89022">
        <ele>-1</ele>
        <time>2017-10-27T08:07:50.461Z</time>
      </trkpt>
      <trkpt lat="43.50967" lon="3.89019">
        <ele>-1</ele>
        <time>2017-10-27T08:07:51.434Z</time>
      </trkpt>
      <trkpt lat="43.50966" lon="3.89016">
        <ele>-1</ele>
        <time>2017-10-27T08:07:52.432Z</time>
      </trkpt>
      <trkpt lat="43.50966" lon="3.89012">
        <ele>-1.1</ele>
        <time>2017-10-27T08:07:53.433Z</time>
      </trkpt>
      <trkpt lat="43.50964" lon="3.89008">
        <ele>-1.4</ele>
        <time>2017-10-27T08:07:54.433Z</time>
      </trkpt>
      <trkpt lat="43.50963" lon="3.89003">
        <ele>-1.5</ele>
        <time>2017-10-27T08:07:55.447Z</time>
      </trkpt>
      <trkpt lat="43.50961" lon="3.88999">
        <ele>-1.5</ele>
        <time>2017-10-27T08:07:56.445Z</time>
      </trkpt>
      <trkpt lat="43.50958" lon="3.88995">
        <ele>-1.5</ele>
        <time>2017-10-27T08:07:57.435Z</time>
      </trkpt>
      <trkpt lat="43.50956" lon="3.88991">
        <ele>-1.6</ele>
        <time>2017-10-27T08:07:58.446Z</time>
      </trkpt>
      <trkpt lat="43.50953" lon="3.88987">
        <ele>-1.5</ele>
        <time>2017-10-27T08:07:59.449Z</time>
      </trkpt>
      <trkpt lat="43.50951" lon="3.88983">
        <ele>-1.4</ele>
        <time>2017-10-27T08:08:00.450Z</time>
      </trkpt>
      <trkpt lat="43.50948" lon="3.88978">
        <ele>-1.3</ele>
        <time>2017-10-27T08:08:01.450Z</time>
      </trkpt>
      <trkpt lat="43.50946" lon="3.88974">
        <ele>-1.3</ele>
        <time>2017-10-27T08:08:02.448Z</time>
      </trkpt>
      <trkpt lat="43.50943" lon="3.8897">
        <ele>-0.9</ele>
        <time>2017-10-27T08:08:03.449Z</time>
      </trkpt>
      <trkpt lat="43.50941" lon="3.88966">
        <ele>-0.8</ele>
        <time>2017-10-27T08:08:04.451Z</time>
      </trkpt>
      <trkpt lat="43.50938" lon="3.88962">
        <ele>-0.7</ele>
        <time>2017-10-27T08:08:05.451Z</time>
      </trkpt>
      <trkpt lat="43.50935" lon="3.88958">
        <ele>-0.7</ele>
        <time>2017-10-27T08:08:06.446Z</time>
      </trkpt>
      <trkpt lat="43.50933" lon="3.88954">
        <ele>-0.6</ele>
        <time>2017-10-27T08:08:07.447Z</time>
      </trkpt>
      <trkpt lat="43.5093" lon="3.8895">
        <ele>-0.5</ele>
        <time>2017-10-27T08:08:08.446Z</time>
      </trkpt>
      <trkpt lat="43.50927" lon="3.88946">
        <ele>-0.5</ele>
        <time>2017-10-27T08:08:09.438Z</time>
      </trkpt>
      <trkpt lat="43.50925" lon="3.88942">
        <ele>-0.4</ele>
        <time>2017-10-27T08:08:10.451Z</time>
      </trkpt>
      <trkpt lat="43.50922" lon="3.88938">
        <ele>-0.3</ele>
        <time>2017-10-27T08:08:11.435Z</time>
      </trkpt>
      <trkpt lat="43.50919" lon="3.88934">
        <ele>-0.3</ele>
        <time>2017-10-27T08:08:12.434Z</time>
      </trkpt>
      <trkpt lat="43.50916" lon="3.88929">
        <ele>-0.2</ele>
        <time>2017-10-27T08:08:13.447Z</time>
      </trkpt>
      <trkpt lat="43.50913" lon="3.88925">
        <ele>-0.1</ele>
        <time>2017-10-27T08:08:14.449Z</time>
      </trkpt>
      <trkpt lat="43.50911" lon="3.88922">
        <ele>-0.1</ele>
        <time>2017-10-27T08:08:15.446Z</time>
      </trkpt>
      <trkpt lat="43.50908" lon="3.88918">
        <ele>-0.1</ele>
        <time>2017-10-27T08:08:16.449Z</time>
      </trkpt>
      <trkpt lat="43.50905" lon="3.88914">
        <ele>0.1</ele>
        <time>2017-10-27T08:08:17.455Z</time>
      </trkpt>
      <trkpt lat="43.50903" lon="3.8891">
        <ele>0.2</ele>
        <time>2017-10-27T08:08:18.472Z</time>
      </trkpt>
      <trkpt lat="43.509" lon="3.88905">
        <ele>0.1</ele>
        <time>2017-10-27T08:08:19.456Z</time>
      </trkpt>
      <trkpt lat="43.50898" lon="3.88901">
        <ele>0.2</ele>
        <time>2017-10-27T08:08:20.448Z</time>
      </trkpt>
      <trkpt lat="43.50896" lon="3.88897">
        <ele>0.2</ele>
        <time>2017-10-27T08:08:21.435Z</time>
      </trkpt>
      <trkpt lat="43.50894" lon="3.88892">
        <ele>0.2</ele>
        <time>2017-10-27T08:08:22.431Z</time>
      </trkpt>
      <trkpt lat="43.50892" lon="3.88888">
        <ele>0.3</ele>
        <time>2017-10-27T08:08:23.432Z</time>
      </trkpt>
      <trkpt lat="43.5089" lon="3.88884">
        <ele>0.3</ele>
        <time>2017-10-27T08:08:24.454Z</time>
      </trkpt>
      <trkpt lat="43.50888" lon="3.8888">
        <ele>0.3</ele>
        <time>2017-10-27T08:08:25.454Z</time>
      </trkpt>
      <trkpt lat="43.50886" lon="3.88875">
        <ele>0.4</ele>
        <time>2017-10-27T08:08:26.456Z</time>
      </trkpt>
      <trkpt lat="43.50884" lon="3.88871">
        <ele>0.4</ele>
        <time>2017-10-27T08:08:27.453Z</time>
      </trkpt>
      <trkpt lat="43.50882" lon="3.88867">
        <ele>0.5</ele>
        <time>2017-10-27T08:08:28.445Z</time>
      </trkpt>
      <trkpt lat="43.5088" lon="3.88862">
        <ele>0.4</ele>
        <time>2017-10-27T08:08:29.449Z</time>
      </trkpt>
      <trkpt lat="43.50879" lon="3.88858">
        <ele>0.4</ele>
        <time>2017-10-27T08:08:30.452Z</time>
      </trkpt>
      <trkpt lat="43.50877" lon="3.88854">
        <ele>0.3</ele>
        <time>2017-10-27T08:08:31.445Z</time>
      </trkpt>
      <trkpt lat="43.50875" lon="3.8885">
        <ele>0.2</ele>
        <time>2017-10-27T08:08:32.451Z</time>
      </trkpt>
      <trkpt lat="43.50873" lon="3.88845">
        <ele>0.1</ele>
        <time>2017-10-27T08:08:33.447Z</time>
      </trkpt>
      <trkpt lat="43.50871" lon="3.88841">
        <ele>0.1</ele>
        <time>2017-10-27T08:08:34.445Z</time>
      </trkpt>
      <trkpt lat="43.50869" lon="3.88837">
        <ele>2</ele>
        <time>2017-10-27T08:08:35.454Z</time>
      </trkpt>
      <trkpt lat="43.50867" lon="3.88832">
        <ele>0.1</ele>
        <time>2017-10-27T08:08:36.451Z</time>
      </trkpt>
      <trkpt lat="43.50865" lon="3.88828">
        <ele>2</ele>
        <time>2017-10-27T08:08:37.447Z</time>
      </trkpt>
      <trkpt lat="43.50863" lon="3.88824">
        <ele>-0.1</ele>
        <time>2017-10-27T08:08:38.454Z</time>
      </trkpt>
      <trkpt lat="43.50861" lon="3.88819">
        <ele>-0.1</ele>
        <time>2017-10-27T08:08:39.446Z</time>
      </trkpt>
      <trkpt lat="43.50859" lon="3.88815">
        <ele>-0.2</ele>
        <time>2017-10-27T08:08:40.445Z</time>
      </trkpt>
      <trkpt lat="43.50857" lon="3.8881">
        <ele>-0.2</ele>
        <time>2017-10-27T08:08:41.446Z</time>
      </trkpt>
      <trkpt lat="43.50855" lon="3.88806">
        <ele>-0.2</ele>
        <time>2017-10-27T08:08:42.448Z</time>
      </trkpt>
      <trkpt lat="43.50853" lon="3.88802">
        <ele>-0.2</ele>
        <time>2017-10-27T08:08:43.446Z</time>
      </trkpt>
      <trkpt lat="43.50851" lon="3.88797">
        <ele>-0.1</ele>
        <time>2017-10-27T08:08:44.448Z</time>
      </trkpt>
      <trkpt lat="43.50849" lon="3.88793">
        <ele>-0.1</ele>
        <time>2017-10-27T08:08:45.450Z</time>
      </trkpt>
      <trkpt lat="43.50847" lon="3.88789">
        <ele>1.4</ele>
        <time>2017-10-27T08:08:46.455Z</time>
      </trkpt>
      <trkpt lat="43.50844" lon="3.88785">
        <ele>1.2</ele>
        <time>2017-10-27T08:08:47.432Z</time>
      </trkpt>
      <trkpt lat="43.50842" lon="3.8878">
        <ele>1.1</ele>
        <time>2017-10-27T08:08:48.433Z</time>
      </trkpt>
      <trkpt lat="43.5084" lon="3.88776">
        <ele>1</ele>
        <time>2017-10-27T08:08:49.434Z</time>
      </trkpt>
      <trkpt lat="43.50838" lon="3.88772">
        <ele>0.1</ele>
        <time>2017-10-27T08:08:50.432Z</time>
      </trkpt>
      <trkpt lat="43.50835" lon="3.88768">
        <ele>0.1</ele>
        <time>2017-10-27T08:08:51.465Z</time>
      </trkpt>
      <trkpt lat="43.50833" lon="3.88764">
        <ele>0.1</ele>
        <time>2017-10-27T08:08:52.445Z</time>
      </trkpt>
      <trkpt lat="43.50831" lon="3.88759">
        <ele>0.1</ele>
        <time>2017-10-27T08:08:53.446Z</time>
      </trkpt>
      <trkpt lat="43.50828" lon="3.88756">
        <ele>0.1</ele>
        <time>2017-10-27T08:08:54.447Z</time>
      </trkpt>
      <trkpt lat="43.50826" lon="3.88752">
        <ele>0.2</ele>
        <time>2017-10-27T08:08:55.446Z</time>
      </trkpt>
      <trkpt lat="43.50823" lon="3.88747">
        <ele>0.3</ele>
        <time>2017-10-27T08:08:56.446Z</time>
      </trkpt>
      <trkpt lat="43.50821" lon="3.88743">
        <ele>0.4</ele>
        <time>2017-10-27T08:08:57.434Z</time>
      </trkpt>
      <trkpt lat="43.50818" lon="3.88739">
        <ele>0.4</ele>
        <time>2017-10-27T08:08:58.447Z</time>
      </trkpt>
      <trkpt lat="43.50815" lon="3.88735">
        <ele>0.4</ele>
        <time>2017-10-27T08:08:59.446Z</time>
      </trkpt>
      <trkpt lat="43.50813" lon="3.88731">
        <ele>0.4</ele>
        <time>2017-10-27T08:09:00.442Z</time>
      </trkpt>
      <trkpt lat="43.5081" lon="3.88727">
        <ele>0.5</ele>
        <time>2017-10-27T08:09:01.445Z</time>
      </trkpt>
      <trkpt lat="43.50808" lon="3.88723">
        <ele>0.5</ele>
        <time>2017-10-27T08:09:02.454Z</time>
      </trkpt>
      <trkpt lat="43.50806" lon="3.88719">
        <ele>0.5</ele>
        <time>2017-10-27T08:09:03.447Z</time>
      </trkpt>
      <trkpt lat="43.50804" lon="3.88715">
        <ele>0.6</ele>
        <time>2017-10-27T08:09:04.467Z</time>
      </trkpt>
      <trkpt lat="43.50802" lon="3.88711">
        <ele>0.6</ele>
        <time>2017-10-27T08:09:05.446Z</time>
      </trkpt>
      <trkpt lat="43.508" lon="3.88707">
        <ele>0.5</ele>
        <time>2017-10-27T08:09:06.447Z</time>
      </trkpt>
      <trkpt lat="43.50798" lon="3.88703">
        <ele>0.5</ele>
        <time>2017-10-27T08:09:07.447Z</time>
      </trkpt>
      <trkpt lat="43.50796" lon="3.88699">
        <ele>0.5</ele>
        <time>2017-10-27T08:09:08.432Z</time>
      </trkpt>
      <trkpt lat="43.50793" lon="3.88696">
        <ele>0.4</ele>
        <time>2017-10-27T08:09:09.432Z</time>
      </trkpt>
      <trkpt lat="43.50791" lon="3.88693">
        <ele>0.6</ele>
        <time>2017-10-27T08:09:10.431Z</time>
      </trkpt>
      <trkpt lat="43.50789" lon="3.88689">
        <ele>0.6</ele>
        <time>2017-10-27T08:09:11.448Z</time>
      </trkpt>
      <trkpt lat="43.50786" lon="3.88685">
        <ele>0.6</ele>
        <time>2017-10-27T08:09:12.454Z</time>
      </trkpt>
      <trkpt lat="43.50784" lon="3.88682">
        <ele>0.5</ele>
        <time>2017-10-27T08:09:13.450Z</time>
      </trkpt>
      <trkpt lat="43.50782" lon="3.88678">
        <ele>0.5</ele>
        <time>2017-10-27T08:09:14.451Z</time>
      </trkpt>
      <trkpt lat="43.50779" lon="3.88675">
        <ele>0.5</ele>
        <time>2017-10-27T08:09:15.449Z</time>
      </trkpt>
      <trkpt lat="43.50777" lon="3.88671">
        <ele>0.5</ele>
        <time>2017-10-27T08:09:16.442Z</time>
      </trkpt>
      <trkpt lat="43.50774" lon="3.88667">
        <ele>0.4</ele>
        <time>2017-10-27T08:09:17.447Z</time>
      </trkpt>
      <trkpt lat="43.50772" lon="3.88664">
        <ele>0.4</ele>
        <time>2017-10-27T08:09:18.442Z</time>
      </trkpt>
      <trkpt lat="43.5077" lon="3.8866">
        <ele>0.4</ele>
        <time>2017-10-27T08:09:19.449Z</time>
      </trkpt>
      <trkpt lat="43.50767" lon="3.88656">
        <ele>0.5</ele>
        <time>2017-10-27T08:09:20.449Z</time>
      </trkpt>
      <trkpt lat="43.50765" lon="3.88652">
        <ele>0.4</ele>
        <time>2017-10-27T08:09:21.449Z</time>
      </trkpt>
      <trkpt lat="43.50763" lon="3.88648">
        <ele>0.3</ele>
        <time>2017-10-27T08:09:22.462Z</time>
      </trkpt>
      <trkpt lat="43.50761" lon="3.88645">
        <ele>0.2</ele>
        <time>2017-10-27T08:09:23.446Z</time>
      </trkpt>
      <trkpt lat="43.50759" lon="3.88641">
        <ele>0.2</ele>
        <time>2017-10-27T08:09:24.449Z</time>
      </trkpt>
      <trkpt lat="43.50757" lon="3.88637">
        <ele>0.1</ele>
        <time>2017-10-27T08:09:25.438Z</time>
      </trkpt>
      <trkpt lat="43.50755" lon="3.88633">
        <time>2017-10-27T08:09:26.434Z</time>
      </trkpt>
      <trkpt lat="43.50753" lon="3.88629">
        <ele>0.1</ele>
        <time>2017-10-27T08:09:27.435Z</time>
      </trkpt>
      <trkpt lat="43.50751" lon="3.88626">
        <time>2017-10-27T08:09:28.440Z</time>
      </trkpt>
      <trkpt lat="43.50749" lon="3.88622">
        <ele>0.2</ele>
        <time>2017-10-27T08:09:29.434Z</time>
      </trkpt>
      <trkpt lat="43.50747" lon="3.88618">
        <ele>0.2</ele>
        <time>2017-10-27T08:09:30.447Z</time>
      </trkpt>
      <trkpt lat="43.50745" lon="3.88615">
        <ele>0.2</ele>
        <time>2017-10-27T08:09:31.450Z</time>
      </trkpt>
      <trkpt lat="43.50743" lon="3.88612">
        <ele>0.2</ele>
        <time>2017-10-27T08:09:32.450Z</time>
      </trkpt>
      <trkpt lat="43.50741" lon="3.88609">
        <ele>0.2</ele>
        <time>2017-10-27T08:09:33.450Z</time>
      </trkpt>
      <trkpt lat="43.50739" lon="3.88605">
        <ele>0.2</ele>
        <time>2017-10-27T08:09:34.448Z</time>
      </trkpt>
      <trkpt lat="43.50737" lon="3.88602">
        <ele>0.2</ele>
        <time>2017-10-27T08:09:35.449Z</time>
      </trkpt>
      <trkpt lat="43.50735" lon="3.88598">
        <ele>0.2</ele>
        <time>2017-10-27T08:09:36.450Z</time>
      </trkpt>
      <trkpt lat="43.50734" lon="3.88594">
        <ele>0.2</ele>
        <time>2017-10-27T08:09:37.447Z</time>
      </trkpt>
      <trkpt lat="43.50732" lon="3.88591">
        <ele>0.3</ele>
        <time>2017-10-27T08:09:38.436Z</time>
      </trkpt>
      <trkpt lat="43.5073" lon="3.88587">
        <ele>0.4</ele>
        <time>2017-10-27T08:09:39.447Z</time>
      </trkpt>
      <trkpt lat="43.50728" lon="3.88584">
        <ele>0.3</ele>
        <time>2017-10-27T08:09:40.434Z</time>
      </trkpt>
      <trkpt lat="43.50726" lon="3.8858">
        <ele>0.2</ele>
        <time>2017-10-27T08:09:41.459Z</time>
      </trkpt>
      <trkpt lat="43.50724" lon="3.88576">
        <ele>0.2</ele>
        <time>2017-10-27T08:09:42.455Z</time>
      </trkpt>
      <trkpt lat="43.50722" lon="3.88573">
        <ele>0.2</ele>
        <time>2017-10-27T08:09:43.447Z</time>
      </trkpt>
      <trkpt lat="43.5072" lon="3.88569">
        <ele>0.2</ele>
        <time>2017-10-27T08:09:44.447Z</time>
      </trkpt>
      <trkpt lat="43.50718" lon="3.88565">
        <ele>0.2</ele>
        <time>2017-10-27T08:09:45.437Z</time>
      </trkpt>
      <trkpt lat="43.50716" lon="3.88561">
        <ele>0.2</ele>
        <time>2017-10-27T08:09:46.431Z</time>
      </trkpt>
      <trkpt lat="43.50714" lon="3.88557">
        <ele>0.2</ele>
        <time>2017-10-27T08:09:47.434Z</time>
      </trkpt>
      <trkpt lat="43.50712" lon="3.88553">
        <ele>0.1</ele>
        <time>2017-10-27T08:09:48.435Z</time>
      </trkpt>
      <trkpt lat="43.5071" lon="3.88549">
        <time>2017-10-27T08:09:49.432Z</time>
      </trkpt>
      <trkpt lat="43.50708" lon="3.88545">
        <ele>0.1</ele>
        <time>2017-10-27T08:09:50.469Z</time>
      </trkpt>
      <trkpt lat="43.50706" lon="3.88542">
        <ele>0.1</ele>
        <time>2017-10-27T08:09:51.469Z</time>
      </trkpt>
      <trkpt lat="43.50704" lon="3.88538">
        <ele>0.1</ele>
        <time>2017-10-27T08:09:52.465Z</time>
      </trkpt>
      <trkpt lat="43.50702" lon="3.88534">
        <ele>0.1</ele>
        <time>2017-10-27T08:09:53.452Z</time>
      </trkpt>
      <trkpt lat="43.507" lon="3.8853">
        <ele>0.2</ele>
        <time>2017-10-27T08:09:54.447Z</time>
      </trkpt>
      <trkpt lat="43.50698" lon="3.88526">
        <ele>0.2</ele>
        <time>2017-10-27T08:09:55.449Z</time>
      </trkpt>
      <trkpt lat="43.50696" lon="3.88523">
        <ele>0.3</ele>
        <time>2017-10-27T08:09:56.448Z</time>
      </trkpt>
      <trkpt lat="43.50694" lon="3.88519">
        <ele>0.3</ele>
        <time>2017-10-27T08:09:57.432Z</time>
      </trkpt>
      <trkpt lat="43.50692" lon="3.88515">
        <ele>0.3</ele>
        <time>2017-10-27T08:09:58.446Z</time>
      </trkpt>
      <trkpt lat="43.5069" lon="3.88511">
        <ele>0.3</ele>
        <time>2017-10-27T08:09:59.452Z</time>
      </trkpt>
      <trkpt lat="43.50687" lon="3.88508">
        <ele>0.5</ele>
        <time>2017-10-27T08:10:00.451Z</time>
      </trkpt>
      <trkpt lat="43.50685" lon="3.88504">
        <ele>0.7</ele>
        <time>2017-10-27T08:10:01.450Z</time>
      </trkpt>
      <trkpt lat="43.50684" lon="3.885">
        <ele>0.7</ele>
        <time>2017-10-27T08:10:02.455Z</time>
      </trkpt>
      <trkpt lat="43.50682" lon="3.88497">
        <ele>0.6</ele>
        <time>2017-10-27T08:10:03.451Z</time>
      </trkpt>
      <trkpt lat="43.5068" lon="3.88493">
        <ele>0.5</ele>
        <time>2017-10-27T08:10:04.448Z</time>
      </trkpt>
      <trkpt lat="43.50678" lon="3.88489">
        <ele>0.7</ele>
        <time>2017-10-27T08:10:05.447Z</time>
      </trkpt>
      <trkpt lat="43.50676" lon="3.88486">
        <ele>0.5</ele>
        <time>2017-10-27T08:10:06.450Z</time>
      </trkpt>
      <trkpt lat="43.50674" lon="3.88482">
        <ele>0.5</ele>
        <time>2017-10-27T08:10:07.451Z</time>
      </trkpt>
      <trkpt lat="43.50672" lon="3.88479">
        <ele>0.5</ele>
        <time>2017-10-27T08:10:08.446Z</time>
      </trkpt>
      <trkpt lat="43.5067" lon="3.88475">
        <ele>0.6</ele>
        <time>2017-10-27T08:10:09.454Z</time>
      </trkpt>
      <trkpt lat="43.50668" lon="3.88472">
        <ele>0.6</ele>
        <time>2017-10-27T08:10:10.431Z</time>
      </trkpt>
      <trkpt lat="43.50666" lon="3.88469">
        <ele>0.6</ele>
        <time>2017-10-27T08:10:11.432Z</time>
      </trkpt>
      <trkpt lat="43.50664" lon="3.88466">
        <ele>0.7</ele>
        <time>2017-10-27T08:10:12.433Z</time>
      </trkpt>
      <trkpt lat="43.50663" lon="3.88463">
        <ele>0.7</ele>
        <time>2017-10-27T08:10:13.433Z</time>
      </trkpt>
      <trkpt lat="43.50661" lon="3.8846">
        <ele>0.6</ele>
        <time>2017-10-27T08:10:14.449Z</time>
      </trkpt>
      <trkpt lat="43.5066" lon="3.88457">
        <ele>0.5</ele>
        <time>2017-10-27T08:10:15.451Z</time>
      </trkpt>
      <trkpt lat="43.50658" lon="3.88454">
        <ele>0.4</ele>
        <time>2017-10-27T08:10:16.445Z</time>
      </trkpt>
      <trkpt lat="43.50656" lon="3.88452">
        <ele>0.3</ele>
        <time>2017-10-27T08:10:17.452Z</time>
      </trkpt>
      <trkpt lat="43.50654" lon="3.8845">
        <ele>1.2</ele>
        <time>2017-10-27T08:10:18.450Z</time>
      </trkpt>
      <trkpt lat="43.50652" lon="3.88449">
        <ele>-0.3</ele>
        <time>2017-10-27T08:10:19.447Z</time>
      </trkpt>
      <trkpt lat="43.5065" lon="3.88448">
        <ele>-0.3</ele>
        <time>2017-10-27T08:10:20.446Z</time>
      </trkpt>
      <trkpt lat="43.50648" lon="3.88448">
        <ele>-0.3</ele>
        <time>2017-10-27T08:10:21.447Z</time>
      </trkpt>
      <trkpt lat="43.50646" lon="3.8845">
        <ele>-0.3</ele>
        <time>2017-10-27T08:10:22.446Z</time>
      </trkpt>
      <trkpt lat="43.50644" lon="3.88451">
        <ele>-0.3</ele>
        <time>2017-10-27T08:10:23.447Z</time>
      </trkpt>
      <trkpt lat="43.50642" lon="3.88453">
        <ele>-0.2</ele>
        <time>2017-10-27T08:10:24.450Z</time>
      </trkpt>
      <trkpt lat="43.50641" lon="3.88455">
        <ele>-0.1</ele>
        <time>2017-10-27T08:10:25.446Z</time>
      </trkpt>
      <trkpt lat="43.50639" lon="3.88458">
        <ele>1.5</ele>
        <time>2017-10-27T08:10:26.454Z</time>
      </trkpt>
      <trkpt lat="43.50637" lon="3.8846">
        <ele>0.1</ele>
        <time>2017-10-27T08:10:27.447Z</time>
      </trkpt>
      <trkpt lat="43.50636" lon="3.88463">
        <ele>0.1</ele>
        <time>2017-10-27T08:10:28.450Z</time>
      </trkpt>
      <trkpt lat="43.50635" lon="3.88466">
        <ele>0.1</ele>
        <time>2017-10-27T08:10:29.446Z</time>
      </trkpt>
      <trkpt lat="43.50634" lon="3.88469">
        <ele>1.7</ele>
        <time>2017-10-27T08:10:30.448Z</time>
      </trkpt>
      <trkpt lat="43.50634" lon="3.88472">
        <ele>1.8</ele>
        <time>2017-10-27T08:10:31.447Z</time>
      </trkpt>
      <trkpt lat="43.50634" lon="3.88476">
        <ele>1.8</ele>
        <time>2017-10-27T08:10:32.454Z</time>
      </trkpt>
      <trkpt lat="43.50635" lon="3.88479">
        <ele>-0.1</ele>
        <time>2017-10-27T08:10:33.433Z</time>
      </trkpt>
      <trkpt lat="43.50636" lon="3.88481">
        <ele>-0.1</ele>
        <time>2017-10-27T08:10:34.432Z</time>
      </trkpt>
      <trkpt lat="43.50636" lon="3.88484">
        <ele>-0.2</ele>
        <time>2017-10-27T08:10:35.438Z</time>
      </trkpt>
      <trkpt lat="43.50636" lon="3.88486">
        <ele>-0.3</ele>
        <time>2017-10-27T08:10:36.448Z</time>
      </trkpt>
      <trkpt lat="43.50636" lon="3.88488">
        <ele>-0.4</ele>
        <time>2017-10-27T08:10:37.447Z</time>
      </trkpt>
      <trkpt lat="43.50636" lon="3.88488">
        <ele>-0.4</ele>
        <time>2017-10-27T08:19:33.290Z</time>
      </trkpt>
      <trkpt lat="43.5064" lon="3.88491">
        <ele>0.2</ele>
        <time>2017-10-27T08:19:50.435Z</time>
      </trkpt>
      <trkpt lat="43.50638" lon="3.88484">
        <ele>0.3</ele>
        <time>2017-10-27T08:19:56.435Z</time>
      </trkpt>
      <trkpt lat="43.50638" lon="3.88481">
        <ele>0.3</ele>
        <time>2017-10-27T08:19:58.433Z</time>
      </trkpt>
      <trkpt lat="43.50637" lon="3.88478">
        <ele>0.3</ele>
        <time>2017-10-27T08:20:00.435Z</time>
      </trkpt>
      <trkpt lat="43.50637" lon="3.88468">
        <ele>0.4</ele>
        <time>2017-10-27T08:20:16.440Z</time>
      </trkpt>
      <trkpt lat="43.50637" lon="3.88465">
        <ele>0.4</ele>
        <time>2017-10-27T08:20:18.456Z</time>
      </trkpt>
      <trkpt lat="43.50638" lon="3.88463">
        <ele>0.4</ele>
        <time>2017-10-27T08:20:19.450Z</time>
      </trkpt>
      <trkpt lat="43.50639" lon="3.88461">
        <ele>0.4</ele>
        <time>2017-10-27T08:20:20.453Z</time>
      </trkpt>
      <trkpt lat="43.5064" lon="3.88459">
        <ele>0.5</ele>
        <time>2017-10-27T08:20:21.451Z</time>
      </trkpt>
      <trkpt lat="43.50642" lon="3.88457">
        <ele>0.4</ele>
        <time>2017-10-27T08:20:22.449Z</time>
      </trkpt>
      <trkpt lat="43.50644" lon="3.88455">
        <ele>0.4</ele>
        <time>2017-10-27T08:20:23.449Z</time>
      </trkpt>
      <trkpt lat="43.50646" lon="3.88453">
        <ele>0.3</ele>
        <time>2017-10-27T08:20:24.444Z</time>
      </trkpt>
      <trkpt lat="43.50648" lon="3.88451">
        <ele>0.2</ele>
        <time>2017-10-27T08:20:25.434Z</time>
      </trkpt>
      <trkpt lat="43.5065" lon="3.88449">
        <ele>0.4</ele>
        <time>2017-10-27T08:20:26.438Z</time>
      </trkpt>
      <trkpt lat="43.50653" lon="3.88447">
        <ele>0.4</ele>
        <time>2017-10-27T08:20:27.432Z</time>
      </trkpt>
      <trkpt lat="43.50655" lon="3.88445">
        <ele>0.4</ele>
        <time>2017-10-27T08:20:28.448Z</time>
      </trkpt>
      <trkpt lat="43.50658" lon="3.88443">
        <ele>0.3</ele>
        <time>2017-10-27T08:20:29.451Z</time>
      </trkpt>
      <trkpt lat="43.5066" lon="3.88441">
        <ele>0.3</ele>
        <time>2017-10-27T08:20:30.439Z</time>
      </trkpt>
      <trkpt lat="43.50663" lon="3.88438">
        <ele>0.3</ele>
        <time>2017-10-27T08:20:31.454Z</time>
      </trkpt>
      <trkpt lat="43.50665" lon="3.88436">
        <ele>0.3</ele>
        <time>2017-10-27T08:20:32.452Z</time>
      </trkpt>
      <trkpt lat="43.50667" lon="3.88433">
        <ele>0.4</ele>
        <time>2017-10-27T08:20:33.451Z</time>
      </trkpt>
      <trkpt lat="43.50669" lon="3.88431">
        <ele>0.4</ele>
        <time>2017-10-27T08:20:34.449Z</time>
      </trkpt>
      <trkpt lat="43.50671" lon="3.88428">
        <ele>0.3</ele>
        <time>2017-10-27T08:20:35.450Z</time>
      </trkpt>
      <trkpt lat="43.50673" lon="3.88426">
        <ele>0.3</ele>
        <time>2017-10-27T08:20:36.438Z</time>
      </trkpt>
      <trkpt lat="43.50675" lon="3.88423">
        <ele>0.1</ele>
        <time>2017-10-27T08:20:37.450Z</time>
      </trkpt>
      <trkpt lat="43.50677" lon="3.8842">
        <ele>1</ele>
        <time>2017-10-27T08:20:38.452Z</time>
      </trkpt>
      <trkpt lat="43.50679" lon="3.88417">
        <ele>-0.1</ele>
        <time>2017-10-27T08:20:39.458Z</time>
      </trkpt>
      <trkpt lat="43.50681" lon="3.88414">
        <ele>-0.2</ele>
        <time>2017-10-27T08:20:40.438Z</time>
      </trkpt>
      <trkpt lat="43.50683" lon="3.8841">
        <ele>-0.2</ele>
        <time>2017-10-27T08:20:41.448Z</time>
      </trkpt>
      <trkpt lat="43.50685" lon="3.88407">
        <ele>-0.3</ele>
        <time>2017-10-27T08:20:42.443Z</time>
      </trkpt>
      <trkpt lat="43.50687" lon="3.88403">
        <ele>-0.3</ele>
        <time>2017-10-27T08:20:43.448Z</time>
      </trkpt>
      <trkpt lat="43.50689" lon="3.884">
        <ele>-0.4</ele>
        <time>2017-10-27T08:20:44.432Z</time>
      </trkpt>
      <trkpt lat="43.50691" lon="3.88396">
        <ele>-0.5</ele>
        <time>2017-10-27T08:20:45.441Z</time>
      </trkpt>
      <trkpt lat="43.50693" lon="3.88393">
        <ele>-0.5</ele>
        <time>2017-10-27T08:20:46.427Z</time>
      </trkpt>
      <trkpt lat="43.50696" lon="3.8839">
        <ele>-0.5</ele>
        <time>2017-10-27T08:20:47.434Z</time>
      </trkpt>
      <trkpt lat="43.50698" lon="3.88387">
        <ele>-0.3</ele>
        <time>2017-10-27T08:20:48.431Z</time>
      </trkpt>
      <trkpt lat="43.50701" lon="3.88384">
        <ele>-0.5</ele>
        <time>2017-10-27T08:20:49.441Z</time>
      </trkpt>
      <trkpt lat="43.50703" lon="3.88382">
        <ele>-0.3</ele>
        <time>2017-10-27T08:20:50.444Z</time>
      </trkpt>
      <trkpt lat="43.50706" lon="3.88379">
        <ele>-0.4</ele>
        <time>2017-10-27T08:20:51.445Z</time>
      </trkpt>
      <trkpt lat="43.50709" lon="3.88376">
        <ele>-0.5</ele>
        <time>2017-10-27T08:20:52.446Z</time>
      </trkpt>
      <trkpt lat="43.50711" lon="3.88373">
        <ele>-0.5</ele>
        <time>2017-10-27T08:20:53.447Z</time>
      </trkpt>
      <trkpt lat="43.50714" lon="3.88371">
        <ele>-0.5</ele>
        <time>2017-10-27T08:20:54.448Z</time>
      </trkpt>
      <trkpt lat="43.50717" lon="3.88368">
        <ele>-0.5</ele>
        <time>2017-10-27T08:20:55.448Z</time>
      </trkpt>
      <trkpt lat="43.50719" lon="3.88365">
        <ele>-0.5</ele>
        <time>2017-10-27T08:20:56.446Z</time>
      </trkpt>
      <trkpt lat="43.50722" lon="3.88362">
        <ele>-0.5</ele>
        <time>2017-10-27T08:20:57.446Z</time>
      </trkpt>
      <trkpt lat="43.50725" lon="3.88359">
        <ele>-0.5</ele>
        <time>2017-10-27T08:20:58.446Z</time>
      </trkpt>
      <trkpt lat="43.50727" lon="3.88357">
        <ele>-0.5</ele>
        <time>2017-10-27T08:20:59.450Z</time>
      </trkpt>
      <trkpt lat="43.5073" lon="3.88354">
        <ele>-0.5</ele>
        <time>2017-10-27T08:21:00.448Z</time>
      </trkpt>
      <trkpt lat="43.50733" lon="3.88352">
        <ele>-0.6</ele>
        <time>2017-10-27T08:21:01.447Z</time>
      </trkpt>
      <trkpt lat="43.50735" lon="3.88349">
        <ele>-0.6</ele>
        <time>2017-10-27T08:21:02.450Z</time>
      </trkpt>
      <trkpt lat="43.50738" lon="3.88347">
        <ele>-0.7</ele>
        <time>2017-10-27T08:21:03.432Z</time>
      </trkpt>
      <trkpt lat="43.50741" lon="3.88344">
        <ele>-0.7</ele>
        <time>2017-10-27T08:21:04.436Z</time>
      </trkpt>
      <trkpt lat="43.50743" lon="3.88342">
        <ele>-0.7</ele>
        <time>2017-10-27T08:21:05.437Z</time>
      </trkpt>
      <trkpt lat="43.50746" lon="3.8834">
        <ele>-0.7</ele>
        <time>2017-10-27T08:21:06.448Z</time>
      </trkpt>
      <trkpt lat="43.50748" lon="3.88337">
        <ele>-0.7</ele>
        <time>2017-10-27T08:21:07.472Z</time>
      </trkpt>
      <trkpt lat="43.50751" lon="3.88334">
        <ele>-0.6</ele>
        <time>2017-10-27T08:21:08.458Z</time>
      </trkpt>
      <trkpt lat="43.50753" lon="3.88332">
        <ele>-0.6</ele>
        <time>2017-10-27T08:21:09.447Z</time>
      </trkpt>
      <trkpt lat="43.50756" lon="3.88329">
        <ele>-0.7</ele>
        <time>2017-10-27T08:21:10.446Z</time>
      </trkpt>
      <trkpt lat="43.50758" lon="3.88327">
        <ele>-0.8</ele>
        <time>2017-10-27T08:21:11.448Z</time>
      </trkpt>
      <trkpt lat="43.50761" lon="3.88325">
        <ele>-0.9</ele>
        <time>2017-10-27T08:21:12.456Z</time>
      </trkpt>
      <trkpt lat="43.50764" lon="3.88323">
        <ele>-1</ele>
        <time>2017-10-27T08:21:13.448Z</time>
      </trkpt>
      <trkpt lat="43.50767" lon="3.88321">
        <ele>-1</ele>
        <time>2017-10-27T08:21:14.446Z</time>
      </trkpt>
      <trkpt lat="43.50769" lon="3.88319">
        <ele>-1.1</ele>
        <time>2017-10-27T08:21:15.433Z</time>
      </trkpt>
      <trkpt lat="43.50772" lon="3.88318">
        <ele>-1.1</ele>
        <time>2017-10-27T08:21:16.445Z</time>
      </trkpt>
      <trkpt lat="43.50775" lon="3.88316">
        <ele>-1.1</ele>
        <time>2017-10-27T08:21:17.447Z</time>
      </trkpt>
      <trkpt lat="43.50777" lon="3.88314">
        <ele>-1.1</ele>
        <time>2017-10-27T08:21:18.449Z</time>
      </trkpt>
      <trkpt lat="43.5078" lon="3.88313">
        <ele>-1.2</ele>
        <time>2017-10-27T08:21:19.448Z</time>
      </trkpt>
      <trkpt lat="43.50783" lon="3.88311">
        <ele>-1.3</ele>
        <time>2017-10-27T08:21:20.442Z</time>
      </trkpt>
      <trkpt lat="43.50786" lon="3.88309">
        <ele>-1.3</ele>
        <time>2017-10-27T08:21:21.448Z</time>
      </trkpt>
      <trkpt lat="43.50788" lon="3.88308">
        <ele>-1.2</ele>
        <time>2017-10-27T08:21:22.433Z</time>
      </trkpt>
      <trkpt lat="43.50791" lon="3.88306">
        <ele>-1.2</ele>
        <time>2017-10-27T08:21:23.435Z</time>
      </trkpt>
      <trkpt lat="43.50793" lon="3.88304">
        <ele>-1.2</ele>
        <time>2017-10-27T08:21:24.437Z</time>
      </trkpt>
      <trkpt lat="43.50796" lon="3.88302">
        <ele>-1.2</ele>
        <time>2017-10-27T08:21:25.437Z</time>
      </trkpt>
      <trkpt lat="43.50798" lon="3.88301">
        <ele>-1.2</ele>
        <time>2017-10-27T08:21:26.456Z</time>
      </trkpt>
      <trkpt lat="43.50801" lon="3.88299">
        <ele>-1.3</ele>
        <time>2017-10-27T08:21:27.455Z</time>
      </trkpt>
      <trkpt lat="43.50804" lon="3.88298">
        <ele>-1.4</ele>
        <time>2017-10-27T08:21:28.449Z</time>
      </trkpt>
      <trkpt lat="43.50806" lon="3.88296">
        <ele>-1.5</ele>
        <time>2017-10-27T08:21:29.451Z</time>
      </trkpt>
      <trkpt lat="43.50809" lon="3.88294">
        <ele>-1.5</ele>
        <time>2017-10-27T08:21:30.456Z</time>
      </trkpt>
      <trkpt lat="43.50812" lon="3.88293">
        <ele>-1.4</ele>
        <time>2017-10-27T08:21:31.447Z</time>
      </trkpt>
      <trkpt lat="43.50815" lon="3.88291">
        <ele>-1.5</ele>
        <time>2017-10-27T08:21:32.447Z</time>
      </trkpt>
      <trkpt lat="43.50818" lon="3.88289">
        <ele>-1.4</ele>
        <time>2017-10-27T08:21:33.447Z</time>
      </trkpt>
      <trkpt lat="43.5082" lon="3.88288">
        <ele>-1.6</ele>
        <time>2017-10-27T08:21:34.446Z</time>
      </trkpt>
      <trkpt lat="43.50823" lon="3.88286">
        <ele>-1.6</ele>
        <time>2017-10-27T08:21:35.447Z</time>
      </trkpt>
      <trkpt lat="43.50826" lon="3.88284">
        <ele>-1.8</ele>
        <time>2017-10-27T08:21:36.448Z</time>
      </trkpt>
      <trkpt lat="43.50829" lon="3.88283">
        <ele>-1.8</ele>
        <time>2017-10-27T08:21:37.449Z</time>
      </trkpt>
      <trkpt lat="43.50832" lon="3.88281">
        <ele>-1.8</ele>
        <time>2017-10-27T08:21:38.447Z</time>
      </trkpt>
      <trkpt lat="43.50835" lon="3.8828">
        <ele>-1.9</ele>
        <time>2017-10-27T08:21:39.433Z</time>
      </trkpt>
      <trkpt lat="43.50838" lon="3.88278">
        <ele>-2</ele>
        <time>2017-10-27T08:21:40.432Z</time>
      </trkpt>
      <trkpt lat="43.50841" lon="3.88277">
        <ele>-2</ele>
        <time>2017-10-27T08:21:41.433Z</time>
      </trkpt>
      <trkpt lat="43.50844" lon="3.88276">
        <ele>-2.1</ele>
        <time>2017-10-27T08:21:42.435Z</time>
      </trkpt>
      <trkpt lat="43.50848" lon="3.88275">
        <ele>-2</ele>
        <time>2017-10-27T08:21:43.458Z</time>
      </trkpt>
      <trkpt lat="43.50851" lon="3.88273">
        <ele>-2</ele>
        <time>2017-10-27T08:21:44.452Z</time>
      </trkpt>
      <trkpt lat="43.50854" lon="3.88272">
        <ele>-2</ele>
        <time>2017-10-27T08:21:45.447Z</time>
      </trkpt>
      <trkpt lat="43.50857" lon="3.88271">
        <ele>-2.1</ele>
        <time>2017-10-27T08:21:46.447Z</time>
      </trkpt>
      <trkpt lat="43.5086" lon="3.8827">
        <ele>-2.2</ele>
        <time>2017-10-27T08:21:47.447Z</time>
      </trkpt>
      <trkpt lat="43.50863" lon="3.8827">
        <ele>-2.4</ele>
        <time>2017-10-27T08:21:48.457Z</time>
      </trkpt>
      <trkpt lat="43.50867" lon="3.88269">
        <ele>-2.5</ele>
        <time>2017-10-27T08:21:49.437Z</time>
      </trkpt>
      <trkpt lat="43.5087" lon="3.88269">
        <ele>-2.5</ele>
        <time>2017-10-27T08:21:50.453Z</time>
      </trkpt>
      <trkpt lat="43.50873" lon="3.88269">
        <ele>-2.5</ele>
        <time>2017-10-27T08:21:51.451Z</time>
      </trkpt>
      <trkpt lat="43.50876" lon="3.8827">
        <ele>-2.4</ele>
        <time>2017-10-27T08:21:52.450Z</time>
      </trkpt>
      <trkpt lat="43.50879" lon="3.8827">
        <ele>-2.4</ele>
        <time>2017-10-27T08:21:53.448Z</time>
      </trkpt>
      <trkpt lat="43.50883" lon="3.8827">
        <ele>-2.2</ele>
        <time>2017-10-27T08:21:54.448Z</time>
      </trkpt>
      <trkpt lat="43.50886" lon="3.8827">
        <ele>-2.2</ele>
        <time>2017-10-27T08:21:55.447Z</time>
      </trkpt>
      <trkpt lat="43.50889" lon="3.88271">
        <ele>-2.2</ele>
        <time>2017-10-27T08:21:56.448Z</time>
      </trkpt>
      <trkpt lat="43.50892" lon="3.88271">
        <ele>-2.2</ele>
        <time>2017-10-27T08:21:57.449Z</time>
      </trkpt>
      <trkpt lat="43.50895" lon="3.88272">
        <ele>-2.2</ele>
        <time>2017-10-27T08:21:58.436Z</time>
      </trkpt>
      <trkpt lat="43.50898" lon="3.88272">
        <ele>-2.4</ele>
        <time>2017-10-27T08:21:59.435Z</time>
      </trkpt>
      <trkpt lat="43.50901" lon="3.88273">
        <ele>-2.6</ele>
        <time>2017-10-27T08:22:00.436Z</time>
      </trkpt>
      <trkpt lat="43.50905" lon="3.88273">
        <ele>-2.7</ele>
        <time>2017-10-27T08:22:01.432Z</time>
      </trkpt>
      <trkpt lat="43.50908" lon="3.88274">
        <ele>-2.8</ele>
        <time>2017-10-27T08:22:02.436Z</time>
      </trkpt>
      <trkpt lat="43.50911" lon="3.88274">
        <ele>-3</ele>
        <time>2017-10-27T08:22:03.448Z</time>
      </trkpt>
      <trkpt lat="43.50914" lon="3.88275">
        <ele>-3.1</ele>
        <time>2017-10-27T08:22:04.454Z</time>
      </trkpt>
      <trkpt lat="43.50918" lon="3.88275">
        <ele>-3.2</ele>
        <time>2017-10-27T08:22:05.471Z</time>
      </trkpt>
      <trkpt lat="43.50921" lon="3.88276">
        <ele>-3.2</ele>
        <time>2017-10-27T08:22:06.449Z</time>
      </trkpt>
      <trkpt lat="43.50924" lon="3.88276">
        <ele>-3.2</ele>
        <time>2017-10-27T08:22:07.441Z</time>
      </trkpt>
      <trkpt lat="43.50928" lon="3.88277">
        <ele>-3.2</ele>
        <time>2017-10-27T08:22:08.432Z</time>
      </trkpt>
      <trkpt lat="43.50931" lon="3.88277">
        <ele>-3.2</ele>
        <time>2017-10-27T08:22:09.445Z</time>
      </trkpt>
      <trkpt lat="43.50934" lon="3.88278">
        <ele>-3.2</ele>
        <time>2017-10-27T08:22:10.461Z</time>
      </trkpt>
      <trkpt lat="43.50938" lon="3.88278">
        <ele>-3.3</ele>
        <time>2017-10-27T08:22:11.453Z</time>
      </trkpt>
      <trkpt lat="43.50941" lon="3.88279">
        <ele>-3.4</ele>
        <time>2017-10-27T08:22:12.451Z</time>
      </trkpt>
      <trkpt lat="43.50945" lon="3.8828">
        <ele>-3.5</ele>
        <time>2017-10-27T08:22:13.448Z</time>
      </trkpt>
      <trkpt lat="43.50948" lon="3.8828">
        <ele>-3.7</ele>
        <time>2017-10-27T08:22:14.448Z</time>
      </trkpt>
      <trkpt lat="43.50952" lon="3.8828">
        <ele>-3.8</ele>
        <time>2017-10-27T08:22:15.449Z</time>
      </trkpt>
      <trkpt lat="43.50955" lon="3.88281">
        <ele>-3.9</ele>
        <time>2017-10-27T08:22:16.446Z</time>
      </trkpt>
      <trkpt lat="43.50958" lon="3.88281">
        <ele>-4</ele>
        <time>2017-10-27T08:22:17.446Z</time>
      </trkpt>
      <trkpt lat="43.50962" lon="3.88282">
        <ele>-4.1</ele>
        <time>2017-10-27T08:22:18.454Z</time>
      </trkpt>
      <trkpt lat="43.50965" lon="3.88283">
        <ele>-4.1</ele>
        <time>2017-10-27T08:22:19.435Z</time>
      </trkpt>
      <trkpt lat="43.50969" lon="3.88284">
        <ele>-4.1</ele>
        <time>2017-10-27T08:22:20.450Z</time>
      </trkpt>
      <trkpt lat="43.50972" lon="3.88284">
        <ele>-4.1</ele>
        <time>2017-10-27T08:22:21.449Z</time>
      </trkpt>
      <trkpt lat="43.50976" lon="3.88285">
        <ele>-4.1</ele>
        <time>2017-10-27T08:22:22.446Z</time>
      </trkpt>
      <trkpt lat="43.50979" lon="3.88285">
        <ele>-4.1</ele>
        <time>2017-10-27T08:22:23.450Z</time>
      </trkpt>
      <trkpt lat="43.50983" lon="3.88286">
        <ele>-4</ele>
        <time>2017-10-27T08:22:24.437Z</time>
      </trkpt>
      <trkpt lat="43.50986" lon="3.88286">
        <ele>-3.9</ele>
        <time>2017-10-27T08:22:25.432Z</time>
      </trkpt>
      <trkpt lat="43.5099" lon="3.88287">
        <ele>-3.8</ele>
        <time>2017-10-27T08:22:26.437Z</time>
      </trkpt>
      <trkpt lat="43.50993" lon="3.88288">
        <ele>-3.7</ele>
        <time>2017-10-27T08:22:27.440Z</time>
      </trkpt>
      <trkpt lat="43.50997" lon="3.88288">
        <ele>-3.6</ele>
        <time>2017-10-27T08:22:28.448Z</time>
      </trkpt>
      <trkpt lat="43.51" lon="3.88289">
        <ele>-3.6</ele>
        <time>2017-10-27T08:22:29.445Z</time>
      </trkpt>
      <trkpt lat="43.51004" lon="3.88289">
        <ele>-3.6</ele>
        <time>2017-10-27T08:22:30.442Z</time>
      </trkpt>
      <trkpt lat="43.51007" lon="3.8829">
        <ele>-3.6</ele>
        <time>2017-10-27T08:22:31.448Z</time>
      </trkpt>
      <trkpt lat="43.51011" lon="3.88291">
        <ele>-3.7</ele>
        <time>2017-10-27T08:22:32.432Z</time>
      </trkpt>
      <trkpt lat="43.51014" lon="3.88291">
        <ele>-3.8</ele>
        <time>2017-10-27T08:22:33.439Z</time>
      </trkpt>
      <trkpt lat="43.51018" lon="3.88292">
        <ele>-3.9</ele>
        <time>2017-10-27T08:22:34.442Z</time>
      </trkpt>
      <trkpt lat="43.51021" lon="3.88292">
        <ele>-4</ele>
        <time>2017-10-27T08:22:35.445Z</time>
      </trkpt>
      <trkpt lat="43.51025" lon="3.88293">
        <ele>-4.1</ele>
        <time>2017-10-27T08:22:36.444Z</time>
      </trkpt>
      <trkpt lat="43.51028" lon="3.88293">
        <ele>-4.3</ele>
        <time>2017-10-27T08:22:37.454Z</time>
      </trkpt>
      <trkpt lat="43.51032" lon="3.88294">
        <ele>-4.4</ele>
        <time>2017-10-27T08:22:38.450Z</time>
      </trkpt>
      <trkpt lat="43.51035" lon="3.88294">
        <ele>-4.6</ele>
        <time>2017-10-27T08:22:39.472Z</time>
      </trkpt>
      <trkpt lat="43.51039" lon="3.88294">
        <ele>-4.6</ele>
        <time>2017-10-27T08:22:40.446Z</time>
      </trkpt>
      <trkpt lat="43.51042" lon="3.88295">
        <ele>-4.7</ele>
        <time>2017-10-27T08:22:41.450Z</time>
      </trkpt>
      <trkpt lat="43.51045" lon="3.88296">
        <ele>-4.6</ele>
        <time>2017-10-27T08:22:42.448Z</time>
      </trkpt>
      <trkpt lat="43.51049" lon="3.88296">
        <ele>-4.6</ele>
        <time>2017-10-27T08:22:43.446Z</time>
      </trkpt>
      <trkpt lat="43.51052" lon="3.88297">
        <ele>-4.6</ele>
        <time>2017-10-27T08:22:44.447Z</time>
      </trkpt>
      <trkpt lat="43.51056" lon="3.88297">
        <ele>-4.6</ele>
        <time>2017-10-27T08:22:45.432Z</time>
      </trkpt>
      <trkpt lat="43.51059" lon="3.88298">
        <ele>-4.6</ele>
        <time>2017-10-27T08:22:46.432Z</time>
      </trkpt>
      <trkpt lat="43.51063" lon="3.88298">
        <ele>-4.6</ele>
        <time>2017-10-27T08:22:47.436Z</time>
      </trkpt>
      <trkpt lat="43.51066" lon="3.88299">
        <ele>-4.6</ele>
        <time>2017-10-27T08:22:48.458Z</time>
      </trkpt>
      <trkpt lat="43.51069" lon="3.88299">
        <ele>-4.4</ele>
        <time>2017-10-27T08:22:49.450Z</time>
      </trkpt>
      <trkpt lat="43.51073" lon="3.88299">
        <ele>-4.5</ele>
        <time>2017-10-27T08:22:50.450Z</time>
      </trkpt>
      <trkpt lat="43.51076" lon="3.88298">
        <ele>-4.5</ele>
        <time>2017-10-27T08:22:51.449Z</time>
      </trkpt>
      <trkpt lat="43.51079" lon="3.88297">
        <ele>-4.4</ele>
        <time>2017-10-27T08:22:52.451Z</time>
      </trkpt>
      <trkpt lat="43.51082" lon="3.88296">
        <ele>-4.2</ele>
        <time>2017-10-27T08:22:53.450Z</time>
      </trkpt>
      <trkpt lat="43.51085" lon="3.88294">
        <ele>-4.1</ele>
        <time>2017-10-27T08:22:54.455Z</time>
      </trkpt>
      <trkpt lat="43.51087" lon="3.88291">
        <ele>-4</ele>
        <time>2017-10-27T08:22:55.454Z</time>
      </trkpt>
      <trkpt lat="43.51089" lon="3.88288">
        <ele>-4</ele>
        <time>2017-10-27T08:22:56.437Z</time>
      </trkpt>
      <trkpt lat="43.51091" lon="3.88285">
        <ele>-4.1</ele>
        <time>2017-10-27T08:22:57.436Z</time>
      </trkpt>
      <trkpt lat="43.51094" lon="3.88282">
        <ele>-4</ele>
        <time>2017-10-27T08:22:58.456Z</time>
      </trkpt>
      <trkpt lat="43.51096" lon="3.88279">
        <ele>-4</ele>
        <time>2017-10-27T08:22:59.450Z</time>
      </trkpt>
      <trkpt lat="43.51098" lon="3.88276">
        <ele>-4</ele>
        <time>2017-10-27T08:23:00.451Z</time>
      </trkpt>
      <trkpt lat="43.511" lon="3.88273">
        <ele>-3.9</ele>
        <time>2017-10-27T08:23:01.458Z</time>
      </trkpt>
      <trkpt lat="43.51102" lon="3.8827">
        <ele>-3.8</ele>
        <time>2017-10-27T08:23:02.435Z</time>
      </trkpt>
      <trkpt lat="43.51104" lon="3.88266">
        <ele>-3.7</ele>
        <time>2017-10-27T08:23:03.435Z</time>
      </trkpt>
      <trkpt lat="43.51106" lon="3.88263">
        <ele>-3.6</ele>
        <time>2017-10-27T08:23:04.440Z</time>
      </trkpt>
      <trkpt lat="43.51108" lon="3.8826">
        <ele>-3.7</ele>
        <time>2017-10-27T08:23:05.439Z</time>
      </trkpt>
      <trkpt lat="43.51111" lon="3.88257">
        <ele>-3.7</ele>
        <time>2017-10-27T08:23:06.454Z</time>
      </trkpt>
      <trkpt lat="43.51113" lon="3.88254">
        <ele>-3.9</ele>
        <time>2017-10-27T08:23:07.448Z</time>
      </trkpt>
      <trkpt lat="43.51116" lon="3.88251">
        <ele>-4.2</ele>
        <time>2017-10-27T08:23:08.438Z</time>
      </trkpt>
      <trkpt lat="43.51118" lon="3.88248">
        <ele>-4.5</ele>
        <time>2017-10-27T08:23:09.447Z</time>
      </trkpt>
      <trkpt lat="43.5112" lon="3.88244">
        <ele>-4.6</ele>
        <time>2017-10-27T08:23:10.463Z</time>
      </trkpt>
      <trkpt lat="43.51122" lon="3.88241">
        <ele>-4.7</ele>
        <time>2017-10-27T08:23:11.451Z</time>
      </trkpt>
      <trkpt lat="43.51125" lon="3.88238">
        <ele>-5</ele>
        <time>2017-10-27T08:23:12.472Z</time>
      </trkpt>
      <trkpt lat="43.51127" lon="3.88235">
        <ele>-4.9</ele>
        <time>2017-10-27T08:23:13.456Z</time>
      </trkpt>
      <trkpt lat="43.51129" lon="3.88232">
        <ele>-5</ele>
        <time>2017-10-27T08:23:14.471Z</time>
      </trkpt>
      <trkpt lat="43.51131" lon="3.88229">
        <ele>-4.9</ele>
        <time>2017-10-27T08:23:15.451Z</time>
      </trkpt>
      <trkpt lat="43.51133" lon="3.88225">
        <ele>-4.8</ele>
        <time>2017-10-27T08:23:16.452Z</time>
      </trkpt>
      <trkpt lat="43.51135" lon="3.88222">
        <ele>-4.7</ele>
        <time>2017-10-27T08:23:17.450Z</time>
      </trkpt>
      <trkpt lat="43.51137" lon="3.88219">
        <ele>-4.6</ele>
        <time>2017-10-27T08:23:18.452Z</time>
      </trkpt>
      <trkpt lat="43.51139" lon="3.88216">
        <ele>-4.5</ele>
        <time>2017-10-27T08:23:19.449Z</time>
      </trkpt>
      <trkpt lat="43.51141" lon="3.88213">
        <ele>-4.3</ele>
        <time>2017-10-27T08:23:20.449Z</time>
      </trkpt>
      <trkpt lat="43.51143" lon="3.8821">
        <ele>-4.2</ele>
        <time>2017-10-27T08:23:21.449Z</time>
      </trkpt>
      <trkpt lat="43.51145" lon="3.88207">
        <ele>-4.1</ele>
        <time>2017-10-27T08:23:22.448Z</time>
      </trkpt>
      <trkpt lat="43.51147" lon="3.88205">
        <ele>-3.9</ele>
        <time>2017-10-27T08:23:23.436Z</time>
      </trkpt>
      <trkpt lat="43.51149" lon="3.88202">
        <ele>-3.8</ele>
        <time>2017-10-27T08:23:24.437Z</time>
      </trkpt>
      <trkpt lat="43.51151" lon="3.88199">
        <ele>-3.6</ele>
        <time>2017-10-27T08:23:25.435Z</time>
      </trkpt>
      <trkpt lat="43.51153" lon="3.88196">
        <ele>-3.5</ele>
        <time>2017-10-27T08:23:26.436Z</time>
      </trkpt>
      <trkpt lat="43.51155" lon="3.88194">
        <ele>-3.3</ele>
        <time>2017-10-27T08:23:27.464Z</time>
      </trkpt>
      <trkpt lat="43.51157" lon="3.88191">
        <ele>-3.1</ele>
        <time>2017-10-27T08:23:28.453Z</time>
      </trkpt>
      <trkpt lat="43.51159" lon="3.88187">
        <ele>-2.9</ele>
        <time>2017-10-27T08:23:29.465Z</time>
      </trkpt>
      <trkpt lat="43.51162" lon="3.88184">
        <ele>-3</ele>
        <time>2017-10-27T08:23:30.452Z</time>
      </trkpt>
      <trkpt lat="43.51164" lon="3.88181">
        <ele>-3.1</ele>
        <time>2017-10-27T08:23:31.449Z</time>
      </trkpt>
      <trkpt lat="43.51166" lon="3.88178">
        <ele>-3.2</ele>
        <time>2017-10-27T08:23:32.454Z</time>
      </trkpt>
      <trkpt lat="43.51168" lon="3.88174">
        <ele>-3.3</ele>
        <time>2017-10-27T08:23:33.449Z</time>
      </trkpt>
      <trkpt lat="43.5117" lon="3.88171">
        <ele>-3.3</ele>
        <time>2017-10-27T08:23:34.448Z</time>
      </trkpt>
      <trkpt lat="43.51172" lon="3.88168">
        <ele>-3.3</ele>
        <time>2017-10-27T08:23:35.437Z</time>
      </trkpt>
      <trkpt lat="43.51173" lon="3.88165">
        <ele>-3.4</ele>
        <time>2017-10-27T08:23:36.454Z</time>
      </trkpt>
      <trkpt lat="43.51175" lon="3.88161">
        <ele>-3.4</ele>
        <time>2017-10-27T08:23:37.454Z</time>
      </trkpt>
      <trkpt lat="43.51177" lon="3.88158">
        <ele>-3.4</ele>
        <time>2017-10-27T08:23:38.451Z</time>
      </trkpt>
      <trkpt lat="43.51178" lon="3.88154">
        <ele>-3.2</ele>
        <time>2017-10-27T08:23:39.449Z</time>
      </trkpt>
      <trkpt lat="43.51179" lon="3.88151">
        <ele>-3.1</ele>
        <time>2017-10-27T08:23:40.448Z</time>
      </trkpt>
      <trkpt lat="43.51181" lon="3.88148">
        <ele>-3</ele>
        <time>2017-10-27T08:23:41.449Z</time>
      </trkpt>
      <trkpt lat="43.51182" lon="3.88144">
        <ele>-2.9</ele>
        <time>2017-10-27T08:23:42.450Z</time>
      </trkpt>
      <trkpt lat="43.51184" lon="3.88141">
        <ele>-3</ele>
        <time>2017-10-27T08:23:43.435Z</time>
      </trkpt>
      <trkpt lat="43.51185" lon="3.88138">
        <ele>-2.8</ele>
        <time>2017-10-27T08:23:44.435Z</time>
      </trkpt>
      <trkpt lat="43.51187" lon="3.88135">
        <ele>-2.7</ele>
        <time>2017-10-27T08:23:45.444Z</time>
      </trkpt>
      <trkpt lat="43.51188" lon="3.88132">
        <ele>-2.5</ele>
        <time>2017-10-27T08:23:46.454Z</time>
      </trkpt>
      <trkpt lat="43.5119" lon="3.88128">
        <ele>-2.5</ele>
        <time>2017-10-27T08:23:47.450Z</time>
      </trkpt>
      <trkpt lat="43.51191" lon="3.88125">
        <ele>-2.5</ele>
        <time>2017-10-27T08:23:48.455Z</time>
      </trkpt>
      <trkpt lat="43.51193" lon="3.88121">
        <ele>-2.3</ele>
        <time>2017-10-27T08:23:49.452Z</time>
      </trkpt>
      <trkpt lat="43.51194" lon="3.88118">
        <ele>-2.3</ele>
        <time>2017-10-27T08:23:50.446Z</time>
      </trkpt>
      <trkpt lat="43.51196" lon="3.88114">
        <ele>-2.4</ele>
        <time>2017-10-27T08:23:51.446Z</time>
      </trkpt>
      <trkpt lat="43.51198" lon="3.88111">
        <ele>-2.4</ele>
        <time>2017-10-27T08:23:52.446Z</time>
      </trkpt>
      <trkpt lat="43.51199" lon="3.88107">
        <ele>-2.4</ele>
        <time>2017-10-27T08:23:53.446Z</time>
      </trkpt>
      <trkpt lat="43.51201" lon="3.88104">
        <ele>-2.3</ele>
        <time>2017-10-27T08:23:54.433Z</time>
      </trkpt>
      <trkpt lat="43.51203" lon="3.881">
        <ele>-2.1</ele>
        <time>2017-10-27T08:23:55.433Z</time>
      </trkpt>
      <trkpt lat="43.51205" lon="3.88097">
        <ele>-1.9</ele>
        <time>2017-10-27T08:23:56.440Z</time>
      </trkpt>
      <trkpt lat="43.51207" lon="3.88093">
        <ele>-1.8</ele>
        <time>2017-10-27T08:23:57.435Z</time>
      </trkpt>
      <trkpt lat="43.51209" lon="3.8809">
        <ele>-1.6</ele>
        <time>2017-10-27T08:23:58.456Z</time>
      </trkpt>
      <trkpt lat="43.51211" lon="3.88087">
        <ele>-1.5</ele>
        <time>2017-10-27T08:23:59.471Z</time>
      </trkpt>
      <trkpt lat="43.51213" lon="3.88084">
        <ele>-1.4</ele>
        <time>2017-10-27T08:24:00.449Z</time>
      </trkpt>
      <trkpt lat="43.51215" lon="3.88081">
        <ele>-1.5</ele>
        <time>2017-10-27T08:24:01.447Z</time>
      </trkpt>
      <trkpt lat="43.51217" lon="3.88079">
        <ele>-1.4</ele>
        <time>2017-10-27T08:24:02.449Z</time>
      </trkpt>
      <trkpt lat="43.51219" lon="3.88076">
        <ele>-1.5</ele>
        <time>2017-10-27T08:24:03.438Z</time>
      </trkpt>
      <trkpt lat="43.51222" lon="3.88073">
        <ele>-1.6</ele>
        <time>2017-10-27T08:24:04.434Z</time>
      </trkpt>
      <trkpt lat="43.51224" lon="3.8807">
        <ele>-1.5</ele>
        <time>2017-10-27T08:24:05.434Z</time>
      </trkpt>
      <trkpt lat="43.51227" lon="3.88067">
        <ele>-1.3</ele>
        <time>2017-10-27T08:24:06.459Z</time>
      </trkpt>
      <trkpt lat="43.51229" lon="3.88065">
        <ele>-1.3</ele>
        <time>2017-10-27T08:24:07.448Z</time>
      </trkpt>
      <trkpt lat="43.51232" lon="3.88062">
        <ele>-1.3</ele>
        <time>2017-10-27T08:24:08.454Z</time>
      </trkpt>
      <trkpt lat="43.51235" lon="3.8806">
        <ele>-1.2</ele>
        <time>2017-10-27T08:24:09.433Z</time>
      </trkpt>
      <trkpt lat="43.51237" lon="3.88057">
        <ele>-1.1</ele>
        <time>2017-10-27T08:24:10.447Z</time>
      </trkpt>
      <trkpt lat="43.5124" lon="3.88055">
        <ele>-1.1</ele>
        <time>2017-10-27T08:24:11.452Z</time>
      </trkpt>
      <trkpt lat="43.51243" lon="3.88053">
        <ele>-1.1</ele>
        <time>2017-10-27T08:24:12.452Z</time>
      </trkpt>
      <trkpt lat="43.51246" lon="3.88051">
        <ele>-1.2</ele>
        <time>2017-10-27T08:24:13.455Z</time>
      </trkpt>
      <trkpt lat="43.51249" lon="3.88049">
        <ele>-1.2</ele>
        <time>2017-10-27T08:24:14.454Z</time>
      </trkpt>
      <trkpt lat="43.51252" lon="3.88047">
        <ele>-1.2</ele>
        <time>2017-10-27T08:24:15.451Z</time>
      </trkpt>
      <trkpt lat="43.51255" lon="3.88044">
        <ele>-1.2</ele>
        <time>2017-10-27T08:24:16.444Z</time>
      </trkpt>
      <trkpt lat="43.51258" lon="3.88042">
        <ele>-1.3</ele>
        <time>2017-10-27T08:24:17.447Z</time>
      </trkpt>
      <trkpt lat="43.51261" lon="3.88039">
        <ele>-1.2</ele>
        <time>2017-10-27T08:24:18.448Z</time>
      </trkpt>
      <trkpt lat="43.51263" lon="3.88037">
        <ele>-1.3</ele>
        <time>2017-10-27T08:24:19.447Z</time>
      </trkpt>
      <trkpt lat="43.51266" lon="3.88034">
        <ele>-1.1</ele>
        <time>2017-10-27T08:24:20.455Z</time>
      </trkpt>
      <trkpt lat="43.51269" lon="3.88032">
        <ele>-1</ele>
        <time>2017-10-27T08:24:21.434Z</time>
      </trkpt>
      <trkpt lat="43.51272" lon="3.88029">
        <ele>-1.1</ele>
        <time>2017-10-27T08:24:22.433Z</time>
      </trkpt>
      <trkpt lat="43.51275" lon="3.88027">
        <ele>-1.1</ele>
        <time>2017-10-27T08:24:23.437Z</time>
      </trkpt>
      <trkpt lat="43.51278" lon="3.88025">
        <ele>-1.1</ele>
        <time>2017-10-27T08:24:24.436Z</time>
      </trkpt>
      <trkpt lat="43.51281" lon="3.88023">
        <ele>-1.1</ele>
        <time>2017-10-27T08:24:25.433Z</time>
      </trkpt>
      <trkpt lat="43.51284" lon="3.88021">
        <ele>-1.6</ele>
        <time>2017-10-27T08:24:26.449Z</time>
      </trkpt>
      <trkpt lat="43.51287" lon="3.88018">
        <ele>-1.3</ele>
        <time>2017-10-27T08:24:27.448Z</time>
      </trkpt>
      <trkpt lat="43.5129" lon="3.88016">
        <ele>-1.2</ele>
        <time>2017-10-27T08:24:28.454Z</time>
      </trkpt>
      <trkpt lat="43.51293" lon="3.88014">
        <ele>-1.2</ele>
        <time>2017-10-27T08:24:29.448Z</time>
      </trkpt>
      <trkpt lat="43.51297" lon="3.88012">
        <ele>-1.2</ele>
        <time>2017-10-27T08:24:30.450Z</time>
      </trkpt>
      <trkpt lat="43.513" lon="3.8801">
        <ele>-1.3</ele>
        <time>2017-10-27T08:24:31.450Z</time>
      </trkpt>
      <trkpt lat="43.51303" lon="3.88008">
        <ele>-1.4</ele>
        <time>2017-10-27T08:24:32.441Z</time>
      </trkpt>
      <trkpt lat="43.51306" lon="3.88006">
        <ele>-1.6</ele>
        <time>2017-10-27T08:24:33.433Z</time>
      </trkpt>
      <trkpt lat="43.51309" lon="3.88004">
        <ele>-1.9</ele>
        <time>2017-10-27T08:24:34.446Z</time>
      </trkpt>
      <trkpt lat="43.51312" lon="3.88002">
        <ele>-1.8</ele>
        <time>2017-10-27T08:24:35.436Z</time>
      </trkpt>
      <trkpt lat="43.51315" lon="3.88">
        <ele>-1.7</ele>
        <time>2017-10-27T08:24:36.435Z</time>
      </trkpt>
      <trkpt lat="43.51318" lon="3.87998">
        <ele>-1.9</ele>
        <time>2017-10-27T08:24:37.439Z</time>
      </trkpt>
      <trkpt lat="43.51321" lon="3.87996">
        <ele>-1.8</ele>
        <time>2017-10-27T08:24:38.447Z</time>
      </trkpt>
      <trkpt lat="43.51323" lon="3.87994">
        <ele>-2</ele>
        <time>2017-10-27T08:24:39.444Z</time>
      </trkpt>
      <trkpt lat="43.51326" lon="3.87993">
        <ele>-2.1</ele>
        <time>2017-10-27T08:24:40.438Z</time>
      </trkpt>
      <trkpt lat="43.51329" lon="3.87991">
        <ele>-2.1</ele>
        <time>2017-10-27T08:24:41.447Z</time>
      </trkpt>
      <trkpt lat="43.51332" lon="3.87989">
        <ele>-2.1</ele>
        <time>2017-10-27T08:24:42.463Z</time>
      </trkpt>
      <trkpt lat="43.51335" lon="3.87988">
        <ele>-2.1</ele>
        <time>2017-10-27T08:24:43.468Z</time>
      </trkpt>
      <trkpt lat="43.51338" lon="3.87987">
        <ele>-2.4</ele>
        <time>2017-10-27T08:24:44.454Z</time>
      </trkpt>
      <trkpt lat="43.51341" lon="3.87986">
        <ele>-2.6</ele>
        <time>2017-10-27T08:24:45.446Z</time>
      </trkpt>
      <trkpt lat="43.51344" lon="3.87985">
        <ele>-2.9</ele>
        <time>2017-10-27T08:24:46.435Z</time>
      </trkpt>
      <trkpt lat="43.51347" lon="3.87985">
        <ele>-3</ele>
        <time>2017-10-27T08:24:47.434Z</time>
      </trkpt>
      <trkpt lat="43.51351" lon="3.87984">
        <ele>-3</ele>
        <time>2017-10-27T08:24:48.444Z</time>
      </trkpt>
      <trkpt lat="43.51354" lon="3.87984">
        <ele>-3</ele>
        <time>2017-10-27T08:24:49.450Z</time>
      </trkpt>
      <trkpt lat="43.51357" lon="3.87984">
        <ele>-3.1</ele>
        <time>2017-10-27T08:24:50.453Z</time>
      </trkpt>
      <trkpt lat="43.5136" lon="3.87984">
        <ele>-3.1</ele>
        <time>2017-10-27T08:24:51.449Z</time>
      </trkpt>
      <trkpt lat="43.51364" lon="3.87985">
        <ele>-3.2</ele>
        <time>2017-10-27T08:24:52.448Z</time>
      </trkpt>
      <trkpt lat="43.51367" lon="3.87986">
        <ele>-3.3</ele>
        <time>2017-10-27T08:24:53.447Z</time>
      </trkpt>
      <trkpt lat="43.51371" lon="3.87986">
        <ele>-3.4</ele>
        <time>2017-10-27T08:24:54.447Z</time>
      </trkpt>
      <trkpt lat="43.51374" lon="3.87987">
        <ele>-3.6</ele>
        <time>2017-10-27T08:24:55.449Z</time>
      </trkpt>
      <trkpt lat="43.51377" lon="3.87988">
        <ele>-3.6</ele>
        <time>2017-10-27T08:24:56.432Z</time>
      </trkpt>
      <trkpt lat="43.5138" lon="3.87988">
        <ele>-3.6</ele>
        <time>2017-10-27T08:24:57.432Z</time>
      </trkpt>
      <trkpt lat="43.51384" lon="3.87988">
        <ele>-3.6</ele>
        <time>2017-10-27T08:24:58.447Z</time>
      </trkpt>
      <trkpt lat="43.51387" lon="3.87989">
        <ele>-3.4</ele>
        <time>2017-10-27T08:24:59.447Z</time>
      </trkpt>
      <trkpt lat="43.5139" lon="3.87989">
        <ele>-3.5</ele>
        <time>2017-10-27T08:25:00.449Z</time>
      </trkpt>
      <trkpt lat="43.51393" lon="3.8799">
        <ele>-3.6</ele>
        <time>2017-10-27T08:25:01.446Z</time>
      </trkpt>
      <trkpt lat="43.51397" lon="3.87991">
        <ele>-3.6</ele>
        <time>2017-10-27T08:25:02.432Z</time>
      </trkpt>
      <trkpt lat="43.514" lon="3.87991">
        <ele>-3.5</ele>
        <time>2017-10-27T08:25:03.432Z</time>
      </trkpt>
      <trkpt lat="43.51403" lon="3.87992">
        <ele>-3.5</ele>
        <time>2017-10-27T08:25:04.432Z</time>
      </trkpt>
      <trkpt lat="43.51406" lon="3.87993">
        <ele>-3.4</ele>
        <time>2017-10-27T08:25:05.442Z</time>
      </trkpt>
      <trkpt lat="43.5141" lon="3.87994">
        <ele>-3.5</ele>
        <time>2017-10-27T08:25:06.450Z</time>
      </trkpt>
      <trkpt lat="43.51413" lon="3.87995">
        <ele>-3.6</ele>
        <time>2017-10-27T08:25:07.458Z</time>
      </trkpt>
      <trkpt lat="43.51416" lon="3.87995">
        <ele>-3.6</ele>
        <time>2017-10-27T08:25:08.455Z</time>
      </trkpt>
      <trkpt lat="43.51419" lon="3.87997">
        <ele>-3.4</ele>
        <time>2017-10-27T08:25:09.447Z</time>
      </trkpt>
      <trkpt lat="43.51422" lon="3.87999">
        <ele>-3.3</ele>
        <time>2017-10-27T08:25:10.454Z</time>
      </trkpt>
      <trkpt lat="43.51425" lon="3.88001">
        <ele>-3.3</ele>
        <time>2017-10-27T08:25:11.449Z</time>
      </trkpt>
      <trkpt lat="43.51428" lon="3.88004">
        <ele>-3.3</ele>
        <time>2017-10-27T08:25:12.449Z</time>
      </trkpt>
      <trkpt lat="43.51431" lon="3.88007">
        <ele>-3.3</ele>
        <time>2017-10-27T08:25:13.447Z</time>
      </trkpt>
      <trkpt lat="43.51434" lon="3.8801">
        <ele>-3.2</ele>
        <time>2017-10-27T08:25:14.446Z</time>
      </trkpt>
      <trkpt lat="43.51436" lon="3.88013">
        <ele>-3.2</ele>
        <time>2017-10-27T08:25:15.447Z</time>
      </trkpt>
      <trkpt lat="43.51439" lon="3.88017">
        <ele>-3.1</ele>
        <time>2017-10-27T08:25:16.446Z</time>
      </trkpt>
      <trkpt lat="43.51441" lon="3.8802">
        <ele>-3.1</ele>
        <time>2017-10-27T08:25:17.447Z</time>
      </trkpt>
      <trkpt lat="43.51444" lon="3.88024">
        <ele>-3</ele>
        <time>2017-10-27T08:25:18.448Z</time>
      </trkpt>
      <trkpt lat="43.51447" lon="3.88027">
        <ele>-3.1</ele>
        <time>2017-10-27T08:25:19.447Z</time>
      </trkpt>
      <trkpt lat="43.5145" lon="3.88031">
        <ele>-3.1</ele>
        <time>2017-10-27T08:25:20.447Z</time>
      </trkpt>
      <trkpt lat="43.51453" lon="3.88035">
        <ele>-3.1</ele>
        <time>2017-10-27T08:25:21.433Z</time>
      </trkpt>
      <trkpt lat="43.51456" lon="3.88039">
        <ele>-3</ele>
        <time>2017-10-27T08:25:22.433Z</time>
      </trkpt>
      <trkpt lat="43.51459" lon="3.88043">
        <ele>-3</ele>
        <time>2017-10-27T08:25:23.448Z</time>
      </trkpt>
      <trkpt lat="43.51462" lon="3.88046">
        <ele>-3</ele>
        <time>2017-10-27T08:25:24.454Z</time>
      </trkpt>
      <trkpt lat="43.51465" lon="3.8805">
        <ele>-3.1</ele>
        <time>2017-10-27T08:25:25.452Z</time>
      </trkpt>
      <trkpt lat="43.51468" lon="3.88054">
        <ele>-3.1</ele>
        <time>2017-10-27T08:25:26.447Z</time>
      </trkpt>
      <trkpt lat="43.51471" lon="3.88058">
        <ele>-3</ele>
        <time>2017-10-27T08:25:27.447Z</time>
      </trkpt>
      <trkpt lat="43.51475" lon="3.88063">
        <ele>-2.9</ele>
        <time>2017-10-27T08:25:28.448Z</time>
      </trkpt>
      <trkpt lat="43.51478" lon="3.88066">
        <ele>-2.9</ele>
        <time>2017-10-27T08:25:29.448Z</time>
      </trkpt>
      <trkpt lat="43.51482" lon="3.8807">
        <ele>-2.9</ele>
        <time>2017-10-27T08:25:30.449Z</time>
      </trkpt>
      <trkpt lat="43.51485" lon="3.88074">
        <ele>-2.9</ele>
        <time>2017-10-27T08:25:31.446Z</time>
      </trkpt>
      <trkpt lat="43.51489" lon="3.88078">
        <ele>-2.8</ele>
        <time>2017-10-27T08:25:32.440Z</time>
      </trkpt>
      <trkpt lat="43.51493" lon="3.88081">
        <ele>-2.7</ele>
        <time>2017-10-27T08:25:33.446Z</time>
      </trkpt>
      <trkpt lat="43.51497" lon="3.88085">
        <ele>-2.7</ele>
        <time>2017-10-27T08:25:34.442Z</time>
      </trkpt>
      <trkpt lat="43.515" lon="3.88088">
        <ele>-2.7</ele>
        <time>2017-10-27T08:25:35.435Z</time>
      </trkpt>
      <trkpt lat="43.51504" lon="3.88092">
        <ele>-2.8</ele>
        <time>2017-10-27T08:25:36.448Z</time>
      </trkpt>
      <trkpt lat="43.51508" lon="3.88095">
        <ele>-2.7</ele>
        <time>2017-10-27T08:25:37.437Z</time>
      </trkpt>
      <trkpt lat="43.51511" lon="3.88099">
        <ele>-2.6</ele>
        <time>2017-10-27T08:25:38.442Z</time>
      </trkpt>
      <trkpt lat="43.51515" lon="3.88102">
        <ele>-2.6</ele>
        <time>2017-10-27T08:25:39.433Z</time>
      </trkpt>
      <trkpt lat="43.51519" lon="3.88106">
        <ele>-2.6</ele>
        <time>2017-10-27T08:25:40.432Z</time>
      </trkpt>
      <trkpt lat="43.51523" lon="3.88109">
        <ele>-2.7</ele>
        <time>2017-10-27T08:25:41.442Z</time>
      </trkpt>
      <trkpt lat="43.51527" lon="3.88113">
        <ele>-2.7</ele>
        <time>2017-10-27T08:25:42.449Z</time>
      </trkpt>
      <trkpt lat="43.51531" lon="3.88116">
        <ele>-2.6</ele>
        <time>2017-10-27T08:25:43.432Z</time>
      </trkpt>
      <trkpt lat="43.51535" lon="3.8812">
        <ele>-2.6</ele>
        <time>2017-10-27T08:25:44.446Z</time>
      </trkpt>
      <trkpt lat="43.51539" lon="3.88124">
        <ele>-2.6</ele>
        <time>2017-10-27T08:25:45.449Z</time>
      </trkpt>
      <trkpt lat="43.51543" lon="3.88127">
        <ele>-2.6</ele>
        <time>2017-10-27T08:25:46.446Z</time>
      </trkpt>
      <trkpt lat="43.51547" lon="3.88131">
        <ele>-2.6</ele>
        <time>2017-10-27T08:25:47.437Z</time>
      </trkpt>
      <trkpt lat="43.51551" lon="3.88134">
        <ele>-2.6</ele>
        <time>2017-10-27T08:25:48.462Z</time>
      </trkpt>
      <trkpt lat="43.51556" lon="3.88136">
        <ele>-2.7</ele>
        <time>2017-10-27T08:25:49.449Z</time>
      </trkpt>
      <trkpt lat="43.5156" lon="3.88137">
        <ele>-2.7</ele>
        <time>2017-10-27T08:25:50.447Z</time>
      </trkpt>
      <trkpt lat="43.51565" lon="3.88138">
        <ele>-2.8</ele>
        <time>2017-10-27T08:25:51.450Z</time>
      </trkpt>
      <trkpt lat="43.51569" lon="3.88138">
        <ele>-2.8</ele>
        <time>2017-10-27T08:25:52.449Z</time>
      </trkpt>
      <trkpt lat="43.51574" lon="3.88137">
        <ele>-2.8</ele>
        <time>2017-10-27T08:25:53.447Z</time>
      </trkpt>
      <trkpt lat="43.51578" lon="3.88136">
        <ele>-2.9</ele>
        <time>2017-10-27T08:25:54.450Z</time>
      </trkpt>
      <trkpt lat="43.51582" lon="3.88135">
        <ele>-2.9</ele>
        <time>2017-10-27T08:25:55.446Z</time>
      </trkpt>
      <trkpt lat="43.51585" lon="3.88133">
        <ele>-2.9</ele>
        <time>2017-10-27T08:25:56.451Z</time>
      </trkpt>
      <trkpt lat="43.51589" lon="3.88131">
        <ele>-2.9</ele>
        <time>2017-10-27T08:25:57.432Z</time>
      </trkpt>
      <trkpt lat="43.51592" lon="3.88129">
        <ele>-2.9</ele>
        <time>2017-10-27T08:25:58.434Z</time>
      </trkpt>
      <trkpt lat="43.51595" lon="3.88127">
        <ele>-3</ele>
        <time>2017-10-27T08:25:59.433Z</time>
      </trkpt>
      <trkpt lat="43.51598" lon="3.88124">
        <ele>-3</ele>
        <time>2017-10-27T08:26:00.434Z</time>
      </trkpt>
      <trkpt lat="43.51601" lon="3.88121">
        <ele>-3</ele>
        <time>2017-10-27T08:26:01.448Z</time>
      </trkpt>
      <trkpt lat="43.51603" lon="3.88118">
        <ele>-2.9</ele>
        <time>2017-10-27T08:26:02.439Z</time>
      </trkpt>
      <trkpt lat="43.51605" lon="3.88116">
        <ele>-2.8</ele>
        <time>2017-10-27T08:26:03.450Z</time>
      </trkpt>
      <trkpt lat="43.51607" lon="3.88114">
        <ele>-2.9</ele>
        <time>2017-10-27T08:26:04.457Z</time>
      </trkpt>
      <trkpt lat="43.51608" lon="3.88112">
        <ele>-2.8</ele>
        <time>2017-10-27T08:26:05.448Z</time>
      </trkpt>
      <trkpt lat="43.5161" lon="3.88111">
        <ele>-2.8</ele>
        <time>2017-10-27T08:26:06.460Z</time>
      </trkpt>
      <trkpt lat="43.51611" lon="3.88109">
        <ele>-2.9</ele>
        <time>2017-10-27T08:26:07.460Z</time>
      </trkpt>
      <trkpt lat="43.51613" lon="3.88107">
        <ele>-2.8</ele>
        <time>2017-10-27T08:26:08.449Z</time>
      </trkpt>
      <trkpt lat="43.51615" lon="3.88106">
        <ele>-2.7</ele>
        <time>2017-10-27T08:26:09.447Z</time>
      </trkpt>
      <trkpt lat="43.51617" lon="3.88104">
        <ele>-2.5</ele>
        <time>2017-10-27T08:26:10.456Z</time>
      </trkpt>
      <trkpt lat="43.5162" lon="3.88104">
        <ele>-2.5</ele>
        <time>2017-10-27T08:26:11.447Z</time>
      </trkpt>
      <trkpt lat="43.51622" lon="3.88103">
        <ele>-2.4</ele>
        <time>2017-10-27T08:26:12.450Z</time>
      </trkpt>
      <trkpt lat="43.51625" lon="3.88102">
        <ele>-2.4</ele>
        <time>2017-10-27T08:26:13.446Z</time>
      </trkpt>
      <trkpt lat="43.51627" lon="3.88101">
        <ele>-2.5</ele>
        <time>2017-10-27T08:26:14.447Z</time>
      </trkpt>
      <trkpt lat="43.5163" lon="3.881">
        <ele>-2.4</ele>
        <time>2017-10-27T08:26:15.446Z</time>
      </trkpt>
      <trkpt lat="43.51632" lon="3.88098">
        <ele>-2.3</ele>
        <time>2017-10-27T08:26:16.450Z</time>
      </trkpt>
      <trkpt lat="43.51634" lon="3.88096">
        <ele>-2.2</ele>
        <time>2017-10-27T08:26:17.447Z</time>
      </trkpt>
      <trkpt lat="43.51637" lon="3.88093">
        <ele>-2.1</ele>
        <time>2017-10-27T08:26:18.434Z</time>
      </trkpt>
      <trkpt lat="43.51639" lon="3.88091">
        <ele>-2.2</ele>
        <time>2017-10-27T08:26:19.432Z</time>
      </trkpt>
      <trkpt lat="43.51641" lon="3.88088">
        <ele>-2.2</ele>
        <time>2017-10-27T08:26:20.432Z</time>
      </trkpt>
      <trkpt lat="43.51644" lon="3.88085">
        <ele>-2.3</ele>
        <time>2017-10-27T08:26:21.434Z</time>
      </trkpt>
      <trkpt lat="43.51646" lon="3.88082">
        <ele>-2.2</ele>
        <time>2017-10-27T08:26:22.450Z</time>
      </trkpt>
      <trkpt lat="43.51648" lon="3.8808">
        <ele>-2.3</ele>
        <time>2017-10-27T08:26:23.447Z</time>
      </trkpt>
      <trkpt lat="43.51651" lon="3.88078">
        <ele>-2.1</ele>
        <time>2017-10-27T08:26:24.448Z</time>
      </trkpt>
      <trkpt lat="43.51654" lon="3.88077">
        <ele>-2.2</ele>
        <time>2017-10-27T08:26:25.447Z</time>
      </trkpt>
      <trkpt lat="43.51656" lon="3.88076">
        <ele>-2.3</ele>
        <time>2017-10-27T08:26:26.447Z</time>
      </trkpt>
      <trkpt lat="43.51659" lon="3.88076">
        <ele>-2.3</ele>
        <time>2017-10-27T08:26:27.438Z</time>
      </trkpt>
      <trkpt lat="43.51662" lon="3.88077">
        <ele>-2.3</ele>
        <time>2017-10-27T08:26:28.440Z</time>
      </trkpt>
      <trkpt lat="43.51664" lon="3.88079">
        <ele>-2.4</ele>
        <time>2017-10-27T08:26:29.446Z</time>
      </trkpt>
      <trkpt lat="43.51666" lon="3.8808">
        <ele>-2.6</ele>
        <time>2017-10-27T08:26:30.449Z</time>
      </trkpt>
      <trkpt lat="43.51667" lon="3.88082">
        <ele>-2.6</ele>
        <time>2017-10-27T08:26:31.450Z</time>
      </trkpt>
      <trkpt lat="43.51669" lon="3.88084">
        <ele>-2.5</ele>
        <time>2017-10-27T08:26:32.456Z</time>
      </trkpt>
      <trkpt lat="43.5167" lon="3.88086">
        <ele>-2.4</ele>
        <time>2017-10-27T08:26:33.447Z</time>
      </trkpt>
      <trkpt lat="43.51672" lon="3.88087">
        <ele>-2.5</ele>
        <time>2017-10-27T08:26:34.446Z</time>
      </trkpt>
      <trkpt lat="43.51673" lon="3.88088">
        <ele>-2.7</ele>
        <time>2017-10-27T08:26:35.448Z</time>
      </trkpt>
      <trkpt lat="43.51673" lon="3.88088">
        <ele>-2.7</ele>
        <time>2017-10-27T08:27:30.202Z</time>
      </trkpt>
      <trkpt lat="43.51673" lon="3.88089">
        <ele>-2.9</ele>
        <time>2017-10-27T08:27:33.448Z</time>
      </trkpt>
      <trkpt lat="43.51672" lon="3.88087">
        <ele>-2.8</ele>
        <time>2017-10-27T08:27:35.451Z</time>
      </trkpt>
      <trkpt lat="43.5167" lon="3.88084">
        <ele>-2.9</ele>
        <time>2017-10-27T08:27:37.449Z</time>
      </trkpt>
      <trkpt lat="43.5167" lon="3.88082">
        <ele>-2.8</ele>
        <time>2017-10-27T08:27:38.448Z</time>
      </trkpt>
      <trkpt lat="43.51669" lon="3.88081">
        <ele>-2.8</ele>
        <time>2017-10-27T08:27:39.451Z</time>
      </trkpt>
      <trkpt lat="43.51666" lon="3.88079">
        <ele>-2.9</ele>
        <time>2017-10-27T08:27:41.450Z</time>
      </trkpt>
      <trkpt lat="43.51665" lon="3.88078">
        <ele>-3</ele>
        <time>2017-10-27T08:27:42.452Z</time>
      </trkpt>
      <trkpt lat="43.51663" lon="3.88077">
        <ele>-2.9</ele>
        <time>2017-10-27T08:27:43.451Z</time>
      </trkpt>
      <trkpt lat="43.51662" lon="3.88076">
        <ele>-2.8</ele>
        <time>2017-10-27T08:27:44.451Z</time>
      </trkpt>
      <trkpt lat="43.51661" lon="3.88076">
        <ele>-2.9</ele>
        <time>2017-10-27T08:27:45.452Z</time>
      </trkpt>
      <trkpt lat="43.51659" lon="3.88075">
        <ele>-2.9</ele>
        <time>2017-10-27T08:27:46.453Z</time>
      </trkpt>
      <trkpt lat="43.51658" lon="3.88075">
        <ele>-2.8</ele>
        <time>2017-10-27T08:27:47.453Z</time>
      </trkpt>
      <trkpt lat="43.51656" lon="3.88075">
        <ele>-2.8</ele>
        <time>2017-10-27T08:27:48.456Z</time>
      </trkpt>
      <trkpt lat="43.51653" lon="3.88075">
        <ele>-2.7</ele>
        <time>2017-10-27T08:27:49.453Z</time>
      </trkpt>
      <trkpt lat="43.51651" lon="3.88075">
        <ele>-2.7</ele>
        <time>2017-10-27T08:27:50.454Z</time>
      </trkpt>
      <trkpt lat="43.51649" lon="3.88076">
        <ele>-2.7</ele>
        <time>2017-10-27T08:27:51.450Z</time>
      </trkpt>
      <trkpt lat="43.51647" lon="3.88078">
        <ele>-2.6</ele>
        <time>2017-10-27T08:27:52.450Z</time>
      </trkpt>
      <trkpt lat="43.51645" lon="3.8808">
        <ele>-2.6</ele>
        <time>2017-10-27T08:27:53.450Z</time>
      </trkpt>
      <trkpt lat="43.51643" lon="3.88082">
        <ele>-2.5</ele>
        <time>2017-10-27T08:27:54.459Z</time>
      </trkpt>
      <trkpt lat="43.51641" lon="3.88084">
        <ele>-2.4</ele>
        <time>2017-10-27T08:27:55.436Z</time>
      </trkpt>
      <trkpt lat="43.51639" lon="3.88087">
        <ele>-2.3</ele>
        <time>2017-10-27T08:27:56.436Z</time>
      </trkpt>
      <trkpt lat="43.51637" lon="3.88089">
        <ele>-2.3</ele>
        <time>2017-10-27T08:27:57.436Z</time>
      </trkpt>
      <trkpt lat="43.51635" lon="3.88091">
        <ele>-2.2</ele>
        <time>2017-10-27T08:27:58.452Z</time>
      </trkpt>
      <trkpt lat="43.51633" lon="3.88093">
        <ele>-2.2</ele>
        <time>2017-10-27T08:27:59.435Z</time>
      </trkpt>
      <trkpt lat="43.51631" lon="3.88095">
        <ele>-2.1</ele>
        <time>2017-10-27T08:28:00.456Z</time>
      </trkpt>
      <trkpt lat="43.51629" lon="3.88097">
        <ele>-2.1</ele>
        <time>2017-10-27T08:28:01.453Z</time>
      </trkpt>
      <trkpt lat="43.51627" lon="3.88098">
        <ele>-2</ele>
        <time>2017-10-27T08:28:02.459Z</time>
      </trkpt>
      <trkpt lat="43.51624" lon="3.88099">
        <ele>-2</ele>
        <time>2017-10-27T08:28:03.455Z</time>
      </trkpt>
      <trkpt lat="43.51622" lon="3.881">
        <ele>-1.9</ele>
        <time>2017-10-27T08:28:04.454Z</time>
      </trkpt>
      <trkpt lat="43.51619" lon="3.88101">
        <ele>-1.9</ele>
        <time>2017-10-27T08:28:05.452Z</time>
      </trkpt>
      <trkpt lat="43.51617" lon="3.88102">
        <ele>-1.9</ele>
        <time>2017-10-27T08:28:06.452Z</time>
      </trkpt>
      <trkpt lat="43.51614" lon="3.88103">
        <ele>-2</ele>
        <time>2017-10-27T08:28:07.455Z</time>
      </trkpt>
      <trkpt lat="43.51611" lon="3.88104">
        <ele>-2</ele>
        <time>2017-10-27T08:28:08.455Z</time>
      </trkpt>
      <trkpt lat="43.51609" lon="3.88106">
        <ele>-2.1</ele>
        <time>2017-10-27T08:28:09.451Z</time>
      </trkpt>
      <trkpt lat="43.51606" lon="3.88109">
        <ele>-2.2</ele>
        <time>2017-10-27T08:28:10.450Z</time>
      </trkpt>
      <trkpt lat="43.51604" lon="3.88112">
        <ele>-2.2</ele>
        <time>2017-10-27T08:28:11.448Z</time>
      </trkpt>
      <trkpt lat="43.51601" lon="3.88114">
        <ele>-2.2</ele>
        <time>2017-10-27T08:28:12.450Z</time>
      </trkpt>
      <trkpt lat="43.51598" lon="3.88117">
        <ele>-2.1</ele>
        <time>2017-10-27T08:28:13.452Z</time>
      </trkpt>
      <trkpt lat="43.51596" lon="3.88119">
        <ele>-2.1</ele>
        <time>2017-10-27T08:28:14.451Z</time>
      </trkpt>
      <trkpt lat="43.51593" lon="3.88122">
        <ele>-2.1</ele>
        <time>2017-10-27T08:28:15.437Z</time>
      </trkpt>
      <trkpt lat="43.5159" lon="3.88124">
        <ele>-2.1</ele>
        <time>2017-10-27T08:28:16.437Z</time>
      </trkpt>
      <trkpt lat="43.51587" lon="3.88127">
        <ele>-1.9</ele>
        <time>2017-10-27T08:28:17.436Z</time>
      </trkpt>
      <trkpt lat="43.51585" lon="3.88129">
        <ele>-1.9</ele>
        <time>2017-10-27T08:28:18.453Z</time>
      </trkpt>
      <trkpt lat="43.51582" lon="3.8813">
        <ele>-1.8</ele>
        <time>2017-10-27T08:28:19.435Z</time>
      </trkpt>
      <trkpt lat="43.51579" lon="3.88132">
        <ele>-1.8</ele>
        <time>2017-10-27T08:28:20.448Z</time>
      </trkpt>
      <trkpt lat="43.51576" lon="3.88133">
        <ele>-1.7</ele>
        <time>2017-10-27T08:28:21.434Z</time>
      </trkpt>
      <trkpt lat="43.51573" lon="3.88135">
        <ele>-1.7</ele>
        <time>2017-10-27T08:28:22.433Z</time>
      </trkpt>
      <trkpt lat="43.51569" lon="3.88135">
        <ele>-1.7</ele>
        <time>2017-10-27T08:28:23.450Z</time>
      </trkpt>
      <trkpt lat="43.51566" lon="3.88135">
        <ele>-1.7</ele>
        <time>2017-10-27T08:28:24.464Z</time>
      </trkpt>
      <trkpt lat="43.51563" lon="3.88135">
        <ele>-1.7</ele>
        <time>2017-10-27T08:28:25.448Z</time>
      </trkpt>
      <trkpt lat="43.51559" lon="3.88135">
        <ele>-1.8</ele>
        <time>2017-10-27T08:28:26.449Z</time>
      </trkpt>
      <trkpt lat="43.51556" lon="3.88133">
        <ele>-1.9</ele>
        <time>2017-10-27T08:28:27.432Z</time>
      </trkpt>
      <trkpt lat="43.51553" lon="3.88132">
        <ele>-1.8</ele>
        <time>2017-10-27T08:28:28.455Z</time>
      </trkpt>
      <trkpt lat="43.51549" lon="3.8813">
        <ele>-1.8</ele>
        <time>2017-10-27T08:28:29.448Z</time>
      </trkpt>
      <trkpt lat="43.51546" lon="3.88128">
        <ele>-1.8</ele>
        <time>2017-10-27T08:28:30.455Z</time>
      </trkpt>
      <trkpt lat="43.51544" lon="3.88125">
        <ele>-1.9</ele>
        <time>2017-10-27T08:28:31.448Z</time>
      </trkpt>
      <trkpt lat="43.51541" lon="3.88123">
        <ele>-1.8</ele>
        <time>2017-10-27T08:28:32.449Z</time>
      </trkpt>
      <trkpt lat="43.51538" lon="3.8812">
        <ele>-1.9</ele>
        <time>2017-10-27T08:28:33.447Z</time>
      </trkpt>
      <trkpt lat="43.51535" lon="3.88118">
        <ele>-1.9</ele>
        <time>2017-10-27T08:28:34.444Z</time>
      </trkpt>
      <trkpt lat="43.51532" lon="3.88115">
        <ele>-2</ele>
        <time>2017-10-27T08:28:35.433Z</time>
      </trkpt>
      <trkpt lat="43.51529" lon="3.88112">
        <ele>-2</ele>
        <time>2017-10-27T08:28:36.435Z</time>
      </trkpt>
      <trkpt lat="43.51526" lon="3.88109">
        <ele>-2</ele>
        <time>2017-10-27T08:28:37.455Z</time>
      </trkpt>
      <trkpt lat="43.51523" lon="3.88107">
        <ele>-2</ele>
        <time>2017-10-27T08:28:38.450Z</time>
      </trkpt>
      <trkpt lat="43.5152" lon="3.88104">
        <ele>-2</ele>
        <time>2017-10-27T08:28:39.449Z</time>
      </trkpt>
      <trkpt lat="43.51517" lon="3.88101">
        <ele>-2</ele>
        <time>2017-10-27T08:28:40.452Z</time>
      </trkpt>
      <trkpt lat="43.51514" lon="3.88098">
        <ele>-2</ele>
        <time>2017-10-27T08:28:41.450Z</time>
      </trkpt>
      <trkpt lat="43.51511" lon="3.88095">
        <ele>-2</ele>
        <time>2017-10-27T08:28:42.459Z</time>
      </trkpt>
      <trkpt lat="43.51508" lon="3.88092">
        <ele>-2</ele>
        <time>2017-10-27T08:28:43.452Z</time>
      </trkpt>
      <trkpt lat="43.51505" lon="3.8809">
        <ele>-2</ele>
        <time>2017-10-27T08:28:44.447Z</time>
      </trkpt>
      <trkpt lat="43.51502" lon="3.88087">
        <ele>-2</ele>
        <time>2017-10-27T08:28:45.447Z</time>
      </trkpt>
      <trkpt lat="43.51499" lon="3.88084">
        <ele>-2</ele>
        <time>2017-10-27T08:28:46.447Z</time>
      </trkpt>
      <trkpt lat="43.51496" lon="3.88081">
        <ele>-2</ele>
        <time>2017-10-27T08:28:47.447Z</time>
      </trkpt>
      <trkpt lat="43.51493" lon="3.88079">
        <ele>-1.9</ele>
        <time>2017-10-27T08:28:48.449Z</time>
      </trkpt>
      <trkpt lat="43.5149" lon="3.88076">
        <ele>-1.9</ele>
        <time>2017-10-27T08:28:49.449Z</time>
      </trkpt>
      <trkpt lat="43.51487" lon="3.88073">
        <ele>-2</ele>
        <time>2017-10-27T08:28:50.448Z</time>
      </trkpt>
      <trkpt lat="43.51484" lon="3.88069">
        <ele>-2</ele>
        <time>2017-10-27T08:28:51.465Z</time>
      </trkpt>
      <trkpt lat="43.51481" lon="3.88066">
        <ele>-2</ele>
        <time>2017-10-27T08:28:52.449Z</time>
      </trkpt>
      <trkpt lat="43.51478" lon="3.88063">
        <ele>-2</ele>
        <time>2017-10-27T08:28:53.437Z</time>
      </trkpt>
      <trkpt lat="43.51475" lon="3.8806">
        <ele>-2</ele>
        <time>2017-10-27T08:28:54.436Z</time>
      </trkpt>
      <trkpt lat="43.51472" lon="3.88057">
        <ele>-2</ele>
        <time>2017-10-27T08:28:55.435Z</time>
      </trkpt>
      <trkpt lat="43.51469" lon="3.88053">
        <ele>-2</ele>
        <time>2017-10-27T08:28:56.436Z</time>
      </trkpt>
      <trkpt lat="43.51466" lon="3.8805">
        <ele>-2.1</ele>
        <time>2017-10-27T08:28:57.436Z</time>
      </trkpt>
      <trkpt lat="43.51464" lon="3.88047">
        <ele>-2.2</ele>
        <time>2017-10-27T08:28:58.455Z</time>
      </trkpt>
      <trkpt lat="43.51461" lon="3.88043">
        <ele>-2.1</ele>
        <time>2017-10-27T08:28:59.464Z</time>
      </trkpt>
      <trkpt lat="43.51458" lon="3.8804">
        <ele>-2.1</ele>
        <time>2017-10-27T08:29:00.458Z</time>
      </trkpt>
      <trkpt lat="43.51456" lon="3.88036">
        <ele>-2.1</ele>
        <time>2017-10-27T08:29:01.469Z</time>
      </trkpt>
      <trkpt lat="43.51453" lon="3.88033">
        <ele>-2.1</ele>
        <time>2017-10-27T08:29:02.450Z</time>
      </trkpt>
      <trkpt lat="43.5145" lon="3.88029">
        <ele>-2.1</ele>
        <time>2017-10-27T08:29:03.435Z</time>
      </trkpt>
      <trkpt lat="43.51448" lon="3.88026">
        <ele>-2</ele>
        <time>2017-10-27T08:29:04.452Z</time>
      </trkpt>
      <trkpt lat="43.51445" lon="3.88023">
        <ele>-2</ele>
        <time>2017-10-27T08:29:05.435Z</time>
      </trkpt>
      <trkpt lat="43.51442" lon="3.8802">
        <ele>-2</ele>
        <time>2017-10-27T08:29:06.452Z</time>
      </trkpt>
      <trkpt lat="43.51439" lon="3.88017">
        <ele>-2</ele>
        <time>2017-10-27T08:29:07.450Z</time>
      </trkpt>
      <trkpt lat="43.51437" lon="3.88014">
        <ele>-2</ele>
        <time>2017-10-27T08:29:08.450Z</time>
      </trkpt>
      <trkpt lat="43.51434" lon="3.88011">
        <ele>-2</ele>
        <time>2017-10-27T08:29:09.435Z</time>
      </trkpt>
      <trkpt lat="43.51431" lon="3.88008">
        <ele>-2</ele>
        <time>2017-10-27T08:29:10.467Z</time>
      </trkpt>
      <trkpt lat="43.51429" lon="3.88005">
        <ele>-2</ele>
        <time>2017-10-27T08:29:11.451Z</time>
      </trkpt>
      <trkpt lat="43.51426" lon="3.88002">
        <ele>-2</ele>
        <time>2017-10-27T08:29:12.436Z</time>
      </trkpt>
      <trkpt lat="43.51423" lon="3.87999">
        <ele>-2</ele>
        <time>2017-10-27T08:29:13.439Z</time>
      </trkpt>
      <trkpt lat="43.5142" lon="3.87996">
        <ele>-2</ele>
        <time>2017-10-27T08:29:14.435Z</time>
      </trkpt>
      <trkpt lat="43.51417" lon="3.87994">
        <ele>-2.1</ele>
        <time>2017-10-27T08:29:15.435Z</time>
      </trkpt>
      <trkpt lat="43.51413" lon="3.87992">
        <ele>-2</ele>
        <time>2017-10-27T08:29:16.450Z</time>
      </trkpt>
      <trkpt lat="43.51409" lon="3.8799">
        <ele>-2</ele>
        <time>2017-10-27T08:29:17.451Z</time>
      </trkpt>
      <trkpt lat="43.51406" lon="3.87989">
        <ele>-2</ele>
        <time>2017-10-27T08:29:18.464Z</time>
      </trkpt>
      <trkpt lat="43.51402" lon="3.87988">
        <ele>-2.1</ele>
        <time>2017-10-27T08:29:19.452Z</time>
      </trkpt>
      <trkpt lat="43.51397" lon="3.87987">
        <ele>-2.1</ele>
        <time>2017-10-27T08:29:20.445Z</time>
      </trkpt>
      <trkpt lat="43.51393" lon="3.87987">
        <ele>-2.1</ele>
        <time>2017-10-27T08:29:21.450Z</time>
      </trkpt>
      <trkpt lat="43.51388" lon="3.87986">
        <ele>-2.2</ele>
        <time>2017-10-27T08:29:22.455Z</time>
      </trkpt>
      <trkpt lat="43.51384" lon="3.87985">
        <ele>-2.2</ele>
        <time>2017-10-27T08:29:23.452Z</time>
      </trkpt>
      <trkpt lat="43.51379" lon="3.87984">
        <ele>-2.2</ele>
        <time>2017-10-27T08:29:24.451Z</time>
      </trkpt>
      <trkpt lat="43.51374" lon="3.87984">
        <ele>-2.2</ele>
        <time>2017-10-27T08:29:25.458Z</time>
      </trkpt>
      <trkpt lat="43.51369" lon="3.87983">
        <ele>-2.2</ele>
        <time>2017-10-27T08:29:26.450Z</time>
      </trkpt>
      <trkpt lat="43.51365" lon="3.87982">
        <ele>-2.2</ele>
        <time>2017-10-27T08:29:27.456Z</time>
      </trkpt>
      <trkpt lat="43.5136" lon="3.87982">
        <ele>-2.2</ele>
        <time>2017-10-27T08:29:28.450Z</time>
      </trkpt>
      <trkpt lat="43.51355" lon="3.87982">
        <ele>-2.1</ele>
        <time>2017-10-27T08:29:29.450Z</time>
      </trkpt>
      <trkpt lat="43.5135" lon="3.87982">
        <ele>-2</ele>
        <time>2017-10-27T08:29:30.451Z</time>
      </trkpt>
      <trkpt lat="43.51345" lon="3.87982">
        <ele>-2</ele>
        <time>2017-10-27T08:29:31.446Z</time>
      </trkpt>
      <trkpt lat="43.5134" lon="3.87983">
        <ele>-2</ele>
        <time>2017-10-27T08:29:32.434Z</time>
      </trkpt>
      <trkpt lat="43.51336" lon="3.87985">
        <ele>-2</ele>
        <time>2017-10-27T08:29:33.435Z</time>
      </trkpt>
      <trkpt lat="43.51331" lon="3.87987">
        <ele>-2</ele>
        <time>2017-10-27T08:29:34.442Z</time>
      </trkpt>
      <trkpt lat="43.51326" lon="3.8799">
        <ele>-2</ele>
        <time>2017-10-27T08:29:35.451Z</time>
      </trkpt>
      <trkpt lat="43.51322" lon="3.87993">
        <ele>-2</ele>
        <time>2017-10-27T08:29:36.457Z</time>
      </trkpt>
      <trkpt lat="43.51317" lon="3.87996">
        <ele>-1.9</ele>
        <time>2017-10-27T08:29:37.452Z</time>
      </trkpt>
      <trkpt lat="43.51312" lon="3.87999">
        <ele>-1.9</ele>
        <time>2017-10-27T08:29:38.447Z</time>
      </trkpt>
      <trkpt lat="43.51308" lon="3.88001">
        <ele>-1.8</ele>
        <time>2017-10-27T08:29:39.436Z</time>
      </trkpt>
      <trkpt lat="43.51303" lon="3.88005">
        <ele>-1.9</ele>
        <time>2017-10-27T08:29:40.434Z</time>
      </trkpt>
      <trkpt lat="43.51298" lon="3.88008">
        <ele>-1.8</ele>
        <time>2017-10-27T08:29:41.454Z</time>
      </trkpt>
      <trkpt lat="43.51293" lon="3.88011">
        <ele>-1.9</ele>
        <time>2017-10-27T08:29:42.456Z</time>
      </trkpt>
      <trkpt lat="43.51288" lon="3.88014">
        <ele>-1.9</ele>
        <time>2017-10-27T08:29:43.452Z</time>
      </trkpt>
      <trkpt lat="43.51283" lon="3.88018">
        <ele>-1.9</ele>
        <time>2017-10-27T08:29:44.446Z</time>
      </trkpt>
      <trkpt lat="43.51278" lon="3.88022">
        <ele>-1.8</ele>
        <time>2017-10-27T08:29:45.436Z</time>
      </trkpt>
      <trkpt lat="43.51273" lon="3.88025">
        <ele>-1.8</ele>
        <time>2017-10-27T08:29:46.435Z</time>
      </trkpt>
      <trkpt lat="43.51268" lon="3.88029">
        <ele>-1.7</ele>
        <time>2017-10-27T08:29:47.438Z</time>
      </trkpt>
      <trkpt lat="43.51263" lon="3.88033">
        <ele>-1.7</ele>
        <time>2017-10-27T08:29:48.438Z</time>
      </trkpt>
      <trkpt lat="43.51259" lon="3.88037">
        <ele>-1.7</ele>
        <time>2017-10-27T08:29:49.439Z</time>
      </trkpt>
      <trkpt lat="43.51254" lon="3.88041">
        <ele>-1.7</ele>
        <time>2017-10-27T08:29:50.445Z</time>
      </trkpt>
      <trkpt lat="43.51248" lon="3.88045">
        <ele>-1.6</ele>
        <time>2017-10-27T08:29:51.456Z</time>
      </trkpt>
      <trkpt lat="43.51243" lon="3.88049">
        <ele>-1.5</ele>
        <time>2017-10-27T08:29:52.442Z</time>
      </trkpt>
      <trkpt lat="43.51238" lon="3.88053">
        <ele>-1.4</ele>
        <time>2017-10-27T08:29:53.433Z</time>
      </trkpt>
      <trkpt lat="43.51233" lon="3.88058">
        <ele>-1.4</ele>
        <time>2017-10-27T08:29:54.434Z</time>
      </trkpt>
      <trkpt lat="43.51228" lon="3.88062">
        <ele>-1.4</ele>
        <time>2017-10-27T08:29:55.433Z</time>
      </trkpt>
      <trkpt lat="43.51224" lon="3.88067">
        <ele>-1.4</ele>
        <time>2017-10-27T08:29:56.432Z</time>
      </trkpt>
      <trkpt lat="43.51219" lon="3.88073">
        <ele>-1.4</ele>
        <time>2017-10-27T08:29:57.437Z</time>
      </trkpt>
      <trkpt lat="43.51214" lon="3.88078">
        <ele>-1.3</ele>
        <time>2017-10-27T08:29:58.445Z</time>
      </trkpt>
      <trkpt lat="43.5121" lon="3.88084">
        <ele>-1.3</ele>
        <time>2017-10-27T08:29:59.453Z</time>
      </trkpt>
      <trkpt lat="43.51205" lon="3.8809">
        <ele>-1.3</ele>
        <time>2017-10-27T08:30:00.449Z</time>
      </trkpt>
      <trkpt lat="43.51201" lon="3.88097">
        <ele>-1.3</ele>
        <time>2017-10-27T08:30:01.447Z</time>
      </trkpt>
      <trkpt lat="43.51198" lon="3.88104">
        <ele>-1.4</ele>
        <time>2017-10-27T08:30:02.458Z</time>
      </trkpt>
      <trkpt lat="43.51194" lon="3.88111">
        <ele>-1.4</ele>
        <time>2017-10-27T08:30:03.446Z</time>
      </trkpt>
      <trkpt lat="43.51191" lon="3.88119">
        <ele>-1.3</ele>
        <time>2017-10-27T08:30:04.448Z</time>
      </trkpt>
      <trkpt lat="43.51187" lon="3.88126">
        <ele>-1.3</ele>
        <time>2017-10-27T08:30:05.447Z</time>
      </trkpt>
      <trkpt lat="43.51184" lon="3.88133">
        <ele>-1.3</ele>
        <time>2017-10-27T08:30:06.454Z</time>
      </trkpt>
      <trkpt lat="43.5118" lon="3.88141">
        <ele>-1.2</ele>
        <time>2017-10-27T08:30:07.447Z</time>
      </trkpt>
      <trkpt lat="43.51177" lon="3.88148">
        <ele>-1.2</ele>
        <time>2017-10-27T08:30:08.447Z</time>
      </trkpt>
      <trkpt lat="43.51173" lon="3.88156">
        <ele>-1.2</ele>
        <time>2017-10-27T08:30:09.450Z</time>
      </trkpt>
      <trkpt lat="43.5117" lon="3.88164">
        <ele>-1.2</ele>
        <time>2017-10-27T08:30:10.447Z</time>
      </trkpt>
      <trkpt lat="43.51166" lon="3.88171">
        <ele>-1.3</ele>
        <time>2017-10-27T08:30:11.448Z</time>
      </trkpt>
      <trkpt lat="43.51162" lon="3.88178">
        <ele>-1.3</ele>
        <time>2017-10-27T08:30:12.449Z</time>
      </trkpt>
      <trkpt lat="43.51158" lon="3.88185">
        <ele>-1.2</ele>
        <time>2017-10-27T08:30:13.441Z</time>
      </trkpt>
      <trkpt lat="43.51153" lon="3.88192">
        <ele>-1.2</ele>
        <time>2017-10-27T08:30:14.447Z</time>
      </trkpt>
      <trkpt lat="43.51149" lon="3.88198">
        <ele>-1.2</ele>
        <time>2017-10-27T08:30:15.437Z</time>
      </trkpt>
      <trkpt lat="43.51144" lon="3.88205">
        <ele>-1.3</ele>
        <time>2017-10-27T08:30:16.432Z</time>
      </trkpt>
      <trkpt lat="43.5114" lon="3.88212">
        <ele>-1.4</ele>
        <time>2017-10-27T08:30:17.433Z</time>
      </trkpt>
      <trkpt lat="43.51135" lon="3.88218">
        <ele>-1.4</ele>
        <time>2017-10-27T08:30:18.440Z</time>
      </trkpt>
      <trkpt lat="43.5113" lon="3.88225">
        <ele>-1.4</ele>
        <time>2017-10-27T08:30:19.431Z</time>
      </trkpt>
      <trkpt lat="43.51125" lon="3.88232">
        <ele>-1.4</ele>
        <time>2017-10-27T08:30:20.447Z</time>
      </trkpt>
      <trkpt lat="43.51121" lon="3.88239">
        <ele>-1.4</ele>
        <time>2017-10-27T08:30:21.439Z</time>
      </trkpt>
      <trkpt lat="43.51116" lon="3.88246">
        <ele>-1.4</ele>
        <time>2017-10-27T08:30:22.445Z</time>
      </trkpt>
      <trkpt lat="43.51111" lon="3.88253">
        <ele>-1.4</ele>
        <time>2017-10-27T08:30:23.451Z</time>
      </trkpt>
      <trkpt lat="43.51107" lon="3.8826">
        <ele>-1.3</ele>
        <time>2017-10-27T08:30:24.453Z</time>
      </trkpt>
      <trkpt lat="43.51102" lon="3.88266">
        <ele>-1.3</ele>
        <time>2017-10-27T08:30:25.456Z</time>
      </trkpt>
      <trkpt lat="43.51097" lon="3.88273">
        <ele>-1.3</ele>
        <time>2017-10-27T08:30:26.446Z</time>
      </trkpt>
      <trkpt lat="43.51092" lon="3.8828">
        <ele>-1.2</ele>
        <time>2017-10-27T08:30:27.451Z</time>
      </trkpt>
      <trkpt lat="43.51087" lon="3.88286">
        <ele>-1.1</ele>
        <time>2017-10-27T08:30:28.445Z</time>
      </trkpt>
      <trkpt lat="43.51082" lon="3.88292">
        <ele>-0.8</ele>
        <time>2017-10-27T08:30:29.453Z</time>
      </trkpt>
      <trkpt lat="43.51076" lon="3.88295">
        <ele>-0.9</ele>
        <time>2017-10-27T08:30:30.449Z</time>
      </trkpt>
      <trkpt lat="43.5107" lon="3.88297">
        <ele>-1</ele>
        <time>2017-10-27T08:30:31.448Z</time>
      </trkpt>
      <trkpt lat="43.51063" lon="3.88298">
        <ele>-1</ele>
        <time>2017-10-27T08:30:32.448Z</time>
      </trkpt>
      <trkpt lat="43.51057" lon="3.88298">
        <ele>-1</ele>
        <time>2017-10-27T08:30:33.446Z</time>
      </trkpt>
      <trkpt lat="43.51051" lon="3.88298">
        <ele>-1.1</ele>
        <time>2017-10-27T08:30:34.439Z</time>
      </trkpt>
      <trkpt lat="43.51044" lon="3.88298">
        <ele>-1.1</ele>
        <time>2017-10-27T08:30:35.432Z</time>
      </trkpt>
      <trkpt lat="43.51038" lon="3.88297">
        <ele>-1.2</ele>
        <time>2017-10-27T08:30:36.434Z</time>
      </trkpt>
      <trkpt lat="43.51032" lon="3.88296">
        <ele>-1.2</ele>
        <time>2017-10-27T08:30:37.431Z</time>
      </trkpt>
      <trkpt lat="43.51026" lon="3.88295">
        <ele>-1.2</ele>
        <time>2017-10-27T08:30:38.433Z</time>
      </trkpt>
      <trkpt lat="43.5102" lon="3.88294">
        <ele>-1.3</ele>
        <time>2017-10-27T08:30:39.434Z</time>
      </trkpt>
      <trkpt lat="43.51013" lon="3.88293">
        <ele>-1.4</ele>
        <time>2017-10-27T08:30:40.447Z</time>
      </trkpt>
      <trkpt lat="43.51007" lon="3.88292">
        <ele>-1.5</ele>
        <time>2017-10-27T08:30:41.447Z</time>
      </trkpt>
      <trkpt lat="43.51001" lon="3.88291">
        <ele>-1.5</ele>
        <time>2017-10-27T08:30:42.454Z</time>
      </trkpt>
      <trkpt lat="43.50995" lon="3.8829">
        <ele>-1.5</ele>
        <time>2017-10-27T08:30:43.450Z</time>
      </trkpt>
      <trkpt lat="43.50989" lon="3.88289">
        <ele>-1.5</ele>
        <time>2017-10-27T08:30:44.447Z</time>
      </trkpt>
      <trkpt lat="43.50983" lon="3.88288">
        <ele>-1.5</ele>
        <time>2017-10-27T08:30:45.447Z</time>
      </trkpt>
      <trkpt lat="43.50978" lon="3.88287">
        <ele>-1.6</ele>
        <time>2017-10-27T08:30:46.443Z</time>
      </trkpt>
      <trkpt lat="43.50972" lon="3.88286">
        <ele>-1.6</ele>
        <time>2017-10-27T08:30:47.448Z</time>
      </trkpt>
      <trkpt lat="43.50966" lon="3.88285">
        <ele>-1.6</ele>
        <time>2017-10-27T08:30:48.448Z</time>
      </trkpt>
      <trkpt lat="43.50961" lon="3.88284">
        <ele>-1.6</ele>
        <time>2017-10-27T08:30:49.446Z</time>
      </trkpt>
      <trkpt lat="43.50955" lon="3.88283">
        <ele>-1.6</ele>
        <time>2017-10-27T08:30:50.432Z</time>
      </trkpt>
      <trkpt lat="43.50949" lon="3.88282">
        <ele>-1.6</ele>
        <time>2017-10-27T08:30:51.446Z</time>
      </trkpt>
      <trkpt lat="43.50944" lon="3.88281">
        <ele>-1.6</ele>
        <time>2017-10-27T08:30:52.447Z</time>
      </trkpt>
      <trkpt lat="43.50938" lon="3.88281">
        <ele>-1.7</ele>
        <time>2017-10-27T08:30:53.442Z</time>
      </trkpt>
      <trkpt lat="43.50933" lon="3.8828">
        <ele>-1.7</ele>
        <time>2017-10-27T08:30:54.446Z</time>
      </trkpt>
      <trkpt lat="43.50928" lon="3.88279">
        <ele>-1.7</ele>
        <time>2017-10-27T08:30:55.432Z</time>
      </trkpt>
      <trkpt lat="43.50922" lon="3.88278">
        <ele>-1.8</ele>
        <time>2017-10-27T08:30:56.446Z</time>
      </trkpt>
      <trkpt lat="43.50917" lon="3.88277">
        <ele>-1.8</ele>
        <time>2017-10-27T08:30:57.439Z</time>
      </trkpt>
      <trkpt lat="43.50912" lon="3.88276">
        <ele>-1.8</ele>
        <time>2017-10-27T08:30:58.447Z</time>
      </trkpt>
      <trkpt lat="43.50907" lon="3.88275">
        <ele>-1.8</ele>
        <time>2017-10-27T08:30:59.460Z</time>
      </trkpt>
      <trkpt lat="43.50902" lon="3.88274">
        <ele>-1.8</ele>
        <time>2017-10-27T08:31:00.454Z</time>
      </trkpt>
      <trkpt lat="43.50897" lon="3.88274">
        <ele>-1.9</ele>
        <time>2017-10-27T08:31:01.445Z</time>
      </trkpt>
      <trkpt lat="43.50892" lon="3.88273">
        <ele>-1.9</ele>
        <time>2017-10-27T08:31:02.456Z</time>
      </trkpt>
      <trkpt lat="43.50888" lon="3.88272">
        <ele>-1.8</ele>
        <time>2017-10-27T08:31:03.449Z</time>
      </trkpt>
      <trkpt lat="43.50883" lon="3.88271">
        <ele>-1.8</ele>
        <time>2017-10-27T08:31:04.446Z</time>
      </trkpt>
      <trkpt lat="43.50878" lon="3.88271">
        <ele>-1.8</ele>
        <time>2017-10-27T08:31:05.436Z</time>
      </trkpt>
      <trkpt lat="43.50873" lon="3.8827">
        <ele>-1.8</ele>
        <time>2017-10-27T08:31:06.450Z</time>
      </trkpt>
      <trkpt lat="43.50868" lon="3.8827">
        <ele>-1.8</ele>
        <time>2017-10-27T08:31:07.449Z</time>
      </trkpt>
      <trkpt lat="43.50864" lon="3.8827">
        <ele>-1.7</ele>
        <time>2017-10-27T08:31:08.446Z</time>
      </trkpt>
      <trkpt lat="43.50859" lon="3.8827">
        <ele>-1.7</ele>
        <time>2017-10-27T08:31:09.447Z</time>
      </trkpt>
      <trkpt lat="43.50854" lon="3.88271">
        <ele>-1.7</ele>
        <time>2017-10-27T08:31:10.446Z</time>
      </trkpt>
      <trkpt lat="43.50849" lon="3.88273">
        <ele>-1.7</ele>
        <time>2017-10-27T08:31:11.447Z</time>
      </trkpt>
      <trkpt lat="43.50844" lon="3.88274">
        <ele>-1.7</ele>
        <time>2017-10-27T08:31:12.448Z</time>
      </trkpt>
      <trkpt lat="43.50839" lon="3.88276">
        <ele>-1.7</ele>
        <time>2017-10-27T08:31:13.446Z</time>
      </trkpt>
      <trkpt lat="43.50834" lon="3.88278">
        <ele>-1.7</ele>
        <time>2017-10-27T08:31:14.454Z</time>
      </trkpt>
      <trkpt lat="43.50829" lon="3.8828">
        <ele>-1.7</ele>
        <time>2017-10-27T08:31:15.435Z</time>
      </trkpt>
      <trkpt lat="43.50825" lon="3.88282">
        <ele>-1.7</ele>
        <time>2017-10-27T08:31:16.431Z</time>
      </trkpt>
      <trkpt lat="43.5082" lon="3.88285">
        <ele>-1.7</ele>
        <time>2017-10-27T08:31:17.432Z</time>
      </trkpt>
      <trkpt lat="43.50815" lon="3.88287">
        <ele>-1.6</ele>
        <time>2017-10-27T08:31:18.439Z</time>
      </trkpt>
      <trkpt lat="43.5081" lon="3.8829">
        <ele>-1.6</ele>
        <time>2017-10-27T08:31:19.447Z</time>
      </trkpt>
      <trkpt lat="43.50805" lon="3.88293">
        <ele>-1.6</ele>
        <time>2017-10-27T08:31:20.451Z</time>
      </trkpt>
      <trkpt lat="43.508" lon="3.88296">
        <ele>-1.5</ele>
        <time>2017-10-27T08:31:21.450Z</time>
      </trkpt>
      <trkpt lat="43.50796" lon="3.88299">
        <ele>-1.6</ele>
        <time>2017-10-27T08:31:22.451Z</time>
      </trkpt>
      <trkpt lat="43.50791" lon="3.88303">
        <ele>-1.5</ele>
        <time>2017-10-27T08:31:23.457Z</time>
      </trkpt>
      <trkpt lat="43.50786" lon="3.88306">
        <ele>-1.4</ele>
        <time>2017-10-27T08:31:24.454Z</time>
      </trkpt>
      <trkpt lat="43.50781" lon="3.88309">
        <ele>-1.4</ele>
        <time>2017-10-27T08:31:25.450Z</time>
      </trkpt>
      <trkpt lat="43.50776" lon="3.88312">
        <ele>-1.3</ele>
        <time>2017-10-27T08:31:26.446Z</time>
      </trkpt>
      <trkpt lat="43.50771" lon="3.88315">
        <ele>-1.3</ele>
        <time>2017-10-27T08:31:27.447Z</time>
      </trkpt>
      <trkpt lat="43.50766" lon="3.88319">
        <ele>-1.2</ele>
        <time>2017-10-27T08:31:28.451Z</time>
      </trkpt>
      <trkpt lat="43.50761" lon="3.88322">
        <ele>-1.2</ele>
        <time>2017-10-27T08:31:29.447Z</time>
      </trkpt>
      <trkpt lat="43.50756" lon="3.88326">
        <ele>-1.2</ele>
        <time>2017-10-27T08:31:30.448Z</time>
      </trkpt>
      <trkpt lat="43.50752" lon="3.8833">
        <ele>-1.2</ele>
        <time>2017-10-27T08:31:31.448Z</time>
      </trkpt>
      <trkpt lat="43.50747" lon="3.88334">
        <ele>-1.1</ele>
        <time>2017-10-27T08:31:32.447Z</time>
      </trkpt>
      <trkpt lat="43.50743" lon="3.88339">
        <ele>-1.1</ele>
        <time>2017-10-27T08:31:33.446Z</time>
      </trkpt>
      <trkpt lat="43.50738" lon="3.88343">
        <ele>-1.1</ele>
        <time>2017-10-27T08:31:34.432Z</time>
      </trkpt>
      <trkpt lat="43.50734" lon="3.88347">
        <ele>-1.1</ele>
        <time>2017-10-27T08:31:35.432Z</time>
      </trkpt>
      <trkpt lat="43.50729" lon="3.88351">
        <ele>-1.1</ele>
        <time>2017-10-27T08:31:36.438Z</time>
      </trkpt>
      <trkpt lat="43.50725" lon="3.88356">
        <ele>-1.1</ele>
        <time>2017-10-27T08:31:37.432Z</time>
      </trkpt>
      <trkpt lat="43.5072" lon="3.8836">
        <ele>-1.1</ele>
        <time>2017-10-27T08:31:38.447Z</time>
      </trkpt>
      <trkpt lat="43.50716" lon="3.88365">
        <ele>-1</ele>
        <time>2017-10-27T08:31:39.454Z</time>
      </trkpt>
      <trkpt lat="43.50711" lon="3.88369">
        <ele>-1</ele>
        <time>2017-10-27T08:31:40.431Z</time>
      </trkpt>
      <trkpt lat="43.50707" lon="3.88374">
        <ele>-0.9</ele>
        <time>2017-10-27T08:31:41.446Z</time>
      </trkpt>
      <trkpt lat="43.50703" lon="3.88379">
        <ele>-0.8</ele>
        <time>2017-10-27T08:31:42.443Z</time>
      </trkpt>
      <trkpt lat="43.50699" lon="3.88383">
        <ele>-0.8</ele>
        <time>2017-10-27T08:31:43.446Z</time>
      </trkpt>
      <trkpt lat="43.50695" lon="3.88387">
        <ele>-0.8</ele>
        <time>2017-10-27T08:31:44.447Z</time>
      </trkpt>
      <trkpt lat="43.50691" lon="3.88392">
        <ele>-0.8</ele>
        <time>2017-10-27T08:31:45.445Z</time>
      </trkpt>
      <trkpt lat="43.50688" lon="3.88397">
        <ele>-0.8</ele>
        <time>2017-10-27T08:31:46.447Z</time>
      </trkpt>
      <trkpt lat="43.50684" lon="3.88402">
        <ele>-0.9</ele>
        <time>2017-10-27T08:31:47.455Z</time>
      </trkpt>
      <trkpt lat="43.50681" lon="3.88407">
        <ele>-0.9</ele>
        <time>2017-10-27T08:31:48.448Z</time>
      </trkpt>
      <trkpt lat="43.50678" lon="3.88413">
        <ele>-0.9</ele>
        <time>2017-10-27T08:31:49.447Z</time>
      </trkpt>
      <trkpt lat="43.50675" lon="3.88418">
        <ele>-0.8</ele>
        <time>2017-10-27T08:31:50.446Z</time>
      </trkpt>
      <trkpt lat="43.50672" lon="3.88424">
        <ele>-0.8</ele>
        <time>2017-10-27T08:31:51.448Z</time>
      </trkpt>
      <trkpt lat="43.50668" lon="3.88429">
        <ele>-0.7</ele>
        <time>2017-10-27T08:31:52.431Z</time>
      </trkpt>
      <trkpt lat="43.50665" lon="3.88434">
        <ele>-0.7</ele>
        <time>2017-10-27T08:31:53.432Z</time>
      </trkpt>
      <trkpt lat="43.50662" lon="3.88439">
        <ele>-0.8</ele>
        <time>2017-10-27T08:31:54.433Z</time>
      </trkpt>
      <trkpt lat="43.5066" lon="3.88445">
        <ele>-0.8</ele>
        <time>2017-10-27T08:31:55.450Z</time>
      </trkpt>
      <trkpt lat="43.50659" lon="3.8845">
        <ele>-0.8</ele>
        <time>2017-10-27T08:31:56.450Z</time>
      </trkpt>
      <trkpt lat="43.50658" lon="3.88456">
        <ele>-0.5</ele>
        <time>2017-10-27T08:31:57.441Z</time>
      </trkpt>
      <trkpt lat="43.50659" lon="3.88461">
        <ele>-0.3</ele>
        <time>2017-10-27T08:31:58.450Z</time>
      </trkpt>
      <trkpt lat="43.50661" lon="3.88467">
        <ele>-0.2</ele>
        <time>2017-10-27T08:31:59.454Z</time>
      </trkpt>
      <trkpt lat="43.50664" lon="3.88472">
        <ele>-0.1</ele>
        <time>2017-10-27T08:32:00.450Z</time>
      </trkpt>
      <trkpt lat="43.50667" lon="3.88477">
        <ele>-0.1</ele>
        <time>2017-10-27T08:32:01.449Z</time>
      </trkpt>
      <trkpt lat="43.50669" lon="3.88483">
        <ele>-0.1</ele>
        <time>2017-10-27T08:32:02.448Z</time>
      </trkpt>
      <trkpt lat="43.50672" lon="3.88488">
        <ele>-0.1</ele>
        <time>2017-10-27T08:32:03.449Z</time>
      </trkpt>
      <trkpt lat="43.50675" lon="3.88494">
        <ele>-0.1</ele>
        <time>2017-10-27T08:32:04.447Z</time>
      </trkpt>
      <trkpt lat="43.50679" lon="3.88499">
        <ele>-0.1</ele>
        <time>2017-10-27T08:32:05.453Z</time>
      </trkpt>
      <trkpt lat="43.50682" lon="3.88504">
        <ele>-0.1</ele>
        <time>2017-10-27T08:32:06.448Z</time>
      </trkpt>
      <trkpt lat="43.50685" lon="3.8851">
        <ele>-0.1</ele>
        <time>2017-10-27T08:32:07.451Z</time>
      </trkpt>
      <trkpt lat="43.50688" lon="3.88516">
        <ele>-0.2</ele>
        <time>2017-10-27T08:32:08.433Z</time>
      </trkpt>
      <trkpt lat="43.50691" lon="3.88522">
        <ele>-0.1</ele>
        <time>2017-10-27T08:32:09.433Z</time>
      </trkpt>
      <trkpt lat="43.50694" lon="3.88528">
        <ele>-0.1</ele>
        <time>2017-10-27T08:32:10.433Z</time>
      </trkpt>
      <trkpt lat="43.50697" lon="3.88534">
        <ele>-0.2</ele>
        <time>2017-10-27T08:32:11.449Z</time>
      </trkpt>
      <trkpt lat="43.50701" lon="3.8854">
        <ele>-0.1</ele>
        <time>2017-10-27T08:32:12.464Z</time>
      </trkpt>
      <trkpt lat="43.50704" lon="3.88546">
        <ele>-0.1</ele>
        <time>2017-10-27T08:32:13.448Z</time>
      </trkpt>
      <trkpt lat="43.50707" lon="3.88552">
        <ele>-0.1</ele>
        <time>2017-10-27T08:32:14.456Z</time>
      </trkpt>
      <trkpt lat="43.5071" lon="3.88558">
        <ele>-0.1</ele>
        <time>2017-10-27T08:32:15.456Z</time>
      </trkpt>
      <trkpt lat="43.50713" lon="3.88565">
        <ele>1</ele>
        <time>2017-10-27T08:32:16.448Z</time>
      </trkpt>
      <trkpt lat="43.50717" lon="3.88571">
        <ele>1</ele>
        <time>2017-10-27T08:32:17.454Z</time>
      </trkpt>
      <trkpt lat="43.5072" lon="3.88577">
        <ele>1</ele>
        <time>2017-10-27T08:32:18.454Z</time>
      </trkpt>
      <trkpt lat="43.50723" lon="3.88583">
        <ele>-0.1</ele>
        <time>2017-10-27T08:32:19.454Z</time>
      </trkpt>
      <trkpt lat="43.50727" lon="3.88589">
        <ele>-0.1</ele>
        <time>2017-10-27T08:32:20.447Z</time>
      </trkpt>
      <trkpt lat="43.50731" lon="3.88595">
        <ele>-0.1</ele>
        <time>2017-10-27T08:32:21.447Z</time>
      </trkpt>
      <trkpt lat="43.50734" lon="3.88601">
        <ele>-0.1</ele>
        <time>2017-10-27T08:32:22.446Z</time>
      </trkpt>
      <trkpt lat="43.50738" lon="3.88606">
        <time>2017-10-27T08:32:23.457Z</time>
      </trkpt>
      <trkpt lat="43.50741" lon="3.88612">
        <ele>2</ele>
        <time>2017-10-27T08:32:24.449Z</time>
      </trkpt>
      <trkpt lat="43.50745" lon="3.88618">
        <ele>-0.1</ele>
        <time>2017-10-27T08:32:25.446Z</time>
      </trkpt>
      <trkpt lat="43.50748" lon="3.88624">
        <ele>-0.1</ele>
        <time>2017-10-27T08:32:26.447Z</time>
      </trkpt>
      <trkpt lat="43.50752" lon="3.8863">
        <ele>-0.1</ele>
        <time>2017-10-27T08:32:27.446Z</time>
      </trkpt>
      <trkpt lat="43.50755" lon="3.88636">
        <ele>-0.1</ele>
        <time>2017-10-27T08:32:28.432Z</time>
      </trkpt>
      <trkpt lat="43.50758" lon="3.88643">
        <ele>-0.1</ele>
        <time>2017-10-27T08:32:29.433Z</time>
      </trkpt>
      <trkpt lat="43.50761" lon="3.88649">
        <ele>2</ele>
        <time>2017-10-27T08:32:30.434Z</time>
      </trkpt>
      <trkpt lat="43.50765" lon="3.88655">
        <ele>2</ele>
        <time>2017-10-27T08:32:31.435Z</time>
      </trkpt>
      <trkpt lat="43.50768" lon="3.88661">
        <ele>2</ele>
        <time>2017-10-27T08:32:32.436Z</time>
      </trkpt>
      <trkpt lat="43.50771" lon="3.88667">
        <ele>2</ele>
        <time>2017-10-27T08:32:33.487Z</time>
      </trkpt>
      <trkpt lat="43.50775" lon="3.88673">
        <ele>0.1</ele>
        <time>2017-10-27T08:32:34.453Z</time>
      </trkpt>
      <trkpt lat="43.50778" lon="3.88678">
        <ele>0.1</ele>
        <time>2017-10-27T08:32:35.455Z</time>
      </trkpt>
      <trkpt lat="43.50782" lon="3.88684">
        <ele>0.1</ele>
        <time>2017-10-27T08:32:36.448Z</time>
      </trkpt>
      <trkpt lat="43.50786" lon="3.8869">
        <ele>0.1</ele>
        <time>2017-10-27T08:32:37.472Z</time>
      </trkpt>
      <trkpt lat="43.5079" lon="3.88696">
        <ele>0.1</ele>
        <time>2017-10-27T08:32:38.449Z</time>
      </trkpt>
      <trkpt lat="43.50793" lon="3.88702">
        <ele>0.1</ele>
        <time>2017-10-27T08:32:39.451Z</time>
      </trkpt>
      <trkpt lat="43.50797" lon="3.88708">
        <ele>1.1</ele>
        <time>2017-10-27T08:32:40.448Z</time>
      </trkpt>
      <trkpt lat="43.50801" lon="3.88714">
        <ele>1.1</ele>
        <time>2017-10-27T08:32:41.449Z</time>
      </trkpt>
      <trkpt lat="43.50804" lon="3.8872">
        <ele>0.1</ele>
        <time>2017-10-27T08:32:42.450Z</time>
      </trkpt>
      <trkpt lat="43.50808" lon="3.88726">
        <ele>1.1</ele>
        <time>2017-10-27T08:32:43.449Z</time>
      </trkpt>
      <trkpt lat="43.50812" lon="3.88732">
        <ele>1.3</ele>
        <time>2017-10-27T08:32:44.448Z</time>
      </trkpt>
      <trkpt lat="43.50816" lon="3.88738">
        <ele>1.4</ele>
        <time>2017-10-27T08:32:45.447Z</time>
      </trkpt>
      <trkpt lat="43.5082" lon="3.88744">
        <ele>1.4</ele>
        <time>2017-10-27T08:32:46.447Z</time>
      </trkpt>
      <trkpt lat="43.50823" lon="3.8875">
        <ele>1.4</ele>
        <time>2017-10-27T08:32:47.448Z</time>
      </trkpt>
      <trkpt lat="43.50827" lon="3.88756">
        <ele>1.2</ele>
        <time>2017-10-27T08:32:48.438Z</time>
      </trkpt>
      <trkpt lat="43.5083" lon="3.88762">
        <ele>1.1</ele>
        <time>2017-10-27T08:32:49.434Z</time>
      </trkpt>
      <trkpt lat="43.50833" lon="3.88769">
        <ele>1</ele>
        <time>2017-10-27T08:32:50.433Z</time>
      </trkpt>
      <trkpt lat="43.50836" lon="3.88775">
        <ele>1</ele>
        <time>2017-10-27T08:32:51.451Z</time>
      </trkpt>
      <trkpt lat="43.50839" lon="3.88781">
        <ele>1.1</ele>
        <time>2017-10-27T08:32:52.434Z</time>
      </trkpt>
      <trkpt lat="43.50843" lon="3.88787">
        <ele>1.3</ele>
        <time>2017-10-27T08:32:53.454Z</time>
      </trkpt>
      <trkpt lat="43.50846" lon="3.88793">
        <ele>1.6</ele>
        <time>2017-10-27T08:32:54.436Z</time>
      </trkpt>
      <trkpt lat="43.50849" lon="3.888">
        <ele>1.8</ele>
        <time>2017-10-27T08:32:55.446Z</time>
      </trkpt>
      <trkpt lat="43.50852" lon="3.88806">
        <ele>2</ele>
        <time>2017-10-27T08:32:56.456Z</time>
      </trkpt>
      <trkpt lat="43.50855" lon="3.88811">
        <ele>1.8</ele>
        <time>2017-10-27T08:32:57.434Z</time>
      </trkpt>
      <trkpt lat="43.50859" lon="3.88817">
        <ele>0.1</ele>
        <time>2017-10-27T08:32:58.434Z</time>
      </trkpt>
      <trkpt lat="43.50862" lon="3.88824">
        <ele>0.1</ele>
        <time>2017-10-27T08:32:59.457Z</time>
      </trkpt>
      <trkpt lat="43.50865" lon="3.8883">
        <ele>0.2</ele>
        <time>2017-10-27T08:33:00.454Z</time>
      </trkpt>
      <trkpt lat="43.50867" lon="3.88836">
        <ele>0.2</ele>
        <time>2017-10-27T08:33:01.450Z</time>
      </trkpt>
      <trkpt lat="43.5087" lon="3.88842">
        <ele>0.2</ele>
        <time>2017-10-27T08:33:02.449Z</time>
      </trkpt>
      <trkpt lat="43.50873" lon="3.88848">
        <ele>0.1</ele>
        <time>2017-10-27T08:33:03.451Z</time>
      </trkpt>
      <trkpt lat="43.50876" lon="3.88854">
        <ele>0.1</ele>
        <time>2017-10-27T08:33:04.448Z</time>
      </trkpt>
      <trkpt lat="43.50878" lon="3.88861">
        <ele>0.2</ele>
        <time>2017-10-27T08:33:05.449Z</time>
      </trkpt>
      <trkpt lat="43.50881" lon="3.88867">
        <ele>0.2</ele>
        <time>2017-10-27T08:33:06.450Z</time>
      </trkpt>
      <trkpt lat="43.50884" lon="3.88873">
        <ele>0.2</ele>
        <time>2017-10-27T08:33:07.449Z</time>
      </trkpt>
      <trkpt lat="43.50886" lon="3.8888">
        <ele>0.2</ele>
        <time>2017-10-27T08:33:08.462Z</time>
      </trkpt>
      <trkpt lat="43.50889" lon="3.88886">
        <ele>0.2</ele>
        <time>2017-10-27T08:33:09.449Z</time>
      </trkpt>
      <trkpt lat="43.50891" lon="3.88893">
        <ele>0.3</ele>
        <time>2017-10-27T08:33:10.434Z</time>
      </trkpt>
      <trkpt lat="43.50894" lon="3.88899">
        <ele>0.3</ele>
        <time>2017-10-27T08:33:11.435Z</time>
      </trkpt>
      <trkpt lat="43.50897" lon="3.88905">
        <ele>0.3</ele>
        <time>2017-10-27T08:33:12.441Z</time>
      </trkpt>
      <trkpt lat="43.509" lon="3.8891">
        <ele>0.3</ele>
        <time>2017-10-27T08:33:13.450Z</time>
      </trkpt>
      <trkpt lat="43.50904" lon="3.88916">
        <ele>0.3</ele>
        <time>2017-10-27T08:33:14.454Z</time>
      </trkpt>
      <trkpt lat="43.50907" lon="3.88921">
        <ele>0.2</ele>
        <time>2017-10-27T08:33:15.449Z</time>
      </trkpt>
      <trkpt lat="43.50911" lon="3.88927">
        <ele>0.2</ele>
        <time>2017-10-27T08:33:16.450Z</time>
      </trkpt>
      <trkpt lat="43.50915" lon="3.88932">
        <ele>0.2</ele>
        <time>2017-10-27T08:33:17.445Z</time>
      </trkpt>
      <trkpt lat="43.50918" lon="3.88937">
        <ele>0.1</ele>
        <time>2017-10-27T08:33:18.448Z</time>
      </trkpt>
      <trkpt lat="43.50922" lon="3.88942">
        <ele>0.1</ele>
        <time>2017-10-27T08:33:19.446Z</time>
      </trkpt>
      <trkpt lat="43.50926" lon="3.88947">
        <ele>0.1</ele>
        <time>2017-10-27T08:33:20.448Z</time>
      </trkpt>
      <trkpt lat="43.5093" lon="3.88952">
        <ele>0.1</ele>
        <time>2017-10-27T08:33:21.446Z</time>
      </trkpt>
      <trkpt lat="43.50934" lon="3.88957">
        <ele>0.1</ele>
        <time>2017-10-27T08:33:22.445Z</time>
      </trkpt>
      <trkpt lat="43.50937" lon="3.88962">
        <ele>0.1</ele>
        <time>2017-10-27T08:33:23.446Z</time>
      </trkpt>
      <trkpt lat="43.5094" lon="3.88967">
        <ele>0.1</ele>
        <time>2017-10-27T08:33:24.434Z</time>
      </trkpt>
      <trkpt lat="43.50943" lon="3.88973">
        <ele>0.1</ele>
        <time>2017-10-27T08:33:25.445Z</time>
      </trkpt>
      <trkpt lat="43.50946" lon="3.88979">
        <ele>0.1</ele>
        <time>2017-10-27T08:33:26.440Z</time>
      </trkpt>
      <trkpt lat="43.50949" lon="3.88984">
        <ele>0.1</ele>
        <time>2017-10-27T08:33:27.441Z</time>
      </trkpt>
      <trkpt lat="43.50952" lon="3.8899">
        <ele>0.1</ele>
        <time>2017-10-27T08:33:28.433Z</time>
      </trkpt>
      <trkpt lat="43.50955" lon="3.88995">
        <ele>0.1</ele>
        <time>2017-10-27T08:33:29.433Z</time>
      </trkpt>
      <trkpt lat="43.50958" lon="3.89001">
        <ele>0.1</ele>
        <time>2017-10-27T08:33:30.435Z</time>
      </trkpt>
      <trkpt lat="43.50961" lon="3.89006">
        <ele>0.2</ele>
        <time>2017-10-27T08:33:31.439Z</time>
      </trkpt>
      <trkpt lat="43.50963" lon="3.89011">
        <ele>0.2</ele>
        <time>2017-10-27T08:33:32.458Z</time>
      </trkpt>
      <trkpt lat="43.50966" lon="3.89016">
        <ele>0.2</ele>
        <time>2017-10-27T08:33:33.448Z</time>
      </trkpt>
      <trkpt lat="43.50968" lon="3.89021">
        <ele>0.2</ele>
        <time>2017-10-27T08:33:34.447Z</time>
      </trkpt>
      <trkpt lat="43.5097" lon="3.89026">
        <ele>0.2</ele>
        <time>2017-10-27T08:33:35.452Z</time>
      </trkpt>
      <trkpt lat="43.50972" lon="3.89031">
        <ele>0.2</ele>
        <time>2017-10-27T08:33:36.449Z</time>
      </trkpt>
      <trkpt lat="43.50974" lon="3.89036">
        <ele>0.1</ele>
        <time>2017-10-27T08:33:37.447Z</time>
      </trkpt>
      <trkpt lat="43.50976" lon="3.89041">
        <ele>0.1</ele>
        <time>2017-10-27T08:33:38.449Z</time>
      </trkpt>
      <trkpt lat="43.50978" lon="3.89047">
        <ele>0.1</ele>
        <time>2017-10-27T08:33:39.446Z</time>
      </trkpt>
      <trkpt lat="43.5098" lon="3.89053">
        <ele>1.7</ele>
        <time>2017-10-27T08:33:40.446Z</time>
      </trkpt>
      <trkpt lat="43.50982" lon="3.89059">
        <ele>0.1</ele>
        <time>2017-10-27T08:33:41.449Z</time>
      </trkpt>
      <trkpt lat="43.50984" lon="3.89065">
        <ele>0.1</ele>
        <time>2017-10-27T08:33:42.455Z</time>
      </trkpt>
      <trkpt lat="43.50987" lon="3.89071">
        <ele>0.1</ele>
        <time>2017-10-27T08:33:43.446Z</time>
      </trkpt>
      <trkpt lat="43.5099" lon="3.89077">
        <ele>0.2</ele>
        <time>2017-10-27T08:33:44.437Z</time>
      </trkpt>
      <trkpt lat="43.50993" lon="3.89083">
        <ele>0.3</ele>
        <time>2017-10-27T08:33:45.432Z</time>
      </trkpt>
      <trkpt lat="43.50995" lon="3.89089">
        <ele>0.4</ele>
        <time>2017-10-27T08:33:46.431Z</time>
      </trkpt>
      <trkpt lat="43.50998" lon="3.89095">
        <ele>0.3</ele>
        <time>2017-10-27T08:33:47.432Z</time>
      </trkpt>
      <trkpt lat="43.51001" lon="3.89101">
        <ele>0.3</ele>
        <time>2017-10-27T08:33:48.438Z</time>
      </trkpt>
      <trkpt lat="43.51004" lon="3.89107">
        <ele>0.4</ele>
        <time>2017-10-27T08:33:49.451Z</time>
      </trkpt>
      <trkpt lat="43.51007" lon="3.89113">
        <ele>0.4</ele>
        <time>2017-10-27T08:33:50.445Z</time>
      </trkpt>
      <trkpt lat="43.5101" lon="3.89119">
        <ele>0.5</ele>
        <time>2017-10-27T08:33:51.454Z</time>
      </trkpt>
      <trkpt lat="43.51013" lon="3.89125">
        <ele>0.5</ele>
        <time>2017-10-27T08:33:52.456Z</time>
      </trkpt>
      <trkpt lat="43.51016" lon="3.89131">
        <ele>0.5</ele>
        <time>2017-10-27T08:33:53.462Z</time>
      </trkpt>
      <trkpt lat="43.51019" lon="3.89138">
        <ele>0.5</ele>
        <time>2017-10-27T08:33:54.455Z</time>
      </trkpt>
      <trkpt lat="43.51022" lon="3.89144">
        <ele>0.5</ele>
        <time>2017-10-27T08:33:55.447Z</time>
      </trkpt>
      <trkpt lat="43.51025" lon="3.8915">
        <ele>0.5</ele>
        <time>2017-10-27T08:33:56.450Z</time>
      </trkpt>
      <trkpt lat="43.51028" lon="3.89157">
        <ele>0.5</ele>
        <time>2017-10-27T08:33:57.437Z</time>
      </trkpt>
      <trkpt lat="43.5103" lon="3.89163">
        <ele>0.5</ele>
        <time>2017-10-27T08:33:58.450Z</time>
      </trkpt>
      <trkpt lat="43.51033" lon="3.8917">
        <ele>0.5</ele>
        <time>2017-10-27T08:33:59.447Z</time>
      </trkpt>
      <trkpt lat="43.51036" lon="3.89176">
        <ele>0.6</ele>
        <time>2017-10-27T08:34:00.450Z</time>
      </trkpt>
      <trkpt lat="43.51039" lon="3.89182">
        <ele>0.6</ele>
        <time>2017-10-27T08:34:01.448Z</time>
      </trkpt>
      <trkpt lat="43.51043" lon="3.89189">
        <ele>0.5</ele>
        <time>2017-10-27T08:34:02.447Z</time>
      </trkpt>
      <trkpt lat="43.51046" lon="3.89195">
        <ele>0.5</ele>
        <time>2017-10-27T08:34:03.447Z</time>
      </trkpt>
      <trkpt lat="43.51049" lon="3.89202">
        <ele>0.6</ele>
        <time>2017-10-27T08:34:04.446Z</time>
      </trkpt>
      <trkpt lat="43.51052" lon="3.89209">
        <ele>0.6</ele>
        <time>2017-10-27T08:34:05.460Z</time>
      </trkpt>
      <trkpt lat="43.51055" lon="3.89215">
        <ele>0.6</ele>
        <time>2017-10-27T08:34:06.435Z</time>
      </trkpt>
      <trkpt lat="43.51058" lon="3.89222">
        <ele>0.5</ele>
        <time>2017-10-27T08:34:07.433Z</time>
      </trkpt>
      <trkpt lat="43.51061" lon="3.89229">
        <ele>0.6</ele>
        <time>2017-10-27T08:34:08.433Z</time>
      </trkpt>
      <trkpt lat="43.51065" lon="3.89236">
        <ele>0.6</ele>
        <time>2017-10-27T08:34:09.447Z</time>
      </trkpt>
      <trkpt lat="43.51068" lon="3.89242">
        <ele>0.6</ele>
        <time>2017-10-27T08:34:10.447Z</time>
      </trkpt>
      <trkpt lat="43.51071" lon="3.89249">
        <ele>0.6</ele>
        <time>2017-10-27T08:34:11.448Z</time>
      </trkpt>
      <trkpt lat="43.51074" lon="3.89256">
        <ele>0.6</ele>
        <time>2017-10-27T08:34:12.454Z</time>
      </trkpt>
      <trkpt lat="43.51077" lon="3.89263">
        <ele>0.7</ele>
        <time>2017-10-27T08:34:13.449Z</time>
      </trkpt>
      <trkpt lat="43.5108" lon="3.8927">
        <ele>0.7</ele>
        <time>2017-10-27T08:34:14.434Z</time>
      </trkpt>
      <trkpt lat="43.51084" lon="3.89277">
        <ele>0.7</ele>
        <time>2017-10-27T08:34:15.435Z</time>
      </trkpt>
      <trkpt lat="43.51087" lon="3.89284">
        <ele>0.7</ele>
        <time>2017-10-27T08:34:16.437Z</time>
      </trkpt>
      <trkpt lat="43.5109" lon="3.89291">
        <ele>0.7</ele>
        <time>2017-10-27T08:34:17.437Z</time>
      </trkpt>
      <trkpt lat="43.51093" lon="3.89298">
        <ele>0.7</ele>
        <time>2017-10-27T08:34:18.445Z</time>
      </trkpt>
      <trkpt lat="43.51097" lon="3.89304">
        <ele>0.7</ele>
        <time>2017-10-27T08:34:19.448Z</time>
      </trkpt>
      <trkpt lat="43.511" lon="3.89311">
        <ele>0.7</ele>
        <time>2017-10-27T08:34:20.449Z</time>
      </trkpt>
      <trkpt lat="43.51103" lon="3.89318">
        <ele>0.7</ele>
        <time>2017-10-27T08:34:21.462Z</time>
      </trkpt>
      <trkpt lat="43.51106" lon="3.89325">
        <ele>0.7</ele>
        <time>2017-10-27T08:34:22.447Z</time>
      </trkpt>
      <trkpt lat="43.51109" lon="3.89331">
        <ele>0.8</ele>
        <time>2017-10-27T08:34:23.453Z</time>
      </trkpt>
      <trkpt lat="43.51112" lon="3.89338">
        <ele>0.8</ele>
        <time>2017-10-27T08:34:24.435Z</time>
      </trkpt>
      <trkpt lat="43.51115" lon="3.89345">
        <ele>0.8</ele>
        <time>2017-10-27T08:34:25.434Z</time>
      </trkpt>
      <trkpt lat="43.51119" lon="3.89351">
        <ele>0.8</ele>
        <time>2017-10-27T08:34:26.433Z</time>
      </trkpt>
      <trkpt lat="43.51122" lon="3.89358">
        <ele>0.8</ele>
        <time>2017-10-27T08:34:27.441Z</time>
      </trkpt>
      <trkpt lat="43.51125" lon="3.89364">
        <ele>0.7</ele>
        <time>2017-10-27T08:34:28.454Z</time>
      </trkpt>
      <trkpt lat="43.51128" lon="3.89371">
        <ele>0.7</ele>
        <time>2017-10-27T08:34:29.454Z</time>
      </trkpt>
      <trkpt lat="43.51131" lon="3.89378">
        <ele>0.7</ele>
        <time>2017-10-27T08:34:30.451Z</time>
      </trkpt>
      <trkpt lat="43.51134" lon="3.89385">
        <ele>0.6</ele>
        <time>2017-10-27T08:34:31.449Z</time>
      </trkpt>
      <trkpt lat="43.51137" lon="3.89391">
        <ele>0.6</ele>
        <time>2017-10-27T08:34:32.450Z</time>
      </trkpt>
      <trkpt lat="43.5114" lon="3.89398">
        <ele>0.5</ele>
        <time>2017-10-27T08:34:33.435Z</time>
      </trkpt>
      <trkpt lat="43.51144" lon="3.89405">
        <ele>0.5</ele>
        <time>2017-10-27T08:34:34.436Z</time>
      </trkpt>
      <trkpt lat="43.51147" lon="3.89412">
        <ele>0.4</ele>
        <time>2017-10-27T08:34:35.449Z</time>
      </trkpt>
      <trkpt lat="43.5115" lon="3.89419">
        <ele>0.4</ele>
        <time>2017-10-27T08:34:36.452Z</time>
      </trkpt>
      <trkpt lat="43.51153" lon="3.89426">
        <ele>0.4</ele>
        <time>2017-10-27T08:34:37.449Z</time>
      </trkpt>
      <trkpt lat="43.51156" lon="3.89432">
        <ele>0.5</ele>
        <time>2017-10-27T08:34:38.450Z</time>
      </trkpt>
      <trkpt lat="43.51159" lon="3.89439">
        <ele>0.5</ele>
        <time>2017-10-27T08:34:39.449Z</time>
      </trkpt>
      <trkpt lat="43.51162" lon="3.89446">
        <ele>0.5</ele>
        <time>2017-10-27T08:34:40.452Z</time>
      </trkpt>
      <trkpt lat="43.51166" lon="3.89453">
        <ele>0.5</ele>
        <time>2017-10-27T08:34:41.449Z</time>
      </trkpt>
      <trkpt lat="43.51169" lon="3.8946">
        <ele>0.5</ele>
        <time>2017-10-27T08:34:42.450Z</time>
      </trkpt>
      <trkpt lat="43.51172" lon="3.89466">
        <ele>0.5</ele>
        <time>2017-10-27T08:34:43.448Z</time>
      </trkpt>
      <trkpt lat="43.51175" lon="3.89473">
        <ele>0.5</ele>
        <time>2017-10-27T08:34:44.457Z</time>
      </trkpt>
      <trkpt lat="43.51178" lon="3.8948">
        <ele>0.5</ele>
        <time>2017-10-27T08:34:45.435Z</time>
      </trkpt>
      <trkpt lat="43.51181" lon="3.89486">
        <ele>0.5</ele>
        <time>2017-10-27T08:34:46.434Z</time>
      </trkpt>
      <trkpt lat="43.51184" lon="3.89493">
        <ele>0.5</ele>
        <time>2017-10-27T08:34:47.435Z</time>
      </trkpt>
      <trkpt lat="43.51188" lon="3.895">
        <ele>0.5</ele>
        <time>2017-10-27T08:34:48.447Z</time>
      </trkpt>
      <trkpt lat="43.51191" lon="3.89506">
        <ele>0.5</ele>
        <time>2017-10-27T08:34:49.472Z</time>
      </trkpt>
      <trkpt lat="43.51194" lon="3.89513">
        <ele>0.5</ele>
        <time>2017-10-27T08:34:50.456Z</time>
      </trkpt>
      <trkpt lat="43.51197" lon="3.89519">
        <ele>0.4</ele>
        <time>2017-10-27T08:34:51.449Z</time>
      </trkpt>
      <trkpt lat="43.512" lon="3.89526">
        <ele>0.4</ele>
        <time>2017-10-27T08:34:52.451Z</time>
      </trkpt>
      <trkpt lat="43.51203" lon="3.89533">
        <ele>0.4</ele>
        <time>2017-10-27T08:34:53.449Z</time>
      </trkpt>
      <trkpt lat="43.51207" lon="3.89539">
        <ele>0.4</ele>
        <time>2017-10-27T08:34:54.451Z</time>
      </trkpt>
      <trkpt lat="43.5121" lon="3.89546">
        <ele>0.4</ele>
        <time>2017-10-27T08:34:55.452Z</time>
      </trkpt>
      <trkpt lat="43.51213" lon="3.89553">
        <ele>0.5</ele>
        <time>2017-10-27T08:34:56.445Z</time>
      </trkpt>
      <trkpt lat="43.51216" lon="3.89559">
        <ele>0.6</ele>
        <time>2017-10-27T08:34:57.459Z</time>
      </trkpt>
      <trkpt lat="43.51219" lon="3.89566">
        <ele>0.5</ele>
        <time>2017-10-27T08:34:58.449Z</time>
      </trkpt>
      <trkpt lat="43.51222" lon="3.89572">
        <ele>0.5</ele>
        <time>2017-10-27T08:34:59.451Z</time>
      </trkpt>
      <trkpt lat="43.51225" lon="3.89579">
        <ele>0.6</ele>
        <time>2017-10-27T08:35:00.451Z</time>
      </trkpt>
      <trkpt lat="43.51229" lon="3.89585">
        <ele>0.6</ele>
        <time>2017-10-27T08:35:01.454Z</time>
      </trkpt>
      <trkpt lat="43.51232" lon="3.89592">
        <ele>0.6</ele>
        <time>2017-10-27T08:35:02.450Z</time>
      </trkpt>
      <trkpt lat="43.51235" lon="3.89598">
        <ele>0.6</ele>
        <time>2017-10-27T08:35:03.440Z</time>
      </trkpt>
      <trkpt lat="43.51238" lon="3.89605">
        <ele>0.6</ele>
        <time>2017-10-27T08:35:04.435Z</time>
      </trkpt>
      <trkpt lat="43.51241" lon="3.89612">
        <ele>0.6</ele>
        <time>2017-10-27T08:35:05.435Z</time>
      </trkpt>
      <trkpt lat="43.51244" lon="3.89618">
        <ele>0.7</ele>
        <time>2017-10-27T08:35:06.436Z</time>
      </trkpt>
      <trkpt lat="43.51247" lon="3.89625">
        <ele>0.7</ele>
        <time>2017-10-27T08:35:07.435Z</time>
      </trkpt>
      <trkpt lat="43.5125" lon="3.89631">
        <ele>0.7</ele>
        <time>2017-10-27T08:35:08.436Z</time>
      </trkpt>
      <trkpt lat="43.51253" lon="3.89638">
        <ele>0.7</ele>
        <time>2017-10-27T08:35:09.439Z</time>
      </trkpt>
      <trkpt lat="43.51256" lon="3.89644">
        <ele>0.7</ele>
        <time>2017-10-27T08:35:10.447Z</time>
      </trkpt>
      <trkpt lat="43.51259" lon="3.8965">
        <ele>0.7</ele>
        <time>2017-10-27T08:35:11.435Z</time>
      </trkpt>
      <trkpt lat="43.51262" lon="3.89657">
        <ele>0.7</ele>
        <time>2017-10-27T08:35:12.455Z</time>
      </trkpt>
      <trkpt lat="43.51265" lon="3.89663">
        <ele>0.7</ele>
        <time>2017-10-27T08:35:13.453Z</time>
      </trkpt>
      <trkpt lat="43.51268" lon="3.8967">
        <ele>0.7</ele>
        <time>2017-10-27T08:35:14.472Z</time>
      </trkpt>
      <trkpt lat="43.51271" lon="3.89677">
        <ele>0.7</ele>
        <time>2017-10-27T08:35:15.456Z</time>
      </trkpt>
      <trkpt lat="43.51274" lon="3.89684">
        <ele>0.7</ele>
        <time>2017-10-27T08:35:16.465Z</time>
      </trkpt>
      <trkpt lat="43.51277" lon="3.89691">
        <ele>0.6</ele>
        <time>2017-10-27T08:35:17.449Z</time>
      </trkpt>
      <trkpt lat="43.5128" lon="3.89697">
        <ele>0.6</ele>
        <time>2017-10-27T08:35:18.452Z</time>
      </trkpt>
      <trkpt lat="43.51284" lon="3.89704">
        <ele>0.6</ele>
        <time>2017-10-27T08:35:19.454Z</time>
      </trkpt>
      <trkpt lat="43.51287" lon="3.89711">
        <ele>0.6</ele>
        <time>2017-10-27T08:35:20.454Z</time>
      </trkpt>
      <trkpt lat="43.5129" lon="3.89718">
        <ele>0.6</ele>
        <time>2017-10-27T08:35:21.449Z</time>
      </trkpt>
      <trkpt lat="43.51293" lon="3.89724">
        <ele>0.7</ele>
        <time>2017-10-27T08:35:22.450Z</time>
      </trkpt>
      <trkpt lat="43.51296" lon="3.89731">
        <ele>0.7</ele>
        <time>2017-10-27T08:35:23.451Z</time>
      </trkpt>
      <trkpt lat="43.513" lon="3.89738">
        <ele>0.7</ele>
        <time>2017-10-27T08:35:24.452Z</time>
      </trkpt>
      <trkpt lat="43.51303" lon="3.89745">
        <ele>0.6</ele>
        <time>2017-10-27T08:35:25.454Z</time>
      </trkpt>
      <trkpt lat="43.51306" lon="3.89751">
        <ele>0.6</ele>
        <time>2017-10-27T08:35:26.450Z</time>
      </trkpt>
      <trkpt lat="43.51309" lon="3.89758">
        <ele>0.6</ele>
        <time>2017-10-27T08:35:27.435Z</time>
      </trkpt>
      <trkpt lat="43.51312" lon="3.89765">
        <ele>0.6</ele>
        <time>2017-10-27T08:35:28.435Z</time>
      </trkpt>
      <trkpt lat="43.51316" lon="3.89771">
        <ele>0.6</ele>
        <time>2017-10-27T08:35:29.436Z</time>
      </trkpt>
      <trkpt lat="43.51319" lon="3.89778">
        <ele>0.6</ele>
        <time>2017-10-27T08:35:30.438Z</time>
      </trkpt>
      <trkpt lat="43.51322" lon="3.89785">
        <ele>0.6</ele>
        <time>2017-10-27T08:35:31.454Z</time>
      </trkpt>
      <trkpt lat="43.51325" lon="3.89792">
        <ele>0.5</ele>
        <time>2017-10-27T08:35:32.451Z</time>
      </trkpt>
      <trkpt lat="43.51328" lon="3.89799">
        <ele>0.5</ele>
        <time>2017-10-27T08:35:33.449Z</time>
      </trkpt>
      <trkpt lat="43.51331" lon="3.89806">
        <ele>0.5</ele>
        <time>2017-10-27T08:35:34.446Z</time>
      </trkpt>
      <trkpt lat="43.51335" lon="3.89813">
        <ele>0.5</ele>
        <time>2017-10-27T08:35:35.454Z</time>
      </trkpt>
      <trkpt lat="43.51338" lon="3.89819">
        <ele>0.5</ele>
        <time>2017-10-27T08:35:36.457Z</time>
      </trkpt>
      <trkpt lat="43.51341" lon="3.89826">
        <ele>0.5</ele>
        <time>2017-10-27T08:35:37.449Z</time>
      </trkpt>
      <trkpt lat="43.51344" lon="3.89833">
        <ele>0.5</ele>
        <time>2017-10-27T08:35:38.456Z</time>
      </trkpt>
      <trkpt lat="43.51347" lon="3.89839">
        <ele>0.5</ele>
        <time>2017-10-27T08:35:39.454Z</time>
      </trkpt>
      <trkpt lat="43.5135" lon="3.89846">
        <ele>0.5</ele>
        <time>2017-10-27T08:35:40.449Z</time>
      </trkpt>
      <trkpt lat="43.51353" lon="3.89852">
        <ele>0.4</ele>
        <time>2017-10-27T08:35:41.456Z</time>
      </trkpt>
      <trkpt lat="43.51356" lon="3.89859">
        <ele>0.4</ele>
        <time>2017-10-27T08:35:42.453Z</time>
      </trkpt>
      <trkpt lat="43.51359" lon="3.89865">
        <ele>0.4</ele>
        <time>2017-10-27T08:35:43.450Z</time>
      </trkpt>
      <trkpt lat="43.51362" lon="3.89871">
        <ele>0.3</ele>
        <time>2017-10-27T08:35:44.451Z</time>
      </trkpt>
      <trkpt lat="43.51365" lon="3.89878">
        <ele>0.3</ele>
        <time>2017-10-27T08:35:45.461Z</time>
      </trkpt>
      <trkpt lat="43.51368" lon="3.89884">
        <ele>0.2</ele>
        <time>2017-10-27T08:35:46.431Z</time>
      </trkpt>
      <trkpt lat="43.51371" lon="3.89891">
        <ele>0.2</ele>
        <time>2017-10-27T08:35:47.431Z</time>
      </trkpt>
      <trkpt lat="43.51374" lon="3.89897">
        <ele>0.2</ele>
        <time>2017-10-27T08:35:48.434Z</time>
      </trkpt>
      <trkpt lat="43.51377" lon="3.89904">
        <ele>0.2</ele>
        <time>2017-10-27T08:35:49.432Z</time>
      </trkpt>
      <trkpt lat="43.5138" lon="3.8991">
        <ele>0.2</ele>
        <time>2017-10-27T08:35:50.431Z</time>
      </trkpt>
      <trkpt lat="43.51383" lon="3.89917">
        <ele>0.1</ele>
        <time>2017-10-27T08:35:51.446Z</time>
      </trkpt>
      <trkpt lat="43.51386" lon="3.89924">
        <ele>0.1</ele>
        <time>2017-10-27T08:35:52.453Z</time>
      </trkpt>
      <trkpt lat="43.51389" lon="3.8993">
        <ele>0.2</ele>
        <time>2017-10-27T08:35:53.458Z</time>
      </trkpt>
      <trkpt lat="43.51392" lon="3.89937">
        <ele>0.2</ele>
        <time>2017-10-27T08:35:54.459Z</time>
      </trkpt>
      <trkpt lat="43.51395" lon="3.89943">
        <ele>0.2</ele>
        <time>2017-10-27T08:35:55.436Z</time>
      </trkpt>
      <trkpt lat="43.51398" lon="3.89949">
        <ele>0.2</ele>
        <time>2017-10-27T08:35:56.456Z</time>
      </trkpt>
      <trkpt lat="43.51402" lon="3.89956">
        <ele>0.2</ele>
        <time>2017-10-27T08:35:57.436Z</time>
      </trkpt>
      <trkpt lat="43.51405" lon="3.89962">
        <ele>0.1</ele>
        <time>2017-10-27T08:35:58.449Z</time>
      </trkpt>
      <trkpt lat="43.51408" lon="3.89969">
        <ele>0.1</ele>
        <time>2017-10-27T08:35:59.450Z</time>
      </trkpt>
      <trkpt lat="43.51411" lon="3.89976">
        <ele>0.1</ele>
        <time>2017-10-27T08:36:00.456Z</time>
      </trkpt>
      <trkpt lat="43.51414" lon="3.89982">
        <ele>0.1</ele>
        <time>2017-10-27T08:36:01.450Z</time>
      </trkpt>
      <trkpt lat="43.51417" lon="3.89989">
        <ele>0.1</ele>
        <time>2017-10-27T08:36:02.450Z</time>
      </trkpt>
      <trkpt lat="43.5142" lon="3.89995">
        <ele>0.1</ele>
        <time>2017-10-27T08:36:03.450Z</time>
      </trkpt>
      <trkpt lat="43.51423" lon="3.90002">
        <ele>0.1</ele>
        <time>2017-10-27T08:36:04.435Z</time>
      </trkpt>
      <trkpt lat="43.51426" lon="3.90008">
        <ele>0.1</ele>
        <time>2017-10-27T08:36:05.450Z</time>
      </trkpt>
      <trkpt lat="43.51429" lon="3.90015">
        <ele>1.9</ele>
        <time>2017-10-27T08:36:06.462Z</time>
      </trkpt>
      <trkpt lat="43.51432" lon="3.90022">
        <ele>1.8</ele>
        <time>2017-10-27T08:36:07.436Z</time>
      </trkpt>
      <trkpt lat="43.51435" lon="3.90028">
        <ele>1.7</ele>
        <time>2017-10-27T08:36:08.436Z</time>
      </trkpt>
      <trkpt lat="43.51438" lon="3.90035">
        <ele>1.6</ele>
        <time>2017-10-27T08:36:09.437Z</time>
      </trkpt>
      <trkpt lat="43.51441" lon="3.90042">
        <ele>-0.1</ele>
        <time>2017-10-27T08:36:10.466Z</time>
      </trkpt>
      <trkpt lat="43.51444" lon="3.90048">
        <ele>-0.1</ele>
        <time>2017-10-27T08:36:11.454Z</time>
      </trkpt>
      <trkpt lat="43.51447" lon="3.90055">
        <ele>-0.1</ele>
        <time>2017-10-27T08:36:12.465Z</time>
      </trkpt>
      <trkpt lat="43.51451" lon="3.90062">
        <ele>-0.2</ele>
        <time>2017-10-27T08:36:13.463Z</time>
      </trkpt>
      <trkpt lat="43.51454" lon="3.90069">
        <ele>-0.2</ele>
        <time>2017-10-27T08:36:14.450Z</time>
      </trkpt>
      <trkpt lat="43.51457" lon="3.90075">
        <ele>-0.2</ele>
        <time>2017-10-27T08:36:15.452Z</time>
      </trkpt>
      <trkpt lat="43.5146" lon="3.90082">
        <ele>-0.2</ele>
        <time>2017-10-27T08:36:16.449Z</time>
      </trkpt>
      <trkpt lat="43.51463" lon="3.90089">
        <ele>-0.2</ele>
        <time>2017-10-27T08:36:17.451Z</time>
      </trkpt>
      <trkpt lat="43.51467" lon="3.90095">
        <ele>-0.3</ele>
        <time>2017-10-27T08:36:18.454Z</time>
      </trkpt>
      <trkpt lat="43.5147" lon="3.90102">
        <ele>-0.3</ele>
        <time>2017-10-27T08:36:19.451Z</time>
      </trkpt>
      <trkpt lat="43.51473" lon="3.90109">
        <ele>-0.3</ele>
        <time>2017-10-27T08:36:20.450Z</time>
      </trkpt>
      <trkpt lat="43.51476" lon="3.90116">
        <ele>-0.4</ele>
        <time>2017-10-27T08:36:21.451Z</time>
      </trkpt>
      <trkpt lat="43.51479" lon="3.90123">
        <ele>-0.4</ele>
        <time>2017-10-27T08:36:22.450Z</time>
      </trkpt>
      <trkpt lat="43.51483" lon="3.9013">
        <ele>-0.4</ele>
        <time>2017-10-27T08:36:23.453Z</time>
      </trkpt>
      <trkpt lat="43.51486" lon="3.90136">
        <ele>-0.4</ele>
        <time>2017-10-27T08:36:24.442Z</time>
      </trkpt>
      <trkpt lat="43.51489" lon="3.90143">
        <ele>-0.4</ele>
        <time>2017-10-27T08:36:25.437Z</time>
      </trkpt>
      <trkpt lat="43.51493" lon="3.9015">
        <ele>-0.4</ele>
        <time>2017-10-27T08:36:26.436Z</time>
      </trkpt>
      <trkpt lat="43.51496" lon="3.90156">
        <ele>-0.5</ele>
        <time>2017-10-27T08:36:27.440Z</time>
      </trkpt>
      <trkpt lat="43.51499" lon="3.90163">
        <ele>-0.5</ele>
        <time>2017-10-27T08:36:28.472Z</time>
      </trkpt>
      <trkpt lat="43.51502" lon="3.9017">
        <ele>-0.5</ele>
        <time>2017-10-27T08:36:29.452Z</time>
      </trkpt>
      <trkpt lat="43.51505" lon="3.90177">
        <ele>-0.5</ele>
        <time>2017-10-27T08:36:30.454Z</time>
      </trkpt>
      <trkpt lat="43.51508" lon="3.90183">
        <ele>-0.6</ele>
        <time>2017-10-27T08:36:31.450Z</time>
      </trkpt>
      <trkpt lat="43.51511" lon="3.9019">
        <ele>-0.6</ele>
        <time>2017-10-27T08:36:32.450Z</time>
      </trkpt>
      <trkpt lat="43.51514" lon="3.90196">
        <ele>-0.6</ele>
        <time>2017-10-27T08:36:33.448Z</time>
      </trkpt>
      <trkpt lat="43.51517" lon="3.90203">
        <ele>-0.6</ele>
        <time>2017-10-27T08:36:34.451Z</time>
      </trkpt>
      <trkpt lat="43.5152" lon="3.90209">
        <ele>-0.6</ele>
        <time>2017-10-27T08:36:35.454Z</time>
      </trkpt>
      <trkpt lat="43.51523" lon="3.90216">
        <ele>-0.6</ele>
        <time>2017-10-27T08:36:36.453Z</time>
      </trkpt>
      <trkpt lat="43.51526" lon="3.90222">
        <ele>-0.6</ele>
        <time>2017-10-27T08:36:37.450Z</time>
      </trkpt>
      <trkpt lat="43.51529" lon="3.90229">
        <ele>-0.6</ele>
        <time>2017-10-27T08:36:38.450Z</time>
      </trkpt>
      <trkpt lat="43.51532" lon="3.90236">
        <ele>-0.6</ele>
        <time>2017-10-27T08:36:39.451Z</time>
      </trkpt>
      <trkpt lat="43.51536" lon="3.90242">
        <ele>-0.7</ele>
        <time>2017-10-27T08:36:40.450Z</time>
      </trkpt>
      <trkpt lat="43.51539" lon="3.90249">
        <ele>-0.7</ele>
        <time>2017-10-27T08:36:41.436Z</time>
      </trkpt>
      <trkpt lat="43.51542" lon="3.90255">
        <ele>-0.7</ele>
        <time>2017-10-27T08:36:42.438Z</time>
      </trkpt>
      <trkpt lat="43.51545" lon="3.90262">
        <ele>-0.7</ele>
        <time>2017-10-27T08:36:43.438Z</time>
      </trkpt>
      <trkpt lat="43.51548" lon="3.90268">
        <ele>-0.8</ele>
        <time>2017-10-27T08:36:44.456Z</time>
      </trkpt>
      <trkpt lat="43.51552" lon="3.90275">
        <ele>-0.8</ele>
        <time>2017-10-27T08:36:45.453Z</time>
      </trkpt>
      <trkpt lat="43.51555" lon="3.90281">
        <ele>-0.8</ele>
        <time>2017-10-27T08:36:46.456Z</time>
      </trkpt>
      <trkpt lat="43.51558" lon="3.90288">
        <ele>-0.7</ele>
        <time>2017-10-27T08:36:47.456Z</time>
      </trkpt>
      <trkpt lat="43.51561" lon="3.90295">
        <ele>-0.7</ele>
        <time>2017-10-27T08:36:48.460Z</time>
      </trkpt>
      <trkpt lat="43.51564" lon="3.90301">
        <ele>-0.7</ele>
        <time>2017-10-27T08:36:49.450Z</time>
      </trkpt>
      <trkpt lat="43.51567" lon="3.90308">
        <ele>-0.7</ele>
        <time>2017-10-27T08:36:50.450Z</time>
      </trkpt>
      <trkpt lat="43.5157" lon="3.90315">
        <ele>-0.8</ele>
        <time>2017-10-27T08:36:51.451Z</time>
      </trkpt>
      <trkpt lat="43.51573" lon="3.90321">
        <ele>-0.8</ele>
        <time>2017-10-27T08:36:52.451Z</time>
      </trkpt>
      <trkpt lat="43.51576" lon="3.90328">
        <ele>-0.8</ele>
        <time>2017-10-27T08:36:53.450Z</time>
      </trkpt>
      <trkpt lat="43.51579" lon="3.90334">
        <ele>-0.8</ele>
        <time>2017-10-27T08:36:54.452Z</time>
      </trkpt>
      <trkpt lat="43.51582" lon="3.90341">
        <ele>-0.8</ele>
        <time>2017-10-27T08:36:55.451Z</time>
      </trkpt>
      <trkpt lat="43.51585" lon="3.90347">
        <ele>-0.9</ele>
        <time>2017-10-27T08:36:56.450Z</time>
      </trkpt>
      <trkpt lat="43.51588" lon="3.90354">
        <ele>-0.9</ele>
        <time>2017-10-27T08:36:57.438Z</time>
      </trkpt>
      <trkpt lat="43.51592" lon="3.90361">
        <ele>-0.9</ele>
        <time>2017-10-27T08:36:58.436Z</time>
      </trkpt>
      <trkpt lat="43.51595" lon="3.90368">
        <ele>-0.9</ele>
        <time>2017-10-27T08:36:59.438Z</time>
      </trkpt>
      <trkpt lat="43.51598" lon="3.90375">
        <ele>-0.9</ele>
        <time>2017-10-27T08:37:00.439Z</time>
      </trkpt>
      <trkpt lat="43.51601" lon="3.90382">
        <ele>-1</ele>
        <time>2017-10-27T08:37:01.448Z</time>
      </trkpt>
      <trkpt lat="43.51604" lon="3.90389">
        <ele>-1</ele>
        <time>2017-10-27T08:37:02.451Z</time>
      </trkpt>
      <trkpt lat="43.51608" lon="3.90395">
        <ele>-1</ele>
        <time>2017-10-27T08:37:03.455Z</time>
      </trkpt>
      <trkpt lat="43.51611" lon="3.90403">
        <ele>-1</ele>
        <time>2017-10-27T08:37:04.450Z</time>
      </trkpt>
      <trkpt lat="43.51614" lon="3.9041">
        <ele>-1.1</ele>
        <time>2017-10-27T08:37:05.451Z</time>
      </trkpt>
      <trkpt lat="43.51618" lon="3.90416">
        <ele>-1.1</ele>
        <time>2017-10-27T08:37:06.452Z</time>
      </trkpt>
      <trkpt lat="43.51621" lon="3.90424">
        <ele>-1.1</ele>
        <time>2017-10-27T08:37:07.455Z</time>
      </trkpt>
      <trkpt lat="43.51624" lon="3.9043">
        <ele>-1.1</ele>
        <time>2017-10-27T08:37:08.452Z</time>
      </trkpt>
      <trkpt lat="43.51628" lon="3.90437">
        <ele>-1.1</ele>
        <time>2017-10-27T08:37:09.450Z</time>
      </trkpt>
      <trkpt lat="43.51631" lon="3.90444">
        <ele>-1.2</ele>
        <time>2017-10-27T08:37:10.450Z</time>
      </trkpt>
      <trkpt lat="43.51634" lon="3.9045">
        <ele>-1.1</ele>
        <time>2017-10-27T08:37:11.452Z</time>
      </trkpt>
      <trkpt lat="43.51637" lon="3.90457">
        <ele>-1.1</ele>
        <time>2017-10-27T08:37:12.452Z</time>
      </trkpt>
      <trkpt lat="43.5164" lon="3.90463">
        <ele>-1.1</ele>
        <time>2017-10-27T08:37:13.437Z</time>
      </trkpt>
      <trkpt lat="43.51643" lon="3.90469">
        <ele>-1.2</ele>
        <time>2017-10-27T08:37:14.436Z</time>
      </trkpt>
      <trkpt lat="43.51647" lon="3.90474">
        <ele>-1.1</ele>
        <time>2017-10-27T08:37:15.436Z</time>
      </trkpt>
      <trkpt lat="43.51652" lon="3.90478">
        <ele>-1.1</ele>
        <time>2017-10-27T08:37:16.454Z</time>
      </trkpt>
      <trkpt lat="43.51656" lon="3.90481">
        <ele>-1.1</ele>
        <time>2017-10-27T08:37:17.437Z</time>
      </trkpt>
      <trkpt lat="43.51661" lon="3.90484">
        <ele>-1.2</ele>
        <time>2017-10-27T08:37:18.438Z</time>
      </trkpt>
      <trkpt lat="43.51666" lon="3.90485">
        <ele>-1.3</ele>
        <time>2017-10-27T08:37:19.439Z</time>
      </trkpt>
      <trkpt lat="43.51671" lon="3.90486">
        <ele>-1.4</ele>
        <time>2017-10-27T08:37:20.438Z</time>
      </trkpt>
      <trkpt lat="43.51676" lon="3.90487">
        <ele>-1.4</ele>
        <time>2017-10-27T08:37:21.456Z</time>
      </trkpt>
      <trkpt lat="43.51681" lon="3.90488">
        <ele>-1.4</ele>
        <time>2017-10-27T08:37:22.436Z</time>
      </trkpt>
      <trkpt lat="43.51686" lon="3.90488">
        <ele>-1.5</ele>
        <time>2017-10-27T08:37:23.449Z</time>
      </trkpt>
      <trkpt lat="43.5169" lon="3.90489">
        <ele>-1.5</ele>
        <time>2017-10-27T08:37:24.456Z</time>
      </trkpt>
      <trkpt lat="43.51695" lon="3.90489">
        <ele>-1.6</ele>
        <time>2017-10-27T08:37:25.464Z</time>
      </trkpt>
      <trkpt lat="43.517" lon="3.90489">
        <ele>-1.6</ele>
        <time>2017-10-27T08:37:26.447Z</time>
      </trkpt>
      <trkpt lat="43.51705" lon="3.90489">
        <ele>-1.6</ele>
        <time>2017-10-27T08:37:27.447Z</time>
      </trkpt>
      <trkpt lat="43.51709" lon="3.9049">
        <ele>-1.6</ele>
        <time>2017-10-27T08:37:28.448Z</time>
      </trkpt>
      <trkpt lat="43.51714" lon="3.9049">
        <ele>-1.7</ele>
        <time>2017-10-27T08:37:29.447Z</time>
      </trkpt>
      <trkpt lat="43.51719" lon="3.90491">
        <ele>-1.8</ele>
        <time>2017-10-27T08:37:30.450Z</time>
      </trkpt>
      <trkpt lat="43.51724" lon="3.90491">
        <ele>-1.9</ele>
        <time>2017-10-27T08:37:31.450Z</time>
      </trkpt>
      <trkpt lat="43.51729" lon="3.90491">
        <ele>-1.9</ele>
        <time>2017-10-27T08:37:32.449Z</time>
      </trkpt>
      <trkpt lat="43.51733" lon="3.90491">
        <ele>-1.9</ele>
        <time>2017-10-27T08:37:33.446Z</time>
      </trkpt>
      <trkpt lat="43.51738" lon="3.90491">
        <ele>-2</ele>
        <time>2017-10-27T08:37:34.446Z</time>
      </trkpt>
      <trkpt lat="43.51742" lon="3.90491">
        <ele>-2</ele>
        <time>2017-10-27T08:37:35.447Z</time>
      </trkpt>
      <trkpt lat="43.51747" lon="3.90491">
        <ele>-2.2</ele>
        <time>2017-10-27T08:37:36.444Z</time>
      </trkpt>
      <trkpt lat="43.51752" lon="3.90491">
        <ele>-2.3</ele>
        <time>2017-10-27T08:37:37.432Z</time>
      </trkpt>
      <trkpt lat="43.51756" lon="3.90491">
        <ele>-2.4</ele>
        <time>2017-10-27T08:37:38.432Z</time>
      </trkpt>
      <trkpt lat="43.51761" lon="3.90491">
        <ele>-2.5</ele>
        <time>2017-10-27T08:37:39.439Z</time>
      </trkpt>
      <trkpt lat="43.51765" lon="3.9049">
        <ele>-2.5</ele>
        <time>2017-10-27T08:37:40.447Z</time>
      </trkpt>
      <trkpt lat="43.5177" lon="3.9049">
        <ele>-2.6</ele>
        <time>2017-10-27T08:37:41.449Z</time>
      </trkpt>
      <trkpt lat="43.51774" lon="3.90489">
        <ele>-2.6</ele>
        <time>2017-10-27T08:37:42.450Z</time>
      </trkpt>
      <trkpt lat="43.51778" lon="3.90488">
        <ele>-2.6</ele>
        <time>2017-10-27T08:37:43.458Z</time>
      </trkpt>
      <trkpt lat="43.51783" lon="3.90488">
        <ele>-2.6</ele>
        <time>2017-10-27T08:37:44.450Z</time>
      </trkpt>
      <trkpt lat="43.51787" lon="3.90487">
        <ele>-2.7</ele>
        <time>2017-10-27T08:37:45.431Z</time>
      </trkpt>
      <trkpt lat="43.51791" lon="3.90487">
        <ele>-2.7</ele>
        <time>2017-10-27T08:37:46.447Z</time>
      </trkpt>
      <trkpt lat="43.51795" lon="3.90487">
        <ele>-2.8</ele>
        <time>2017-10-27T08:37:47.437Z</time>
      </trkpt>
      <trkpt lat="43.51799" lon="3.90487">
        <ele>-2.8</ele>
        <time>2017-10-27T08:37:48.449Z</time>
      </trkpt>
      <trkpt lat="43.51804" lon="3.90486">
        <ele>-2.8</ele>
        <time>2017-10-27T08:37:49.449Z</time>
      </trkpt>
      <trkpt lat="43.51808" lon="3.90486">
        <ele>-2.8</ele>
        <time>2017-10-27T08:37:50.446Z</time>
      </trkpt>
      <trkpt lat="43.51812" lon="3.90486">
        <ele>-2.9</ele>
        <time>2017-10-27T08:37:51.449Z</time>
      </trkpt>
      <trkpt lat="43.51816" lon="3.90486">
        <ele>-2.8</ele>
        <time>2017-10-27T08:37:52.449Z</time>
      </trkpt>
      <trkpt lat="43.51821" lon="3.90486">
        <ele>-2.8</ele>
        <time>2017-10-27T08:37:53.446Z</time>
      </trkpt>
      <trkpt lat="43.51825" lon="3.90486">
        <ele>-2.9</ele>
        <time>2017-10-27T08:37:54.450Z</time>
      </trkpt>
      <trkpt lat="43.51829" lon="3.90486">
        <ele>-3</ele>
        <time>2017-10-27T08:37:55.446Z</time>
      </trkpt>
      <trkpt lat="43.51834" lon="3.90486">
        <ele>-3</ele>
        <time>2017-10-27T08:37:56.449Z</time>
      </trkpt>
      <trkpt lat="43.51838" lon="3.90486">
        <ele>-3</ele>
        <time>2017-10-27T08:37:57.447Z</time>
      </trkpt>
      <trkpt lat="43.51842" lon="3.90486">
        <ele>-3</ele>
        <time>2017-10-27T08:37:58.455Z</time>
      </trkpt>
      <trkpt lat="43.51846" lon="3.90485">
        <ele>-3.1</ele>
        <time>2017-10-27T08:37:59.432Z</time>
      </trkpt>
      <trkpt lat="43.5185" lon="3.90486">
        <ele>-3.2</ele>
        <time>2017-10-27T08:38:00.434Z</time>
      </trkpt>
      <trkpt lat="43.51854" lon="3.90486">
        <ele>-3.2</ele>
        <time>2017-10-27T08:38:01.432Z</time>
      </trkpt>
      <trkpt lat="43.51858" lon="3.90486">
        <ele>-3.3</ele>
        <time>2017-10-27T08:38:02.432Z</time>
      </trkpt>
      <trkpt lat="43.51862" lon="3.90485">
        <ele>-3.3</ele>
        <time>2017-10-27T08:38:03.456Z</time>
      </trkpt>
      <trkpt lat="43.51866" lon="3.90486">
        <ele>-3.3</ele>
        <time>2017-10-27T08:38:04.449Z</time>
      </trkpt>
      <trkpt lat="43.5187" lon="3.90486">
        <ele>-3.4</ele>
        <time>2017-10-27T08:38:05.450Z</time>
      </trkpt>
      <trkpt lat="43.51874" lon="3.90486">
        <ele>-3.5</ele>
        <time>2017-10-27T08:38:06.458Z</time>
      </trkpt>
      <trkpt lat="43.51878" lon="3.90486">
        <ele>-3.4</ele>
        <time>2017-10-27T08:38:07.449Z</time>
      </trkpt>
      <trkpt lat="43.51881" lon="3.90487">
        <ele>-3.4</ele>
        <time>2017-10-27T08:38:08.448Z</time>
      </trkpt>
      <trkpt lat="43.51885" lon="3.90488">
        <ele>-3.3</ele>
        <time>2017-10-27T08:38:09.436Z</time>
      </trkpt>
      <trkpt lat="43.51889" lon="3.90489">
        <ele>-3.3</ele>
        <time>2017-10-27T08:38:10.445Z</time>
      </trkpt>
      <trkpt lat="43.51893" lon="3.9049">
        <ele>-3.3</ele>
        <time>2017-10-27T08:38:11.449Z</time>
      </trkpt>
      <trkpt lat="43.51897" lon="3.90492">
        <ele>-3.3</ele>
        <time>2017-10-27T08:38:12.439Z</time>
      </trkpt>
      <trkpt lat="43.519" lon="3.90494">
        <ele>-3.4</ele>
        <time>2017-10-27T08:38:13.435Z</time>
      </trkpt>
      <trkpt lat="43.51904" lon="3.90497">
        <ele>-3.4</ele>
        <time>2017-10-27T08:38:14.453Z</time>
      </trkpt>
      <trkpt lat="43.51907" lon="3.905">
        <ele>-3.4</ele>
        <time>2017-10-27T08:38:15.463Z</time>
      </trkpt>
      <trkpt lat="43.5191" lon="3.90504">
        <ele>-3.4</ele>
        <time>2017-10-27T08:38:16.466Z</time>
      </trkpt>
      <trkpt lat="43.51913" lon="3.90508">
        <ele>-3.4</ele>
        <time>2017-10-27T08:38:17.459Z</time>
      </trkpt>
      <trkpt lat="43.51915" lon="3.90512">
        <ele>-3.4</ele>
        <time>2017-10-27T08:38:18.466Z</time>
      </trkpt>
      <trkpt lat="43.51918" lon="3.90517">
        <ele>-3.5</ele>
        <time>2017-10-27T08:38:19.446Z</time>
      </trkpt>
      <trkpt lat="43.5192" lon="3.90522">
        <ele>-3.4</ele>
        <time>2017-10-27T08:38:20.448Z</time>
      </trkpt>
      <trkpt lat="43.51923" lon="3.90526">
        <ele>-3.4</ele>
        <time>2017-10-27T08:38:21.449Z</time>
      </trkpt>
      <trkpt lat="43.51925" lon="3.90531">
        <ele>-3.4</ele>
        <time>2017-10-27T08:38:22.451Z</time>
      </trkpt>
      <trkpt lat="43.51927" lon="3.90536">
        <ele>-3.3</ele>
        <time>2017-10-27T08:38:23.433Z</time>
      </trkpt>
      <trkpt lat="43.51929" lon="3.90541">
        <ele>-3.3</ele>
        <time>2017-10-27T08:38:24.434Z</time>
      </trkpt>
      <trkpt lat="43.51932" lon="3.90547">
        <ele>-3.2</ele>
        <time>2017-10-27T08:38:25.434Z</time>
      </trkpt>
      <trkpt lat="43.51935" lon="3.90552">
        <ele>-3.2</ele>
        <time>2017-10-27T08:38:26.433Z</time>
      </trkpt>
      <trkpt lat="43.51937" lon="3.90557">
        <ele>-3.1</ele>
        <time>2017-10-27T08:38:27.454Z</time>
      </trkpt>
      <trkpt lat="43.5194" lon="3.90563">
        <ele>-3.1</ele>
        <time>2017-10-27T08:38:28.450Z</time>
      </trkpt>
      <trkpt lat="43.51942" lon="3.90568">
        <ele>-3.1</ele>
        <time>2017-10-27T08:38:29.447Z</time>
      </trkpt>
      <trkpt lat="43.51944" lon="3.90574">
        <ele>-3.1</ele>
        <time>2017-10-27T08:38:30.451Z</time>
      </trkpt>
      <trkpt lat="43.51947" lon="3.9058">
        <ele>-3</ele>
        <time>2017-10-27T08:38:31.465Z</time>
      </trkpt>
      <trkpt lat="43.5195" lon="3.90586">
        <ele>-3</ele>
        <time>2017-10-27T08:38:32.447Z</time>
      </trkpt>
      <trkpt lat="43.51953" lon="3.90592">
        <ele>-3</ele>
        <time>2017-10-27T08:38:33.451Z</time>
      </trkpt>
      <trkpt lat="43.51955" lon="3.90598">
        <ele>-3</ele>
        <time>2017-10-27T08:38:34.449Z</time>
      </trkpt>
      <trkpt lat="43.51958" lon="3.90604">
        <ele>-3</ele>
        <time>2017-10-27T08:38:35.450Z</time>
      </trkpt>
      <trkpt lat="43.51961" lon="3.9061">
        <ele>-2.9</ele>
        <time>2017-10-27T08:38:36.451Z</time>
      </trkpt>
      <trkpt lat="43.51963" lon="3.90616">
        <ele>-2.9</ele>
        <time>2017-10-27T08:38:37.448Z</time>
      </trkpt>
      <trkpt lat="43.51966" lon="3.90622">
        <ele>-2.9</ele>
        <time>2017-10-27T08:38:38.449Z</time>
      </trkpt>
      <trkpt lat="43.51969" lon="3.90628">
        <ele>-2.9</ele>
        <time>2017-10-27T08:38:39.448Z</time>
      </trkpt>
      <trkpt lat="43.51972" lon="3.90634">
        <ele>-2.9</ele>
        <time>2017-10-27T08:38:40.448Z</time>
      </trkpt>
      <trkpt lat="43.51975" lon="3.90641">
        <ele>-2.8</ele>
        <time>2017-10-27T08:38:41.448Z</time>
      </trkpt>
      <trkpt lat="43.51978" lon="3.90648">
        <ele>-2.8</ele>
        <time>2017-10-27T08:38:42.453Z</time>
      </trkpt>
      <trkpt lat="43.5198" lon="3.90655">
        <ele>-2.8</ele>
        <time>2017-10-27T08:38:43.434Z</time>
      </trkpt>
      <trkpt lat="43.51981" lon="3.90663">
        <ele>-2.8</ele>
        <time>2017-10-27T08:38:44.434Z</time>
      </trkpt>
      <trkpt lat="43.51982" lon="3.9067">
        <ele>-2.8</ele>
        <time>2017-10-27T08:38:45.438Z</time>
      </trkpt>
      <trkpt lat="43.51982" lon="3.90678">
        <ele>-2.7</ele>
        <time>2017-10-27T08:38:46.450Z</time>
      </trkpt>
      <trkpt lat="43.5198" lon="3.90686">
        <ele>-2.8</ele>
        <time>2017-10-27T08:38:47.450Z</time>
      </trkpt>
      <trkpt lat="43.51978" lon="3.90694">
        <ele>-3</ele>
        <time>2017-10-27T08:38:48.450Z</time>
      </trkpt>
      <trkpt lat="43.51976" lon="3.90702">
        <ele>-3</ele>
        <time>2017-10-27T08:38:49.454Z</time>
      </trkpt>
      <trkpt lat="43.51973" lon="3.90709">
        <ele>-2.9</ele>
        <time>2017-10-27T08:38:50.450Z</time>
      </trkpt>
      <trkpt lat="43.5197" lon="3.90717">
        <ele>-2.9</ele>
        <time>2017-10-27T08:38:51.449Z</time>
      </trkpt>
      <trkpt lat="43.51967" lon="3.90724">
        <ele>-2.9</ele>
        <time>2017-10-27T08:38:52.435Z</time>
      </trkpt>
      <trkpt lat="43.51964" lon="3.90732">
        <ele>-2.9</ele>
        <time>2017-10-27T08:38:53.449Z</time>
      </trkpt>
      <trkpt lat="43.51961" lon="3.9074">
        <ele>-2.9</ele>
        <time>2017-10-27T08:38:54.451Z</time>
      </trkpt>
      <trkpt lat="43.51959" lon="3.90747">
        <ele>-2.9</ele>
        <time>2017-10-27T08:38:55.449Z</time>
      </trkpt>
      <trkpt lat="43.51956" lon="3.90755">
        <ele>-2.9</ele>
        <time>2017-10-27T08:38:56.449Z</time>
      </trkpt>
      <trkpt lat="43.51954" lon="3.90763">
        <ele>-3</ele>
        <time>2017-10-27T08:38:57.435Z</time>
      </trkpt>
      <trkpt lat="43.51952" lon="3.90771">
        <ele>-3</ele>
        <time>2017-10-27T08:38:58.435Z</time>
      </trkpt>
      <trkpt lat="43.51952" lon="3.9078">
        <ele>-3</ele>
        <time>2017-10-27T08:38:59.438Z</time>
      </trkpt>
      <trkpt lat="43.51951" lon="3.90788">
        <ele>-3.1</ele>
        <time>2017-10-27T08:39:00.437Z</time>
      </trkpt>
      <trkpt lat="43.51952" lon="3.90797">
        <ele>-3.4</ele>
        <time>2017-10-27T08:39:01.454Z</time>
      </trkpt>
      <trkpt lat="43.51954" lon="3.90804">
        <ele>-3.5</ele>
        <time>2017-10-27T08:39:02.476Z</time>
      </trkpt>
      <trkpt lat="43.51957" lon="3.90812">
        <ele>-3.6</ele>
        <time>2017-10-27T08:39:03.465Z</time>
      </trkpt>
      <trkpt lat="43.51961" lon="3.90819">
        <ele>-3.5</ele>
        <time>2017-10-27T08:39:04.464Z</time>
      </trkpt>
      <trkpt lat="43.51965" lon="3.90826">
        <ele>-3.5</ele>
        <time>2017-10-27T08:39:05.465Z</time>
      </trkpt>
      <trkpt lat="43.51968" lon="3.90833">
        <ele>-3.5</ele>
        <time>2017-10-27T08:39:06.451Z</time>
      </trkpt>
      <trkpt lat="43.51972" lon="3.9084">
        <ele>-3.5</ele>
        <time>2017-10-27T08:39:07.454Z</time>
      </trkpt>
      <trkpt lat="43.51976" lon="3.90848">
        <ele>-3.5</ele>
        <time>2017-10-27T08:39:08.449Z</time>
      </trkpt>
      <trkpt lat="43.5198" lon="3.90855">
        <ele>-3.5</ele>
        <time>2017-10-27T08:39:09.454Z</time>
      </trkpt>
      <trkpt lat="43.51983" lon="3.90863">
        <ele>-3.5</ele>
        <time>2017-10-27T08:39:10.449Z</time>
      </trkpt>
      <trkpt lat="43.51987" lon="3.9087">
        <ele>-3.5</ele>
        <time>2017-10-27T08:39:11.459Z</time>
      </trkpt>
      <trkpt lat="43.5199" lon="3.90878">
        <ele>-3.4</ele>
        <time>2017-10-27T08:39:12.454Z</time>
      </trkpt>
      <trkpt lat="43.51993" lon="3.90886">
        <ele>-3.4</ele>
        <time>2017-10-27T08:39:13.435Z</time>
      </trkpt>
      <trkpt lat="43.51995" lon="3.90894">
        <ele>-3.4</ele>
        <time>2017-10-27T08:39:14.455Z</time>
      </trkpt>
      <trkpt lat="43.51996" lon="3.90903">
        <ele>-3.4</ele>
        <time>2017-10-27T08:39:15.450Z</time>
      </trkpt>
      <trkpt lat="43.51996" lon="3.90912">
        <ele>-3.4</ele>
        <time>2017-10-27T08:39:16.445Z</time>
      </trkpt>
      <trkpt lat="43.51994" lon="3.9092">
        <ele>-3.5</ele>
        <time>2017-10-27T08:39:17.440Z</time>
      </trkpt>
      <trkpt lat="43.51991" lon="3.90928">
        <ele>-3.7</ele>
        <time>2017-10-27T08:39:18.437Z</time>
      </trkpt>
      <trkpt lat="43.51988" lon="3.90935">
        <ele>-3.8</ele>
        <time>2017-10-27T08:39:19.441Z</time>
      </trkpt>
      <trkpt lat="43.51985" lon="3.90942">
        <ele>-3.7</ele>
        <time>2017-10-27T08:39:20.435Z</time>
      </trkpt>
      <trkpt lat="43.51981" lon="3.90949">
        <ele>-3.8</ele>
        <time>2017-10-27T08:39:21.438Z</time>
      </trkpt>
      <trkpt lat="43.51978" lon="3.90955">
        <ele>-3.7</ele>
        <time>2017-10-27T08:39:22.446Z</time>
      </trkpt>
      <trkpt lat="43.51974" lon="3.90961">
        <ele>-3.7</ele>
        <time>2017-10-27T08:39:23.447Z</time>
      </trkpt>
      <trkpt lat="43.51971" lon="3.90968">
        <ele>-3.6</ele>
        <time>2017-10-27T08:39:24.449Z</time>
      </trkpt>
      <trkpt lat="43.51969" lon="3.90975">
        <ele>-3.6</ele>
        <time>2017-10-27T08:39:25.447Z</time>
      </trkpt>
      <trkpt lat="43.51967" lon="3.90982">
        <ele>-3.6</ele>
        <time>2017-10-27T08:39:26.432Z</time>
      </trkpt>
      <trkpt lat="43.51964" lon="3.90989">
        <ele>-3.5</ele>
        <time>2017-10-27T08:39:27.465Z</time>
      </trkpt>
      <trkpt lat="43.51962" lon="3.90996">
        <ele>-3.5</ele>
        <time>2017-10-27T08:39:28.449Z</time>
      </trkpt>
      <trkpt lat="43.5196" lon="3.91003">
        <ele>-3.5</ele>
        <time>2017-10-27T08:39:29.448Z</time>
      </trkpt>
      <trkpt lat="43.51958" lon="3.9101">
        <ele>-3.3</ele>
        <time>2017-10-27T08:39:30.449Z</time>
      </trkpt>
      <trkpt lat="43.51957" lon="3.91018">
        <ele>-3.3</ele>
        <time>2017-10-27T08:39:31.447Z</time>
      </trkpt>
      <trkpt lat="43.51957" lon="3.91026">
        <ele>-3.2</ele>
        <time>2017-10-27T08:39:32.456Z</time>
      </trkpt>
      <trkpt lat="43.51957" lon="3.91033">
        <ele>-3.4</ele>
        <time>2017-10-27T08:39:33.450Z</time>
      </trkpt>
      <trkpt lat="43.51957" lon="3.91041">
        <ele>-3.5</ele>
        <time>2017-10-27T08:39:34.445Z</time>
      </trkpt>
      <trkpt lat="43.51958" lon="3.91049">
        <ele>-3.5</ele>
        <time>2017-10-27T08:39:35.447Z</time>
      </trkpt>
      <trkpt lat="43.5196" lon="3.91057">
        <ele>-3.6</ele>
        <time>2017-10-27T08:39:36.433Z</time>
      </trkpt>
      <trkpt lat="43.51961" lon="3.91064">
        <ele>-3.7</ele>
        <time>2017-10-27T08:39:37.435Z</time>
      </trkpt>
      <trkpt lat="43.51962" lon="3.91072">
        <ele>-3.9</ele>
        <time>2017-10-27T08:39:38.433Z</time>
      </trkpt>
      <trkpt lat="43.51963" lon="3.9108">
        <ele>-3.9</ele>
        <time>2017-10-27T08:39:39.442Z</time>
      </trkpt>
      <trkpt lat="43.51965" lon="3.91088">
        <ele>-3.9</ele>
        <time>2017-10-27T08:39:40.454Z</time>
      </trkpt>
      <trkpt lat="43.51966" lon="3.91096">
        <ele>-3.8</ele>
        <time>2017-10-27T08:39:41.455Z</time>
      </trkpt>
      <trkpt lat="43.51967" lon="3.91104">
        <ele>-3.8</ele>
        <time>2017-10-27T08:39:42.456Z</time>
      </trkpt>
      <trkpt lat="43.51969" lon="3.91112">
        <ele>-3.8</ele>
        <time>2017-10-27T08:39:43.446Z</time>
      </trkpt>
      <trkpt lat="43.5197" lon="3.9112">
        <ele>-3.5</ele>
        <time>2017-10-27T08:39:44.446Z</time>
      </trkpt>
      <trkpt lat="43.51971" lon="3.91128">
        <ele>-3.4</ele>
        <time>2017-10-27T08:39:45.446Z</time>
      </trkpt>
      <trkpt lat="43.51973" lon="3.91136">
        <ele>-3.5</ele>
        <time>2017-10-27T08:39:46.457Z</time>
      </trkpt>
      <trkpt lat="43.51974" lon="3.91144">
        <ele>-3.5</ele>
        <time>2017-10-27T08:39:47.450Z</time>
      </trkpt>
      <trkpt lat="43.51975" lon="3.91152">
        <ele>-3.4</ele>
        <time>2017-10-27T08:39:48.456Z</time>
      </trkpt>
      <trkpt lat="43.51976" lon="3.9116">
        <ele>-3.4</ele>
        <time>2017-10-27T08:39:49.447Z</time>
      </trkpt>
      <trkpt lat="43.51977" lon="3.91167">
        <ele>-3.3</ele>
        <time>2017-10-27T08:39:50.450Z</time>
      </trkpt>
      <trkpt lat="43.51978" lon="3.91175">
        <ele>-3.2</ele>
        <time>2017-10-27T08:39:51.438Z</time>
      </trkpt>
      <trkpt lat="43.51979" lon="3.91182">
        <ele>-3.1</ele>
        <time>2017-10-27T08:39:52.442Z</time>
      </trkpt>
      <trkpt lat="43.51981" lon="3.91189">
        <ele>-2.8</ele>
        <time>2017-10-27T08:39:53.444Z</time>
      </trkpt>
      <trkpt lat="43.51982" lon="3.91196">
        <ele>-2.7</ele>
        <time>2017-10-27T08:39:54.449Z</time>
      </trkpt>
      <trkpt lat="43.51983" lon="3.91202">
        <ele>-2.5</ele>
        <time>2017-10-27T08:39:55.441Z</time>
      </trkpt>
      <trkpt lat="43.51984" lon="3.91209">
        <ele>-2.3</ele>
        <time>2017-10-27T08:39:56.433Z</time>
      </trkpt>
      <trkpt lat="43.51985" lon="3.91214">
        <ele>-2.2</ele>
        <time>2017-10-27T08:39:57.434Z</time>
      </trkpt>
      <trkpt lat="43.51985" lon="3.9122">
        <ele>-2.1</ele>
        <time>2017-10-27T08:39:58.449Z</time>
      </trkpt>
      <trkpt lat="43.51986" lon="3.91225">
        <ele>-2.1</ele>
        <time>2017-10-27T08:39:59.456Z</time>
      </trkpt>
      <trkpt lat="43.51987" lon="3.9123">
        <ele>-2.1</ele>
        <time>2017-10-27T08:40:00.448Z</time>
      </trkpt>
      <trkpt lat="43.51989" lon="3.91235">
        <ele>-1.9</ele>
        <time>2017-10-27T08:40:01.446Z</time>
      </trkpt>
      <trkpt lat="43.51991" lon="3.91239">
        <ele>-1.6</ele>
        <time>2017-10-27T08:40:02.447Z</time>
      </trkpt>
      <trkpt lat="43.51992" lon="3.91243">
        <ele>-1.7</ele>
        <time>2017-10-27T08:40:03.444Z</time>
      </trkpt>
      <trkpt lat="43.51994" lon="3.91247">
        <ele>-1.9</ele>
        <time>2017-10-27T08:40:04.442Z</time>
      </trkpt>
      <trkpt lat="43.51996" lon="3.91251">
        <ele>-2</ele>
        <time>2017-10-27T08:40:05.454Z</time>
      </trkpt>
      <trkpt lat="43.51998" lon="3.91255">
        <ele>-2.1</ele>
        <time>2017-10-27T08:40:06.448Z</time>
      </trkpt>
      <trkpt lat="43.52" lon="3.9126">
        <ele>-2</ele>
        <time>2017-10-27T08:40:07.450Z</time>
      </trkpt>
      <trkpt lat="43.52002" lon="3.91264">
        <ele>-2</ele>
        <time>2017-10-27T08:40:08.456Z</time>
      </trkpt>
      <trkpt lat="43.52004" lon="3.91268">
        <ele>-2</ele>
        <time>2017-10-27T08:40:09.447Z</time>
      </trkpt>
      <trkpt lat="43.52006" lon="3.91272">
        <ele>-1.9</ele>
        <time>2017-10-27T08:40:10.446Z</time>
      </trkpt>
      <trkpt lat="43.52008" lon="3.91276">
        <ele>-1.9</ele>
        <time>2017-10-27T08:40:11.451Z</time>
      </trkpt>
      <trkpt lat="43.5201" lon="3.9128">
        <ele>-1.8</ele>
        <time>2017-10-27T08:40:12.451Z</time>
      </trkpt>
      <trkpt lat="43.52012" lon="3.91284">
        <ele>-1.9</ele>
        <time>2017-10-27T08:40:13.449Z</time>
      </trkpt>
      <trkpt lat="43.52014" lon="3.91289">
        <ele>-2</ele>
        <time>2017-10-27T08:40:14.457Z</time>
      </trkpt>
      <trkpt lat="43.52017" lon="3.91293">
        <ele>-2</ele>
        <time>2017-10-27T08:40:15.448Z</time>
      </trkpt>
      <trkpt lat="43.5202" lon="3.91298">
        <ele>-2.2</ele>
        <time>2017-10-27T08:40:16.461Z</time>
      </trkpt>
      <trkpt lat="43.52023" lon="3.91303">
        <ele>-2.3</ele>
        <time>2017-10-27T08:40:17.455Z</time>
      </trkpt>
      <trkpt lat="43.52026" lon="3.91309">
        <ele>-2.5</ele>
        <time>2017-10-27T08:40:18.434Z</time>
      </trkpt>
      <trkpt lat="43.52029" lon="3.91315">
        <ele>-2.6</ele>
        <time>2017-10-27T08:40:19.434Z</time>
      </trkpt>
      <trkpt lat="43.52032" lon="3.91322">
        <ele>-2.6</ele>
        <time>2017-10-27T08:40:20.432Z</time>
      </trkpt>
      <trkpt lat="43.52035" lon="3.91329">
        <ele>-2.7</ele>
        <time>2017-10-27T08:40:21.432Z</time>
      </trkpt>
      <trkpt lat="43.52038" lon="3.91336">
        <ele>-2.9</ele>
        <time>2017-10-27T08:40:22.473Z</time>
      </trkpt>
      <trkpt lat="43.52041" lon="3.91344">
        <ele>-3</ele>
        <time>2017-10-27T08:40:23.450Z</time>
      </trkpt>
      <trkpt lat="43.52044" lon="3.91351">
        <ele>-3.1</ele>
        <time>2017-10-27T08:40:24.448Z</time>
      </trkpt>
      <trkpt lat="43.52048" lon="3.91358">
        <ele>-3.2</ele>
        <time>2017-10-27T08:40:25.447Z</time>
      </trkpt>
      <trkpt lat="43.52052" lon="3.91366">
        <ele>-3.3</ele>
        <time>2017-10-27T08:40:26.447Z</time>
      </trkpt>
      <trkpt lat="43.52056" lon="3.91373">
        <ele>-3.4</ele>
        <time>2017-10-27T08:40:27.448Z</time>
      </trkpt>
      <trkpt lat="43.5206" lon="3.9138">
        <ele>-3.5</ele>
        <time>2017-10-27T08:40:28.454Z</time>
      </trkpt>
      <trkpt lat="43.52064" lon="3.91387">
        <ele>-3.5</ele>
        <time>2017-10-27T08:40:29.449Z</time>
      </trkpt>
      <trkpt lat="43.52069" lon="3.91394">
        <ele>-3.5</ele>
        <time>2017-10-27T08:40:30.435Z</time>
      </trkpt>
      <trkpt lat="43.52073" lon="3.91401">
        <ele>-3.6</ele>
        <time>2017-10-27T08:40:31.447Z</time>
      </trkpt>
      <trkpt lat="43.52077" lon="3.91408">
        <ele>-3.7</ele>
        <time>2017-10-27T08:40:32.447Z</time>
      </trkpt>
      <trkpt lat="43.52082" lon="3.91416">
        <ele>-3.9</ele>
        <time>2017-10-27T08:40:33.444Z</time>
      </trkpt>
      <trkpt lat="43.52086" lon="3.91423">
        <ele>-4</ele>
        <time>2017-10-27T08:40:34.438Z</time>
      </trkpt>
      <trkpt lat="43.5209" lon="3.9143">
        <ele>-4</ele>
        <time>2017-10-27T08:40:35.458Z</time>
      </trkpt>
      <trkpt lat="43.52094" lon="3.91438">
        <ele>-3.8</ele>
        <time>2017-10-27T08:40:36.452Z</time>
      </trkpt>
      <trkpt lat="43.52099" lon="3.91445">
        <ele>-3.8</ele>
        <time>2017-10-27T08:40:37.447Z</time>
      </trkpt>
      <trkpt lat="43.52103" lon="3.91452">
        <ele>-3.7</ele>
        <time>2017-10-27T08:40:38.453Z</time>
      </trkpt>
      <trkpt lat="43.52107" lon="3.91459">
        <ele>-3.6</ele>
        <time>2017-10-27T08:40:39.448Z</time>
      </trkpt>
      <trkpt lat="43.52111" lon="3.91467">
        <ele>-3.7</ele>
        <time>2017-10-27T08:40:40.431Z</time>
      </trkpt>
      <trkpt lat="43.52115" lon="3.91474">
        <ele>-3.6</ele>
        <time>2017-10-27T08:40:41.432Z</time>
      </trkpt>
      <trkpt lat="43.52118" lon="3.91482">
        <ele>-3.6</ele>
        <time>2017-10-27T08:40:42.436Z</time>
      </trkpt>
      <trkpt lat="43.52122" lon="3.91489">
        <ele>-3.6</ele>
        <time>2017-10-27T08:40:43.448Z</time>
      </trkpt>
      <trkpt lat="43.52126" lon="3.91496">
        <ele>-3.5</ele>
        <time>2017-10-27T08:40:44.446Z</time>
      </trkpt>
      <trkpt lat="43.5213" lon="3.91504">
        <ele>-3.5</ele>
        <time>2017-10-27T08:40:45.447Z</time>
      </trkpt>
      <trkpt lat="43.52133" lon="3.91511">
        <ele>-3.5</ele>
        <time>2017-10-27T08:40:46.452Z</time>
      </trkpt>
      <trkpt lat="43.52137" lon="3.91518">
        <ele>-3.5</ele>
        <time>2017-10-27T08:40:47.446Z</time>
      </trkpt>
      <trkpt lat="43.52141" lon="3.91526">
        <ele>-3.5</ele>
        <time>2017-10-27T08:40:48.447Z</time>
      </trkpt>
      <trkpt lat="43.52144" lon="3.91533">
        <ele>-3.5</ele>
        <time>2017-10-27T08:40:49.447Z</time>
      </trkpt>
      <trkpt lat="43.52148" lon="3.91541">
        <ele>-3.4</ele>
        <time>2017-10-27T08:40:50.446Z</time>
      </trkpt>
      <trkpt lat="43.52152" lon="3.91548">
        <ele>-3.4</ele>
        <time>2017-10-27T08:40:51.446Z</time>
      </trkpt>
      <trkpt lat="43.52155" lon="3.91556">
        <ele>-3.3</ele>
        <time>2017-10-27T08:40:52.445Z</time>
      </trkpt>
      <trkpt lat="43.52159" lon="3.91563">
        <ele>-3.3</ele>
        <time>2017-10-27T08:40:53.447Z</time>
      </trkpt>
      <trkpt lat="43.52162" lon="3.91571">
        <ele>-3.3</ele>
        <time>2017-10-27T08:40:54.449Z</time>
      </trkpt>
      <trkpt lat="43.52166" lon="3.91579">
        <ele>-3.3</ele>
        <time>2017-10-27T08:40:55.446Z</time>
      </trkpt>
      <trkpt lat="43.52169" lon="3.91587">
        <ele>-3.3</ele>
        <time>2017-10-27T08:40:56.445Z</time>
      </trkpt>
      <trkpt lat="43.52172" lon="3.91594">
        <ele>-3.3</ele>
        <time>2017-10-27T08:40:57.432Z</time>
      </trkpt>
      <trkpt lat="43.52176" lon="3.91601">
        <ele>-3.4</ele>
        <time>2017-10-27T08:40:58.445Z</time>
      </trkpt>
      <trkpt lat="43.52179" lon="3.91608">
        <ele>-3.4</ele>
        <time>2017-10-27T08:40:59.436Z</time>
      </trkpt>
      <trkpt lat="43.52182" lon="3.91615">
        <ele>-3.4</ele>
        <time>2017-10-27T08:41:00.433Z</time>
      </trkpt>
      <trkpt lat="43.52186" lon="3.91622">
        <ele>-3.4</ele>
        <time>2017-10-27T08:41:01.433Z</time>
      </trkpt>
      <trkpt lat="43.52189" lon="3.91629">
        <ele>-3.3</ele>
        <time>2017-10-27T08:41:02.432Z</time>
      </trkpt>
      <trkpt lat="43.52192" lon="3.91636">
        <ele>-3.3</ele>
        <time>2017-10-27T08:41:03.441Z</time>
      </trkpt>
      <trkpt lat="43.52195" lon="3.91644">
        <ele>-3.3</ele>
        <time>2017-10-27T08:41:04.447Z</time>
      </trkpt>
      <trkpt lat="43.52199" lon="3.91651">
        <ele>-3.3</ele>
        <time>2017-10-27T08:41:05.454Z</time>
      </trkpt>
      <trkpt lat="43.52202" lon="3.91658">
        <ele>-3.2</ele>
        <time>2017-10-27T08:41:06.454Z</time>
      </trkpt>
      <trkpt lat="43.52205" lon="3.91665">
        <ele>-3.2</ele>
        <time>2017-10-27T08:41:07.433Z</time>
      </trkpt>
      <trkpt lat="43.52208" lon="3.91672">
        <ele>-3.2</ele>
        <time>2017-10-27T08:41:08.448Z</time>
      </trkpt>
      <trkpt lat="43.52212" lon="3.91679">
        <ele>-3.2</ele>
        <time>2017-10-27T08:41:09.446Z</time>
      </trkpt>
      <trkpt lat="43.52215" lon="3.91686">
        <ele>-3.2</ele>
        <time>2017-10-27T08:41:10.447Z</time>
      </trkpt>
      <trkpt lat="43.52218" lon="3.91694">
        <ele>-3.2</ele>
        <time>2017-10-27T08:41:11.447Z</time>
      </trkpt>
      <trkpt lat="43.52222" lon="3.91701">
        <ele>-3.3</ele>
        <time>2017-10-27T08:41:12.434Z</time>
      </trkpt>
      <trkpt lat="43.52225" lon="3.91708">
        <ele>-3.2</ele>
        <time>2017-10-27T08:41:13.452Z</time>
      </trkpt>
      <trkpt lat="43.52228" lon="3.91715">
        <ele>-3.2</ele>
        <time>2017-10-27T08:41:14.446Z</time>
      </trkpt>
      <trkpt lat="43.52232" lon="3.91722">
        <ele>-3.2</ele>
        <time>2017-10-27T08:41:15.447Z</time>
      </trkpt>
      <trkpt lat="43.52235" lon="3.9173">
        <ele>-3.1</ele>
        <time>2017-10-27T08:41:16.445Z</time>
      </trkpt>
      <trkpt lat="43.52238" lon="3.91737">
        <ele>-3</ele>
        <time>2017-10-27T08:41:17.447Z</time>
      </trkpt>
      <trkpt lat="43.52241" lon="3.91745">
        <ele>-3</ele>
        <time>2017-10-27T08:41:18.447Z</time>
      </trkpt>
      <trkpt lat="43.52244" lon="3.91752">
        <ele>-3.1</ele>
        <time>2017-10-27T08:41:19.449Z</time>
      </trkpt>
      <trkpt lat="43.52248" lon="3.9176">
        <ele>-3</ele>
        <time>2017-10-27T08:41:20.432Z</time>
      </trkpt>
      <trkpt lat="43.52251" lon="3.91767">
        <ele>-2.9</ele>
        <time>2017-10-27T08:41:21.435Z</time>
      </trkpt>
      <trkpt lat="43.52254" lon="3.91775">
        <ele>-2.9</ele>
        <time>2017-10-27T08:41:22.431Z</time>
      </trkpt>
      <trkpt lat="43.52257" lon="3.91782">
        <ele>-2.9</ele>
        <time>2017-10-27T08:41:23.431Z</time>
      </trkpt>
      <trkpt lat="43.5226" lon="3.9179">
        <ele>-2.8</ele>
        <time>2017-10-27T08:41:24.451Z</time>
      </trkpt>
      <trkpt lat="43.52263" lon="3.91798">
        <ele>-2.9</ele>
        <time>2017-10-27T08:41:25.449Z</time>
      </trkpt>
      <trkpt lat="43.52266" lon="3.91806">
        <ele>-2.9</ele>
        <time>2017-10-27T08:41:26.459Z</time>
      </trkpt>
      <trkpt lat="43.52269" lon="3.91814">
        <ele>-2.9</ele>
        <time>2017-10-27T08:41:27.445Z</time>
      </trkpt>
      <trkpt lat="43.52272" lon="3.91822">
        <ele>-2.9</ele>
        <time>2017-10-27T08:41:28.445Z</time>
      </trkpt>
      <trkpt lat="43.52274" lon="3.9183">
        <ele>-3</ele>
        <time>2017-10-27T08:41:29.433Z</time>
      </trkpt>
      <trkpt lat="43.52277" lon="3.91838">
        <ele>-3.1</ele>
        <time>2017-10-27T08:41:30.435Z</time>
      </trkpt>
      <trkpt lat="43.52279" lon="3.91846">
        <ele>-3.1</ele>
        <time>2017-10-27T08:41:31.450Z</time>
      </trkpt>
      <trkpt lat="43.52282" lon="3.91853">
        <ele>-3.1</ele>
        <time>2017-10-27T08:41:32.447Z</time>
      </trkpt>
      <trkpt lat="43.52285" lon="3.91861">
        <ele>-3.1</ele>
        <time>2017-10-27T08:41:33.447Z</time>
      </trkpt>
      <trkpt lat="43.52287" lon="3.91868">
        <ele>-3.1</ele>
        <time>2017-10-27T08:41:34.446Z</time>
      </trkpt>
      <trkpt lat="43.52289" lon="3.91876">
        <ele>-3.1</ele>
        <time>2017-10-27T08:41:35.433Z</time>
      </trkpt>
      <trkpt lat="43.52291" lon="3.91884">
        <ele>-3</ele>
        <time>2017-10-27T08:41:36.444Z</time>
      </trkpt>
      <trkpt lat="43.52294" lon="3.91891">
        <ele>-2.9</ele>
        <time>2017-10-27T08:41:37.448Z</time>
      </trkpt>
      <trkpt lat="43.52296" lon="3.91899">
        <ele>-2.9</ele>
        <time>2017-10-27T08:41:38.432Z</time>
      </trkpt>
      <trkpt lat="43.52298" lon="3.91906">
        <ele>-2.8</ele>
        <time>2017-10-27T08:41:39.432Z</time>
      </trkpt>
      <trkpt lat="43.52301" lon="3.91914">
        <ele>-2.7</ele>
        <time>2017-10-27T08:41:40.435Z</time>
      </trkpt>
      <trkpt lat="43.52303" lon="3.91921">
        <ele>-2.7</ele>
        <time>2017-10-27T08:41:41.433Z</time>
      </trkpt>
      <trkpt lat="43.52305" lon="3.91928">
        <ele>-2.8</ele>
        <time>2017-10-27T08:41:42.433Z</time>
      </trkpt>
      <trkpt lat="43.52308" lon="3.91936">
        <ele>-2.8</ele>
        <time>2017-10-27T08:41:43.445Z</time>
      </trkpt>
      <trkpt lat="43.5231" lon="3.91943">
        <ele>-2.7</ele>
        <time>2017-10-27T08:41:44.446Z</time>
      </trkpt>
      <trkpt lat="43.52313" lon="3.91951">
        <ele>-2.7</ele>
        <time>2017-10-27T08:41:45.448Z</time>
      </trkpt>
      <trkpt lat="43.52315" lon="3.91959">
        <ele>-2.7</ele>
        <time>2017-10-27T08:41:46.449Z</time>
      </trkpt>
      <trkpt lat="43.52316" lon="3.91967">
        <ele>-2.7</ele>
        <time>2017-10-27T08:41:47.446Z</time>
      </trkpt>
      <trkpt lat="43.52318" lon="3.91975">
        <ele>-2.6</ele>
        <time>2017-10-27T08:41:48.447Z</time>
      </trkpt>
      <trkpt lat="43.5232" lon="3.91982">
        <ele>-2.7</ele>
        <time>2017-10-27T08:41:49.445Z</time>
      </trkpt>
      <trkpt lat="43.52322" lon="3.9199">
        <ele>-2.7</ele>
        <time>2017-10-27T08:41:50.446Z</time>
      </trkpt>
      <trkpt lat="43.52325" lon="3.91998">
        <ele>-2.7</ele>
        <time>2017-10-27T08:41:51.446Z</time>
      </trkpt>
      <trkpt lat="43.52327" lon="3.92006">
        <ele>-2.7</ele>
        <time>2017-10-27T08:41:52.448Z</time>
      </trkpt>
      <trkpt lat="43.5233" lon="3.92014">
        <ele>-2.8</ele>
        <time>2017-10-27T08:41:53.446Z</time>
      </trkpt>
      <trkpt lat="43.52333" lon="3.92022">
        <ele>-2.8</ele>
        <time>2017-10-27T08:41:54.447Z</time>
      </trkpt>
      <trkpt lat="43.52335" lon="3.9203">
        <ele>-2.7</ele>
        <time>2017-10-27T08:41:55.446Z</time>
      </trkpt>
      <trkpt lat="43.52338" lon="3.92038">
        <ele>-2.7</ele>
        <time>2017-10-27T08:41:56.451Z</time>
      </trkpt>
      <trkpt lat="43.5234" lon="3.92046">
        <ele>-2.8</ele>
        <time>2017-10-27T08:41:57.432Z</time>
      </trkpt>
      <trkpt lat="43.52343" lon="3.92054">
        <ele>-2.8</ele>
        <time>2017-10-27T08:41:58.431Z</time>
      </trkpt>
      <trkpt lat="43.52345" lon="3.92061">
        <ele>-2.9</ele>
        <time>2017-10-27T08:41:59.432Z</time>
      </trkpt>
      <trkpt lat="43.52347" lon="3.92069">
        <ele>-3</ele>
        <time>2017-10-27T08:42:00.458Z</time>
      </trkpt>
      <trkpt lat="43.5235" lon="3.92076">
        <ele>-3</ele>
        <time>2017-10-27T08:42:01.478Z</time>
      </trkpt>
      <trkpt lat="43.52352" lon="3.92084">
        <ele>-3.1</ele>
        <time>2017-10-27T08:42:02.451Z</time>
      </trkpt>
      <trkpt lat="43.52355" lon="3.92091">
        <ele>-3.1</ele>
        <time>2017-10-27T08:42:03.444Z</time>
      </trkpt>
      <trkpt lat="43.52357" lon="3.92098">
        <ele>-3.1</ele>
        <time>2017-10-27T08:42:04.451Z</time>
      </trkpt>
      <trkpt lat="43.5236" lon="3.92105">
        <ele>-3.1</ele>
        <time>2017-10-27T08:42:05.454Z</time>
      </trkpt>
      <trkpt lat="43.52362" lon="3.92112">
        <ele>-3.1</ele>
        <time>2017-10-27T08:42:06.456Z</time>
      </trkpt>
      <trkpt lat="43.52365" lon="3.92119">
        <ele>-3.1</ele>
        <time>2017-10-27T08:42:07.432Z</time>
      </trkpt>
      <trkpt lat="43.52367" lon="3.92126">
        <ele>-3.3</ele>
        <time>2017-10-27T08:42:08.447Z</time>
      </trkpt>
      <trkpt lat="43.52369" lon="3.92132">
        <ele>-3.5</ele>
        <time>2017-10-27T08:42:09.452Z</time>
      </trkpt>
      <trkpt lat="43.52372" lon="3.92139">
        <ele>-3.6</ele>
        <time>2017-10-27T08:42:10.445Z</time>
      </trkpt>
      <trkpt lat="43.52374" lon="3.92145">
        <ele>-3.8</ele>
        <time>2017-10-27T08:42:11.455Z</time>
      </trkpt>
      <trkpt lat="43.52377" lon="3.92152">
        <ele>-3.8</ele>
        <time>2017-10-27T08:42:12.447Z</time>
      </trkpt>
      <trkpt lat="43.5238" lon="3.92158">
        <ele>-3.7</ele>
        <time>2017-10-27T08:42:13.455Z</time>
      </trkpt>
      <trkpt lat="43.52382" lon="3.92164">
        <ele>-3.7</ele>
        <time>2017-10-27T08:42:14.446Z</time>
      </trkpt>
      <trkpt lat="43.52385" lon="3.92171">
        <ele>-3.7</ele>
        <time>2017-10-27T08:42:15.446Z</time>
      </trkpt>
      <trkpt lat="43.52387" lon="3.92178">
        <ele>-3.6</ele>
        <time>2017-10-27T08:42:16.446Z</time>
      </trkpt>
      <trkpt lat="43.5239" lon="3.92184">
        <ele>-3.6</ele>
        <time>2017-10-27T08:42:17.446Z</time>
      </trkpt>
      <trkpt lat="43.52393" lon="3.92191">
        <ele>-3.7</ele>
        <time>2017-10-27T08:42:18.433Z</time>
      </trkpt>
      <trkpt lat="43.52396" lon="3.92198">
        <ele>-3.6</ele>
        <time>2017-10-27T08:42:19.431Z</time>
      </trkpt>
      <trkpt lat="43.52399" lon="3.92205">
        <ele>-3.8</ele>
        <time>2017-10-27T08:42:20.437Z</time>
      </trkpt>
      <trkpt lat="43.52401" lon="3.92212">
        <ele>-4</ele>
        <time>2017-10-27T08:42:21.451Z</time>
      </trkpt>
      <trkpt lat="43.52404" lon="3.92218">
        <ele>-4.3</ele>
        <time>2017-10-27T08:42:22.449Z</time>
      </trkpt>
      <trkpt lat="43.52407" lon="3.92225">
        <ele>-4.3</ele>
        <time>2017-10-27T08:42:23.448Z</time>
      </trkpt>
      <trkpt lat="43.5241" lon="3.92232">
        <ele>-4.8</ele>
        <time>2017-10-27T08:42:24.447Z</time>
      </trkpt>
      <trkpt lat="43.52412" lon="3.92238">
        <ele>-4.8</ele>
        <time>2017-10-27T08:42:25.445Z</time>
      </trkpt>
      <trkpt lat="43.52415" lon="3.92245">
        <ele>-4.3</ele>
        <time>2017-10-27T08:42:26.460Z</time>
      </trkpt>
      <trkpt lat="43.52418" lon="3.92251">
        <ele>-4</ele>
        <time>2017-10-27T08:42:27.432Z</time>
      </trkpt>
      <trkpt lat="43.52421" lon="3.92258">
        <ele>-3.7</ele>
        <time>2017-10-27T08:42:28.452Z</time>
      </trkpt>
      <trkpt lat="43.52423" lon="3.92264">
        <ele>-3.6</ele>
        <time>2017-10-27T08:42:29.441Z</time>
      </trkpt>
      <trkpt lat="43.52426" lon="3.9227">
        <ele>-4</ele>
        <time>2017-10-27T08:42:30.446Z</time>
      </trkpt>
      <trkpt lat="43.52429" lon="3.92277">
        <ele>-4.3</ele>
        <time>2017-10-27T08:42:31.438Z</time>
      </trkpt>
      <trkpt lat="43.52432" lon="3.92284">
        <ele>-4.2</ele>
        <time>2017-10-27T08:42:32.448Z</time>
      </trkpt>
      <trkpt lat="43.52434" lon="3.9229">
        <ele>-4.2</ele>
        <time>2017-10-27T08:42:33.446Z</time>
      </trkpt>
      <trkpt lat="43.52437" lon="3.92297">
        <ele>-3.8</ele>
        <time>2017-10-27T08:42:34.462Z</time>
      </trkpt>
      <trkpt lat="43.5244" lon="3.92303">
        <ele>-3.7</ele>
        <time>2017-10-27T08:42:35.445Z</time>
      </trkpt>
      <trkpt lat="43.52443" lon="3.9231">
        <ele>-3.7</ele>
        <time>2017-10-27T08:42:36.450Z</time>
      </trkpt>
      <trkpt lat="43.52445" lon="3.92316">
        <ele>-3.8</ele>
        <time>2017-10-27T08:42:37.447Z</time>
      </trkpt>
      <trkpt lat="43.52448" lon="3.92323">
        <ele>-4</ele>
        <time>2017-10-27T08:42:38.431Z</time>
      </trkpt>
      <trkpt lat="43.52451" lon="3.9233">
        <ele>-4.1</ele>
        <time>2017-10-27T08:42:39.448Z</time>
      </trkpt>
      <trkpt lat="43.52453" lon="3.92337">
        <ele>-4.4</ele>
        <time>2017-10-27T08:42:40.445Z</time>
      </trkpt>
      <trkpt lat="43.52456" lon="3.92343">
        <ele>-4.5</ele>
        <time>2017-10-27T08:42:41.452Z</time>
      </trkpt>
      <trkpt lat="43.52458" lon="3.9235">
        <ele>-4.5</ele>
        <time>2017-10-27T08:42:42.448Z</time>
      </trkpt>
      <trkpt lat="43.52461" lon="3.92357">
        <ele>-4.5</ele>
        <time>2017-10-27T08:42:43.449Z</time>
      </trkpt>
      <trkpt lat="43.52464" lon="3.92363">
        <ele>-4.3</ele>
        <time>2017-10-27T08:42:44.432Z</time>
      </trkpt>
      <trkpt lat="43.52467" lon="3.9237">
        <ele>-4.2</ele>
        <time>2017-10-27T08:42:45.432Z</time>
      </trkpt>
      <trkpt lat="43.52469" lon="3.92376">
        <ele>-4.4</ele>
        <time>2017-10-27T08:42:46.431Z</time>
      </trkpt>
      <trkpt lat="43.52472" lon="3.92383">
        <ele>-4.4</ele>
        <time>2017-10-27T08:42:47.441Z</time>
      </trkpt>
      <trkpt lat="43.52474" lon="3.92389">
        <ele>-4.5</ele>
        <time>2017-10-27T08:42:48.448Z</time>
      </trkpt>
      <trkpt lat="43.52477" lon="3.92395">
        <ele>-4.5</ele>
        <time>2017-10-27T08:42:49.446Z</time>
      </trkpt>
      <trkpt lat="43.5248" lon="3.92401">
        <ele>-4.5</ele>
        <time>2017-10-27T08:42:50.447Z</time>
      </trkpt>
      <trkpt lat="43.52482" lon="3.92407">
        <ele>-4.6</ele>
        <time>2017-10-27T08:42:51.447Z</time>
      </trkpt>
      <trkpt lat="43.52484" lon="3.92414">
        <ele>-4.7</ele>
        <time>2017-10-27T08:42:52.448Z</time>
      </trkpt>
      <trkpt lat="43.52487" lon="3.9242">
        <ele>-4.7</ele>
        <time>2017-10-27T08:42:53.447Z</time>
      </trkpt>
      <trkpt lat="43.52489" lon="3.92426">
        <ele>-4.8</ele>
        <time>2017-10-27T08:42:54.445Z</time>
      </trkpt>
      <trkpt lat="43.52492" lon="3.92431">
        <ele>-4.9</ele>
        <time>2017-10-27T08:42:55.455Z</time>
      </trkpt>
      <trkpt lat="43.52494" lon="3.92437">
        <ele>-5.2</ele>
        <time>2017-10-27T08:42:56.445Z</time>
      </trkpt>
      <trkpt lat="43.52496" lon="3.92443">
        <ele>-5.2</ele>
        <time>2017-10-27T08:42:57.432Z</time>
      </trkpt>
      <trkpt lat="43.52499" lon="3.92449">
        <ele>-5.5</ele>
        <time>2017-10-27T08:42:58.449Z</time>
      </trkpt>
      <trkpt lat="43.52501" lon="3.92455">
        <ele>-5.6</ele>
        <time>2017-10-27T08:42:59.447Z</time>
      </trkpt>
      <trkpt lat="43.52503" lon="3.92461">
        <ele>-5.8</ele>
        <time>2017-10-27T08:43:00.451Z</time>
      </trkpt>
      <trkpt lat="43.52506" lon="3.92467">
        <ele>-6</ele>
        <time>2017-10-27T08:43:01.446Z</time>
      </trkpt>
      <trkpt lat="43.52508" lon="3.92473">
        <ele>-6.3</ele>
        <time>2017-10-27T08:43:02.445Z</time>
      </trkpt>
      <trkpt lat="43.5251" lon="3.92479">
        <ele>-6.4</ele>
        <time>2017-10-27T08:43:03.448Z</time>
      </trkpt>
      <trkpt lat="43.52513" lon="3.92485">
        <ele>-6.4</ele>
        <time>2017-10-27T08:43:04.445Z</time>
      </trkpt>
      <trkpt lat="43.52516" lon="3.92492">
        <ele>-6.5</ele>
        <time>2017-10-27T08:43:05.445Z</time>
      </trkpt>
      <trkpt lat="43.52518" lon="3.92498">
        <ele>-6.5</ele>
        <time>2017-10-27T08:43:06.436Z</time>
      </trkpt>
      <trkpt lat="43.52521" lon="3.92504">
        <ele>-6.5</ele>
        <time>2017-10-27T08:43:07.432Z</time>
      </trkpt>
      <trkpt lat="43.52523" lon="3.92511">
        <ele>-6.4</ele>
        <time>2017-10-27T08:43:08.431Z</time>
      </trkpt>
      <trkpt lat="43.52526" lon="3.92517">
        <ele>-6.4</ele>
        <time>2017-10-27T08:43:09.438Z</time>
      </trkpt>
      <trkpt lat="43.52529" lon="3.92523">
        <ele>-6.4</ele>
        <time>2017-10-27T08:43:10.433Z</time>
      </trkpt>
      <trkpt lat="43.52531" lon="3.9253">
        <ele>-6.2</ele>
        <time>2017-10-27T08:43:11.451Z</time>
      </trkpt>
      <trkpt lat="43.52534" lon="3.92536">
        <ele>-6.1</ele>
        <time>2017-10-27T08:43:12.446Z</time>
      </trkpt>
      <trkpt lat="43.52537" lon="3.92542">
        <ele>-5.7</ele>
        <time>2017-10-27T08:43:13.439Z</time>
      </trkpt>
      <trkpt lat="43.52539" lon="3.92549">
        <ele>-5.5</ele>
        <time>2017-10-27T08:43:14.449Z</time>
      </trkpt>
      <trkpt lat="43.52542" lon="3.92555">
        <ele>-5.5</ele>
        <time>2017-10-27T08:43:15.431Z</time>
      </trkpt>
      <trkpt lat="43.52545" lon="3.92562">
        <ele>-5.6</ele>
        <time>2017-10-27T08:43:16.438Z</time>
      </trkpt>
      <trkpt lat="43.52547" lon="3.92569">
        <ele>-5.7</ele>
        <time>2017-10-27T08:43:17.444Z</time>
      </trkpt>
      <trkpt lat="43.5255" lon="3.92575">
        <ele>-5.8</ele>
        <time>2017-10-27T08:43:18.462Z</time>
      </trkpt>
      <trkpt lat="43.52553" lon="3.92582">
        <ele>-5.5</ele>
        <time>2017-10-27T08:43:19.463Z</time>
      </trkpt>
      <trkpt lat="43.52556" lon="3.92588">
        <ele>-5.3</ele>
        <time>2017-10-27T08:43:20.446Z</time>
      </trkpt>
      <trkpt lat="43.52561" lon="3.92593">
        <ele>-5.2</ele>
        <time>2017-10-27T08:43:21.444Z</time>
      </trkpt>
      <trkpt lat="43.52565" lon="3.92598">
        <ele>-5.2</ele>
        <time>2017-10-27T08:43:22.458Z</time>
      </trkpt>
      <trkpt lat="43.52569" lon="3.92603">
        <ele>-5</ele>
        <time>2017-10-27T08:43:23.445Z</time>
      </trkpt>
      <trkpt lat="43.52574" lon="3.92608">
        <ele>-4.7</ele>
        <time>2017-10-27T08:43:24.454Z</time>
      </trkpt>
      <trkpt lat="43.52578" lon="3.92613">
        <ele>-4.7</ele>
        <time>2017-10-27T08:43:25.446Z</time>
      </trkpt>
      <trkpt lat="43.52583" lon="3.92618">
        <ele>-5</ele>
        <time>2017-10-27T08:43:26.432Z</time>
      </trkpt>
      <trkpt lat="43.52587" lon="3.92623">
        <ele>-5.1</ele>
        <time>2017-10-27T08:43:27.432Z</time>
      </trkpt>
      <trkpt lat="43.52591" lon="3.92628">
        <ele>-5</ele>
        <time>2017-10-27T08:43:28.431Z</time>
      </trkpt>
      <trkpt lat="43.52595" lon="3.92633">
        <ele>-5</ele>
        <time>2017-10-27T08:43:29.432Z</time>
      </trkpt>
      <trkpt lat="43.526" lon="3.92637">
        <ele>-5.2</ele>
        <time>2017-10-27T08:43:30.448Z</time>
      </trkpt>
      <trkpt lat="43.52604" lon="3.92642">
        <ele>-5.1</ele>
        <time>2017-10-27T08:43:31.449Z</time>
      </trkpt>
      <trkpt lat="43.52607" lon="3.92647">
        <ele>-5.2</ele>
        <time>2017-10-27T08:43:32.449Z</time>
      </trkpt>
      <trkpt lat="43.52611" lon="3.92651">
        <ele>-5.2</ele>
        <time>2017-10-27T08:43:33.447Z</time>
      </trkpt>
      <trkpt lat="43.52615" lon="3.92655">
        <ele>-5.2</ele>
        <time>2017-10-27T08:43:34.445Z</time>
      </trkpt>
      <trkpt lat="43.52618" lon="3.92659">
        <ele>-5.2</ele>
        <time>2017-10-27T08:43:35.448Z</time>
      </trkpt>
      <trkpt lat="43.52622" lon="3.92663">
        <ele>-5.3</ele>
        <time>2017-10-27T08:43:36.431Z</time>
      </trkpt>
      <trkpt lat="43.52625" lon="3.92666">
        <ele>-5.3</ele>
        <time>2017-10-27T08:43:37.452Z</time>
      </trkpt>
      <trkpt lat="43.52628" lon="3.9267">
        <ele>-5.3</ele>
        <time>2017-10-27T08:43:38.456Z</time>
      </trkpt>
      <trkpt lat="43.52631" lon="3.92673">
        <ele>-5.2</ele>
        <time>2017-10-27T08:43:39.453Z</time>
      </trkpt>
      <trkpt lat="43.52635" lon="3.92676">
        <ele>-5.1</ele>
        <time>2017-10-27T08:43:40.450Z</time>
      </trkpt>
      <trkpt lat="43.52638" lon="3.9268">
        <ele>-4.9</ele>
        <time>2017-10-27T08:43:41.436Z</time>
      </trkpt>
      <trkpt lat="43.52641" lon="3.92684">
        <ele>-5</ele>
        <time>2017-10-27T08:43:42.452Z</time>
      </trkpt>
      <trkpt lat="43.52644" lon="3.92689">
        <ele>-5.3</ele>
        <time>2017-10-27T08:43:43.452Z</time>
      </trkpt>
      <trkpt lat="43.52646" lon="3.92693">
        <ele>-5.3</ele>
        <time>2017-10-27T08:43:44.450Z</time>
      </trkpt>
      <trkpt lat="43.52648" lon="3.92697">
        <ele>-5.3</ele>
        <time>2017-10-27T08:43:45.435Z</time>
      </trkpt>
      <trkpt lat="43.5265" lon="3.927">
        <ele>-5.4</ele>
        <time>2017-10-27T08:43:46.435Z</time>
      </trkpt>
      <trkpt lat="43.52651" lon="3.92703">
        <ele>-5.4</ele>
        <time>2017-10-27T08:43:47.432Z</time>
      </trkpt>
      <trkpt lat="43.52652" lon="3.92705">
        <ele>-5.4</ele>
        <time>2017-10-27T08:43:48.433Z</time>
      </trkpt>
      <trkpt lat="43.52654" lon="3.92707">
        <ele>-6.1</ele>
        <time>2017-10-27T08:43:50.454Z</time>
      </trkpt>
      <trkpt lat="43.52655" lon="3.92708">
        <ele>-6.4</ele>
        <time>2017-10-27T08:43:51.475Z</time>
      </trkpt>
      <trkpt lat="43.52657" lon="3.92709">
        <ele>-6.6</ele>
        <time>2017-10-27T08:43:52.446Z</time>
      </trkpt>
      <trkpt lat="43.5266" lon="3.9271">
        <ele>-7.2</ele>
        <time>2017-10-27T08:43:53.459Z</time>
      </trkpt>
      <trkpt lat="43.52662" lon="3.92712">
        <ele>-7</ele>
        <time>2017-10-27T08:43:54.447Z</time>
      </trkpt>
      <trkpt lat="43.52664" lon="3.92716">
        <ele>-6.6</ele>
        <time>2017-10-27T08:43:55.450Z</time>
      </trkpt>
      <trkpt lat="43.52665" lon="3.9272">
        <ele>-6.7</ele>
        <time>2017-10-27T08:43:56.445Z</time>
      </trkpt>
      <trkpt lat="43.52667" lon="3.92725">
        <ele>-6.9</ele>
        <time>2017-10-27T08:43:57.432Z</time>
      </trkpt>
      <trkpt lat="43.5267" lon="3.92728">
        <ele>-7.4</ele>
        <time>2017-10-27T08:43:58.449Z</time>
      </trkpt>
      <trkpt lat="43.52674" lon="3.92731">
        <ele>-7.6</ele>
        <time>2017-10-27T08:43:59.448Z</time>
      </trkpt>
      <trkpt lat="43.52678" lon="3.92734">
        <ele>-7.6</ele>
        <time>2017-10-27T08:44:00.454Z</time>
      </trkpt>
      <trkpt lat="43.52682" lon="3.92736">
        <ele>-7.6</ele>
        <time>2017-10-27T08:44:01.446Z</time>
      </trkpt>
      <trkpt lat="43.52686" lon="3.92738">
        <ele>-7.2</ele>
        <time>2017-10-27T08:44:02.450Z</time>
      </trkpt>
      <trkpt lat="43.5269" lon="3.9274">
        <ele>-7.3</ele>
        <time>2017-10-27T08:44:03.446Z</time>
      </trkpt>
      <trkpt lat="43.52694" lon="3.92743">
        <ele>-7.5</ele>
        <time>2017-10-27T08:44:04.432Z</time>
      </trkpt>
      <trkpt lat="43.52698" lon="3.92747">
        <ele>-7.7</ele>
        <time>2017-10-27T08:44:05.460Z</time>
      </trkpt>
      <trkpt lat="43.52701" lon="3.92751">
        <ele>-7.9</ele>
        <time>2017-10-27T08:44:06.434Z</time>
      </trkpt>
      <trkpt lat="43.52705" lon="3.92755">
        <ele>-8.1</ele>
        <time>2017-10-27T08:44:07.432Z</time>
      </trkpt>
      <trkpt lat="43.52708" lon="3.92759">
        <ele>-8.1</ele>
        <time>2017-10-27T08:44:08.431Z</time>
      </trkpt>
      <trkpt lat="43.52712" lon="3.92763">
        <ele>-8.1</ele>
        <time>2017-10-27T08:44:09.452Z</time>
      </trkpt>
      <trkpt lat="43.52715" lon="3.92767">
        <ele>-8.2</ele>
        <time>2017-10-27T08:44:10.448Z</time>
      </trkpt>
      <trkpt lat="43.52718" lon="3.92771">
        <ele>-8.3</ele>
        <time>2017-10-27T08:44:11.447Z</time>
      </trkpt>
      <trkpt lat="43.52722" lon="3.92775">
        <ele>-7.7</ele>
        <time>2017-10-27T08:44:12.437Z</time>
      </trkpt>
      <trkpt lat="43.52726" lon="3.9278">
        <ele>-7.7</ele>
        <time>2017-10-27T08:44:13.446Z</time>
      </trkpt>
      <trkpt lat="43.5273" lon="3.92785">
        <ele>-7.9</ele>
        <time>2017-10-27T08:44:14.432Z</time>
      </trkpt>
      <trkpt lat="43.52733" lon="3.92789">
        <ele>-8.1</ele>
        <time>2017-10-27T08:44:15.445Z</time>
      </trkpt>
      <trkpt lat="43.52737" lon="3.92794">
        <ele>-8.2</ele>
        <time>2017-10-27T08:44:16.431Z</time>
      </trkpt>
      <trkpt lat="43.52741" lon="3.92799">
        <ele>-8.3</ele>
        <time>2017-10-27T08:44:17.445Z</time>
      </trkpt>
      <trkpt lat="43.52745" lon="3.92804">
        <ele>-8.1</ele>
        <time>2017-10-27T08:44:18.448Z</time>
      </trkpt>
      <trkpt lat="43.52748" lon="3.92809">
        <ele>-8.2</ele>
        <time>2017-10-27T08:44:19.432Z</time>
      </trkpt>
      <trkpt lat="43.52752" lon="3.92814">
        <ele>-8.3</ele>
        <time>2017-10-27T08:44:20.445Z</time>
      </trkpt>
      <trkpt lat="43.52756" lon="3.92819">
        <ele>-8.4</ele>
        <time>2017-10-27T08:44:21.446Z</time>
      </trkpt>
      <trkpt lat="43.52759" lon="3.92823">
        <ele>-8.6</ele>
        <time>2017-10-27T08:44:22.454Z</time>
      </trkpt>
      <trkpt lat="43.52762" lon="3.92827">
        <ele>-8.9</ele>
        <time>2017-10-27T08:44:23.432Z</time>
      </trkpt>
      <trkpt lat="43.52765" lon="3.9283">
        <ele>-9.2</ele>
        <time>2017-10-27T08:44:24.435Z</time>
      </trkpt>
      <trkpt lat="43.52767" lon="3.92832">
        <ele>-10.1</ele>
        <time>2017-10-27T08:44:25.434Z</time>
      </trkpt>
      <trkpt lat="43.5277" lon="3.92835">
        <ele>-10.7</ele>
        <time>2017-10-27T08:44:26.444Z</time>
      </trkpt>
      <trkpt lat="43.52772" lon="3.92837">
        <ele>-10.6</ele>
        <time>2017-10-27T08:44:27.454Z</time>
      </trkpt>
      <trkpt lat="43.52774" lon="3.92839">
        <ele>-10.8</ele>
        <time>2017-10-27T08:44:28.445Z</time>
      </trkpt>
      <trkpt lat="43.52776" lon="3.92841">
        <ele>-10.9</ele>
        <time>2017-10-27T08:44:29.458Z</time>
      </trkpt>
      <trkpt lat="43.52777" lon="3.92843">
        <ele>-10.9</ele>
        <time>2017-10-27T08:44:30.447Z</time>
      </trkpt>
      <trkpt lat="43.52778" lon="3.92844">
        <ele>-11.1</ele>
        <time>2017-10-27T08:44:31.450Z</time>
      </trkpt>
      <trkpt lat="43.52779" lon="3.92846">
        <ele>-11.3</ele>
        <time>2017-10-27T08:44:32.446Z</time>
      </trkpt>
      <trkpt lat="43.52781" lon="3.92848">
        <ele>-11.4</ele>
        <time>2017-10-27T08:44:33.431Z</time>
      </trkpt>
      <trkpt lat="43.52782" lon="3.92849">
        <ele>-11.7</ele>
        <time>2017-10-27T08:44:34.434Z</time>
      </trkpt>
      <trkpt lat="43.52783" lon="3.92851">
        <ele>-11.7</ele>
        <time>2017-10-27T08:44:35.446Z</time>
      </trkpt>
      <trkpt lat="43.52785" lon="3.92853">
        <ele>-11.9</ele>
        <time>2017-10-27T08:44:36.441Z</time>
      </trkpt>
      <trkpt lat="43.52786" lon="3.92855">
        <ele>-11.9</ele>
        <time>2017-10-27T08:44:37.446Z</time>
      </trkpt>
      <trkpt lat="43.52788" lon="3.92857">
        <ele>-12</ele>
        <time>2017-10-27T08:44:38.433Z</time>
      </trkpt>
      <trkpt lat="43.5279" lon="3.92859">
        <ele>-12.1</ele>
        <time>2017-10-27T08:44:39.446Z</time>
      </trkpt>
      <trkpt lat="43.52791" lon="3.92861">
        <ele>-12.2</ele>
        <time>2017-10-27T08:44:40.432Z</time>
      </trkpt>
      <trkpt lat="43.52794" lon="3.92863">
        <ele>-12.2</ele>
        <time>2017-10-27T08:44:41.446Z</time>
      </trkpt>
      <trkpt lat="43.52795" lon="3.92865">
        <ele>-12.3</ele>
        <time>2017-10-27T08:44:42.447Z</time>
      </trkpt>
      <trkpt lat="43.52797" lon="3.92867">
        <ele>-12.5</ele>
        <time>2017-10-27T08:44:43.447Z</time>
      </trkpt>
      <trkpt lat="43.52798" lon="3.92869">
        <ele>-12.8</ele>
        <time>2017-10-27T08:44:44.447Z</time>
      </trkpt>
      <trkpt lat="43.528" lon="3.92871">
        <ele>-13.1</ele>
        <time>2017-10-27T08:44:45.432Z</time>
      </trkpt>
      <trkpt lat="43.52802" lon="3.92874">
        <ele>-13.6</ele>
        <time>2017-10-27T08:44:46.431Z</time>
      </trkpt>
      <trkpt lat="43.52805" lon="3.92877">
        <ele>-14.1</ele>
        <time>2017-10-27T08:44:47.432Z</time>
      </trkpt>
      <trkpt lat="43.52806" lon="3.92879">
        <ele>-14.4</ele>
        <time>2017-10-27T08:44:48.444Z</time>
      </trkpt>
      <trkpt lat="43.52808" lon="3.92881">
        <ele>-14.8</ele>
        <time>2017-10-27T08:44:49.477Z</time>
      </trkpt>
      <trkpt lat="43.5281" lon="3.92883">
        <ele>-15.2</ele>
        <time>2017-10-27T08:44:50.441Z</time>
      </trkpt>
      <trkpt lat="43.52811" lon="3.92884">
        <ele>-15.6</ele>
        <time>2017-10-27T08:44:51.451Z</time>
      </trkpt>
      <trkpt lat="43.52813" lon="3.92886">
        <ele>-16</ele>
        <time>2017-10-27T08:44:52.446Z</time>
      </trkpt>
      <trkpt lat="43.52814" lon="3.92887">
        <ele>-16.3</ele>
        <time>2017-10-27T08:44:53.447Z</time>
      </trkpt>
      <trkpt lat="43.52816" lon="3.92889">
        <ele>-16.8</ele>
        <time>2017-10-27T08:44:54.436Z</time>
      </trkpt>
      <trkpt lat="43.52818" lon="3.92891">
        <ele>-17</ele>
        <time>2017-10-27T08:44:55.446Z</time>
      </trkpt>
      <trkpt lat="43.52821" lon="3.92893">
        <ele>-16.7</ele>
        <time>2017-10-27T08:44:56.446Z</time>
      </trkpt>
      <trkpt lat="43.52823" lon="3.92895">
        <ele>-17.1</ele>
        <time>2017-10-27T08:44:57.454Z</time>
      </trkpt>
      <trkpt lat="43.52827" lon="3.92896">
        <ele>-16.1</ele>
        <time>2017-10-27T08:44:58.446Z</time>
      </trkpt>
      <trkpt lat="43.52831" lon="3.92895">
        <ele>-15.5</ele>
        <time>2017-10-27T08:44:59.447Z</time>
      </trkpt>
      <trkpt lat="43.52835" lon="3.92894">
        <ele>-14.9</ele>
        <time>2017-10-27T08:45:00.437Z</time>
      </trkpt>
      <trkpt lat="43.52837" lon="3.92892">
        <ele>-14.1</ele>
        <time>2017-10-27T08:45:01.453Z</time>
      </trkpt>
      <trkpt lat="43.52839" lon="3.92892">
        <ele>-13.2</ele>
        <time>2017-10-27T08:45:02.454Z</time>
      </trkpt>
      <trkpt lat="43.52846" lon="3.92894">
        <ele>-9.9</ele>
        <time>2017-10-27T08:45:11.438Z</time>
      </trkpt>
      <trkpt lat="43.52849" lon="3.92895">
        <ele>-9.6</ele>
        <time>2017-10-27T08:45:12.438Z</time>
      </trkpt>
      <trkpt lat="43.52851" lon="3.92897">
        <ele>-9</ele>
        <time>2017-10-27T08:45:13.447Z</time>
      </trkpt>
      <trkpt lat="43.52853" lon="3.92899">
        <ele>-8.8</ele>
        <time>2017-10-27T08:45:14.447Z</time>
      </trkpt>
      <trkpt lat="43.52854" lon="3.92901">
        <ele>-8.7</ele>
        <time>2017-10-27T08:45:15.446Z</time>
      </trkpt>
      <trkpt lat="43.52856" lon="3.92903">
        <ele>-8.4</ele>
        <time>2017-10-27T08:45:16.449Z</time>
      </trkpt>
      <trkpt lat="43.52858" lon="3.92904">
        <ele>-8.2</ele>
        <time>2017-10-27T08:45:17.449Z</time>
      </trkpt>
      <trkpt lat="43.5286" lon="3.92906">
        <ele>-8.1</ele>
        <time>2017-10-27T08:45:18.450Z</time>
      </trkpt>
      <trkpt lat="43.52861" lon="3.92907">
        <ele>-7.8</ele>
        <time>2017-10-27T08:45:19.454Z</time>
      </trkpt>
      <trkpt lat="43.52864" lon="3.92908">
        <ele>-7.5</ele>
        <time>2017-10-27T08:45:20.448Z</time>
      </trkpt>
      <trkpt lat="43.52866" lon="3.92909">
        <ele>-7.3</ele>
        <time>2017-10-27T08:45:21.445Z</time>
      </trkpt>
      <trkpt lat="43.52869" lon="3.92909">
        <ele>-7.2</ele>
        <time>2017-10-27T08:45:22.449Z</time>
      </trkpt>
      <trkpt lat="43.52871" lon="3.92909">
        <ele>-7.1</ele>
        <time>2017-10-27T08:45:23.445Z</time>
      </trkpt>
      <trkpt lat="43.52874" lon="3.92909">
        <ele>-7.3</ele>
        <time>2017-10-27T08:45:24.455Z</time>
      </trkpt>
      <trkpt lat="43.52876" lon="3.9291">
        <ele>-7.4</ele>
        <time>2017-10-27T08:45:25.447Z</time>
      </trkpt>
      <trkpt lat="43.52877" lon="3.92911">
        <ele>-7.5</ele>
        <time>2017-10-27T08:45:26.445Z</time>
      </trkpt>
      <trkpt lat="43.52879" lon="3.92912">
        <ele>-7.6</ele>
        <time>2017-10-27T08:45:27.455Z</time>
      </trkpt>
      <trkpt lat="43.52882" lon="3.92916">
        <ele>-7.5</ele>
        <time>2017-10-27T08:45:33.446Z</time>
      </trkpt>
      <trkpt lat="43.52884" lon="3.92916">
        <ele>-7.5</ele>
        <time>2017-10-27T08:45:35.448Z</time>
      </trkpt>
      <trkpt lat="43.5289" lon="3.92909">
        <ele>-7.5</ele>
        <time>2017-10-27T08:45:49.446Z</time>
      </trkpt>
      <trkpt lat="43.52891" lon="3.92907">
        <ele>-7.5</ele>
        <time>2017-10-27T08:45:51.447Z</time>
      </trkpt>
      <trkpt lat="43.52893" lon="3.92904">
        <ele>-7.5</ele>
        <time>2017-10-27T08:45:53.447Z</time>
      </trkpt>
      <trkpt lat="43.52899" lon="3.92895">
        <ele>-7.5</ele>
        <time>2017-10-27T08:46:08.450Z</time>
      </trkpt>
      <trkpt lat="43.52901" lon="3.92892">
        <ele>-7.7</ele>
        <time>2017-10-27T08:46:09.439Z</time>
      </trkpt>
      <trkpt lat="43.52902" lon="3.92887">
        <ele>-7.9</ele>
        <time>2017-10-27T08:46:10.483Z</time>
      </trkpt>
      <trkpt lat="43.52904" lon="3.92883">
        <ele>-8.1</ele>
        <time>2017-10-27T08:46:11.444Z</time>
      </trkpt>
      <trkpt lat="43.52906" lon="3.92879">
        <ele>-8.2</ele>
        <time>2017-10-27T08:46:12.452Z</time>
      </trkpt>
      <trkpt lat="43.52907" lon="3.92875">
        <ele>-8.4</ele>
        <time>2017-10-27T08:46:13.447Z</time>
      </trkpt>
      <trkpt lat="43.52909" lon="3.92872">
        <ele>-8.6</ele>
        <time>2017-10-27T08:46:14.445Z</time>
      </trkpt>
      <trkpt lat="43.5291" lon="3.92869">
        <ele>-8.9</ele>
        <time>2017-10-27T08:46:15.445Z</time>
      </trkpt>
      <trkpt lat="43.52911" lon="3.92866">
        <ele>-9</ele>
        <time>2017-10-27T08:46:16.445Z</time>
      </trkpt>
      <trkpt lat="43.52912" lon="3.92863">
        <ele>-9.1</ele>
        <time>2017-10-27T08:46:17.446Z</time>
      </trkpt>
      <trkpt lat="43.52913" lon="3.9286">
        <ele>-9.2</ele>
        <time>2017-10-27T08:46:18.447Z</time>
      </trkpt>
      <trkpt lat="43.52915" lon="3.92858">
        <ele>-9.1</ele>
        <time>2017-10-27T08:46:19.445Z</time>
      </trkpt>
      <trkpt lat="43.52916" lon="3.92855">
        <ele>-9.2</ele>
        <time>2017-10-27T08:46:20.447Z</time>
      </trkpt>
      <trkpt lat="43.52917" lon="3.92853">
        <ele>-9.2</ele>
        <time>2017-10-27T08:46:21.445Z</time>
      </trkpt>
      <trkpt lat="43.52919" lon="3.9285">
        <ele>-9.2</ele>
        <time>2017-10-27T08:46:22.444Z</time>
      </trkpt>
      <trkpt lat="43.52921" lon="3.92848">
        <ele>-9.4</ele>
        <time>2017-10-27T08:46:23.445Z</time>
      </trkpt>
      <trkpt lat="43.52923" lon="3.92845">
        <ele>-9.6</ele>
        <time>2017-10-27T08:46:24.447Z</time>
      </trkpt>
      <trkpt lat="43.52924" lon="3.92843">
        <ele>-9.8</ele>
        <time>2017-10-27T08:46:25.432Z</time>
      </trkpt>
      <trkpt lat="43.52926" lon="3.9284">
        <ele>-10.1</ele>
        <time>2017-10-27T08:46:26.436Z</time>
      </trkpt>
      <trkpt lat="43.52928" lon="3.92838">
        <ele>-10.3</ele>
        <time>2017-10-27T08:46:27.432Z</time>
      </trkpt>
      <trkpt lat="43.5293" lon="3.92836">
        <ele>-10.4</ele>
        <time>2017-10-27T08:46:28.431Z</time>
      </trkpt>
      <trkpt lat="43.52932" lon="3.92834">
        <ele>-10.6</ele>
        <time>2017-10-27T08:46:29.444Z</time>
      </trkpt>
      <trkpt lat="43.52934" lon="3.92832">
        <ele>-10.6</ele>
        <time>2017-10-27T08:46:30.453Z</time>
      </trkpt>
      <trkpt lat="43.52936" lon="3.92829">
        <ele>-10.8</ele>
        <time>2017-10-27T08:46:31.446Z</time>
      </trkpt>
      <trkpt lat="43.52938" lon="3.92826">
        <ele>-11</ele>
        <time>2017-10-27T08:46:32.446Z</time>
      </trkpt>
      <trkpt lat="43.52939" lon="3.92824">
        <ele>-11</ele>
        <time>2017-10-27T08:46:33.445Z</time>
      </trkpt>
      <trkpt lat="43.52941" lon="3.92822">
        <ele>-11.2</ele>
        <time>2017-10-27T08:46:34.444Z</time>
      </trkpt>
      <trkpt lat="43.52942" lon="3.92818">
        <ele>-11.1</ele>
        <time>2017-10-27T08:46:35.445Z</time>
      </trkpt>
      <trkpt lat="43.52944" lon="3.92815">
        <ele>-10.5</ele>
        <time>2017-10-27T08:46:36.446Z</time>
      </trkpt>
      <trkpt lat="43.52946" lon="3.92812">
        <ele>-10.6</ele>
        <time>2017-10-27T08:46:37.446Z</time>
      </trkpt>
      <trkpt lat="43.52947" lon="3.92809">
        <ele>-10.5</ele>
        <time>2017-10-27T08:46:38.446Z</time>
      </trkpt>
      <trkpt lat="43.52948" lon="3.92805">
        <ele>-10.6</ele>
        <time>2017-10-27T08:46:39.449Z</time>
      </trkpt>
      <trkpt lat="43.52949" lon="3.92801">
        <ele>-10.4</ele>
        <time>2017-10-27T08:46:40.445Z</time>
      </trkpt>
      <trkpt lat="43.5295" lon="3.92798">
        <ele>-10.3</ele>
        <time>2017-10-27T08:46:41.445Z</time>
      </trkpt>
      <trkpt lat="43.52951" lon="3.92794">
        <ele>-10.2</ele>
        <time>2017-10-27T08:46:42.446Z</time>
      </trkpt>
      <trkpt lat="43.52952" lon="3.9279">
        <ele>-10.3</ele>
        <time>2017-10-27T08:46:43.445Z</time>
      </trkpt>
      <trkpt lat="43.52953" lon="3.92787">
        <ele>-10.2</ele>
        <time>2017-10-27T08:46:44.431Z</time>
      </trkpt>
      <trkpt lat="43.52955" lon="3.92784">
        <ele>-10.2</ele>
        <time>2017-10-27T08:46:45.432Z</time>
      </trkpt>
      <trkpt lat="43.52956" lon="3.92781">
        <ele>-10.1</ele>
        <time>2017-10-27T08:46:46.431Z</time>
      </trkpt>
      <trkpt lat="43.52957" lon="3.92777">
        <ele>-9.3</ele>
        <time>2017-10-27T08:46:47.435Z</time>
      </trkpt>
      <trkpt lat="43.52959" lon="3.92774">
        <ele>-9.3</ele>
        <time>2017-10-27T08:46:48.470Z</time>
      </trkpt>
      <trkpt lat="43.52961" lon="3.92771">
        <ele>-9.3</ele>
        <time>2017-10-27T08:46:49.450Z</time>
      </trkpt>
      <trkpt lat="43.52962" lon="3.92768">
        <ele>-9.3</ele>
        <time>2017-10-27T08:46:50.450Z</time>
      </trkpt>
      <trkpt lat="43.52963" lon="3.92765">
        <ele>-9.1</ele>
        <time>2017-10-27T08:46:51.446Z</time>
      </trkpt>
      <trkpt lat="43.52964" lon="3.92762">
        <ele>-8.9</ele>
        <time>2017-10-27T08:46:52.448Z</time>
      </trkpt>
      <trkpt lat="43.52966" lon="3.92759">
        <ele>-8.8</ele>
        <time>2017-10-27T08:46:53.454Z</time>
      </trkpt>
      <trkpt lat="43.52967" lon="3.92755">
        <ele>-8.6</ele>
        <time>2017-10-27T08:46:54.451Z</time>
      </trkpt>
      <trkpt lat="43.52969" lon="3.92752">
        <ele>-8.6</ele>
        <time>2017-10-27T08:46:55.448Z</time>
      </trkpt>
      <trkpt lat="43.5297" lon="3.92748">
        <ele>-8.6</ele>
        <time>2017-10-27T08:46:56.446Z</time>
      </trkpt>
      <trkpt lat="43.52972" lon="3.92745">
        <ele>-8.7</ele>
        <time>2017-10-27T08:46:57.432Z</time>
      </trkpt>
      <trkpt lat="43.52973" lon="3.9274">
        <ele>-8.6</ele>
        <time>2017-10-27T08:46:58.445Z</time>
      </trkpt>
      <trkpt lat="43.52975" lon="3.92736">
        <ele>-8.7</ele>
        <time>2017-10-27T08:46:59.445Z</time>
      </trkpt>
      <trkpt lat="43.52977" lon="3.92733">
        <ele>-8.9</ele>
        <time>2017-10-27T08:47:00.455Z</time>
      </trkpt>
      <trkpt lat="43.52978" lon="3.92729">
        <ele>-9</ele>
        <time>2017-10-27T08:47:01.445Z</time>
      </trkpt>
      <trkpt lat="43.5298" lon="3.92725">
        <ele>-9.1</ele>
        <time>2017-10-27T08:47:02.455Z</time>
      </trkpt>
      <trkpt lat="43.52982" lon="3.92721">
        <ele>-9.1</ele>
        <time>2017-10-27T08:47:03.432Z</time>
      </trkpt>
      <trkpt lat="43.52984" lon="3.92717">
        <ele>-9.2</ele>
        <time>2017-10-27T08:47:04.431Z</time>
      </trkpt>
      <trkpt lat="43.52986" lon="3.92714">
        <ele>-9.2</ele>
        <time>2017-10-27T08:47:05.435Z</time>
      </trkpt>
      <trkpt lat="43.52988" lon="3.9271">
        <ele>-9.2</ele>
        <time>2017-10-27T08:47:06.433Z</time>
      </trkpt>
      <trkpt lat="43.52989" lon="3.92706">
        <ele>-9</ele>
        <time>2017-10-27T08:47:07.436Z</time>
      </trkpt>
      <trkpt lat="43.52991" lon="3.92702">
        <ele>-8.8</ele>
        <time>2017-10-27T08:47:08.449Z</time>
      </trkpt>
      <trkpt lat="43.52993" lon="3.92699">
        <ele>-8.8</ele>
        <time>2017-10-27T08:47:09.448Z</time>
      </trkpt>
      <trkpt lat="43.52995" lon="3.92695">
        <ele>-8.8</ele>
        <time>2017-10-27T08:47:10.446Z</time>
      </trkpt>
      <trkpt lat="43.52998" lon="3.92692">
        <ele>-8.8</ele>
        <time>2017-10-27T08:47:11.445Z</time>
      </trkpt>
      <trkpt lat="43.53" lon="3.92689">
        <ele>-8.8</ele>
        <time>2017-10-27T08:47:12.454Z</time>
      </trkpt>
      <trkpt lat="43.53002" lon="3.92686">
        <ele>-8.9</ele>
        <time>2017-10-27T08:47:13.445Z</time>
      </trkpt>
      <trkpt lat="43.53004" lon="3.92682">
        <ele>-8.9</ele>
        <time>2017-10-27T08:47:14.446Z</time>
      </trkpt>
      <trkpt lat="43.53006" lon="3.92679">
        <ele>-9</ele>
        <time>2017-10-27T08:47:15.451Z</time>
      </trkpt>
      <trkpt lat="43.53008" lon="3.92676">
        <ele>-9.1</ele>
        <time>2017-10-27T08:47:16.445Z</time>
      </trkpt>
      <trkpt lat="43.5301" lon="3.92673">
        <ele>-8.9</ele>
        <time>2017-10-27T08:47:17.445Z</time>
      </trkpt>
      <trkpt lat="43.53012" lon="3.9267">
        <ele>-9.1</ele>
        <time>2017-10-27T08:47:18.454Z</time>
      </trkpt>
      <trkpt lat="43.53014" lon="3.92666">
        <ele>-8.9</ele>
        <time>2017-10-27T08:47:19.450Z</time>
      </trkpt>
      <trkpt lat="43.53015" lon="3.92663">
        <ele>-8.8</ele>
        <time>2017-10-27T08:47:20.439Z</time>
      </trkpt>
      <trkpt lat="43.53017" lon="3.92659">
        <ele>-8.7</ele>
        <time>2017-10-27T08:47:21.448Z</time>
      </trkpt>
      <trkpt lat="43.53019" lon="3.92656">
        <ele>-8.8</ele>
        <time>2017-10-27T08:47:22.431Z</time>
      </trkpt>
      <trkpt lat="43.53021" lon="3.92653">
        <ele>-8.9</ele>
        <time>2017-10-27T08:47:23.446Z</time>
      </trkpt>
      <trkpt lat="43.53022" lon="3.92649">
        <ele>-9</ele>
        <time>2017-10-27T08:47:24.433Z</time>
      </trkpt>
      <trkpt lat="43.53024" lon="3.92646">
        <ele>-9.3</ele>
        <time>2017-10-27T08:47:25.436Z</time>
      </trkpt>
      <trkpt lat="43.53026" lon="3.92643">
        <ele>-9.5</ele>
        <time>2017-10-27T08:47:26.449Z</time>
      </trkpt>
      <trkpt lat="43.53028" lon="3.92639">
        <ele>-9.8</ele>
        <time>2017-10-27T08:47:27.448Z</time>
      </trkpt>
      <trkpt lat="43.5303" lon="3.92635">
        <ele>-9.9</ele>
        <time>2017-10-27T08:47:28.450Z</time>
      </trkpt>
      <trkpt lat="43.53032" lon="3.92632">
        <ele>-9.9</ele>
        <time>2017-10-27T08:47:29.446Z</time>
      </trkpt>
      <trkpt lat="43.53033" lon="3.92628">
        <ele>-9.8</ele>
        <time>2017-10-27T08:47:30.451Z</time>
      </trkpt>
      <trkpt lat="43.53035" lon="3.92625">
        <ele>-9.7</ele>
        <time>2017-10-27T08:47:31.432Z</time>
      </trkpt>
      <trkpt lat="43.53037" lon="3.92621">
        <ele>-9.5</ele>
        <time>2017-10-27T08:47:32.446Z</time>
      </trkpt>
      <trkpt lat="43.53039" lon="3.92618">
        <ele>-9.3</ele>
        <time>2017-10-27T08:47:33.447Z</time>
      </trkpt>
      <trkpt lat="43.53041" lon="3.92614">
        <ele>-9.3</ele>
        <time>2017-10-27T08:47:34.446Z</time>
      </trkpt>
      <trkpt lat="43.53043" lon="3.92611">
        <ele>-9.4</ele>
        <time>2017-10-27T08:47:35.446Z</time>
      </trkpt>
      <trkpt lat="43.53045" lon="3.92608">
        <ele>-9.4</ele>
        <time>2017-10-27T08:47:36.452Z</time>
      </trkpt>
      <trkpt lat="43.53046" lon="3.92604">
        <ele>-9.5</ele>
        <time>2017-10-27T08:47:37.451Z</time>
      </trkpt>
      <trkpt lat="43.53048" lon="3.92601">
        <ele>-9.7</ele>
        <time>2017-10-27T08:47:38.446Z</time>
      </trkpt>
      <trkpt lat="43.5305" lon="3.92598">
        <ele>-9.6</ele>
        <time>2017-10-27T08:47:39.446Z</time>
      </trkpt>
      <trkpt lat="43.53052" lon="3.92595">
        <ele>-10</ele>
        <time>2017-10-27T08:47:40.450Z</time>
      </trkpt>
      <trkpt lat="43.53054" lon="3.92591">
        <ele>-10.1</ele>
        <time>2017-10-27T08:47:41.458Z</time>
      </trkpt>
      <trkpt lat="43.53055" lon="3.92588">
        <ele>-10.1</ele>
        <time>2017-10-27T08:47:42.458Z</time>
      </trkpt>
      <trkpt lat="43.53057" lon="3.92585">
        <ele>-10.1</ele>
        <time>2017-10-27T08:47:43.457Z</time>
      </trkpt>
      <trkpt lat="43.53059" lon="3.92582">
        <ele>-9.9</ele>
        <time>2017-10-27T08:47:44.447Z</time>
      </trkpt>
      <trkpt lat="43.5306" lon="3.92578">
        <ele>-9.9</ele>
        <time>2017-10-27T08:47:45.435Z</time>
      </trkpt>
      <trkpt lat="43.53062" lon="3.92575">
        <ele>-9.7</ele>
        <time>2017-10-27T08:47:46.432Z</time>
      </trkpt>
      <trkpt lat="43.53064" lon="3.92572">
        <ele>-9.4</ele>
        <time>2017-10-27T08:47:47.432Z</time>
      </trkpt>
      <trkpt lat="43.53066" lon="3.92568">
        <ele>-9.3</ele>
        <time>2017-10-27T08:47:48.439Z</time>
      </trkpt>
      <trkpt lat="43.53067" lon="3.92565">
        <ele>-9.1</ele>
        <time>2017-10-27T08:47:49.440Z</time>
      </trkpt>
      <trkpt lat="43.53069" lon="3.92561">
        <ele>-9</ele>
        <time>2017-10-27T08:47:50.452Z</time>
      </trkpt>
      <trkpt lat="43.53071" lon="3.92557">
        <ele>-8.9</ele>
        <time>2017-10-27T08:47:51.447Z</time>
      </trkpt>
      <trkpt lat="43.53073" lon="3.92554">
        <ele>-8.9</ele>
        <time>2017-10-27T08:47:52.450Z</time>
      </trkpt>
      <trkpt lat="43.53075" lon="3.92551">
        <ele>-8.8</ele>
        <time>2017-10-27T08:47:53.436Z</time>
      </trkpt>
      <trkpt lat="43.53077" lon="3.92547">
        <ele>-8.9</ele>
        <time>2017-10-27T08:47:54.437Z</time>
      </trkpt>
      <trkpt lat="43.53078" lon="3.92544">
        <ele>-8.9</ele>
        <time>2017-10-27T08:47:55.453Z</time>
      </trkpt>
      <trkpt lat="43.5308" lon="3.92541">
        <ele>-9</ele>
        <time>2017-10-27T08:47:56.463Z</time>
      </trkpt>
      <trkpt lat="43.53082" lon="3.92537">
        <ele>-8.9</ele>
        <time>2017-10-27T08:47:57.441Z</time>
      </trkpt>
      <trkpt lat="43.53084" lon="3.92534">
        <ele>-8.9</ele>
        <time>2017-10-27T08:47:58.463Z</time>
      </trkpt>
      <trkpt lat="43.53086" lon="3.92531">
        <ele>-8.9</ele>
        <time>2017-10-27T08:47:59.454Z</time>
      </trkpt>
      <trkpt lat="43.53088" lon="3.92527">
        <ele>-8.8</ele>
        <time>2017-10-27T08:48:00.446Z</time>
      </trkpt>
      <trkpt lat="43.5309" lon="3.92524">
        <ele>-8.9</ele>
        <time>2017-10-27T08:48:01.448Z</time>
      </trkpt>
      <trkpt lat="43.53091" lon="3.9252">
        <ele>-8.6</ele>
        <time>2017-10-27T08:48:02.446Z</time>
      </trkpt>
      <trkpt lat="43.53093" lon="3.92517">
        <ele>-8.8</ele>
        <time>2017-10-27T08:48:03.446Z</time>
      </trkpt>
      <trkpt lat="43.53095" lon="3.92514">
        <ele>-8.7</ele>
        <time>2017-10-27T08:48:04.445Z</time>
      </trkpt>
      <trkpt lat="43.53097" lon="3.9251">
        <ele>-8.5</ele>
        <time>2017-10-27T08:48:05.432Z</time>
      </trkpt>
      <trkpt lat="43.53099" lon="3.92507">
        <ele>-8.3</ele>
        <time>2017-10-27T08:48:06.433Z</time>
      </trkpt>
      <trkpt lat="43.53101" lon="3.92503">
        <ele>-8</ele>
        <time>2017-10-27T08:48:07.434Z</time>
      </trkpt>
      <trkpt lat="43.53103" lon="3.925">
        <ele>-8</ele>
        <time>2017-10-27T08:48:08.445Z</time>
      </trkpt>
      <trkpt lat="43.53105" lon="3.92496">
        <ele>-8</ele>
        <time>2017-10-27T08:48:09.451Z</time>
      </trkpt>
      <trkpt lat="43.53107" lon="3.92493">
        <ele>-8.1</ele>
        <time>2017-10-27T08:48:10.445Z</time>
      </trkpt>
      <trkpt lat="43.5311" lon="3.9249">
        <ele>-8.2</ele>
        <time>2017-10-27T08:48:11.446Z</time>
      </trkpt>
      <trkpt lat="43.53113" lon="3.92488">
        <ele>-8.5</ele>
        <time>2017-10-27T08:48:12.446Z</time>
      </trkpt>
      <trkpt lat="43.53115" lon="3.92485">
        <ele>-8.6</ele>
        <time>2017-10-27T08:48:13.454Z</time>
      </trkpt>
      <trkpt lat="43.53118" lon="3.92482">
        <ele>-8.4</ele>
        <time>2017-10-27T08:48:14.454Z</time>
      </trkpt>
      <trkpt lat="43.53121" lon="3.92479">
        <ele>-8.4</ele>
        <time>2017-10-27T08:48:15.456Z</time>
      </trkpt>
      <trkpt lat="43.53122" lon="3.92476">
        <ele>-7.9</ele>
        <time>2017-10-27T08:48:16.451Z</time>
      </trkpt>
      <trkpt lat="43.53123" lon="3.92473">
        <ele>-7.7</ele>
        <time>2017-10-27T08:48:17.447Z</time>
      </trkpt>
      <trkpt lat="43.53124" lon="3.9247">
        <ele>-7.6</ele>
        <time>2017-10-27T08:48:18.450Z</time>
      </trkpt>
      <trkpt lat="43.53126" lon="3.92467">
        <ele>-7.4</ele>
        <time>2017-10-27T08:48:19.445Z</time>
      </trkpt>
      <trkpt lat="43.53127" lon="3.92464">
        <ele>-7.2</ele>
        <time>2017-10-27T08:48:20.445Z</time>
      </trkpt>
      <trkpt lat="43.53128" lon="3.92461">
        <ele>-7.3</ele>
        <time>2017-10-27T08:48:21.446Z</time>
      </trkpt>
      <trkpt lat="43.53129" lon="3.92457">
        <ele>-7.2</ele>
        <time>2017-10-27T08:48:22.450Z</time>
      </trkpt>
      <trkpt lat="43.5313" lon="3.92454">
        <ele>-7.2</ele>
        <time>2017-10-27T08:48:23.445Z</time>
      </trkpt>
      <trkpt lat="43.53132" lon="3.92451">
        <ele>-7.2</ele>
        <time>2017-10-27T08:48:24.435Z</time>
      </trkpt>
      <trkpt lat="43.53134" lon="3.92448">
        <ele>-7.2</ele>
        <time>2017-10-27T08:48:25.432Z</time>
      </trkpt>
      <trkpt lat="43.53137" lon="3.92445">
        <ele>-7.3</ele>
        <time>2017-10-27T08:48:26.432Z</time>
      </trkpt>
      <trkpt lat="43.53138" lon="3.92442">
        <ele>-7.2</ele>
        <time>2017-10-27T08:48:27.433Z</time>
      </trkpt>
      <trkpt lat="43.5314" lon="3.9244">
        <ele>-7.4</ele>
        <time>2017-10-27T08:48:28.450Z</time>
      </trkpt>
      <trkpt lat="43.53142" lon="3.92437">
        <ele>-7.3</ele>
        <time>2017-10-27T08:48:29.448Z</time>
      </trkpt>
      <trkpt lat="43.53144" lon="3.92434">
        <ele>-7.6</ele>
        <time>2017-10-27T08:48:30.456Z</time>
      </trkpt>
      <trkpt lat="43.53146" lon="3.92431">
        <ele>-7.7</ele>
        <time>2017-10-27T08:48:31.445Z</time>
      </trkpt>
      <trkpt lat="43.53148" lon="3.92427">
        <ele>-8</ele>
        <time>2017-10-27T08:48:32.435Z</time>
      </trkpt>
      <trkpt lat="43.5315" lon="3.92424">
        <ele>-8.1</ele>
        <time>2017-10-27T08:48:33.442Z</time>
      </trkpt>
      <trkpt lat="43.53152" lon="3.9242">
        <ele>-8.3</ele>
        <time>2017-10-27T08:48:34.448Z</time>
      </trkpt>
      <trkpt lat="43.53154" lon="3.92415">
        <ele>-8.4</ele>
        <time>2017-10-27T08:48:35.446Z</time>
      </trkpt>
      <trkpt lat="43.53156" lon="3.92411">
        <ele>-8.5</ele>
        <time>2017-10-27T08:48:36.447Z</time>
      </trkpt>
      <trkpt lat="43.53158" lon="3.92408">
        <ele>-8.7</ele>
        <time>2017-10-27T08:48:37.446Z</time>
      </trkpt>
      <trkpt lat="43.53161" lon="3.92404">
        <ele>-8.8</ele>
        <time>2017-10-27T08:48:38.449Z</time>
      </trkpt>
      <trkpt lat="43.53163" lon="3.924">
        <ele>-8.8</ele>
        <time>2017-10-27T08:48:39.462Z</time>
      </trkpt>
      <trkpt lat="43.53165" lon="3.92396">
        <ele>-8.8</ele>
        <time>2017-10-27T08:48:40.445Z</time>
      </trkpt>
      <trkpt lat="43.53168" lon="3.92392">
        <ele>-8.8</ele>
        <time>2017-10-27T08:48:41.449Z</time>
      </trkpt>
      <trkpt lat="43.5317" lon="3.92388">
        <ele>-8.9</ele>
        <time>2017-10-27T08:48:42.435Z</time>
      </trkpt>
      <trkpt lat="43.53173" lon="3.92383">
        <ele>-9</ele>
        <time>2017-10-27T08:48:43.432Z</time>
      </trkpt>
      <trkpt lat="43.53175" lon="3.92379">
        <ele>-9.1</ele>
        <time>2017-10-27T08:48:44.432Z</time>
      </trkpt>
      <trkpt lat="43.53177" lon="3.92374">
        <ele>-9.1</ele>
        <time>2017-10-27T08:48:45.432Z</time>
      </trkpt>
      <trkpt lat="43.53179" lon="3.9237">
        <ele>-9.1</ele>
        <time>2017-10-27T08:48:46.448Z</time>
      </trkpt>
      <trkpt lat="43.53181" lon="3.92365">
        <ele>-9.2</ele>
        <time>2017-10-27T08:48:47.446Z</time>
      </trkpt>
      <trkpt lat="43.53183" lon="3.9236">
        <ele>-9.3</ele>
        <time>2017-10-27T08:48:48.449Z</time>
      </trkpt>
      <trkpt lat="43.53185" lon="3.92355">
        <ele>-9.2</ele>
        <time>2017-10-27T08:48:49.446Z</time>
      </trkpt>
      <trkpt lat="43.53188" lon="3.92351">
        <ele>-9.5</ele>
        <time>2017-10-27T08:48:50.445Z</time>
      </trkpt>
      <trkpt lat="43.5319" lon="3.92346">
        <ele>-9.2</ele>
        <time>2017-10-27T08:48:51.445Z</time>
      </trkpt>
      <trkpt lat="43.53192" lon="3.92341">
        <ele>-9</ele>
        <time>2017-10-27T08:48:52.445Z</time>
      </trkpt>
      <trkpt lat="43.53195" lon="3.92337">
        <ele>-9</ele>
        <time>2017-10-27T08:48:53.445Z</time>
      </trkpt>
      <trkpt lat="43.53197" lon="3.92333">
        <ele>-9.1</ele>
        <time>2017-10-27T08:48:54.448Z</time>
      </trkpt>
      <trkpt lat="43.53199" lon="3.92328">
        <ele>-9</ele>
        <time>2017-10-27T08:48:55.448Z</time>
      </trkpt>
      <trkpt lat="43.53202" lon="3.92324">
        <ele>-9</ele>
        <time>2017-10-27T08:48:56.454Z</time>
      </trkpt>
      <trkpt lat="43.53204" lon="3.9232">
        <ele>-9.1</ele>
        <time>2017-10-27T08:48:57.449Z</time>
      </trkpt>
      <trkpt lat="43.53206" lon="3.92315">
        <ele>-9.1</ele>
        <time>2017-10-27T08:48:58.448Z</time>
      </trkpt>
      <trkpt lat="43.53208" lon="3.92311">
        <ele>-9.1</ele>
        <time>2017-10-27T08:48:59.432Z</time>
      </trkpt>
      <trkpt lat="43.5321" lon="3.92306">
        <ele>-9.3</ele>
        <time>2017-10-27T08:49:00.433Z</time>
      </trkpt>
      <trkpt lat="43.53213" lon="3.92302">
        <ele>-9.3</ele>
        <time>2017-10-27T08:49:01.432Z</time>
      </trkpt>
      <trkpt lat="43.53215" lon="3.92298">
        <ele>-9.3</ele>
        <time>2017-10-27T08:49:02.434Z</time>
      </trkpt>
      <trkpt lat="43.53218" lon="3.92293">
        <ele>-9.4</ele>
        <time>2017-10-27T08:49:03.464Z</time>
      </trkpt>
      <trkpt lat="43.5322" lon="3.92289">
        <ele>-9.3</ele>
        <time>2017-10-27T08:49:04.446Z</time>
      </trkpt>
      <trkpt lat="43.53222" lon="3.92285">
        <ele>-9.4</ele>
        <time>2017-10-27T08:49:05.448Z</time>
      </trkpt>
      <trkpt lat="43.53225" lon="3.9228">
        <ele>-9.4</ele>
        <time>2017-10-27T08:49:06.456Z</time>
      </trkpt>
      <trkpt lat="43.53227" lon="3.92276">
        <ele>-9.4</ele>
        <time>2017-10-27T08:49:07.446Z</time>
      </trkpt>
      <trkpt lat="43.53229" lon="3.92272">
        <ele>-9.3</ele>
        <time>2017-10-27T08:49:08.434Z</time>
      </trkpt>
      <trkpt lat="43.53231" lon="3.92267">
        <ele>-9.4</ele>
        <time>2017-10-27T08:49:09.435Z</time>
      </trkpt>
      <trkpt lat="43.53234" lon="3.92263">
        <ele>-9.4</ele>
        <time>2017-10-27T08:49:10.445Z</time>
      </trkpt>
      <trkpt lat="43.53236" lon="3.92259">
        <ele>-9.4</ele>
        <time>2017-10-27T08:49:11.448Z</time>
      </trkpt>
      <trkpt lat="43.53238" lon="3.92254">
        <ele>-9.4</ele>
        <time>2017-10-27T08:49:12.438Z</time>
      </trkpt>
      <trkpt lat="43.5324" lon="3.9225">
        <ele>-9.4</ele>
        <time>2017-10-27T08:49:13.444Z</time>
      </trkpt>
      <trkpt lat="43.53243" lon="3.92246">
        <ele>-9.3</ele>
        <time>2017-10-27T08:49:14.455Z</time>
      </trkpt>
      <trkpt lat="43.53245" lon="3.92241">
        <ele>-9.3</ele>
        <time>2017-10-27T08:49:15.456Z</time>
      </trkpt>
      <trkpt lat="43.53247" lon="3.92237">
        <ele>-9.3</ele>
        <time>2017-10-27T08:49:16.446Z</time>
      </trkpt>
      <trkpt lat="43.5325" lon="3.92233">
        <ele>-9.4</ele>
        <time>2017-10-27T08:49:17.454Z</time>
      </trkpt>
      <trkpt lat="43.53252" lon="3.92229">
        <ele>-9.5</ele>
        <time>2017-10-27T08:49:18.435Z</time>
      </trkpt>
      <trkpt lat="43.53255" lon="3.92224">
        <ele>-9.6</ele>
        <time>2017-10-27T08:49:19.432Z</time>
      </trkpt>
      <trkpt lat="43.53257" lon="3.9222">
        <ele>-9.5</ele>
        <time>2017-10-27T08:49:20.432Z</time>
      </trkpt>
      <trkpt lat="43.53259" lon="3.92215">
        <ele>-9.6</ele>
        <time>2017-10-27T08:49:21.445Z</time>
      </trkpt>
      <trkpt lat="43.53262" lon="3.92211">
        <ele>-9.6</ele>
        <time>2017-10-27T08:49:22.454Z</time>
      </trkpt>
      <trkpt lat="43.53264" lon="3.92206">
        <ele>-9.7</ele>
        <time>2017-10-27T08:49:23.445Z</time>
      </trkpt>
      <trkpt lat="43.53266" lon="3.92201">
        <ele>-9.7</ele>
        <time>2017-10-27T08:49:24.447Z</time>
      </trkpt>
      <trkpt lat="43.53269" lon="3.92197">
        <ele>-9.6</ele>
        <time>2017-10-27T08:49:25.446Z</time>
      </trkpt>
      <trkpt lat="43.53271" lon="3.92193">
        <ele>-9.6</ele>
        <time>2017-10-27T08:49:26.450Z</time>
      </trkpt>
      <trkpt lat="43.53273" lon="3.92189">
        <ele>-9.6</ele>
        <time>2017-10-27T08:49:27.446Z</time>
      </trkpt>
      <trkpt lat="43.53276" lon="3.92184">
        <ele>-9.6</ele>
        <time>2017-10-27T08:49:28.449Z</time>
      </trkpt>
      <trkpt lat="43.53278" lon="3.9218">
        <ele>-9.6</ele>
        <time>2017-10-27T08:49:29.455Z</time>
      </trkpt>
      <trkpt lat="43.53281" lon="3.92176">
        <ele>-9.6</ele>
        <time>2017-10-27T08:49:30.448Z</time>
      </trkpt>
      <trkpt lat="43.53283" lon="3.92172">
        <ele>-9.6</ele>
        <time>2017-10-27T08:49:31.446Z</time>
      </trkpt>
      <trkpt lat="43.53286" lon="3.92168">
        <ele>-9.5</ele>
        <time>2017-10-27T08:49:32.445Z</time>
      </trkpt>
      <trkpt lat="43.53288" lon="3.92165">
        <ele>-9.5</ele>
        <time>2017-10-27T08:49:33.445Z</time>
      </trkpt>
      <trkpt lat="43.5329" lon="3.92161">
        <ele>-9.4</ele>
        <time>2017-10-27T08:49:34.448Z</time>
      </trkpt>
      <trkpt lat="43.53292" lon="3.92157">
        <ele>-9.4</ele>
        <time>2017-10-27T08:49:35.446Z</time>
      </trkpt>
      <trkpt lat="43.53294" lon="3.92153">
        <ele>-9.4</ele>
        <time>2017-10-27T08:49:36.434Z</time>
      </trkpt>
      <trkpt lat="43.53296" lon="3.9215">
        <ele>-9.4</ele>
        <time>2017-10-27T08:49:37.432Z</time>
      </trkpt>
      <trkpt lat="43.53298" lon="3.92146">
        <ele>-9.4</ele>
        <time>2017-10-27T08:49:38.432Z</time>
      </trkpt>
      <trkpt lat="43.533" lon="3.92142">
        <ele>-9.3</ele>
        <time>2017-10-27T08:49:39.435Z</time>
      </trkpt>
      <trkpt lat="43.53302" lon="3.92138">
        <ele>-9.4</ele>
        <time>2017-10-27T08:49:40.446Z</time>
      </trkpt>
      <trkpt lat="43.53305" lon="3.92135">
        <ele>-9.4</ele>
        <time>2017-10-27T08:49:41.454Z</time>
      </trkpt>
      <trkpt lat="43.53307" lon="3.92131">
        <ele>-9.4</ele>
        <time>2017-10-27T08:49:42.446Z</time>
      </trkpt>
      <trkpt lat="43.53309" lon="3.92127">
        <ele>-9.3</ele>
        <time>2017-10-27T08:49:43.450Z</time>
      </trkpt>
      <trkpt lat="43.53311" lon="3.92123">
        <ele>-9.2</ele>
        <time>2017-10-27T08:49:44.448Z</time>
      </trkpt>
      <trkpt lat="43.53313" lon="3.9212">
        <ele>-9.1</ele>
        <time>2017-10-27T08:49:45.447Z</time>
      </trkpt>
      <trkpt lat="43.53315" lon="3.92116">
        <ele>-9.2</ele>
        <time>2017-10-27T08:49:46.453Z</time>
      </trkpt>
      <trkpt lat="43.53317" lon="3.92113">
        <ele>-9.1</ele>
        <time>2017-10-27T08:49:47.453Z</time>
      </trkpt>
      <trkpt lat="43.53319" lon="3.92109">
        <ele>-9.1</ele>
        <time>2017-10-27T08:49:48.448Z</time>
      </trkpt>
      <trkpt lat="43.5332" lon="3.92106">
        <ele>-9.1</ele>
        <time>2017-10-27T08:49:49.448Z</time>
      </trkpt>
      <trkpt lat="43.53322" lon="3.92102">
        <ele>-9.1</ele>
        <time>2017-10-27T08:49:50.446Z</time>
      </trkpt>
      <trkpt lat="43.53324" lon="3.92099">
        <ele>-9.1</ele>
        <time>2017-10-27T08:49:51.447Z</time>
      </trkpt>
      <trkpt lat="43.53326" lon="3.92095">
        <ele>-9.1</ele>
        <time>2017-10-27T08:49:52.449Z</time>
      </trkpt>
      <trkpt lat="43.53328" lon="3.92092">
        <ele>-9</ele>
        <time>2017-10-27T08:49:53.450Z</time>
      </trkpt>
      <trkpt lat="43.5333" lon="3.92088">
        <ele>-8.8</ele>
        <time>2017-10-27T08:49:54.447Z</time>
      </trkpt>
      <trkpt lat="43.53331" lon="3.92084">
        <ele>-8.9</ele>
        <time>2017-10-27T08:49:55.446Z</time>
      </trkpt>
      <trkpt lat="43.53333" lon="3.92081">
        <ele>-8.8</ele>
        <time>2017-10-27T08:49:56.448Z</time>
      </trkpt>
      <trkpt lat="43.53335" lon="3.92077">
        <ele>-8.8</ele>
        <time>2017-10-27T08:49:57.429Z</time>
      </trkpt>
      <trkpt lat="43.53338" lon="3.92073">
        <ele>-8.7</ele>
        <time>2017-10-27T08:49:58.450Z</time>
      </trkpt>
      <trkpt lat="43.5334" lon="3.92069">
        <ele>-8.7</ele>
        <time>2017-10-27T08:49:59.440Z</time>
      </trkpt>
      <trkpt lat="43.53342" lon="3.92066">
        <ele>-8.6</ele>
        <time>2017-10-27T08:50:00.434Z</time>
      </trkpt>
      <trkpt lat="43.53344" lon="3.92062">
        <ele>-8.5</ele>
        <time>2017-10-27T08:50:01.433Z</time>
      </trkpt>
      <trkpt lat="43.53346" lon="3.92058">
        <ele>-8.3</ele>
        <time>2017-10-27T08:50:02.432Z</time>
      </trkpt>
      <trkpt lat="43.53348" lon="3.92054">
        <ele>-8.1</ele>
        <time>2017-10-27T08:50:03.440Z</time>
      </trkpt>
      <trkpt lat="43.5335" lon="3.92051">
        <ele>-8</ele>
        <time>2017-10-27T08:50:04.475Z</time>
      </trkpt>
      <trkpt lat="43.53352" lon="3.92047">
        <ele>-7.8</ele>
        <time>2017-10-27T08:50:05.446Z</time>
      </trkpt>
      <trkpt lat="43.53354" lon="3.92044">
        <ele>-7.8</ele>
        <time>2017-10-27T08:50:06.446Z</time>
      </trkpt>
      <trkpt lat="43.53356" lon="3.92041">
        <ele>-7.8</ele>
        <time>2017-10-27T08:50:07.448Z</time>
      </trkpt>
      <trkpt lat="43.53358" lon="3.92037">
        <ele>-7.6</ele>
        <time>2017-10-27T08:50:08.431Z</time>
      </trkpt>
      <trkpt lat="43.5336" lon="3.92034">
        <ele>-7.6</ele>
        <time>2017-10-27T08:50:09.445Z</time>
      </trkpt>
      <trkpt lat="43.53363" lon="3.9203">
        <ele>-7.5</ele>
        <time>2017-10-27T08:50:10.445Z</time>
      </trkpt>
      <trkpt lat="43.53365" lon="3.92027">
        <ele>-7.5</ele>
        <time>2017-10-27T08:50:11.443Z</time>
      </trkpt>
      <trkpt lat="43.53367" lon="3.92023">
        <ele>-7.4</ele>
        <time>2017-10-27T08:50:12.448Z</time>
      </trkpt>
      <trkpt lat="43.5337" lon="3.92019">
        <ele>-7.2</ele>
        <time>2017-10-27T08:50:13.447Z</time>
      </trkpt>
      <trkpt lat="43.53372" lon="3.92016">
        <ele>-7</ele>
        <time>2017-10-27T08:50:14.438Z</time>
      </trkpt>
      <trkpt lat="43.53374" lon="3.92012">
        <ele>-7</ele>
        <time>2017-10-27T08:50:15.446Z</time>
      </trkpt>
      <trkpt lat="43.53377" lon="3.92009">
        <ele>-6.9</ele>
        <time>2017-10-27T08:50:16.456Z</time>
      </trkpt>
      <trkpt lat="43.53379" lon="3.92005">
        <ele>-6.8</ele>
        <time>2017-10-27T08:50:17.446Z</time>
      </trkpt>
      <trkpt lat="43.53382" lon="3.92002">
        <ele>-6.7</ele>
        <time>2017-10-27T08:50:18.437Z</time>
      </trkpt>
      <trkpt lat="43.53384" lon="3.91998">
        <ele>-6.6</ele>
        <time>2017-10-27T08:50:19.432Z</time>
      </trkpt>
      <trkpt lat="43.53386" lon="3.91994">
        <ele>-6.5</ele>
        <time>2017-10-27T08:50:20.432Z</time>
      </trkpt>
      <trkpt lat="43.53388" lon="3.91991">
        <ele>-6.3</ele>
        <time>2017-10-27T08:50:21.437Z</time>
      </trkpt>
      <trkpt lat="43.5339" lon="3.91987">
        <ele>-6.2</ele>
        <time>2017-10-27T08:50:22.446Z</time>
      </trkpt>
      <trkpt lat="43.53392" lon="3.91984">
        <ele>-6.2</ele>
        <time>2017-10-27T08:50:23.454Z</time>
      </trkpt>
      <trkpt lat="43.53394" lon="3.91981">
        <ele>-6.2</ele>
        <time>2017-10-27T08:50:24.447Z</time>
      </trkpt>
      <trkpt lat="43.53397" lon="3.91978">
        <ele>-6</ele>
        <time>2017-10-27T08:50:25.448Z</time>
      </trkpt>
      <trkpt lat="43.53399" lon="3.91975">
        <ele>-5.9</ele>
        <time>2017-10-27T08:50:26.457Z</time>
      </trkpt>
      <trkpt lat="43.53401" lon="3.91971">
        <ele>-5.9</ele>
        <time>2017-10-27T08:50:27.445Z</time>
      </trkpt>
      <trkpt lat="43.53403" lon="3.91968">
        <ele>-5.9</ele>
        <time>2017-10-27T08:50:28.448Z</time>
      </trkpt>
      <trkpt lat="43.53405" lon="3.91965">
        <ele>-5.9</ele>
        <time>2017-10-27T08:50:29.446Z</time>
      </trkpt>
      <trkpt lat="43.53406" lon="3.91962">
        <ele>-5.8</ele>
        <time>2017-10-27T08:50:30.447Z</time>
      </trkpt>
      <trkpt lat="43.53408" lon="3.91958">
        <ele>-5.7</ele>
        <time>2017-10-27T08:50:31.446Z</time>
      </trkpt>
      <trkpt lat="43.5341" lon="3.91955">
        <ele>-5.7</ele>
        <time>2017-10-27T08:50:32.446Z</time>
      </trkpt>
      <trkpt lat="43.53412" lon="3.91952">
        <ele>-5.6</ele>
        <time>2017-10-27T08:50:33.446Z</time>
      </trkpt>
      <trkpt lat="43.53414" lon="3.91948">
        <ele>-5.7</ele>
        <time>2017-10-27T08:50:34.433Z</time>
      </trkpt>
      <trkpt lat="43.53416" lon="3.91945">
        <ele>-5.7</ele>
        <time>2017-10-27T08:50:35.432Z</time>
      </trkpt>
      <trkpt lat="43.53418" lon="3.91942">
        <ele>-5.7</ele>
        <time>2017-10-27T08:50:36.434Z</time>
      </trkpt>
      <trkpt lat="43.53419" lon="3.91938">
        <ele>-5.7</ele>
        <time>2017-10-27T08:50:37.437Z</time>
      </trkpt>
      <trkpt lat="43.53421" lon="3.91935">
        <ele>-5.6</ele>
        <time>2017-10-27T08:50:38.440Z</time>
      </trkpt>
      <trkpt lat="43.53423" lon="3.91931">
        <ele>-5.4</ele>
        <time>2017-10-27T08:50:39.446Z</time>
      </trkpt>
      <trkpt lat="43.53425" lon="3.91928">
        <ele>-5.3</ele>
        <time>2017-10-27T08:50:40.449Z</time>
      </trkpt>
      <trkpt lat="43.53427" lon="3.91925">
        <ele>-5.2</ele>
        <time>2017-10-27T08:50:41.446Z</time>
      </trkpt>
      <trkpt lat="43.53428" lon="3.91923">
        <ele>-5.1</ele>
        <time>2017-10-27T08:50:42.448Z</time>
      </trkpt>
      <trkpt lat="43.5343" lon="3.9192">
        <ele>-5.2</ele>
        <time>2017-10-27T08:50:43.432Z</time>
      </trkpt>
      <trkpt lat="43.53431" lon="3.91917">
        <ele>-5.1</ele>
        <time>2017-10-27T08:50:44.443Z</time>
      </trkpt>
      <trkpt lat="43.53433" lon="3.91914">
        <ele>-5.2</ele>
        <time>2017-10-27T08:50:45.432Z</time>
      </trkpt>
      <trkpt lat="43.53435" lon="3.91911">
        <ele>-5.1</ele>
        <time>2017-10-27T08:50:46.439Z</time>
      </trkpt>
      <trkpt lat="43.53436" lon="3.91908">
        <ele>-5.1</ele>
        <time>2017-10-27T08:50:47.442Z</time>
      </trkpt>
      <trkpt lat="43.53438" lon="3.91904">
        <ele>-5.1</ele>
        <time>2017-10-27T08:50:48.445Z</time>
      </trkpt>
      <trkpt lat="43.5344" lon="3.91901">
        <ele>-5</ele>
        <time>2017-10-27T08:50:49.441Z</time>
      </trkpt>
      <trkpt lat="43.53442" lon="3.91898">
        <ele>-5</ele>
        <time>2017-10-27T08:50:50.446Z</time>
      </trkpt>
      <trkpt lat="43.53444" lon="3.91894">
        <ele>-4.7</ele>
        <time>2017-10-27T08:50:51.430Z</time>
      </trkpt>
      <trkpt lat="43.53446" lon="3.91891">
        <ele>-4.3</ele>
        <time>2017-10-27T08:50:52.444Z</time>
      </trkpt>
      <trkpt lat="43.53448" lon="3.91888">
        <ele>-3.9</ele>
        <time>2017-10-27T08:50:53.445Z</time>
      </trkpt>
      <trkpt lat="43.5345" lon="3.91885">
        <ele>-3.5</ele>
        <time>2017-10-27T08:50:54.444Z</time>
      </trkpt>
      <trkpt lat="43.53451" lon="3.91882">
        <ele>-3.2</ele>
        <time>2017-10-27T08:50:55.440Z</time>
      </trkpt>
      <trkpt lat="43.53452" lon="3.9188">
        <ele>-3.1</ele>
        <time>2017-10-27T08:50:56.453Z</time>
      </trkpt>
      <trkpt lat="43.53454" lon="3.91877">
        <ele>-2.9</ele>
        <time>2017-10-27T08:50:57.436Z</time>
      </trkpt>
      <trkpt lat="43.53455" lon="3.91875">
        <ele>-2.8</ele>
        <time>2017-10-27T08:50:58.450Z</time>
      </trkpt>
      <trkpt lat="43.53456" lon="3.91873">
        <ele>-2.7</ele>
        <time>2017-10-27T08:50:59.446Z</time>
      </trkpt>
      <trkpt lat="43.53458" lon="3.9187">
        <ele>-2.6</ele>
        <time>2017-10-27T08:51:00.433Z</time>
      </trkpt>
      <trkpt lat="43.53459" lon="3.91868">
        <ele>-2.6</ele>
        <time>2017-10-27T08:51:01.433Z</time>
      </trkpt>
      <trkpt lat="43.5346" lon="3.91865">
        <ele>-2.4</ele>
        <time>2017-10-27T08:51:02.432Z</time>
      </trkpt>
      <trkpt lat="43.53462" lon="3.91862">
        <ele>-2.2</ele>
        <time>2017-10-27T08:51:03.432Z</time>
      </trkpt>
      <trkpt lat="43.53464" lon="3.91859">
        <ele>-2</ele>
        <time>2017-10-27T08:51:04.445Z</time>
      </trkpt>
      <trkpt lat="43.53465" lon="3.91857">
        <ele>-2</ele>
        <time>2017-10-27T08:51:05.455Z</time>
      </trkpt>
      <trkpt lat="43.53467" lon="3.91854">
        <ele>-2</ele>
        <time>2017-10-27T08:51:06.448Z</time>
      </trkpt>
      <trkpt lat="43.53468" lon="3.91851">
        <ele>-2.1</ele>
        <time>2017-10-27T08:51:07.447Z</time>
      </trkpt>
      <trkpt lat="43.53469" lon="3.91848">
        <ele>-2.1</ele>
        <time>2017-10-27T08:51:08.448Z</time>
      </trkpt>
      <trkpt lat="43.53471" lon="3.91846">
        <ele>-2.3</ele>
        <time>2017-10-27T08:51:09.448Z</time>
      </trkpt>
      <trkpt lat="43.53472" lon="3.91842">
        <ele>-2.5</ele>
        <time>2017-10-27T08:51:10.454Z</time>
      </trkpt>
      <trkpt lat="43.53474" lon="3.91839">
        <ele>-2.7</ele>
        <time>2017-10-27T08:51:11.446Z</time>
      </trkpt>
      <trkpt lat="43.53476" lon="3.91835">
        <ele>-3.4</ele>
        <time>2017-10-27T08:51:12.447Z</time>
      </trkpt>
      <trkpt lat="43.53479" lon="3.9183">
        <ele>-3.7</ele>
        <time>2017-10-27T08:51:13.455Z</time>
      </trkpt>
      <trkpt lat="43.53481" lon="3.91825">
        <ele>-4.1</ele>
        <time>2017-10-27T08:51:14.446Z</time>
      </trkpt>
      <trkpt lat="43.53484" lon="3.91819">
        <ele>-4.3</ele>
        <time>2017-10-27T08:51:15.446Z</time>
      </trkpt>
      <trkpt lat="43.53486" lon="3.91815">
        <ele>-4.4</ele>
        <time>2017-10-27T08:51:16.445Z</time>
      </trkpt>
      <trkpt lat="43.53489" lon="3.9181">
        <ele>-4.5</ele>
        <time>2017-10-27T08:51:17.452Z</time>
      </trkpt>
      <trkpt lat="43.53491" lon="3.91805">
        <ele>-4.6</ele>
        <time>2017-10-27T08:51:18.433Z</time>
      </trkpt>
      <trkpt lat="43.53494" lon="3.91801">
        <ele>-4.7</ele>
        <time>2017-10-27T08:51:19.435Z</time>
      </trkpt>
      <trkpt lat="43.53496" lon="3.91796">
        <ele>-4.8</ele>
        <time>2017-10-27T08:51:20.440Z</time>
      </trkpt>
      <trkpt lat="43.53498" lon="3.91792">
        <ele>-4.8</ele>
        <time>2017-10-27T08:51:21.437Z</time>
      </trkpt>
      <trkpt lat="43.535" lon="3.91787">
        <ele>-4.9</ele>
        <time>2017-10-27T08:51:22.437Z</time>
      </trkpt>
      <trkpt lat="43.53503" lon="3.91783">
        <ele>-5</ele>
        <time>2017-10-27T08:51:23.448Z</time>
      </trkpt>
      <trkpt lat="43.53505" lon="3.91779">
        <ele>-5.1</ele>
        <time>2017-10-27T08:51:24.447Z</time>
      </trkpt>
      <trkpt lat="43.53507" lon="3.91775">
        <ele>-5.2</ele>
        <time>2017-10-27T08:51:25.443Z</time>
      </trkpt>
      <trkpt lat="43.53509" lon="3.91771">
        <ele>-5.4</ele>
        <time>2017-10-27T08:51:26.446Z</time>
      </trkpt>
      <trkpt lat="43.53511" lon="3.91767">
        <ele>-5.5</ele>
        <time>2017-10-27T08:51:27.446Z</time>
      </trkpt>
      <trkpt lat="43.53513" lon="3.91762">
        <ele>-5.6</ele>
        <time>2017-10-27T08:51:28.446Z</time>
      </trkpt>
      <trkpt lat="43.53515" lon="3.91758">
        <ele>-5.6</ele>
        <time>2017-10-27T08:51:29.440Z</time>
      </trkpt>
      <trkpt lat="43.53517" lon="3.91755">
        <ele>-5.7</ele>
        <time>2017-10-27T08:51:30.434Z</time>
      </trkpt>
      <trkpt lat="43.53519" lon="3.91751">
        <ele>-5.7</ele>
        <time>2017-10-27T08:51:31.446Z</time>
      </trkpt>
      <trkpt lat="43.5352" lon="3.91747">
        <ele>-5.8</ele>
        <time>2017-10-27T08:51:32.437Z</time>
      </trkpt>
      <trkpt lat="43.53522" lon="3.91743">
        <ele>-5.9</ele>
        <time>2017-10-27T08:51:33.446Z</time>
      </trkpt>
      <trkpt lat="43.53523" lon="3.91739">
        <ele>-5.9</ele>
        <time>2017-10-27T08:51:34.444Z</time>
      </trkpt>
      <trkpt lat="43.53525" lon="3.91735">
        <ele>-6</ele>
        <time>2017-10-27T08:51:35.442Z</time>
      </trkpt>
      <trkpt lat="43.53527" lon="3.91731">
        <ele>-6</ele>
        <time>2017-10-27T08:51:36.447Z</time>
      </trkpt>
      <trkpt lat="43.53528" lon="3.91727">
        <ele>-6.1</ele>
        <time>2017-10-27T08:51:37.432Z</time>
      </trkpt>
      <trkpt lat="43.5353" lon="3.91723">
        <ele>-6.2</ele>
        <time>2017-10-27T08:51:38.442Z</time>
      </trkpt>
      <trkpt lat="43.53531" lon="3.91719">
        <ele>-6.3</ele>
        <time>2017-10-27T08:51:39.436Z</time>
      </trkpt>
      <trkpt lat="43.53533" lon="3.91714">
        <ele>-6.4</ele>
        <time>2017-10-27T08:51:40.443Z</time>
      </trkpt>
      <trkpt lat="43.53534" lon="3.9171">
        <ele>-6.5</ele>
        <time>2017-10-27T08:51:41.451Z</time>
      </trkpt>
      <trkpt lat="43.53535" lon="3.91706">
        <ele>-6.5</ele>
        <time>2017-10-27T08:51:42.449Z</time>
      </trkpt>
      <trkpt lat="43.53537" lon="3.91701">
        <ele>-6.6</ele>
        <time>2017-10-27T08:51:43.446Z</time>
      </trkpt>
      <trkpt lat="43.53539" lon="3.91697">
        <ele>-6.6</ele>
        <time>2017-10-27T08:51:44.447Z</time>
      </trkpt>
      <trkpt lat="43.5354" lon="3.91693">
        <ele>-6.7</ele>
        <time>2017-10-27T08:51:45.456Z</time>
      </trkpt>
      <trkpt lat="43.53542" lon="3.91689">
        <ele>-6.7</ele>
        <time>2017-10-27T08:51:46.451Z</time>
      </trkpt>
      <trkpt lat="43.53543" lon="3.91685">
        <ele>-6.8</ele>
        <time>2017-10-27T08:51:47.448Z</time>
      </trkpt>
      <trkpt lat="43.53544" lon="3.91681">
        <ele>-6.9</ele>
        <time>2017-10-27T08:51:48.450Z</time>
      </trkpt>
      <trkpt lat="43.53546" lon="3.91677">
        <ele>-7</ele>
        <time>2017-10-27T08:51:49.446Z</time>
      </trkpt>
      <trkpt lat="43.53547" lon="3.91673">
        <ele>-7.1</ele>
        <time>2017-10-27T08:51:50.446Z</time>
      </trkpt>
      <trkpt lat="43.53548" lon="3.91669">
        <ele>-7.2</ele>
        <time>2017-10-27T08:51:51.445Z</time>
      </trkpt>
      <trkpt lat="43.53549" lon="3.91665">
        <ele>-7.2</ele>
        <time>2017-10-27T08:51:52.432Z</time>
      </trkpt>
      <trkpt lat="43.5355" lon="3.91661">
        <ele>-7.2</ele>
        <time>2017-10-27T08:51:53.432Z</time>
      </trkpt>
      <trkpt lat="43.53551" lon="3.91657">
        <ele>-7.2</ele>
        <time>2017-10-27T08:51:54.433Z</time>
      </trkpt>
      <trkpt lat="43.53553" lon="3.91653">
        <ele>-7.3</ele>
        <time>2017-10-27T08:51:55.432Z</time>
      </trkpt>
      <trkpt lat="43.53554" lon="3.91649">
        <ele>-7.3</ele>
        <time>2017-10-27T08:51:56.446Z</time>
      </trkpt>
      <trkpt lat="43.53555" lon="3.91645">
        <ele>-7.4</ele>
        <time>2017-10-27T08:51:57.435Z</time>
      </trkpt>
      <trkpt lat="43.53556" lon="3.91642">
        <ele>-7.4</ele>
        <time>2017-10-27T08:51:58.445Z</time>
      </trkpt>
      <trkpt lat="43.53557" lon="3.91638">
        <ele>-7.5</ele>
        <time>2017-10-27T08:51:59.446Z</time>
      </trkpt>
      <trkpt lat="43.53558" lon="3.91634">
        <ele>-7.5</ele>
        <time>2017-10-27T08:52:00.447Z</time>
      </trkpt>
      <trkpt lat="43.53559" lon="3.9163">
        <ele>-7.5</ele>
        <time>2017-10-27T08:52:01.448Z</time>
      </trkpt>
      <trkpt lat="43.5356" lon="3.91627">
        <ele>-7.5</ele>
        <time>2017-10-27T08:52:02.450Z</time>
      </trkpt>
      <trkpt lat="43.53561" lon="3.91623">
        <ele>-7.6</ele>
        <time>2017-10-27T08:52:03.432Z</time>
      </trkpt>
      <trkpt lat="43.53562" lon="3.91619">
        <ele>-7.6</ele>
        <time>2017-10-27T08:52:04.445Z</time>
      </trkpt>
      <trkpt lat="43.53563" lon="3.91615">
        <ele>-7.6</ele>
        <time>2017-10-27T08:52:05.447Z</time>
      </trkpt>
      <trkpt lat="43.53564" lon="3.91611">
        <ele>-7.7</ele>
        <time>2017-10-27T08:52:06.446Z</time>
      </trkpt>
      <trkpt lat="43.53565" lon="3.91607">
        <ele>-7.7</ele>
        <time>2017-10-27T08:52:07.440Z</time>
      </trkpt>
      <trkpt lat="43.53567" lon="3.91602">
        <ele>-7.8</ele>
        <time>2017-10-27T08:52:08.439Z</time>
      </trkpt>
      <trkpt lat="43.53568" lon="3.91598">
        <ele>-7.8</ele>
        <time>2017-10-27T08:52:09.446Z</time>
      </trkpt>
      <trkpt lat="43.53569" lon="3.91594">
        <ele>-7.8</ele>
        <time>2017-10-27T08:52:10.446Z</time>
      </trkpt>
      <trkpt lat="43.5357" lon="3.91589">
        <ele>-7.8</ele>
        <time>2017-10-27T08:52:11.432Z</time>
      </trkpt>
      <trkpt lat="43.53571" lon="3.91585">
        <ele>-7.8</ele>
        <time>2017-10-27T08:52:12.434Z</time>
      </trkpt>
      <trkpt lat="43.53572" lon="3.91581">
        <ele>-7.8</ele>
        <time>2017-10-27T08:52:13.440Z</time>
      </trkpt>
      <trkpt lat="43.53573" lon="3.91577">
        <ele>-7.8</ele>
        <time>2017-10-27T08:52:14.464Z</time>
      </trkpt>
      <trkpt lat="43.53574" lon="3.91573">
        <ele>-7.9</ele>
        <time>2017-10-27T08:52:15.464Z</time>
      </trkpt>
      <trkpt lat="43.53575" lon="3.91568">
        <ele>-7.9</ele>
        <time>2017-10-27T08:52:16.447Z</time>
      </trkpt>
      <trkpt lat="43.53576" lon="3.91564">
        <ele>-8</ele>
        <time>2017-10-27T08:52:17.451Z</time>
      </trkpt>
      <trkpt lat="43.53578" lon="3.9156">
        <ele>-8</ele>
        <time>2017-10-27T08:52:18.447Z</time>
      </trkpt>
      <trkpt lat="43.53579" lon="3.91556">
        <ele>-8</ele>
        <time>2017-10-27T08:52:19.447Z</time>
      </trkpt>
      <trkpt lat="43.5358" lon="3.91551">
        <ele>-7.9</ele>
        <time>2017-10-27T08:52:20.446Z</time>
      </trkpt>
      <trkpt lat="43.53581" lon="3.91547">
        <ele>-7.9</ele>
        <time>2017-10-27T08:52:21.446Z</time>
      </trkpt>
      <trkpt lat="43.53582" lon="3.91543">
        <ele>-8</ele>
        <time>2017-10-27T08:52:22.445Z</time>
      </trkpt>
      <trkpt lat="43.53583" lon="3.91539">
        <ele>-8</ele>
        <time>2017-10-27T08:52:23.446Z</time>
      </trkpt>
      <trkpt lat="43.53584" lon="3.91534">
        <ele>-8</ele>
        <time>2017-10-27T08:52:24.437Z</time>
      </trkpt>
      <trkpt lat="43.53585" lon="3.9153">
        <ele>-8</ele>
        <time>2017-10-27T08:52:25.445Z</time>
      </trkpt>
      <trkpt lat="43.53586" lon="3.91525">
        <ele>-8.1</ele>
        <time>2017-10-27T08:52:26.432Z</time>
      </trkpt>
      <trkpt lat="43.53586" lon="3.91521">
        <ele>-8.1</ele>
        <time>2017-10-27T08:52:27.432Z</time>
      </trkpt>
      <trkpt lat="43.53587" lon="3.91517">
        <ele>-8.1</ele>
        <time>2017-10-27T08:52:28.434Z</time>
      </trkpt>
      <trkpt lat="43.53588" lon="3.91512">
        <ele>-8</ele>
        <time>2017-10-27T08:52:29.439Z</time>
      </trkpt>
      <trkpt lat="43.53589" lon="3.91508">
        <ele>-8</ele>
        <time>2017-10-27T08:52:30.472Z</time>
      </trkpt>
      <trkpt lat="43.5359" lon="3.91504">
        <ele>-8.1</ele>
        <time>2017-10-27T08:52:31.450Z</time>
      </trkpt>
      <trkpt lat="43.53591" lon="3.91499">
        <ele>-8</ele>
        <time>2017-10-27T08:52:32.449Z</time>
      </trkpt>
      <trkpt lat="43.53592" lon="3.91495">
        <ele>-8</ele>
        <time>2017-10-27T08:52:33.432Z</time>
      </trkpt>
      <trkpt lat="43.53593" lon="3.9149">
        <ele>-8</ele>
        <time>2017-10-27T08:52:34.455Z</time>
      </trkpt>
      <trkpt lat="43.53594" lon="3.91486">
        <ele>-8.1</ele>
        <time>2017-10-27T08:52:35.445Z</time>
      </trkpt>
      <trkpt lat="43.53594" lon="3.91481">
        <ele>-8</ele>
        <time>2017-10-27T08:52:36.446Z</time>
      </trkpt>
      <trkpt lat="43.53595" lon="3.91477">
        <ele>-8</ele>
        <time>2017-10-27T08:52:37.450Z</time>
      </trkpt>
      <trkpt lat="43.53596" lon="3.91472">
        <ele>-8</ele>
        <time>2017-10-27T08:52:38.446Z</time>
      </trkpt>
      <trkpt lat="43.53597" lon="3.91468">
        <ele>-8.1</ele>
        <time>2017-10-27T08:52:39.446Z</time>
      </trkpt>
      <trkpt lat="43.53598" lon="3.91463">
        <ele>-8.1</ele>
        <time>2017-10-27T08:52:40.448Z</time>
      </trkpt>
      <trkpt lat="43.53599" lon="3.91459">
        <ele>-8.1</ele>
        <time>2017-10-27T08:52:41.445Z</time>
      </trkpt>
      <trkpt lat="43.536" lon="3.91454">
        <ele>-8.1</ele>
        <time>2017-10-27T08:52:42.447Z</time>
      </trkpt>
      <trkpt lat="43.536" lon="3.91449">
        <ele>-8.1</ele>
        <time>2017-10-27T08:52:43.445Z</time>
      </trkpt>
      <trkpt lat="43.53601" lon="3.91445">
        <ele>-8.1</ele>
        <time>2017-10-27T08:52:44.449Z</time>
      </trkpt>
      <trkpt lat="43.53601" lon="3.9144">
        <ele>-8.2</ele>
        <time>2017-10-27T08:52:45.445Z</time>
      </trkpt>
      <trkpt lat="43.53602" lon="3.91436">
        <ele>-8.3</ele>
        <time>2017-10-27T08:52:46.431Z</time>
      </trkpt>
      <trkpt lat="43.53603" lon="3.91431">
        <ele>-8.3</ele>
        <time>2017-10-27T08:52:47.432Z</time>
      </trkpt>
      <trkpt lat="43.53603" lon="3.91427">
        <ele>-8.3</ele>
        <time>2017-10-27T08:52:48.436Z</time>
      </trkpt>
      <trkpt lat="43.53604" lon="3.91423">
        <ele>-8.2</ele>
        <time>2017-10-27T08:52:49.432Z</time>
      </trkpt>
      <trkpt lat="43.53605" lon="3.91418">
        <ele>-8.2</ele>
        <time>2017-10-27T08:52:50.451Z</time>
      </trkpt>
      <trkpt lat="43.53605" lon="3.91414">
        <ele>-8.2</ele>
        <time>2017-10-27T08:52:51.448Z</time>
      </trkpt>
      <trkpt lat="43.53606" lon="3.91409">
        <ele>-8.2</ele>
        <time>2017-10-27T08:52:52.448Z</time>
      </trkpt>
      <trkpt lat="43.53606" lon="3.91405">
        <ele>-8.2</ele>
        <time>2017-10-27T08:52:53.445Z</time>
      </trkpt>
      <trkpt lat="43.53607" lon="3.914">
        <ele>-8.1</ele>
        <time>2017-10-27T08:52:54.451Z</time>
      </trkpt>
      <trkpt lat="43.53607" lon="3.91396">
        <ele>-8.1</ele>
        <time>2017-10-27T08:52:55.446Z</time>
      </trkpt>
      <trkpt lat="43.53608" lon="3.91391">
        <ele>-8.1</ele>
        <time>2017-10-27T08:52:56.454Z</time>
      </trkpt>
      <trkpt lat="43.53608" lon="3.91387">
        <ele>-8</ele>
        <time>2017-10-27T08:52:57.432Z</time>
      </trkpt>
      <trkpt lat="43.53608" lon="3.91382">
        <ele>-8</ele>
        <time>2017-10-27T08:52:58.430Z</time>
      </trkpt>
      <trkpt lat="43.53609" lon="3.91378">
        <ele>-7.9</ele>
        <time>2017-10-27T08:52:59.438Z</time>
      </trkpt>
      <trkpt lat="43.53609" lon="3.91373">
        <ele>-7.9</ele>
        <time>2017-10-27T08:53:00.442Z</time>
      </trkpt>
      <trkpt lat="43.53609" lon="3.91368">
        <ele>-7.8</ele>
        <time>2017-10-27T08:53:01.443Z</time>
      </trkpt>
      <trkpt lat="43.5361" lon="3.91364">
        <ele>-7.8</ele>
        <time>2017-10-27T08:53:02.449Z</time>
      </trkpt>
      <trkpt lat="43.5361" lon="3.91359">
        <ele>-7.8</ele>
        <time>2017-10-27T08:53:03.466Z</time>
      </trkpt>
      <trkpt lat="43.5361" lon="3.91355">
        <ele>-7.7</ele>
        <time>2017-10-27T08:53:04.446Z</time>
      </trkpt>
      <trkpt lat="43.5361" lon="3.91351">
        <ele>-7.5</ele>
        <time>2017-10-27T08:53:05.456Z</time>
      </trkpt>
      <trkpt lat="43.53611" lon="3.91347">
        <ele>-7.3</ele>
        <time>2017-10-27T08:53:06.448Z</time>
      </trkpt>
      <trkpt lat="43.53611" lon="3.91343">
        <ele>-7.2</ele>
        <time>2017-10-27T08:53:07.464Z</time>
      </trkpt>
      <trkpt lat="43.53611" lon="3.9134">
        <ele>-7.1</ele>
        <time>2017-10-27T08:53:08.432Z</time>
      </trkpt>
      <trkpt lat="43.53612" lon="3.91337">
        <ele>-7</ele>
        <time>2017-10-27T08:53:09.432Z</time>
      </trkpt>
      <trkpt lat="43.53612" lon="3.91333">
        <ele>-7</ele>
        <time>2017-10-27T08:53:10.438Z</time>
      </trkpt>
      <trkpt lat="43.53612" lon="3.9133">
        <ele>-7</ele>
        <time>2017-10-27T08:53:11.461Z</time>
      </trkpt>
      <trkpt lat="43.53612" lon="3.91326">
        <ele>-7.1</ele>
        <time>2017-10-27T08:53:12.448Z</time>
      </trkpt>
      <trkpt lat="43.53612" lon="3.91322">
        <ele>-7.2</ele>
        <time>2017-10-27T08:53:13.447Z</time>
      </trkpt>
      <trkpt lat="43.53612" lon="3.91318">
        <ele>-7.4</ele>
        <time>2017-10-27T08:53:14.446Z</time>
      </trkpt>
      <trkpt lat="43.53612" lon="3.91313">
        <ele>-7.6</ele>
        <time>2017-10-27T08:53:15.446Z</time>
      </trkpt>
      <trkpt lat="43.53612" lon="3.91308">
        <ele>-7.7</ele>
        <time>2017-10-27T08:53:16.450Z</time>
      </trkpt>
      <trkpt lat="43.53612" lon="3.91302">
        <ele>-7.9</ele>
        <time>2017-10-27T08:53:17.447Z</time>
      </trkpt>
      <trkpt lat="43.53612" lon="3.91296">
        <ele>-7.9</ele>
        <time>2017-10-27T08:53:18.447Z</time>
      </trkpt>
      <trkpt lat="43.53612" lon="3.91291">
        <ele>-7.9</ele>
        <time>2017-10-27T08:53:19.446Z</time>
      </trkpt>
      <trkpt lat="43.53612" lon="3.91285">
        <ele>-7.9</ele>
        <time>2017-10-27T08:53:20.449Z</time>
      </trkpt>
      <trkpt lat="43.53612" lon="3.91279">
        <ele>-7.8</ele>
        <time>2017-10-27T08:53:21.445Z</time>
      </trkpt>
      <trkpt lat="43.53612" lon="3.91273">
        <ele>-7.8</ele>
        <time>2017-10-27T08:53:22.451Z</time>
      </trkpt>
      <trkpt lat="43.53612" lon="3.91268">
        <ele>-7.9</ele>
        <time>2017-10-27T08:53:23.445Z</time>
      </trkpt>
      <trkpt lat="43.53612" lon="3.91262">
        <ele>-7.9</ele>
        <time>2017-10-27T08:53:24.447Z</time>
      </trkpt>
      <trkpt lat="43.53613" lon="3.91257">
        <ele>-7.9</ele>
        <time>2017-10-27T08:53:25.437Z</time>
      </trkpt>
      <trkpt lat="43.53613" lon="3.91252">
        <ele>-7.9</ele>
        <time>2017-10-27T08:53:26.431Z</time>
      </trkpt>
      <trkpt lat="43.53613" lon="3.91247">
        <ele>-7.9</ele>
        <time>2017-10-27T08:53:27.434Z</time>
      </trkpt>
      <trkpt lat="43.53613" lon="3.91242">
        <ele>-7.9</ele>
        <time>2017-10-27T08:53:28.431Z</time>
      </trkpt>
      <trkpt lat="43.53613" lon="3.91237">
        <ele>-7.9</ele>
        <time>2017-10-27T08:53:29.446Z</time>
      </trkpt>
      <trkpt lat="43.53613" lon="3.91232">
        <ele>-8</ele>
        <time>2017-10-27T08:53:30.448Z</time>
      </trkpt>
      <trkpt lat="43.53613" lon="3.91226">
        <ele>-7.9</ele>
        <time>2017-10-27T08:53:31.446Z</time>
      </trkpt>
      <trkpt lat="43.53613" lon="3.91221">
        <ele>-8</ele>
        <time>2017-10-27T08:53:32.444Z</time>
      </trkpt>
      <trkpt lat="43.53613" lon="3.91216">
        <ele>-7.9</ele>
        <time>2017-10-27T08:53:33.445Z</time>
      </trkpt>
      <trkpt lat="43.53613" lon="3.91212">
        <ele>-7.9</ele>
        <time>2017-10-27T08:53:34.444Z</time>
      </trkpt>
      <trkpt lat="43.53612" lon="3.91207">
        <ele>-7.8</ele>
        <time>2017-10-27T08:53:35.439Z</time>
      </trkpt>
      <trkpt lat="43.53612" lon="3.91202">
        <ele>-7.8</ele>
        <time>2017-10-27T08:53:36.438Z</time>
      </trkpt>
      <trkpt lat="43.53612" lon="3.91197">
        <ele>-7.8</ele>
        <time>2017-10-27T08:53:37.437Z</time>
      </trkpt>
      <trkpt lat="43.53612" lon="3.91192">
        <ele>-7.8</ele>
        <time>2017-10-27T08:53:38.445Z</time>
      </trkpt>
      <trkpt lat="43.53612" lon="3.91187">
        <ele>-7.6</ele>
        <time>2017-10-27T08:53:39.445Z</time>
      </trkpt>
      <trkpt lat="43.53612" lon="3.91183">
        <ele>-7.8</ele>
        <time>2017-10-27T08:53:40.442Z</time>
      </trkpt>
      <trkpt lat="43.53611" lon="3.91177">
        <ele>-7.7</ele>
        <time>2017-10-27T08:53:41.448Z</time>
      </trkpt>
      <trkpt lat="43.53611" lon="3.91172">
        <ele>-7.7</ele>
        <time>2017-10-27T08:53:42.434Z</time>
      </trkpt>
      <trkpt lat="43.53611" lon="3.91167">
        <ele>-7.7</ele>
        <time>2017-10-27T08:53:43.434Z</time>
      </trkpt>
      <trkpt lat="43.53612" lon="3.91162">
        <ele>-7.7</ele>
        <time>2017-10-27T08:53:44.432Z</time>
      </trkpt>
      <trkpt lat="43.53611" lon="3.91156">
        <ele>-7.6</ele>
        <time>2017-10-27T08:53:45.440Z</time>
      </trkpt>
      <trkpt lat="43.53611" lon="3.91151">
        <ele>-7.6</ele>
        <time>2017-10-27T08:53:46.445Z</time>
      </trkpt>
      <trkpt lat="43.53611" lon="3.91146">
        <ele>-7.7</ele>
        <time>2017-10-27T08:53:47.450Z</time>
      </trkpt>
      <trkpt lat="43.53611" lon="3.91141">
        <ele>-7.6</ele>
        <time>2017-10-27T08:53:48.447Z</time>
      </trkpt>
      <trkpt lat="43.53611" lon="3.91135">
        <ele>-7.6</ele>
        <time>2017-10-27T08:53:49.450Z</time>
      </trkpt>
      <trkpt lat="43.53611" lon="3.9113">
        <ele>-7.7</ele>
        <time>2017-10-27T08:53:50.453Z</time>
      </trkpt>
      <trkpt lat="43.53611" lon="3.91125">
        <ele>-7.6</ele>
        <time>2017-10-27T08:53:51.445Z</time>
      </trkpt>
      <trkpt lat="43.5361" lon="3.9112">
        <ele>-7.6</ele>
        <time>2017-10-27T08:53:52.451Z</time>
      </trkpt>
      <trkpt lat="43.53611" lon="3.91114">
        <ele>-7.5</ele>
        <time>2017-10-27T08:53:53.445Z</time>
      </trkpt>
      <trkpt lat="43.53611" lon="3.91109">
        <ele>-7.5</ele>
        <time>2017-10-27T08:53:54.447Z</time>
      </trkpt>
      <trkpt lat="43.53611" lon="3.91104">
        <ele>-7.5</ele>
        <time>2017-10-27T08:53:55.445Z</time>
      </trkpt>
      <trkpt lat="43.5361" lon="3.91098">
        <ele>-7.4</ele>
        <time>2017-10-27T08:53:56.453Z</time>
      </trkpt>
      <trkpt lat="43.5361" lon="3.91093">
        <ele>-7.4</ele>
        <time>2017-10-27T08:53:57.447Z</time>
      </trkpt>
      <trkpt lat="43.5361" lon="3.91088">
        <ele>-7.4</ele>
        <time>2017-10-27T08:53:58.444Z</time>
      </trkpt>
      <trkpt lat="43.5361" lon="3.91082">
        <ele>-7.5</ele>
        <time>2017-10-27T08:53:59.432Z</time>
      </trkpt>
      <trkpt lat="43.5361" lon="3.91077">
        <ele>-7.4</ele>
        <time>2017-10-27T08:54:00.433Z</time>
      </trkpt>
      <trkpt lat="43.5361" lon="3.91072">
        <ele>-7.2</ele>
        <time>2017-10-27T08:54:01.432Z</time>
      </trkpt>
      <trkpt lat="43.5361" lon="3.91067">
        <ele>-7.2</ele>
        <time>2017-10-27T08:54:02.446Z</time>
      </trkpt>
      <trkpt lat="43.5361" lon="3.91061">
        <ele>-7.1</ele>
        <time>2017-10-27T08:54:03.448Z</time>
      </trkpt>
      <trkpt lat="43.53609" lon="3.91056">
        <ele>-7.1</ele>
        <time>2017-10-27T08:54:04.447Z</time>
      </trkpt>
      <trkpt lat="43.53609" lon="3.91051">
        <ele>-7.1</ele>
        <time>2017-10-27T08:54:05.432Z</time>
      </trkpt>
      <trkpt lat="43.53609" lon="3.91046">
        <ele>-7.2</ele>
        <time>2017-10-27T08:54:06.448Z</time>
      </trkpt>
      <trkpt lat="43.53609" lon="3.91041">
        <ele>-7.2</ele>
        <time>2017-10-27T08:54:07.445Z</time>
      </trkpt>
      <trkpt lat="43.53609" lon="3.91036">
        <ele>-7.1</ele>
        <time>2017-10-27T08:54:08.445Z</time>
      </trkpt>
      <trkpt lat="43.53609" lon="3.91031">
        <ele>-7.1</ele>
        <time>2017-10-27T08:54:09.446Z</time>
      </trkpt>
      <trkpt lat="43.53609" lon="3.91026">
        <ele>-7.1</ele>
        <time>2017-10-27T08:54:10.446Z</time>
      </trkpt>
      <trkpt lat="43.53609" lon="3.91021">
        <ele>-7</ele>
        <time>2017-10-27T08:54:11.447Z</time>
      </trkpt>
      <trkpt lat="43.53609" lon="3.91016">
        <ele>-7</ele>
        <time>2017-10-27T08:54:12.446Z</time>
      </trkpt>
      <trkpt lat="43.53609" lon="3.91011">
        <ele>-6.9</ele>
        <time>2017-10-27T08:54:13.446Z</time>
      </trkpt>
      <trkpt lat="43.53608" lon="3.91006">
        <ele>-6.9</ele>
        <time>2017-10-27T08:54:14.446Z</time>
      </trkpt>
      <trkpt lat="43.53608" lon="3.91001">
        <ele>-6.9</ele>
        <time>2017-10-27T08:54:15.439Z</time>
      </trkpt>
      <trkpt lat="43.53608" lon="3.90996">
        <ele>-6.9</ele>
        <time>2017-10-27T08:54:16.444Z</time>
      </trkpt>
      <trkpt lat="43.53608" lon="3.90991">
        <ele>-6.9</ele>
        <time>2017-10-27T08:54:17.445Z</time>
      </trkpt>
      <trkpt lat="43.53608" lon="3.90985">
        <ele>-6.8</ele>
        <time>2017-10-27T08:54:18.433Z</time>
      </trkpt>
      <trkpt lat="43.53608" lon="3.9098">
        <ele>-6.8</ele>
        <time>2017-10-27T08:54:19.432Z</time>
      </trkpt>
      <trkpt lat="43.53608" lon="3.90975">
        <ele>-6.7</ele>
        <time>2017-10-27T08:54:20.431Z</time>
      </trkpt>
      <trkpt lat="43.53608" lon="3.9097">
        <ele>-6.7</ele>
        <time>2017-10-27T08:54:21.463Z</time>
      </trkpt>
      <trkpt lat="43.53608" lon="3.90964">
        <ele>-6.7</ele>
        <time>2017-10-27T08:54:22.464Z</time>
      </trkpt>
      <trkpt lat="43.53608" lon="3.90959">
        <ele>-6.7</ele>
        <time>2017-10-27T08:54:23.464Z</time>
      </trkpt>
      <trkpt lat="43.53608" lon="3.90953">
        <ele>-6.7</ele>
        <time>2017-10-27T08:54:24.447Z</time>
      </trkpt>
      <trkpt lat="43.53608" lon="3.90948">
        <ele>-6.7</ele>
        <time>2017-10-27T08:54:25.445Z</time>
      </trkpt>
      <trkpt lat="43.53608" lon="3.90942">
        <ele>-6.7</ele>
        <time>2017-10-27T08:54:26.446Z</time>
      </trkpt>
      <trkpt lat="43.53607" lon="3.90937">
        <ele>-6.7</ele>
        <time>2017-10-27T08:54:27.445Z</time>
      </trkpt>
      <trkpt lat="43.53607" lon="3.90932">
        <ele>-6.7</ele>
        <time>2017-10-27T08:54:28.448Z</time>
      </trkpt>
      <trkpt lat="43.53607" lon="3.90927">
        <ele>-6.7</ele>
        <time>2017-10-27T08:54:29.446Z</time>
      </trkpt>
      <trkpt lat="43.53607" lon="3.90921">
        <ele>-6.7</ele>
        <time>2017-10-27T08:54:30.447Z</time>
      </trkpt>
      <trkpt lat="43.53607" lon="3.90916">
        <ele>-6.8</ele>
        <time>2017-10-27T08:54:31.449Z</time>
      </trkpt>
      <trkpt lat="43.53607" lon="3.90911">
        <ele>-6.8</ele>
        <time>2017-10-27T08:54:32.445Z</time>
      </trkpt>
      <trkpt lat="43.53607" lon="3.90906">
        <ele>-6.7</ele>
        <time>2017-10-27T08:54:33.433Z</time>
      </trkpt>
      <trkpt lat="43.53607" lon="3.90901">
        <ele>-6.7</ele>
        <time>2017-10-27T08:54:34.432Z</time>
      </trkpt>
      <trkpt lat="43.53607" lon="3.90896">
        <ele>-6.7</ele>
        <time>2017-10-27T08:54:35.432Z</time>
      </trkpt>
      <trkpt lat="43.53606" lon="3.90891">
        <ele>-6.7</ele>
        <time>2017-10-27T08:54:36.435Z</time>
      </trkpt>
      <trkpt lat="43.53606" lon="3.90885">
        <ele>-6.7</ele>
        <time>2017-10-27T08:54:37.434Z</time>
      </trkpt>
      <trkpt lat="43.53606" lon="3.9088">
        <ele>-6.8</ele>
        <time>2017-10-27T08:54:38.443Z</time>
      </trkpt>
      <trkpt lat="43.53606" lon="3.90875">
        <ele>-6.7</ele>
        <time>2017-10-27T08:54:39.445Z</time>
      </trkpt>
      <trkpt lat="43.53606" lon="3.9087">
        <ele>-6.5</ele>
        <time>2017-10-27T08:54:40.431Z</time>
      </trkpt>
      <trkpt lat="43.53605" lon="3.90865">
        <ele>-6.5</ele>
        <time>2017-10-27T08:54:41.450Z</time>
      </trkpt>
      <trkpt lat="43.53605" lon="3.9086">
        <ele>-6.5</ele>
        <time>2017-10-27T08:54:42.447Z</time>
      </trkpt>
      <trkpt lat="43.53605" lon="3.90854">
        <ele>-6.4</ele>
        <time>2017-10-27T08:54:43.446Z</time>
      </trkpt>
      <trkpt lat="43.53605" lon="3.90849">
        <ele>-6.4</ele>
        <time>2017-10-27T08:54:44.447Z</time>
      </trkpt>
      <trkpt lat="43.53605" lon="3.90844">
        <ele>-6.4</ele>
        <time>2017-10-27T08:54:45.448Z</time>
      </trkpt>
      <trkpt lat="43.53605" lon="3.90839">
        <ele>-6.5</ele>
        <time>2017-10-27T08:54:46.444Z</time>
      </trkpt>
      <trkpt lat="43.53605" lon="3.90833">
        <ele>-6.5</ele>
        <time>2017-10-27T08:54:47.448Z</time>
      </trkpt>
      <trkpt lat="43.53605" lon="3.90828">
        <ele>-6.5</ele>
        <time>2017-10-27T08:54:48.449Z</time>
      </trkpt>
      <trkpt lat="43.53605" lon="3.90823">
        <ele>-6.5</ele>
        <time>2017-10-27T08:54:49.447Z</time>
      </trkpt>
      <trkpt lat="43.53605" lon="3.90818">
        <ele>-6.5</ele>
        <time>2017-10-27T08:54:50.446Z</time>
      </trkpt>
      <trkpt lat="43.53605" lon="3.90813">
        <ele>-6.7</ele>
        <time>2017-10-27T08:54:51.442Z</time>
      </trkpt>
      <trkpt lat="43.53606" lon="3.90808">
        <ele>-6.7</ele>
        <time>2017-10-27T08:54:52.446Z</time>
      </trkpt>
      <trkpt lat="43.53607" lon="3.90803">
        <ele>-6.8</ele>
        <time>2017-10-27T08:54:53.449Z</time>
      </trkpt>
      <trkpt lat="43.53607" lon="3.90799">
        <ele>-6.8</ele>
        <time>2017-10-27T08:54:54.447Z</time>
      </trkpt>
      <trkpt lat="43.53607" lon="3.90794">
        <ele>-6.8</ele>
        <time>2017-10-27T08:54:55.447Z</time>
      </trkpt>
      <trkpt lat="43.53607" lon="3.9079">
        <ele>-6.8</ele>
        <time>2017-10-27T08:54:56.446Z</time>
      </trkpt>
      <trkpt lat="43.53608" lon="3.90786">
        <ele>-6.8</ele>
        <time>2017-10-27T08:54:57.443Z</time>
      </trkpt>
      <trkpt lat="43.53608" lon="3.90781">
        <ele>-6.7</ele>
        <time>2017-10-27T08:54:58.444Z</time>
      </trkpt>
      <trkpt lat="43.53608" lon="3.90777">
        <ele>-6.7</ele>
        <time>2017-10-27T08:54:59.432Z</time>
      </trkpt>
      <trkpt lat="43.53609" lon="3.90773">
        <ele>-6.8</ele>
        <time>2017-10-27T08:55:00.435Z</time>
      </trkpt>
      <trkpt lat="43.53609" lon="3.90769">
        <ele>-6.8</ele>
        <time>2017-10-27T08:55:01.444Z</time>
      </trkpt>
      <trkpt lat="43.5361" lon="3.90765">
        <ele>-6.8</ele>
        <time>2017-10-27T08:55:02.436Z</time>
      </trkpt>
      <trkpt lat="43.5361" lon="3.9076">
        <ele>-6.8</ele>
        <time>2017-10-27T08:55:03.456Z</time>
      </trkpt>
      <trkpt lat="43.53611" lon="3.90756">
        <ele>-6.8</ele>
        <time>2017-10-27T08:55:04.444Z</time>
      </trkpt>
      <trkpt lat="43.53612" lon="3.90751">
        <ele>-6.8</ele>
        <time>2017-10-27T08:55:05.445Z</time>
      </trkpt>
      <trkpt lat="43.53613" lon="3.90747">
        <ele>-6.8</ele>
        <time>2017-10-27T08:55:06.448Z</time>
      </trkpt>
      <trkpt lat="43.53613" lon="3.90742">
        <ele>-6.8</ele>
        <time>2017-10-27T08:55:07.446Z</time>
      </trkpt>
      <trkpt lat="43.53614" lon="3.90738">
        <ele>-6.8</ele>
        <time>2017-10-27T08:55:08.449Z</time>
      </trkpt>
      <trkpt lat="43.53615" lon="3.90733">
        <ele>-6.9</ele>
        <time>2017-10-27T08:55:09.449Z</time>
      </trkpt>
      <trkpt lat="43.53615" lon="3.90729">
        <ele>-6.9</ele>
        <time>2017-10-27T08:55:10.452Z</time>
      </trkpt>
      <trkpt lat="43.53616" lon="3.90724">
        <ele>-6.9</ele>
        <time>2017-10-27T08:55:11.445Z</time>
      </trkpt>
      <trkpt lat="43.53616" lon="3.9072">
        <ele>-6.9</ele>
        <time>2017-10-27T08:55:12.448Z</time>
      </trkpt>
      <trkpt lat="43.53617" lon="3.90716">
        <ele>-6.9</ele>
        <time>2017-10-27T08:55:13.433Z</time>
      </trkpt>
      <trkpt lat="43.53618" lon="3.90711">
        <ele>-6.9</ele>
        <time>2017-10-27T08:55:14.434Z</time>
      </trkpt>
      <trkpt lat="43.53619" lon="3.90707">
        <ele>-6.9</ele>
        <time>2017-10-27T08:55:15.446Z</time>
      </trkpt>
      <trkpt lat="43.5362" lon="3.90703">
        <ele>-6.9</ele>
        <time>2017-10-27T08:55:16.445Z</time>
      </trkpt>
      <trkpt lat="43.53621" lon="3.90698">
        <ele>-6.9</ele>
        <time>2017-10-27T08:55:17.445Z</time>
      </trkpt>
      <trkpt lat="43.53622" lon="3.90694">
        <ele>-6.9</ele>
        <time>2017-10-27T08:55:18.447Z</time>
      </trkpt>
      <trkpt lat="43.53623" lon="3.9069">
        <ele>-6.9</ele>
        <time>2017-10-27T08:55:19.434Z</time>
      </trkpt>
      <trkpt lat="43.53624" lon="3.90685">
        <ele>-6.9</ele>
        <time>2017-10-27T08:55:20.432Z</time>
      </trkpt>
      <trkpt lat="43.53625" lon="3.90681">
        <ele>-6.9</ele>
        <time>2017-10-27T08:55:21.433Z</time>
      </trkpt>
      <trkpt lat="43.53626" lon="3.90677">
        <ele>-6.9</ele>
        <time>2017-10-27T08:55:22.465Z</time>
      </trkpt>
      <trkpt lat="43.53627" lon="3.90672">
        <ele>-6.9</ele>
        <time>2017-10-27T08:55:23.455Z</time>
      </trkpt>
      <trkpt lat="43.53628" lon="3.90668">
        <ele>-6.9</ele>
        <time>2017-10-27T08:55:24.448Z</time>
      </trkpt>
      <trkpt lat="43.53629" lon="3.90664">
        <ele>-6.9</ele>
        <time>2017-10-27T08:55:25.445Z</time>
      </trkpt>
      <trkpt lat="43.5363" lon="3.90659">
        <ele>-6.9</ele>
        <time>2017-10-27T08:55:26.448Z</time>
      </trkpt>
      <trkpt lat="43.53631" lon="3.90655">
        <ele>-6.9</ele>
        <time>2017-10-27T08:55:27.449Z</time>
      </trkpt>
      <trkpt lat="43.53632" lon="3.90651">
        <ele>-6.9</ele>
        <time>2017-10-27T08:55:28.446Z</time>
      </trkpt>
      <trkpt lat="43.53634" lon="3.90647">
        <ele>-6.9</ele>
        <time>2017-10-27T08:55:29.447Z</time>
      </trkpt>
      <trkpt lat="43.53635" lon="3.90643">
        <ele>-7</ele>
        <time>2017-10-27T08:55:30.448Z</time>
      </trkpt>
      <trkpt lat="43.53636" lon="3.90639">
        <ele>-7</ele>
        <time>2017-10-27T08:55:31.439Z</time>
      </trkpt>
      <trkpt lat="43.53637" lon="3.90635">
        <ele>-7</ele>
        <time>2017-10-27T08:55:32.448Z</time>
      </trkpt>
      <trkpt lat="43.53639" lon="3.90631">
        <ele>-7.1</ele>
        <time>2017-10-27T08:55:33.448Z</time>
      </trkpt>
      <trkpt lat="43.5364" lon="3.90628">
        <ele>-7.1</ele>
        <time>2017-10-27T08:55:34.451Z</time>
      </trkpt>
      <trkpt lat="43.53642" lon="3.90624">
        <ele>-7.2</ele>
        <time>2017-10-27T08:55:35.438Z</time>
      </trkpt>
      <trkpt lat="43.53643" lon="3.90619">
        <ele>-7.2</ele>
        <time>2017-10-27T08:55:36.448Z</time>
      </trkpt>
      <trkpt lat="43.53644" lon="3.90615">
        <ele>-7.2</ele>
        <time>2017-10-27T08:55:37.455Z</time>
      </trkpt>
      <trkpt lat="43.53646" lon="3.90611">
        <ele>-7.1</ele>
        <time>2017-10-27T08:55:38.447Z</time>
      </trkpt>
      <trkpt lat="43.53647" lon="3.90607">
        <ele>-7.1</ele>
        <time>2017-10-27T08:55:39.446Z</time>
      </trkpt>
      <trkpt lat="43.53649" lon="3.90603">
        <ele>-7.1</ele>
        <time>2017-10-27T08:55:40.445Z</time>
      </trkpt>
      <trkpt lat="43.53651" lon="3.90599">
        <ele>-7.1</ele>
        <time>2017-10-27T08:55:41.446Z</time>
      </trkpt>
      <trkpt lat="43.53652" lon="3.90595">
        <ele>-7.2</ele>
        <time>2017-10-27T08:55:42.446Z</time>
      </trkpt>
      <trkpt lat="43.53654" lon="3.90591">
        <ele>-7.2</ele>
        <time>2017-10-27T08:55:43.434Z</time>
      </trkpt>
      <trkpt lat="43.53655" lon="3.90586">
        <ele>-7.1</ele>
        <time>2017-10-27T08:55:44.432Z</time>
      </trkpt>
      <trkpt lat="43.53657" lon="3.90582">
        <ele>-7.2</ele>
        <time>2017-10-27T08:55:45.432Z</time>
      </trkpt>
      <trkpt lat="43.53659" lon="3.90579">
        <ele>-7.1</ele>
        <time>2017-10-27T08:55:46.433Z</time>
      </trkpt>
      <trkpt lat="43.53661" lon="3.90574">
        <ele>-7</ele>
        <time>2017-10-27T08:55:47.447Z</time>
      </trkpt>
      <trkpt lat="43.53662" lon="3.9057">
        <ele>-7</ele>
        <time>2017-10-27T08:55:48.453Z</time>
      </trkpt>
      <trkpt lat="43.53664" lon="3.90566">
        <ele>-7</ele>
        <time>2017-10-27T08:55:49.454Z</time>
      </trkpt>
      <trkpt lat="43.53666" lon="3.90562">
        <ele>-7</ele>
        <time>2017-10-27T08:55:50.445Z</time>
      </trkpt>
      <trkpt lat="43.53669" lon="3.90558">
        <ele>-7</ele>
        <time>2017-10-27T08:55:51.445Z</time>
      </trkpt>
      <trkpt lat="43.53671" lon="3.90554">
        <ele>-7</ele>
        <time>2017-10-27T08:55:52.446Z</time>
      </trkpt>
      <trkpt lat="43.53672" lon="3.9055">
        <ele>-7</ele>
        <time>2017-10-27T08:55:53.446Z</time>
      </trkpt>
      <trkpt lat="43.53674" lon="3.90546">
        <ele>-7</ele>
        <time>2017-10-27T08:55:54.447Z</time>
      </trkpt>
      <trkpt lat="43.53676" lon="3.90542">
        <ele>-6.9</ele>
        <time>2017-10-27T08:55:55.453Z</time>
      </trkpt>
      <trkpt lat="43.53678" lon="3.90539">
        <ele>-7</ele>
        <time>2017-10-27T08:55:56.458Z</time>
      </trkpt>
      <trkpt lat="43.5368" lon="3.90535">
        <ele>-7</ele>
        <time>2017-10-27T08:55:57.440Z</time>
      </trkpt>
      <trkpt lat="43.53682" lon="3.90532">
        <ele>-7.1</ele>
        <time>2017-10-27T08:55:58.446Z</time>
      </trkpt>
      <trkpt lat="43.53684" lon="3.90528">
        <ele>-7</ele>
        <time>2017-10-27T08:55:59.446Z</time>
      </trkpt>
      <trkpt lat="43.53686" lon="3.90525">
        <ele>-7.1</ele>
        <time>2017-10-27T08:56:00.448Z</time>
      </trkpt>
      <trkpt lat="43.53688" lon="3.90521">
        <ele>-7.1</ele>
        <time>2017-10-27T08:56:01.440Z</time>
      </trkpt>
      <trkpt lat="43.5369" lon="3.90518">
        <ele>-7.1</ele>
        <time>2017-10-27T08:56:02.433Z</time>
      </trkpt>
      <trkpt lat="43.53692" lon="3.90515">
        <ele>-7.1</ele>
        <time>2017-10-27T08:56:03.432Z</time>
      </trkpt>
      <trkpt lat="43.53694" lon="3.90511">
        <ele>-7.2</ele>
        <time>2017-10-27T08:56:04.444Z</time>
      </trkpt>
      <trkpt lat="43.53697" lon="3.90508">
        <ele>-7.2</ele>
        <time>2017-10-27T08:56:05.452Z</time>
      </trkpt>
      <trkpt lat="43.53699" lon="3.90504">
        <ele>-7.3</ele>
        <time>2017-10-27T08:56:06.447Z</time>
      </trkpt>
      <trkpt lat="43.53701" lon="3.90501">
        <ele>-7.3</ele>
        <time>2017-10-27T08:56:07.446Z</time>
      </trkpt>
      <trkpt lat="43.53703" lon="3.90497">
        <ele>-7.2</ele>
        <time>2017-10-27T08:56:08.456Z</time>
      </trkpt>
      <trkpt lat="43.53706" lon="3.90493">
        <ele>-7.2</ele>
        <time>2017-10-27T08:56:09.446Z</time>
      </trkpt>
      <trkpt lat="43.53708" lon="3.9049">
        <ele>-7.2</ele>
        <time>2017-10-27T08:56:10.449Z</time>
      </trkpt>
      <trkpt lat="43.53711" lon="3.90487">
        <ele>-7.2</ele>
        <time>2017-10-27T08:56:11.445Z</time>
      </trkpt>
      <trkpt lat="43.53713" lon="3.90483">
        <ele>-7.2</ele>
        <time>2017-10-27T08:56:12.449Z</time>
      </trkpt>
      <trkpt lat="43.53716" lon="3.9048">
        <ele>-7.2</ele>
        <time>2017-10-27T08:56:13.452Z</time>
      </trkpt>
      <trkpt lat="43.53718" lon="3.90477">
        <ele>-7.2</ele>
        <time>2017-10-27T08:56:14.446Z</time>
      </trkpt>
      <trkpt lat="43.5372" lon="3.90473">
        <ele>-7.2</ele>
        <time>2017-10-27T08:56:15.452Z</time>
      </trkpt>
      <trkpt lat="43.53723" lon="3.9047">
        <ele>-7.1</ele>
        <time>2017-10-27T08:56:16.447Z</time>
      </trkpt>
      <trkpt lat="43.53725" lon="3.90467">
        <ele>-7</ele>
        <time>2017-10-27T08:56:17.432Z</time>
      </trkpt>
      <trkpt lat="43.53728" lon="3.90463">
        <ele>-7</ele>
        <time>2017-10-27T08:56:18.447Z</time>
      </trkpt>
      <trkpt lat="43.53731" lon="3.9046">
        <ele>-7</ele>
        <time>2017-10-27T08:56:19.436Z</time>
      </trkpt>
      <trkpt lat="43.53733" lon="3.90457">
        <ele>-6.9</ele>
        <time>2017-10-27T08:56:20.432Z</time>
      </trkpt>
      <trkpt lat="43.53736" lon="3.90454">
        <ele>-6.8</ele>
        <time>2017-10-27T08:56:21.432Z</time>
      </trkpt>
      <trkpt lat="43.53739" lon="3.9045">
        <ele>-6.9</ele>
        <time>2017-10-27T08:56:22.448Z</time>
      </trkpt>
      <trkpt lat="43.53742" lon="3.90447">
        <ele>-6.9</ele>
        <time>2017-10-27T08:56:23.464Z</time>
      </trkpt>
      <trkpt lat="43.53744" lon="3.90444">
        <ele>-7</ele>
        <time>2017-10-27T08:56:24.448Z</time>
      </trkpt>
      <trkpt lat="43.53747" lon="3.9044">
        <ele>-7</ele>
        <time>2017-10-27T08:56:25.447Z</time>
      </trkpt>
      <trkpt lat="43.5375" lon="3.90437">
        <ele>-7</ele>
        <time>2017-10-27T08:56:26.451Z</time>
      </trkpt>
      <trkpt lat="43.53752" lon="3.90434">
        <ele>-7.1</ele>
        <time>2017-10-27T08:56:27.467Z</time>
      </trkpt>
      <trkpt lat="43.53755" lon="3.90431">
        <ele>-7.1</ele>
        <time>2017-10-27T08:56:28.447Z</time>
      </trkpt>
      <trkpt lat="43.53758" lon="3.90429">
        <ele>-7.1</ele>
        <time>2017-10-27T08:56:29.447Z</time>
      </trkpt>
      <trkpt lat="43.5376" lon="3.90426">
        <ele>-7.1</ele>
        <time>2017-10-27T08:56:30.447Z</time>
      </trkpt>
      <trkpt lat="43.53763" lon="3.90423">
        <ele>-7</ele>
        <time>2017-10-27T08:56:31.447Z</time>
      </trkpt>
      <trkpt lat="43.53765" lon="3.9042">
        <ele>-6.9</ele>
        <time>2017-10-27T08:56:32.445Z</time>
      </trkpt>
      <trkpt lat="43.53768" lon="3.90417">
        <ele>-6.9</ele>
        <time>2017-10-27T08:56:33.446Z</time>
      </trkpt>
      <trkpt lat="43.53771" lon="3.90414">
        <ele>-6.9</ele>
        <time>2017-10-27T08:56:34.437Z</time>
      </trkpt>
      <trkpt lat="43.53773" lon="3.90411">
        <ele>-6.9</ele>
        <time>2017-10-27T08:56:35.448Z</time>
      </trkpt>
      <trkpt lat="43.53775" lon="3.90409">
        <ele>-6.9</ele>
        <time>2017-10-27T08:56:36.453Z</time>
      </trkpt>
      <trkpt lat="43.53778" lon="3.90406">
        <ele>-6.9</ele>
        <time>2017-10-27T08:56:37.432Z</time>
      </trkpt>
      <trkpt lat="43.5378" lon="3.90403">
        <ele>-6.9</ele>
        <time>2017-10-27T08:56:38.431Z</time>
      </trkpt>
      <trkpt lat="43.53783" lon="3.904">
        <ele>-7</ele>
        <time>2017-10-27T08:56:39.438Z</time>
      </trkpt>
      <trkpt lat="43.53785" lon="3.90397">
        <ele>-7</ele>
        <time>2017-10-27T08:56:40.447Z</time>
      </trkpt>
      <trkpt lat="43.53788" lon="3.90394">
        <ele>-6.9</ele>
        <time>2017-10-27T08:56:41.447Z</time>
      </trkpt>
      <trkpt lat="43.5379" lon="3.90391">
        <ele>-6.8</ele>
        <time>2017-10-27T08:56:42.454Z</time>
      </trkpt>
      <trkpt lat="43.53793" lon="3.90388">
        <ele>-6.8</ele>
        <time>2017-10-27T08:56:43.447Z</time>
      </trkpt>
      <trkpt lat="43.53796" lon="3.90385">
        <ele>-6.7</ele>
        <time>2017-10-27T08:56:44.449Z</time>
      </trkpt>
      <trkpt lat="43.53798" lon="3.90382">
        <ele>-6.7</ele>
        <time>2017-10-27T08:56:45.449Z</time>
      </trkpt>
      <trkpt lat="43.53801" lon="3.90379">
        <ele>-6.6</ele>
        <time>2017-10-27T08:56:46.447Z</time>
      </trkpt>
      <trkpt lat="43.53804" lon="3.90376">
        <ele>-6.6</ele>
        <time>2017-10-27T08:56:47.448Z</time>
      </trkpt>
      <trkpt lat="43.53807" lon="3.90373">
        <ele>-6.6</ele>
        <time>2017-10-27T08:56:48.454Z</time>
      </trkpt>
      <trkpt lat="43.53809" lon="3.9037">
        <ele>-6.6</ele>
        <time>2017-10-27T08:56:49.449Z</time>
      </trkpt>
      <trkpt lat="43.53812" lon="3.90367">
        <ele>-6.5</ele>
        <time>2017-10-27T08:56:50.446Z</time>
      </trkpt>
      <trkpt lat="43.53815" lon="3.90364">
        <ele>-6.5</ele>
        <time>2017-10-27T08:56:51.450Z</time>
      </trkpt>
      <trkpt lat="43.53817" lon="3.90361">
        <ele>-6.6</ele>
        <time>2017-10-27T08:56:52.445Z</time>
      </trkpt>
      <trkpt lat="43.5382" lon="3.90357">
        <ele>-6.5</ele>
        <time>2017-10-27T08:56:53.445Z</time>
      </trkpt>
      <trkpt lat="43.53822" lon="3.90354">
        <ele>-6.6</ele>
        <time>2017-10-27T08:56:54.447Z</time>
      </trkpt>
      <trkpt lat="43.53825" lon="3.90352">
        <ele>-6.6</ele>
        <time>2017-10-27T08:56:55.446Z</time>
      </trkpt>
      <trkpt lat="43.53827" lon="3.90349">
        <ele>-6.6</ele>
        <time>2017-10-27T08:56:56.446Z</time>
      </trkpt>
      <trkpt lat="43.5383" lon="3.90346">
        <ele>-6.5</ele>
        <time>2017-10-27T08:56:57.432Z</time>
      </trkpt>
      <trkpt lat="43.53832" lon="3.90343">
        <ele>-6.5</ele>
        <time>2017-10-27T08:56:58.435Z</time>
      </trkpt>
      <trkpt lat="43.53835" lon="3.90341">
        <ele>-6.6</ele>
        <time>2017-10-27T08:56:59.433Z</time>
      </trkpt>
      <trkpt lat="43.53837" lon="3.90338">
        <ele>-6.5</ele>
        <time>2017-10-27T08:57:00.449Z</time>
      </trkpt>
      <trkpt lat="43.53839" lon="3.90335">
        <ele>-6.5</ele>
        <time>2017-10-27T08:57:01.450Z</time>
      </trkpt>
      <trkpt lat="43.53842" lon="3.90332">
        <ele>-6.5</ele>
        <time>2017-10-27T08:57:02.451Z</time>
      </trkpt>
      <trkpt lat="43.53844" lon="3.90329">
        <ele>-6.4</ele>
        <time>2017-10-27T08:57:03.446Z</time>
      </trkpt>
      <trkpt lat="43.53847" lon="3.90326">
        <ele>-6.5</ele>
        <time>2017-10-27T08:57:04.440Z</time>
      </trkpt>
      <trkpt lat="43.53849" lon="3.90324">
        <ele>-6.6</ele>
        <time>2017-10-27T08:57:05.446Z</time>
      </trkpt>
      <trkpt lat="43.53852" lon="3.90321">
        <ele>-6.7</ele>
        <time>2017-10-27T08:57:06.438Z</time>
      </trkpt>
      <trkpt lat="43.53854" lon="3.90318">
        <ele>-6.6</ele>
        <time>2017-10-27T08:57:07.449Z</time>
      </trkpt>
      <trkpt lat="43.53856" lon="3.90316">
        <ele>-6.5</ele>
        <time>2017-10-27T08:57:08.439Z</time>
      </trkpt>
      <trkpt lat="43.53858" lon="3.90313">
        <ele>-6.6</ele>
        <time>2017-10-27T08:57:09.446Z</time>
      </trkpt>
      <trkpt lat="43.5386" lon="3.90311">
        <ele>-6.6</ele>
        <time>2017-10-27T08:57:10.449Z</time>
      </trkpt>
      <trkpt lat="43.53862" lon="3.90308">
        <ele>-6.6</ele>
        <time>2017-10-27T08:57:11.445Z</time>
      </trkpt>
      <trkpt lat="43.53865" lon="3.90306">
        <ele>-6.5</ele>
        <time>2017-10-27T08:57:12.448Z</time>
      </trkpt>
      <trkpt lat="43.53867" lon="3.90303">
        <ele>-6.5</ele>
        <time>2017-10-27T08:57:13.445Z</time>
      </trkpt>
      <trkpt lat="43.53869" lon="3.90301">
        <ele>-6.4</ele>
        <time>2017-10-27T08:57:14.449Z</time>
      </trkpt>
      <trkpt lat="43.53871" lon="3.90299">
        <ele>-6.4</ele>
        <time>2017-10-27T08:57:15.446Z</time>
      </trkpt>
      <trkpt lat="43.53873" lon="3.90296">
        <ele>-6.4</ele>
        <time>2017-10-27T08:57:16.433Z</time>
      </trkpt>
      <trkpt lat="43.53875" lon="3.90294">
        <ele>-6.4</ele>
        <time>2017-10-27T08:57:17.432Z</time>
      </trkpt>
      <trkpt lat="43.53877" lon="3.90291">
        <ele>-6.4</ele>
        <time>2017-10-27T08:57:18.435Z</time>
      </trkpt>
      <trkpt lat="43.53879" lon="3.90289">
        <ele>-6.5</ele>
        <time>2017-10-27T08:57:19.447Z</time>
      </trkpt>
      <trkpt lat="43.53882" lon="3.90287">
        <ele>-6.5</ele>
        <time>2017-10-27T08:57:20.445Z</time>
      </trkpt>
      <trkpt lat="43.53884" lon="3.90284">
        <ele>-6.5</ele>
        <time>2017-10-27T08:57:21.447Z</time>
      </trkpt>
      <trkpt lat="43.53886" lon="3.90282">
        <ele>-6.5</ele>
        <time>2017-10-27T08:57:22.449Z</time>
      </trkpt>
      <trkpt lat="43.53888" lon="3.90279">
        <ele>-6.4</ele>
        <time>2017-10-27T08:57:23.446Z</time>
      </trkpt>
      <trkpt lat="43.5389" lon="3.90277">
        <ele>-6.3</ele>
        <time>2017-10-27T08:57:24.448Z</time>
      </trkpt>
      <trkpt lat="43.53893" lon="3.90275">
        <ele>-6.3</ele>
        <time>2017-10-27T08:57:25.446Z</time>
      </trkpt>
      <trkpt lat="43.53895" lon="3.90272">
        <ele>-6.4</ele>
        <time>2017-10-27T08:57:26.455Z</time>
      </trkpt>
      <trkpt lat="43.53897" lon="3.90269">
        <ele>-6.4</ele>
        <time>2017-10-27T08:57:27.446Z</time>
      </trkpt>
      <trkpt lat="43.53899" lon="3.90267">
        <ele>-6.3</ele>
        <time>2017-10-27T08:57:28.451Z</time>
      </trkpt>
      <trkpt lat="43.53902" lon="3.90264">
        <ele>-6.3</ele>
        <time>2017-10-27T08:57:29.445Z</time>
      </trkpt>
      <trkpt lat="43.53904" lon="3.90261">
        <ele>-6.3</ele>
        <time>2017-10-27T08:57:30.450Z</time>
      </trkpt>
      <trkpt lat="43.53906" lon="3.90258">
        <ele>-6.3</ele>
        <time>2017-10-27T08:57:31.456Z</time>
      </trkpt>
      <trkpt lat="43.53909" lon="3.90256">
        <ele>-6.3</ele>
        <time>2017-10-27T08:57:32.446Z</time>
      </trkpt>
      <trkpt lat="43.53911" lon="3.90253">
        <ele>-6.3</ele>
        <time>2017-10-27T08:57:33.450Z</time>
      </trkpt>
      <trkpt lat="43.53914" lon="3.9025">
        <ele>-6.3</ele>
        <time>2017-10-27T08:57:34.433Z</time>
      </trkpt>
      <trkpt lat="43.53916" lon="3.90247">
        <ele>-6.3</ele>
        <time>2017-10-27T08:57:35.432Z</time>
      </trkpt>
      <trkpt lat="43.53918" lon="3.90245">
        <ele>-6.3</ele>
        <time>2017-10-27T08:57:36.434Z</time>
      </trkpt>
      <trkpt lat="43.5392" lon="3.90242">
        <ele>-6.3</ele>
        <time>2017-10-27T08:57:37.465Z</time>
      </trkpt>
      <trkpt lat="43.53922" lon="3.9024">
        <ele>-6.3</ele>
        <time>2017-10-27T08:57:38.451Z</time>
      </trkpt>
      <trkpt lat="43.53924" lon="3.90237">
        <ele>-6.4</ele>
        <time>2017-10-27T08:57:39.451Z</time>
      </trkpt>
      <trkpt lat="43.53927" lon="3.90234">
        <ele>-6.4</ele>
        <time>2017-10-27T08:57:40.447Z</time>
      </trkpt>
      <trkpt lat="43.53929" lon="3.90232">
        <ele>-6.3</ele>
        <time>2017-10-27T08:57:41.447Z</time>
      </trkpt>
      <trkpt lat="43.53931" lon="3.90229">
        <ele>-6.3</ele>
        <time>2017-10-27T08:57:42.453Z</time>
      </trkpt>
      <trkpt lat="43.53934" lon="3.90226">
        <ele>-6.2</ele>
        <time>2017-10-27T08:57:43.447Z</time>
      </trkpt>
      <trkpt lat="43.53936" lon="3.90223">
        <ele>-6.2</ele>
        <time>2017-10-27T08:57:44.446Z</time>
      </trkpt>
      <trkpt lat="43.53939" lon="3.9022">
        <ele>-6.1</ele>
        <time>2017-10-27T08:57:45.446Z</time>
      </trkpt>
      <trkpt lat="43.53941" lon="3.90218">
        <ele>-6.1</ele>
        <time>2017-10-27T08:57:46.448Z</time>
      </trkpt>
      <trkpt lat="43.53943" lon="3.90215">
        <ele>-6.1</ele>
        <time>2017-10-27T08:57:47.451Z</time>
      </trkpt>
      <trkpt lat="43.53945" lon="3.90212">
        <ele>-6.1</ele>
        <time>2017-10-27T08:57:48.445Z</time>
      </trkpt>
      <trkpt lat="43.53947" lon="3.9021">
        <ele>-6.1</ele>
        <time>2017-10-27T08:57:49.432Z</time>
      </trkpt>
      <trkpt lat="43.53949" lon="3.90207">
        <ele>-6.2</ele>
        <time>2017-10-27T08:57:50.432Z</time>
      </trkpt>
      <trkpt lat="43.53951" lon="3.90205">
        <ele>-6.1</ele>
        <time>2017-10-27T08:57:51.447Z</time>
      </trkpt>
      <trkpt lat="43.53953" lon="3.90202">
        <ele>-6.1</ele>
        <time>2017-10-27T08:57:52.448Z</time>
      </trkpt>
      <trkpt lat="43.53956" lon="3.902">
        <ele>-6.1</ele>
        <time>2017-10-27T08:57:53.439Z</time>
      </trkpt>
      <trkpt lat="43.53958" lon="3.90197">
        <ele>-6.2</ele>
        <time>2017-10-27T08:57:54.444Z</time>
      </trkpt>
      <trkpt lat="43.5396" lon="3.90195">
        <ele>-6.2</ele>
        <time>2017-10-27T08:57:55.432Z</time>
      </trkpt>
      <trkpt lat="43.53962" lon="3.90192">
        <ele>-6.2</ele>
        <time>2017-10-27T08:57:56.432Z</time>
      </trkpt>
      <trkpt lat="43.53964" lon="3.9019">
        <ele>-6.2</ele>
        <time>2017-10-27T08:57:57.436Z</time>
      </trkpt>
      <trkpt lat="43.53966" lon="3.90187">
        <ele>-6.2</ele>
        <time>2017-10-27T08:57:58.462Z</time>
      </trkpt>
      <trkpt lat="43.53969" lon="3.90184">
        <ele>-6.2</ele>
        <time>2017-10-27T08:57:59.482Z</time>
      </trkpt>
      <trkpt lat="43.53971" lon="3.90182">
        <ele>-6.2</ele>
        <time>2017-10-27T08:58:00.465Z</time>
      </trkpt>
      <trkpt lat="43.53973" lon="3.90179">
        <ele>-6.2</ele>
        <time>2017-10-27T08:58:01.457Z</time>
      </trkpt>
      <trkpt lat="43.53975" lon="3.90177">
        <ele>-6.2</ele>
        <time>2017-10-27T08:58:02.445Z</time>
      </trkpt>
      <trkpt lat="43.53977" lon="3.90174">
        <ele>-6.2</ele>
        <time>2017-10-27T08:58:03.446Z</time>
      </trkpt>
      <trkpt lat="43.5398" lon="3.90171">
        <ele>-6.2</ele>
        <time>2017-10-27T08:58:04.446Z</time>
      </trkpt>
      <trkpt lat="43.53982" lon="3.90169">
        <ele>-6.3</ele>
        <time>2017-10-27T08:58:05.451Z</time>
      </trkpt>
      <trkpt lat="43.53984" lon="3.90166">
        <ele>-6.2</ele>
        <time>2017-10-27T08:58:06.459Z</time>
      </trkpt>
      <trkpt lat="43.53987" lon="3.90163">
        <ele>-6.3</ele>
        <time>2017-10-27T08:58:07.447Z</time>
      </trkpt>
      <trkpt lat="43.53989" lon="3.90161">
        <ele>-6.3</ele>
        <time>2017-10-27T08:58:08.446Z</time>
      </trkpt>
      <trkpt lat="43.53991" lon="3.90158">
        <ele>-6.3</ele>
        <time>2017-10-27T08:58:09.448Z</time>
      </trkpt>
      <trkpt lat="43.53993" lon="3.90155">
        <ele>-6.3</ele>
        <time>2017-10-27T08:58:10.445Z</time>
      </trkpt>
      <trkpt lat="43.53996" lon="3.90152">
        <ele>-6.4</ele>
        <time>2017-10-27T08:58:11.448Z</time>
      </trkpt>
      <trkpt lat="43.53998" lon="3.90149">
        <ele>-6.3</ele>
        <time>2017-10-27T08:58:12.447Z</time>
      </trkpt>
      <trkpt lat="43.54001" lon="3.90147">
        <ele>-6.3</ele>
        <time>2017-10-27T08:58:13.450Z</time>
      </trkpt>
      <trkpt lat="43.54003" lon="3.90144">
        <ele>-6.3</ele>
        <time>2017-10-27T08:58:14.446Z</time>
      </trkpt>
      <trkpt lat="43.54005" lon="3.90141">
        <ele>-6.3</ele>
        <time>2017-10-27T08:58:15.455Z</time>
      </trkpt>
      <trkpt lat="43.54008" lon="3.90138">
        <ele>-6.3</ele>
        <time>2017-10-27T08:58:16.447Z</time>
      </trkpt>
      <trkpt lat="43.5401" lon="3.90135">
        <ele>-6.3</ele>
        <time>2017-10-27T08:58:17.448Z</time>
      </trkpt>
      <trkpt lat="43.54013" lon="3.90132">
        <ele>-6.3</ele>
        <time>2017-10-27T08:58:18.433Z</time>
      </trkpt>
      <trkpt lat="43.54016" lon="3.90129">
        <ele>-6.3</ele>
        <time>2017-10-27T08:58:19.432Z</time>
      </trkpt>
      <trkpt lat="43.54018" lon="3.90126">
        <ele>-6.3</ele>
        <time>2017-10-27T08:58:20.438Z</time>
      </trkpt>
      <trkpt lat="43.54021" lon="3.90123">
        <ele>-6.3</ele>
        <time>2017-10-27T08:58:21.437Z</time>
      </trkpt>
      <trkpt lat="43.54023" lon="3.9012">
        <ele>-6.2</ele>
        <time>2017-10-27T08:58:22.454Z</time>
      </trkpt>
      <trkpt lat="43.54026" lon="3.90117">
        <ele>-6.2</ele>
        <time>2017-10-27T08:58:23.446Z</time>
      </trkpt>
      <trkpt lat="43.54029" lon="3.90113">
        <ele>-6.3</ele>
        <time>2017-10-27T08:58:24.449Z</time>
      </trkpt>
      <trkpt lat="43.54031" lon="3.9011">
        <ele>-6.3</ele>
        <time>2017-10-27T08:58:25.445Z</time>
      </trkpt>
      <trkpt lat="43.54034" lon="3.90107">
        <ele>-6.3</ele>
        <time>2017-10-27T08:58:26.447Z</time>
      </trkpt>
      <trkpt lat="43.54037" lon="3.90104">
        <ele>-6.3</ele>
        <time>2017-10-27T08:58:27.446Z</time>
      </trkpt>
      <trkpt lat="43.5404" lon="3.901">
        <ele>-6.3</ele>
        <time>2017-10-27T08:58:28.450Z</time>
      </trkpt>
      <trkpt lat="43.54043" lon="3.90097">
        <ele>-6.3</ele>
        <time>2017-10-27T08:58:29.446Z</time>
      </trkpt>
      <trkpt lat="43.54045" lon="3.90094">
        <ele>-6.3</ele>
        <time>2017-10-27T08:58:30.453Z</time>
      </trkpt>
      <trkpt lat="43.54048" lon="3.90091">
        <ele>-6.3</ele>
        <time>2017-10-27T08:58:31.445Z</time>
      </trkpt>
      <trkpt lat="43.54051" lon="3.90088">
        <ele>-6.3</ele>
        <time>2017-10-27T08:58:32.447Z</time>
      </trkpt>
      <trkpt lat="43.54053" lon="3.90085">
        <ele>-6.3</ele>
        <time>2017-10-27T08:58:33.445Z</time>
      </trkpt>
      <trkpt lat="43.54056" lon="3.90082">
        <ele>-6.3</ele>
        <time>2017-10-27T08:58:34.446Z</time>
      </trkpt>
      <trkpt lat="43.54058" lon="3.90078">
        <ele>-6.3</ele>
        <time>2017-10-27T08:58:35.454Z</time>
      </trkpt>
      <trkpt lat="43.54061" lon="3.90075">
        <ele>-6.3</ele>
        <time>2017-10-27T08:58:36.436Z</time>
      </trkpt>
      <trkpt lat="43.54064" lon="3.90072">
        <ele>-6.3</ele>
        <time>2017-10-27T08:58:37.432Z</time>
      </trkpt>
      <trkpt lat="43.54067" lon="3.90069">
        <ele>-6.2</ele>
        <time>2017-10-27T08:58:38.432Z</time>
      </trkpt>
      <trkpt lat="43.54069" lon="3.90066">
        <ele>-6.2</ele>
        <time>2017-10-27T08:58:39.443Z</time>
      </trkpt>
      <trkpt lat="43.54072" lon="3.90062">
        <ele>-6.2</ele>
        <time>2017-10-27T08:58:40.449Z</time>
      </trkpt>
      <trkpt lat="43.54074" lon="3.90059">
        <ele>-6.2</ele>
        <time>2017-10-27T08:58:41.444Z</time>
      </trkpt>
      <trkpt lat="43.54077" lon="3.90057">
        <ele>-6.1</ele>
        <time>2017-10-27T08:58:42.454Z</time>
      </trkpt>
      <trkpt lat="43.54079" lon="3.90054">
        <ele>-6.1</ele>
        <time>2017-10-27T08:58:43.450Z</time>
      </trkpt>
      <trkpt lat="43.54081" lon="3.90052">
        <ele>-6.1</ele>
        <time>2017-10-27T08:58:44.451Z</time>
      </trkpt>
      <trkpt lat="43.54083" lon="3.9005">
        <ele>-6.2</ele>
        <time>2017-10-27T08:58:45.447Z</time>
      </trkpt>
      <trkpt lat="43.54086" lon="3.90048">
        <ele>-6.5</ele>
        <time>2017-10-27T08:58:46.445Z</time>
      </trkpt>
      <trkpt lat="43.54088" lon="3.90045">
        <ele>-6.8</ele>
        <time>2017-10-27T08:58:47.464Z</time>
      </trkpt>
      <trkpt lat="43.54091" lon="3.90042">
        <ele>-7.1</ele>
        <time>2017-10-27T08:58:48.449Z</time>
      </trkpt>
      <trkpt lat="43.54095" lon="3.90039">
        <ele>-7.2</ele>
        <time>2017-10-27T08:58:49.455Z</time>
      </trkpt>
      <trkpt lat="43.54098" lon="3.90036">
        <ele>-7.3</ele>
        <time>2017-10-27T08:58:50.446Z</time>
      </trkpt>
      <trkpt lat="43.54101" lon="3.90034">
        <ele>-7.2</ele>
        <time>2017-10-27T08:58:51.445Z</time>
      </trkpt>
      <trkpt lat="43.54104" lon="3.90031">
        <ele>-7.2</ele>
        <time>2017-10-27T08:58:52.448Z</time>
      </trkpt>
      <trkpt lat="43.54107" lon="3.90028">
        <ele>-7.2</ele>
        <time>2017-10-27T08:58:53.446Z</time>
      </trkpt>
      <trkpt lat="43.5411" lon="3.90026">
        <ele>-7.1</ele>
        <time>2017-10-27T08:58:54.447Z</time>
      </trkpt>
      <trkpt lat="43.54112" lon="3.90024">
        <ele>-7</ele>
        <time>2017-10-27T08:58:55.446Z</time>
      </trkpt>
      <trkpt lat="43.54114" lon="3.90021">
        <ele>-6.9</ele>
        <time>2017-10-27T08:58:56.432Z</time>
      </trkpt>
      <trkpt lat="43.54117" lon="3.90019">
        <ele>-7</ele>
        <time>2017-10-27T08:58:57.432Z</time>
      </trkpt>
      <trkpt lat="43.54119" lon="3.90017">
        <ele>-6.9</ele>
        <time>2017-10-27T08:58:58.436Z</time>
      </trkpt>
      <trkpt lat="43.54121" lon="3.90014">
        <ele>-6.9</ele>
        <time>2017-10-27T08:58:59.463Z</time>
      </trkpt>
      <trkpt lat="43.54123" lon="3.90012">
        <ele>-6.9</ele>
        <time>2017-10-27T08:59:00.452Z</time>
      </trkpt>
      <trkpt lat="43.54126" lon="3.9001">
        <ele>-6.9</ele>
        <time>2017-10-27T08:59:01.445Z</time>
      </trkpt>
      <trkpt lat="43.54128" lon="3.90007">
        <ele>-6.8</ele>
        <time>2017-10-27T08:59:02.446Z</time>
      </trkpt>
      <trkpt lat="43.5413" lon="3.90005">
        <ele>-6.8</ele>
        <time>2017-10-27T08:59:03.447Z</time>
      </trkpt>
      <trkpt lat="43.54133" lon="3.90002">
        <ele>-6.8</ele>
        <time>2017-10-27T08:59:04.448Z</time>
      </trkpt>
      <trkpt lat="43.54135" lon="3.9">
        <ele>-6.9</ele>
        <time>2017-10-27T08:59:05.445Z</time>
      </trkpt>
      <trkpt lat="43.54137" lon="3.89997">
        <ele>-6.9</ele>
        <time>2017-10-27T08:59:06.456Z</time>
      </trkpt>
      <trkpt lat="43.5414" lon="3.89995">
        <ele>-6.9</ele>
        <time>2017-10-27T08:59:07.449Z</time>
      </trkpt>
      <trkpt lat="43.54142" lon="3.89992">
        <ele>-6.9</ele>
        <time>2017-10-27T08:59:08.456Z</time>
      </trkpt>
      <trkpt lat="43.54144" lon="3.8999">
        <ele>-6.8</ele>
        <time>2017-10-27T08:59:09.449Z</time>
      </trkpt>
      <trkpt lat="43.54146" lon="3.89988">
        <ele>-6.8</ele>
        <time>2017-10-27T08:59:10.450Z</time>
      </trkpt>
      <trkpt lat="43.54148" lon="3.89986">
        <ele>-6.7</ele>
        <time>2017-10-27T08:59:11.445Z</time>
      </trkpt>
      <trkpt lat="43.5415" lon="3.89984">
        <ele>-6.6</ele>
        <time>2017-10-27T08:59:12.448Z</time>
      </trkpt>
      <trkpt lat="43.54153" lon="3.89982">
        <ele>-6.6</ele>
        <time>2017-10-27T08:59:13.446Z</time>
      </trkpt>
      <trkpt lat="43.54155" lon="3.8998">
        <ele>-6.5</ele>
        <time>2017-10-27T08:59:14.431Z</time>
      </trkpt>
      <trkpt lat="43.54157" lon="3.89978">
        <ele>-6.5</ele>
        <time>2017-10-27T08:59:15.434Z</time>
      </trkpt>
      <trkpt lat="43.54159" lon="3.89976">
        <ele>-6.6</ele>
        <time>2017-10-27T08:59:16.446Z</time>
      </trkpt>
      <trkpt lat="43.54161" lon="3.89974">
        <ele>-6.6</ele>
        <time>2017-10-27T08:59:17.469Z</time>
      </trkpt>
      <trkpt lat="43.54164" lon="3.89972">
        <ele>-6.6</ele>
        <time>2017-10-27T08:59:18.452Z</time>
      </trkpt>
      <trkpt lat="43.54166" lon="3.8997">
        <ele>-6.6</ele>
        <time>2017-10-27T08:59:19.444Z</time>
      </trkpt>
      <trkpt lat="43.54168" lon="3.89968">
        <ele>-6.5</ele>
        <time>2017-10-27T08:59:20.446Z</time>
      </trkpt>
      <trkpt lat="43.54171" lon="3.89965">
        <ele>-6.5</ele>
        <time>2017-10-27T08:59:21.449Z</time>
      </trkpt>
      <trkpt lat="43.54173" lon="3.89963">
        <ele>-6.5</ele>
        <time>2017-10-27T08:59:22.447Z</time>
      </trkpt>
      <trkpt lat="43.54176" lon="3.89961">
        <ele>-6.5</ele>
        <time>2017-10-27T08:59:23.454Z</time>
      </trkpt>
      <trkpt lat="43.54179" lon="3.89959">
        <ele>-6.5</ele>
        <time>2017-10-27T08:59:24.447Z</time>
      </trkpt>
      <trkpt lat="43.54181" lon="3.89957">
        <ele>-6.6</ele>
        <time>2017-10-27T08:59:25.445Z</time>
      </trkpt>
      <trkpt lat="43.54184" lon="3.89955">
        <ele>-6.7</ele>
        <time>2017-10-27T08:59:26.448Z</time>
      </trkpt>
      <trkpt lat="43.54186" lon="3.89953">
        <ele>-6.8</ele>
        <time>2017-10-27T08:59:27.448Z</time>
      </trkpt>
      <trkpt lat="43.54189" lon="3.8995">
        <ele>-6.7</ele>
        <time>2017-10-27T08:59:28.446Z</time>
      </trkpt>
      <trkpt lat="43.54191" lon="3.89948">
        <ele>-6.7</ele>
        <time>2017-10-27T08:59:29.448Z</time>
      </trkpt>
      <trkpt lat="43.54194" lon="3.89945">
        <ele>-6.7</ele>
        <time>2017-10-27T08:59:30.433Z</time>
      </trkpt>
      <trkpt lat="43.54196" lon="3.89943">
        <ele>-6.6</ele>
        <time>2017-10-27T08:59:31.434Z</time>
      </trkpt>
      <trkpt lat="43.54199" lon="3.8994">
        <ele>-6.6</ele>
        <time>2017-10-27T08:59:32.441Z</time>
      </trkpt>
      <trkpt lat="43.54201" lon="3.89937">
        <ele>-6.6</ele>
        <time>2017-10-27T08:59:33.453Z</time>
      </trkpt>
      <trkpt lat="43.54204" lon="3.89935">
        <ele>-6.6</ele>
        <time>2017-10-27T08:59:34.450Z</time>
      </trkpt>
      <trkpt lat="43.54206" lon="3.89932">
        <ele>-6.5</ele>
        <time>2017-10-27T08:59:35.447Z</time>
      </trkpt>
      <trkpt lat="43.54208" lon="3.89929">
        <ele>-6.4</ele>
        <time>2017-10-27T08:59:36.448Z</time>
      </trkpt>
      <trkpt lat="43.5421" lon="3.89926">
        <ele>-6.4</ele>
        <time>2017-10-27T08:59:37.449Z</time>
      </trkpt>
      <trkpt lat="43.54212" lon="3.89923">
        <ele>-6.3</ele>
        <time>2017-10-27T08:59:38.446Z</time>
      </trkpt>
      <trkpt lat="43.54215" lon="3.8992">
        <ele>-6.3</ele>
        <time>2017-10-27T08:59:39.447Z</time>
      </trkpt>
      <trkpt lat="43.54217" lon="3.89917">
        <ele>-6.3</ele>
        <time>2017-10-27T08:59:40.446Z</time>
      </trkpt>
      <trkpt lat="43.54219" lon="3.89914">
        <ele>-6.3</ele>
        <time>2017-10-27T08:59:41.445Z</time>
      </trkpt>
      <trkpt lat="43.54221" lon="3.89912">
        <ele>-6.3</ele>
        <time>2017-10-27T08:59:42.446Z</time>
      </trkpt>
      <trkpt lat="43.54224" lon="3.89909">
        <ele>-6.3</ele>
        <time>2017-10-27T08:59:43.446Z</time>
      </trkpt>
      <trkpt lat="43.54226" lon="3.89906">
        <ele>-6.3</ele>
        <time>2017-10-27T08:59:44.446Z</time>
      </trkpt>
      <trkpt lat="43.54228" lon="3.89902">
        <ele>-6.3</ele>
        <time>2017-10-27T08:59:45.445Z</time>
      </trkpt>
      <trkpt lat="43.5423" lon="3.89899">
        <ele>-6.3</ele>
        <time>2017-10-27T08:59:46.448Z</time>
      </trkpt>
      <trkpt lat="43.54233" lon="3.89896">
        <ele>-6.4</ele>
        <time>2017-10-27T08:59:47.445Z</time>
      </trkpt>
      <trkpt lat="43.54235" lon="3.89893">
        <ele>-6.4</ele>
        <time>2017-10-27T08:59:48.455Z</time>
      </trkpt>
      <trkpt lat="43.54237" lon="3.89889">
        <ele>-6.3</ele>
        <time>2017-10-27T08:59:49.446Z</time>
      </trkpt>
      <trkpt lat="43.54239" lon="3.89886">
        <ele>-6.4</ele>
        <time>2017-10-27T08:59:50.434Z</time>
      </trkpt>
      <trkpt lat="43.54241" lon="3.89883">
        <ele>-6.3</ele>
        <time>2017-10-27T08:59:51.435Z</time>
      </trkpt>
      <trkpt lat="43.54243" lon="3.8988">
        <ele>-6.2</ele>
        <time>2017-10-27T08:59:52.432Z</time>
      </trkpt>
      <trkpt lat="43.54245" lon="3.89877">
        <ele>-6.3</ele>
        <time>2017-10-27T08:59:53.447Z</time>
      </trkpt>
      <trkpt lat="43.54247" lon="3.89874">
        <ele>-6.2</ele>
        <time>2017-10-27T08:59:54.456Z</time>
      </trkpt>
      <trkpt lat="43.54249" lon="3.89872">
        <ele>-6.2</ele>
        <time>2017-10-27T08:59:55.432Z</time>
      </trkpt>
      <trkpt lat="43.54251" lon="3.89869">
        <ele>-6.1</ele>
        <time>2017-10-27T08:59:56.469Z</time>
      </trkpt>
      <trkpt lat="43.54253" lon="3.89867">
        <ele>-6.1</ele>
        <time>2017-10-27T08:59:57.436Z</time>
      </trkpt>
      <trkpt lat="43.54255" lon="3.89864">
        <ele>-6.1</ele>
        <time>2017-10-27T08:59:58.447Z</time>
      </trkpt>
      <trkpt lat="43.54256" lon="3.89862">
        <ele>-6.2</ele>
        <time>2017-10-27T08:59:59.447Z</time>
      </trkpt>
      <trkpt lat="43.54258" lon="3.8986">
        <ele>-6.2</ele>
        <time>2017-10-27T09:00:00.448Z</time>
      </trkpt>
      <trkpt lat="43.5426" lon="3.89858">
        <ele>-6.2</ele>
        <time>2017-10-27T09:00:01.449Z</time>
      </trkpt>
      <trkpt lat="43.54262" lon="3.89855">
        <ele>-6.4</ele>
        <time>2017-10-27T09:00:02.448Z</time>
      </trkpt>
      <trkpt lat="43.54264" lon="3.89853">
        <ele>-6.5</ele>
        <time>2017-10-27T09:00:03.457Z</time>
      </trkpt>
      <trkpt lat="43.54267" lon="3.8985">
        <ele>-6.7</ele>
        <time>2017-10-27T09:00:04.447Z</time>
      </trkpt>
      <trkpt lat="43.5427" lon="3.89847">
        <ele>-6.7</ele>
        <time>2017-10-27T09:00:05.447Z</time>
      </trkpt>
      <trkpt lat="43.54273" lon="3.89844">
        <ele>-6.7</ele>
        <time>2017-10-27T09:00:06.447Z</time>
      </trkpt>
      <trkpt lat="43.54275" lon="3.89842">
        <ele>-6.8</ele>
        <time>2017-10-27T09:00:07.446Z</time>
      </trkpt>
      <trkpt lat="43.54278" lon="3.89839">
        <ele>-6.9</ele>
        <time>2017-10-27T09:00:08.446Z</time>
      </trkpt>
      <trkpt lat="43.54281" lon="3.89836">
        <ele>-6.9</ele>
        <time>2017-10-27T09:00:09.448Z</time>
      </trkpt>
      <trkpt lat="43.54284" lon="3.89833">
        <ele>-6.9</ele>
        <time>2017-10-27T09:00:10.433Z</time>
      </trkpt>
      <trkpt lat="43.54287" lon="3.8983">
        <ele>-6.9</ele>
        <time>2017-10-27T09:00:11.432Z</time>
      </trkpt>
      <trkpt lat="43.5429" lon="3.89827">
        <ele>-6.8</ele>
        <time>2017-10-27T09:00:12.434Z</time>
      </trkpt>
      <trkpt lat="43.54293" lon="3.89825">
        <ele>-6.8</ele>
        <time>2017-10-27T09:00:13.435Z</time>
      </trkpt>
      <trkpt lat="43.54296" lon="3.89822">
        <ele>-6.8</ele>
        <time>2017-10-27T09:00:14.467Z</time>
      </trkpt>
      <trkpt lat="43.54299" lon="3.89819">
        <ele>-6.8</ele>
        <time>2017-10-27T09:00:15.446Z</time>
      </trkpt>
      <trkpt lat="43.54301" lon="3.89817">
        <ele>-6.8</ele>
        <time>2017-10-27T09:00:16.447Z</time>
      </trkpt>
      <trkpt lat="43.54304" lon="3.89815">
        <ele>-6.8</ele>
        <time>2017-10-27T09:00:17.447Z</time>
      </trkpt>
      <trkpt lat="43.54307" lon="3.89812">
        <ele>-6.9</ele>
        <time>2017-10-27T09:00:18.455Z</time>
      </trkpt>
      <trkpt lat="43.5431" lon="3.8981">
        <ele>-6.9</ele>
        <time>2017-10-27T09:00:19.450Z</time>
      </trkpt>
      <trkpt lat="43.54313" lon="3.89808">
        <ele>-7</ele>
        <time>2017-10-27T09:00:20.446Z</time>
      </trkpt>
      <trkpt lat="43.54316" lon="3.89806">
        <ele>-7</ele>
        <time>2017-10-27T09:00:21.451Z</time>
      </trkpt>
      <trkpt lat="43.54319" lon="3.89804">
        <ele>-7</ele>
        <time>2017-10-27T09:00:22.449Z</time>
      </trkpt>
      <trkpt lat="43.54322" lon="3.89802">
        <ele>-6.9</ele>
        <time>2017-10-27T09:00:23.448Z</time>
      </trkpt>
      <trkpt lat="43.54325" lon="3.898">
        <ele>-6.9</ele>
        <time>2017-10-27T09:00:24.447Z</time>
      </trkpt>
      <trkpt lat="43.54328" lon="3.89798">
        <ele>-6.9</ele>
        <time>2017-10-27T09:00:25.448Z</time>
      </trkpt>
      <trkpt lat="43.54331" lon="3.89796">
        <ele>-6.9</ele>
        <time>2017-10-27T09:00:26.447Z</time>
      </trkpt>
      <trkpt lat="43.54334" lon="3.89793">
        <ele>-6.9</ele>
        <time>2017-10-27T09:00:27.446Z</time>
      </trkpt>
      <trkpt lat="43.54336" lon="3.89791">
        <ele>-7</ele>
        <time>2017-10-27T09:00:28.448Z</time>
      </trkpt>
      <trkpt lat="43.5434" lon="3.89789">
        <ele>-7</ele>
        <time>2017-10-27T09:00:29.447Z</time>
      </trkpt>
      <trkpt lat="43.54343" lon="3.89787">
        <ele>-7</ele>
        <time>2017-10-27T09:00:30.448Z</time>
      </trkpt>
      <trkpt lat="43.54345" lon="3.89786">
        <ele>-7</ele>
        <time>2017-10-27T09:00:31.436Z</time>
      </trkpt>
      <trkpt lat="43.54348" lon="3.89784">
        <ele>-7</ele>
        <time>2017-10-27T09:00:32.432Z</time>
      </trkpt>
      <trkpt lat="43.54351" lon="3.89782">
        <ele>-7</ele>
        <time>2017-10-27T09:00:33.433Z</time>
      </trkpt>
      <trkpt lat="43.54354" lon="3.8978">
        <ele>-7</ele>
        <time>2017-10-27T09:00:34.432Z</time>
      </trkpt>
      <trkpt lat="43.54357" lon="3.89778">
        <ele>-7</ele>
        <time>2017-10-27T09:00:35.451Z</time>
      </trkpt>
      <trkpt lat="43.5436" lon="3.89777">
        <ele>-7</ele>
        <time>2017-10-27T09:00:36.434Z</time>
      </trkpt>
      <trkpt lat="43.54363" lon="3.89775">
        <ele>-7</ele>
        <time>2017-10-27T09:00:37.446Z</time>
      </trkpt>
      <trkpt lat="43.54365" lon="3.89773">
        <ele>-7.1</ele>
        <time>2017-10-27T09:00:38.448Z</time>
      </trkpt>
      <trkpt lat="43.54368" lon="3.89772">
        <ele>-7.1</ele>
        <time>2017-10-27T09:00:39.434Z</time>
      </trkpt>
      <trkpt lat="43.5437" lon="3.8977">
        <ele>-7.1</ele>
        <time>2017-10-27T09:00:40.445Z</time>
      </trkpt>
      <trkpt lat="43.54373" lon="3.89769">
        <ele>-7.3</ele>
        <time>2017-10-27T09:00:41.451Z</time>
      </trkpt>
      <trkpt lat="43.54376" lon="3.89768">
        <ele>-7.2</ele>
        <time>2017-10-27T09:00:42.449Z</time>
      </trkpt>
      <trkpt lat="43.54378" lon="3.89767">
        <ele>-7.1</ele>
        <time>2017-10-27T09:00:43.456Z</time>
      </trkpt>
      <trkpt lat="43.54381" lon="3.89766">
        <ele>-7.1</ele>
        <time>2017-10-27T09:00:44.444Z</time>
      </trkpt>
      <trkpt lat="43.54384" lon="3.89765">
        <ele>-7.1</ele>
        <time>2017-10-27T09:00:45.444Z</time>
      </trkpt>
      <trkpt lat="43.54387" lon="3.89763">
        <ele>-7.1</ele>
        <time>2017-10-27T09:00:46.445Z</time>
      </trkpt>
      <trkpt lat="43.54389" lon="3.89762">
        <ele>-7.1</ele>
        <time>2017-10-27T09:00:47.434Z</time>
      </trkpt>
      <trkpt lat="43.54392" lon="3.89762">
        <ele>-7</ele>
        <time>2017-10-27T09:00:48.434Z</time>
      </trkpt>
      <trkpt lat="43.54394" lon="3.89761">
        <ele>-7</ele>
        <time>2017-10-27T09:00:49.443Z</time>
      </trkpt>
      <trkpt lat="43.54396" lon="3.8976">
        <ele>-7</ele>
        <time>2017-10-27T09:00:50.447Z</time>
      </trkpt>
      <trkpt lat="43.54399" lon="3.89759">
        <ele>-7</ele>
        <time>2017-10-27T09:00:51.460Z</time>
      </trkpt>
      <trkpt lat="43.54401" lon="3.89758">
        <ele>-6.9</ele>
        <time>2017-10-27T09:00:52.461Z</time>
      </trkpt>
      <trkpt lat="43.54403" lon="3.89758">
        <ele>-6.8</ele>
        <time>2017-10-27T09:00:53.464Z</time>
      </trkpt>
      <trkpt lat="43.54405" lon="3.89757">
        <ele>-6.8</ele>
        <time>2017-10-27T09:00:54.448Z</time>
      </trkpt>
      <trkpt lat="43.54407" lon="3.89757">
        <ele>-6.7</ele>
        <time>2017-10-27T09:00:55.448Z</time>
      </trkpt>
      <trkpt lat="43.54409" lon="3.89755">
        <ele>-6.6</ele>
        <time>2017-10-27T09:00:57.433Z</time>
      </trkpt>
      <trkpt lat="43.54411" lon="3.89755">
        <ele>-6.5</ele>
        <time>2017-10-27T09:00:58.433Z</time>
      </trkpt>
      <trkpt lat="43.54412" lon="3.89754">
        <ele>-6.5</ele>
        <time>2017-10-27T09:00:59.432Z</time>
      </trkpt>
      <trkpt lat="43.54415" lon="3.89753">
        <ele>-6.6</ele>
        <time>2017-10-27T09:01:00.436Z</time>
      </trkpt>
      <trkpt lat="43.54417" lon="3.89753">
        <ele>-6.5</ele>
        <time>2017-10-27T09:01:01.454Z</time>
      </trkpt>
      <trkpt lat="43.54419" lon="3.89753">
        <ele>-6.6</ele>
        <time>2017-10-27T09:01:02.457Z</time>
      </trkpt>
      <trkpt lat="43.54422" lon="3.89753">
        <ele>-6.6</ele>
        <time>2017-10-27T09:01:03.444Z</time>
      </trkpt>
      <trkpt lat="43.54425" lon="3.89753">
        <ele>-6.6</ele>
        <time>2017-10-27T09:01:04.444Z</time>
      </trkpt>
      <trkpt lat="43.54428" lon="3.89753">
        <ele>-6.6</ele>
        <time>2017-10-27T09:01:05.445Z</time>
      </trkpt>
      <trkpt lat="43.54431" lon="3.89752">
        <ele>-6.6</ele>
        <time>2017-10-27T09:01:06.449Z</time>
      </trkpt>
      <trkpt lat="43.54434" lon="3.89752">
        <ele>-6.6</ele>
        <time>2017-10-27T09:01:07.445Z</time>
      </trkpt>
      <trkpt lat="43.54437" lon="3.89752">
        <ele>-6.5</ele>
        <time>2017-10-27T09:01:08.449Z</time>
      </trkpt>
      <trkpt lat="43.5444" lon="3.89751">
        <ele>-6.5</ele>
        <time>2017-10-27T09:01:09.447Z</time>
      </trkpt>
      <trkpt lat="43.54443" lon="3.89751">
        <ele>-6.5</ele>
        <time>2017-10-27T09:01:10.448Z</time>
      </trkpt>
      <trkpt lat="43.54446" lon="3.8975">
        <ele>-6.5</ele>
        <time>2017-10-27T09:01:11.448Z</time>
      </trkpt>
      <trkpt lat="43.54449" lon="3.8975">
        <ele>-6.4</ele>
        <time>2017-10-27T09:01:12.448Z</time>
      </trkpt>
      <trkpt lat="43.54452" lon="3.89749">
        <ele>-6.3</ele>
        <time>2017-10-27T09:01:13.445Z</time>
      </trkpt>
      <trkpt lat="43.54455" lon="3.89748">
        <ele>-6.2</ele>
        <time>2017-10-27T09:01:14.446Z</time>
      </trkpt>
      <trkpt lat="43.54458" lon="3.89748">
        <ele>-6.2</ele>
        <time>2017-10-27T09:01:15.455Z</time>
      </trkpt>
      <trkpt lat="43.54461" lon="3.89748">
        <ele>-6.1</ele>
        <time>2017-10-27T09:01:16.446Z</time>
      </trkpt>
      <trkpt lat="43.54464" lon="3.89747">
        <ele>-6.1</ele>
        <time>2017-10-27T09:01:17.446Z</time>
      </trkpt>
      <trkpt lat="43.54467" lon="3.89747">
        <ele>-6.2</ele>
        <time>2017-10-27T09:01:18.448Z</time>
      </trkpt>
      <trkpt lat="43.5447" lon="3.89746">
        <ele>-6.1</ele>
        <time>2017-10-27T09:01:19.432Z</time>
      </trkpt>
      <trkpt lat="43.54473" lon="3.89746">
        <ele>-6.1</ele>
        <time>2017-10-27T09:01:20.432Z</time>
      </trkpt>
      <trkpt lat="43.54476" lon="3.89746">
        <ele>-6.1</ele>
        <time>2017-10-27T09:01:21.432Z</time>
      </trkpt>
      <trkpt lat="43.5448" lon="3.89745">
        <ele>-6.1</ele>
        <time>2017-10-27T09:01:22.435Z</time>
      </trkpt>
      <trkpt lat="43.54483" lon="3.89744">
        <ele>-6</ele>
        <time>2017-10-27T09:01:23.434Z</time>
      </trkpt>
      <trkpt lat="43.54486" lon="3.89744">
        <ele>-6</ele>
        <time>2017-10-27T09:01:24.452Z</time>
      </trkpt>
      <trkpt lat="43.54489" lon="3.89744">
        <ele>-6</ele>
        <time>2017-10-27T09:01:25.444Z</time>
      </trkpt>
      <trkpt lat="43.54492" lon="3.89743">
        <ele>-6</ele>
        <time>2017-10-27T09:01:26.445Z</time>
      </trkpt>
      <trkpt lat="43.54495" lon="3.89743">
        <ele>-6</ele>
        <time>2017-10-27T09:01:27.444Z</time>
      </trkpt>
      <trkpt lat="43.54499" lon="3.89742">
        <ele>-6</ele>
        <time>2017-10-27T09:01:28.445Z</time>
      </trkpt>
      <trkpt lat="43.54502" lon="3.89742">
        <ele>-6</ele>
        <time>2017-10-27T09:01:29.445Z</time>
      </trkpt>
      <trkpt lat="43.54505" lon="3.89741">
        <ele>-6</ele>
        <time>2017-10-27T09:01:30.445Z</time>
      </trkpt>
      <trkpt lat="43.54508" lon="3.8974">
        <ele>-6</ele>
        <time>2017-10-27T09:01:31.445Z</time>
      </trkpt>
      <trkpt lat="43.54511" lon="3.8974">
        <ele>-6</ele>
        <time>2017-10-27T09:01:32.444Z</time>
      </trkpt>
      <trkpt lat="43.54515" lon="3.8974">
        <ele>-5.9</ele>
        <time>2017-10-27T09:01:33.455Z</time>
      </trkpt>
      <trkpt lat="43.54518" lon="3.89739">
        <ele>-6</ele>
        <time>2017-10-27T09:01:34.446Z</time>
      </trkpt>
      <trkpt lat="43.54522" lon="3.89739">
        <ele>-6</ele>
        <time>2017-10-27T09:01:35.434Z</time>
      </trkpt>
      <trkpt lat="43.54525" lon="3.89738">
        <ele>-5.9</ele>
        <time>2017-10-27T09:01:36.433Z</time>
      </trkpt>
      <trkpt lat="43.54528" lon="3.89738">
        <ele>-5.9</ele>
        <time>2017-10-27T09:01:37.447Z</time>
      </trkpt>
      <trkpt lat="43.54531" lon="3.89738">
        <ele>-5.8</ele>
        <time>2017-10-27T09:01:38.433Z</time>
      </trkpt>
      <trkpt lat="43.54535" lon="3.89738">
        <ele>-5.8</ele>
        <time>2017-10-27T09:01:39.444Z</time>
      </trkpt>
      <trkpt lat="43.54538" lon="3.89737">
        <ele>-5.8</ele>
        <time>2017-10-27T09:01:40.444Z</time>
      </trkpt>
      <trkpt lat="43.54541" lon="3.89737">
        <ele>-5.8</ele>
        <time>2017-10-27T09:01:41.448Z</time>
      </trkpt>
      <trkpt lat="43.54544" lon="3.89737">
        <ele>-5.8</ele>
        <time>2017-10-27T09:01:42.447Z</time>
      </trkpt>
      <trkpt lat="43.54547" lon="3.89737">
        <ele>-5.9</ele>
        <time>2017-10-27T09:01:43.444Z</time>
      </trkpt>
      <trkpt lat="43.54551" lon="3.89737">
        <ele>-5.8</ele>
        <time>2017-10-27T09:01:44.444Z</time>
      </trkpt>
      <trkpt lat="43.54554" lon="3.89736">
        <ele>-5.8</ele>
        <time>2017-10-27T09:01:45.444Z</time>
      </trkpt>
      <trkpt lat="43.54557" lon="3.89736">
        <ele>-5.9</ele>
        <time>2017-10-27T09:01:46.446Z</time>
      </trkpt>
      <trkpt lat="43.5456" lon="3.89736">
        <ele>-5.8</ele>
        <time>2017-10-27T09:01:47.460Z</time>
      </trkpt>
      <trkpt lat="43.54564" lon="3.89735">
        <ele>-5.8</ele>
        <time>2017-10-27T09:01:48.446Z</time>
      </trkpt>
      <trkpt lat="43.54567" lon="3.89734">
        <ele>-5.9</ele>
        <time>2017-10-27T09:01:49.446Z</time>
      </trkpt>
      <trkpt lat="43.54571" lon="3.89734">
        <ele>-5.8</ele>
        <time>2017-10-27T09:01:50.446Z</time>
      </trkpt>
      <trkpt lat="43.54574" lon="3.89733">
        <ele>-5.8</ele>
        <time>2017-10-27T09:01:51.445Z</time>
      </trkpt>
      <trkpt lat="43.54577" lon="3.89733">
        <ele>-5.8</ele>
        <time>2017-10-27T09:01:52.446Z</time>
      </trkpt>
      <trkpt lat="43.54581" lon="3.89732">
        <ele>-5.8</ele>
        <time>2017-10-27T09:01:53.433Z</time>
      </trkpt>
      <trkpt lat="43.54584" lon="3.89732">
        <ele>-5.8</ele>
        <time>2017-10-27T09:01:54.433Z</time>
      </trkpt>
      <trkpt lat="43.54588" lon="3.89731">
        <ele>-5.8</ele>
        <time>2017-10-27T09:01:55.438Z</time>
      </trkpt>
      <trkpt lat="43.54591" lon="3.89731">
        <ele>-5.8</ele>
        <time>2017-10-27T09:01:56.431Z</time>
      </trkpt>
      <trkpt lat="43.54594" lon="3.89731">
        <ele>-5.8</ele>
        <time>2017-10-27T09:01:57.432Z</time>
      </trkpt>
      <trkpt lat="43.54598" lon="3.8973">
        <ele>-5.9</ele>
        <time>2017-10-27T09:01:58.449Z</time>
      </trkpt>
      <trkpt lat="43.54601" lon="3.8973">
        <ele>-5.9</ele>
        <time>2017-10-27T09:01:59.447Z</time>
      </trkpt>
      <trkpt lat="43.54604" lon="3.8973">
        <ele>-5.8</ele>
        <time>2017-10-27T09:02:00.452Z</time>
      </trkpt>
      <trkpt lat="43.54608" lon="3.8973">
        <ele>-5.8</ele>
        <time>2017-10-27T09:02:01.445Z</time>
      </trkpt>
      <trkpt lat="43.54611" lon="3.8973">
        <ele>-5.8</ele>
        <time>2017-10-27T09:02:02.444Z</time>
      </trkpt>
      <trkpt lat="43.54615" lon="3.8973">
        <ele>-5.8</ele>
        <time>2017-10-27T09:02:03.446Z</time>
      </trkpt>
      <trkpt lat="43.54618" lon="3.89729">
        <ele>-5.8</ele>
        <time>2017-10-27T09:02:04.444Z</time>
      </trkpt>
      <trkpt lat="43.54622" lon="3.89729">
        <ele>-5.8</ele>
        <time>2017-10-27T09:02:05.452Z</time>
      </trkpt>
      <trkpt lat="43.54626" lon="3.89729">
        <ele>-5.8</ele>
        <time>2017-10-27T09:02:06.446Z</time>
      </trkpt>
      <trkpt lat="43.54629" lon="3.89728">
        <ele>-5.9</ele>
        <time>2017-10-27T09:02:07.450Z</time>
      </trkpt>
      <trkpt lat="43.54633" lon="3.89728">
        <ele>-5.8</ele>
        <time>2017-10-27T09:02:08.447Z</time>
      </trkpt>
      <trkpt lat="43.54637" lon="3.89728">
        <ele>-5.8</ele>
        <time>2017-10-27T09:02:09.447Z</time>
      </trkpt>
      <trkpt lat="43.54641" lon="3.89728">
        <ele>-5.8</ele>
        <time>2017-10-27T09:02:10.431Z</time>
      </trkpt>
      <trkpt lat="43.54644" lon="3.89728">
        <ele>-5.8</ele>
        <time>2017-10-27T09:02:11.431Z</time>
      </trkpt>
      <trkpt lat="43.54648" lon="3.89727">
        <ele>-5.8</ele>
        <time>2017-10-27T09:02:12.435Z</time>
      </trkpt>
      <trkpt lat="43.54652" lon="3.89727">
        <ele>-5.8</ele>
        <time>2017-10-27T09:02:13.433Z</time>
      </trkpt>
      <trkpt lat="43.54655" lon="3.89727">
        <ele>-5.8</ele>
        <time>2017-10-27T09:02:14.446Z</time>
      </trkpt>
      <trkpt lat="43.54659" lon="3.89727">
        <ele>-5.7</ele>
        <time>2017-10-27T09:02:15.445Z</time>
      </trkpt>
      <trkpt lat="43.54663" lon="3.89727">
        <ele>-5.7</ele>
        <time>2017-10-27T09:02:16.449Z</time>
      </trkpt>
      <trkpt lat="43.54666" lon="3.89727">
        <ele>-5.7</ele>
        <time>2017-10-27T09:02:17.445Z</time>
      </trkpt>
      <trkpt lat="43.5467" lon="3.89727">
        <ele>-5.7</ele>
        <time>2017-10-27T09:02:18.446Z</time>
      </trkpt>
      <trkpt lat="43.54673" lon="3.89726">
        <ele>-5.7</ele>
        <time>2017-10-27T09:02:19.442Z</time>
      </trkpt>
      <trkpt lat="43.54677" lon="3.89726">
        <ele>-5.7</ele>
        <time>2017-10-27T09:02:20.456Z</time>
      </trkpt>
      <trkpt lat="43.54681" lon="3.89726">
        <ele>-5.7</ele>
        <time>2017-10-27T09:02:21.448Z</time>
      </trkpt>
      <trkpt lat="43.54684" lon="3.89726">
        <ele>-5.6</ele>
        <time>2017-10-27T09:02:22.430Z</time>
      </trkpt>
      <trkpt lat="43.54688" lon="3.89726">
        <ele>-5.6</ele>
        <time>2017-10-27T09:02:23.444Z</time>
      </trkpt>
      <trkpt lat="43.54692" lon="3.89726">
        <ele>-5.6</ele>
        <time>2017-10-27T09:02:24.446Z</time>
      </trkpt>
      <trkpt lat="43.54696" lon="3.89726">
        <ele>-5.6</ele>
        <time>2017-10-27T09:02:25.442Z</time>
      </trkpt>
      <trkpt lat="43.54699" lon="3.89726">
        <ele>-5.6</ele>
        <time>2017-10-27T09:02:26.444Z</time>
      </trkpt>
      <trkpt lat="43.54703" lon="3.89726">
        <ele>-5.6</ele>
        <time>2017-10-27T09:02:27.434Z</time>
      </trkpt>
      <trkpt lat="43.54706" lon="3.89726">
        <ele>-5.6</ele>
        <time>2017-10-27T09:02:28.431Z</time>
      </trkpt>
      <trkpt lat="43.5471" lon="3.89725">
        <ele>-5.5</ele>
        <time>2017-10-27T09:02:29.431Z</time>
      </trkpt>
      <trkpt lat="43.54714" lon="3.89725">
        <ele>-5.5</ele>
        <time>2017-10-27T09:02:30.439Z</time>
      </trkpt>
      <trkpt lat="43.54717" lon="3.89725">
        <ele>-5.5</ele>
        <time>2017-10-27T09:02:31.446Z</time>
      </trkpt>
      <trkpt lat="43.54721" lon="3.89726">
        <ele>-5.5</ele>
        <time>2017-10-27T09:02:32.445Z</time>
      </trkpt>
      <trkpt lat="43.54725" lon="3.89725">
        <ele>-5.4</ele>
        <time>2017-10-27T09:02:33.446Z</time>
      </trkpt>
      <trkpt lat="43.54728" lon="3.89725">
        <ele>-5.4</ele>
        <time>2017-10-27T09:02:34.451Z</time>
      </trkpt>
      <trkpt lat="43.54732" lon="3.89725">
        <ele>-5.3</ele>
        <time>2017-10-27T09:02:35.447Z</time>
      </trkpt>
      <trkpt lat="43.54735" lon="3.89725">
        <ele>-5.3</ele>
        <time>2017-10-27T09:02:36.446Z</time>
      </trkpt>
      <trkpt lat="43.54739" lon="3.89725">
        <ele>-5.3</ele>
        <time>2017-10-27T09:02:37.446Z</time>
      </trkpt>
      <trkpt lat="43.54742" lon="3.89725">
        <ele>-5.2</ele>
        <time>2017-10-27T09:02:38.445Z</time>
      </trkpt>
      <trkpt lat="43.54746" lon="3.89725">
        <ele>-5.2</ele>
        <time>2017-10-27T09:02:39.444Z</time>
      </trkpt>
      <trkpt lat="43.54749" lon="3.89725">
        <ele>-5.2</ele>
        <time>2017-10-27T09:02:40.446Z</time>
      </trkpt>
      <trkpt lat="43.54753" lon="3.89725">
        <ele>-5.2</ele>
        <time>2017-10-27T09:02:41.447Z</time>
      </trkpt>
      <trkpt lat="43.54756" lon="3.89725">
        <ele>-5.2</ele>
        <time>2017-10-27T09:02:42.446Z</time>
      </trkpt>
      <trkpt lat="43.5476" lon="3.89724">
        <ele>-5.1</ele>
        <time>2017-10-27T09:02:43.453Z</time>
      </trkpt>
      <trkpt lat="43.54763" lon="3.89723">
        <ele>-5</ele>
        <time>2017-10-27T09:02:44.446Z</time>
      </trkpt>
      <trkpt lat="43.54766" lon="3.89722">
        <ele>-4.9</ele>
        <time>2017-10-27T09:02:45.446Z</time>
      </trkpt>
      <trkpt lat="43.54769" lon="3.89721">
        <ele>-4.8</ele>
        <time>2017-10-27T09:02:46.432Z</time>
      </trkpt>
      <trkpt lat="43.54772" lon="3.8972">
        <ele>-4.8</ele>
        <time>2017-10-27T09:02:47.432Z</time>
      </trkpt>
      <trkpt lat="43.54775" lon="3.8972">
        <ele>-4.8</ele>
        <time>2017-10-27T09:02:48.433Z</time>
      </trkpt>
      <trkpt lat="43.54778" lon="3.8972">
        <ele>-4.8</ele>
        <time>2017-10-27T09:02:49.445Z</time>
      </trkpt>
      <trkpt lat="43.54781" lon="3.8972">
        <ele>-4.7</ele>
        <time>2017-10-27T09:02:50.449Z</time>
      </trkpt>
      <trkpt lat="43.54784" lon="3.89721">
        <ele>-5</ele>
        <time>2017-10-27T09:02:51.446Z</time>
      </trkpt>
      <trkpt lat="43.54787" lon="3.89721">
        <ele>-4.9</ele>
        <time>2017-10-27T09:02:52.444Z</time>
      </trkpt>
      <trkpt lat="43.5479" lon="3.89721">
        <ele>-5</ele>
        <time>2017-10-27T09:02:53.448Z</time>
      </trkpt>
      <trkpt lat="43.54793" lon="3.89721">
        <ele>-5</ele>
        <time>2017-10-27T09:02:54.454Z</time>
      </trkpt>
      <trkpt lat="43.54797" lon="3.89721">
        <ele>-5</ele>
        <time>2017-10-27T09:02:55.432Z</time>
      </trkpt>
      <trkpt lat="43.548" lon="3.89721">
        <ele>-5.1</ele>
        <time>2017-10-27T09:02:56.431Z</time>
      </trkpt>
      <trkpt lat="43.54803" lon="3.89722">
        <ele>-5</ele>
        <time>2017-10-27T09:02:57.431Z</time>
      </trkpt>
      <trkpt lat="43.54806" lon="3.89722">
        <ele>-5.1</ele>
        <time>2017-10-27T09:02:58.452Z</time>
      </trkpt>
      <trkpt lat="43.5481" lon="3.89722">
        <ele>-4.7</ele>
        <time>2017-10-27T09:02:59.458Z</time>
      </trkpt>
      <trkpt lat="43.54813" lon="3.89722">
        <ele>-4.9</ele>
        <time>2017-10-27T09:03:00.446Z</time>
      </trkpt>
      <trkpt lat="43.54816" lon="3.89722">
        <ele>-4.9</ele>
        <time>2017-10-27T09:03:01.463Z</time>
      </trkpt>
      <trkpt lat="43.5482" lon="3.89723">
        <ele>-4.8</ele>
        <time>2017-10-27T09:03:02.449Z</time>
      </trkpt>
      <trkpt lat="43.54823" lon="3.89723">
        <ele>-4.8</ele>
        <time>2017-10-27T09:03:03.451Z</time>
      </trkpt>
      <trkpt lat="43.54826" lon="3.89723">
        <ele>-4.8</ele>
        <time>2017-10-27T09:03:04.448Z</time>
      </trkpt>
      <trkpt lat="43.54829" lon="3.89723">
        <ele>-4.9</ele>
        <time>2017-10-27T09:03:05.447Z</time>
      </trkpt>
      <trkpt lat="43.54832" lon="3.89724">
        <ele>-5</ele>
        <time>2017-10-27T09:03:06.448Z</time>
      </trkpt>
      <trkpt lat="43.54835" lon="3.89724">
        <ele>-5</ele>
        <time>2017-10-27T09:03:07.446Z</time>
      </trkpt>
      <trkpt lat="43.54839" lon="3.89725">
        <ele>-5</ele>
        <time>2017-10-27T09:03:08.448Z</time>
      </trkpt>
      <trkpt lat="43.54842" lon="3.89725">
        <ele>-5</ele>
        <time>2017-10-27T09:03:09.446Z</time>
      </trkpt>
      <trkpt lat="43.54845" lon="3.89725">
        <ele>-5</ele>
        <time>2017-10-27T09:03:10.433Z</time>
      </trkpt>
      <trkpt lat="43.54848" lon="3.89726">
        <ele>-5</ele>
        <time>2017-10-27T09:03:11.431Z</time>
      </trkpt>
      <trkpt lat="43.54851" lon="3.89726">
        <ele>-5</ele>
        <time>2017-10-27T09:03:12.435Z</time>
      </trkpt>
      <trkpt lat="43.54854" lon="3.89727">
        <ele>-5.1</ele>
        <time>2017-10-27T09:03:13.442Z</time>
      </trkpt>
      <trkpt lat="43.54857" lon="3.89727">
        <ele>-5.1</ele>
        <time>2017-10-27T09:03:14.445Z</time>
      </trkpt>
      <trkpt lat="43.5486" lon="3.89727">
        <ele>-5.1</ele>
        <time>2017-10-27T09:03:15.447Z</time>
      </trkpt>
      <trkpt lat="43.54863" lon="3.89728">
        <ele>-5.1</ele>
        <time>2017-10-27T09:03:16.447Z</time>
      </trkpt>
      <trkpt lat="43.54866" lon="3.89728">
        <ele>-5.1</ele>
        <time>2017-10-27T09:03:17.453Z</time>
      </trkpt>
      <trkpt lat="43.54869" lon="3.89728">
        <ele>-5.2</ele>
        <time>2017-10-27T09:03:18.446Z</time>
      </trkpt>
      <trkpt lat="43.54872" lon="3.89729">
        <ele>-5.2</ele>
        <time>2017-10-27T09:03:19.446Z</time>
      </trkpt>
      <trkpt lat="43.54876" lon="3.89729">
        <ele>-5.3</ele>
        <time>2017-10-27T09:03:20.446Z</time>
      </trkpt>
      <trkpt lat="43.54879" lon="3.8973">
        <ele>-5.3</ele>
        <time>2017-10-27T09:03:21.445Z</time>
      </trkpt>
      <trkpt lat="43.54882" lon="3.8973">
        <ele>-5.3</ele>
        <time>2017-10-27T09:03:22.444Z</time>
      </trkpt>
      <trkpt lat="43.54885" lon="3.89731">
        <ele>-5.5</ele>
        <time>2017-10-27T09:03:23.448Z</time>
      </trkpt>
      <trkpt lat="43.54888" lon="3.89731">
        <ele>-5.5</ele>
        <time>2017-10-27T09:03:24.446Z</time>
      </trkpt>
      <trkpt lat="43.54892" lon="3.89732">
        <ele>-5.5</ele>
        <time>2017-10-27T09:03:25.447Z</time>
      </trkpt>
      <trkpt lat="43.54895" lon="3.89732">
        <ele>-5.6</ele>
        <time>2017-10-27T09:03:26.446Z</time>
      </trkpt>
      <trkpt lat="43.54898" lon="3.89733">
        <ele>-5.6</ele>
        <time>2017-10-27T09:03:27.446Z</time>
      </trkpt>
      <trkpt lat="43.54902" lon="3.89733">
        <ele>-5.6</ele>
        <time>2017-10-27T09:03:28.444Z</time>
      </trkpt>
      <trkpt lat="43.54905" lon="3.89734">
        <ele>-5.6</ele>
        <time>2017-10-27T09:03:29.441Z</time>
      </trkpt>
      <trkpt lat="43.54908" lon="3.89735">
        <ele>-5.7</ele>
        <time>2017-10-27T09:03:30.433Z</time>
      </trkpt>
      <trkpt lat="43.54912" lon="3.89735">
        <ele>-5.6</ele>
        <time>2017-10-27T09:03:31.431Z</time>
      </trkpt>
      <trkpt lat="43.54915" lon="3.89736">
        <ele>-5.7</ele>
        <time>2017-10-27T09:03:32.445Z</time>
      </trkpt>
      <trkpt lat="43.54919" lon="3.89736">
        <ele>-5.7</ele>
        <time>2017-10-27T09:03:33.456Z</time>
      </trkpt>
      <trkpt lat="43.54922" lon="3.89737">
        <ele>-5.8</ele>
        <time>2017-10-27T09:03:34.448Z</time>
      </trkpt>
      <trkpt lat="43.54926" lon="3.89737">
        <ele>-5.8</ele>
        <time>2017-10-27T09:03:35.448Z</time>
      </trkpt>
      <trkpt lat="43.54929" lon="3.89738">
        <ele>-5.8</ele>
        <time>2017-10-27T09:03:36.448Z</time>
      </trkpt>
      <trkpt lat="43.54933" lon="3.89739">
        <ele>-5.8</ele>
        <time>2017-10-27T09:03:37.445Z</time>
      </trkpt>
      <trkpt lat="43.54937" lon="3.89739">
        <ele>-5.8</ele>
        <time>2017-10-27T09:03:38.445Z</time>
      </trkpt>
      <trkpt lat="43.5494" lon="3.8974">
        <ele>-5.8</ele>
        <time>2017-10-27T09:03:39.446Z</time>
      </trkpt>
      <trkpt lat="43.54944" lon="3.8974">
        <ele>-5.8</ele>
        <time>2017-10-27T09:03:40.446Z</time>
      </trkpt>
      <trkpt lat="43.54948" lon="3.89741">
        <ele>-5.8</ele>
        <time>2017-10-27T09:03:41.446Z</time>
      </trkpt>
      <trkpt lat="43.54951" lon="3.89741">
        <ele>-5.7</ele>
        <time>2017-10-27T09:03:42.448Z</time>
      </trkpt>
      <trkpt lat="43.54955" lon="3.89742">
        <ele>-5.7</ele>
        <time>2017-10-27T09:03:43.445Z</time>
      </trkpt>
      <trkpt lat="43.54959" lon="3.89743">
        <ele>-5.7</ele>
        <time>2017-10-27T09:03:44.445Z</time>
      </trkpt>
      <trkpt lat="43.54963" lon="3.89744">
        <ele>-5.7</ele>
        <time>2017-10-27T09:03:45.445Z</time>
      </trkpt>
      <trkpt lat="43.54966" lon="3.89745">
        <ele>-5.7</ele>
        <time>2017-10-27T09:03:46.445Z</time>
      </trkpt>
      <trkpt lat="43.5497" lon="3.89745">
        <ele>-5.7</ele>
        <time>2017-10-27T09:03:47.446Z</time>
      </trkpt>
      <trkpt lat="43.54974" lon="3.89746">
        <ele>-5.7</ele>
        <time>2017-10-27T09:03:48.443Z</time>
      </trkpt>
      <trkpt lat="43.54977" lon="3.89747">
        <ele>-5.8</ele>
        <time>2017-10-27T09:03:49.445Z</time>
      </trkpt>
      <trkpt lat="43.54981" lon="3.89747">
        <ele>-5.8</ele>
        <time>2017-10-27T09:03:50.432Z</time>
      </trkpt>
      <trkpt lat="43.54985" lon="3.89748">
        <ele>-5.9</ele>
        <time>2017-10-27T09:03:51.437Z</time>
      </trkpt>
      <trkpt lat="43.54988" lon="3.89749">
        <ele>-5.8</ele>
        <time>2017-10-27T09:03:52.431Z</time>
      </trkpt>
      <trkpt lat="43.54992" lon="3.8975">
        <ele>-5.7</ele>
        <time>2017-10-27T09:03:53.431Z</time>
      </trkpt>
      <trkpt lat="43.54995" lon="3.89751">
        <ele>-5.7</ele>
        <time>2017-10-27T09:03:54.451Z</time>
      </trkpt>
      <trkpt lat="43.54999" lon="3.89752">
        <ele>-5.6</ele>
        <time>2017-10-27T09:03:55.450Z</time>
      </trkpt>
      <trkpt lat="43.55002" lon="3.89752">
        <ele>-5.6</ele>
        <time>2017-10-27T09:03:56.450Z</time>
      </trkpt>
      <trkpt lat="43.55006" lon="3.89753">
        <ele>-5.7</ele>
        <time>2017-10-27T09:03:57.439Z</time>
      </trkpt>
      <trkpt lat="43.55009" lon="3.89754">
        <ele>-5.8</ele>
        <time>2017-10-27T09:03:58.449Z</time>
      </trkpt>
      <trkpt lat="43.55012" lon="3.89755">
        <ele>-5.9</ele>
        <time>2017-10-27T09:03:59.446Z</time>
      </trkpt>
      <trkpt lat="43.55016" lon="3.89756">
        <ele>-5.9</ele>
        <time>2017-10-27T09:04:00.446Z</time>
      </trkpt>
      <trkpt lat="43.55019" lon="3.89757">
        <ele>-5.9</ele>
        <time>2017-10-27T09:04:01.449Z</time>
      </trkpt>
      <trkpt lat="43.55023" lon="3.89758">
        <ele>-6</ele>
        <time>2017-10-27T09:04:02.446Z</time>
      </trkpt>
      <trkpt lat="43.55027" lon="3.89759">
        <ele>-6</ele>
        <time>2017-10-27T09:04:03.445Z</time>
      </trkpt>
      <trkpt lat="43.5503" lon="3.8976">
        <ele>-6</ele>
        <time>2017-10-27T09:04:04.444Z</time>
      </trkpt>
      <trkpt lat="43.55034" lon="3.89761">
        <ele>-5.9</ele>
        <time>2017-10-27T09:04:05.445Z</time>
      </trkpt>
      <trkpt lat="43.55038" lon="3.89762">
        <ele>-5.9</ele>
        <time>2017-10-27T09:04:06.433Z</time>
      </trkpt>
      <trkpt lat="43.55041" lon="3.89763">
        <ele>-6</ele>
        <time>2017-10-27T09:04:07.432Z</time>
      </trkpt>
      <trkpt lat="43.55045" lon="3.89764">
        <ele>-6</ele>
        <time>2017-10-27T09:04:08.431Z</time>
      </trkpt>
      <trkpt lat="43.55048" lon="3.89765">
        <ele>-6</ele>
        <time>2017-10-27T09:04:09.445Z</time>
      </trkpt>
      <trkpt lat="43.55052" lon="3.89766">
        <ele>-6</ele>
        <time>2017-10-27T09:04:10.447Z</time>
      </trkpt>
      <trkpt lat="43.55055" lon="3.89767">
        <ele>-6</ele>
        <time>2017-10-27T09:04:11.450Z</time>
      </trkpt>
      <trkpt lat="43.55059" lon="3.89768">
        <ele>-6</ele>
        <time>2017-10-27T09:04:12.454Z</time>
      </trkpt>
      <trkpt lat="43.55062" lon="3.89769">
        <ele>-5.9</ele>
        <time>2017-10-27T09:04:13.445Z</time>
      </trkpt>
      <trkpt lat="43.55065" lon="3.8977">
        <ele>-5.9</ele>
        <time>2017-10-27T09:04:14.448Z</time>
      </trkpt>
      <trkpt lat="43.55068" lon="3.89771">
        <ele>-5.9</ele>
        <time>2017-10-27T09:04:15.445Z</time>
      </trkpt>
      <trkpt lat="43.55072" lon="3.89771">
        <ele>-5.9</ele>
        <time>2017-10-27T09:04:16.447Z</time>
      </trkpt>
      <trkpt lat="43.55075" lon="3.89772">
        <ele>-5.9</ele>
        <time>2017-10-27T09:04:17.445Z</time>
      </trkpt>
      <trkpt lat="43.55078" lon="3.89773">
        <ele>-5.8</ele>
        <time>2017-10-27T09:04:18.448Z</time>
      </trkpt>
      <trkpt lat="43.55081" lon="3.89773">
        <ele>-5.8</ele>
        <time>2017-10-27T09:04:19.445Z</time>
      </trkpt>
      <trkpt lat="43.55084" lon="3.89774">
        <ele>-5.8</ele>
        <time>2017-10-27T09:04:20.450Z</time>
      </trkpt>
      <trkpt lat="43.55086" lon="3.89775">
        <ele>-5.7</ele>
        <time>2017-10-27T09:04:21.446Z</time>
      </trkpt>
      <trkpt lat="43.55088" lon="3.89775">
        <ele>-5.7</ele>
        <time>2017-10-27T09:04:22.445Z</time>
      </trkpt>
      <trkpt lat="43.55091" lon="3.89776">
        <ele>-5.6</ele>
        <time>2017-10-27T09:04:23.449Z</time>
      </trkpt>
      <trkpt lat="43.55093" lon="3.89776">
        <ele>-5.6</ele>
        <time>2017-10-27T09:04:24.437Z</time>
      </trkpt>
      <trkpt lat="43.55096" lon="3.89777">
        <ele>-5.5</ele>
        <time>2017-10-27T09:04:25.433Z</time>
      </trkpt>
      <trkpt lat="43.55099" lon="3.89777">
        <ele>-5.5</ele>
        <time>2017-10-27T09:04:26.431Z</time>
      </trkpt>
      <trkpt lat="43.55102" lon="3.89777">
        <ele>-5.4</ele>
        <time>2017-10-27T09:04:27.449Z</time>
      </trkpt>
      <trkpt lat="43.55105" lon="3.89778">
        <ele>-5.2</ele>
        <time>2017-10-27T09:04:28.447Z</time>
      </trkpt>
      <trkpt lat="43.55108" lon="3.89779">
        <ele>-5</ele>
        <time>2017-10-27T09:04:29.447Z</time>
      </trkpt>
      <trkpt lat="43.5511" lon="3.8978">
        <ele>-4.7</ele>
        <time>2017-10-27T09:04:30.457Z</time>
      </trkpt>
      <trkpt lat="43.55113" lon="3.89782">
        <ele>-4.6</ele>
        <time>2017-10-27T09:04:31.446Z</time>
      </trkpt>
      <trkpt lat="43.55116" lon="3.89783">
        <ele>-4.5</ele>
        <time>2017-10-27T09:04:32.453Z</time>
      </trkpt>
      <trkpt lat="43.55118" lon="3.89784">
        <ele>-4.5</ele>
        <time>2017-10-27T09:04:33.432Z</time>
      </trkpt>
      <trkpt lat="43.55121" lon="3.89785">
        <ele>-4.4</ele>
        <time>2017-10-27T09:04:34.445Z</time>
      </trkpt>
      <trkpt lat="43.55124" lon="3.89786">
        <ele>-4.5</ele>
        <time>2017-10-27T09:04:35.436Z</time>
      </trkpt>
      <trkpt lat="43.55126" lon="3.89787">
        <ele>-4.5</ele>
        <time>2017-10-27T09:04:36.428Z</time>
      </trkpt>
      <trkpt lat="43.55129" lon="3.89788">
        <ele>-4.5</ele>
        <time>2017-10-27T09:04:37.445Z</time>
      </trkpt>
      <trkpt lat="43.55131" lon="3.89788">
        <ele>-4.6</ele>
        <time>2017-10-27T09:04:38.432Z</time>
      </trkpt>
      <trkpt lat="43.55133" lon="3.89789">
        <ele>-4.6</ele>
        <time>2017-10-27T09:04:39.437Z</time>
      </trkpt>
      <trkpt lat="43.55136" lon="3.89789">
        <ele>-4.6</ele>
        <time>2017-10-27T09:04:40.432Z</time>
      </trkpt>
      <trkpt lat="43.55139" lon="3.8979">
        <ele>-4.6</ele>
        <time>2017-10-27T09:04:41.456Z</time>
      </trkpt>
      <trkpt lat="43.55142" lon="3.89791">
        <ele>-4.6</ele>
        <time>2017-10-27T09:04:42.457Z</time>
      </trkpt>
      <trkpt lat="43.55145" lon="3.89793">
        <ele>-4.6</ele>
        <time>2017-10-27T09:04:43.445Z</time>
      </trkpt>
      <trkpt lat="43.55148" lon="3.89795">
        <ele>-4.6</ele>
        <time>2017-10-27T09:04:44.445Z</time>
      </trkpt>
      <trkpt lat="43.55152" lon="3.89796">
        <ele>-4.6</ele>
        <time>2017-10-27T09:04:45.432Z</time>
      </trkpt>
      <trkpt lat="43.55155" lon="3.89797">
        <ele>-4.7</ele>
        <time>2017-10-27T09:04:46.432Z</time>
      </trkpt>
      <trkpt lat="43.55159" lon="3.89798">
        <ele>-4.7</ele>
        <time>2017-10-27T09:04:47.431Z</time>
      </trkpt>
      <trkpt lat="43.55162" lon="3.898">
        <ele>-4.6</ele>
        <time>2017-10-27T09:04:48.445Z</time>
      </trkpt>
      <trkpt lat="43.55165" lon="3.89801">
        <ele>-4.4</ele>
        <time>2017-10-27T09:04:49.445Z</time>
      </trkpt>
      <trkpt lat="43.55168" lon="3.89802">
        <ele>-4.3</ele>
        <time>2017-10-27T09:04:50.438Z</time>
      </trkpt>
      <trkpt lat="43.55171" lon="3.89803">
        <ele>-4.1</ele>
        <time>2017-10-27T09:04:51.448Z</time>
      </trkpt>
      <trkpt lat="43.55173" lon="3.89804">
        <ele>-4</ele>
        <time>2017-10-27T09:04:52.445Z</time>
      </trkpt>
      <trkpt lat="43.55176" lon="3.89805">
        <ele>-3.9</ele>
        <time>2017-10-27T09:04:53.454Z</time>
      </trkpt>
      <trkpt lat="43.55178" lon="3.89805">
        <ele>-3.7</ele>
        <time>2017-10-27T09:04:54.435Z</time>
      </trkpt>
      <trkpt lat="43.55181" lon="3.89805">
        <ele>-3.5</ele>
        <time>2017-10-27T09:04:55.446Z</time>
      </trkpt>
      <trkpt lat="43.55182" lon="3.89803">
        <ele>-3.7</ele>
        <time>2017-10-27T09:04:56.454Z</time>
      </trkpt>
      <trkpt lat="43.55183" lon="3.898">
        <ele>-3.8</ele>
        <time>2017-10-27T09:04:57.431Z</time>
      </trkpt>
      <trkpt lat="43.55183" lon="3.89797">
        <ele>-4</ele>
        <time>2017-10-27T09:04:58.449Z</time>
      </trkpt>
      <trkpt lat="43.55182" lon="3.89793">
        <ele>-4.1</ele>
        <time>2017-10-27T09:04:59.449Z</time>
      </trkpt>
      <trkpt lat="43.55182" lon="3.89789">
        <ele>-4.2</ele>
        <time>2017-10-27T09:05:00.449Z</time>
      </trkpt>
      <trkpt lat="43.55182" lon="3.89785">
        <ele>-4.2</ele>
        <time>2017-10-27T09:05:01.449Z</time>
      </trkpt>
      <trkpt lat="43.55181" lon="3.89781">
        <ele>-4.1</ele>
        <time>2017-10-27T09:05:02.446Z</time>
      </trkpt>
      <trkpt lat="43.55181" lon="3.89777">
        <ele>-4.2</ele>
        <time>2017-10-27T09:05:03.437Z</time>
      </trkpt>
      <trkpt lat="43.5518" lon="3.89773">
        <ele>-4.2</ele>
        <time>2017-10-27T09:05:04.445Z</time>
      </trkpt>
      <trkpt lat="43.5518" lon="3.89769">
        <ele>-4.2</ele>
        <time>2017-10-27T09:05:05.432Z</time>
      </trkpt>
      <trkpt lat="43.55179" lon="3.89765">
        <ele>-4.2</ele>
        <time>2017-10-27T09:05:06.435Z</time>
      </trkpt>
      <trkpt lat="43.55179" lon="3.89761">
        <ele>-4.1</ele>
        <time>2017-10-27T09:05:07.432Z</time>
      </trkpt>
      <trkpt lat="43.55178" lon="3.89757">
        <ele>-4.1</ele>
        <time>2017-10-27T09:05:08.459Z</time>
      </trkpt>
      <trkpt lat="43.55178" lon="3.89753">
        <ele>-4.1</ele>
        <time>2017-10-27T09:05:09.448Z</time>
      </trkpt>
      <trkpt lat="43.55178" lon="3.89748">
        <ele>-4.1</ele>
        <time>2017-10-27T09:05:10.448Z</time>
      </trkpt>
      <trkpt lat="43.55177" lon="3.89744">
        <ele>-4.1</ele>
        <time>2017-10-27T09:05:11.450Z</time>
      </trkpt>
      <trkpt lat="43.55177" lon="3.8974">
        <ele>-4</ele>
        <time>2017-10-27T09:05:12.447Z</time>
      </trkpt>
      <trkpt lat="43.55176" lon="3.89736">
        <ele>-4</ele>
        <time>2017-10-27T09:05:13.448Z</time>
      </trkpt>
      <trkpt lat="43.55176" lon="3.89732">
        <ele>-4</ele>
        <time>2017-10-27T09:05:14.450Z</time>
      </trkpt>
      <trkpt lat="43.55176" lon="3.89728">
        <ele>-4</ele>
        <time>2017-10-27T09:05:15.449Z</time>
      </trkpt>
      <trkpt lat="43.55175" lon="3.89724">
        <ele>-4</ele>
        <time>2017-10-27T09:05:16.447Z</time>
      </trkpt>
      <trkpt lat="43.55175" lon="3.8972">
        <ele>-4</ele>
        <time>2017-10-27T09:05:17.432Z</time>
      </trkpt>
      <trkpt lat="43.55174" lon="3.89716">
        <ele>-4</ele>
        <time>2017-10-27T09:05:18.435Z</time>
      </trkpt>
      <trkpt lat="43.55174" lon="3.89711">
        <ele>-4</ele>
        <time>2017-10-27T09:05:19.432Z</time>
      </trkpt>
      <trkpt lat="43.55173" lon="3.89707">
        <ele>-4</ele>
        <time>2017-10-27T09:05:20.444Z</time>
      </trkpt>
      <trkpt lat="43.55172" lon="3.89702">
        <ele>-4</ele>
        <time>2017-10-27T09:05:21.443Z</time>
      </trkpt>
      <trkpt lat="43.55172" lon="3.89697">
        <ele>-3.9</ele>
        <time>2017-10-27T09:05:22.453Z</time>
      </trkpt>
      <trkpt lat="43.55171" lon="3.89693">
        <ele>-3.9</ele>
        <time>2017-10-27T09:05:23.447Z</time>
      </trkpt>
      <trkpt lat="43.55171" lon="3.89688">
        <ele>-3.9</ele>
        <time>2017-10-27T09:05:24.435Z</time>
      </trkpt>
      <trkpt lat="43.55172" lon="3.89684">
        <ele>-3.7</ele>
        <time>2017-10-27T09:05:25.432Z</time>
      </trkpt>
      <trkpt lat="43.55173" lon="3.89681">
        <ele>-3.6</ele>
        <time>2017-10-27T09:05:26.431Z</time>
      </trkpt>
      <trkpt lat="43.55175" lon="3.89678">
        <ele>-3.5</ele>
        <time>2017-10-27T09:05:27.432Z</time>
      </trkpt>
      <trkpt lat="43.55178" lon="3.89677">
        <ele>-3.5</ele>
        <time>2017-10-27T09:05:28.450Z</time>
      </trkpt>
      <trkpt lat="43.5518" lon="3.89676">
        <ele>-3.4</ele>
        <time>2017-10-27T09:05:29.445Z</time>
      </trkpt>
      <trkpt lat="43.55182" lon="3.89675">
        <ele>-3.3</ele>
        <time>2017-10-27T09:05:30.448Z</time>
      </trkpt>
      <trkpt lat="43.55185" lon="3.89675">
        <ele>-3.2</ele>
        <time>2017-10-27T09:05:31.457Z</time>
      </trkpt>
      <trkpt lat="43.55188" lon="3.89676">
        <ele>-3.3</ele>
        <time>2017-10-27T09:05:32.432Z</time>
      </trkpt>
      <trkpt lat="43.5519" lon="3.89676">
        <ele>-3.3</ele>
        <time>2017-10-27T09:05:33.453Z</time>
      </trkpt>
      <trkpt lat="43.55193" lon="3.89677">
        <ele>-3.3</ele>
        <time>2017-10-27T09:05:34.446Z</time>
      </trkpt>
      <trkpt lat="43.55196" lon="3.89677">
        <ele>-3.3</ele>
        <time>2017-10-27T09:05:35.446Z</time>
      </trkpt>
      <trkpt lat="43.55199" lon="3.89678">
        <ele>-3.3</ele>
        <time>2017-10-27T09:05:36.446Z</time>
      </trkpt>
      <trkpt lat="43.55202" lon="3.89678">
        <ele>-3.3</ele>
        <time>2017-10-27T09:05:37.445Z</time>
      </trkpt>
      <trkpt lat="43.55205" lon="3.89679">
        <ele>-3.3</ele>
        <time>2017-10-27T09:05:38.446Z</time>
      </trkpt>
      <trkpt lat="43.55208" lon="3.8968">
        <ele>-3.3</ele>
        <time>2017-10-27T09:05:39.447Z</time>
      </trkpt>
      <trkpt lat="43.55211" lon="3.8968">
        <ele>-3.3</ele>
        <time>2017-10-27T09:05:40.445Z</time>
      </trkpt>
      <trkpt lat="43.55214" lon="3.8968">
        <ele>-3.3</ele>
        <time>2017-10-27T09:05:41.445Z</time>
      </trkpt>
      <trkpt lat="43.55217" lon="3.89681">
        <ele>-3.3</ele>
        <time>2017-10-27T09:05:42.449Z</time>
      </trkpt>
      <trkpt lat="43.5522" lon="3.89682">
        <ele>-3.3</ele>
        <time>2017-10-27T09:05:43.431Z</time>
      </trkpt>
      <trkpt lat="43.55223" lon="3.89682">
        <ele>-3.3</ele>
        <time>2017-10-27T09:05:44.447Z</time>
      </trkpt>
      <trkpt lat="43.55225" lon="3.89683">
        <ele>-3.3</ele>
        <time>2017-10-27T09:05:45.439Z</time>
      </trkpt>
      <trkpt lat="43.55228" lon="3.89684">
        <ele>-3.2</ele>
        <time>2017-10-27T09:05:46.428Z</time>
      </trkpt>
      <trkpt lat="43.55231" lon="3.89684">
        <ele>-3.2</ele>
        <time>2017-10-27T09:05:47.428Z</time>
      </trkpt>
      <trkpt lat="43.55234" lon="3.89685">
        <ele>-3.2</ele>
        <time>2017-10-27T09:05:48.429Z</time>
      </trkpt>
      <trkpt lat="43.55237" lon="3.89685">
        <ele>-3.1</ele>
        <time>2017-10-27T09:05:49.467Z</time>
      </trkpt>
      <trkpt lat="43.5524" lon="3.89686">
        <ele>-3.1</ele>
        <time>2017-10-27T09:05:50.435Z</time>
      </trkpt>
      <trkpt lat="43.55243" lon="3.89686">
        <ele>-3</ele>
        <time>2017-10-27T09:05:51.444Z</time>
      </trkpt>
      <trkpt lat="43.55246" lon="3.89687">
        <ele>-3</ele>
        <time>2017-10-27T09:05:52.436Z</time>
      </trkpt>
      <trkpt lat="43.55249" lon="3.89687">
        <ele>-3.1</ele>
        <time>2017-10-27T09:05:53.433Z</time>
      </trkpt>
      <trkpt lat="43.55252" lon="3.89688">
        <ele>-3.1</ele>
        <time>2017-10-27T09:05:54.438Z</time>
      </trkpt>
      <trkpt lat="43.55255" lon="3.89688">
        <ele>-3.2</ele>
        <time>2017-10-27T09:05:55.453Z</time>
      </trkpt>
      <trkpt lat="43.55258" lon="3.89689">
        <ele>-3.2</ele>
        <time>2017-10-27T09:05:56.455Z</time>
      </trkpt>
      <trkpt lat="43.5526" lon="3.8969">
        <ele>-3.2</ele>
        <time>2017-10-27T09:05:57.432Z</time>
      </trkpt>
      <trkpt lat="43.55262" lon="3.8969">
        <ele>-3.2</ele>
        <time>2017-10-27T09:05:58.447Z</time>
      </trkpt>
      <trkpt lat="43.55264" lon="3.89691">
        <ele>-3.2</ele>
        <time>2017-10-27T09:05:59.448Z</time>
      </trkpt>
      <trkpt lat="43.55266" lon="3.89691">
        <ele>-3.1</ele>
        <time>2017-10-27T09:06:00.447Z</time>
      </trkpt>
      <trkpt lat="43.55268" lon="3.89692">
        <ele>-3.2</ele>
        <time>2017-10-27T09:06:01.447Z</time>
      </trkpt>
      <trkpt lat="43.55269" lon="3.89693">
        <ele>-3.1</ele>
        <time>2017-10-27T09:06:02.452Z</time>
      </trkpt>
      <trkpt lat="43.55271" lon="3.89694">
        <ele>-3</ele>
        <time>2017-10-27T09:06:03.449Z</time>
      </trkpt>
      <trkpt lat="43.55272" lon="3.89695">
        <ele>-2.9</ele>
        <time>2017-10-27T09:06:04.446Z</time>
      </trkpt>
      <trkpt lat="43.55274" lon="3.89696">
        <ele>-2.8</ele>
        <time>2017-10-27T09:06:05.445Z</time>
      </trkpt>
      <trkpt lat="43.55275" lon="3.89697">
        <ele>-2.7</ele>
        <time>2017-10-27T09:06:06.446Z</time>
      </trkpt>
      <trkpt lat="43.55281" lon="3.89702">
        <ele>-3.4</ele>
        <time>2017-10-27T09:06:12.451Z</time>
      </trkpt>
      <trkpt lat="43.55283" lon="3.89704">
        <ele>-3.4</ele>
        <time>2017-10-27T09:06:13.445Z</time>
      </trkpt>
      <trkpt lat="43.55286" lon="3.89705">
        <ele>-3.4</ele>
        <time>2017-10-27T09:06:14.431Z</time>
      </trkpt>
      <trkpt lat="43.5529" lon="3.89705">
        <ele>-3.5</ele>
        <time>2017-10-27T09:06:15.434Z</time>
      </trkpt>
      <trkpt lat="43.55293" lon="3.89706">
        <ele>-3.2</ele>
        <time>2017-10-27T09:06:16.432Z</time>
      </trkpt>
      <trkpt lat="43.55297" lon="3.89707">
        <ele>-3.2</ele>
        <time>2017-10-27T09:06:17.433Z</time>
      </trkpt>
      <trkpt lat="43.55301" lon="3.89708">
        <ele>-3.2</ele>
        <time>2017-10-27T09:06:18.448Z</time>
      </trkpt>
      <trkpt lat="43.55304" lon="3.89708">
        <ele>-3.2</ele>
        <time>2017-10-27T09:06:19.452Z</time>
      </trkpt>
      <trkpt lat="43.55308" lon="3.89709">
        <ele>-3.2</ele>
        <time>2017-10-27T09:06:20.446Z</time>
      </trkpt>
      <trkpt lat="43.55312" lon="3.8971">
        <ele>-3.2</ele>
        <time>2017-10-27T09:06:21.445Z</time>
      </trkpt>
      <trkpt lat="43.55315" lon="3.8971">
        <ele>-3.2</ele>
        <time>2017-10-27T09:06:22.445Z</time>
      </trkpt>
      <trkpt lat="43.55319" lon="3.89711">
        <ele>-3.1</ele>
        <time>2017-10-27T09:06:23.449Z</time>
      </trkpt>
      <trkpt lat="43.55322" lon="3.89711">
        <ele>-3.1</ele>
        <time>2017-10-27T09:06:24.434Z</time>
      </trkpt>
      <trkpt lat="43.55326" lon="3.89712">
        <ele>-3.1</ele>
        <time>2017-10-27T09:06:25.438Z</time>
      </trkpt>
      <trkpt lat="43.5533" lon="3.89713">
        <ele>-3.1</ele>
        <time>2017-10-27T09:06:26.447Z</time>
      </trkpt>
      <trkpt lat="43.55334" lon="3.89714">
        <ele>-3.1</ele>
        <time>2017-10-27T09:06:27.447Z</time>
      </trkpt>
      <trkpt lat="43.55338" lon="3.89714">
        <ele>-3.1</ele>
        <time>2017-10-27T09:06:28.447Z</time>
      </trkpt>
      <trkpt lat="43.55342" lon="3.89715">
        <ele>-3.1</ele>
        <time>2017-10-27T09:06:29.446Z</time>
      </trkpt>
      <trkpt lat="43.55346" lon="3.89716">
        <ele>-3.1</ele>
        <time>2017-10-27T09:06:30.447Z</time>
      </trkpt>
      <trkpt lat="43.5535" lon="3.89717">
        <ele>-3.1</ele>
        <time>2017-10-27T09:06:31.447Z</time>
      </trkpt>
      <trkpt lat="43.55354" lon="3.89717">
        <ele>-3.1</ele>
        <time>2017-10-27T09:06:32.454Z</time>
      </trkpt>
      <trkpt lat="43.55358" lon="3.89718">
        <ele>-3.1</ele>
        <time>2017-10-27T09:06:33.449Z</time>
      </trkpt>
      <trkpt lat="43.55362" lon="3.89719">
        <ele>-3.1</ele>
        <time>2017-10-27T09:06:34.445Z</time>
      </trkpt>
      <trkpt lat="43.55366" lon="3.89719">
        <ele>-3.1</ele>
        <time>2017-10-27T09:06:35.455Z</time>
      </trkpt>
      <trkpt lat="43.5537" lon="3.8972">
        <ele>-3.1</ele>
        <time>2017-10-27T09:06:36.447Z</time>
      </trkpt>
      <trkpt lat="43.55374" lon="3.8972">
        <ele>-3.1</ele>
        <time>2017-10-27T09:06:37.455Z</time>
      </trkpt>
      <trkpt lat="43.55377" lon="3.89721">
        <ele>-3.1</ele>
        <time>2017-10-27T09:06:38.432Z</time>
      </trkpt>
      <trkpt lat="43.55381" lon="3.89722">
        <ele>-3.1</ele>
        <time>2017-10-27T09:06:39.432Z</time>
      </trkpt>
      <trkpt lat="43.55384" lon="3.89722">
        <ele>-3.1</ele>
        <time>2017-10-27T09:06:40.432Z</time>
      </trkpt>
      <trkpt lat="43.55387" lon="3.89722">
        <ele>-3.1</ele>
        <time>2017-10-27T09:06:41.452Z</time>
      </trkpt>
      <trkpt lat="43.55391" lon="3.89723">
        <ele>-3.3</ele>
        <time>2017-10-27T09:06:42.449Z</time>
      </trkpt>
      <trkpt lat="43.55395" lon="3.89723">
        <ele>-3.4</ele>
        <time>2017-10-27T09:06:43.451Z</time>
      </trkpt>
      <trkpt lat="43.55398" lon="3.89724">
        <ele>-3.4</ele>
        <time>2017-10-27T09:06:44.434Z</time>
      </trkpt>
      <trkpt lat="43.55402" lon="3.89724">
        <ele>-3.4</ele>
        <time>2017-10-27T09:06:45.446Z</time>
      </trkpt>
      <trkpt lat="43.55406" lon="3.89725">
        <ele>-3.3</ele>
        <time>2017-10-27T09:06:46.451Z</time>
      </trkpt>
      <trkpt lat="43.5541" lon="3.89725">
        <ele>-3.3</ele>
        <time>2017-10-27T09:06:47.462Z</time>
      </trkpt>
      <trkpt lat="43.55413" lon="3.89726">
        <ele>-3.3</ele>
        <time>2017-10-27T09:06:48.456Z</time>
      </trkpt>
      <trkpt lat="43.55417" lon="3.89726">
        <ele>-3.3</ele>
        <time>2017-10-27T09:06:49.464Z</time>
      </trkpt>
      <trkpt lat="43.55421" lon="3.89727">
        <ele>-3.3</ele>
        <time>2017-10-27T09:06:50.451Z</time>
      </trkpt>
      <trkpt lat="43.55424" lon="3.89727">
        <ele>-3.3</ele>
        <time>2017-10-27T09:06:51.445Z</time>
      </trkpt>
      <trkpt lat="43.55428" lon="3.89728">
        <ele>-3.3</ele>
        <time>2017-10-27T09:06:52.451Z</time>
      </trkpt>
      <trkpt lat="43.55432" lon="3.89729">
        <ele>-3.3</ele>
        <time>2017-10-27T09:06:53.446Z</time>
      </trkpt>
      <trkpt lat="43.55435" lon="3.89729">
        <ele>-3.3</ele>
        <time>2017-10-27T09:06:54.428Z</time>
      </trkpt>
      <trkpt lat="43.55439" lon="3.8973">
        <ele>-3.4</ele>
        <time>2017-10-27T09:06:55.446Z</time>
      </trkpt>
      <trkpt lat="43.55443" lon="3.8973">
        <ele>-3.5</ele>
        <time>2017-10-27T09:06:56.445Z</time>
      </trkpt>
      <trkpt lat="43.55446" lon="3.89731">
        <ele>-3.5</ele>
        <time>2017-10-27T09:06:57.432Z</time>
      </trkpt>
      <trkpt lat="43.5545" lon="3.89732">
        <ele>-3.5</ele>
        <time>2017-10-27T09:06:58.434Z</time>
      </trkpt>
      <trkpt lat="43.55454" lon="3.89732">
        <ele>-3.5</ele>
        <time>2017-10-27T09:06:59.432Z</time>
      </trkpt>
      <trkpt lat="43.55457" lon="3.89733">
        <ele>-3.5</ele>
        <time>2017-10-27T09:07:00.443Z</time>
      </trkpt>
      <trkpt lat="43.55461" lon="3.89733">
        <ele>-3.5</ele>
        <time>2017-10-27T09:07:01.446Z</time>
      </trkpt>
      <trkpt lat="43.55465" lon="3.89734">
        <ele>-3.4</ele>
        <time>2017-10-27T09:07:02.446Z</time>
      </trkpt>
      <trkpt lat="43.55468" lon="3.89734">
        <ele>-3.3</ele>
        <time>2017-10-27T09:07:03.446Z</time>
      </trkpt>
      <trkpt lat="43.55472" lon="3.89735">
        <ele>-3.3</ele>
        <time>2017-10-27T09:07:04.449Z</time>
      </trkpt>
      <trkpt lat="43.55475" lon="3.89735">
        <ele>-3.3</ele>
        <time>2017-10-27T09:07:05.448Z</time>
      </trkpt>
      <trkpt lat="43.55479" lon="3.89735">
        <ele>-3.3</ele>
        <time>2017-10-27T09:07:06.446Z</time>
      </trkpt>
      <trkpt lat="43.55482" lon="3.89736">
        <ele>-3.2</ele>
        <time>2017-10-27T09:07:07.440Z</time>
      </trkpt>
      <trkpt lat="43.55486" lon="3.89736">
        <ele>-3.3</ele>
        <time>2017-10-27T09:07:08.446Z</time>
      </trkpt>
      <trkpt lat="43.55489" lon="3.89737">
        <ele>-3.3</ele>
        <time>2017-10-27T09:07:09.448Z</time>
      </trkpt>
      <trkpt lat="43.55493" lon="3.89737">
        <ele>-3.2</ele>
        <time>2017-10-27T09:07:10.457Z</time>
      </trkpt>
      <trkpt lat="43.55496" lon="3.89737">
        <ele>-3.2</ele>
        <time>2017-10-27T09:07:11.446Z</time>
      </trkpt>
      <trkpt lat="43.555" lon="3.89738">
        <ele>-3.2</ele>
        <time>2017-10-27T09:07:12.447Z</time>
      </trkpt>
      <trkpt lat="43.55504" lon="3.89738">
        <ele>-3.1</ele>
        <time>2017-10-27T09:07:13.433Z</time>
      </trkpt>
      <trkpt lat="43.55507" lon="3.89739">
        <ele>-3.1</ele>
        <time>2017-10-27T09:07:14.432Z</time>
      </trkpt>
      <trkpt lat="43.55511" lon="3.89739">
        <ele>-3.1</ele>
        <time>2017-10-27T09:07:15.433Z</time>
      </trkpt>
      <trkpt lat="43.55514" lon="3.89739">
        <ele>-3.1</ele>
        <time>2017-10-27T09:07:16.434Z</time>
      </trkpt>
      <trkpt lat="43.55517" lon="3.8974">
        <ele>-3.1</ele>
        <time>2017-10-27T09:07:17.454Z</time>
      </trkpt>
      <trkpt lat="43.55521" lon="3.8974">
        <ele>-3.1</ele>
        <time>2017-10-27T09:07:18.455Z</time>
      </trkpt>
      <trkpt lat="43.55524" lon="3.8974">
        <ele>-3</ele>
        <time>2017-10-27T09:07:19.456Z</time>
      </trkpt>
      <trkpt lat="43.55527" lon="3.8974">
        <ele>-3.1</ele>
        <time>2017-10-27T09:07:20.446Z</time>
      </trkpt>
      <trkpt lat="43.55531" lon="3.8974">
        <ele>-3.1</ele>
        <time>2017-10-27T09:07:21.445Z</time>
      </trkpt>
      <trkpt lat="43.55534" lon="3.8974">
        <ele>-3.1</ele>
        <time>2017-10-27T09:07:22.444Z</time>
      </trkpt>
      <trkpt lat="43.55538" lon="3.8974">
        <ele>-3.2</ele>
        <time>2017-10-27T09:07:23.446Z</time>
      </trkpt>
      <trkpt lat="43.55541" lon="3.8974">
        <ele>-3.2</ele>
        <time>2017-10-27T09:07:24.445Z</time>
      </trkpt>
      <trkpt lat="43.55544" lon="3.89739">
        <ele>-3.1</ele>
        <time>2017-10-27T09:07:25.445Z</time>
      </trkpt>
      <trkpt lat="43.55548" lon="3.89739">
        <ele>-3.1</ele>
        <time>2017-10-27T09:07:26.458Z</time>
      </trkpt>
      <trkpt lat="43.55551" lon="3.89738">
        <ele>-3.1</ele>
        <time>2017-10-27T09:07:27.445Z</time>
      </trkpt>
      <trkpt lat="43.55554" lon="3.89738">
        <ele>-3</ele>
        <time>2017-10-27T09:07:28.451Z</time>
      </trkpt>
      <trkpt lat="43.55557" lon="3.89737">
        <ele>-3</ele>
        <time>2017-10-27T09:07:29.445Z</time>
      </trkpt>
      <trkpt lat="43.55561" lon="3.89736">
        <ele>-3.1</ele>
        <time>2017-10-27T09:07:30.452Z</time>
      </trkpt>
      <trkpt lat="43.55564" lon="3.89735">
        <ele>-3</ele>
        <time>2017-10-27T09:07:31.431Z</time>
      </trkpt>
      <trkpt lat="43.55568" lon="3.89735">
        <ele>-2.8</ele>
        <time>2017-10-27T09:07:32.431Z</time>
      </trkpt>
      <trkpt lat="43.55571" lon="3.89734">
        <ele>-2.7</ele>
        <time>2017-10-27T09:07:33.432Z</time>
      </trkpt>
      <trkpt lat="43.55574" lon="3.89733">
        <ele>-2.6</ele>
        <time>2017-10-27T09:07:34.445Z</time>
      </trkpt>
      <trkpt lat="43.55577" lon="3.89731">
        <ele>-2.7</ele>
        <time>2017-10-27T09:07:35.454Z</time>
      </trkpt>
      <trkpt lat="43.55581" lon="3.8973">
        <ele>-2.7</ele>
        <time>2017-10-27T09:07:36.447Z</time>
      </trkpt>
      <trkpt lat="43.55584" lon="3.89729">
        <ele>-2.8</ele>
        <time>2017-10-27T09:07:37.446Z</time>
      </trkpt>
      <trkpt lat="43.55587" lon="3.89728">
        <ele>-2.8</ele>
        <time>2017-10-27T09:07:38.448Z</time>
      </trkpt>
      <trkpt lat="43.5559" lon="3.89727">
        <ele>-2.8</ele>
        <time>2017-10-27T09:07:39.448Z</time>
      </trkpt>
      <trkpt lat="43.55593" lon="3.89725">
        <ele>-2.8</ele>
        <time>2017-10-27T09:07:40.445Z</time>
      </trkpt>
      <trkpt lat="43.55597" lon="3.89724">
        <ele>-2.8</ele>
        <time>2017-10-27T09:07:41.454Z</time>
      </trkpt>
      <trkpt lat="43.556" lon="3.89722">
        <ele>-2.8</ele>
        <time>2017-10-27T09:07:42.451Z</time>
      </trkpt>
      <trkpt lat="43.55603" lon="3.89721">
        <ele>-2.9</ele>
        <time>2017-10-27T09:07:43.445Z</time>
      </trkpt>
      <trkpt lat="43.55606" lon="3.8972">
        <ele>-2.9</ele>
        <time>2017-10-27T09:07:44.446Z</time>
      </trkpt>
      <trkpt lat="43.55609" lon="3.89718">
        <ele>-2.8</ele>
        <time>2017-10-27T09:07:45.448Z</time>
      </trkpt>
      <trkpt lat="43.55613" lon="3.89717">
        <ele>-2.9</ele>
        <time>2017-10-27T09:07:46.444Z</time>
      </trkpt>
      <trkpt lat="43.55616" lon="3.89715">
        <ele>-3</ele>
        <time>2017-10-27T09:07:47.445Z</time>
      </trkpt>
      <trkpt lat="43.55619" lon="3.89714">
        <ele>-2.9</ele>
        <time>2017-10-27T09:07:48.435Z</time>
      </trkpt>
      <trkpt lat="43.55622" lon="3.89713">
        <ele>-2.7</ele>
        <time>2017-10-27T09:07:49.431Z</time>
      </trkpt>
      <trkpt lat="43.55625" lon="3.89711">
        <ele>-2.6</ele>
        <time>2017-10-27T09:07:50.444Z</time>
      </trkpt>
      <trkpt lat="43.55629" lon="3.8971">
        <ele>-2.6</ele>
        <time>2017-10-27T09:07:51.468Z</time>
      </trkpt>
      <trkpt lat="43.55632" lon="3.89708">
        <ele>-2.7</ele>
        <time>2017-10-27T09:07:52.448Z</time>
      </trkpt>
      <trkpt lat="43.55635" lon="3.89706">
        <ele>-2.7</ele>
        <time>2017-10-27T09:07:53.458Z</time>
      </trkpt>
      <trkpt lat="43.55638" lon="3.89705">
        <ele>-2.6</ele>
        <time>2017-10-27T09:07:54.447Z</time>
      </trkpt>
      <trkpt lat="43.55642" lon="3.89703">
        <ele>-2.8</ele>
        <time>2017-10-27T09:07:55.454Z</time>
      </trkpt>
      <trkpt lat="43.55645" lon="3.89702">
        <ele>-2.7</ele>
        <time>2017-10-27T09:07:56.446Z</time>
      </trkpt>
      <trkpt lat="43.55648" lon="3.897">
        <ele>-2.7</ele>
        <time>2017-10-27T09:07:57.434Z</time>
      </trkpt>
      <trkpt lat="43.55651" lon="3.89698">
        <ele>-2.8</ele>
        <time>2017-10-27T09:07:58.455Z</time>
      </trkpt>
      <trkpt lat="43.55654" lon="3.89697">
        <ele>-2.8</ele>
        <time>2017-10-27T09:07:59.448Z</time>
      </trkpt>
      <trkpt lat="43.55657" lon="3.89695">
        <ele>-2.6</ele>
        <time>2017-10-27T09:08:00.446Z</time>
      </trkpt>
      <trkpt lat="43.5566" lon="3.89694">
        <ele>-2.5</ele>
        <time>2017-10-27T09:08:01.444Z</time>
      </trkpt>
      <trkpt lat="43.55663" lon="3.89692">
        <ele>-2.5</ele>
        <time>2017-10-27T09:08:02.450Z</time>
      </trkpt>
      <trkpt lat="43.55666" lon="3.8969">
        <ele>-2.4</ele>
        <time>2017-10-27T09:08:03.445Z</time>
      </trkpt>
      <trkpt lat="43.55669" lon="3.89688">
        <ele>-2.3</ele>
        <time>2017-10-27T09:08:04.446Z</time>
      </trkpt>
      <trkpt lat="43.55671" lon="3.89687">
        <ele>-2.3</ele>
        <time>2017-10-27T09:08:05.445Z</time>
      </trkpt>
      <trkpt lat="43.55673" lon="3.89686">
        <ele>-2.2</ele>
        <time>2017-10-27T09:08:06.446Z</time>
      </trkpt>
      <trkpt lat="43.55675" lon="3.89684">
        <ele>-2.2</ele>
        <time>2017-10-27T09:08:07.444Z</time>
      </trkpt>
      <trkpt lat="43.55677" lon="3.89683">
        <ele>-2.1</ele>
        <time>2017-10-27T09:08:08.442Z</time>
      </trkpt>
      <trkpt lat="43.55678" lon="3.89682">
        <ele>-2.1</ele>
        <time>2017-10-27T09:08:09.431Z</time>
      </trkpt>
      <trkpt lat="43.5568" lon="3.89681">
        <ele>-2</ele>
        <time>2017-10-27T09:08:10.432Z</time>
      </trkpt>
      <trkpt lat="43.55682" lon="3.8968">
        <ele>-1.9</ele>
        <time>2017-10-27T09:08:11.432Z</time>
      </trkpt>
      <trkpt lat="43.55683" lon="3.89678">
        <ele>-1.8</ele>
        <time>2017-10-27T09:08:12.450Z</time>
      </trkpt>
      <trkpt lat="43.55685" lon="3.89676">
        <ele>-1.9</ele>
        <time>2017-10-27T09:08:13.446Z</time>
      </trkpt>
      <trkpt lat="43.55687" lon="3.89674">
        <ele>-2</ele>
        <time>2017-10-27T09:08:14.445Z</time>
      </trkpt>
      <trkpt lat="43.55689" lon="3.89673">
        <ele>-2</ele>
        <time>2017-10-27T09:08:15.447Z</time>
      </trkpt>
      <trkpt lat="43.5569" lon="3.89671">
        <ele>-2</ele>
        <time>2017-10-27T09:08:16.446Z</time>
      </trkpt>
      <trkpt lat="43.55692" lon="3.8967">
        <ele>-2</ele>
        <time>2017-10-27T09:08:17.446Z</time>
      </trkpt>
      <trkpt lat="43.55693" lon="3.89669">
        <ele>-2</ele>
        <time>2017-10-27T09:08:18.448Z</time>
      </trkpt>
      <trkpt lat="43.55693" lon="3.89669">
        <ele>-2</ele>
        <time>2017-10-27T09:08:19.346Z</time>
      </trkpt>
      <trkpt lat="43.55697" lon="3.89665">
        <ele>-1.9</ele>
        <time>2017-10-27T09:08:28.445Z</time>
      </trkpt>
      <trkpt lat="43.55698" lon="3.89664">
        <ele>-1.9</ele>
        <time>2017-10-27T09:08:29.447Z</time>
      </trkpt>
      <trkpt lat="43.557" lon="3.89662">
        <ele>-1.8</ele>
        <time>2017-10-27T09:08:30.453Z</time>
      </trkpt>
      <trkpt lat="43.55701" lon="3.8966">
        <ele>-2</ele>
        <time>2017-10-27T09:08:31.447Z</time>
      </trkpt>
      <trkpt lat="43.55703" lon="3.89658">
        <ele>-2.2</ele>
        <time>2017-10-27T09:08:32.447Z</time>
      </trkpt>
      <trkpt lat="43.55705" lon="3.89655">
        <ele>-2.3</ele>
        <time>2017-10-27T09:08:33.445Z</time>
      </trkpt>
      <trkpt lat="43.55707" lon="3.89652">
        <ele>-2.1</ele>
        <time>2017-10-27T09:08:34.449Z</time>
      </trkpt>
      <trkpt lat="43.55709" lon="3.89649">
        <ele>-2.1</ele>
        <time>2017-10-27T09:08:35.434Z</time>
      </trkpt>
      <trkpt lat="43.55711" lon="3.89646">
        <ele>-2.1</ele>
        <time>2017-10-27T09:08:36.454Z</time>
      </trkpt>
      <trkpt lat="43.55713" lon="3.89643">
        <ele>-2</ele>
        <time>2017-10-27T09:08:37.454Z</time>
      </trkpt>
      <trkpt lat="43.55715" lon="3.8964">
        <ele>-2.1</ele>
        <time>2017-10-27T09:08:38.434Z</time>
      </trkpt>
      <trkpt lat="43.55717" lon="3.89638">
        <ele>-2.1</ele>
        <time>2017-10-27T09:08:39.446Z</time>
      </trkpt>
      <trkpt lat="43.55718" lon="3.89635">
        <ele>-2.2</ele>
        <time>2017-10-27T09:08:40.444Z</time>
      </trkpt>
      <trkpt lat="43.5572" lon="3.89632">
        <ele>-2.3</ele>
        <time>2017-10-27T09:08:41.453Z</time>
      </trkpt>
      <trkpt lat="43.55722" lon="3.89628">
        <ele>-2.3</ele>
        <time>2017-10-27T09:08:42.433Z</time>
      </trkpt>
      <trkpt lat="43.55723" lon="3.89625">
        <ele>-2.4</ele>
        <time>2017-10-27T09:08:43.432Z</time>
      </trkpt>
      <trkpt lat="43.55725" lon="3.89622">
        <ele>-2.5</ele>
        <time>2017-10-27T09:08:44.442Z</time>
      </trkpt>
      <trkpt lat="43.55727" lon="3.89619">
        <ele>-2.6</ele>
        <time>2017-10-27T09:08:45.458Z</time>
      </trkpt>
      <trkpt lat="43.55728" lon="3.89616">
        <ele>-2.7</ele>
        <time>2017-10-27T09:08:46.480Z</time>
      </trkpt>
      <trkpt lat="43.5573" lon="3.89613">
        <ele>-2.7</ele>
        <time>2017-10-27T09:08:47.456Z</time>
      </trkpt>
      <trkpt lat="43.55731" lon="3.8961">
        <ele>-2.8</ele>
        <time>2017-10-27T09:08:48.446Z</time>
      </trkpt>
      <trkpt lat="43.55733" lon="3.89607">
        <ele>-2.9</ele>
        <time>2017-10-27T09:08:49.460Z</time>
      </trkpt>
      <trkpt lat="43.55734" lon="3.89604">
        <ele>-3.2</ele>
        <time>2017-10-27T09:08:50.448Z</time>
      </trkpt>
      <trkpt lat="43.55736" lon="3.89601">
        <ele>-3.3</ele>
        <time>2017-10-27T09:08:51.448Z</time>
      </trkpt>
      <trkpt lat="43.55738" lon="3.89598">
        <ele>-3.4</ele>
        <time>2017-10-27T09:08:52.459Z</time>
      </trkpt>
      <trkpt lat="43.55739" lon="3.89594">
        <ele>-3.4</ele>
        <time>2017-10-27T09:08:53.445Z</time>
      </trkpt>
      <trkpt lat="43.55741" lon="3.89591">
        <ele>-3.4</ele>
        <time>2017-10-27T09:08:54.462Z</time>
      </trkpt>
      <trkpt lat="43.55743" lon="3.89588">
        <ele>-3.5</ele>
        <time>2017-10-27T09:08:55.445Z</time>
      </trkpt>
      <trkpt lat="43.55744" lon="3.89585">
        <ele>-3.6</ele>
        <time>2017-10-27T09:08:56.452Z</time>
      </trkpt>
      <trkpt lat="43.55746" lon="3.89582">
        <ele>-3.6</ele>
        <time>2017-10-27T09:08:57.441Z</time>
      </trkpt>
      <trkpt lat="43.55747" lon="3.89578">
        <ele>-3.6</ele>
        <time>2017-10-27T09:08:58.450Z</time>
      </trkpt>
      <trkpt lat="43.55749" lon="3.89575">
        <ele>-3.6</ele>
        <time>2017-10-27T09:08:59.444Z</time>
      </trkpt>
      <trkpt lat="43.5575" lon="3.89572">
        <ele>-3.7</ele>
        <time>2017-10-27T09:09:00.447Z</time>
      </trkpt>
      <trkpt lat="43.55751" lon="3.8957">
        <ele>-3.7</ele>
        <time>2017-10-27T09:09:01.444Z</time>
      </trkpt>
      <trkpt lat="43.55753" lon="3.89567">
        <ele>-3.8</ele>
        <time>2017-10-27T09:09:02.431Z</time>
      </trkpt>
      <trkpt lat="43.55754" lon="3.89564">
        <ele>-3.8</ele>
        <time>2017-10-27T09:09:03.435Z</time>
      </trkpt>
      <trkpt lat="43.55755" lon="3.89561">
        <ele>-3.8</ele>
        <time>2017-10-27T09:09:04.435Z</time>
      </trkpt>
      <trkpt lat="43.55757" lon="3.89557">
        <ele>-3.8</ele>
        <time>2017-10-27T09:09:05.445Z</time>
      </trkpt>
      <trkpt lat="43.55758" lon="3.89554">
        <ele>-3.9</ele>
        <time>2017-10-27T09:09:06.442Z</time>
      </trkpt>
      <trkpt lat="43.5576" lon="3.89551">
        <ele>-4</ele>
        <time>2017-10-27T09:09:07.445Z</time>
      </trkpt>
      <trkpt lat="43.55761" lon="3.89548">
        <ele>-4</ele>
        <time>2017-10-27T09:09:08.452Z</time>
      </trkpt>
      <trkpt lat="43.55763" lon="3.89544">
        <ele>-4</ele>
        <time>2017-10-27T09:09:09.444Z</time>
      </trkpt>
      <trkpt lat="43.55764" lon="3.89541">
        <ele>-4</ele>
        <time>2017-10-27T09:09:10.446Z</time>
      </trkpt>
      <trkpt lat="43.55766" lon="3.89538">
        <ele>-4</ele>
        <time>2017-10-27T09:09:11.445Z</time>
      </trkpt>
      <trkpt lat="43.55767" lon="3.89535">
        <ele>-4</ele>
        <time>2017-10-27T09:09:12.446Z</time>
      </trkpt>
      <trkpt lat="43.55769" lon="3.89532">
        <ele>-4</ele>
        <time>2017-10-27T09:09:13.445Z</time>
      </trkpt>
      <trkpt lat="43.5577" lon="3.89529">
        <ele>-4</ele>
        <time>2017-10-27T09:09:14.446Z</time>
      </trkpt>
      <trkpt lat="43.55772" lon="3.89526">
        <ele>-4</ele>
        <time>2017-10-27T09:09:15.445Z</time>
      </trkpt>
      <trkpt lat="43.55773" lon="3.89523">
        <ele>-4</ele>
        <time>2017-10-27T09:09:16.445Z</time>
      </trkpt>
      <trkpt lat="43.55775" lon="3.89519">
        <ele>-4</ele>
        <time>2017-10-27T09:09:17.445Z</time>
      </trkpt>
      <trkpt lat="43.55776" lon="3.89516">
        <ele>-4</ele>
        <time>2017-10-27T09:09:18.447Z</time>
      </trkpt>
      <trkpt lat="43.55778" lon="3.89513">
        <ele>-4</ele>
        <time>2017-10-27T09:09:19.435Z</time>
      </trkpt>
      <trkpt lat="43.55779" lon="3.8951">
        <ele>-4</ele>
        <time>2017-10-27T09:09:20.433Z</time>
      </trkpt>
      <trkpt lat="43.55781" lon="3.89507">
        <ele>-4</ele>
        <time>2017-10-27T09:09:21.431Z</time>
      </trkpt>
      <trkpt lat="43.55782" lon="3.89503">
        <ele>-4</ele>
        <time>2017-10-27T09:09:22.432Z</time>
      </trkpt>
      <trkpt lat="43.55784" lon="3.895">
        <ele>-4</ele>
        <time>2017-10-27T09:09:23.448Z</time>
      </trkpt>
      <trkpt lat="43.55785" lon="3.89497">
        <ele>-4</ele>
        <time>2017-10-27T09:09:24.454Z</time>
      </trkpt>
      <trkpt lat="43.55787" lon="3.89494">
        <ele>-4</ele>
        <time>2017-10-27T09:09:25.444Z</time>
      </trkpt>
      <trkpt lat="43.55789" lon="3.8949">
        <ele>-4.1</ele>
        <time>2017-10-27T09:09:26.431Z</time>
      </trkpt>
      <trkpt lat="43.5579" lon="3.89487">
        <ele>-4.1</ele>
        <time>2017-10-27T09:09:27.444Z</time>
      </trkpt>
      <trkpt lat="43.55792" lon="3.89483">
        <ele>-4.1</ele>
        <time>2017-10-27T09:09:28.434Z</time>
      </trkpt>
      <trkpt lat="43.55794" lon="3.8948">
        <ele>-4</ele>
        <time>2017-10-27T09:09:29.439Z</time>
      </trkpt>
      <trkpt lat="43.55796" lon="3.89477">
        <ele>-4</ele>
        <time>2017-10-27T09:09:30.444Z</time>
      </trkpt>
      <trkpt lat="43.55797" lon="3.89474">
        <ele>-4</ele>
        <time>2017-10-27T09:09:31.445Z</time>
      </trkpt>
      <trkpt lat="43.55799" lon="3.89472">
        <ele>-4</ele>
        <time>2017-10-27T09:09:32.454Z</time>
      </trkpt>
      <trkpt lat="43.55801" lon="3.89469">
        <ele>-4</ele>
        <time>2017-10-27T09:09:33.448Z</time>
      </trkpt>
      <trkpt lat="43.55803" lon="3.89466">
        <ele>-4</ele>
        <time>2017-10-27T09:09:34.447Z</time>
      </trkpt>
      <trkpt lat="43.55805" lon="3.89463">
        <ele>-4</ele>
        <time>2017-10-27T09:09:35.436Z</time>
      </trkpt>
      <trkpt lat="43.55807" lon="3.89461">
        <ele>-3.9</ele>
        <time>2017-10-27T09:09:36.436Z</time>
      </trkpt>
      <trkpt lat="43.55809" lon="3.89458">
        <ele>-3.9</ele>
        <time>2017-10-27T09:09:37.431Z</time>
      </trkpt>
      <trkpt lat="43.55811" lon="3.89456">
        <ele>-4</ele>
        <time>2017-10-27T09:09:38.440Z</time>
      </trkpt>
      <trkpt lat="43.55813" lon="3.89454">
        <ele>-4</ele>
        <time>2017-10-27T09:09:39.441Z</time>
      </trkpt>
      <trkpt lat="43.55816" lon="3.89452">
        <ele>-4</ele>
        <time>2017-10-27T09:09:40.445Z</time>
      </trkpt>
      <trkpt lat="43.55818" lon="3.8945">
        <ele>-4</ele>
        <time>2017-10-27T09:09:41.445Z</time>
      </trkpt>
      <trkpt lat="43.55821" lon="3.89448">
        <ele>-4</ele>
        <time>2017-10-27T09:09:42.446Z</time>
      </trkpt>
      <trkpt lat="43.55824" lon="3.89446">
        <ele>-4</ele>
        <time>2017-10-27T09:09:43.446Z</time>
      </trkpt>
      <trkpt lat="43.55827" lon="3.89444">
        <ele>-3.9</ele>
        <time>2017-10-27T09:09:44.445Z</time>
      </trkpt>
      <trkpt lat="43.55831" lon="3.89442">
        <ele>-3.8</ele>
        <time>2017-10-27T09:09:45.445Z</time>
      </trkpt>
      <trkpt lat="43.55834" lon="3.8944">
        <ele>-3.4</ele>
        <time>2017-10-27T09:09:46.447Z</time>
      </trkpt>
      <trkpt lat="43.55837" lon="3.89438">
        <ele>-2.8</ele>
        <time>2017-10-27T09:09:47.445Z</time>
      </trkpt>
      <trkpt lat="43.55838" lon="3.89435">
        <ele>-2.3</ele>
        <time>2017-10-27T09:09:48.455Z</time>
      </trkpt>
      <trkpt lat="43.5584" lon="3.89432">
        <ele>-2.1</ele>
        <time>2017-10-27T09:09:49.432Z</time>
      </trkpt>
      <trkpt lat="43.55842" lon="3.8943">
        <ele>-1.9</ele>
        <time>2017-10-27T09:09:50.446Z</time>
      </trkpt>
      <trkpt lat="43.55844" lon="3.89428">
        <ele>-2</ele>
        <time>2017-10-27T09:09:51.445Z</time>
      </trkpt>
      <trkpt lat="43.55846" lon="3.89427">
        <ele>-2</ele>
        <time>2017-10-27T09:09:52.446Z</time>
      </trkpt>
      <trkpt lat="43.55848" lon="3.89426">
        <ele>-2.1</ele>
        <time>2017-10-27T09:09:53.450Z</time>
      </trkpt>
      <trkpt lat="43.55851" lon="3.89425">
        <ele>-2.2</ele>
        <time>2017-10-27T09:09:54.433Z</time>
      </trkpt>
      <trkpt lat="43.55853" lon="3.89425">
        <ele>-2.3</ele>
        <time>2017-10-27T09:09:55.431Z</time>
      </trkpt>
      <trkpt lat="43.55856" lon="3.89425">
        <ele>-2.3</ele>
        <time>2017-10-27T09:09:56.431Z</time>
      </trkpt>
      <trkpt lat="43.55858" lon="3.89425">
        <ele>-2.2</ele>
        <time>2017-10-27T09:09:57.433Z</time>
      </trkpt>
      <trkpt lat="43.5586" lon="3.89426">
        <ele>-2.2</ele>
        <time>2017-10-27T09:09:58.450Z</time>
      </trkpt>
      <trkpt lat="43.55863" lon="3.89426">
        <ele>-2.2</ele>
        <time>2017-10-27T09:09:59.446Z</time>
      </trkpt>
      <trkpt lat="43.55866" lon="3.89427">
        <ele>-2.2</ele>
        <time>2017-10-27T09:10:00.437Z</time>
      </trkpt>
      <trkpt lat="43.55868" lon="3.89427">
        <ele>-2.1</ele>
        <time>2017-10-27T09:10:01.445Z</time>
      </trkpt>
      <trkpt lat="43.55871" lon="3.89428">
        <ele>-2.1</ele>
        <time>2017-10-27T09:10:02.447Z</time>
      </trkpt>
      <trkpt lat="43.55873" lon="3.89428">
        <ele>-2</ele>
        <time>2017-10-27T09:10:03.445Z</time>
      </trkpt>
      <trkpt lat="43.55876" lon="3.89429">
        <ele>-2</ele>
        <time>2017-10-27T09:10:04.432Z</time>
      </trkpt>
      <trkpt lat="43.55879" lon="3.89429">
        <ele>-2</ele>
        <time>2017-10-27T09:10:05.454Z</time>
      </trkpt>
      <trkpt lat="43.55881" lon="3.8943">
        <ele>-1.9</ele>
        <time>2017-10-27T09:10:06.452Z</time>
      </trkpt>
      <trkpt lat="43.55884" lon="3.89431">
        <ele>-1.9</ele>
        <time>2017-10-27T09:10:07.432Z</time>
      </trkpt>
      <trkpt lat="43.55887" lon="3.89433">
        <ele>-1.9</ele>
        <time>2017-10-27T09:10:08.445Z</time>
      </trkpt>
      <trkpt lat="43.5589" lon="3.89434">
        <ele>-1.9</ele>
        <time>2017-10-27T09:10:09.445Z</time>
      </trkpt>
      <trkpt lat="43.55892" lon="3.89435">
        <ele>-1.9</ele>
        <time>2017-10-27T09:10:10.448Z</time>
      </trkpt>
      <trkpt lat="43.55895" lon="3.89436">
        <ele>-1.9</ele>
        <time>2017-10-27T09:10:11.445Z</time>
      </trkpt>
      <trkpt lat="43.55898" lon="3.89438">
        <ele>-1.9</ele>
        <time>2017-10-27T09:10:12.452Z</time>
      </trkpt>
      <trkpt lat="43.55901" lon="3.8944">
        <ele>-1.9</ele>
        <time>2017-10-27T09:10:13.431Z</time>
      </trkpt>
      <trkpt lat="43.55903" lon="3.89441">
        <ele>-1.9</ele>
        <time>2017-10-27T09:10:14.430Z</time>
      </trkpt>
      <trkpt lat="43.55906" lon="3.89443">
        <ele>-1.9</ele>
        <time>2017-10-27T09:10:15.431Z</time>
      </trkpt>
      <trkpt lat="43.55909" lon="3.89445">
        <ele>-1.9</ele>
        <time>2017-10-27T09:10:16.441Z</time>
      </trkpt>
      <trkpt lat="43.55912" lon="3.89447">
        <ele>-1.9</ele>
        <time>2017-10-27T09:10:17.443Z</time>
      </trkpt>
      <trkpt lat="43.55914" lon="3.8945">
        <ele>-1.9</ele>
        <time>2017-10-27T09:10:18.437Z</time>
      </trkpt>
      <trkpt lat="43.55917" lon="3.89452">
        <ele>-1.9</ele>
        <time>2017-10-27T09:10:19.462Z</time>
      </trkpt>
      <trkpt lat="43.55919" lon="3.89454">
        <ele>-1.9</ele>
        <time>2017-10-27T09:10:20.444Z</time>
      </trkpt>
      <trkpt lat="43.55922" lon="3.89456">
        <ele>-1.9</ele>
        <time>2017-10-27T09:10:21.445Z</time>
      </trkpt>
      <trkpt lat="43.55925" lon="3.89458">
        <ele>-1.9</ele>
        <time>2017-10-27T09:10:22.444Z</time>
      </trkpt>
      <trkpt lat="43.55928" lon="3.8946">
        <ele>-1.9</ele>
        <time>2017-10-27T09:10:23.444Z</time>
      </trkpt>
      <trkpt lat="43.5593" lon="3.89462">
        <ele>-1.9</ele>
        <time>2017-10-27T09:10:24.448Z</time>
      </trkpt>
      <trkpt lat="43.55933" lon="3.89464">
        <ele>-1.9</ele>
        <time>2017-10-27T09:10:25.447Z</time>
      </trkpt>
      <trkpt lat="43.55936" lon="3.89466">
        <ele>-1.9</ele>
        <time>2017-10-27T09:10:26.444Z</time>
      </trkpt>
      <trkpt lat="43.55939" lon="3.89469">
        <ele>-1.9</ele>
        <time>2017-10-27T09:10:27.446Z</time>
      </trkpt>
      <trkpt lat="43.55942" lon="3.89471">
        <ele>-1.9</ele>
        <time>2017-10-27T09:10:28.445Z</time>
      </trkpt>
      <trkpt lat="43.55945" lon="3.89474">
        <ele>-1.8</ele>
        <time>2017-10-27T09:10:29.445Z</time>
      </trkpt>
      <trkpt lat="43.55948" lon="3.89476">
        <ele>-1.8</ele>
        <time>2017-10-27T09:10:30.435Z</time>
      </trkpt>
      <trkpt lat="43.55951" lon="3.89479">
        <ele>-1.8</ele>
        <time>2017-10-27T09:10:31.431Z</time>
      </trkpt>
      <trkpt lat="43.55954" lon="3.89481">
        <ele>-1.8</ele>
        <time>2017-10-27T09:10:32.431Z</time>
      </trkpt>
      <trkpt lat="43.55957" lon="3.89484">
        <ele>-1.8</ele>
        <time>2017-10-27T09:10:33.440Z</time>
      </trkpt>
      <trkpt lat="43.5596" lon="3.89486">
        <ele>-1.8</ele>
        <time>2017-10-27T09:10:34.431Z</time>
      </trkpt>
      <trkpt lat="43.55964" lon="3.89488">
        <ele>-1.8</ele>
        <time>2017-10-27T09:10:35.452Z</time>
      </trkpt>
      <trkpt lat="43.55967" lon="3.8949">
        <ele>-1.8</ele>
        <time>2017-10-27T09:10:36.445Z</time>
      </trkpt>
      <trkpt lat="43.5597" lon="3.89493">
        <ele>-1.7</ele>
        <time>2017-10-27T09:10:37.450Z</time>
      </trkpt>
      <trkpt lat="43.55973" lon="3.89495">
        <ele>-1.7</ele>
        <time>2017-10-27T09:10:38.446Z</time>
      </trkpt>
      <trkpt lat="43.55976" lon="3.89497">
        <ele>-1.7</ele>
        <time>2017-10-27T09:10:39.452Z</time>
      </trkpt>
      <trkpt lat="43.55979" lon="3.89499">
        <ele>-1.7</ele>
        <time>2017-10-27T09:10:40.449Z</time>
      </trkpt>
      <trkpt lat="43.55982" lon="3.89501">
        <ele>-1.7</ele>
        <time>2017-10-27T09:10:41.444Z</time>
      </trkpt>
      <trkpt lat="43.55986" lon="3.89503">
        <ele>-1.7</ele>
        <time>2017-10-27T09:10:42.448Z</time>
      </trkpt>
      <trkpt lat="43.55989" lon="3.89505">
        <ele>-1.7</ele>
        <time>2017-10-27T09:10:43.445Z</time>
      </trkpt>
      <trkpt lat="43.55992" lon="3.89506">
        <ele>-1.7</ele>
        <time>2017-10-27T09:10:44.447Z</time>
      </trkpt>
      <trkpt lat="43.55996" lon="3.89508">
        <ele>-1.7</ele>
        <time>2017-10-27T09:10:45.444Z</time>
      </trkpt>
      <trkpt lat="43.55999" lon="3.8951">
        <ele>-1.6</ele>
        <time>2017-10-27T09:10:46.446Z</time>
      </trkpt>
      <trkpt lat="43.56003" lon="3.89511">
        <ele>-1.6</ele>
        <time>2017-10-27T09:10:47.444Z</time>
      </trkpt>
      <trkpt lat="43.56006" lon="3.89513">
        <ele>-1.6</ele>
        <time>2017-10-27T09:10:48.435Z</time>
      </trkpt>
      <trkpt lat="43.56009" lon="3.89514">
        <ele>-1.6</ele>
        <time>2017-10-27T09:10:49.431Z</time>
      </trkpt>
      <trkpt lat="43.56013" lon="3.89516">
        <ele>-1.6</ele>
        <time>2017-10-27T09:10:50.432Z</time>
      </trkpt>
      <trkpt lat="43.56016" lon="3.89517">
        <ele>-1.6</ele>
        <time>2017-10-27T09:10:51.494Z</time>
      </trkpt>
      <trkpt lat="43.5602" lon="3.89519">
        <ele>-1.6</ele>
        <time>2017-10-27T09:10:52.445Z</time>
      </trkpt>
      <trkpt lat="43.56023" lon="3.8952">
        <ele>-1.6</ele>
        <time>2017-10-27T09:10:53.445Z</time>
      </trkpt>
      <trkpt lat="43.56027" lon="3.89521">
        <ele>-1.5</ele>
        <time>2017-10-27T09:10:54.447Z</time>
      </trkpt>
      <trkpt lat="43.5603" lon="3.89522">
        <ele>-1.5</ele>
        <time>2017-10-27T09:10:55.445Z</time>
      </trkpt>
      <trkpt lat="43.56034" lon="3.89523">
        <ele>-1.5</ele>
        <time>2017-10-27T09:10:56.447Z</time>
      </trkpt>
      <trkpt lat="43.56037" lon="3.89524">
        <ele>-1.5</ele>
        <time>2017-10-27T09:10:57.432Z</time>
      </trkpt>
      <trkpt lat="43.56041" lon="3.89525">
        <ele>-1.5</ele>
        <time>2017-10-27T09:10:58.445Z</time>
      </trkpt>
      <trkpt lat="43.56044" lon="3.89526">
        <ele>-1.5</ele>
        <time>2017-10-27T09:10:59.449Z</time>
      </trkpt>
      <trkpt lat="43.56047" lon="3.89526">
        <ele>-1.5</ele>
        <time>2017-10-27T09:11:00.446Z</time>
      </trkpt>
      <trkpt lat="43.5605" lon="3.89527">
        <ele>-1.4</ele>
        <time>2017-10-27T09:11:01.444Z</time>
      </trkpt>
      <trkpt lat="43.56053" lon="3.89527">
        <ele>-1.5</ele>
        <time>2017-10-27T09:11:02.433Z</time>
      </trkpt>
      <trkpt lat="43.56057" lon="3.89528">
        <ele>-1.4</ele>
        <time>2017-10-27T09:11:03.431Z</time>
      </trkpt>
      <trkpt lat="43.5606" lon="3.89528">
        <ele>-1.4</ele>
        <time>2017-10-27T09:11:04.439Z</time>
      </trkpt>
      <trkpt lat="43.56063" lon="3.89529">
        <ele>-1.4</ele>
        <time>2017-10-27T09:11:05.438Z</time>
      </trkpt>
      <trkpt lat="43.56066" lon="3.8953">
        <ele>-1.3</ele>
        <time>2017-10-27T09:11:06.446Z</time>
      </trkpt>
      <trkpt lat="43.5607" lon="3.89531">
        <ele>-1.3</ele>
        <time>2017-10-27T09:11:07.452Z</time>
      </trkpt>
      <trkpt lat="43.56073" lon="3.89531">
        <ele>-1.3</ele>
        <time>2017-10-27T09:11:08.449Z</time>
      </trkpt>
      <trkpt lat="43.56076" lon="3.89532">
        <ele>-1.3</ele>
        <time>2017-10-27T09:11:09.455Z</time>
      </trkpt>
      <trkpt lat="43.56079" lon="3.89532">
        <ele>-1.2</ele>
        <time>2017-10-27T09:11:10.445Z</time>
      </trkpt>
      <trkpt lat="43.56082" lon="3.89533">
        <ele>-1.3</ele>
        <time>2017-10-27T09:11:11.449Z</time>
      </trkpt>
      <trkpt lat="43.56085" lon="3.89533">
        <ele>-1.3</ele>
        <time>2017-10-27T09:11:12.446Z</time>
      </trkpt>
      <trkpt lat="43.56088" lon="3.89534">
        <ele>-1.3</ele>
        <time>2017-10-27T09:11:13.433Z</time>
      </trkpt>
      <trkpt lat="43.56092" lon="3.89535">
        <ele>-1.3</ele>
        <time>2017-10-27T09:11:14.431Z</time>
      </trkpt>
      <trkpt lat="43.56095" lon="3.89535">
        <ele>-1.3</ele>
        <time>2017-10-27T09:11:15.441Z</time>
      </trkpt>
      <trkpt lat="43.56098" lon="3.89536">
        <ele>-1.3</ele>
        <time>2017-10-27T09:11:16.458Z</time>
      </trkpt>
      <trkpt lat="43.56101" lon="3.89536">
        <ele>-1.3</ele>
        <time>2017-10-27T09:11:17.433Z</time>
      </trkpt>
      <trkpt lat="43.56104" lon="3.89537">
        <ele>-1.3</ele>
        <time>2017-10-27T09:11:18.446Z</time>
      </trkpt>
      <trkpt lat="43.56107" lon="3.89538">
        <ele>-1.2</ele>
        <time>2017-10-27T09:11:19.444Z</time>
      </trkpt>
      <trkpt lat="43.56109" lon="3.89539">
        <ele>-1.2</ele>
        <time>2017-10-27T09:11:20.445Z</time>
      </trkpt>
      <trkpt lat="43.56112" lon="3.89539">
        <ele>-1.2</ele>
        <time>2017-10-27T09:11:21.446Z</time>
      </trkpt>
      <trkpt lat="43.56115" lon="3.8954">
        <ele>-1.2</ele>
        <time>2017-10-27T09:11:22.441Z</time>
      </trkpt>
      <trkpt lat="43.56118" lon="3.89541">
        <ele>-1.2</ele>
        <time>2017-10-27T09:11:23.447Z</time>
      </trkpt>
      <trkpt lat="43.5612" lon="3.89541">
        <ele>-1.2</ele>
        <time>2017-10-27T09:11:24.450Z</time>
      </trkpt>
      <trkpt lat="43.56123" lon="3.89542">
        <ele>-1.1</ele>
        <time>2017-10-27T09:11:25.449Z</time>
      </trkpt>
      <trkpt lat="43.56126" lon="3.89543">
        <ele>-1.1</ele>
        <time>2017-10-27T09:11:26.446Z</time>
      </trkpt>
      <trkpt lat="43.56129" lon="3.89544">
        <ele>-1.1</ele>
        <time>2017-10-27T09:11:27.447Z</time>
      </trkpt>
      <trkpt lat="43.56132" lon="3.89544">
        <ele>-1</ele>
        <time>2017-10-27T09:11:28.450Z</time>
      </trkpt>
      <trkpt lat="43.56135" lon="3.89545">
        <ele>-1</ele>
        <time>2017-10-27T09:11:29.455Z</time>
      </trkpt>
      <trkpt lat="43.56138" lon="3.89546">
        <ele>-0.9</ele>
        <time>2017-10-27T09:11:30.432Z</time>
      </trkpt>
      <trkpt lat="43.56141" lon="3.89547">
        <ele>-0.9</ele>
        <time>2017-10-27T09:11:31.455Z</time>
      </trkpt>
      <trkpt lat="43.56144" lon="3.89547">
        <ele>-0.8</ele>
        <time>2017-10-27T09:11:32.445Z</time>
      </trkpt>
      <trkpt lat="43.56147" lon="3.89548">
        <ele>-0.8</ele>
        <time>2017-10-27T09:11:33.446Z</time>
      </trkpt>
      <trkpt lat="43.5615" lon="3.89549">
        <ele>-0.8</ele>
        <time>2017-10-27T09:11:34.454Z</time>
      </trkpt>
      <trkpt lat="43.56153" lon="3.89549">
        <ele>-0.7</ele>
        <time>2017-10-27T09:11:35.442Z</time>
      </trkpt>
      <trkpt lat="43.56156" lon="3.8955">
        <ele>-0.7</ele>
        <time>2017-10-27T09:11:36.433Z</time>
      </trkpt>
      <trkpt lat="43.56159" lon="3.89551">
        <ele>-0.7</ele>
        <time>2017-10-27T09:11:37.432Z</time>
      </trkpt>
      <trkpt lat="43.56162" lon="3.89552">
        <ele>-0.7</ele>
        <time>2017-10-27T09:11:38.431Z</time>
      </trkpt>
      <trkpt lat="43.56164" lon="3.89552">
        <ele>-0.7</ele>
        <time>2017-10-27T09:11:39.458Z</time>
      </trkpt>
      <trkpt lat="43.56167" lon="3.89553">
        <ele>-0.6</ele>
        <time>2017-10-27T09:11:40.444Z</time>
      </trkpt>
      <trkpt lat="43.5617" lon="3.89554">
        <ele>-0.6</ele>
        <time>2017-10-27T09:11:41.444Z</time>
      </trkpt>
      <trkpt lat="43.56173" lon="3.89554">
        <ele>-0.6</ele>
        <time>2017-10-27T09:11:42.446Z</time>
      </trkpt>
      <trkpt lat="43.56175" lon="3.89555">
        <ele>-0.6</ele>
        <time>2017-10-27T09:11:43.445Z</time>
      </trkpt>
      <trkpt lat="43.56178" lon="3.89556">
        <ele>-0.6</ele>
        <time>2017-10-27T09:11:44.444Z</time>
      </trkpt>
      <trkpt lat="43.56181" lon="3.89556">
        <ele>-0.6</ele>
        <time>2017-10-27T09:11:45.450Z</time>
      </trkpt>
      <trkpt lat="43.56184" lon="3.89557">
        <ele>-0.6</ele>
        <time>2017-10-27T09:11:46.449Z</time>
      </trkpt>
      <trkpt lat="43.56187" lon="3.89558">
        <ele>-0.6</ele>
        <time>2017-10-27T09:11:47.444Z</time>
      </trkpt>
      <trkpt lat="43.5619" lon="3.89559">
        <ele>-0.6</ele>
        <time>2017-10-27T09:11:48.447Z</time>
      </trkpt>
      <trkpt lat="43.56193" lon="3.89559">
        <ele>-0.6</ele>
        <time>2017-10-27T09:11:49.445Z</time>
      </trkpt>
      <trkpt lat="43.56196" lon="3.8956">
        <ele>-0.6</ele>
        <time>2017-10-27T09:11:50.444Z</time>
      </trkpt>
      <trkpt lat="43.56199" lon="3.89561">
        <ele>-0.5</ele>
        <time>2017-10-27T09:11:51.445Z</time>
      </trkpt>
      <trkpt lat="43.56202" lon="3.89562">
        <ele>-0.5</ele>
        <time>2017-10-27T09:11:52.443Z</time>
      </trkpt>
      <trkpt lat="43.56205" lon="3.89563">
        <ele>-0.5</ele>
        <time>2017-10-27T09:11:53.453Z</time>
      </trkpt>
      <trkpt lat="43.56208" lon="3.89564">
        <ele>-0.5</ele>
        <time>2017-10-27T09:11:54.434Z</time>
      </trkpt>
      <trkpt lat="43.56212" lon="3.89565">
        <ele>-0.5</ele>
        <time>2017-10-27T09:11:55.431Z</time>
      </trkpt>
      <trkpt lat="43.56215" lon="3.89566">
        <ele>-0.5</ele>
        <time>2017-10-27T09:11:56.442Z</time>
      </trkpt>
      <trkpt lat="43.56218" lon="3.89566">
        <ele>-0.4</ele>
        <time>2017-10-27T09:11:57.447Z</time>
      </trkpt>
      <trkpt lat="43.56221" lon="3.89567">
        <ele>-0.4</ele>
        <time>2017-10-27T09:11:58.439Z</time>
      </trkpt>
      <trkpt lat="43.56224" lon="3.89568">
        <ele>-0.4</ele>
        <time>2017-10-27T09:11:59.449Z</time>
      </trkpt>
      <trkpt lat="43.56227" lon="3.89569">
        <ele>-0.4</ele>
        <time>2017-10-27T09:12:00.438Z</time>
      </trkpt>
      <trkpt lat="43.5623" lon="3.8957">
        <ele>-0.3</ele>
        <time>2017-10-27T09:12:01.461Z</time>
      </trkpt>
      <trkpt lat="43.56233" lon="3.89571">
        <ele>-0.3</ele>
        <time>2017-10-27T09:12:02.453Z</time>
      </trkpt>
      <trkpt lat="43.56236" lon="3.89571">
        <ele>-0.3</ele>
        <time>2017-10-27T09:12:03.468Z</time>
      </trkpt>
      <trkpt lat="43.56239" lon="3.89572">
        <ele>-0.3</ele>
        <time>2017-10-27T09:12:04.471Z</time>
      </trkpt>
      <trkpt lat="43.56242" lon="3.89573">
        <ele>-0.3</ele>
        <time>2017-10-27T09:12:05.444Z</time>
      </trkpt>
      <trkpt lat="43.56245" lon="3.89574">
        <ele>-0.3</ele>
        <time>2017-10-27T09:12:06.447Z</time>
      </trkpt>
      <trkpt lat="43.56248" lon="3.89575">
        <ele>-0.3</ele>
        <time>2017-10-27T09:12:07.454Z</time>
      </trkpt>
      <trkpt lat="43.56251" lon="3.89576">
        <ele>-0.2</ele>
        <time>2017-10-27T09:12:08.440Z</time>
      </trkpt>
      <trkpt lat="43.56254" lon="3.89577">
        <ele>-0.2</ele>
        <time>2017-10-27T09:12:09.446Z</time>
      </trkpt>
      <trkpt lat="43.56257" lon="3.89578">
        <ele>-0.1</ele>
        <time>2017-10-27T09:12:10.445Z</time>
      </trkpt>
      <trkpt lat="43.56261" lon="3.89579">
        <ele>-0.2</ele>
        <time>2017-10-27T09:12:11.452Z</time>
      </trkpt>
      <trkpt lat="43.56264" lon="3.8958">
        <ele>-0.2</ele>
        <time>2017-10-27T09:12:12.451Z</time>
      </trkpt>
      <trkpt lat="43.56267" lon="3.89581">
        <ele>-0.2</ele>
        <time>2017-10-27T09:12:13.444Z</time>
      </trkpt>
      <trkpt lat="43.5627" lon="3.89582">
        <ele>-0.2</ele>
        <time>2017-10-27T09:12:14.445Z</time>
      </trkpt>
      <trkpt lat="43.56274" lon="3.89583">
        <ele>-0.2</ele>
        <time>2017-10-27T09:12:15.444Z</time>
      </trkpt>
      <trkpt lat="43.56277" lon="3.89584">
        <ele>-0.1</ele>
        <time>2017-10-27T09:12:16.445Z</time>
      </trkpt>
      <trkpt lat="43.5628" lon="3.89585">
        <ele>-0.1</ele>
        <time>2017-10-27T09:12:17.432Z</time>
      </trkpt>
      <trkpt lat="43.56283" lon="3.89586">
        <ele>-0.1</ele>
        <time>2017-10-27T09:12:18.433Z</time>
      </trkpt>
      <trkpt lat="43.56287" lon="3.89587">
        <ele>-0.1</ele>
        <time>2017-10-27T09:12:19.433Z</time>
      </trkpt>
      <trkpt lat="43.5629" lon="3.89588">
        <ele>-0.1</ele>
        <time>2017-10-27T09:12:20.455Z</time>
      </trkpt>
      <trkpt lat="43.56293" lon="3.89589">
        <ele>-0.1</ele>
        <time>2017-10-27T09:12:21.450Z</time>
      </trkpt>
      <trkpt lat="43.56296" lon="3.8959">
        <ele>-0.1</ele>
        <time>2017-10-27T09:12:22.448Z</time>
      </trkpt>
      <trkpt lat="43.56299" lon="3.89591">
        <ele>-0.1</ele>
        <time>2017-10-27T09:12:23.445Z</time>
      </trkpt>
      <trkpt lat="43.56302" lon="3.89592">
        <ele>-0.1</ele>
        <time>2017-10-27T09:12:24.446Z</time>
      </trkpt>
      <trkpt lat="43.56304" lon="3.89593">
        <ele>-0.1</ele>
        <time>2017-10-27T09:12:25.446Z</time>
      </trkpt>
      <trkpt lat="43.56307" lon="3.89593">
        <ele>5</ele>
        <time>2017-10-27T09:12:26.445Z</time>
      </trkpt>
      <trkpt lat="43.5631" lon="3.89594">
        <ele>5</ele>
        <time>2017-10-27T09:12:27.446Z</time>
      </trkpt>
      <trkpt lat="43.56312" lon="3.89595">
        <ele>5</ele>
        <time>2017-10-27T09:12:28.435Z</time>
      </trkpt>
      <trkpt lat="43.56315" lon="3.89596">
        <ele>5</ele>
        <time>2017-10-27T09:12:29.445Z</time>
      </trkpt>
      <trkpt lat="43.56318" lon="3.89597">
        <ele>5</ele>
        <time>2017-10-27T09:12:30.446Z</time>
      </trkpt>
      <trkpt lat="43.56321" lon="3.89598">
        <ele>5</ele>
        <time>2017-10-27T09:12:31.446Z</time>
      </trkpt>
      <trkpt lat="43.56324" lon="3.89599">
        <ele>5.1</ele>
        <time>2017-10-27T09:12:32.444Z</time>
      </trkpt>
      <trkpt lat="43.56327" lon="3.896">
        <ele>5.1</ele>
        <time>2017-10-27T09:12:33.443Z</time>
      </trkpt>
      <trkpt lat="43.56329" lon="3.896">
        <ele>5.2</ele>
        <time>2017-10-27T09:12:34.444Z</time>
      </trkpt>
      <trkpt lat="43.56332" lon="3.89601">
        <ele>-0.1</ele>
        <time>2017-10-27T09:12:35.449Z</time>
      </trkpt>
      <trkpt lat="43.56335" lon="3.89602">
        <ele>-0.1</ele>
        <time>2017-10-27T09:12:36.433Z</time>
      </trkpt>
      <trkpt lat="43.56337" lon="3.89603">
        <ele>5.5</ele>
        <time>2017-10-27T09:12:37.431Z</time>
      </trkpt>
      <trkpt lat="43.5634" lon="3.89604">
        <ele>5.6</ele>
        <time>2017-10-27T09:12:38.431Z</time>
      </trkpt>
      <trkpt lat="43.56343" lon="3.89605">
        <ele>5.7</ele>
        <time>2017-10-27T09:12:39.432Z</time>
      </trkpt>
      <trkpt lat="43.56345" lon="3.89606">
        <ele>0.1</ele>
        <time>2017-10-27T09:12:40.438Z</time>
      </trkpt>
      <trkpt lat="43.56348" lon="3.89607">
        <ele>0.1</ele>
        <time>2017-10-27T09:12:41.446Z</time>
      </trkpt>
      <trkpt lat="43.56351" lon="3.89608">
        <ele>0.1</ele>
        <time>2017-10-27T09:12:42.449Z</time>
      </trkpt>
      <trkpt lat="43.56354" lon="3.89608">
        <ele>0.1</ele>
        <time>2017-10-27T09:12:43.449Z</time>
      </trkpt>
      <trkpt lat="43.56356" lon="3.89609">
        <ele>0.2</ele>
        <time>2017-10-27T09:12:44.447Z</time>
      </trkpt>
      <trkpt lat="43.56359" lon="3.8961">
        <ele>0.2</ele>
        <time>2017-10-27T09:12:45.446Z</time>
      </trkpt>
      <trkpt lat="43.56362" lon="3.89611">
        <ele>0.2</ele>
        <time>2017-10-27T09:12:46.446Z</time>
      </trkpt>
      <trkpt lat="43.56364" lon="3.89612">
        <ele>0.2</ele>
        <time>2017-10-27T09:12:47.446Z</time>
      </trkpt>
      <trkpt lat="43.56367" lon="3.89613">
        <ele>0.2</ele>
        <time>2017-10-27T09:12:48.451Z</time>
      </trkpt>
      <trkpt lat="43.5637" lon="3.89614">
        <ele>0.3</ele>
        <time>2017-10-27T09:12:49.458Z</time>
      </trkpt>
      <trkpt lat="43.56372" lon="3.89614">
        <ele>0.3</ele>
        <time>2017-10-27T09:12:50.445Z</time>
      </trkpt>
      <trkpt lat="43.56375" lon="3.89615">
        <ele>0.3</ele>
        <time>2017-10-27T09:12:51.444Z</time>
      </trkpt>
      <trkpt lat="43.56378" lon="3.89616">
        <ele>0.4</ele>
        <time>2017-10-27T09:12:52.445Z</time>
      </trkpt>
      <trkpt lat="43.5638" lon="3.89617">
        <ele>0.4</ele>
        <time>2017-10-27T09:12:53.446Z</time>
      </trkpt>
      <trkpt lat="43.56383" lon="3.89618">
        <ele>0.4</ele>
        <time>2017-10-27T09:12:54.446Z</time>
      </trkpt>
      <trkpt lat="43.56386" lon="3.89619">
        <ele>0.4</ele>
        <time>2017-10-27T09:12:55.432Z</time>
      </trkpt>
      <trkpt lat="43.56389" lon="3.8962">
        <ele>0.4</ele>
        <time>2017-10-27T09:12:56.432Z</time>
      </trkpt>
      <trkpt lat="43.56392" lon="3.89621">
        <ele>0.5</ele>
        <time>2017-10-27T09:12:57.434Z</time>
      </trkpt>
      <trkpt lat="43.56395" lon="3.89622">
        <ele>0.5</ele>
        <time>2017-10-27T09:12:58.446Z</time>
      </trkpt>
      <trkpt lat="43.56398" lon="3.89623">
        <ele>0.5</ele>
        <time>2017-10-27T09:12:59.447Z</time>
      </trkpt>
      <trkpt lat="43.56401" lon="3.89624">
        <ele>0.5</ele>
        <time>2017-10-27T09:13:00.441Z</time>
      </trkpt>
      <trkpt lat="43.56404" lon="3.89625">
        <ele>0.6</ele>
        <time>2017-10-27T09:13:01.445Z</time>
      </trkpt>
      <trkpt lat="43.56407" lon="3.89626">
        <ele>0.6</ele>
        <time>2017-10-27T09:13:02.444Z</time>
      </trkpt>
      <trkpt lat="43.5641" lon="3.89627">
        <ele>0.6</ele>
        <time>2017-10-27T09:13:03.444Z</time>
      </trkpt>
      <trkpt lat="43.56413" lon="3.89628">
        <ele>0.6</ele>
        <time>2017-10-27T09:13:04.446Z</time>
      </trkpt>
      <trkpt lat="43.56415" lon="3.89628">
        <ele>0.6</ele>
        <time>2017-10-27T09:13:05.444Z</time>
      </trkpt>
      <trkpt lat="43.56418" lon="3.89629">
        <ele>0.6</ele>
        <time>2017-10-27T09:13:06.450Z</time>
      </trkpt>
      <trkpt lat="43.56421" lon="3.8963">
        <ele>0.6</ele>
        <time>2017-10-27T09:13:07.444Z</time>
      </trkpt>
      <trkpt lat="43.56424" lon="3.89631">
        <ele>0.7</ele>
        <time>2017-10-27T09:13:08.444Z</time>
      </trkpt>
      <trkpt lat="43.56427" lon="3.89632">
        <ele>0.7</ele>
        <time>2017-10-27T09:13:09.456Z</time>
      </trkpt>
      <trkpt lat="43.56429" lon="3.89633">
        <ele>0.7</ele>
        <time>2017-10-27T09:13:10.444Z</time>
      </trkpt>
      <trkpt lat="43.56432" lon="3.89634">
        <ele>0.7</ele>
        <time>2017-10-27T09:13:11.446Z</time>
      </trkpt>
      <trkpt lat="43.56434" lon="3.89635">
        <ele>0.8</ele>
        <time>2017-10-27T09:13:12.433Z</time>
      </trkpt>
      <trkpt lat="43.56437" lon="3.89636">
        <ele>0.8</ele>
        <time>2017-10-27T09:13:13.431Z</time>
      </trkpt>
      <trkpt lat="43.5644" lon="3.89636">
        <ele>0.7</ele>
        <time>2017-10-27T09:13:14.433Z</time>
      </trkpt>
      <trkpt lat="43.56443" lon="3.89637">
        <ele>0.7</ele>
        <time>2017-10-27T09:13:15.440Z</time>
      </trkpt>
      <trkpt lat="43.56446" lon="3.89638">
        <ele>0.7</ele>
        <time>2017-10-27T09:13:16.438Z</time>
      </trkpt>
      <trkpt lat="43.56449" lon="3.89639">
        <ele>0.8</ele>
        <time>2017-10-27T09:13:17.445Z</time>
      </trkpt>
      <trkpt lat="43.56452" lon="3.8964">
        <ele>0.8</ele>
        <time>2017-10-27T09:13:18.441Z</time>
      </trkpt>
      <trkpt lat="43.56454" lon="3.89641">
        <ele>0.8</ele>
        <time>2017-10-27T09:13:19.434Z</time>
      </trkpt>
      <trkpt lat="43.56457" lon="3.89642">
        <ele>0.8</ele>
        <time>2017-10-27T09:13:20.444Z</time>
      </trkpt>
      <trkpt lat="43.5646" lon="3.89643">
        <ele>0.8</ele>
        <time>2017-10-27T09:13:21.434Z</time>
      </trkpt>
      <trkpt lat="43.56463" lon="3.89643">
        <ele>0.8</ele>
        <time>2017-10-27T09:13:22.443Z</time>
      </trkpt>
      <trkpt lat="43.56466" lon="3.89644">
        <ele>0.8</ele>
        <time>2017-10-27T09:13:23.446Z</time>
      </trkpt>
      <trkpt lat="43.56468" lon="3.89645">
        <ele>0.8</ele>
        <time>2017-10-27T09:13:24.440Z</time>
      </trkpt>
      <trkpt lat="43.56471" lon="3.89646">
        <ele>0.8</ele>
        <time>2017-10-27T09:13:25.447Z</time>
      </trkpt>
      <trkpt lat="43.56474" lon="3.89647">
        <ele>0.9</ele>
        <time>2017-10-27T09:13:26.449Z</time>
      </trkpt>
      <trkpt lat="43.56476" lon="3.89648">
        <ele>0.9</ele>
        <time>2017-10-27T09:13:27.441Z</time>
      </trkpt>
      <trkpt lat="43.56478" lon="3.89649">
        <ele>0.8</ele>
        <time>2017-10-27T09:13:28.452Z</time>
      </trkpt>
      <trkpt lat="43.56481" lon="3.8965">
        <ele>0.8</ele>
        <time>2017-10-27T09:13:29.444Z</time>
      </trkpt>
      <trkpt lat="43.56483" lon="3.8965">
        <ele>0.8</ele>
        <time>2017-10-27T09:13:30.433Z</time>
      </trkpt>
      <trkpt lat="43.56486" lon="3.89651">
        <ele>0.9</ele>
        <time>2017-10-27T09:13:31.444Z</time>
      </trkpt>
      <trkpt lat="43.56488" lon="3.89652">
        <ele>0.9</ele>
        <time>2017-10-27T09:13:32.430Z</time>
      </trkpt>
      <trkpt lat="43.56491" lon="3.89653">
        <ele>0.9</ele>
        <time>2017-10-27T09:13:33.435Z</time>
      </trkpt>
      <trkpt lat="43.56494" lon="3.89654">
        <ele>0.9</ele>
        <time>2017-10-27T09:13:34.432Z</time>
      </trkpt>
      <trkpt lat="43.56497" lon="3.89655">
        <ele>0.9</ele>
        <time>2017-10-27T09:13:35.436Z</time>
      </trkpt>
      <trkpt lat="43.565" lon="3.89656">
        <ele>0.9</ele>
        <time>2017-10-27T09:13:36.449Z</time>
      </trkpt>
      <trkpt lat="43.56502" lon="3.89657">
        <ele>1</ele>
        <time>2017-10-27T09:13:37.431Z</time>
      </trkpt>
      <trkpt lat="43.56505" lon="3.89658">
        <ele>1</ele>
        <time>2017-10-27T09:13:38.444Z</time>
      </trkpt>
      <trkpt lat="43.56507" lon="3.89658">
        <ele>1</ele>
        <time>2017-10-27T09:13:39.455Z</time>
      </trkpt>
      <trkpt lat="43.5651" lon="3.89659">
        <ele>0.9</ele>
        <time>2017-10-27T09:13:40.451Z</time>
      </trkpt>
      <trkpt lat="43.56512" lon="3.8966">
        <ele>0.9</ele>
        <time>2017-10-27T09:13:41.445Z</time>
      </trkpt>
      <trkpt lat="43.56515" lon="3.89661">
        <ele>0.9</ele>
        <time>2017-10-27T09:13:42.447Z</time>
      </trkpt>
      <trkpt lat="43.56518" lon="3.89662">
        <ele>0.9</ele>
        <time>2017-10-27T09:13:43.447Z</time>
      </trkpt>
      <trkpt lat="43.5652" lon="3.89663">
        <ele>0.9</ele>
        <time>2017-10-27T09:13:44.447Z</time>
      </trkpt>
      <trkpt lat="43.56523" lon="3.89663">
        <ele>0.9</ele>
        <time>2017-10-27T09:13:45.445Z</time>
      </trkpt>
      <trkpt lat="43.56526" lon="3.89664">
        <ele>0.9</ele>
        <time>2017-10-27T09:13:46.445Z</time>
      </trkpt>
      <trkpt lat="43.56529" lon="3.89665">
        <ele>0.9</ele>
        <time>2017-10-27T09:13:47.445Z</time>
      </trkpt>
      <trkpt lat="43.56532" lon="3.89666">
        <ele>0.9</ele>
        <time>2017-10-27T09:13:48.447Z</time>
      </trkpt>
      <trkpt lat="43.56534" lon="3.89667">
        <ele>0.9</ele>
        <time>2017-10-27T09:13:49.456Z</time>
      </trkpt>
      <trkpt lat="43.56537" lon="3.89668">
        <ele>0.9</ele>
        <time>2017-10-27T09:13:50.445Z</time>
      </trkpt>
      <trkpt lat="43.5654" lon="3.89669">
        <ele>0.9</ele>
        <time>2017-10-27T09:13:51.444Z</time>
      </trkpt>
      <trkpt lat="43.56543" lon="3.8967">
        <ele>0.8</ele>
        <time>2017-10-27T09:13:52.435Z</time>
      </trkpt>
      <trkpt lat="43.56546" lon="3.89671">
        <ele>0.8</ele>
        <time>2017-10-27T09:13:53.433Z</time>
      </trkpt>
      <trkpt lat="43.56549" lon="3.89672">
        <ele>0.8</ele>
        <time>2017-10-27T09:13:54.433Z</time>
      </trkpt>
      <trkpt lat="43.56552" lon="3.89673">
        <ele>0.8</ele>
        <time>2017-10-27T09:13:55.436Z</time>
      </trkpt>
      <trkpt lat="43.56555" lon="3.89674">
        <ele>0.8</ele>
        <time>2017-10-27T09:13:56.446Z</time>
      </trkpt>
      <trkpt lat="43.56558" lon="3.89675">
        <ele>0.8</ele>
        <time>2017-10-27T09:13:57.454Z</time>
      </trkpt>
      <trkpt lat="43.56561" lon="3.89676">
        <ele>1</ele>
        <time>2017-10-27T09:13:58.492Z</time>
      </trkpt>
      <trkpt lat="43.56564" lon="3.89677">
        <ele>0.9</ele>
        <time>2017-10-27T09:13:59.441Z</time>
      </trkpt>
      <trkpt lat="43.56567" lon="3.89678">
        <ele>0.9</ele>
        <time>2017-10-27T09:14:00.447Z</time>
      </trkpt>
      <trkpt lat="43.5657" lon="3.89679">
        <ele>1</ele>
        <time>2017-10-27T09:14:01.452Z</time>
      </trkpt>
      <trkpt lat="43.56573" lon="3.8968">
        <ele>1</ele>
        <time>2017-10-27T09:14:02.447Z</time>
      </trkpt>
      <trkpt lat="43.56575" lon="3.89681">
        <ele>1</ele>
        <time>2017-10-27T09:14:03.446Z</time>
      </trkpt>
      <trkpt lat="43.56578" lon="3.89682">
        <ele>1.1</ele>
        <time>2017-10-27T09:14:04.446Z</time>
      </trkpt>
      <trkpt lat="43.56581" lon="3.89682">
        <ele>1.1</ele>
        <time>2017-10-27T09:14:05.444Z</time>
      </trkpt>
      <trkpt lat="43.56584" lon="3.89683">
        <ele>1.1</ele>
        <time>2017-10-27T09:14:06.446Z</time>
      </trkpt>
      <trkpt lat="43.56587" lon="3.89684">
        <ele>1.1</ele>
        <time>2017-10-27T09:14:07.444Z</time>
      </trkpt>
      <trkpt lat="43.5659" lon="3.89685">
        <ele>1.1</ele>
        <time>2017-10-27T09:14:08.445Z</time>
      </trkpt>
      <trkpt lat="43.56592" lon="3.89686">
        <ele>1.2</ele>
        <time>2017-10-27T09:14:09.445Z</time>
      </trkpt>
      <trkpt lat="43.56595" lon="3.89687">
        <ele>1.2</ele>
        <time>2017-10-27T09:14:10.432Z</time>
      </trkpt>
      <trkpt lat="43.56598" lon="3.89688">
        <ele>1.2</ele>
        <time>2017-10-27T09:14:11.446Z</time>
      </trkpt>
      <trkpt lat="43.56601" lon="3.89689">
        <ele>1.2</ele>
        <time>2017-10-27T09:14:12.445Z</time>
      </trkpt>
      <trkpt lat="43.56604" lon="3.8969">
        <ele>1.2</ele>
        <time>2017-10-27T09:14:13.435Z</time>
      </trkpt>
      <trkpt lat="43.56607" lon="3.89691">
        <ele>1.2</ele>
        <time>2017-10-27T09:14:14.432Z</time>
      </trkpt>
      <trkpt lat="43.5661" lon="3.89692">
        <ele>1.3</ele>
        <time>2017-10-27T09:14:15.454Z</time>
      </trkpt>
      <trkpt lat="43.56612" lon="3.89693">
        <ele>1.3</ele>
        <time>2017-10-27T09:14:16.442Z</time>
      </trkpt>
      <trkpt lat="43.56615" lon="3.89694">
        <ele>1.2</ele>
        <time>2017-10-27T09:14:17.432Z</time>
      </trkpt>
      <trkpt lat="43.56618" lon="3.89695">
        <ele>1.2</ele>
        <time>2017-10-27T09:14:18.436Z</time>
      </trkpt>
      <trkpt lat="43.56621" lon="3.89696">
        <ele>1.1</ele>
        <time>2017-10-27T09:14:19.432Z</time>
      </trkpt>
      <trkpt lat="43.56624" lon="3.89697">
        <ele>1.1</ele>
        <time>2017-10-27T09:14:20.445Z</time>
      </trkpt>
      <trkpt lat="43.56627" lon="3.89699">
        <ele>1.1</ele>
        <time>2017-10-27T09:14:21.454Z</time>
      </trkpt>
      <trkpt lat="43.56629" lon="3.897">
        <ele>1.1</ele>
        <time>2017-10-27T09:14:22.445Z</time>
      </trkpt>
      <trkpt lat="43.56632" lon="3.89701">
        <ele>1.1</ele>
        <time>2017-10-27T09:14:23.460Z</time>
      </trkpt>
      <trkpt lat="43.56635" lon="3.89702">
        <ele>1.1</ele>
        <time>2017-10-27T09:14:24.447Z</time>
      </trkpt>
      <trkpt lat="43.56637" lon="3.89703">
        <ele>1</ele>
        <time>2017-10-27T09:14:25.435Z</time>
      </trkpt>
      <trkpt lat="43.5664" lon="3.89703">
        <ele>1.1</ele>
        <time>2017-10-27T09:14:26.449Z</time>
      </trkpt>
      <trkpt lat="43.56643" lon="3.89704">
        <ele>1.1</ele>
        <time>2017-10-27T09:14:27.444Z</time>
      </trkpt>
      <trkpt lat="43.56646" lon="3.89706">
        <ele>1.1</ele>
        <time>2017-10-27T09:14:28.444Z</time>
      </trkpt>
      <trkpt lat="43.56649" lon="3.89707">
        <ele>1.1</ele>
        <time>2017-10-27T09:14:29.446Z</time>
      </trkpt>
      <trkpt lat="43.56652" lon="3.89708">
        <ele>1.2</ele>
        <time>2017-10-27T09:14:30.452Z</time>
      </trkpt>
      <trkpt lat="43.56655" lon="3.89708">
        <ele>1.2</ele>
        <time>2017-10-27T09:14:31.444Z</time>
      </trkpt>
      <trkpt lat="43.56658" lon="3.89709">
        <ele>1.2</ele>
        <time>2017-10-27T09:14:32.444Z</time>
      </trkpt>
      <trkpt lat="43.56661" lon="3.8971">
        <ele>1.3</ele>
        <time>2017-10-27T09:14:33.441Z</time>
      </trkpt>
      <trkpt lat="43.56663" lon="3.89711">
        <ele>1.2</ele>
        <time>2017-10-27T09:14:34.446Z</time>
      </trkpt>
      <trkpt lat="43.56666" lon="3.89711">
        <ele>1.2</ele>
        <time>2017-10-27T09:14:35.447Z</time>
      </trkpt>
      <trkpt lat="43.56668" lon="3.89712">
        <ele>1.2</ele>
        <time>2017-10-27T09:14:36.433Z</time>
      </trkpt>
      <trkpt lat="43.56671" lon="3.89713">
        <ele>1.2</ele>
        <time>2017-10-27T09:14:37.446Z</time>
      </trkpt>
      <trkpt lat="43.56674" lon="3.89713">
        <ele>1.3</ele>
        <time>2017-10-27T09:14:38.431Z</time>
      </trkpt>
      <trkpt lat="43.56677" lon="3.89714">
        <ele>1.2</ele>
        <time>2017-10-27T09:14:39.432Z</time>
      </trkpt>
      <trkpt lat="43.56679" lon="3.89715">
        <ele>1.2</ele>
        <time>2017-10-27T09:14:40.431Z</time>
      </trkpt>
      <trkpt lat="43.56682" lon="3.89715">
        <ele>1.2</ele>
        <time>2017-10-27T09:14:41.431Z</time>
      </trkpt>
      <trkpt lat="43.56685" lon="3.89716">
        <ele>1.2</ele>
        <time>2017-10-27T09:14:42.447Z</time>
      </trkpt>
      <trkpt lat="43.56688" lon="3.89717">
        <ele>1.3</ele>
        <time>2017-10-27T09:14:43.455Z</time>
      </trkpt>
      <trkpt lat="43.56691" lon="3.89717">
        <ele>1.4</ele>
        <time>2017-10-27T09:14:44.446Z</time>
      </trkpt>
      <trkpt lat="43.56693" lon="3.89718">
        <ele>1.5</ele>
        <time>2017-10-27T09:14:45.441Z</time>
      </trkpt>
      <trkpt lat="43.56696" lon="3.89718">
        <ele>1.5</ele>
        <time>2017-10-27T09:14:46.444Z</time>
      </trkpt>
      <trkpt lat="43.56698" lon="3.89719">
        <ele>1.5</ele>
        <time>2017-10-27T09:14:47.444Z</time>
      </trkpt>
      <trkpt lat="43.56701" lon="3.89719">
        <ele>1.5</ele>
        <time>2017-10-27T09:14:48.446Z</time>
      </trkpt>
      <trkpt lat="43.56704" lon="3.8972">
        <ele>1.5</ele>
        <time>2017-10-27T09:14:49.446Z</time>
      </trkpt>
      <trkpt lat="43.56706" lon="3.8972">
        <ele>1.5</ele>
        <time>2017-10-27T09:14:50.447Z</time>
      </trkpt>
      <trkpt lat="43.56708" lon="3.8972">
        <ele>1.5</ele>
        <time>2017-10-27T09:14:51.445Z</time>
      </trkpt>
      <trkpt lat="43.56711" lon="3.8972">
        <ele>1.5</ele>
        <time>2017-10-27T09:14:52.443Z</time>
      </trkpt>
      <trkpt lat="43.56713" lon="3.89721">
        <ele>1.5</ele>
        <time>2017-10-27T09:14:53.445Z</time>
      </trkpt>
      <trkpt lat="43.56715" lon="3.89721">
        <ele>1.5</ele>
        <time>2017-10-27T09:14:54.449Z</time>
      </trkpt>
      <trkpt lat="43.56718" lon="3.89721">
        <ele>1.5</ele>
        <time>2017-10-27T09:14:55.446Z</time>
      </trkpt>
      <trkpt lat="43.5672" lon="3.89721">
        <ele>1.5</ele>
        <time>2017-10-27T09:14:56.446Z</time>
      </trkpt>
      <trkpt lat="43.56723" lon="3.89721">
        <ele>1.5</ele>
        <time>2017-10-27T09:14:57.431Z</time>
      </trkpt>
      <trkpt lat="43.56725" lon="3.89722">
        <ele>1.4</ele>
        <time>2017-10-27T09:14:58.440Z</time>
      </trkpt>
      <trkpt lat="43.56728" lon="3.89722">
        <ele>1.4</ele>
        <time>2017-10-27T09:14:59.445Z</time>
      </trkpt>
      <trkpt lat="43.5673" lon="3.89723">
        <ele>1.4</ele>
        <time>2017-10-27T09:15:00.433Z</time>
      </trkpt>
      <trkpt lat="43.56733" lon="3.89723">
        <ele>1.3</ele>
        <time>2017-10-27T09:15:01.438Z</time>
      </trkpt>
      <trkpt lat="43.56735" lon="3.89723">
        <ele>1.3</ele>
        <time>2017-10-27T09:15:02.434Z</time>
      </trkpt>
      <trkpt lat="43.56738" lon="3.89724">
        <ele>1.3</ele>
        <time>2017-10-27T09:15:03.434Z</time>
      </trkpt>
      <trkpt lat="43.56741" lon="3.89724">
        <ele>1.2</ele>
        <time>2017-10-27T09:15:04.456Z</time>
      </trkpt>
      <trkpt lat="43.56743" lon="3.89725">
        <ele>1.2</ele>
        <time>2017-10-27T09:15:05.469Z</time>
      </trkpt>
      <trkpt lat="43.56746" lon="3.89725">
        <ele>1.3</ele>
        <time>2017-10-27T09:15:06.471Z</time>
      </trkpt>
      <trkpt lat="43.56749" lon="3.89726">
        <ele>1.3</ele>
        <time>2017-10-27T09:15:07.444Z</time>
      </trkpt>
      <trkpt lat="43.56752" lon="3.89726">
        <ele>1.3</ele>
        <time>2017-10-27T09:15:08.433Z</time>
      </trkpt>
      <trkpt lat="43.56754" lon="3.89726">
        <ele>1.3</ele>
        <time>2017-10-27T09:15:09.451Z</time>
      </trkpt>
      <trkpt lat="43.56757" lon="3.89727">
        <ele>1.4</ele>
        <time>2017-10-27T09:15:10.445Z</time>
      </trkpt>
      <trkpt lat="43.5676" lon="3.89727">
        <ele>1.4</ele>
        <time>2017-10-27T09:15:11.445Z</time>
      </trkpt>
      <trkpt lat="43.56762" lon="3.89728">
        <ele>1.4</ele>
        <time>2017-10-27T09:15:12.447Z</time>
      </trkpt>
      <trkpt lat="43.56765" lon="3.89728">
        <ele>1.4</ele>
        <time>2017-10-27T09:15:13.451Z</time>
      </trkpt>
      <trkpt lat="43.56768" lon="3.89729">
        <ele>1.3</ele>
        <time>2017-10-27T09:15:14.446Z</time>
      </trkpt>
      <trkpt lat="43.5677" lon="3.89729">
        <ele>1.3</ele>
        <time>2017-10-27T09:15:15.446Z</time>
      </trkpt>
      <trkpt lat="43.56773" lon="3.89729">
        <ele>1.3</ele>
        <time>2017-10-27T09:15:16.452Z</time>
      </trkpt>
      <trkpt lat="43.56775" lon="3.8973">
        <ele>1.3</ele>
        <time>2017-10-27T09:15:17.453Z</time>
      </trkpt>
      <trkpt lat="43.56778" lon="3.8973">
        <ele>1.4</ele>
        <time>2017-10-27T09:15:18.433Z</time>
      </trkpt>
      <trkpt lat="43.5678" lon="3.89731">
        <ele>1.4</ele>
        <time>2017-10-27T09:15:19.434Z</time>
      </trkpt>
      <trkpt lat="43.56783" lon="3.89731">
        <ele>1.4</ele>
        <time>2017-10-27T09:15:20.432Z</time>
      </trkpt>
      <trkpt lat="43.56785" lon="3.89732">
        <ele>1.4</ele>
        <time>2017-10-27T09:15:21.438Z</time>
      </trkpt>
      <trkpt lat="43.56788" lon="3.89732">
        <ele>1.4</ele>
        <time>2017-10-27T09:15:22.446Z</time>
      </trkpt>
      <trkpt lat="43.5679" lon="3.89733">
        <ele>1.4</ele>
        <time>2017-10-27T09:15:23.446Z</time>
      </trkpt>
      <trkpt lat="43.56793" lon="3.89733">
        <ele>1.4</ele>
        <time>2017-10-27T09:15:24.447Z</time>
      </trkpt>
      <trkpt lat="43.56796" lon="3.89734">
        <ele>1.4</ele>
        <time>2017-10-27T09:15:25.451Z</time>
      </trkpt>
      <trkpt lat="43.56798" lon="3.89735">
        <ele>1.4</ele>
        <time>2017-10-27T09:15:26.445Z</time>
      </trkpt>
      <trkpt lat="43.56801" lon="3.89735">
        <ele>1.4</ele>
        <time>2017-10-27T09:15:27.446Z</time>
      </trkpt>
      <trkpt lat="43.56803" lon="3.89736">
        <ele>1.4</ele>
        <time>2017-10-27T09:15:28.445Z</time>
      </trkpt>
      <trkpt lat="43.56806" lon="3.89737">
        <ele>1.4</ele>
        <time>2017-10-27T09:15:29.446Z</time>
      </trkpt>
      <trkpt lat="43.56809" lon="3.89737">
        <ele>1.4</ele>
        <time>2017-10-27T09:15:30.471Z</time>
      </trkpt>
      <trkpt lat="43.56811" lon="3.89738">
        <ele>1.5</ele>
        <time>2017-10-27T09:15:31.448Z</time>
      </trkpt>
      <trkpt lat="43.56814" lon="3.89739">
        <ele>1.5</ele>
        <time>2017-10-27T09:15:32.449Z</time>
      </trkpt>
      <trkpt lat="43.56817" lon="3.89739">
        <ele>1.4</ele>
        <time>2017-10-27T09:15:33.446Z</time>
      </trkpt>
      <trkpt lat="43.5682" lon="3.8974">
        <ele>1.4</ele>
        <time>2017-10-27T09:15:34.447Z</time>
      </trkpt>
      <trkpt lat="43.56822" lon="3.8974">
        <ele>1.5</ele>
        <time>2017-10-27T09:15:35.447Z</time>
      </trkpt>
      <trkpt lat="43.56825" lon="3.89741">
        <ele>1.5</ele>
        <time>2017-10-27T09:15:36.434Z</time>
      </trkpt>
      <trkpt lat="43.56828" lon="3.89741">
        <ele>1.5</ele>
        <time>2017-10-27T09:15:37.436Z</time>
      </trkpt>
      <trkpt lat="43.5683" lon="3.89742">
        <ele>1.5</ele>
        <time>2017-10-27T09:15:38.431Z</time>
      </trkpt>
      <trkpt lat="43.56833" lon="3.89743">
        <ele>1.5</ele>
        <time>2017-10-27T09:15:39.432Z</time>
      </trkpt>
      <trkpt lat="43.56836" lon="3.89743">
        <ele>1.5</ele>
        <time>2017-10-27T09:15:40.451Z</time>
      </trkpt>
      <trkpt lat="43.56838" lon="3.89744">
        <ele>1.5</ele>
        <time>2017-10-27T09:15:41.447Z</time>
      </trkpt>
      <trkpt lat="43.56841" lon="3.89745">
        <ele>1.5</ele>
        <time>2017-10-27T09:15:42.451Z</time>
      </trkpt>
      <trkpt lat="43.56844" lon="3.89746">
        <ele>1.5</ele>
        <time>2017-10-27T09:15:43.448Z</time>
      </trkpt>
      <trkpt lat="43.56846" lon="3.89746">
        <ele>1.6</ele>
        <time>2017-10-27T09:15:44.450Z</time>
      </trkpt>
      <trkpt lat="43.56849" lon="3.89747">
        <ele>1.6</ele>
        <time>2017-10-27T09:15:45.450Z</time>
      </trkpt>
      <trkpt lat="43.56852" lon="3.89747">
        <ele>1.5</ele>
        <time>2017-10-27T09:15:46.447Z</time>
      </trkpt>
      <trkpt lat="43.56855" lon="3.89748">
        <ele>1.6</ele>
        <time>2017-10-27T09:15:47.445Z</time>
      </trkpt>
      <trkpt lat="43.56858" lon="3.89749">
        <ele>1.6</ele>
        <time>2017-10-27T09:15:48.448Z</time>
      </trkpt>
      <trkpt lat="43.56861" lon="3.8975">
        <ele>1.6</ele>
        <time>2017-10-27T09:15:49.445Z</time>
      </trkpt>
      <trkpt lat="43.56864" lon="3.8975">
        <ele>1.6</ele>
        <time>2017-10-27T09:15:50.446Z</time>
      </trkpt>
      <trkpt lat="43.56867" lon="3.89751">
        <ele>1.6</ele>
        <time>2017-10-27T09:15:51.450Z</time>
      </trkpt>
      <trkpt lat="43.56869" lon="3.89752">
        <ele>1.7</ele>
        <time>2017-10-27T09:15:52.447Z</time>
      </trkpt>
      <trkpt lat="43.56872" lon="3.89752">
        <ele>1.7</ele>
        <time>2017-10-27T09:15:53.442Z</time>
      </trkpt>
      <trkpt lat="43.56875" lon="3.89753">
        <ele>1.7</ele>
        <time>2017-10-27T09:15:54.446Z</time>
      </trkpt>
      <trkpt lat="43.56877" lon="3.89754">
        <ele>1.8</ele>
        <time>2017-10-27T09:15:55.437Z</time>
      </trkpt>
      <trkpt lat="43.5688" lon="3.89754">
        <ele>1.8</ele>
        <time>2017-10-27T09:15:56.432Z</time>
      </trkpt>
      <trkpt lat="43.56883" lon="3.89755">
        <ele>1.8</ele>
        <time>2017-10-27T09:15:57.437Z</time>
      </trkpt>
      <trkpt lat="43.56885" lon="3.89756">
        <ele>1.8</ele>
        <time>2017-10-27T09:15:58.442Z</time>
      </trkpt>
      <trkpt lat="43.56888" lon="3.89756">
        <ele>1.8</ele>
        <time>2017-10-27T09:15:59.452Z</time>
      </trkpt>
      <trkpt lat="43.56891" lon="3.89757">
        <ele>1.8</ele>
        <time>2017-10-27T09:16:00.484Z</time>
      </trkpt>
      <trkpt lat="43.56894" lon="3.89758">
        <ele>1.8</ele>
        <time>2017-10-27T09:16:01.457Z</time>
      </trkpt>
      <trkpt lat="43.56897" lon="3.89759">
        <ele>1.8</ele>
        <time>2017-10-27T09:16:02.466Z</time>
      </trkpt>
      <trkpt lat="43.569" lon="3.89759">
        <ele>1.7</ele>
        <time>2017-10-27T09:16:03.454Z</time>
      </trkpt>
      <trkpt lat="43.56903" lon="3.8976">
        <ele>1.7</ele>
        <time>2017-10-27T09:16:04.454Z</time>
      </trkpt>
      <trkpt lat="43.56906" lon="3.89761">
        <ele>1.6</ele>
        <time>2017-10-27T09:16:05.454Z</time>
      </trkpt>
      <trkpt lat="43.56909" lon="3.89761">
        <ele>1.7</ele>
        <time>2017-10-27T09:16:06.433Z</time>
      </trkpt>
      <trkpt lat="43.56912" lon="3.89762">
        <ele>1.7</ele>
        <time>2017-10-27T09:16:07.447Z</time>
      </trkpt>
      <trkpt lat="43.56915" lon="3.89763">
        <ele>1.7</ele>
        <time>2017-10-27T09:16:08.448Z</time>
      </trkpt>
      <trkpt lat="43.56919" lon="3.89764">
        <ele>1.8</ele>
        <time>2017-10-27T09:16:09.445Z</time>
      </trkpt>
      <trkpt lat="43.56922" lon="3.89765">
        <ele>1.7</ele>
        <time>2017-10-27T09:16:10.447Z</time>
      </trkpt>
      <trkpt lat="43.56925" lon="3.89766">
        <ele>1.8</ele>
        <time>2017-10-27T09:16:11.446Z</time>
      </trkpt>
      <trkpt lat="43.56928" lon="3.89767">
        <ele>1.8</ele>
        <time>2017-10-27T09:16:12.455Z</time>
      </trkpt>
      <trkpt lat="43.56931" lon="3.89767">
        <ele>1.7</ele>
        <time>2017-10-27T09:16:13.447Z</time>
      </trkpt>
      <trkpt lat="43.56935" lon="3.89768">
        <ele>1.7</ele>
        <time>2017-10-27T09:16:14.446Z</time>
      </trkpt>
      <trkpt lat="43.56938" lon="3.8977">
        <ele>1.7</ele>
        <time>2017-10-27T09:16:15.445Z</time>
      </trkpt>
      <trkpt lat="43.56941" lon="3.89771">
        <ele>1.7</ele>
        <time>2017-10-27T09:16:16.433Z</time>
      </trkpt>
      <trkpt lat="43.56945" lon="3.89772">
        <ele>1.7</ele>
        <time>2017-10-27T09:16:17.432Z</time>
      </trkpt>
      <trkpt lat="43.56948" lon="3.89773">
        <ele>1.8</ele>
        <time>2017-10-27T09:16:18.437Z</time>
      </trkpt>
      <trkpt lat="43.56951" lon="3.89774">
        <ele>1.8</ele>
        <time>2017-10-27T09:16:19.446Z</time>
      </trkpt>
      <trkpt lat="43.56954" lon="3.89775">
        <ele>1.8</ele>
        <time>2017-10-27T09:16:20.446Z</time>
      </trkpt>
      <trkpt lat="43.56957" lon="3.89776">
        <ele>1.8</ele>
        <time>2017-10-27T09:16:21.453Z</time>
      </trkpt>
      <trkpt lat="43.5696" lon="3.89777">
        <ele>1.7</ele>
        <time>2017-10-27T09:16:22.449Z</time>
      </trkpt>
      <trkpt lat="43.56963" lon="3.89778">
        <ele>1.7</ele>
        <time>2017-10-27T09:16:23.450Z</time>
      </trkpt>
      <trkpt lat="43.56966" lon="3.89779">
        <ele>1.7</ele>
        <time>2017-10-27T09:16:24.435Z</time>
      </trkpt>
      <trkpt lat="43.56969" lon="3.8978">
        <ele>1.6</ele>
        <time>2017-10-27T09:16:25.437Z</time>
      </trkpt>
      <trkpt lat="43.56972" lon="3.89781">
        <ele>1.6</ele>
        <time>2017-10-27T09:16:26.458Z</time>
      </trkpt>
      <trkpt lat="43.56975" lon="3.89783">
        <ele>1.6</ele>
        <time>2017-10-27T09:16:27.454Z</time>
      </trkpt>
      <trkpt lat="43.56978" lon="3.89784">
        <ele>1.6</ele>
        <time>2017-10-27T09:16:28.442Z</time>
      </trkpt>
      <trkpt lat="43.56981" lon="3.89785">
        <ele>1.6</ele>
        <time>2017-10-27T09:16:29.451Z</time>
      </trkpt>
      <trkpt lat="43.56984" lon="3.89786">
        <ele>1.6</ele>
        <time>2017-10-27T09:16:30.449Z</time>
      </trkpt>
      <trkpt lat="43.56988" lon="3.89787">
        <ele>1.5</ele>
        <time>2017-10-27T09:16:31.448Z</time>
      </trkpt>
      <trkpt lat="43.56991" lon="3.89788">
        <ele>1.5</ele>
        <time>2017-10-27T09:16:32.450Z</time>
      </trkpt>
      <trkpt lat="43.56994" lon="3.89789">
        <ele>1.4</ele>
        <time>2017-10-27T09:16:33.453Z</time>
      </trkpt>
      <trkpt lat="43.56997" lon="3.8979">
        <ele>1.3</ele>
        <time>2017-10-27T09:16:34.452Z</time>
      </trkpt>
      <trkpt lat="43.57" lon="3.89791">
        <ele>1.4</ele>
        <time>2017-10-27T09:16:35.450Z</time>
      </trkpt>
      <trkpt lat="43.57003" lon="3.89792">
        <ele>1.4</ele>
        <time>2017-10-27T09:16:36.452Z</time>
      </trkpt>
      <trkpt lat="43.57006" lon="3.89794">
        <ele>1.4</ele>
        <time>2017-10-27T09:16:37.455Z</time>
      </trkpt>
      <trkpt lat="43.57009" lon="3.89795">
        <ele>1.4</ele>
        <time>2017-10-27T09:16:38.446Z</time>
      </trkpt>
      <trkpt lat="43.57012" lon="3.89796">
        <ele>1.4</ele>
        <time>2017-10-27T09:16:39.446Z</time>
      </trkpt>
      <trkpt lat="43.57014" lon="3.89797">
        <ele>1.3</ele>
        <time>2017-10-27T09:16:40.444Z</time>
      </trkpt>
      <trkpt lat="43.57017" lon="3.89798">
        <ele>1.3</ele>
        <time>2017-10-27T09:16:41.432Z</time>
      </trkpt>
      <trkpt lat="43.57019" lon="3.89799">
        <ele>1.3</ele>
        <time>2017-10-27T09:16:42.436Z</time>
      </trkpt>
      <trkpt lat="43.57021" lon="3.89799">
        <ele>1.3</ele>
        <time>2017-10-27T09:16:43.439Z</time>
      </trkpt>
      <trkpt lat="43.57023" lon="3.89799">
        <ele>1.2</ele>
        <time>2017-10-27T09:16:44.474Z</time>
      </trkpt>
      <trkpt lat="43.57026" lon="3.898">
        <ele>1.2</ele>
        <time>2017-10-27T09:16:45.449Z</time>
      </trkpt>
      <trkpt lat="43.57028" lon="3.89801">
        <ele>1.2</ele>
        <time>2017-10-27T09:16:46.443Z</time>
      </trkpt>
      <trkpt lat="43.5703" lon="3.89802">
        <ele>1.2</ele>
        <time>2017-10-27T09:16:47.445Z</time>
      </trkpt>
      <trkpt lat="43.57032" lon="3.89803">
        <ele>1.1</ele>
        <time>2017-10-27T09:16:48.433Z</time>
      </trkpt>
      <trkpt lat="43.57035" lon="3.89804">
        <ele>1.1</ele>
        <time>2017-10-27T09:16:49.432Z</time>
      </trkpt>
      <trkpt lat="43.57037" lon="3.89805">
        <ele>1.1</ele>
        <time>2017-10-27T09:16:50.433Z</time>
      </trkpt>
      <trkpt lat="43.57039" lon="3.89806">
        <ele>1.1</ele>
        <time>2017-10-27T09:16:51.442Z</time>
      </trkpt>
      <trkpt lat="43.57041" lon="3.89806">
        <ele>1.1</ele>
        <time>2017-10-27T09:16:52.451Z</time>
      </trkpt>
      <trkpt lat="43.57043" lon="3.89807">
        <ele>1.2</ele>
        <time>2017-10-27T09:16:53.460Z</time>
      </trkpt>
      <trkpt lat="43.57045" lon="3.89808">
        <ele>1.2</ele>
        <time>2017-10-27T09:16:54.463Z</time>
      </trkpt>
      <trkpt lat="43.57047" lon="3.89809">
        <ele>1.4</ele>
        <time>2017-10-27T09:16:55.454Z</time>
      </trkpt>
      <trkpt lat="43.57049" lon="3.8981">
        <ele>1.6</ele>
        <time>2017-10-27T09:16:56.455Z</time>
      </trkpt>
      <trkpt lat="43.5705" lon="3.89812">
        <ele>1.9</ele>
        <time>2017-10-27T09:16:57.432Z</time>
      </trkpt>
      <trkpt lat="43.57051" lon="3.89814">
        <ele>1.8</ele>
        <time>2017-10-27T09:16:58.446Z</time>
      </trkpt>
      <trkpt lat="43.57051" lon="3.89816">
        <ele>1.7</ele>
        <time>2017-10-27T09:16:59.450Z</time>
      </trkpt>
      <trkpt lat="43.5705" lon="3.89818">
        <ele>1.5</ele>
        <time>2017-10-27T09:17:00.447Z</time>
      </trkpt>
      <trkpt lat="43.57049" lon="3.89821">
        <ele>1.3</ele>
        <time>2017-10-27T09:17:01.446Z</time>
      </trkpt>
      <trkpt lat="43.57047" lon="3.89823">
        <ele>1.1</ele>
        <time>2017-10-27T09:17:02.432Z</time>
      </trkpt>
      <trkpt lat="43.57044" lon="3.89826">
        <ele>0.8</ele>
        <time>2017-10-27T09:17:03.432Z</time>
      </trkpt>
      <trkpt lat="43.57042" lon="3.89829">
        <ele>0.4</ele>
        <time>2017-10-27T09:17:04.438Z</time>
      </trkpt>
      <trkpt lat="43.57039" lon="3.89832">
        <ele>0.1</ele>
        <time>2017-10-27T09:17:05.456Z</time>
      </trkpt>
      <trkpt lat="43.57035" lon="3.89836">
        <ele>-0.3</ele>
        <time>2017-10-27T09:17:06.447Z</time>
      </trkpt>
      <trkpt lat="43.57032" lon="3.89839">
        <ele>-0.6</ele>
        <time>2017-10-27T09:17:07.452Z</time>
      </trkpt>
      <trkpt lat="43.57029" lon="3.89842">
        <ele>-0.9</ele>
        <time>2017-10-27T09:17:08.448Z</time>
      </trkpt>
      <trkpt lat="43.57026" lon="3.89845">
        <ele>-1.3</ele>
        <time>2017-10-27T09:17:09.451Z</time>
      </trkpt>
      <trkpt lat="43.57023" lon="3.89848">
        <ele>-1.7</ele>
        <time>2017-10-27T09:17:10.459Z</time>
      </trkpt>
      <trkpt lat="43.57021" lon="3.8985">
        <ele>-2</ele>
        <time>2017-10-27T09:17:11.450Z</time>
      </trkpt>
      <trkpt lat="43.57019" lon="3.89851">
        <ele>-2.3</ele>
        <time>2017-10-27T09:17:12.447Z</time>
      </trkpt>
      <trkpt lat="43.57017" lon="3.89852">
        <ele>-2.8</ele>
        <time>2017-10-27T09:17:13.446Z</time>
      </trkpt>
      <trkpt lat="43.57015" lon="3.89854">
        <ele>-3.1</ele>
        <time>2017-10-27T09:17:14.452Z</time>
      </trkpt>
      <trkpt lat="43.57016" lon="3.8986">
        <ele>-3.4</ele>
        <time>2017-10-27T09:17:20.449Z</time>
      </trkpt>
      <trkpt lat="43.57017" lon="3.89862">
        <ele>-3.5</ele>
        <time>2017-10-27T09:17:21.446Z</time>
      </trkpt>
      <trkpt lat="43.57019" lon="3.89865">
        <ele>-3.7</ele>
        <time>2017-10-27T09:17:22.448Z</time>
      </trkpt>
      <trkpt lat="43.5702" lon="3.89868">
        <ele>-3.8</ele>
        <time>2017-10-27T09:17:23.447Z</time>
      </trkpt>
      <trkpt lat="43.57021" lon="3.89871">
        <ele>-4.1</ele>
        <time>2017-10-27T09:17:24.436Z</time>
      </trkpt>
      <trkpt lat="43.57023" lon="3.89875">
        <ele>-4.2</ele>
        <time>2017-10-27T09:17:25.432Z</time>
      </trkpt>
      <trkpt lat="43.57024" lon="3.89879">
        <ele>-4.4</ele>
        <time>2017-10-27T09:17:26.432Z</time>
      </trkpt>
      <trkpt lat="43.57027" lon="3.89883">
        <ele>-4.8</ele>
        <time>2017-10-27T09:17:27.434Z</time>
      </trkpt>
      <trkpt lat="43.5703" lon="3.89886">
        <ele>-5</ele>
        <time>2017-10-27T09:17:28.432Z</time>
      </trkpt>
      <trkpt lat="43.57033" lon="3.89889">
        <ele>-5.2</ele>
        <time>2017-10-27T09:17:29.450Z</time>
      </trkpt>
      <trkpt lat="43.57037" lon="3.89892">
        <ele>-5.5</ele>
        <time>2017-10-27T09:17:30.438Z</time>
      </trkpt>
      <trkpt lat="43.57041" lon="3.89894">
        <ele>-5.7</ele>
        <time>2017-10-27T09:17:31.444Z</time>
      </trkpt>
      <trkpt lat="43.57046" lon="3.89896">
        <ele>-6</ele>
        <time>2017-10-27T09:17:32.437Z</time>
      </trkpt>
      <trkpt lat="43.5705" lon="3.89898">
        <ele>-6.2</ele>
        <time>2017-10-27T09:17:33.446Z</time>
      </trkpt>
      <trkpt lat="43.57054" lon="3.899">
        <ele>-6.3</ele>
        <time>2017-10-27T09:17:34.456Z</time>
      </trkpt>
      <trkpt lat="43.57058" lon="3.89903">
        <ele>-6.5</ele>
        <time>2017-10-27T09:17:35.435Z</time>
      </trkpt>
      <trkpt lat="43.57062" lon="3.89906">
        <ele>-6.8</ele>
        <time>2017-10-27T09:17:36.447Z</time>
      </trkpt>
      <trkpt lat="43.57065" lon="3.89909">
        <ele>-6.8</ele>
        <time>2017-10-27T09:17:37.446Z</time>
      </trkpt>
      <trkpt lat="43.57068" lon="3.89912">
        <ele>-6.7</ele>
        <time>2017-10-27T09:17:38.449Z</time>
      </trkpt>
      <trkpt lat="43.5707" lon="3.89915">
        <ele>-6</ele>
        <time>2017-10-27T09:17:39.446Z</time>
      </trkpt>
      <trkpt lat="43.57073" lon="3.89918">
        <ele>-5.6</ele>
        <time>2017-10-27T09:17:40.437Z</time>
      </trkpt>
      <trkpt lat="43.57074" lon="3.89921">
        <ele>-5.2</ele>
        <time>2017-10-27T09:17:41.441Z</time>
      </trkpt>
      <trkpt lat="43.57076" lon="3.89924">
        <ele>-5.1</ele>
        <time>2017-10-27T09:17:42.452Z</time>
      </trkpt>
      <trkpt lat="43.57077" lon="3.89927">
        <ele>-4.8</ele>
        <time>2017-10-27T09:17:43.441Z</time>
      </trkpt>
      <trkpt lat="43.57078" lon="3.8993">
        <ele>-4.5</ele>
        <time>2017-10-27T09:17:44.454Z</time>
      </trkpt>
      <trkpt lat="43.5708" lon="3.89932">
        <ele>-4.5</ele>
        <time>2017-10-27T09:17:45.434Z</time>
      </trkpt>
      <trkpt lat="43.57082" lon="3.89933">
        <ele>-4.4</ele>
        <time>2017-10-27T09:17:46.432Z</time>
      </trkpt>
      <trkpt lat="43.57083" lon="3.89932">
        <ele>-4.3</ele>
        <time>2017-10-27T09:17:47.433Z</time>
      </trkpt>
      <trkpt lat="43.57084" lon="3.8993">
        <ele>-4.3</ele>
        <time>2017-10-27T09:17:48.445Z</time>
      </trkpt>
      <trkpt lat="43.57084" lon="3.89928">
        <ele>-4.3</ele>
        <time>2017-10-27T09:17:49.451Z</time>
      </trkpt>
      <trkpt lat="43.57083" lon="3.89925">
        <ele>-4.6</ele>
        <time>2017-10-27T09:17:50.448Z</time>
      </trkpt>
      <trkpt lat="43.57082" lon="3.89922">
        <ele>-4.9</ele>
        <time>2017-10-27T09:17:51.446Z</time>
      </trkpt>
      <trkpt lat="43.57081" lon="3.89919">
        <ele>-5.2</ele>
        <time>2017-10-27T09:17:52.445Z</time>
      </trkpt>
      <trkpt lat="43.57079" lon="3.89916">
        <ele>-5.3</ele>
        <time>2017-10-27T09:17:53.447Z</time>
      </trkpt>
      <trkpt lat="43.57078" lon="3.89913">
        <ele>-5.6</ele>
        <time>2017-10-27T09:17:54.451Z</time>
      </trkpt>
      <trkpt lat="43.57077" lon="3.8991">
        <ele>-5.8</ele>
        <time>2017-10-27T09:17:55.452Z</time>
      </trkpt>
      <trkpt lat="43.57075" lon="3.89908">
        <ele>-6</ele>
        <time>2017-10-27T09:17:56.445Z</time>
      </trkpt>
      <trkpt lat="43.57074" lon="3.89904">
        <ele>-6.2</ele>
        <time>2017-10-27T09:17:57.434Z</time>
      </trkpt>
      <trkpt lat="43.57074" lon="3.89902">
        <ele>-6.9</ele>
        <time>2017-10-27T09:17:58.447Z</time>
      </trkpt>
      <trkpt lat="43.57075" lon="3.89898">
        <ele>-7.5</ele>
        <time>2017-10-27T09:17:59.447Z</time>
      </trkpt>
      <trkpt lat="43.57076" lon="3.89895">
        <ele>-7.9</ele>
        <time>2017-10-27T09:18:00.449Z</time>
      </trkpt>
      <trkpt lat="43.57076" lon="3.89891">
        <ele>-7.7</ele>
        <time>2017-10-27T09:18:01.453Z</time>
      </trkpt>
      <trkpt lat="43.57074" lon="3.89888">
        <ele>-7.6</ele>
        <time>2017-10-27T09:18:02.432Z</time>
      </trkpt>
      <trkpt lat="43.57073" lon="3.89885">
        <ele>-7.1</ele>
        <time>2017-10-27T09:18:03.434Z</time>
      </trkpt>
      <trkpt lat="43.57071" lon="3.89882">
        <ele>-7.2</ele>
        <time>2017-10-27T09:18:04.437Z</time>
      </trkpt>
      <trkpt lat="43.57071" lon="3.89878">
        <ele>-7.5</ele>
        <time>2017-10-27T09:18:05.448Z</time>
      </trkpt>
      <trkpt lat="43.57073" lon="3.89874">
        <ele>-7.2</ele>
        <time>2017-10-27T09:18:06.452Z</time>
      </trkpt>
      <trkpt lat="43.57075" lon="3.8987">
        <ele>-6.9</ele>
        <time>2017-10-27T09:18:07.451Z</time>
      </trkpt>
      <trkpt lat="43.57077" lon="3.89865">
        <ele>-5.8</ele>
        <time>2017-10-27T09:18:08.448Z</time>
      </trkpt>
      <trkpt lat="43.57079" lon="3.89861">
        <ele>-4.2</ele>
        <time>2017-10-27T09:18:09.433Z</time>
      </trkpt>
      <trkpt lat="43.57081" lon="3.89857">
        <ele>-3.8</ele>
        <time>2017-10-27T09:18:10.441Z</time>
      </trkpt>
      <trkpt lat="43.57082" lon="3.89853">
        <ele>-3.2</ele>
        <time>2017-10-27T09:18:11.438Z</time>
      </trkpt>
      <trkpt lat="43.57084" lon="3.8985">
        <ele>-2.7</ele>
        <time>2017-10-27T09:18:12.435Z</time>
      </trkpt>
      <trkpt lat="43.57086" lon="3.89847">
        <ele>-2.3</ele>
        <time>2017-10-27T09:18:13.450Z</time>
      </trkpt>
      <trkpt lat="43.57087" lon="3.89844">
        <ele>-1.9</ele>
        <time>2017-10-27T09:18:14.447Z</time>
      </trkpt>
      <trkpt lat="43.57089" lon="3.89842">
        <ele>-1.5</ele>
        <time>2017-10-27T09:18:15.446Z</time>
      </trkpt>
      <trkpt lat="43.5709" lon="3.8984">
        <ele>-1.1</ele>
        <time>2017-10-27T09:18:16.444Z</time>
      </trkpt>
      <trkpt lat="43.57092" lon="3.89838">
        <ele>-0.7</ele>
        <time>2017-10-27T09:18:17.446Z</time>
      </trkpt>
      <trkpt lat="43.57093" lon="3.89836">
        <ele>-0.5</ele>
        <time>2017-10-27T09:18:18.459Z</time>
      </trkpt>
      <trkpt lat="43.57095" lon="3.89834">
        <ele>0.1</ele>
        <time>2017-10-27T09:18:19.448Z</time>
      </trkpt>
      <trkpt lat="43.57097" lon="3.89832">
        <ele>0.3</ele>
        <time>2017-10-27T09:18:20.432Z</time>
      </trkpt>
      <trkpt lat="43.57099" lon="3.8983">
        <ele>0.8</ele>
        <time>2017-10-27T09:18:21.434Z</time>
      </trkpt>
      <trkpt lat="43.57101" lon="3.89828">
        <ele>0.4</ele>
        <time>2017-10-27T09:18:22.432Z</time>
      </trkpt>
      <trkpt lat="43.57103" lon="3.89826">
        <ele>0.7</ele>
        <time>2017-10-27T09:18:23.434Z</time>
      </trkpt>
      <trkpt lat="43.57104" lon="3.89824">
        <ele>0.8</ele>
        <time>2017-10-27T09:18:24.446Z</time>
      </trkpt>
      <trkpt lat="43.57106" lon="3.89823">
        <ele>0.7</ele>
        <time>2017-10-27T09:18:25.451Z</time>
      </trkpt>
      <trkpt lat="43.57108" lon="3.89821">
        <ele>0.9</ele>
        <time>2017-10-27T09:18:26.448Z</time>
      </trkpt>
      <trkpt lat="43.57109" lon="3.8982">
        <ele>0.9</ele>
        <time>2017-10-27T09:18:27.448Z</time>
      </trkpt>
      <trkpt lat="43.57111" lon="3.89819">
        <ele>0.9</ele>
        <time>2017-10-27T09:18:28.445Z</time>
      </trkpt>
      <trkpt lat="43.57113" lon="3.89817">
        <ele>0.8</ele>
        <time>2017-10-27T09:18:29.444Z</time>
      </trkpt>
      <trkpt lat="43.57115" lon="3.89816">
        <ele>0.7</ele>
        <time>2017-10-27T09:18:30.439Z</time>
      </trkpt>
      <trkpt lat="43.57116" lon="3.89815">
        <ele>0.6</ele>
        <time>2017-10-27T09:18:31.438Z</time>
      </trkpt>
      <trkpt lat="43.57118" lon="3.89814">
        <ele>0.7</ele>
        <time>2017-10-27T09:18:32.448Z</time>
      </trkpt>
      <trkpt lat="43.57118" lon="3.89812">
        <ele>0.7</ele>
        <time>2017-10-27T09:18:33.448Z</time>
      </trkpt>
      <trkpt lat="43.57118" lon="3.89812">
        <ele>0.7</ele>
        <time>2017-10-27T09:23:17.443Z</time>
      </trkpt>
      <trkpt lat="43.57122" lon="3.89811">
        <ele>0.2</ele>
        <time>2017-10-27T09:23:30.434Z</time>
      </trkpt>
      <trkpt lat="43.57124" lon="3.89812">
        <ele>0.1</ele>
        <time>2017-10-27T09:23:31.445Z</time>
      </trkpt>
      <trkpt lat="43.57126" lon="3.89812">
        <ele>0.1</ele>
        <time>2017-10-27T09:23:32.446Z</time>
      </trkpt>
      <trkpt lat="43.57128" lon="3.89812">
        <ele>0.1</ele>
        <time>2017-10-27T09:23:33.447Z</time>
      </trkpt>
      <trkpt lat="43.5713" lon="3.89812">
        <ele>7.3</ele>
        <time>2017-10-27T09:23:34.446Z</time>
      </trkpt>
      <trkpt lat="43.57132" lon="3.89812">
        <ele>0.1</ele>
        <time>2017-10-27T09:23:35.448Z</time>
      </trkpt>
      <trkpt lat="43.57134" lon="3.89813">
        <ele>0.1</ele>
        <time>2017-10-27T09:23:36.448Z</time>
      </trkpt>
      <trkpt lat="43.57137" lon="3.89813">
        <ele>7.2</ele>
        <time>2017-10-27T09:23:37.446Z</time>
      </trkpt>
      <trkpt lat="43.5714" lon="3.89813">
        <ele>0.1</ele>
        <time>2017-10-27T09:23:38.446Z</time>
      </trkpt>
      <trkpt lat="43.57142" lon="3.89813">
        <ele>6.9</ele>
        <time>2017-10-27T09:23:39.449Z</time>
      </trkpt>
      <trkpt lat="43.57145" lon="3.89813">
        <ele>0.1</ele>
        <time>2017-10-27T09:23:40.446Z</time>
      </trkpt>
      <trkpt lat="43.57147" lon="3.89814">
        <ele>0.2</ele>
        <time>2017-10-27T09:23:41.446Z</time>
      </trkpt>
      <trkpt lat="43.5715" lon="3.89815">
        <ele>0.3</ele>
        <time>2017-10-27T09:23:42.454Z</time>
      </trkpt>
      <trkpt lat="43.57152" lon="3.89817">
        <ele>0.4</ele>
        <time>2017-10-27T09:23:43.456Z</time>
      </trkpt>
      <trkpt lat="43.57153" lon="3.89819">
        <ele>0.4</ele>
        <time>2017-10-27T09:23:44.448Z</time>
      </trkpt>
      <trkpt lat="43.57155" lon="3.89822">
        <ele>0.4</ele>
        <time>2017-10-27T09:23:45.447Z</time>
      </trkpt>
      <trkpt lat="43.57156" lon="3.89825">
        <ele>0.5</ele>
        <time>2017-10-27T09:23:46.447Z</time>
      </trkpt>
      <trkpt lat="43.57158" lon="3.89827">
        <ele>0.5</ele>
        <time>2017-10-27T09:23:47.450Z</time>
      </trkpt>
      <trkpt lat="43.57159" lon="3.89829">
        <ele>0.4</ele>
        <time>2017-10-27T09:23:48.450Z</time>
      </trkpt>
      <trkpt lat="43.57161" lon="3.8983">
        <ele>0.4</ele>
        <time>2017-10-27T09:23:49.445Z</time>
      </trkpt>
      <trkpt lat="43.57164" lon="3.89829">
        <ele>0.3</ele>
        <time>2017-10-27T09:23:50.449Z</time>
      </trkpt>
      <trkpt lat="43.57166" lon="3.89827">
        <ele>0.1</ele>
        <time>2017-10-27T09:23:51.438Z</time>
      </trkpt>
      <trkpt lat="43.57168" lon="3.89825">
        <ele>0.2</ele>
        <time>2017-10-27T09:23:52.432Z</time>
      </trkpt>
      <trkpt lat="43.5717" lon="3.89822">
        <ele>0.3</ele>
        <time>2017-10-27T09:23:53.437Z</time>
      </trkpt>
      <trkpt lat="43.57173" lon="3.8982">
        <ele>0.2</ele>
        <time>2017-10-27T09:23:54.437Z</time>
      </trkpt>
      <trkpt lat="43.57175" lon="3.89817">
        <ele>0.2</ele>
        <time>2017-10-27T09:23:55.456Z</time>
      </trkpt>
      <trkpt lat="43.57178" lon="3.89815">
        <ele>0.9</ele>
        <time>2017-10-27T09:23:56.432Z</time>
      </trkpt>
      <trkpt lat="43.5718" lon="3.89813">
        <ele>1.1</ele>
        <time>2017-10-27T09:23:57.436Z</time>
      </trkpt>
      <trkpt lat="43.57181" lon="3.89811">
        <ele>1.4</ele>
        <time>2017-10-27T09:23:58.454Z</time>
      </trkpt>
      <trkpt lat="43.57183" lon="3.89809">
        <ele>1.9</ele>
        <time>2017-10-27T09:23:59.456Z</time>
      </trkpt>
      <trkpt lat="43.57184" lon="3.89808">
        <ele>2</ele>
        <time>2017-10-27T09:24:00.454Z</time>
      </trkpt>
      <trkpt lat="43.57185" lon="3.89806">
        <ele>1.6</ele>
        <time>2017-10-27T09:24:01.450Z</time>
      </trkpt>
      <trkpt lat="43.57186" lon="3.89804">
        <ele>1.4</ele>
        <time>2017-10-27T09:24:02.451Z</time>
      </trkpt>
      <trkpt lat="43.57188" lon="3.89803">
        <ele>1.2</ele>
        <time>2017-10-27T09:24:03.454Z</time>
      </trkpt>
      <trkpt lat="43.5719" lon="3.89801">
        <ele>1.1</ele>
        <time>2017-10-27T09:24:04.447Z</time>
      </trkpt>
      <trkpt lat="43.57193" lon="3.89799">
        <ele>1.2</ele>
        <time>2017-10-27T09:24:05.454Z</time>
      </trkpt>
      <trkpt lat="43.57195" lon="3.89797">
        <ele>1.2</ele>
        <time>2017-10-27T09:24:06.456Z</time>
      </trkpt>
      <trkpt lat="43.57197" lon="3.89796">
        <ele>1.5</ele>
        <time>2017-10-27T09:24:07.453Z</time>
      </trkpt>
      <trkpt lat="43.57199" lon="3.89794">
        <ele>1.5</ele>
        <time>2017-10-27T09:24:08.442Z</time>
      </trkpt>
      <trkpt lat="43.57201" lon="3.89793">
        <ele>1.6</ele>
        <time>2017-10-27T09:24:09.439Z</time>
      </trkpt>
      <trkpt lat="43.57202" lon="3.89791">
        <ele>1.7</ele>
        <time>2017-10-27T09:24:10.432Z</time>
      </trkpt>
      <trkpt lat="43.57204" lon="3.89789">
        <ele>1.6</ele>
        <time>2017-10-27T09:24:11.447Z</time>
      </trkpt>
      <trkpt lat="43.57206" lon="3.89787">
        <ele>1.5</ele>
        <time>2017-10-27T09:24:12.448Z</time>
      </trkpt>
      <trkpt lat="43.57207" lon="3.89785">
        <ele>1.5</ele>
        <time>2017-10-27T09:24:13.446Z</time>
      </trkpt>
      <trkpt lat="43.57209" lon="3.89783">
        <ele>1.4</ele>
        <time>2017-10-27T09:24:14.448Z</time>
      </trkpt>
      <trkpt lat="43.57211" lon="3.89781">
        <ele>1.4</ele>
        <time>2017-10-27T09:24:15.433Z</time>
      </trkpt>
      <trkpt lat="43.57213" lon="3.89779">
        <ele>1.3</ele>
        <time>2017-10-27T09:24:16.434Z</time>
      </trkpt>
      <trkpt lat="43.57215" lon="3.89777">
        <ele>1.3</ele>
        <time>2017-10-27T09:24:17.442Z</time>
      </trkpt>
      <trkpt lat="43.57218" lon="3.89776">
        <ele>1.3</ele>
        <time>2017-10-27T09:24:18.440Z</time>
      </trkpt>
      <trkpt lat="43.5722" lon="3.89775">
        <ele>1.3</ele>
        <time>2017-10-27T09:24:19.447Z</time>
      </trkpt>
      <trkpt lat="43.57222" lon="3.89775">
        <ele>1.3</ele>
        <time>2017-10-27T09:24:20.447Z</time>
      </trkpt>
      <trkpt lat="43.57225" lon="3.89774">
        <ele>1.3</ele>
        <time>2017-10-27T09:24:21.446Z</time>
      </trkpt>
      <trkpt lat="43.57227" lon="3.89774">
        <ele>1.3</ele>
        <time>2017-10-27T09:24:22.446Z</time>
      </trkpt>
      <trkpt lat="43.57229" lon="3.89773">
        <ele>1.3</ele>
        <time>2017-10-27T09:24:23.445Z</time>
      </trkpt>
      <trkpt lat="43.57231" lon="3.89773">
        <ele>1.3</ele>
        <time>2017-10-27T09:24:24.451Z</time>
      </trkpt>
      <trkpt lat="43.57233" lon="3.89773">
        <ele>1.3</ele>
        <time>2017-10-27T09:24:25.452Z</time>
      </trkpt>
      <trkpt lat="43.57236" lon="3.89773">
        <ele>1.3</ele>
        <time>2017-10-27T09:24:26.447Z</time>
      </trkpt>
      <trkpt lat="43.57238" lon="3.89773">
        <ele>1.3</ele>
        <time>2017-10-27T09:24:27.449Z</time>
      </trkpt>
      <trkpt lat="43.57241" lon="3.89773">
        <ele>1.3</ele>
        <time>2017-10-27T09:24:28.448Z</time>
      </trkpt>
      <trkpt lat="43.57243" lon="3.89773">
        <ele>1.3</ele>
        <time>2017-10-27T09:24:29.452Z</time>
      </trkpt>
      <trkpt lat="43.57246" lon="3.89773">
        <ele>1.3</ele>
        <time>2017-10-27T09:24:30.448Z</time>
      </trkpt>
      <trkpt lat="43.57248" lon="3.89773">
        <ele>1.3</ele>
        <time>2017-10-27T09:24:31.449Z</time>
      </trkpt>
      <trkpt lat="43.5725" lon="3.89773">
        <ele>1.3</ele>
        <time>2017-10-27T09:24:32.447Z</time>
      </trkpt>
      <trkpt lat="43.57253" lon="3.89772">
        <ele>1.2</ele>
        <time>2017-10-27T09:24:33.435Z</time>
      </trkpt>
      <trkpt lat="43.57255" lon="3.89772">
        <ele>1.2</ele>
        <time>2017-10-27T09:24:34.458Z</time>
      </trkpt>
      <trkpt lat="43.57257" lon="3.89772">
        <ele>1.1</ele>
        <time>2017-10-27T09:24:35.446Z</time>
      </trkpt>
      <trkpt lat="43.57259" lon="3.89772">
        <ele>1.1</ele>
        <time>2017-10-27T09:24:36.439Z</time>
      </trkpt>
      <trkpt lat="43.57261" lon="3.89772">
        <ele>1</ele>
        <time>2017-10-27T09:24:37.436Z</time>
      </trkpt>
      <trkpt lat="43.57263" lon="3.89772">
        <ele>1.1</ele>
        <time>2017-10-27T09:24:38.432Z</time>
      </trkpt>
      <trkpt lat="43.57265" lon="3.89772">
        <ele>1.2</ele>
        <time>2017-10-27T09:24:39.432Z</time>
      </trkpt>
      <trkpt lat="43.57268" lon="3.89772">
        <ele>1.1</ele>
        <time>2017-10-27T09:24:40.437Z</time>
      </trkpt>
      <trkpt lat="43.5727" lon="3.89772">
        <ele>1.2</ele>
        <time>2017-10-27T09:24:41.450Z</time>
      </trkpt>
      <trkpt lat="43.57272" lon="3.89772">
        <ele>1.2</ele>
        <time>2017-10-27T09:24:42.450Z</time>
      </trkpt>
      <trkpt lat="43.57274" lon="3.89772">
        <ele>1.2</ele>
        <time>2017-10-27T09:24:43.455Z</time>
      </trkpt>
      <trkpt lat="43.57277" lon="3.89772">
        <ele>1.2</ele>
        <time>2017-10-27T09:24:44.449Z</time>
      </trkpt>
      <trkpt lat="43.5728" lon="3.89772">
        <ele>1.2</ele>
        <time>2017-10-27T09:24:45.446Z</time>
      </trkpt>
      <trkpt lat="43.57282" lon="3.89772">
        <ele>1.2</ele>
        <time>2017-10-27T09:24:46.446Z</time>
      </trkpt>
      <trkpt lat="43.57285" lon="3.89772">
        <ele>1.2</ele>
        <time>2017-10-27T09:24:47.455Z</time>
      </trkpt>
      <trkpt lat="43.57288" lon="3.89772">
        <ele>1.3</ele>
        <time>2017-10-27T09:24:48.454Z</time>
      </trkpt>
      <trkpt lat="43.57291" lon="3.89772">
        <ele>1.3</ele>
        <time>2017-10-27T09:24:49.447Z</time>
      </trkpt>
      <trkpt lat="43.57294" lon="3.89772">
        <ele>1.3</ele>
        <time>2017-10-27T09:24:50.458Z</time>
      </trkpt>
      <trkpt lat="43.57296" lon="3.89772">
        <ele>1.2</ele>
        <time>2017-10-27T09:24:51.447Z</time>
      </trkpt>
      <trkpt lat="43.57299" lon="3.89772">
        <ele>1.3</ele>
        <time>2017-10-27T09:24:52.447Z</time>
      </trkpt>
      <trkpt lat="43.57302" lon="3.89772">
        <ele>1.3</ele>
        <time>2017-10-27T09:24:53.447Z</time>
      </trkpt>
      <trkpt lat="43.57305" lon="3.89772">
        <ele>1.3</ele>
        <time>2017-10-27T09:24:54.448Z</time>
      </trkpt>
      <trkpt lat="43.57308" lon="3.89772">
        <ele>1.3</ele>
        <time>2017-10-27T09:24:55.432Z</time>
      </trkpt>
      <trkpt lat="43.57311" lon="3.89773">
        <ele>1.3</ele>
        <time>2017-10-27T09:24:56.434Z</time>
      </trkpt>
      <trkpt lat="43.57314" lon="3.89773">
        <ele>1.3</ele>
        <time>2017-10-27T09:24:57.439Z</time>
      </trkpt>
      <trkpt lat="43.57316" lon="3.89773">
        <ele>1.3</ele>
        <time>2017-10-27T09:24:58.434Z</time>
      </trkpt>
      <trkpt lat="43.57319" lon="3.89773">
        <ele>1.4</ele>
        <time>2017-10-27T09:24:59.446Z</time>
      </trkpt>
      <trkpt lat="43.57322" lon="3.89773">
        <ele>1.5</ele>
        <time>2017-10-27T09:25:00.446Z</time>
      </trkpt>
      <trkpt lat="43.57325" lon="3.89774">
        <ele>1.4</ele>
        <time>2017-10-27T09:25:01.451Z</time>
      </trkpt>
      <trkpt lat="43.57327" lon="3.89774">
        <ele>1.4</ele>
        <time>2017-10-27T09:25:02.446Z</time>
      </trkpt>
      <trkpt lat="43.5733" lon="3.89774">
        <ele>1.4</ele>
        <time>2017-10-27T09:25:03.444Z</time>
      </trkpt>
      <trkpt lat="43.57333" lon="3.89775">
        <ele>1.5</ele>
        <time>2017-10-27T09:25:04.432Z</time>
      </trkpt>
      <trkpt lat="43.57335" lon="3.89775">
        <ele>1.5</ele>
        <time>2017-10-27T09:25:05.450Z</time>
      </trkpt>
      <trkpt lat="43.57338" lon="3.89776">
        <ele>1.5</ele>
        <time>2017-10-27T09:25:06.450Z</time>
      </trkpt>
      <trkpt lat="43.57341" lon="3.89777">
        <ele>1.6</ele>
        <time>2017-10-27T09:25:07.446Z</time>
      </trkpt>
      <trkpt lat="43.57344" lon="3.89777">
        <ele>1.5</ele>
        <time>2017-10-27T09:25:08.448Z</time>
      </trkpt>
      <trkpt lat="43.57347" lon="3.89778">
        <ele>1.5</ele>
        <time>2017-10-27T09:25:09.449Z</time>
      </trkpt>
      <trkpt lat="43.5735" lon="3.89779">
        <ele>1.5</ele>
        <time>2017-10-27T09:25:10.449Z</time>
      </trkpt>
      <trkpt lat="43.57353" lon="3.8978">
        <ele>1.5</ele>
        <time>2017-10-27T09:25:11.448Z</time>
      </trkpt>
      <trkpt lat="43.57356" lon="3.89781">
        <ele>1.6</ele>
        <time>2017-10-27T09:25:12.449Z</time>
      </trkpt>
      <trkpt lat="43.57359" lon="3.89782">
        <ele>1.6</ele>
        <time>2017-10-27T09:25:13.446Z</time>
      </trkpt>
      <trkpt lat="43.57362" lon="3.89784">
        <ele>1.7</ele>
        <time>2017-10-27T09:25:14.454Z</time>
      </trkpt>
      <trkpt lat="43.57365" lon="3.89784">
        <ele>1.7</ele>
        <time>2017-10-27T09:25:15.438Z</time>
      </trkpt>
      <trkpt lat="43.57368" lon="3.89786">
        <ele>1.7</ele>
        <time>2017-10-27T09:25:16.440Z</time>
      </trkpt>
      <trkpt lat="43.57371" lon="3.89787">
        <ele>1.7</ele>
        <time>2017-10-27T09:25:17.435Z</time>
      </trkpt>
      <trkpt lat="43.57374" lon="3.89788">
        <ele>1.7</ele>
        <time>2017-10-27T09:25:18.437Z</time>
      </trkpt>
      <trkpt lat="43.57377" lon="3.89789">
        <ele>1.8</ele>
        <time>2017-10-27T09:25:19.461Z</time>
      </trkpt>
      <trkpt lat="43.5738" lon="3.8979">
        <ele>1.8</ele>
        <time>2017-10-27T09:25:20.451Z</time>
      </trkpt>
      <trkpt lat="43.57383" lon="3.89791">
        <ele>1.8</ele>
        <time>2017-10-27T09:25:21.474Z</time>
      </trkpt>
      <trkpt lat="43.57386" lon="3.89793">
        <ele>1.8</ele>
        <time>2017-10-27T09:25:22.452Z</time>
      </trkpt>
      <trkpt lat="43.57389" lon="3.89794">
        <ele>1.8</ele>
        <time>2017-10-27T09:25:23.475Z</time>
      </trkpt>
      <trkpt lat="43.57392" lon="3.89795">
        <ele>1.8</ele>
        <time>2017-10-27T09:25:24.457Z</time>
      </trkpt>
      <trkpt lat="43.57395" lon="3.89797">
        <ele>1.8</ele>
        <time>2017-10-27T09:25:25.451Z</time>
      </trkpt>
      <trkpt lat="43.57398" lon="3.89799">
        <ele>1.9</ele>
        <time>2017-10-27T09:25:26.448Z</time>
      </trkpt>
      <trkpt lat="43.57401" lon="3.89801">
        <ele>1.9</ele>
        <time>2017-10-27T09:25:27.447Z</time>
      </trkpt>
      <trkpt lat="43.57403" lon="3.89803">
        <ele>1.9</ele>
        <time>2017-10-27T09:25:28.446Z</time>
      </trkpt>
      <trkpt lat="43.57406" lon="3.89805">
        <ele>2</ele>
        <time>2017-10-27T09:25:29.447Z</time>
      </trkpt>
      <trkpt lat="43.57409" lon="3.89807">
        <ele>2</ele>
        <time>2017-10-27T09:25:30.448Z</time>
      </trkpt>
      <trkpt lat="43.57412" lon="3.89809">
        <ele>2</ele>
        <time>2017-10-27T09:25:31.447Z</time>
      </trkpt>
      <trkpt lat="43.57415" lon="3.89811">
        <ele>2</ele>
        <time>2017-10-27T09:25:32.447Z</time>
      </trkpt>
      <trkpt lat="43.57418" lon="3.89814">
        <ele>2</ele>
        <time>2017-10-27T09:25:33.434Z</time>
      </trkpt>
      <trkpt lat="43.57421" lon="3.89816">
        <ele>2</ele>
        <time>2017-10-27T09:25:34.433Z</time>
      </trkpt>
      <trkpt lat="43.57424" lon="3.89819">
        <ele>2</ele>
        <time>2017-10-27T09:25:35.433Z</time>
      </trkpt>
      <trkpt lat="43.57427" lon="3.89822">
        <ele>2.1</ele>
        <time>2017-10-27T09:25:36.447Z</time>
      </trkpt>
      <trkpt lat="43.5743" lon="3.89825">
        <ele>2.1</ele>
        <time>2017-10-27T09:25:37.449Z</time>
      </trkpt>
      <trkpt lat="43.57433" lon="3.89828">
        <ele>2.2</ele>
        <time>2017-10-27T09:25:38.447Z</time>
      </trkpt>
      <trkpt lat="43.57435" lon="3.89831">
        <ele>2.2</ele>
        <time>2017-10-27T09:25:39.451Z</time>
      </trkpt>
      <trkpt lat="43.57438" lon="3.89834">
        <ele>2.2</ele>
        <time>2017-10-27T09:25:40.447Z</time>
      </trkpt>
      <trkpt lat="43.5744" lon="3.89836">
        <ele>2.2</ele>
        <time>2017-10-27T09:25:41.449Z</time>
      </trkpt>
      <trkpt lat="43.57442" lon="3.89839">
        <ele>2.2</ele>
        <time>2017-10-27T09:25:42.448Z</time>
      </trkpt>
      <trkpt lat="43.57444" lon="3.89842">
        <ele>2.2</ele>
        <time>2017-10-27T09:25:43.447Z</time>
      </trkpt>
      <trkpt lat="43.57446" lon="3.89845">
        <ele>2.2</ele>
        <time>2017-10-27T09:25:44.447Z</time>
      </trkpt>
      <trkpt lat="43.57448" lon="3.89848">
        <ele>2.5</ele>
        <time>2017-10-27T09:25:45.449Z</time>
      </trkpt>
      <trkpt lat="43.5745" lon="3.89851">
        <ele>2.6</ele>
        <time>2017-10-27T09:25:46.447Z</time>
      </trkpt>
      <trkpt lat="43.57452" lon="3.89854">
        <ele>2.7</ele>
        <time>2017-10-27T09:25:47.443Z</time>
      </trkpt>
      <trkpt lat="43.57454" lon="3.89857">
        <ele>2.7</ele>
        <time>2017-10-27T09:25:48.449Z</time>
      </trkpt>
      <trkpt lat="43.57456" lon="3.8986">
        <ele>2.6</ele>
        <time>2017-10-27T09:25:49.448Z</time>
      </trkpt>
      <trkpt lat="43.57458" lon="3.89863">
        <ele>2.6</ele>
        <time>2017-10-27T09:25:50.447Z</time>
      </trkpt>
      <trkpt lat="43.5746" lon="3.89866">
        <ele>2.8</ele>
        <time>2017-10-27T09:25:51.447Z</time>
      </trkpt>
      <trkpt lat="43.57461" lon="3.89869">
        <ele>2.7</ele>
        <time>2017-10-27T09:25:52.437Z</time>
      </trkpt>
      <trkpt lat="43.57463" lon="3.89872">
        <ele>2.6</ele>
        <time>2017-10-27T09:25:53.434Z</time>
      </trkpt>
      <trkpt lat="43.57464" lon="3.89874">
        <ele>2.6</ele>
        <time>2017-10-27T09:25:54.438Z</time>
      </trkpt>
      <trkpt lat="43.57466" lon="3.89877">
        <ele>2.6</ele>
        <time>2017-10-27T09:25:55.456Z</time>
      </trkpt>
      <trkpt lat="43.57466" lon="3.89879">
        <ele>2.6</ele>
        <time>2017-10-27T09:25:56.471Z</time>
      </trkpt>
      <trkpt lat="43.57467" lon="3.89882">
        <ele>2.6</ele>
        <time>2017-10-27T09:25:57.434Z</time>
      </trkpt>
      <trkpt lat="43.57466" lon="3.89885">
        <ele>2.5</ele>
        <time>2017-10-27T09:25:58.449Z</time>
      </trkpt>
      <trkpt lat="43.57465" lon="3.89889">
        <ele>2.2</ele>
        <time>2017-10-27T09:25:59.456Z</time>
      </trkpt>
      <trkpt lat="43.57464" lon="3.89892">
        <ele>1.5</ele>
        <time>2017-10-27T09:26:00.450Z</time>
      </trkpt>
      <trkpt lat="43.57461" lon="3.89896">
        <ele>0.9</ele>
        <time>2017-10-27T09:26:01.453Z</time>
      </trkpt>
      <trkpt lat="43.57458" lon="3.89901">
        <ele>0.3</ele>
        <time>2017-10-27T09:26:02.437Z</time>
      </trkpt>
      <trkpt lat="43.57454" lon="3.89907">
        <ele>0.3</ele>
        <time>2017-10-27T09:26:03.448Z</time>
      </trkpt>
      <trkpt lat="43.57449" lon="3.89912">
        <ele>0.2</ele>
        <time>2017-10-27T09:26:04.437Z</time>
      </trkpt>
      <trkpt lat="43.57445" lon="3.89916">
        <ele>0.3</ele>
        <time>2017-10-27T09:26:05.447Z</time>
      </trkpt>
      <trkpt lat="43.57442" lon="3.89919">
        <ele>0.1</ele>
        <time>2017-10-27T09:26:06.448Z</time>
      </trkpt>
      <trkpt lat="43.57439" lon="3.89923">
        <ele>0.1</ele>
        <time>2017-10-27T09:26:07.448Z</time>
      </trkpt>
      <trkpt lat="43.57437" lon="3.89928">
        <ele>-0.1</ele>
        <time>2017-10-27T09:26:08.447Z</time>
      </trkpt>
      <trkpt lat="43.57436" lon="3.89933">
        <ele>-0.1</ele>
        <time>2017-10-27T09:26:09.446Z</time>
      </trkpt>
      <trkpt lat="43.57436" lon="3.89938">
        <ele>-0.2</ele>
        <time>2017-10-27T09:26:10.446Z</time>
      </trkpt>
      <trkpt lat="43.57438" lon="3.89942">
        <ele>-0.4</ele>
        <time>2017-10-27T09:26:11.447Z</time>
      </trkpt>
      <trkpt lat="43.57441" lon="3.89945">
        <ele>-0.4</ele>
        <time>2017-10-27T09:26:12.436Z</time>
      </trkpt>
      <trkpt lat="43.57444" lon="3.89948">
        <ele>-0.6</ele>
        <time>2017-10-27T09:26:13.435Z</time>
      </trkpt>
      <trkpt lat="43.57446" lon="3.89951">
        <ele>-1</ele>
        <time>2017-10-27T09:26:14.433Z</time>
      </trkpt>
      <trkpt lat="43.57449" lon="3.89955">
        <ele>-1.8</ele>
        <time>2017-10-27T09:26:15.442Z</time>
      </trkpt>
      <trkpt lat="43.57452" lon="3.89959">
        <ele>-2.4</ele>
        <time>2017-10-27T09:26:16.458Z</time>
      </trkpt>
      <trkpt lat="43.57454" lon="3.89963">
        <ele>-2.6</ele>
        <time>2017-10-27T09:26:17.465Z</time>
      </trkpt>
      <trkpt lat="43.57455" lon="3.89968">
        <ele>-2.7</ele>
        <time>2017-10-27T09:26:18.452Z</time>
      </trkpt>
      <trkpt lat="43.57456" lon="3.89973">
        <ele>-2.5</ele>
        <time>2017-10-27T09:26:19.455Z</time>
      </trkpt>
      <trkpt lat="43.57457" lon="3.89978">
        <ele>-2.8</ele>
        <time>2017-10-27T09:26:20.448Z</time>
      </trkpt>
      <trkpt lat="43.57458" lon="3.89982">
        <ele>-2.4</ele>
        <time>2017-10-27T09:26:21.447Z</time>
      </trkpt>
      <trkpt lat="43.5746" lon="3.89986">
        <ele>-2.4</ele>
        <time>2017-10-27T09:26:22.449Z</time>
      </trkpt>
      <trkpt lat="43.57462" lon="3.8999">
        <ele>-2.5</ele>
        <time>2017-10-27T09:26:23.450Z</time>
      </trkpt>
      <trkpt lat="43.57465" lon="3.89994">
        <ele>-2.7</ele>
        <time>2017-10-27T09:26:24.454Z</time>
      </trkpt>
      <trkpt lat="43.57467" lon="3.89998">
        <ele>-2.8</ele>
        <time>2017-10-27T09:26:25.450Z</time>
      </trkpt>
      <trkpt lat="43.5747" lon="3.90002">
        <ele>-3</ele>
        <time>2017-10-27T09:26:26.447Z</time>
      </trkpt>
      <trkpt lat="43.57473" lon="3.90006">
        <ele>-3.1</ele>
        <time>2017-10-27T09:26:27.464Z</time>
      </trkpt>
      <trkpt lat="43.57475" lon="3.9001">
        <ele>-3.2</ele>
        <time>2017-10-27T09:26:28.447Z</time>
      </trkpt>
      <trkpt lat="43.57478" lon="3.90012">
        <ele>-3.3</ele>
        <time>2017-10-27T09:26:29.447Z</time>
      </trkpt>
      <trkpt lat="43.57481" lon="3.90015">
        <ele>-3.5</ele>
        <time>2017-10-27T09:26:30.451Z</time>
      </trkpt>
      <trkpt lat="43.57484" lon="3.90018">
        <ele>-3.8</ele>
        <time>2017-10-27T09:26:31.446Z</time>
      </trkpt>
      <trkpt lat="43.57487" lon="3.9002">
        <ele>-4.2</ele>
        <time>2017-10-27T09:26:32.449Z</time>
      </trkpt>
      <trkpt lat="43.57491" lon="3.90022">
        <ele>-4.6</ele>
        <time>2017-10-27T09:26:33.448Z</time>
      </trkpt>
      <trkpt lat="43.57494" lon="3.90025">
        <ele>-5</ele>
        <time>2017-10-27T09:26:34.450Z</time>
      </trkpt>
      <trkpt lat="43.57497" lon="3.90027">
        <ele>-5.1</ele>
        <time>2017-10-27T09:26:35.447Z</time>
      </trkpt>
      <trkpt lat="43.575" lon="3.9003">
        <ele>-5.5</ele>
        <time>2017-10-27T09:26:36.459Z</time>
      </trkpt>
      <trkpt lat="43.57503" lon="3.90032">
        <ele>-5.7</ele>
        <time>2017-10-27T09:26:37.445Z</time>
      </trkpt>
      <trkpt lat="43.57507" lon="3.90034">
        <ele>-5.9</ele>
        <time>2017-10-27T09:26:38.438Z</time>
      </trkpt>
      <trkpt lat="43.5751" lon="3.90036">
        <ele>-6</ele>
        <time>2017-10-27T09:26:39.433Z</time>
      </trkpt>
      <trkpt lat="43.57514" lon="3.90037">
        <ele>-5.8</ele>
        <time>2017-10-27T09:26:40.433Z</time>
      </trkpt>
      <trkpt lat="43.57517" lon="3.90038">
        <ele>-5.5</ele>
        <time>2017-10-27T09:26:41.437Z</time>
      </trkpt>
      <trkpt lat="43.57521" lon="3.9004">
        <ele>-5.2</ele>
        <time>2017-10-27T09:26:42.451Z</time>
      </trkpt>
      <trkpt lat="43.57524" lon="3.90041">
        <ele>-5.1</ele>
        <time>2017-10-27T09:26:43.456Z</time>
      </trkpt>
      <trkpt lat="43.57528" lon="3.90043">
        <ele>-5.3</ele>
        <time>2017-10-27T09:26:44.450Z</time>
      </trkpt>
      <trkpt lat="43.57532" lon="3.90044">
        <ele>-5.2</ele>
        <time>2017-10-27T09:26:45.434Z</time>
      </trkpt>
      <trkpt lat="43.57535" lon="3.90046">
        <ele>-4.9</ele>
        <time>2017-10-27T09:26:46.448Z</time>
      </trkpt>
      <trkpt lat="43.57539" lon="3.90049">
        <ele>-4.7</ele>
        <time>2017-10-27T09:26:47.447Z</time>
      </trkpt>
      <trkpt lat="43.57542" lon="3.90052">
        <ele>-4.4</ele>
        <time>2017-10-27T09:26:48.447Z</time>
      </trkpt>
      <trkpt lat="43.57544" lon="3.90055">
        <ele>-4.3</ele>
        <time>2017-10-27T09:26:49.451Z</time>
      </trkpt>
      <trkpt lat="43.57547" lon="3.90059">
        <ele>-4.7</ele>
        <time>2017-10-27T09:26:50.450Z</time>
      </trkpt>
      <trkpt lat="43.5755" lon="3.90062">
        <ele>-4.7</ele>
        <time>2017-10-27T09:26:51.448Z</time>
      </trkpt>
      <trkpt lat="43.57553" lon="3.90065">
        <ele>-4.6</ele>
        <time>2017-10-27T09:26:52.446Z</time>
      </trkpt>
      <trkpt lat="43.57556" lon="3.90069">
        <ele>-4.4</ele>
        <time>2017-10-27T09:26:53.447Z</time>
      </trkpt>
      <trkpt lat="43.57559" lon="3.90072">
        <ele>-4.4</ele>
        <time>2017-10-27T09:26:54.455Z</time>
      </trkpt>
      <trkpt lat="43.57562" lon="3.90076">
        <ele>-4.5</ele>
        <time>2017-10-27T09:26:55.454Z</time>
      </trkpt>
      <trkpt lat="43.57564" lon="3.9008">
        <ele>-4.5</ele>
        <time>2017-10-27T09:26:56.445Z</time>
      </trkpt>
      <trkpt lat="43.57567" lon="3.90084">
        <ele>-4.5</ele>
        <time>2017-10-27T09:26:57.433Z</time>
      </trkpt>
      <trkpt lat="43.5757" lon="3.90088">
        <ele>-4.5</ele>
        <time>2017-10-27T09:26:58.436Z</time>
      </trkpt>
      <trkpt lat="43.57573" lon="3.90092">
        <ele>-4.4</ele>
        <time>2017-10-27T09:26:59.444Z</time>
      </trkpt>
      <trkpt lat="43.57575" lon="3.90096">
        <ele>-4.4</ele>
        <time>2017-10-27T09:27:00.439Z</time>
      </trkpt>
      <trkpt lat="43.57579" lon="3.90099">
        <ele>-4.1</ele>
        <time>2017-10-27T09:27:01.434Z</time>
      </trkpt>
      <trkpt lat="43.57582" lon="3.90102">
        <ele>-4.1</ele>
        <time>2017-10-27T09:27:02.437Z</time>
      </trkpt>
      <trkpt lat="43.57586" lon="3.90103">
        <ele>-3.9</ele>
        <time>2017-10-27T09:27:03.436Z</time>
      </trkpt>
      <trkpt lat="43.5759" lon="3.90104">
        <ele>-3.6</ele>
        <time>2017-10-27T09:27:04.434Z</time>
      </trkpt>
      <trkpt lat="43.57593" lon="3.90102">
        <ele>-3.3</ele>
        <time>2017-10-27T09:27:05.460Z</time>
      </trkpt>
      <trkpt lat="43.57597" lon="3.901">
        <ele>-3</ele>
        <time>2017-10-27T09:27:06.456Z</time>
      </trkpt>
      <trkpt lat="43.576" lon="3.90096">
        <ele>-2.5</ele>
        <time>2017-10-27T09:27:07.448Z</time>
      </trkpt>
      <trkpt lat="43.57602" lon="3.90092">
        <ele>-1.9</ele>
        <time>2017-10-27T09:27:08.448Z</time>
      </trkpt>
      <trkpt lat="43.57604" lon="3.90089">
        <ele>-1.5</ele>
        <time>2017-10-27T09:27:09.453Z</time>
      </trkpt>
      <trkpt lat="43.57606" lon="3.90086">
        <ele>-0.8</ele>
        <time>2017-10-27T09:27:10.447Z</time>
      </trkpt>
      <trkpt lat="43.57607" lon="3.90084">
        <ele>-0.3</ele>
        <time>2017-10-27T09:27:11.450Z</time>
      </trkpt>
      <trkpt lat="43.57609" lon="3.90083">
        <ele>8.6</ele>
        <time>2017-10-27T09:27:12.449Z</time>
      </trkpt>
      <trkpt lat="43.57611" lon="3.90083">
        <ele>8.8</ele>
        <time>2017-10-27T09:27:13.447Z</time>
      </trkpt>
      <trkpt lat="43.57613" lon="3.90083">
        <ele>-0.1</ele>
        <time>2017-10-27T09:27:14.447Z</time>
      </trkpt>
      <trkpt lat="43.57614" lon="3.90084">
        <ele>-0.1</ele>
        <time>2017-10-27T09:27:15.448Z</time>
      </trkpt>
      <trkpt lat="43.57616" lon="3.90085">
        <ele>0.1</ele>
        <time>2017-10-27T09:27:16.446Z</time>
      </trkpt>
      <trkpt lat="43.57618" lon="3.90086">
        <ele>0.2</ele>
        <time>2017-10-27T09:27:17.445Z</time>
      </trkpt>
      <trkpt lat="43.5762" lon="3.90088">
        <ele>0.2</ele>
        <time>2017-10-27T09:27:18.434Z</time>
      </trkpt>
      <trkpt lat="43.57622" lon="3.9009">
        <ele>0.2</ele>
        <time>2017-10-27T09:27:19.434Z</time>
      </trkpt>
      <trkpt lat="43.57624" lon="3.90092">
        <ele>0.3</ele>
        <time>2017-10-27T09:27:20.445Z</time>
      </trkpt>
      <trkpt lat="43.57626" lon="3.90094">
        <ele>0.2</ele>
        <time>2017-10-27T09:27:21.448Z</time>
      </trkpt>
      <trkpt lat="43.57629" lon="3.90096">
        <ele>0.3</ele>
        <time>2017-10-27T09:27:22.446Z</time>
      </trkpt>
      <trkpt lat="43.57631" lon="3.90099">
        <ele>0.2</ele>
        <time>2017-10-27T09:27:23.448Z</time>
      </trkpt>
      <trkpt lat="43.57633" lon="3.90101">
        <ele>0.1</ele>
        <time>2017-10-27T09:27:24.454Z</time>
      </trkpt>
      <trkpt lat="43.57636" lon="3.90104">
        <ele>0.1</ele>
        <time>2017-10-27T09:27:25.447Z</time>
      </trkpt>
      <trkpt lat="43.57639" lon="3.90107">
        <ele>0.1</ele>
        <time>2017-10-27T09:27:26.447Z</time>
      </trkpt>
      <trkpt lat="43.57641" lon="3.9011">
        <ele>0.1</ele>
        <time>2017-10-27T09:27:27.448Z</time>
      </trkpt>
      <trkpt lat="43.57644" lon="3.90113">
        <ele>0.1</ele>
        <time>2017-10-27T09:27:28.446Z</time>
      </trkpt>
      <trkpt lat="43.57647" lon="3.90116">
        <ele>0.1</ele>
        <time>2017-10-27T09:27:29.450Z</time>
      </trkpt>
      <trkpt lat="43.5765" lon="3.9012">
        <ele>-0.1</ele>
        <time>2017-10-27T09:27:30.449Z</time>
      </trkpt>
      <trkpt lat="43.57653" lon="3.90123">
        <ele>7.2</ele>
        <time>2017-10-27T09:27:31.448Z</time>
      </trkpt>
      <trkpt lat="43.57656" lon="3.90126">
        <ele>0.1</ele>
        <time>2017-10-27T09:27:32.447Z</time>
      </trkpt>
      <trkpt lat="43.57658" lon="3.9013">
        <ele>0.2</ele>
        <time>2017-10-27T09:27:33.448Z</time>
      </trkpt>
      <trkpt lat="43.57661" lon="3.90133">
        <ele>0.2</ele>
        <time>2017-10-27T09:27:34.447Z</time>
      </trkpt>
      <trkpt lat="43.57664" lon="3.90136">
        <ele>0.3</ele>
        <time>2017-10-27T09:27:35.445Z</time>
      </trkpt>
      <trkpt lat="43.57667" lon="3.9014">
        <ele>0.3</ele>
        <time>2017-10-27T09:27:36.435Z</time>
      </trkpt>
      <trkpt lat="43.5767" lon="3.90143">
        <ele>0.3</ele>
        <time>2017-10-27T09:27:37.435Z</time>
      </trkpt>
      <trkpt lat="43.57673" lon="3.90147">
        <ele>0.2</ele>
        <time>2017-10-27T09:27:38.437Z</time>
      </trkpt>
      <trkpt lat="43.57676" lon="3.9015">
        <ele>0.2</ele>
        <time>2017-10-27T09:27:39.435Z</time>
      </trkpt>
      <trkpt lat="43.57679" lon="3.90154">
        <ele>0.2</ele>
        <time>2017-10-27T09:27:40.451Z</time>
      </trkpt>
      <trkpt lat="43.57682" lon="3.90158">
        <ele>0.2</ele>
        <time>2017-10-27T09:27:41.455Z</time>
      </trkpt>
      <trkpt lat="43.57684" lon="3.90162">
        <ele>7.4</ele>
        <time>2017-10-27T09:27:42.449Z</time>
      </trkpt>
      <trkpt lat="43.57687" lon="3.90166">
        <ele>-0.1</ele>
        <time>2017-10-27T09:27:43.448Z</time>
      </trkpt>
      <trkpt lat="43.5769" lon="3.90169">
        <ele>-0.1</ele>
        <time>2017-10-27T09:27:44.448Z</time>
      </trkpt>
      <trkpt lat="43.57693" lon="3.90173">
        <ele>-0.1</ele>
        <time>2017-10-27T09:27:45.448Z</time>
      </trkpt>
      <trkpt lat="43.57696" lon="3.90176">
        <ele>-0.1</ele>
        <time>2017-10-27T09:27:46.451Z</time>
      </trkpt>
      <trkpt lat="43.57699" lon="3.90179">
        <ele>-0.1</ele>
        <time>2017-10-27T09:27:47.446Z</time>
      </trkpt>
      <trkpt lat="43.57702" lon="3.90183">
        <ele>-0.1</ele>
        <time>2017-10-27T09:27:48.449Z</time>
      </trkpt>
      <trkpt lat="43.57704" lon="3.90186">
        <ele>-0.3</ele>
        <time>2017-10-27T09:27:49.447Z</time>
      </trkpt>
      <trkpt lat="43.57707" lon="3.9019">
        <ele>-0.3</ele>
        <time>2017-10-27T09:27:50.447Z</time>
      </trkpt>
      <trkpt lat="43.5771" lon="3.90193">
        <ele>-0.3</ele>
        <time>2017-10-27T09:27:51.434Z</time>
      </trkpt>
      <trkpt lat="43.57713" lon="3.90197">
        <ele>-0.3</ele>
        <time>2017-10-27T09:27:52.432Z</time>
      </trkpt>
      <trkpt lat="43.57716" lon="3.902">
        <ele>-0.3</ele>
        <time>2017-10-27T09:27:53.433Z</time>
      </trkpt>
      <trkpt lat="43.57719" lon="3.90203">
        <ele>-0.3</ele>
        <time>2017-10-27T09:27:54.462Z</time>
      </trkpt>
      <trkpt lat="43.57722" lon="3.90207">
        <ele>-0.2</ele>
        <time>2017-10-27T09:27:55.449Z</time>
      </trkpt>
      <trkpt lat="43.57725" lon="3.9021">
        <ele>-0.2</ele>
        <time>2017-10-27T09:27:56.449Z</time>
      </trkpt>
      <trkpt lat="43.57728" lon="3.90214">
        <ele>-0.1</ele>
        <time>2017-10-27T09:27:57.433Z</time>
      </trkpt>
      <trkpt lat="43.57731" lon="3.90217">
        <ele>-0.1</ele>
        <time>2017-10-27T09:27:58.446Z</time>
      </trkpt>
      <trkpt lat="43.57734" lon="3.90221">
        <ele>-0.2</ele>
        <time>2017-10-27T09:27:59.447Z</time>
      </trkpt>
      <trkpt lat="43.57736" lon="3.90224">
        <ele>-0.2</ele>
        <time>2017-10-27T09:28:00.459Z</time>
      </trkpt>
      <trkpt lat="43.57739" lon="3.90227">
        <ele>-0.2</ele>
        <time>2017-10-27T09:28:01.447Z</time>
      </trkpt>
      <trkpt lat="43.57742" lon="3.90231">
        <ele>-0.2</ele>
        <time>2017-10-27T09:28:02.448Z</time>
      </trkpt>
      <trkpt lat="43.57745" lon="3.90234">
        <ele>-0.2</ele>
        <time>2017-10-27T09:28:03.447Z</time>
      </trkpt>
      <trkpt lat="43.57748" lon="3.90237">
        <ele>-0.1</ele>
        <time>2017-10-27T09:28:04.458Z</time>
      </trkpt>
      <trkpt lat="43.57751" lon="3.90241">
        <ele>-0.1</ele>
        <time>2017-10-27T09:28:05.446Z</time>
      </trkpt>
      <trkpt lat="43.57754" lon="3.90244">
        <ele>-0.1</ele>
        <time>2017-10-27T09:28:06.448Z</time>
      </trkpt>
      <trkpt lat="43.57757" lon="3.90247">
        <ele>-0.1</ele>
        <time>2017-10-27T09:28:07.433Z</time>
      </trkpt>
      <trkpt lat="43.5776" lon="3.90251">
        <ele>-0.1</ele>
        <time>2017-10-27T09:28:08.432Z</time>
      </trkpt>
      <trkpt lat="43.57763" lon="3.90255">
        <ele>-0.1</ele>
        <time>2017-10-27T09:28:09.435Z</time>
      </trkpt>
      <trkpt lat="43.57766" lon="3.90258">
        <ele>-0.2</ele>
        <time>2017-10-27T09:28:10.438Z</time>
      </trkpt>
      <trkpt lat="43.57769" lon="3.90262">
        <ele>-0.2</ele>
        <time>2017-10-27T09:28:11.468Z</time>
      </trkpt>
      <trkpt lat="43.57772" lon="3.90265">
        <ele>-0.2</ele>
        <time>2017-10-27T09:28:12.471Z</time>
      </trkpt>
      <trkpt lat="43.57775" lon="3.90269">
        <ele>-0.2</ele>
        <time>2017-10-27T09:28:13.463Z</time>
      </trkpt>
      <trkpt lat="43.57778" lon="3.90272">
        <ele>-0.2</ele>
        <time>2017-10-27T09:28:14.447Z</time>
      </trkpt>
      <trkpt lat="43.57781" lon="3.90275">
        <ele>-0.2</ele>
        <time>2017-10-27T09:28:15.446Z</time>
      </trkpt>
      <trkpt lat="43.57784" lon="3.90279">
        <ele>-0.3</ele>
        <time>2017-10-27T09:28:16.432Z</time>
      </trkpt>
      <trkpt lat="43.57787" lon="3.90282">
        <ele>-0.3</ele>
        <time>2017-10-27T09:28:17.447Z</time>
      </trkpt>
      <trkpt lat="43.5779" lon="3.90286">
        <ele>-0.3</ele>
        <time>2017-10-27T09:28:18.449Z</time>
      </trkpt>
      <trkpt lat="43.57793" lon="3.90289">
        <ele>-0.2</ele>
        <time>2017-10-27T09:28:19.447Z</time>
      </trkpt>
      <trkpt lat="43.57796" lon="3.90293">
        <ele>-0.2</ele>
        <time>2017-10-27T09:28:20.447Z</time>
      </trkpt>
      <trkpt lat="43.57799" lon="3.90296">
        <ele>-0.2</ele>
        <time>2017-10-27T09:28:21.453Z</time>
      </trkpt>
      <trkpt lat="43.57802" lon="3.903">
        <ele>-0.2</ele>
        <time>2017-10-27T09:28:22.440Z</time>
      </trkpt>
      <trkpt lat="43.57805" lon="3.90303">
        <ele>-0.2</ele>
        <time>2017-10-27T09:28:23.436Z</time>
      </trkpt>
      <trkpt lat="43.57808" lon="3.90306">
        <ele>-0.1</ele>
        <time>2017-10-27T09:28:24.438Z</time>
      </trkpt>
      <trkpt lat="43.57811" lon="3.9031">
        <ele>-0.2</ele>
        <time>2017-10-27T09:28:25.436Z</time>
      </trkpt>
      <trkpt lat="43.57814" lon="3.90313">
        <ele>-0.2</ele>
        <time>2017-10-27T09:28:26.438Z</time>
      </trkpt>
      <trkpt lat="43.57817" lon="3.90317">
        <ele>-0.1</ele>
        <time>2017-10-27T09:28:27.447Z</time>
      </trkpt>
      <trkpt lat="43.5782" lon="3.90321">
        <ele>-0.1</ele>
        <time>2017-10-27T09:28:28.448Z</time>
      </trkpt>
      <trkpt lat="43.57823" lon="3.90324">
        <ele>-0.1</ele>
        <time>2017-10-27T09:28:29.449Z</time>
      </trkpt>
      <trkpt lat="43.57827" lon="3.90328">
        <ele>-0.1</ele>
        <time>2017-10-27T09:28:30.450Z</time>
      </trkpt>
      <trkpt lat="43.5783" lon="3.90331">
        <ele>-0.1</ele>
        <time>2017-10-27T09:28:31.448Z</time>
      </trkpt>
      <trkpt lat="43.57833" lon="3.90335">
        <ele>8.9</ele>
        <time>2017-10-27T09:28:32.451Z</time>
      </trkpt>
      <trkpt lat="43.57836" lon="3.90339">
        <ele>0.1</ele>
        <time>2017-10-27T09:28:33.447Z</time>
      </trkpt>
      <trkpt lat="43.57839" lon="3.90342">
        <ele>0.1</ele>
        <time>2017-10-27T09:28:34.446Z</time>
      </trkpt>
      <trkpt lat="43.57842" lon="3.90346">
        <ele>7.7</ele>
        <time>2017-10-27T09:28:35.452Z</time>
      </trkpt>
      <trkpt lat="43.57845" lon="3.9035">
        <ele>0.2</ele>
        <time>2017-10-27T09:28:36.451Z</time>
      </trkpt>
      <trkpt lat="43.57848" lon="3.90353">
        <ele>0.1</ele>
        <time>2017-10-27T09:28:37.451Z</time>
      </trkpt>
      <trkpt lat="43.57852" lon="3.90357">
        <ele>0.1</ele>
        <time>2017-10-27T09:28:38.449Z</time>
      </trkpt>
      <trkpt lat="43.57855" lon="3.90361">
        <ele>0.1</ele>
        <time>2017-10-27T09:28:39.448Z</time>
      </trkpt>
      <trkpt lat="43.57858" lon="3.90364">
        <ele>0.1</ele>
        <time>2017-10-27T09:28:40.451Z</time>
      </trkpt>
      <trkpt lat="43.57861" lon="3.90368">
        <ele>0.1</ele>
        <time>2017-10-27T09:28:41.449Z</time>
      </trkpt>
      <trkpt lat="43.57864" lon="3.90371">
        <ele>0.2</ele>
        <time>2017-10-27T09:28:42.448Z</time>
      </trkpt>
      <trkpt lat="43.57867" lon="3.90375">
        <ele>0.2</ele>
        <time>2017-10-27T09:28:43.449Z</time>
      </trkpt>
      <trkpt lat="43.57871" lon="3.90379">
        <ele>0.3</ele>
        <time>2017-10-27T09:28:44.436Z</time>
      </trkpt>
      <trkpt lat="43.57874" lon="3.90383">
        <ele>0.3</ele>
        <time>2017-10-27T09:28:45.435Z</time>
      </trkpt>
      <trkpt lat="43.57877" lon="3.90387">
        <ele>0.3</ele>
        <time>2017-10-27T09:28:46.433Z</time>
      </trkpt>
      <trkpt lat="43.5788" lon="3.90391">
        <ele>0.4</ele>
        <time>2017-10-27T09:28:47.450Z</time>
      </trkpt>
      <trkpt lat="43.57883" lon="3.90395">
        <ele>0.3</ele>
        <time>2017-10-27T09:28:48.451Z</time>
      </trkpt>
      <trkpt lat="43.57886" lon="3.904">
        <ele>0.4</ele>
        <time>2017-10-27T09:28:49.457Z</time>
      </trkpt>
      <trkpt lat="43.57889" lon="3.90404">
        <ele>0.4</ele>
        <time>2017-10-27T09:28:50.455Z</time>
      </trkpt>
      <trkpt lat="43.57892" lon="3.90409">
        <ele>0.5</ele>
        <time>2017-10-27T09:28:51.453Z</time>
      </trkpt>
      <trkpt lat="43.57894" lon="3.90413">
        <ele>0.4</ele>
        <time>2017-10-27T09:28:52.446Z</time>
      </trkpt>
      <trkpt lat="43.57897" lon="3.90418">
        <ele>0.5</ele>
        <time>2017-10-27T09:28:53.449Z</time>
      </trkpt>
      <trkpt lat="43.57899" lon="3.90422">
        <ele>0.5</ele>
        <time>2017-10-27T09:28:54.449Z</time>
      </trkpt>
      <trkpt lat="43.57901" lon="3.90426">
        <ele>0.5</ele>
        <time>2017-10-27T09:28:55.449Z</time>
      </trkpt>
      <trkpt lat="43.57904" lon="3.90431">
        <ele>0.5</ele>
        <time>2017-10-27T09:28:56.446Z</time>
      </trkpt>
      <trkpt lat="43.57906" lon="3.90436">
        <ele>0.6</ele>
        <time>2017-10-27T09:28:57.447Z</time>
      </trkpt>
      <trkpt lat="43.57908" lon="3.90441">
        <ele>0.5</ele>
        <time>2017-10-27T09:28:58.446Z</time>
      </trkpt>
      <trkpt lat="43.5791" lon="3.90446">
        <ele>0.6</ele>
        <time>2017-10-27T09:28:59.453Z</time>
      </trkpt>
      <trkpt lat="43.57912" lon="3.90451">
        <ele>0.7</ele>
        <time>2017-10-27T09:29:00.443Z</time>
      </trkpt>
      <trkpt lat="43.57914" lon="3.90456">
        <ele>0.7</ele>
        <time>2017-10-27T09:29:01.436Z</time>
      </trkpt>
      <trkpt lat="43.57916" lon="3.90461">
        <ele>0.7</ele>
        <time>2017-10-27T09:29:02.433Z</time>
      </trkpt>
      <trkpt lat="43.57917" lon="3.90467">
        <ele>0.8</ele>
        <time>2017-10-27T09:29:03.436Z</time>
      </trkpt>
      <trkpt lat="43.57919" lon="3.90472">
        <ele>0.8</ele>
        <time>2017-10-27T09:29:04.474Z</time>
      </trkpt>
      <trkpt lat="43.57921" lon="3.90478">
        <ele>0.8</ele>
        <time>2017-10-27T09:29:05.446Z</time>
      </trkpt>
      <trkpt lat="43.57923" lon="3.90483">
        <ele>0.9</ele>
        <time>2017-10-27T09:29:06.439Z</time>
      </trkpt>
      <trkpt lat="43.57926" lon="3.90489">
        <ele>0.9</ele>
        <time>2017-10-27T09:29:07.445Z</time>
      </trkpt>
      <trkpt lat="43.57928" lon="3.90494">
        <ele>0.8</ele>
        <time>2017-10-27T09:29:08.446Z</time>
      </trkpt>
      <trkpt lat="43.5793" lon="3.905">
        <ele>0.9</ele>
        <time>2017-10-27T09:29:09.448Z</time>
      </trkpt>
      <trkpt lat="43.57932" lon="3.90505">
        <ele>1</ele>
        <time>2017-10-27T09:29:10.448Z</time>
      </trkpt>
      <trkpt lat="43.57935" lon="3.9051">
        <ele>1.1</ele>
        <time>2017-10-27T09:29:11.447Z</time>
      </trkpt>
      <trkpt lat="43.57937" lon="3.90515">
        <ele>1.1</ele>
        <time>2017-10-27T09:29:12.435Z</time>
      </trkpt>
      <trkpt lat="43.5794" lon="3.90521">
        <ele>1.2</ele>
        <time>2017-10-27T09:29:13.454Z</time>
      </trkpt>
      <trkpt lat="43.57942" lon="3.90526">
        <ele>1.2</ele>
        <time>2017-10-27T09:29:14.441Z</time>
      </trkpt>
      <trkpt lat="43.57945" lon="3.90531">
        <ele>1.2</ele>
        <time>2017-10-27T09:29:15.439Z</time>
      </trkpt>
      <trkpt lat="43.57947" lon="3.90537">
        <ele>1.2</ele>
        <time>2017-10-27T09:29:16.451Z</time>
      </trkpt>
      <trkpt lat="43.5795" lon="3.90542">
        <ele>1.2</ele>
        <time>2017-10-27T09:29:17.447Z</time>
      </trkpt>
      <trkpt lat="43.57952" lon="3.90547">
        <ele>1.3</ele>
        <time>2017-10-27T09:29:18.455Z</time>
      </trkpt>
      <trkpt lat="43.57955" lon="3.90553">
        <ele>1.3</ele>
        <time>2017-10-27T09:29:19.448Z</time>
      </trkpt>
      <trkpt lat="43.57958" lon="3.90558">
        <ele>1.4</ele>
        <time>2017-10-27T09:29:20.448Z</time>
      </trkpt>
      <trkpt lat="43.5796" lon="3.90564">
        <ele>1.3</ele>
        <time>2017-10-27T09:29:21.447Z</time>
      </trkpt>
      <trkpt lat="43.57963" lon="3.90569">
        <ele>1.4</ele>
        <time>2017-10-27T09:29:22.448Z</time>
      </trkpt>
      <trkpt lat="43.57966" lon="3.90575">
        <ele>1.5</ele>
        <time>2017-10-27T09:29:23.452Z</time>
      </trkpt>
      <trkpt lat="43.57969" lon="3.9058">
        <ele>1.5</ele>
        <time>2017-10-27T09:29:24.451Z</time>
      </trkpt>
      <trkpt lat="43.57971" lon="3.90586">
        <ele>1.5</ele>
        <time>2017-10-27T09:29:25.451Z</time>
      </trkpt>
      <trkpt lat="43.57974" lon="3.90591">
        <ele>1.5</ele>
        <time>2017-10-27T09:29:26.446Z</time>
      </trkpt>
      <trkpt lat="43.57977" lon="3.90597">
        <ele>1.5</ele>
        <time>2017-10-27T09:29:27.448Z</time>
      </trkpt>
      <trkpt lat="43.57979" lon="3.90602">
        <ele>1.5</ele>
        <time>2017-10-27T09:29:28.433Z</time>
      </trkpt>
      <trkpt lat="43.57982" lon="3.90608">
        <ele>1.5</ele>
        <time>2017-10-27T09:29:29.433Z</time>
      </trkpt>
      <trkpt lat="43.57985" lon="3.90613">
        <ele>1.4</ele>
        <time>2017-10-27T09:29:30.434Z</time>
      </trkpt>
      <trkpt lat="43.57987" lon="3.90618">
        <ele>1.3</ele>
        <time>2017-10-27T09:29:31.447Z</time>
      </trkpt>
      <trkpt lat="43.5799" lon="3.90623">
        <ele>1.2</ele>
        <time>2017-10-27T09:29:32.450Z</time>
      </trkpt>
      <trkpt lat="43.57993" lon="3.90628">
        <ele>1.3</ele>
        <time>2017-10-27T09:29:33.445Z</time>
      </trkpt>
      <trkpt lat="43.57996" lon="3.90634">
        <ele>1.3</ele>
        <time>2017-10-27T09:29:34.453Z</time>
      </trkpt>
      <trkpt lat="43.57998" lon="3.90639">
        <ele>1.3</ele>
        <time>2017-10-27T09:29:35.448Z</time>
      </trkpt>
      <trkpt lat="43.58001" lon="3.90644">
        <ele>1.2</ele>
        <time>2017-10-27T09:29:36.447Z</time>
      </trkpt>
      <trkpt lat="43.58004" lon="3.90649">
        <ele>1.2</ele>
        <time>2017-10-27T09:29:37.458Z</time>
      </trkpt>
      <trkpt lat="43.58006" lon="3.90654">
        <ele>1.1</ele>
        <time>2017-10-27T09:29:38.447Z</time>
      </trkpt>
      <trkpt lat="43.58009" lon="3.90659">
        <ele>1</ele>
        <time>2017-10-27T09:29:39.447Z</time>
      </trkpt>
      <trkpt lat="43.58011" lon="3.90664">
        <ele>1</ele>
        <time>2017-10-27T09:29:40.447Z</time>
      </trkpt>
      <trkpt lat="43.58014" lon="3.90669">
        <ele>1.1</ele>
        <time>2017-10-27T09:29:41.451Z</time>
      </trkpt>
      <trkpt lat="43.58017" lon="3.90674">
        <ele>1.2</ele>
        <time>2017-10-27T09:29:42.452Z</time>
      </trkpt>
      <trkpt lat="43.58019" lon="3.90679">
        <ele>1.1</ele>
        <time>2017-10-27T09:29:43.448Z</time>
      </trkpt>
      <trkpt lat="43.58022" lon="3.90684">
        <ele>1.1</ele>
        <time>2017-10-27T09:29:44.447Z</time>
      </trkpt>
      <trkpt lat="43.58025" lon="3.90689">
        <ele>1</ele>
        <time>2017-10-27T09:29:45.448Z</time>
      </trkpt>
      <trkpt lat="43.58027" lon="3.90694">
        <ele>1</ele>
        <time>2017-10-27T09:29:46.447Z</time>
      </trkpt>
      <trkpt lat="43.5803" lon="3.90699">
        <ele>1.1</ele>
        <time>2017-10-27T09:29:47.433Z</time>
      </trkpt>
      <trkpt lat="43.58032" lon="3.90704">
        <ele>1.1</ele>
        <time>2017-10-27T09:29:48.435Z</time>
      </trkpt>
      <trkpt lat="43.58035" lon="3.90709">
        <ele>1.1</ele>
        <time>2017-10-27T09:29:49.433Z</time>
      </trkpt>
      <trkpt lat="43.58038" lon="3.90714">
        <ele>1.1</ele>
        <time>2017-10-27T09:29:50.454Z</time>
      </trkpt>
      <trkpt lat="43.58041" lon="3.90719">
        <ele>1</ele>
        <time>2017-10-27T09:29:51.454Z</time>
      </trkpt>
      <trkpt lat="43.58043" lon="3.90723">
        <ele>1</ele>
        <time>2017-10-27T09:29:52.452Z</time>
      </trkpt>
      <trkpt lat="43.58046" lon="3.90728">
        <ele>1</ele>
        <time>2017-10-27T09:29:53.451Z</time>
      </trkpt>
      <trkpt lat="43.58049" lon="3.90733">
        <ele>1</ele>
        <time>2017-10-27T09:29:54.449Z</time>
      </trkpt>
      <trkpt lat="43.58052" lon="3.90737">
        <ele>1</ele>
        <time>2017-10-27T09:29:55.450Z</time>
      </trkpt>
      <trkpt lat="43.58055" lon="3.90742">
        <ele>1</ele>
        <time>2017-10-27T09:29:56.449Z</time>
      </trkpt>
      <trkpt lat="43.58058" lon="3.90746">
        <ele>1</ele>
        <time>2017-10-27T09:29:57.435Z</time>
      </trkpt>
      <trkpt lat="43.58061" lon="3.9075">
        <ele>1.1</ele>
        <time>2017-10-27T09:29:58.455Z</time>
      </trkpt>
      <trkpt lat="43.58064" lon="3.90754">
        <ele>1</ele>
        <time>2017-10-27T09:29:59.451Z</time>
      </trkpt>
      <trkpt lat="43.58068" lon="3.90758">
        <ele>1</ele>
        <time>2017-10-27T09:30:00.454Z</time>
      </trkpt>
      <trkpt lat="43.58071" lon="3.90761">
        <ele>1</ele>
        <time>2017-10-27T09:30:01.447Z</time>
      </trkpt>
      <trkpt lat="43.58075" lon="3.90765">
        <ele>1</ele>
        <time>2017-10-27T09:30:02.447Z</time>
      </trkpt>
      <trkpt lat="43.58079" lon="3.90768">
        <ele>1</ele>
        <time>2017-10-27T09:30:03.447Z</time>
      </trkpt>
      <trkpt lat="43.58082" lon="3.90771">
        <ele>0.9</ele>
        <time>2017-10-27T09:30:04.452Z</time>
      </trkpt>
      <trkpt lat="43.58086" lon="3.90774">
        <ele>1</ele>
        <time>2017-10-27T09:30:05.447Z</time>
      </trkpt>
      <trkpt lat="43.5809" lon="3.90777">
        <ele>1</ele>
        <time>2017-10-27T09:30:06.439Z</time>
      </trkpt>
      <trkpt lat="43.58094" lon="3.90779">
        <ele>1</ele>
        <time>2017-10-27T09:30:07.434Z</time>
      </trkpt>
      <trkpt lat="43.58097" lon="3.90781">
        <ele>0.9</ele>
        <time>2017-10-27T09:30:08.436Z</time>
      </trkpt>
      <trkpt lat="43.58101" lon="3.90783">
        <ele>0.9</ele>
        <time>2017-10-27T09:30:09.433Z</time>
      </trkpt>
      <trkpt lat="43.58104" lon="3.90784">
        <ele>0.8</ele>
        <time>2017-10-27T09:30:10.469Z</time>
      </trkpt>
      <trkpt lat="43.58108" lon="3.90786">
        <ele>0.8</ele>
        <time>2017-10-27T09:30:11.465Z</time>
      </trkpt>
      <trkpt lat="43.58112" lon="3.90788">
        <ele>0.8</ele>
        <time>2017-10-27T09:30:12.458Z</time>
      </trkpt>
      <trkpt lat="43.58115" lon="3.90789">
        <ele>0.8</ele>
        <time>2017-10-27T09:30:13.465Z</time>
      </trkpt>
      <trkpt lat="43.58119" lon="3.90791">
        <ele>0.7</ele>
        <time>2017-10-27T09:30:14.448Z</time>
      </trkpt>
      <trkpt lat="43.58122" lon="3.90792">
        <ele>0.8</ele>
        <time>2017-10-27T09:30:15.448Z</time>
      </trkpt>
      <trkpt lat="43.58125" lon="3.90793">
        <ele>0.8</ele>
        <time>2017-10-27T09:30:16.446Z</time>
      </trkpt>
      <trkpt lat="43.58129" lon="3.90795">
        <ele>0.8</ele>
        <time>2017-10-27T09:30:17.456Z</time>
      </trkpt>
      <trkpt lat="43.58132" lon="3.90796">
        <ele>0.8</ele>
        <time>2017-10-27T09:30:18.459Z</time>
      </trkpt>
      <trkpt lat="43.58136" lon="3.90797">
        <ele>0.8</ele>
        <time>2017-10-27T09:30:19.454Z</time>
      </trkpt>
      <trkpt lat="43.58139" lon="3.90798">
        <ele>0.8</ele>
        <time>2017-10-27T09:30:20.449Z</time>
      </trkpt>
      <trkpt lat="43.58142" lon="3.908">
        <ele>0.8</ele>
        <time>2017-10-27T09:30:21.447Z</time>
      </trkpt>
      <trkpt lat="43.58146" lon="3.908">
        <ele>0.9</ele>
        <time>2017-10-27T09:30:22.446Z</time>
      </trkpt>
      <trkpt lat="43.5815" lon="3.90801">
        <ele>0.9</ele>
        <time>2017-10-27T09:30:23.456Z</time>
      </trkpt>
      <trkpt lat="43.58153" lon="3.90801">
        <ele>0.8</ele>
        <time>2017-10-27T09:30:24.449Z</time>
      </trkpt>
      <trkpt lat="43.58157" lon="3.90802">
        <ele>0.9</ele>
        <time>2017-10-27T09:30:25.433Z</time>
      </trkpt>
      <trkpt lat="43.58161" lon="3.90802">
        <ele>0.8</ele>
        <time>2017-10-27T09:30:26.434Z</time>
      </trkpt>
      <trkpt lat="43.58164" lon="3.90803">
        <ele>0.9</ele>
        <time>2017-10-27T09:30:27.438Z</time>
      </trkpt>
      <trkpt lat="43.58168" lon="3.90803">
        <ele>0.9</ele>
        <time>2017-10-27T09:30:28.437Z</time>
      </trkpt>
      <trkpt lat="43.58171" lon="3.90803">
        <ele>1</ele>
        <time>2017-10-27T09:30:29.449Z</time>
      </trkpt>
      <trkpt lat="43.58175" lon="3.90804">
        <ele>1</ele>
        <time>2017-10-27T09:30:30.454Z</time>
      </trkpt>
      <trkpt lat="43.58178" lon="3.90804">
        <ele>1.1</ele>
        <time>2017-10-27T09:30:31.450Z</time>
      </trkpt>
      <trkpt lat="43.58181" lon="3.90804">
        <ele>1.1</ele>
        <time>2017-10-27T09:30:32.445Z</time>
      </trkpt>
      <trkpt lat="43.58184" lon="3.90804">
        <ele>1.2</ele>
        <time>2017-10-27T09:30:33.448Z</time>
      </trkpt>
      <trkpt lat="43.58188" lon="3.90805">
        <ele>1.3</ele>
        <time>2017-10-27T09:30:34.447Z</time>
      </trkpt>
      <trkpt lat="43.58191" lon="3.90805">
        <ele>1.3</ele>
        <time>2017-10-27T09:30:35.447Z</time>
      </trkpt>
      <trkpt lat="43.58194" lon="3.90805">
        <ele>1.4</ele>
        <time>2017-10-27T09:30:36.449Z</time>
      </trkpt>
      <trkpt lat="43.58197" lon="3.90805">
        <ele>1.4</ele>
        <time>2017-10-27T09:30:37.449Z</time>
      </trkpt>
      <trkpt lat="43.58201" lon="3.90806">
        <ele>1.5</ele>
        <time>2017-10-27T09:30:38.452Z</time>
      </trkpt>
      <trkpt lat="43.58204" lon="3.90806">
        <ele>1.7</ele>
        <time>2017-10-27T09:30:39.451Z</time>
      </trkpt>
      <trkpt lat="43.58207" lon="3.90806">
        <ele>1.7</ele>
        <time>2017-10-27T09:30:40.453Z</time>
      </trkpt>
      <trkpt lat="43.5821" lon="3.90806">
        <ele>1.7</ele>
        <time>2017-10-27T09:30:41.434Z</time>
      </trkpt>
      <trkpt lat="43.58213" lon="3.90807">
        <ele>1.7</ele>
        <time>2017-10-27T09:30:42.435Z</time>
      </trkpt>
      <trkpt lat="43.58217" lon="3.90807">
        <ele>1.7</ele>
        <time>2017-10-27T09:30:43.439Z</time>
      </trkpt>
      <trkpt lat="43.5822" lon="3.90807">
        <ele>1.8</ele>
        <time>2017-10-27T09:30:44.447Z</time>
      </trkpt>
      <trkpt lat="43.58223" lon="3.90808">
        <ele>1.8</ele>
        <time>2017-10-27T09:30:45.446Z</time>
      </trkpt>
      <trkpt lat="43.58227" lon="3.90808">
        <ele>1.9</ele>
        <time>2017-10-27T09:30:46.446Z</time>
      </trkpt>
      <trkpt lat="43.5823" lon="3.90808">
        <ele>1.9</ele>
        <time>2017-10-27T09:30:47.450Z</time>
      </trkpt>
      <trkpt lat="43.58233" lon="3.90808">
        <ele>1.9</ele>
        <time>2017-10-27T09:30:48.451Z</time>
      </trkpt>
      <trkpt lat="43.58237" lon="3.90809">
        <ele>1.9</ele>
        <time>2017-10-27T09:30:49.450Z</time>
      </trkpt>
      <trkpt lat="43.5824" lon="3.90809">
        <ele>1.9</ele>
        <time>2017-10-27T09:30:50.448Z</time>
      </trkpt>
      <trkpt lat="43.58244" lon="3.90809">
        <ele>1.9</ele>
        <time>2017-10-27T09:30:51.448Z</time>
      </trkpt>
      <trkpt lat="43.58247" lon="3.9081">
        <ele>1.9</ele>
        <time>2017-10-27T09:30:52.448Z</time>
      </trkpt>
      <trkpt lat="43.58251" lon="3.9081">
        <ele>2</ele>
        <time>2017-10-27T09:30:53.449Z</time>
      </trkpt>
      <trkpt lat="43.58254" lon="3.90811">
        <ele>2</ele>
        <time>2017-10-27T09:30:54.451Z</time>
      </trkpt>
      <trkpt lat="43.58258" lon="3.90811">
        <ele>2</ele>
        <time>2017-10-27T09:30:55.455Z</time>
      </trkpt>
      <trkpt lat="43.58261" lon="3.90811">
        <ele>2</ele>
        <time>2017-10-27T09:30:56.451Z</time>
      </trkpt>
      <trkpt lat="43.58265" lon="3.90811">
        <ele>2</ele>
        <time>2017-10-27T09:30:57.448Z</time>
      </trkpt>
      <trkpt lat="43.58268" lon="3.90812">
        <ele>2</ele>
        <time>2017-10-27T09:30:58.451Z</time>
      </trkpt>
      <trkpt lat="43.58272" lon="3.90812">
        <ele>2.1</ele>
        <time>2017-10-27T09:30:59.442Z</time>
      </trkpt>
      <trkpt lat="43.58275" lon="3.90812">
        <ele>2.1</ele>
        <time>2017-10-27T09:31:00.437Z</time>
      </trkpt>
      <trkpt lat="43.58278" lon="3.90813">
        <ele>2.1</ele>
        <time>2017-10-27T09:31:01.436Z</time>
      </trkpt>
      <trkpt lat="43.58281" lon="3.90813">
        <ele>2.1</ele>
        <time>2017-10-27T09:31:02.444Z</time>
      </trkpt>
      <trkpt lat="43.58284" lon="3.90813">
        <ele>2.1</ele>
        <time>2017-10-27T09:31:03.459Z</time>
      </trkpt>
      <trkpt lat="43.58287" lon="3.90814">
        <ele>2.1</ele>
        <time>2017-10-27T09:31:04.435Z</time>
      </trkpt>
      <trkpt lat="43.5829" lon="3.90814">
        <ele>2.1</ele>
        <time>2017-10-27T09:31:05.444Z</time>
      </trkpt>
      <trkpt lat="43.58294" lon="3.90814">
        <ele>2.1</ele>
        <time>2017-10-27T09:31:06.441Z</time>
      </trkpt>
      <trkpt lat="43.58297" lon="3.90814">
        <ele>2.2</ele>
        <time>2017-10-27T09:31:07.448Z</time>
      </trkpt>
      <trkpt lat="43.583" lon="3.90815">
        <ele>2.2</ele>
        <time>2017-10-27T09:31:08.446Z</time>
      </trkpt>
      <trkpt lat="43.58304" lon="3.90815">
        <ele>2.2</ele>
        <time>2017-10-27T09:31:09.450Z</time>
      </trkpt>
      <trkpt lat="43.58307" lon="3.90815">
        <ele>2.2</ele>
        <time>2017-10-27T09:31:10.465Z</time>
      </trkpt>
      <trkpt lat="43.58311" lon="3.90815">
        <ele>2.3</ele>
        <time>2017-10-27T09:31:11.449Z</time>
      </trkpt>
      <trkpt lat="43.58314" lon="3.90816">
        <ele>2.3</ele>
        <time>2017-10-27T09:31:12.461Z</time>
      </trkpt>
      <trkpt lat="43.58317" lon="3.90816">
        <ele>2.4</ele>
        <time>2017-10-27T09:31:13.449Z</time>
      </trkpt>
      <trkpt lat="43.58321" lon="3.90816">
        <ele>2.4</ele>
        <time>2017-10-27T09:31:14.447Z</time>
      </trkpt>
      <trkpt lat="43.58324" lon="3.90817">
        <ele>2.4</ele>
        <time>2017-10-27T09:31:15.448Z</time>
      </trkpt>
      <trkpt lat="43.58327" lon="3.90817">
        <ele>2.5</ele>
        <time>2017-10-27T09:31:16.447Z</time>
      </trkpt>
      <trkpt lat="43.5833" lon="3.90817">
        <ele>2.5</ele>
        <time>2017-10-27T09:31:17.434Z</time>
      </trkpt>
      <trkpt lat="43.58333" lon="3.90817">
        <ele>2.5</ele>
        <time>2017-10-27T09:31:18.435Z</time>
      </trkpt>
      <trkpt lat="43.58336" lon="3.90817">
        <ele>2.5</ele>
        <time>2017-10-27T09:31:19.444Z</time>
      </trkpt>
      <trkpt lat="43.5834" lon="3.90818">
        <ele>2.5</ele>
        <time>2017-10-27T09:31:20.449Z</time>
      </trkpt>
      <trkpt lat="43.58343" lon="3.90818">
        <ele>2.5</ele>
        <time>2017-10-27T09:31:21.448Z</time>
      </trkpt>
      <trkpt lat="43.58346" lon="3.90818">
        <ele>2.6</ele>
        <time>2017-10-27T09:31:22.447Z</time>
      </trkpt>
      <trkpt lat="43.58349" lon="3.90818">
        <ele>2.6</ele>
        <time>2017-10-27T09:31:23.449Z</time>
      </trkpt>
      <trkpt lat="43.58352" lon="3.90818">
        <ele>2.6</ele>
        <time>2017-10-27T09:31:24.451Z</time>
      </trkpt>
      <trkpt lat="43.58355" lon="3.90818">
        <ele>2.7</ele>
        <time>2017-10-27T09:31:25.448Z</time>
      </trkpt>
      <trkpt lat="43.58358" lon="3.90817">
        <ele>2.7</ele>
        <time>2017-10-27T09:31:26.434Z</time>
      </trkpt>
      <trkpt lat="43.5836" lon="3.90817">
        <ele>2.7</ele>
        <time>2017-10-27T09:31:27.450Z</time>
      </trkpt>
      <trkpt lat="43.58363" lon="3.90817">
        <ele>2.7</ele>
        <time>2017-10-27T09:31:28.433Z</time>
      </trkpt>
      <trkpt lat="43.58366" lon="3.90816">
        <ele>2.8</ele>
        <time>2017-10-27T09:31:29.453Z</time>
      </trkpt>
      <trkpt lat="43.58369" lon="3.90816">
        <ele>2.8</ele>
        <time>2017-10-27T09:31:30.450Z</time>
      </trkpt>
      <trkpt lat="43.58372" lon="3.90816">
        <ele>2.9</ele>
        <time>2017-10-27T09:31:31.448Z</time>
      </trkpt>
      <trkpt lat="43.58374" lon="3.90816">
        <ele>2.8</ele>
        <time>2017-10-27T09:31:32.449Z</time>
      </trkpt>
      <trkpt lat="43.58377" lon="3.90815">
        <ele>2.9</ele>
        <time>2017-10-27T09:31:33.448Z</time>
      </trkpt>
      <trkpt lat="43.5838" lon="3.90815">
        <ele>2.9</ele>
        <time>2017-10-27T09:31:34.446Z</time>
      </trkpt>
      <trkpt lat="43.58383" lon="3.90815">
        <ele>2.9</ele>
        <time>2017-10-27T09:31:35.452Z</time>
      </trkpt>
      <trkpt lat="43.58386" lon="3.90814">
        <ele>2.9</ele>
        <time>2017-10-27T09:31:36.449Z</time>
      </trkpt>
      <trkpt lat="43.58389" lon="3.90813">
        <ele>2.9</ele>
        <time>2017-10-27T09:31:37.435Z</time>
      </trkpt>
      <trkpt lat="43.58391" lon="3.90813">
        <ele>2.9</ele>
        <time>2017-10-27T09:31:38.434Z</time>
      </trkpt>
      <trkpt lat="43.58394" lon="3.90812">
        <ele>2.9</ele>
        <time>2017-10-27T09:31:39.434Z</time>
      </trkpt>
      <trkpt lat="43.58397" lon="3.90812">
        <ele>2.9</ele>
        <time>2017-10-27T09:31:40.432Z</time>
      </trkpt>
      <trkpt lat="43.58399" lon="3.90812">
        <ele>2.9</ele>
        <time>2017-10-27T09:31:41.449Z</time>
      </trkpt>
      <trkpt lat="43.58402" lon="3.90811">
        <ele>2.9</ele>
        <time>2017-10-27T09:31:42.454Z</time>
      </trkpt>
      <trkpt lat="43.58404" lon="3.9081">
        <ele>2.9</ele>
        <time>2017-10-27T09:31:43.450Z</time>
      </trkpt>
      <trkpt lat="43.58406" lon="3.9081">
        <ele>2.9</ele>
        <time>2017-10-27T09:31:44.449Z</time>
      </trkpt>
      <trkpt lat="43.58409" lon="3.90809">
        <ele>2.9</ele>
        <time>2017-10-27T09:31:45.450Z</time>
      </trkpt>
      <trkpt lat="43.58411" lon="3.90808">
        <ele>2.9</ele>
        <time>2017-10-27T09:31:46.447Z</time>
      </trkpt>
      <trkpt lat="43.58414" lon="3.90808">
        <ele>3</ele>
        <time>2017-10-27T09:31:47.447Z</time>
      </trkpt>
      <trkpt lat="43.58416" lon="3.90807">
        <ele>3</ele>
        <time>2017-10-27T09:31:48.454Z</time>
      </trkpt>
      <trkpt lat="43.58419" lon="3.90807">
        <ele>3</ele>
        <time>2017-10-27T09:31:49.454Z</time>
      </trkpt>
      <trkpt lat="43.58422" lon="3.90806">
        <ele>3</ele>
        <time>2017-10-27T09:31:50.434Z</time>
      </trkpt>
      <trkpt lat="43.58424" lon="3.90805">
        <ele>3</ele>
        <time>2017-10-27T09:31:51.438Z</time>
      </trkpt>
      <trkpt lat="43.58427" lon="3.90804">
        <ele>3.1</ele>
        <time>2017-10-27T09:31:52.443Z</time>
      </trkpt>
      <trkpt lat="43.58429" lon="3.90804">
        <ele>3.1</ele>
        <time>2017-10-27T09:31:53.438Z</time>
      </trkpt>
      <trkpt lat="43.58431" lon="3.90803">
        <ele>3.1</ele>
        <time>2017-10-27T09:31:54.449Z</time>
      </trkpt>
      <trkpt lat="43.58434" lon="3.90802">
        <ele>3.2</ele>
        <time>2017-10-27T09:31:55.449Z</time>
      </trkpt>
      <trkpt lat="43.58436" lon="3.90801">
        <ele>3.2</ele>
        <time>2017-10-27T09:31:56.458Z</time>
      </trkpt>
      <trkpt lat="43.58439" lon="3.90801">
        <ele>3.2</ele>
        <time>2017-10-27T09:31:57.434Z</time>
      </trkpt>
      <trkpt lat="43.58441" lon="3.908">
        <ele>3.3</ele>
        <time>2017-10-27T09:31:58.461Z</time>
      </trkpt>
      <trkpt lat="43.58444" lon="3.90799">
        <ele>3.3</ele>
        <time>2017-10-27T09:31:59.449Z</time>
      </trkpt>
      <trkpt lat="43.58446" lon="3.90798">
        <ele>3.3</ele>
        <time>2017-10-27T09:32:00.435Z</time>
      </trkpt>
      <trkpt lat="43.58449" lon="3.90797">
        <ele>3.3</ele>
        <time>2017-10-27T09:32:01.434Z</time>
      </trkpt>
      <trkpt lat="43.58452" lon="3.90795">
        <ele>3.3</ele>
        <time>2017-10-27T09:32:02.437Z</time>
      </trkpt>
      <trkpt lat="43.58455" lon="3.90794">
        <ele>3.3</ele>
        <time>2017-10-27T09:32:03.455Z</time>
      </trkpt>
      <trkpt lat="43.58458" lon="3.90793">
        <ele>3.3</ele>
        <time>2017-10-27T09:32:04.442Z</time>
      </trkpt>
      <trkpt lat="43.58461" lon="3.90791">
        <ele>3.3</ele>
        <time>2017-10-27T09:32:05.449Z</time>
      </trkpt>
      <trkpt lat="43.58464" lon="3.90789">
        <ele>3.3</ele>
        <time>2017-10-27T09:32:06.450Z</time>
      </trkpt>
      <trkpt lat="43.58466" lon="3.90788">
        <ele>3.2</ele>
        <time>2017-10-27T09:32:07.448Z</time>
      </trkpt>
      <trkpt lat="43.58469" lon="3.90786">
        <ele>3.3</ele>
        <time>2017-10-27T09:32:08.448Z</time>
      </trkpt>
      <trkpt lat="43.58472" lon="3.90784">
        <ele>3.3</ele>
        <time>2017-10-27T09:32:09.449Z</time>
      </trkpt>
      <trkpt lat="43.58475" lon="3.90783">
        <ele>3.3</ele>
        <time>2017-10-27T09:32:10.449Z</time>
      </trkpt>
      <trkpt lat="43.58477" lon="3.90781">
        <ele>3.4</ele>
        <time>2017-10-27T09:32:11.449Z</time>
      </trkpt>
      <trkpt lat="43.5848" lon="3.9078">
        <ele>3.4</ele>
        <time>2017-10-27T09:32:12.451Z</time>
      </trkpt>
      <trkpt lat="43.58483" lon="3.90778">
        <ele>3.4</ele>
        <time>2017-10-27T09:32:13.447Z</time>
      </trkpt>
      <trkpt lat="43.58485" lon="3.90777">
        <ele>3.4</ele>
        <time>2017-10-27T09:32:14.449Z</time>
      </trkpt>
      <trkpt lat="43.58488" lon="3.90776">
        <ele>3.4</ele>
        <time>2017-10-27T09:32:15.449Z</time>
      </trkpt>
      <trkpt lat="43.58491" lon="3.90774">
        <ele>3.4</ele>
        <time>2017-10-27T09:32:16.448Z</time>
      </trkpt>
      <trkpt lat="43.58494" lon="3.90773">
        <ele>3.4</ele>
        <time>2017-10-27T09:32:17.448Z</time>
      </trkpt>
      <trkpt lat="43.58497" lon="3.90771">
        <ele>3.4</ele>
        <time>2017-10-27T09:32:18.436Z</time>
      </trkpt>
      <trkpt lat="43.58499" lon="3.9077">
        <ele>3.4</ele>
        <time>2017-10-27T09:32:19.436Z</time>
      </trkpt>
      <trkpt lat="43.58502" lon="3.90769">
        <ele>3.4</ele>
        <time>2017-10-27T09:32:20.437Z</time>
      </trkpt>
      <trkpt lat="43.58505" lon="3.90767">
        <ele>3.3</ele>
        <time>2017-10-27T09:32:21.439Z</time>
      </trkpt>
      <trkpt lat="43.58508" lon="3.90766">
        <ele>3.3</ele>
        <time>2017-10-27T09:32:22.451Z</time>
      </trkpt>
      <trkpt lat="43.58511" lon="3.90765">
        <ele>3.4</ele>
        <time>2017-10-27T09:32:23.454Z</time>
      </trkpt>
      <trkpt lat="43.58514" lon="3.90764">
        <ele>3.4</ele>
        <time>2017-10-27T09:32:24.454Z</time>
      </trkpt>
      <trkpt lat="43.58517" lon="3.90763">
        <ele>3.4</ele>
        <time>2017-10-27T09:32:25.460Z</time>
      </trkpt>
      <trkpt lat="43.5852" lon="3.90762">
        <ele>3.4</ele>
        <time>2017-10-27T09:32:26.448Z</time>
      </trkpt>
      <trkpt lat="43.58523" lon="3.90761">
        <ele>3.4</ele>
        <time>2017-10-27T09:32:27.452Z</time>
      </trkpt>
      <trkpt lat="43.58526" lon="3.9076">
        <ele>3.4</ele>
        <time>2017-10-27T09:32:28.448Z</time>
      </trkpt>
      <trkpt lat="43.58529" lon="3.90759">
        <ele>3.4</ele>
        <time>2017-10-27T09:32:29.448Z</time>
      </trkpt>
      <trkpt lat="43.58532" lon="3.90758">
        <ele>3.4</ele>
        <time>2017-10-27T09:32:30.449Z</time>
      </trkpt>
      <trkpt lat="43.58535" lon="3.90757">
        <ele>3.4</ele>
        <time>2017-10-27T09:32:31.448Z</time>
      </trkpt>
      <trkpt lat="43.58538" lon="3.90756">
        <ele>3.4</ele>
        <time>2017-10-27T09:32:32.449Z</time>
      </trkpt>
      <trkpt lat="43.58542" lon="3.90755">
        <ele>3.4</ele>
        <time>2017-10-27T09:32:33.448Z</time>
      </trkpt>
      <trkpt lat="43.58545" lon="3.90754">
        <ele>3.4</ele>
        <time>2017-10-27T09:32:34.453Z</time>
      </trkpt>
      <trkpt lat="43.58548" lon="3.90753">
        <ele>3.4</ele>
        <time>2017-10-27T09:32:35.433Z</time>
      </trkpt>
      <trkpt lat="43.58551" lon="3.90752">
        <ele>3.4</ele>
        <time>2017-10-27T09:32:36.434Z</time>
      </trkpt>
      <trkpt lat="43.58554" lon="3.90751">
        <ele>3.3</ele>
        <time>2017-10-27T09:32:37.434Z</time>
      </trkpt>
      <trkpt lat="43.58557" lon="3.9075">
        <ele>3.3</ele>
        <time>2017-10-27T09:32:38.501Z</time>
      </trkpt>
      <trkpt lat="43.58561" lon="3.9075">
        <ele>3.3</ele>
        <time>2017-10-27T09:32:39.448Z</time>
      </trkpt>
      <trkpt lat="43.58564" lon="3.90749">
        <ele>3.3</ele>
        <time>2017-10-27T09:32:40.448Z</time>
      </trkpt>
      <trkpt lat="43.58567" lon="3.90749">
        <ele>3.3</ele>
        <time>2017-10-27T09:32:41.448Z</time>
      </trkpt>
      <trkpt lat="43.5857" lon="3.90748">
        <ele>3.3</ele>
        <time>2017-10-27T09:32:42.452Z</time>
      </trkpt>
      <trkpt lat="43.58573" lon="3.90747">
        <ele>3.3</ele>
        <time>2017-10-27T09:32:43.448Z</time>
      </trkpt>
      <trkpt lat="43.58577" lon="3.90746">
        <ele>3.3</ele>
        <time>2017-10-27T09:32:44.447Z</time>
      </trkpt>
      <trkpt lat="43.5858" lon="3.90746">
        <ele>3.4</ele>
        <time>2017-10-27T09:32:45.447Z</time>
      </trkpt>
      <trkpt lat="43.58583" lon="3.90745">
        <ele>3.4</ele>
        <time>2017-10-27T09:32:46.447Z</time>
      </trkpt>
      <trkpt lat="43.58587" lon="3.90745">
        <ele>3.3</ele>
        <time>2017-10-27T09:32:47.449Z</time>
      </trkpt>
      <trkpt lat="43.5859" lon="3.90744">
        <ele>3.3</ele>
        <time>2017-10-27T09:32:48.448Z</time>
      </trkpt>
      <trkpt lat="43.58593" lon="3.90744">
        <ele>3.3</ele>
        <time>2017-10-27T09:32:49.447Z</time>
      </trkpt>
      <trkpt lat="43.58597" lon="3.90744">
        <ele>3.3</ele>
        <time>2017-10-27T09:32:50.443Z</time>
      </trkpt>
      <trkpt lat="43.586" lon="3.90743">
        <ele>3.4</ele>
        <time>2017-10-27T09:32:51.450Z</time>
      </trkpt>
      <trkpt lat="43.58604" lon="3.90743">
        <ele>3.3</ele>
        <time>2017-10-27T09:32:52.450Z</time>
      </trkpt>
      <trkpt lat="43.58607" lon="3.90743">
        <ele>3.3</ele>
        <time>2017-10-27T09:32:53.441Z</time>
      </trkpt>
      <trkpt lat="43.58611" lon="3.90742">
        <ele>3.4</ele>
        <time>2017-10-27T09:32:54.435Z</time>
      </trkpt>
      <trkpt lat="43.58615" lon="3.90742">
        <ele>3.4</ele>
        <time>2017-10-27T09:32:55.433Z</time>
      </trkpt>
      <trkpt lat="43.58619" lon="3.90742">
        <ele>3.5</ele>
        <time>2017-10-27T09:32:56.438Z</time>
      </trkpt>
      <trkpt lat="43.58623" lon="3.90743">
        <ele>3.5</ele>
        <time>2017-10-27T09:32:57.434Z</time>
      </trkpt>
      <trkpt lat="43.58626" lon="3.90743">
        <ele>3.6</ele>
        <time>2017-10-27T09:32:58.447Z</time>
      </trkpt>
      <trkpt lat="43.5863" lon="3.90744">
        <ele>3.5</ele>
        <time>2017-10-27T09:32:59.447Z</time>
      </trkpt>
      <trkpt lat="43.58633" lon="3.90744">
        <ele>3.6</ele>
        <time>2017-10-27T09:33:00.447Z</time>
      </trkpt>
      <trkpt lat="43.58636" lon="3.90745">
        <ele>3.6</ele>
        <time>2017-10-27T09:33:01.447Z</time>
      </trkpt>
      <trkpt lat="43.58639" lon="3.90745">
        <ele>3.6</ele>
        <time>2017-10-27T09:33:02.447Z</time>
      </trkpt>
      <trkpt lat="43.58642" lon="3.90746">
        <ele>3.6</ele>
        <time>2017-10-27T09:33:03.447Z</time>
      </trkpt>
      <trkpt lat="43.58645" lon="3.90746">
        <ele>3.6</ele>
        <time>2017-10-27T09:33:04.447Z</time>
      </trkpt>
      <trkpt lat="43.58647" lon="3.90746">
        <ele>3.6</ele>
        <time>2017-10-27T09:33:05.447Z</time>
      </trkpt>
      <trkpt lat="43.58649" lon="3.90747">
        <ele>3.6</ele>
        <time>2017-10-27T09:33:06.448Z</time>
      </trkpt>
      <trkpt lat="43.58651" lon="3.90749">
        <ele>3.6</ele>
        <time>2017-10-27T09:33:07.448Z</time>
      </trkpt>
      <trkpt lat="43.58653" lon="3.90752">
        <ele>3.5</ele>
        <time>2017-10-27T09:33:08.446Z</time>
      </trkpt>
      <trkpt lat="43.58654" lon="3.90754">
        <ele>3.5</ele>
        <time>2017-10-27T09:33:09.433Z</time>
      </trkpt>
      <trkpt lat="43.58655" lon="3.90758">
        <ele>3.3</ele>
        <time>2017-10-27T09:33:10.446Z</time>
      </trkpt>
      <trkpt lat="43.58657" lon="3.90761">
        <ele>3.1</ele>
        <time>2017-10-27T09:33:11.447Z</time>
      </trkpt>
      <trkpt lat="43.58659" lon="3.90765">
        <ele>2.8</ele>
        <time>2017-10-27T09:33:12.440Z</time>
      </trkpt>
      <trkpt lat="43.58663" lon="3.90769">
        <ele>2.2</ele>
        <time>2017-10-27T09:33:13.436Z</time>
      </trkpt>
      <trkpt lat="43.58668" lon="3.90771">
        <ele>1.9</ele>
        <time>2017-10-27T09:33:14.433Z</time>
      </trkpt>
      <trkpt lat="43.58673" lon="3.90773">
        <ele>1.6</ele>
        <time>2017-10-27T09:33:15.433Z</time>
      </trkpt>
      <trkpt lat="43.58679" lon="3.90775">
        <ele>1.4</ele>
        <time>2017-10-27T09:33:16.448Z</time>
      </trkpt>
      <trkpt lat="43.58683" lon="3.90776">
        <ele>1.4</ele>
        <time>2017-10-27T09:33:17.447Z</time>
      </trkpt>
      <trkpt lat="43.58688" lon="3.90777">
        <ele>1.5</ele>
        <time>2017-10-27T09:33:18.454Z</time>
      </trkpt>
      <trkpt lat="43.58692" lon="3.90778">
        <ele>1.5</ele>
        <time>2017-10-27T09:33:19.456Z</time>
      </trkpt>
      <trkpt lat="43.58696" lon="3.90779">
        <ele>1.6</ele>
        <time>2017-10-27T09:33:20.449Z</time>
      </trkpt>
      <trkpt lat="43.587" lon="3.90781">
        <ele>1.6</ele>
        <time>2017-10-27T09:33:21.452Z</time>
      </trkpt>
      <trkpt lat="43.58704" lon="3.90782">
        <ele>1.7</ele>
        <time>2017-10-27T09:33:22.447Z</time>
      </trkpt>
      <trkpt lat="43.58708" lon="3.90783">
        <ele>1.8</ele>
        <time>2017-10-27T09:33:23.447Z</time>
      </trkpt>
      <trkpt lat="43.58712" lon="3.90784">
        <ele>1.9</ele>
        <time>2017-10-27T09:33:24.448Z</time>
      </trkpt>
      <trkpt lat="43.58715" lon="3.90785">
        <ele>1.9</ele>
        <time>2017-10-27T09:33:25.447Z</time>
      </trkpt>
      <trkpt lat="43.58719" lon="3.90786">
        <ele>1.9</ele>
        <time>2017-10-27T09:33:26.446Z</time>
      </trkpt>
      <trkpt lat="43.58722" lon="3.90787">
        <ele>1.9</ele>
        <time>2017-10-27T09:33:27.447Z</time>
      </trkpt>
      <trkpt lat="43.58726" lon="3.90788">
        <ele>1.8</ele>
        <time>2017-10-27T09:33:28.446Z</time>
      </trkpt>
      <trkpt lat="43.58729" lon="3.90789">
        <ele>1.8</ele>
        <time>2017-10-27T09:33:29.446Z</time>
      </trkpt>
      <trkpt lat="43.58733" lon="3.90789">
        <ele>1.8</ele>
        <time>2017-10-27T09:33:30.433Z</time>
      </trkpt>
      <trkpt lat="43.58736" lon="3.9079">
        <ele>1.9</ele>
        <time>2017-10-27T09:33:31.432Z</time>
      </trkpt>
      <trkpt lat="43.5874" lon="3.90791">
        <ele>1.9</ele>
        <time>2017-10-27T09:33:32.434Z</time>
      </trkpt>
      <trkpt lat="43.58743" lon="3.90792">
        <ele>1.9</ele>
        <time>2017-10-27T09:33:33.447Z</time>
      </trkpt>
      <trkpt lat="43.58746" lon="3.90793">
        <ele>1.9</ele>
        <time>2017-10-27T09:33:34.460Z</time>
      </trkpt>
      <trkpt lat="43.58749" lon="3.90794">
        <ele>2</ele>
        <time>2017-10-27T09:33:35.455Z</time>
      </trkpt>
      <trkpt lat="43.58752" lon="3.90795">
        <ele>2</ele>
        <time>2017-10-27T09:33:36.449Z</time>
      </trkpt>
      <trkpt lat="43.58755" lon="3.90795">
        <ele>2</ele>
        <time>2017-10-27T09:33:37.447Z</time>
      </trkpt>
      <trkpt lat="43.58758" lon="3.90796">
        <ele>2</ele>
        <time>2017-10-27T09:33:38.447Z</time>
      </trkpt>
      <trkpt lat="43.58762" lon="3.90797">
        <ele>2</ele>
        <time>2017-10-27T09:33:39.446Z</time>
      </trkpt>
      <trkpt lat="43.58765" lon="3.90797">
        <ele>1.9</ele>
        <time>2017-10-27T09:33:40.452Z</time>
      </trkpt>
      <trkpt lat="43.58768" lon="3.90798">
        <ele>2</ele>
        <time>2017-10-27T09:33:41.437Z</time>
      </trkpt>
      <trkpt lat="43.58771" lon="3.90799">
        <ele>2</ele>
        <time>2017-10-27T09:33:42.435Z</time>
      </trkpt>
      <trkpt lat="43.58774" lon="3.90799">
        <ele>2</ele>
        <time>2017-10-27T09:33:43.435Z</time>
      </trkpt>
      <trkpt lat="43.58778" lon="3.908">
        <ele>2</ele>
        <time>2017-10-27T09:33:44.433Z</time>
      </trkpt>
      <trkpt lat="43.58781" lon="3.90801">
        <ele>2</ele>
        <time>2017-10-27T09:33:45.476Z</time>
      </trkpt>
      <trkpt lat="43.58784" lon="3.90802">
        <ele>2</ele>
        <time>2017-10-27T09:33:46.464Z</time>
      </trkpt>
      <trkpt lat="43.58787" lon="3.90802">
        <ele>2</ele>
        <time>2017-10-27T09:33:47.449Z</time>
      </trkpt>
      <trkpt lat="43.58791" lon="3.90803">
        <ele>2.1</ele>
        <time>2017-10-27T09:33:48.454Z</time>
      </trkpt>
      <trkpt lat="43.58794" lon="3.90804">
        <ele>2.1</ele>
        <time>2017-10-27T09:33:49.447Z</time>
      </trkpt>
      <trkpt lat="43.58798" lon="3.90805">
        <ele>2.3</ele>
        <time>2017-10-27T09:33:50.450Z</time>
      </trkpt>
      <trkpt lat="43.58801" lon="3.90804">
        <ele>2.5</ele>
        <time>2017-10-27T09:33:51.447Z</time>
      </trkpt>
      <trkpt lat="43.58804" lon="3.90802">
        <ele>2.9</ele>
        <time>2017-10-27T09:33:52.434Z</time>
      </trkpt>
      <trkpt lat="43.58806" lon="3.908">
        <ele>3.1</ele>
        <time>2017-10-27T09:33:53.433Z</time>
      </trkpt>
      <trkpt lat="43.58808" lon="3.90797">
        <ele>3.5</ele>
        <time>2017-10-27T09:33:54.436Z</time>
      </trkpt>
      <trkpt lat="43.5881" lon="3.90795">
        <ele>3.4</ele>
        <time>2017-10-27T09:33:55.433Z</time>
      </trkpt>
      <trkpt lat="43.58813" lon="3.90794">
        <ele>3.3</ele>
        <time>2017-10-27T09:33:56.447Z</time>
      </trkpt>
      <trkpt lat="43.58815" lon="3.90794">
        <ele>3.3</ele>
        <time>2017-10-27T09:33:57.432Z</time>
      </trkpt>
      <trkpt lat="43.58818" lon="3.90794">
        <ele>3.3</ele>
        <time>2017-10-27T09:33:58.445Z</time>
      </trkpt>
      <trkpt lat="43.5882" lon="3.90794">
        <ele>3.2</ele>
        <time>2017-10-27T09:33:59.447Z</time>
      </trkpt>
      <trkpt lat="43.58823" lon="3.90795">
        <ele>3.2</ele>
        <time>2017-10-27T09:34:00.447Z</time>
      </trkpt>
      <trkpt lat="43.58825" lon="3.90795">
        <ele>3.1</ele>
        <time>2017-10-27T09:34:01.448Z</time>
      </trkpt>
      <trkpt lat="43.58828" lon="3.90795">
        <ele>3.1</ele>
        <time>2017-10-27T09:34:02.451Z</time>
      </trkpt>
      <trkpt lat="43.5883" lon="3.90795">
        <ele>3.1</ele>
        <time>2017-10-27T09:34:03.447Z</time>
      </trkpt>
      <trkpt lat="43.58832" lon="3.90794">
        <ele>3.2</ele>
        <time>2017-10-27T09:34:04.445Z</time>
      </trkpt>
      <trkpt lat="43.58835" lon="3.90792">
        <ele>3.1</ele>
        <time>2017-10-27T09:34:05.448Z</time>
      </trkpt>
      <trkpt lat="43.58837" lon="3.90791">
        <ele>3</ele>
        <time>2017-10-27T09:34:06.456Z</time>
      </trkpt>
      <trkpt lat="43.58839" lon="3.90789">
        <ele>2.6</ele>
        <time>2017-10-27T09:34:07.447Z</time>
      </trkpt>
      <trkpt lat="43.58841" lon="3.90788">
        <ele>2</ele>
        <time>2017-10-27T09:34:08.453Z</time>
      </trkpt>
      <trkpt lat="43.58844" lon="3.90788">
        <ele>1.7</ele>
        <time>2017-10-27T09:34:09.449Z</time>
      </trkpt>
      <trkpt lat="43.58846" lon="3.90788">
        <ele>1.4</ele>
        <time>2017-10-27T09:34:10.452Z</time>
      </trkpt>
      <trkpt lat="43.58849" lon="3.90788">
        <ele>1.3</ele>
        <time>2017-10-27T09:34:11.455Z</time>
      </trkpt>
      <trkpt lat="43.58852" lon="3.90787">
        <ele>1.5</ele>
        <time>2017-10-27T09:34:12.456Z</time>
      </trkpt>
      <trkpt lat="43.58855" lon="3.90787">
        <ele>1.5</ele>
        <time>2017-10-27T09:34:13.448Z</time>
      </trkpt>
      <trkpt lat="43.58858" lon="3.90787">
        <ele>1.3</ele>
        <time>2017-10-27T09:34:14.449Z</time>
      </trkpt>
      <trkpt lat="43.58861" lon="3.90787">
        <ele>1.3</ele>
        <time>2017-10-27T09:34:15.448Z</time>
      </trkpt>
      <trkpt lat="43.58864" lon="3.90786">
        <ele>1.3</ele>
        <time>2017-10-27T09:34:16.434Z</time>
      </trkpt>
      <trkpt lat="43.58867" lon="3.90786">
        <ele>1.4</ele>
        <time>2017-10-27T09:34:17.432Z</time>
      </trkpt>
      <trkpt lat="43.58869" lon="3.90785">
        <ele>1.6</ele>
        <time>2017-10-27T09:34:18.434Z</time>
      </trkpt>
      <trkpt lat="43.58872" lon="3.90785">
        <ele>1.6</ele>
        <time>2017-10-27T09:34:19.433Z</time>
      </trkpt>
      <trkpt lat="43.58874" lon="3.90785">
        <ele>1.7</ele>
        <time>2017-10-27T09:34:20.470Z</time>
      </trkpt>
      <trkpt lat="43.58877" lon="3.90784">
        <ele>1.5</ele>
        <time>2017-10-27T09:34:21.460Z</time>
      </trkpt>
      <trkpt lat="43.58879" lon="3.90784">
        <ele>1.5</ele>
        <time>2017-10-27T09:34:22.455Z</time>
      </trkpt>
      <trkpt lat="43.58881" lon="3.90784">
        <ele>1.6</ele>
        <time>2017-10-27T09:34:23.447Z</time>
      </trkpt>
      <trkpt lat="43.58883" lon="3.90784">
        <ele>1.3</ele>
        <time>2017-10-27T09:34:24.451Z</time>
      </trkpt>
      <trkpt lat="43.58885" lon="3.90783">
        <ele>1.2</ele>
        <time>2017-10-27T09:34:25.446Z</time>
      </trkpt>
      <trkpt lat="43.58887" lon="3.90783">
        <ele>1.2</ele>
        <time>2017-10-27T09:34:26.449Z</time>
      </trkpt>
      <trkpt lat="43.58889" lon="3.90782">
        <ele>1.2</ele>
        <time>2017-10-27T09:34:27.446Z</time>
      </trkpt>
      <trkpt lat="43.58891" lon="3.90782">
        <ele>1.3</ele>
        <time>2017-10-27T09:34:28.439Z</time>
      </trkpt>
      <trkpt lat="43.58893" lon="3.90782">
        <ele>1.4</ele>
        <time>2017-10-27T09:34:29.433Z</time>
      </trkpt>
      <trkpt lat="43.58895" lon="3.90782">
        <ele>1.3</ele>
        <time>2017-10-27T09:34:30.434Z</time>
      </trkpt>
      <trkpt lat="43.58897" lon="3.90781">
        <ele>1.5</ele>
        <time>2017-10-27T09:34:31.447Z</time>
      </trkpt>
      <trkpt lat="43.58899" lon="3.9078">
        <ele>1.6</ele>
        <time>2017-10-27T09:34:32.444Z</time>
      </trkpt>
      <trkpt lat="43.58902" lon="3.9078">
        <ele>1</ele>
        <time>2017-10-27T09:34:33.432Z</time>
      </trkpt>
      <trkpt lat="43.58903" lon="3.90781">
        <ele>0.4</ele>
        <time>2017-10-27T09:34:34.454Z</time>
      </trkpt>
      <trkpt lat="43.58906" lon="3.9078">
        <ele>0.7</ele>
        <time>2017-10-27T09:34:35.454Z</time>
      </trkpt>
      <trkpt lat="43.58908" lon="3.9078">
        <ele>0.7</ele>
        <time>2017-10-27T09:34:36.447Z</time>
      </trkpt>
      <trkpt lat="43.58911" lon="3.9078">
        <ele>1.2</ele>
        <time>2017-10-27T09:34:37.434Z</time>
      </trkpt>
      <trkpt lat="43.58913" lon="3.90779">
        <ele>1.4</ele>
        <time>2017-10-27T09:34:38.431Z</time>
      </trkpt>
      <trkpt lat="43.58916" lon="3.90778">
        <ele>1.8</ele>
        <time>2017-10-27T09:34:39.433Z</time>
      </trkpt>
      <trkpt lat="43.58919" lon="3.90778">
        <ele>1.9</ele>
        <time>2017-10-27T09:34:40.431Z</time>
      </trkpt>
      <trkpt lat="43.58923" lon="3.90777">
        <ele>2.1</ele>
        <time>2017-10-27T09:34:41.437Z</time>
      </trkpt>
      <trkpt lat="43.58926" lon="3.90776">
        <ele>2.4</ele>
        <time>2017-10-27T09:34:42.448Z</time>
      </trkpt>
      <trkpt lat="43.58929" lon="3.90774">
        <ele>2.5</ele>
        <time>2017-10-27T09:34:43.446Z</time>
      </trkpt>
      <trkpt lat="43.58932" lon="3.90773">
        <ele>2.5</ele>
        <time>2017-10-27T09:34:44.455Z</time>
      </trkpt>
      <trkpt lat="43.58935" lon="3.90773">
        <ele>2.2</ele>
        <time>2017-10-27T09:34:45.446Z</time>
      </trkpt>
      <trkpt lat="43.58939" lon="3.90772">
        <ele>2.2</ele>
        <time>2017-10-27T09:34:46.447Z</time>
      </trkpt>
      <trkpt lat="43.58942" lon="3.90771">
        <ele>2.3</ele>
        <time>2017-10-27T09:34:47.446Z</time>
      </trkpt>
      <trkpt lat="43.58945" lon="3.9077">
        <ele>2.4</ele>
        <time>2017-10-27T09:34:48.450Z</time>
      </trkpt>
      <trkpt lat="43.58948" lon="3.90769">
        <ele>2.5</ele>
        <time>2017-10-27T09:34:49.447Z</time>
      </trkpt>
      <trkpt lat="43.58951" lon="3.90768">
        <ele>2.6</ele>
        <time>2017-10-27T09:34:50.432Z</time>
      </trkpt>
      <trkpt lat="43.58954" lon="3.90767">
        <ele>2.5</ele>
        <time>2017-10-27T09:34:51.447Z</time>
      </trkpt>
      <trkpt lat="43.58958" lon="3.90766">
        <ele>2.9</ele>
        <time>2017-10-27T09:34:52.446Z</time>
      </trkpt>
      <trkpt lat="43.58961" lon="3.90765">
        <ele>2.7</ele>
        <time>2017-10-27T09:34:53.446Z</time>
      </trkpt>
      <trkpt lat="43.58964" lon="3.90764">
        <ele>2.9</ele>
        <time>2017-10-27T09:34:54.448Z</time>
      </trkpt>
      <trkpt lat="43.58968" lon="3.90763">
        <ele>2.9</ele>
        <time>2017-10-27T09:34:55.448Z</time>
      </trkpt>
      <trkpt lat="43.58971" lon="3.90763">
        <ele>3</ele>
        <time>2017-10-27T09:34:56.459Z</time>
      </trkpt>
      <trkpt lat="43.58975" lon="3.90763">
        <ele>2.9</ele>
        <time>2017-10-27T09:34:57.434Z</time>
      </trkpt>
      <trkpt lat="43.58978" lon="3.90762">
        <ele>2.9</ele>
        <time>2017-10-27T09:34:58.433Z</time>
      </trkpt>
      <trkpt lat="43.5898" lon="3.90762">
        <ele>2.7</ele>
        <time>2017-10-27T09:34:59.442Z</time>
      </trkpt>
      <trkpt lat="43.58983" lon="3.90761">
        <ele>2.5</ele>
        <time>2017-10-27T09:35:00.451Z</time>
      </trkpt>
      <trkpt lat="43.58986" lon="3.90761">
        <ele>2.5</ele>
        <time>2017-10-27T09:35:01.450Z</time>
      </trkpt>
      <trkpt lat="43.58989" lon="3.9076">
        <ele>2.5</ele>
        <time>2017-10-27T09:35:02.448Z</time>
      </trkpt>
      <trkpt lat="43.58993" lon="3.90759">
        <ele>2.5</ele>
        <time>2017-10-27T09:35:03.447Z</time>
      </trkpt>
      <trkpt lat="43.58996" lon="3.90757">
        <ele>2.4</ele>
        <time>2017-10-27T09:35:04.454Z</time>
      </trkpt>
      <trkpt lat="43.59" lon="3.90756">
        <ele>2.3</ele>
        <time>2017-10-27T09:35:05.446Z</time>
      </trkpt>
      <trkpt lat="43.59003" lon="3.90755">
        <ele>2.2</ele>
        <time>2017-10-27T09:35:06.448Z</time>
      </trkpt>
      <trkpt lat="43.59006" lon="3.90753">
        <ele>2.2</ele>
        <time>2017-10-27T09:35:07.447Z</time>
      </trkpt>
      <trkpt lat="43.59009" lon="3.90752">
        <ele>2.1</ele>
        <time>2017-10-27T09:35:08.440Z</time>
      </trkpt>
      <trkpt lat="43.59012" lon="3.90751">
        <ele>2.1</ele>
        <time>2017-10-27T09:35:09.458Z</time>
      </trkpt>
      <trkpt lat="43.59015" lon="3.90749">
        <ele>2.1</ele>
        <time>2017-10-27T09:35:10.449Z</time>
      </trkpt>
      <trkpt lat="43.59018" lon="3.90747">
        <ele>2.2</ele>
        <time>2017-10-27T09:35:11.449Z</time>
      </trkpt>
      <trkpt lat="43.5902" lon="3.90746">
        <ele>2.2</ele>
        <time>2017-10-27T09:35:12.451Z</time>
      </trkpt>
      <trkpt lat="43.59023" lon="3.90744">
        <ele>2.4</ele>
        <time>2017-10-27T09:35:13.448Z</time>
      </trkpt>
      <trkpt lat="43.59026" lon="3.90742">
        <ele>2.4</ele>
        <time>2017-10-27T09:35:14.447Z</time>
      </trkpt>
      <trkpt lat="43.59028" lon="3.90741">
        <ele>2.6</ele>
        <time>2017-10-27T09:35:15.457Z</time>
      </trkpt>
      <trkpt lat="43.59031" lon="3.90739">
        <ele>2.6</ele>
        <time>2017-10-27T09:35:16.435Z</time>
      </trkpt>
      <trkpt lat="43.59033" lon="3.90738">
        <ele>2.6</ele>
        <time>2017-10-27T09:35:17.435Z</time>
      </trkpt>
      <trkpt lat="43.59036" lon="3.90736">
        <ele>2.5</ele>
        <time>2017-10-27T09:35:18.465Z</time>
      </trkpt>
      <trkpt lat="43.59039" lon="3.90735">
        <ele>2.4</ele>
        <time>2017-10-27T09:35:19.435Z</time>
      </trkpt>
      <trkpt lat="43.59041" lon="3.90733">
        <ele>2.4</ele>
        <time>2017-10-27T09:35:20.432Z</time>
      </trkpt>
      <trkpt lat="43.59044" lon="3.90731">
        <ele>2.4</ele>
        <time>2017-10-27T09:35:21.450Z</time>
      </trkpt>
      <trkpt lat="43.59046" lon="3.90729">
        <ele>2.4</ele>
        <time>2017-10-27T09:35:22.454Z</time>
      </trkpt>
      <trkpt lat="43.59049" lon="3.90727">
        <ele>2.4</ele>
        <time>2017-10-27T09:35:23.447Z</time>
      </trkpt>
      <trkpt lat="43.59051" lon="3.90725">
        <ele>2.4</ele>
        <time>2017-10-27T09:35:24.447Z</time>
      </trkpt>
      <trkpt lat="43.59054" lon="3.90723">
        <ele>2.5</ele>
        <time>2017-10-27T09:35:25.446Z</time>
      </trkpt>
      <trkpt lat="43.59056" lon="3.90721">
        <ele>2.6</ele>
        <time>2017-10-27T09:35:26.456Z</time>
      </trkpt>
      <trkpt lat="43.59059" lon="3.90719">
        <ele>2.5</ele>
        <time>2017-10-27T09:35:27.435Z</time>
      </trkpt>
      <trkpt lat="43.59061" lon="3.90716">
        <ele>2.6</ele>
        <time>2017-10-27T09:35:28.445Z</time>
      </trkpt>
      <trkpt lat="43.59063" lon="3.90714">
        <ele>2.6</ele>
        <time>2017-10-27T09:35:29.446Z</time>
      </trkpt>
      <trkpt lat="43.59065" lon="3.90712">
        <ele>2.6</ele>
        <time>2017-10-27T09:35:30.447Z</time>
      </trkpt>
      <trkpt lat="43.59067" lon="3.9071">
        <ele>2.5</ele>
        <time>2017-10-27T09:35:31.446Z</time>
      </trkpt>
      <trkpt lat="43.59069" lon="3.90708">
        <ele>2.4</ele>
        <time>2017-10-27T09:35:32.437Z</time>
      </trkpt>
      <trkpt lat="43.5907" lon="3.90706">
        <ele>2.5</ele>
        <time>2017-10-27T09:35:33.433Z</time>
      </trkpt>
      <trkpt lat="43.59072" lon="3.90704">
        <ele>2.5</ele>
        <time>2017-10-27T09:35:34.432Z</time>
      </trkpt>
      <trkpt lat="43.59074" lon="3.90701">
        <ele>2.6</ele>
        <time>2017-10-27T09:35:35.433Z</time>
      </trkpt>
      <trkpt lat="43.59076" lon="3.90699">
        <ele>2.7</ele>
        <time>2017-10-27T09:35:36.446Z</time>
      </trkpt>
      <trkpt lat="43.59078" lon="3.90697">
        <ele>2.9</ele>
        <time>2017-10-27T09:35:37.453Z</time>
      </trkpt>
      <trkpt lat="43.59081" lon="3.90694">
        <ele>3</ele>
        <time>2017-10-27T09:35:38.453Z</time>
      </trkpt>
      <trkpt lat="43.59083" lon="3.90692">
        <ele>3.2</ele>
        <time>2017-10-27T09:35:39.448Z</time>
      </trkpt>
      <trkpt lat="43.59085" lon="3.90689">
        <ele>3.1</ele>
        <time>2017-10-27T09:35:40.463Z</time>
      </trkpt>
      <trkpt lat="43.59087" lon="3.90687">
        <ele>3</ele>
        <time>2017-10-27T09:35:41.455Z</time>
      </trkpt>
      <trkpt lat="43.59089" lon="3.90685">
        <ele>3</ele>
        <time>2017-10-27T09:35:42.448Z</time>
      </trkpt>
      <trkpt lat="43.59091" lon="3.90683">
        <ele>3</ele>
        <time>2017-10-27T09:35:43.446Z</time>
      </trkpt>
      <trkpt lat="43.59093" lon="3.9068">
        <ele>3</ele>
        <time>2017-10-27T09:35:44.454Z</time>
      </trkpt>
      <trkpt lat="43.59095" lon="3.90678">
        <ele>3</ele>
        <time>2017-10-27T09:35:45.446Z</time>
      </trkpt>
      <trkpt lat="43.59097" lon="3.90676">
        <ele>3</ele>
        <time>2017-10-27T09:35:46.443Z</time>
      </trkpt>
      <trkpt lat="43.59099" lon="3.90673">
        <ele>3</ele>
        <time>2017-10-27T09:35:47.450Z</time>
      </trkpt>
      <trkpt lat="43.59101" lon="3.90671">
        <ele>3</ele>
        <time>2017-10-27T09:35:48.442Z</time>
      </trkpt>
      <trkpt lat="43.59103" lon="3.90668">
        <ele>3</ele>
        <time>2017-10-27T09:35:49.443Z</time>
      </trkpt>
      <trkpt lat="43.59105" lon="3.90666">
        <ele>3.1</ele>
        <time>2017-10-27T09:35:50.438Z</time>
      </trkpt>
      <trkpt lat="43.59107" lon="3.90663">
        <ele>3.1</ele>
        <time>2017-10-27T09:35:51.429Z</time>
      </trkpt>
      <trkpt lat="43.59109" lon="3.90661">
        <ele>3.1</ele>
        <time>2017-10-27T09:35:52.431Z</time>
      </trkpt>
      <trkpt lat="43.59111" lon="3.90658">
        <ele>3.1</ele>
        <time>2017-10-27T09:35:53.435Z</time>
      </trkpt>
      <trkpt lat="43.59113" lon="3.90656">
        <ele>3</ele>
        <time>2017-10-27T09:35:54.450Z</time>
      </trkpt>
      <trkpt lat="43.59115" lon="3.90653">
        <ele>3.1</ele>
        <time>2017-10-27T09:35:55.450Z</time>
      </trkpt>
      <trkpt lat="43.59116" lon="3.90651">
        <ele>3.2</ele>
        <time>2017-10-27T09:35:56.448Z</time>
      </trkpt>
      <trkpt lat="43.59118" lon="3.90649">
        <ele>3.1</ele>
        <time>2017-10-27T09:35:57.435Z</time>
      </trkpt>
      <trkpt lat="43.5912" lon="3.90646">
        <ele>3.2</ele>
        <time>2017-10-27T09:35:58.446Z</time>
      </trkpt>
      <trkpt lat="43.59121" lon="3.90644">
        <ele>3.1</ele>
        <time>2017-10-27T09:35:59.447Z</time>
      </trkpt>
      <trkpt lat="43.59123" lon="3.90641">
        <ele>3.1</ele>
        <time>2017-10-27T09:36:00.452Z</time>
      </trkpt>
      <trkpt lat="43.59124" lon="3.90639">
        <ele>3.1</ele>
        <time>2017-10-27T09:36:01.447Z</time>
      </trkpt>
      <trkpt lat="43.59126" lon="3.90636">
        <ele>3</ele>
        <time>2017-10-27T09:36:02.452Z</time>
      </trkpt>
      <trkpt lat="43.59128" lon="3.90634">
        <ele>3.1</ele>
        <time>2017-10-27T09:36:03.453Z</time>
      </trkpt>
      <trkpt lat="43.59129" lon="3.90632">
        <ele>3</ele>
        <time>2017-10-27T09:36:04.450Z</time>
      </trkpt>
      <trkpt lat="43.59131" lon="3.90629">
        <ele>2.9</ele>
        <time>2017-10-27T09:36:05.451Z</time>
      </trkpt>
      <trkpt lat="43.59133" lon="3.90627">
        <ele>2.9</ele>
        <time>2017-10-27T09:36:06.449Z</time>
      </trkpt>
      <trkpt lat="43.59134" lon="3.90624">
        <ele>3</ele>
        <time>2017-10-27T09:36:07.446Z</time>
      </trkpt>
      <trkpt lat="43.59136" lon="3.90622">
        <ele>3</ele>
        <time>2017-10-27T09:36:08.446Z</time>
      </trkpt>
      <trkpt lat="43.59137" lon="3.90619">
        <ele>3</ele>
        <time>2017-10-27T09:36:09.446Z</time>
      </trkpt>
      <trkpt lat="43.59139" lon="3.90617">
        <ele>3</ele>
        <time>2017-10-27T09:36:10.432Z</time>
      </trkpt>
      <trkpt lat="43.59141" lon="3.90614">
        <ele>3.1</ele>
        <time>2017-10-27T09:36:11.433Z</time>
      </trkpt>
      <trkpt lat="43.59142" lon="3.90611">
        <ele>3.1</ele>
        <time>2017-10-27T09:36:12.440Z</time>
      </trkpt>
      <trkpt lat="43.59144" lon="3.90608">
        <ele>3.3</ele>
        <time>2017-10-27T09:36:13.450Z</time>
      </trkpt>
      <trkpt lat="43.59145" lon="3.90606">
        <ele>3.5</ele>
        <time>2017-10-27T09:36:14.449Z</time>
      </trkpt>
      <trkpt lat="43.59147" lon="3.90603">
        <ele>3.5</ele>
        <time>2017-10-27T09:36:15.447Z</time>
      </trkpt>
      <trkpt lat="43.59148" lon="3.906">
        <ele>3.5</ele>
        <time>2017-10-27T09:36:16.446Z</time>
      </trkpt>
      <trkpt lat="43.5915" lon="3.90598">
        <ele>3.6</ele>
        <time>2017-10-27T09:36:17.446Z</time>
      </trkpt>
      <trkpt lat="43.59151" lon="3.90595">
        <ele>3.7</ele>
        <time>2017-10-27T09:36:18.450Z</time>
      </trkpt>
      <trkpt lat="43.59153" lon="3.90593">
        <ele>3.7</ele>
        <time>2017-10-27T09:36:19.453Z</time>
      </trkpt>
      <trkpt lat="43.59154" lon="3.9059">
        <ele>3.5</ele>
        <time>2017-10-27T09:36:20.446Z</time>
      </trkpt>
      <trkpt lat="43.59156" lon="3.90587">
        <ele>3.6</ele>
        <time>2017-10-27T09:36:21.446Z</time>
      </trkpt>
      <trkpt lat="43.59158" lon="3.90584">
        <ele>3.5</ele>
        <time>2017-10-27T09:36:22.446Z</time>
      </trkpt>
      <trkpt lat="43.5916" lon="3.90581">
        <ele>3.5</ele>
        <time>2017-10-27T09:36:23.456Z</time>
      </trkpt>
      <trkpt lat="43.59161" lon="3.90578">
        <ele>3.6</ele>
        <time>2017-10-27T09:36:24.450Z</time>
      </trkpt>
      <trkpt lat="43.59163" lon="3.90576">
        <ele>3.6</ele>
        <time>2017-10-27T09:36:25.453Z</time>
      </trkpt>
      <trkpt lat="43.59164" lon="3.90573">
        <ele>3.6</ele>
        <time>2017-10-27T09:36:26.459Z</time>
      </trkpt>
      <trkpt lat="43.59166" lon="3.9057">
        <ele>3.8</ele>
        <time>2017-10-27T09:36:27.447Z</time>
      </trkpt>
      <trkpt lat="43.59168" lon="3.90568">
        <ele>3.9</ele>
        <time>2017-10-27T09:36:28.435Z</time>
      </trkpt>
      <trkpt lat="43.59169" lon="3.90565">
        <ele>3.9</ele>
        <time>2017-10-27T09:36:29.433Z</time>
      </trkpt>
      <trkpt lat="43.59171" lon="3.90562">
        <ele>4</ele>
        <time>2017-10-27T09:36:30.436Z</time>
      </trkpt>
      <trkpt lat="43.59173" lon="3.90559">
        <ele>4.1</ele>
        <time>2017-10-27T09:36:31.461Z</time>
      </trkpt>
      <trkpt lat="43.59174" lon="3.90557">
        <ele>4.1</ele>
        <time>2017-10-27T09:36:32.450Z</time>
      </trkpt>
      <trkpt lat="43.59176" lon="3.90554">
        <ele>4</ele>
        <time>2017-10-27T09:36:33.450Z</time>
      </trkpt>
      <trkpt lat="43.59178" lon="3.90552">
        <ele>4.1</ele>
        <time>2017-10-27T09:36:34.454Z</time>
      </trkpt>
      <trkpt lat="43.59179" lon="3.9055">
        <ele>4</ele>
        <time>2017-10-27T09:36:35.454Z</time>
      </trkpt>
      <trkpt lat="43.59181" lon="3.90548">
        <ele>3.9</ele>
        <time>2017-10-27T09:36:36.452Z</time>
      </trkpt>
      <trkpt lat="43.59183" lon="3.90546">
        <ele>3.8</ele>
        <time>2017-10-27T09:36:37.447Z</time>
      </trkpt>
      <trkpt lat="43.59184" lon="3.90544">
        <ele>3.8</ele>
        <time>2017-10-27T09:36:38.447Z</time>
      </trkpt>
      <trkpt lat="43.59186" lon="3.90541">
        <ele>3.8</ele>
        <time>2017-10-27T09:36:39.460Z</time>
      </trkpt>
      <trkpt lat="43.59187" lon="3.90539">
        <ele>3.8</ele>
        <time>2017-10-27T09:36:40.448Z</time>
      </trkpt>
      <trkpt lat="43.59189" lon="3.90536">
        <ele>3.8</ele>
        <time>2017-10-27T09:36:41.432Z</time>
      </trkpt>
      <trkpt lat="43.59191" lon="3.90534">
        <ele>3.9</ele>
        <time>2017-10-27T09:36:42.447Z</time>
      </trkpt>
      <trkpt lat="43.59193" lon="3.90532">
        <ele>3.9</ele>
        <time>2017-10-27T09:36:43.441Z</time>
      </trkpt>
      <trkpt lat="43.59194" lon="3.9053">
        <ele>3.9</ele>
        <time>2017-10-27T09:36:44.448Z</time>
      </trkpt>
      <trkpt lat="43.59196" lon="3.90529">
        <ele>3.9</ele>
        <time>2017-10-27T09:36:45.446Z</time>
      </trkpt>
      <trkpt lat="43.59198" lon="3.90527">
        <ele>3.9</ele>
        <time>2017-10-27T09:36:46.454Z</time>
      </trkpt>
      <trkpt lat="43.592" lon="3.90524">
        <ele>3.9</ele>
        <time>2017-10-27T09:36:47.438Z</time>
      </trkpt>
      <trkpt lat="43.59202" lon="3.90522">
        <ele>4</ele>
        <time>2017-10-27T09:36:48.434Z</time>
      </trkpt>
      <trkpt lat="43.59203" lon="3.9052">
        <ele>4</ele>
        <time>2017-10-27T09:36:49.450Z</time>
      </trkpt>
      <trkpt lat="43.59205" lon="3.90517">
        <ele>4</ele>
        <time>2017-10-27T09:36:50.446Z</time>
      </trkpt>
      <trkpt lat="43.59207" lon="3.90515">
        <ele>4.1</ele>
        <time>2017-10-27T09:36:51.447Z</time>
      </trkpt>
      <trkpt lat="43.59209" lon="3.90512">
        <ele>4.1</ele>
        <time>2017-10-27T09:36:52.464Z</time>
      </trkpt>
      <trkpt lat="43.59211" lon="3.9051">
        <ele>4.2</ele>
        <time>2017-10-27T09:36:53.432Z</time>
      </trkpt>
      <trkpt lat="43.59213" lon="3.90508">
        <ele>4.3</ele>
        <time>2017-10-27T09:36:54.434Z</time>
      </trkpt>
      <trkpt lat="43.59215" lon="3.90505">
        <ele>4.3</ele>
        <time>2017-10-27T09:36:55.432Z</time>
      </trkpt>
      <trkpt lat="43.59217" lon="3.90503">
        <ele>4.3</ele>
        <time>2017-10-27T09:36:56.431Z</time>
      </trkpt>
      <trkpt lat="43.59219" lon="3.90501">
        <ele>4.4</ele>
        <time>2017-10-27T09:36:57.446Z</time>
      </trkpt>
      <trkpt lat="43.59221" lon="3.90499">
        <ele>4.5</ele>
        <time>2017-10-27T09:36:58.454Z</time>
      </trkpt>
      <trkpt lat="43.59223" lon="3.90497">
        <ele>4.5</ele>
        <time>2017-10-27T09:36:59.448Z</time>
      </trkpt>
      <trkpt lat="43.59225" lon="3.90495">
        <ele>4.5</ele>
        <time>2017-10-27T09:37:00.450Z</time>
      </trkpt>
      <trkpt lat="43.59227" lon="3.90493">
        <ele>4.5</ele>
        <time>2017-10-27T09:37:01.437Z</time>
      </trkpt>
      <trkpt lat="43.59229" lon="3.9049">
        <ele>4.6</ele>
        <time>2017-10-27T09:37:02.446Z</time>
      </trkpt>
      <trkpt lat="43.59231" lon="3.90488">
        <ele>4.7</ele>
        <time>2017-10-27T09:37:03.432Z</time>
      </trkpt>
      <trkpt lat="43.59233" lon="3.90486">
        <ele>4.6</ele>
        <time>2017-10-27T09:37:04.445Z</time>
      </trkpt>
      <trkpt lat="43.59235" lon="3.90484">
        <ele>4.6</ele>
        <time>2017-10-27T09:37:05.445Z</time>
      </trkpt>
      <trkpt lat="43.59238" lon="3.90483">
        <ele>4.6</ele>
        <time>2017-10-27T09:37:06.446Z</time>
      </trkpt>
      <trkpt lat="43.5924" lon="3.90481">
        <ele>4.6</ele>
        <time>2017-10-27T09:37:07.445Z</time>
      </trkpt>
      <trkpt lat="43.59242" lon="3.90479">
        <ele>4.6</ele>
        <time>2017-10-27T09:37:08.457Z</time>
      </trkpt>
      <trkpt lat="43.59245" lon="3.90477">
        <ele>4.7</ele>
        <time>2017-10-27T09:37:09.452Z</time>
      </trkpt>
      <trkpt lat="43.59247" lon="3.90476">
        <ele>4.7</ele>
        <time>2017-10-27T09:37:10.446Z</time>
      </trkpt>
      <trkpt lat="43.5925" lon="3.90474">
        <ele>4.7</ele>
        <time>2017-10-27T09:37:11.445Z</time>
      </trkpt>
      <trkpt lat="43.59252" lon="3.90473">
        <ele>4.8</ele>
        <time>2017-10-27T09:37:12.451Z</time>
      </trkpt>
      <trkpt lat="43.59254" lon="3.90471">
        <ele>4.7</ele>
        <time>2017-10-27T09:37:13.432Z</time>
      </trkpt>
      <trkpt lat="43.59257" lon="3.9047">
        <ele>4.7</ele>
        <time>2017-10-27T09:37:14.434Z</time>
      </trkpt>
      <trkpt lat="43.59259" lon="3.90468">
        <ele>4.8</ele>
        <time>2017-10-27T09:37:15.436Z</time>
      </trkpt>
      <trkpt lat="43.59262" lon="3.90466">
        <ele>4.7</ele>
        <time>2017-10-27T09:37:16.468Z</time>
      </trkpt>
      <trkpt lat="43.59264" lon="3.90465">
        <ele>4.7</ele>
        <time>2017-10-27T09:37:17.456Z</time>
      </trkpt>
      <trkpt lat="43.59267" lon="3.90463">
        <ele>4.8</ele>
        <time>2017-10-27T09:37:18.449Z</time>
      </trkpt>
      <trkpt lat="43.5927" lon="3.90462">
        <ele>4.8</ele>
        <time>2017-10-27T09:37:19.452Z</time>
      </trkpt>
      <trkpt lat="43.59272" lon="3.90461">
        <ele>4.8</ele>
        <time>2017-10-27T09:37:20.449Z</time>
      </trkpt>
      <trkpt lat="43.59275" lon="3.9046">
        <ele>4.8</ele>
        <time>2017-10-27T09:37:21.446Z</time>
      </trkpt>
      <trkpt lat="43.59278" lon="3.90459">
        <ele>4.7</ele>
        <time>2017-10-27T09:37:22.448Z</time>
      </trkpt>
      <trkpt lat="43.59281" lon="3.90458">
        <ele>4.4</ele>
        <time>2017-10-27T09:37:23.448Z</time>
      </trkpt>
      <trkpt lat="43.59284" lon="3.90457">
        <ele>4.3</ele>
        <time>2017-10-27T09:37:24.443Z</time>
      </trkpt>
      <trkpt lat="43.59287" lon="3.90456">
        <ele>4.2</ele>
        <time>2017-10-27T09:37:25.455Z</time>
      </trkpt>
      <trkpt lat="43.5929" lon="3.90454">
        <ele>4.1</ele>
        <time>2017-10-27T09:37:26.446Z</time>
      </trkpt>
      <trkpt lat="43.59293" lon="3.90453">
        <ele>4</ele>
        <time>2017-10-27T09:37:27.448Z</time>
      </trkpt>
      <trkpt lat="43.59296" lon="3.90451">
        <ele>4</ele>
        <time>2017-10-27T09:37:28.454Z</time>
      </trkpt>
      <trkpt lat="43.59299" lon="3.9045">
        <ele>4</ele>
        <time>2017-10-27T09:37:29.446Z</time>
      </trkpt>
      <trkpt lat="43.59302" lon="3.90448">
        <ele>3.9</ele>
        <time>2017-10-27T09:37:30.447Z</time>
      </trkpt>
      <trkpt lat="43.59305" lon="3.90447">
        <ele>3.8</ele>
        <time>2017-10-27T09:37:31.446Z</time>
      </trkpt>
      <trkpt lat="43.59309" lon="3.90445">
        <ele>3.8</ele>
        <time>2017-10-27T09:37:32.445Z</time>
      </trkpt>
      <trkpt lat="43.59312" lon="3.90444">
        <ele>3.7</ele>
        <time>2017-10-27T09:37:33.432Z</time>
      </trkpt>
      <trkpt lat="43.59315" lon="3.90442">
        <ele>3.6</ele>
        <time>2017-10-27T09:37:34.432Z</time>
      </trkpt>
      <trkpt lat="43.59318" lon="3.90441">
        <ele>3.6</ele>
        <time>2017-10-27T09:37:35.432Z</time>
      </trkpt>
      <trkpt lat="43.59322" lon="3.90439">
        <ele>3.5</ele>
        <time>2017-10-27T09:37:36.443Z</time>
      </trkpt>
      <trkpt lat="43.59325" lon="3.90437">
        <ele>3.5</ele>
        <time>2017-10-27T09:37:37.450Z</time>
      </trkpt>
      <trkpt lat="43.59328" lon="3.90435">
        <ele>3.5</ele>
        <time>2017-10-27T09:37:38.450Z</time>
      </trkpt>
      <trkpt lat="43.59331" lon="3.90434">
        <ele>3.5</ele>
        <time>2017-10-27T09:37:39.454Z</time>
      </trkpt>
      <trkpt lat="43.59334" lon="3.90433">
        <ele>3.5</ele>
        <time>2017-10-27T09:37:40.433Z</time>
      </trkpt>
      <trkpt lat="43.59336" lon="3.90432">
        <ele>3.5</ele>
        <time>2017-10-27T09:37:41.444Z</time>
      </trkpt>
      <trkpt lat="43.59338" lon="3.90431">
        <ele>3.5</ele>
        <time>2017-10-27T09:37:42.445Z</time>
      </trkpt>
      <trkpt lat="43.5934" lon="3.90431">
        <ele>3.4</ele>
        <time>2017-10-27T09:37:43.445Z</time>
      </trkpt>
      <trkpt lat="43.59342" lon="3.9043">
        <ele>3.4</ele>
        <time>2017-10-27T09:37:44.446Z</time>
      </trkpt>
      <trkpt lat="43.59345" lon="3.90429">
        <ele>3.3</ele>
        <time>2017-10-27T09:37:45.447Z</time>
      </trkpt>
      <trkpt lat="43.59348" lon="3.90428">
        <ele>3</ele>
        <time>2017-10-27T09:37:46.445Z</time>
      </trkpt>
      <trkpt lat="43.59351" lon="3.90427">
        <ele>2.8</ele>
        <time>2017-10-27T09:37:47.447Z</time>
      </trkpt>
      <trkpt lat="43.59355" lon="3.90426">
        <ele>2.9</ele>
        <time>2017-10-27T09:37:48.447Z</time>
      </trkpt>
      <trkpt lat="43.59358" lon="3.90424">
        <ele>2.8</ele>
        <time>2017-10-27T09:37:49.451Z</time>
      </trkpt>
      <trkpt lat="43.5936" lon="3.90423">
        <ele>2.7</ele>
        <time>2017-10-27T09:37:50.432Z</time>
      </trkpt>
      <trkpt lat="43.59363" lon="3.90422">
        <ele>2.5</ele>
        <time>2017-10-27T09:37:51.432Z</time>
      </trkpt>
      <trkpt lat="43.59365" lon="3.90421">
        <ele>2.1</ele>
        <time>2017-10-27T09:37:52.433Z</time>
      </trkpt>
      <trkpt lat="43.59367" lon="3.9042">
        <ele>2.1</ele>
        <time>2017-10-27T09:37:53.432Z</time>
      </trkpt>
      <trkpt lat="43.5937" lon="3.90418">
        <ele>2</ele>
        <time>2017-10-27T09:37:54.433Z</time>
      </trkpt>
      <trkpt lat="43.59373" lon="3.90417">
        <ele>1.9</ele>
        <time>2017-10-27T09:37:55.447Z</time>
      </trkpt>
      <trkpt lat="43.59376" lon="3.90415">
        <ele>1.8</ele>
        <time>2017-10-27T09:37:56.446Z</time>
      </trkpt>
      <trkpt lat="43.59378" lon="3.90414">
        <ele>1.7</ele>
        <time>2017-10-27T09:37:57.433Z</time>
      </trkpt>
      <trkpt lat="43.59381" lon="3.90412">
        <ele>1.6</ele>
        <time>2017-10-27T09:37:58.447Z</time>
      </trkpt>
      <trkpt lat="43.59384" lon="3.9041">
        <ele>1.4</ele>
        <time>2017-10-27T09:37:59.451Z</time>
      </trkpt>
      <trkpt lat="43.59387" lon="3.90409">
        <ele>1.1</ele>
        <time>2017-10-27T09:38:00.451Z</time>
      </trkpt>
      <trkpt lat="43.59389" lon="3.90407">
        <ele>1.2</ele>
        <time>2017-10-27T09:38:01.444Z</time>
      </trkpt>
      <trkpt lat="43.59392" lon="3.90406">
        <ele>1</ele>
        <time>2017-10-27T09:38:02.448Z</time>
      </trkpt>
      <trkpt lat="43.59395" lon="3.90404">
        <ele>0.6</ele>
        <time>2017-10-27T09:38:03.436Z</time>
      </trkpt>
      <trkpt lat="43.59398" lon="3.90402">
        <ele>0.8</ele>
        <time>2017-10-27T09:38:04.444Z</time>
      </trkpt>
      <trkpt lat="43.594" lon="3.90401">
        <ele>0.7</ele>
        <time>2017-10-27T09:38:05.447Z</time>
      </trkpt>
      <trkpt lat="43.59403" lon="3.90399">
        <ele>0.6</ele>
        <time>2017-10-27T09:38:06.446Z</time>
      </trkpt>
      <trkpt lat="43.59406" lon="3.90397">
        <ele>0.3</ele>
        <time>2017-10-27T09:38:07.445Z</time>
      </trkpt>
      <trkpt lat="43.59409" lon="3.90396">
        <ele>0.2</ele>
        <time>2017-10-27T09:38:08.446Z</time>
      </trkpt>
      <trkpt lat="43.59411" lon="3.90394">
        <ele>0.3</ele>
        <time>2017-10-27T09:38:09.449Z</time>
      </trkpt>
      <trkpt lat="43.59414" lon="3.90392">
        <ele>0.2</ele>
        <time>2017-10-27T09:38:10.454Z</time>
      </trkpt>
      <trkpt lat="43.59417" lon="3.9039">
        <ele>0.2</ele>
        <time>2017-10-27T09:38:11.446Z</time>
      </trkpt>
      <trkpt lat="43.59419" lon="3.90388">
        <ele>0.1</ele>
        <time>2017-10-27T09:38:12.433Z</time>
      </trkpt>
      <trkpt lat="43.59422" lon="3.90386">
        <ele>0.1</ele>
        <time>2017-10-27T09:38:13.432Z</time>
      </trkpt>
      <trkpt lat="43.59424" lon="3.90383">
        <ele>0.6</ele>
        <time>2017-10-27T09:38:14.432Z</time>
      </trkpt>
      <trkpt lat="43.59427" lon="3.90381">
        <ele>0.7</ele>
        <time>2017-10-27T09:38:15.442Z</time>
      </trkpt>
      <trkpt lat="43.59429" lon="3.90378">
        <ele>0.5</ele>
        <time>2017-10-27T09:38:16.446Z</time>
      </trkpt>
      <trkpt lat="43.59432" lon="3.90375">
        <ele>0.5</ele>
        <time>2017-10-27T09:38:17.454Z</time>
      </trkpt>
      <trkpt lat="43.59434" lon="3.90373">
        <ele>0.6</ele>
        <time>2017-10-27T09:38:18.452Z</time>
      </trkpt>
      <trkpt lat="43.59436" lon="3.9037">
        <ele>0.9</ele>
        <time>2017-10-27T09:38:19.452Z</time>
      </trkpt>
      <trkpt lat="43.59438" lon="3.90368">
        <ele>1</ele>
        <time>2017-10-27T09:38:20.447Z</time>
      </trkpt>
      <trkpt lat="43.59441" lon="3.90365">
        <ele>1.1</ele>
        <time>2017-10-27T09:38:21.449Z</time>
      </trkpt>
      <trkpt lat="43.59443" lon="3.90363">
        <ele>1.2</ele>
        <time>2017-10-27T09:38:22.446Z</time>
      </trkpt>
      <trkpt lat="43.59445" lon="3.90361">
        <ele>1.6</ele>
        <time>2017-10-27T09:38:23.446Z</time>
      </trkpt>
      <trkpt lat="43.59447" lon="3.90358">
        <ele>1.8</ele>
        <time>2017-10-27T09:38:24.447Z</time>
      </trkpt>
      <trkpt lat="43.59449" lon="3.90356">
        <ele>1.8</ele>
        <time>2017-10-27T09:38:25.446Z</time>
      </trkpt>
      <trkpt lat="43.59452" lon="3.90354">
        <ele>1.8</ele>
        <time>2017-10-27T09:38:26.446Z</time>
      </trkpt>
      <trkpt lat="43.59454" lon="3.90352">
        <ele>2.1</ele>
        <time>2017-10-27T09:38:27.446Z</time>
      </trkpt>
      <trkpt lat="43.59456" lon="3.9035">
        <ele>2.3</ele>
        <time>2017-10-27T09:38:28.445Z</time>
      </trkpt>
      <trkpt lat="43.59458" lon="3.90347">
        <ele>2.5</ele>
        <time>2017-10-27T09:38:29.445Z</time>
      </trkpt>
      <trkpt lat="43.5946" lon="3.90345">
        <ele>2.5</ele>
        <time>2017-10-27T09:38:30.433Z</time>
      </trkpt>
      <trkpt lat="43.59463" lon="3.90343">
        <ele>2.6</ele>
        <time>2017-10-27T09:38:31.432Z</time>
      </trkpt>
      <trkpt lat="43.59465" lon="3.9034">
        <ele>2.8</ele>
        <time>2017-10-27T09:38:32.439Z</time>
      </trkpt>
      <trkpt lat="43.59467" lon="3.90337">
        <ele>2.9</ele>
        <time>2017-10-27T09:38:33.448Z</time>
      </trkpt>
      <trkpt lat="43.5947" lon="3.90334">
        <ele>2.8</ele>
        <time>2017-10-27T09:38:34.445Z</time>
      </trkpt>
      <trkpt lat="43.59472" lon="3.90332">
        <ele>2.8</ele>
        <time>2017-10-27T09:38:35.446Z</time>
      </trkpt>
      <trkpt lat="43.59475" lon="3.90329">
        <ele>2.9</ele>
        <time>2017-10-27T09:38:36.448Z</time>
      </trkpt>
      <trkpt lat="43.59477" lon="3.90327">
        <ele>3</ele>
        <time>2017-10-27T09:38:37.449Z</time>
      </trkpt>
      <trkpt lat="43.5948" lon="3.90324">
        <ele>3</ele>
        <time>2017-10-27T09:38:38.448Z</time>
      </trkpt>
      <trkpt lat="43.59482" lon="3.90321">
        <ele>3</ele>
        <time>2017-10-27T09:38:39.446Z</time>
      </trkpt>
      <trkpt lat="43.59485" lon="3.90318">
        <ele>3</ele>
        <time>2017-10-27T09:38:40.449Z</time>
      </trkpt>
      <trkpt lat="43.59488" lon="3.90315">
        <ele>3.1</ele>
        <time>2017-10-27T09:38:41.447Z</time>
      </trkpt>
      <trkpt lat="43.5949" lon="3.90313">
        <ele>3.2</ele>
        <time>2017-10-27T09:38:42.447Z</time>
      </trkpt>
      <trkpt lat="43.59492" lon="3.9031">
        <ele>3.4</ele>
        <time>2017-10-27T09:38:43.445Z</time>
      </trkpt>
      <trkpt lat="43.59495" lon="3.90307">
        <ele>3.5</ele>
        <time>2017-10-27T09:38:44.452Z</time>
      </trkpt>
      <trkpt lat="43.59497" lon="3.90304">
        <ele>3.5</ele>
        <time>2017-10-27T09:38:45.446Z</time>
      </trkpt>
      <trkpt lat="43.59499" lon="3.90301">
        <ele>3.5</ele>
        <time>2017-10-27T09:38:46.445Z</time>
      </trkpt>
      <trkpt lat="43.59501" lon="3.90298">
        <ele>3.6</ele>
        <time>2017-10-27T09:38:47.432Z</time>
      </trkpt>
      <trkpt lat="43.59503" lon="3.90295">
        <ele>3.7</ele>
        <time>2017-10-27T09:38:48.436Z</time>
      </trkpt>
      <trkpt lat="43.59506" lon="3.90291">
        <ele>3.8</ele>
        <time>2017-10-27T09:38:49.432Z</time>
      </trkpt>
      <trkpt lat="43.59508" lon="3.90288">
        <ele>3.8</ele>
        <time>2017-10-27T09:38:50.438Z</time>
      </trkpt>
      <trkpt lat="43.5951" lon="3.90285">
        <ele>3.9</ele>
        <time>2017-10-27T09:38:51.436Z</time>
      </trkpt>
      <trkpt lat="43.59512" lon="3.90282">
        <ele>4</ele>
        <time>2017-10-27T09:38:52.444Z</time>
      </trkpt>
      <trkpt lat="43.59515" lon="3.90279">
        <ele>4.2</ele>
        <time>2017-10-27T09:38:53.452Z</time>
      </trkpt>
      <trkpt lat="43.59517" lon="3.90276">
        <ele>4.2</ele>
        <time>2017-10-27T09:38:54.453Z</time>
      </trkpt>
      <trkpt lat="43.59519" lon="3.90273">
        <ele>4.2</ele>
        <time>2017-10-27T09:38:55.447Z</time>
      </trkpt>
      <trkpt lat="43.59522" lon="3.90269">
        <ele>4</ele>
        <time>2017-10-27T09:38:56.445Z</time>
      </trkpt>
      <trkpt lat="43.59524" lon="3.90266">
        <ele>4</ele>
        <time>2017-10-27T09:38:57.448Z</time>
      </trkpt>
      <trkpt lat="43.59526" lon="3.90262">
        <ele>4</ele>
        <time>2017-10-27T09:38:58.465Z</time>
      </trkpt>
      <trkpt lat="43.59528" lon="3.90259">
        <ele>4.2</ele>
        <time>2017-10-27T09:38:59.445Z</time>
      </trkpt>
      <trkpt lat="43.59531" lon="3.90256">
        <ele>4.2</ele>
        <time>2017-10-27T09:39:00.447Z</time>
      </trkpt>
      <trkpt lat="43.59533" lon="3.90253">
        <ele>4.2</ele>
        <time>2017-10-27T09:39:01.445Z</time>
      </trkpt>
      <trkpt lat="43.59535" lon="3.90249">
        <ele>4.3</ele>
        <time>2017-10-27T09:39:02.445Z</time>
      </trkpt>
      <trkpt lat="43.59537" lon="3.90246">
        <ele>4.5</ele>
        <time>2017-10-27T09:39:03.446Z</time>
      </trkpt>
      <trkpt lat="43.59539" lon="3.90243">
        <ele>4.6</ele>
        <time>2017-10-27T09:39:04.448Z</time>
      </trkpt>
      <trkpt lat="43.59541" lon="3.9024">
        <ele>4.6</ele>
        <time>2017-10-27T09:39:05.449Z</time>
      </trkpt>
      <trkpt lat="43.59544" lon="3.90236">
        <ele>4.6</ele>
        <time>2017-10-27T09:39:06.433Z</time>
      </trkpt>
      <trkpt lat="43.59546" lon="3.90233">
        <ele>4.5</ele>
        <time>2017-10-27T09:39:07.432Z</time>
      </trkpt>
      <trkpt lat="43.59548" lon="3.9023">
        <ele>4.5</ele>
        <time>2017-10-27T09:39:08.433Z</time>
      </trkpt>
      <trkpt lat="43.5955" lon="3.90227">
        <ele>4.4</ele>
        <time>2017-10-27T09:39:09.437Z</time>
      </trkpt>
      <trkpt lat="43.59553" lon="3.90224">
        <ele>4.4</ele>
        <time>2017-10-27T09:39:10.446Z</time>
      </trkpt>
      <trkpt lat="43.59555" lon="3.9022">
        <ele>4.6</ele>
        <time>2017-10-27T09:39:11.448Z</time>
      </trkpt>
      <trkpt lat="43.59557" lon="3.90217">
        <ele>4.4</ele>
        <time>2017-10-27T09:39:12.453Z</time>
      </trkpt>
      <trkpt lat="43.5956" lon="3.90213">
        <ele>4.4</ele>
        <time>2017-10-27T09:39:13.447Z</time>
      </trkpt>
      <trkpt lat="43.59562" lon="3.9021">
        <ele>4.3</ele>
        <time>2017-10-27T09:39:14.445Z</time>
      </trkpt>
      <trkpt lat="43.59565" lon="3.90206">
        <ele>4.1</ele>
        <time>2017-10-27T09:39:15.447Z</time>
      </trkpt>
      <trkpt lat="43.59567" lon="3.90203">
        <ele>4</ele>
        <time>2017-10-27T09:39:16.445Z</time>
      </trkpt>
      <trkpt lat="43.5957" lon="3.90199">
        <ele>3.9</ele>
        <time>2017-10-27T09:39:17.449Z</time>
      </trkpt>
      <trkpt lat="43.59572" lon="3.90196">
        <ele>3.9</ele>
        <time>2017-10-27T09:39:18.449Z</time>
      </trkpt>
      <trkpt lat="43.59575" lon="3.90192">
        <ele>4</ele>
        <time>2017-10-27T09:39:19.448Z</time>
      </trkpt>
      <trkpt lat="43.59577" lon="3.90188">
        <ele>4</ele>
        <time>2017-10-27T09:39:20.446Z</time>
      </trkpt>
      <trkpt lat="43.59579" lon="3.90184">
        <ele>4.1</ele>
        <time>2017-10-27T09:39:21.445Z</time>
      </trkpt>
      <trkpt lat="43.59582" lon="3.9018">
        <ele>4</ele>
        <time>2017-10-27T09:39:22.445Z</time>
      </trkpt>
      <trkpt lat="43.59584" lon="3.90176">
        <ele>4</ele>
        <time>2017-10-27T09:39:23.445Z</time>
      </trkpt>
      <trkpt lat="43.59587" lon="3.90173">
        <ele>4.1</ele>
        <time>2017-10-27T09:39:24.453Z</time>
      </trkpt>
      <trkpt lat="43.5959" lon="3.90169">
        <ele>4.3</ele>
        <time>2017-10-27T09:39:25.446Z</time>
      </trkpt>
      <trkpt lat="43.59592" lon="3.90167">
        <ele>4.4</ele>
        <time>2017-10-27T09:39:26.446Z</time>
      </trkpt>
      <trkpt lat="43.59594" lon="3.90164">
        <ele>4.5</ele>
        <time>2017-10-27T09:39:27.434Z</time>
      </trkpt>
      <trkpt lat="43.59597" lon="3.90161">
        <ele>4.6</ele>
        <time>2017-10-27T09:39:28.432Z</time>
      </trkpt>
      <trkpt lat="43.59599" lon="3.90158">
        <ele>4.6</ele>
        <time>2017-10-27T09:39:29.432Z</time>
      </trkpt>
      <trkpt lat="43.59601" lon="3.90156">
        <ele>4.8</ele>
        <time>2017-10-27T09:39:30.434Z</time>
      </trkpt>
      <trkpt lat="43.59603" lon="3.90153">
        <ele>5</ele>
        <time>2017-10-27T09:39:31.445Z</time>
      </trkpt>
      <trkpt lat="43.59604" lon="3.90151">
        <ele>5.1</ele>
        <time>2017-10-27T09:39:32.449Z</time>
      </trkpt>
      <trkpt lat="43.59606" lon="3.90149">
        <ele>5.3</ele>
        <time>2017-10-27T09:39:33.449Z</time>
      </trkpt>
      <trkpt lat="43.59608" lon="3.90147">
        <ele>5.3</ele>
        <time>2017-10-27T09:39:34.448Z</time>
      </trkpt>
      <trkpt lat="43.59609" lon="3.90144">
        <ele>5.3</ele>
        <time>2017-10-27T09:39:35.449Z</time>
      </trkpt>
      <trkpt lat="43.59611" lon="3.90142">
        <ele>5.2</ele>
        <time>2017-10-27T09:39:36.446Z</time>
      </trkpt>
      <trkpt lat="43.59613" lon="3.90139">
        <ele>5.1</ele>
        <time>2017-10-27T09:39:37.450Z</time>
      </trkpt>
      <trkpt lat="43.59615" lon="3.90136">
        <ele>5.2</ele>
        <time>2017-10-27T09:39:38.448Z</time>
      </trkpt>
      <trkpt lat="43.59617" lon="3.90133">
        <ele>5.1</ele>
        <time>2017-10-27T09:39:39.452Z</time>
      </trkpt>
      <trkpt lat="43.59619" lon="3.90131">
        <ele>5.2</ele>
        <time>2017-10-27T09:39:40.446Z</time>
      </trkpt>
      <trkpt lat="43.59621" lon="3.90128">
        <ele>5.3</ele>
        <time>2017-10-27T09:39:41.447Z</time>
      </trkpt>
      <trkpt lat="43.59623" lon="3.90126">
        <ele>5.3</ele>
        <time>2017-10-27T09:39:42.447Z</time>
      </trkpt>
      <trkpt lat="43.59625" lon="3.90123">
        <ele>5.4</ele>
        <time>2017-10-27T09:39:43.445Z</time>
      </trkpt>
      <trkpt lat="43.59627" lon="3.9012">
        <ele>5.3</ele>
        <time>2017-10-27T09:39:44.446Z</time>
      </trkpt>
      <trkpt lat="43.59628" lon="3.90118">
        <ele>5.3</ele>
        <time>2017-10-27T09:39:45.455Z</time>
      </trkpt>
      <trkpt lat="43.5963" lon="3.90116">
        <ele>5.2</ele>
        <time>2017-10-27T09:39:46.446Z</time>
      </trkpt>
      <trkpt lat="43.59632" lon="3.90114">
        <ele>5.1</ele>
        <time>2017-10-27T09:39:47.446Z</time>
      </trkpt>
      <trkpt lat="43.59633" lon="3.90111">
        <ele>5.1</ele>
        <time>2017-10-27T09:39:48.433Z</time>
      </trkpt>
      <trkpt lat="43.59635" lon="3.90109">
        <ele>5.4</ele>
        <time>2017-10-27T09:39:49.432Z</time>
      </trkpt>
      <trkpt lat="43.59637" lon="3.90106">
        <ele>5.6</ele>
        <time>2017-10-27T09:39:50.437Z</time>
      </trkpt>
      <trkpt lat="43.59639" lon="3.90104">
        <ele>5.8</ele>
        <time>2017-10-27T09:39:51.440Z</time>
      </trkpt>
      <trkpt lat="43.5964" lon="3.90101">
        <ele>6</ele>
        <time>2017-10-27T09:39:52.449Z</time>
      </trkpt>
      <trkpt lat="43.59642" lon="3.90099">
        <ele>6.2</ele>
        <time>2017-10-27T09:39:53.432Z</time>
      </trkpt>
      <trkpt lat="43.59644" lon="3.90096">
        <ele>6.5</ele>
        <time>2017-10-27T09:39:54.434Z</time>
      </trkpt>
      <trkpt lat="43.59645" lon="3.90094">
        <ele>6.9</ele>
        <time>2017-10-27T09:39:55.437Z</time>
      </trkpt>
      <trkpt lat="43.59647" lon="3.90091">
        <ele>6.9</ele>
        <time>2017-10-27T09:39:56.432Z</time>
      </trkpt>
      <trkpt lat="43.59649" lon="3.90089">
        <ele>6.8</ele>
        <time>2017-10-27T09:39:57.431Z</time>
      </trkpt>
      <trkpt lat="43.59651" lon="3.90087">
        <ele>7</ele>
        <time>2017-10-27T09:39:58.434Z</time>
      </trkpt>
      <trkpt lat="43.59653" lon="3.90084">
        <ele>7</ele>
        <time>2017-10-27T09:39:59.474Z</time>
      </trkpt>
      <trkpt lat="43.59654" lon="3.90082">
        <ele>7.4</ele>
        <time>2017-10-27T09:40:00.445Z</time>
      </trkpt>
      <trkpt lat="43.59656" lon="3.90079">
        <ele>7.6</ele>
        <time>2017-10-27T09:40:01.446Z</time>
      </trkpt>
      <trkpt lat="43.59658" lon="3.90077">
        <ele>7.7</ele>
        <time>2017-10-27T09:40:02.475Z</time>
      </trkpt>
      <trkpt lat="43.5966" lon="3.90075">
        <ele>7.7</ele>
        <time>2017-10-27T09:40:03.457Z</time>
      </trkpt>
      <trkpt lat="43.59661" lon="3.90072">
        <ele>7.6</ele>
        <time>2017-10-27T09:40:04.446Z</time>
      </trkpt>
      <trkpt lat="43.59663" lon="3.9007">
        <ele>7.6</ele>
        <time>2017-10-27T09:40:05.447Z</time>
      </trkpt>
      <trkpt lat="43.59665" lon="3.90067">
        <ele>7.8</ele>
        <time>2017-10-27T09:40:06.454Z</time>
      </trkpt>
      <trkpt lat="43.59667" lon="3.90065">
        <ele>7.8</ele>
        <time>2017-10-27T09:40:07.445Z</time>
      </trkpt>
      <trkpt lat="43.59669" lon="3.90064">
        <ele>7.7</ele>
        <time>2017-10-27T09:40:08.445Z</time>
      </trkpt>
      <trkpt lat="43.59671" lon="3.90062">
        <ele>7.7</ele>
        <time>2017-10-27T09:40:09.445Z</time>
      </trkpt>
      <trkpt lat="43.59672" lon="3.9006">
        <ele>7.8</ele>
        <time>2017-10-27T09:40:10.452Z</time>
      </trkpt>
      <trkpt lat="43.59674" lon="3.90058">
        <ele>7.8</ele>
        <time>2017-10-27T09:40:11.432Z</time>
      </trkpt>
      <trkpt lat="43.59675" lon="3.90055">
        <ele>7.9</ele>
        <time>2017-10-27T09:40:12.433Z</time>
      </trkpt>
      <trkpt lat="43.59677" lon="3.90053">
        <ele>8.3</ele>
        <time>2017-10-27T09:40:13.436Z</time>
      </trkpt>
      <trkpt lat="43.59678" lon="3.90051">
        <ele>8.5</ele>
        <time>2017-10-27T09:40:14.448Z</time>
      </trkpt>
      <trkpt lat="43.5968" lon="3.90048">
        <ele>8.7</ele>
        <time>2017-10-27T09:40:15.447Z</time>
      </trkpt>
      <trkpt lat="43.59682" lon="3.90046">
        <ele>8.8</ele>
        <time>2017-10-27T09:40:16.444Z</time>
      </trkpt>
      <trkpt lat="43.59683" lon="3.90044">
        <ele>8.8</ele>
        <time>2017-10-27T09:40:17.447Z</time>
      </trkpt>
      <trkpt lat="43.59685" lon="3.90042">
        <ele>8.8</ele>
        <time>2017-10-27T09:40:18.447Z</time>
      </trkpt>
      <trkpt lat="43.59686" lon="3.90039">
        <ele>8.7</ele>
        <time>2017-10-27T09:40:19.446Z</time>
      </trkpt>
      <trkpt lat="43.59688" lon="3.90037">
        <ele>8.8</ele>
        <time>2017-10-27T09:40:20.446Z</time>
      </trkpt>
      <trkpt lat="43.5969" lon="3.90035">
        <ele>8.8</ele>
        <time>2017-10-27T09:40:21.445Z</time>
      </trkpt>
      <trkpt lat="43.59691" lon="3.90033">
        <ele>8.8</ele>
        <time>2017-10-27T09:40:22.455Z</time>
      </trkpt>
      <trkpt lat="43.59692" lon="3.90031">
        <ele>8.9</ele>
        <time>2017-10-27T09:40:23.445Z</time>
      </trkpt>
      <trkpt lat="43.59694" lon="3.90029">
        <ele>9.1</ele>
        <time>2017-10-27T09:40:24.446Z</time>
      </trkpt>
      <trkpt lat="43.59694" lon="3.90026">
        <ele>9.1</ele>
        <time>2017-10-27T09:40:25.447Z</time>
      </trkpt>
      <trkpt lat="43.59696" lon="3.90024">
        <ele>9.1</ele>
        <time>2017-10-27T09:40:26.448Z</time>
      </trkpt>
      <trkpt lat="43.59697" lon="3.90021">
        <ele>9.1</ele>
        <time>2017-10-27T09:40:27.445Z</time>
      </trkpt>
      <trkpt lat="43.59699" lon="3.90019">
        <ele>9.2</ele>
        <time>2017-10-27T09:40:28.432Z</time>
      </trkpt>
      <trkpt lat="43.59701" lon="3.90017">
        <ele>9.3</ele>
        <time>2017-10-27T09:40:29.432Z</time>
      </trkpt>
      <trkpt lat="43.59702" lon="3.90015">
        <ele>9.6</ele>
        <time>2017-10-27T09:40:30.432Z</time>
      </trkpt>
      <trkpt lat="43.59704" lon="3.90014">
        <ele>9.8</ele>
        <time>2017-10-27T09:40:31.438Z</time>
      </trkpt>
      <trkpt lat="43.59705" lon="3.90012">
        <ele>10</ele>
        <time>2017-10-27T09:40:32.447Z</time>
      </trkpt>
      <trkpt lat="43.59706" lon="3.9001">
        <ele>10.2</ele>
        <time>2017-10-27T09:40:33.453Z</time>
      </trkpt>
      <trkpt lat="43.59708" lon="3.90008">
        <ele>10.5</ele>
        <time>2017-10-27T09:40:34.431Z</time>
      </trkpt>
      <trkpt lat="43.59709" lon="3.90007">
        <ele>10.6</ele>
        <time>2017-10-27T09:40:35.451Z</time>
      </trkpt>
      <trkpt lat="43.5971" lon="3.90005">
        <ele>10.8</ele>
        <time>2017-10-27T09:40:36.448Z</time>
      </trkpt>
      <trkpt lat="43.59711" lon="3.90004">
        <ele>10.8</ele>
        <time>2017-10-27T09:40:37.449Z</time>
      </trkpt>
      <trkpt lat="43.59712" lon="3.90002">
        <ele>10.9</ele>
        <time>2017-10-27T09:40:38.446Z</time>
      </trkpt>
      <trkpt lat="43.59712" lon="3.9">
        <ele>10.9</ele>
        <time>2017-10-27T09:40:39.455Z</time>
      </trkpt>
      <trkpt lat="43.59711" lon="3.89997">
        <ele>10.9</ele>
        <time>2017-10-27T09:40:40.448Z</time>
      </trkpt>
      <trkpt lat="43.5971" lon="3.89995">
        <ele>10.9</ele>
        <time>2017-10-27T09:40:41.447Z</time>
      </trkpt>
      <trkpt lat="43.5971" lon="3.89992">
        <ele>10.8</ele>
        <time>2017-10-27T09:40:42.447Z</time>
      </trkpt>
      <trkpt lat="43.59709" lon="3.8999">
        <ele>10.6</ele>
        <time>2017-10-27T09:40:43.454Z</time>
      </trkpt>
      <trkpt lat="43.59709" lon="3.89987">
        <ele>10.5</ele>
        <time>2017-10-27T09:40:44.447Z</time>
      </trkpt>
      <trkpt lat="43.59707" lon="3.89985">
        <ele>10.4</ele>
        <time>2017-10-27T09:40:45.445Z</time>
      </trkpt>
      <trkpt lat="43.59706" lon="3.89982">
        <ele>10.4</ele>
        <time>2017-10-27T09:40:46.431Z</time>
      </trkpt>
      <trkpt lat="43.59705" lon="3.89979">
        <ele>10.4</ele>
        <time>2017-10-27T09:40:47.432Z</time>
      </trkpt>
      <trkpt lat="43.59705" lon="3.89977">
        <ele>10.3</ele>
        <time>2017-10-27T09:40:48.438Z</time>
      </trkpt>
      <trkpt lat="43.59703" lon="3.89974">
        <ele>10.2</ele>
        <time>2017-10-27T09:40:49.446Z</time>
      </trkpt>
      <trkpt lat="43.59702" lon="3.89971">
        <ele>10.1</ele>
        <time>2017-10-27T09:40:50.446Z</time>
      </trkpt>
      <trkpt lat="43.59701" lon="3.89968">
        <ele>10</ele>
        <time>2017-10-27T09:40:51.456Z</time>
      </trkpt>
      <trkpt lat="43.597" lon="3.89966">
        <ele>9.9</ele>
        <time>2017-10-27T09:40:52.437Z</time>
      </trkpt>
      <trkpt lat="43.59698" lon="3.89963">
        <ele>9.8</ele>
        <time>2017-10-27T09:40:53.432Z</time>
      </trkpt>
      <trkpt lat="43.59697" lon="3.8996">
        <ele>9.7</ele>
        <time>2017-10-27T09:40:54.433Z</time>
      </trkpt>
      <trkpt lat="43.59695" lon="3.89957">
        <ele>9.7</ele>
        <time>2017-10-27T09:40:55.446Z</time>
      </trkpt>
      <trkpt lat="43.59694" lon="3.89954">
        <ele>9.6</ele>
        <time>2017-10-27T09:40:56.440Z</time>
      </trkpt>
      <trkpt lat="43.59693" lon="3.89951">
        <ele>9.4</ele>
        <time>2017-10-27T09:40:57.439Z</time>
      </trkpt>
      <trkpt lat="43.59691" lon="3.89947">
        <ele>9.4</ele>
        <time>2017-10-27T09:40:58.455Z</time>
      </trkpt>
      <trkpt lat="43.5969" lon="3.89944">
        <ele>9.4</ele>
        <time>2017-10-27T09:40:59.446Z</time>
      </trkpt>
      <trkpt lat="43.59689" lon="3.89941">
        <ele>9.4</ele>
        <time>2017-10-27T09:41:00.447Z</time>
      </trkpt>
      <trkpt lat="43.59688" lon="3.89938">
        <ele>9.4</ele>
        <time>2017-10-27T09:41:01.454Z</time>
      </trkpt>
      <trkpt lat="43.59686" lon="3.89935">
        <ele>9.4</ele>
        <time>2017-10-27T09:41:02.454Z</time>
      </trkpt>
      <trkpt lat="43.59685" lon="3.89932">
        <ele>9.4</ele>
        <time>2017-10-27T09:41:03.432Z</time>
      </trkpt>
      <trkpt lat="43.59684" lon="3.89929">
        <ele>9.4</ele>
        <time>2017-10-27T09:41:04.432Z</time>
      </trkpt>
      <trkpt lat="43.59683" lon="3.89926">
        <ele>9.4</ele>
        <time>2017-10-27T09:41:05.432Z</time>
      </trkpt>
      <trkpt lat="43.59682" lon="3.89924">
        <ele>9.4</ele>
        <time>2017-10-27T09:41:06.440Z</time>
      </trkpt>
      <trkpt lat="43.5968" lon="3.89921">
        <ele>9.4</ele>
        <time>2017-10-27T09:41:07.448Z</time>
      </trkpt>
      <trkpt lat="43.59679" lon="3.89919">
        <ele>9.5</ele>
        <time>2017-10-27T09:41:08.446Z</time>
      </trkpt>
      <trkpt lat="43.59678" lon="3.89916">
        <ele>9.5</ele>
        <time>2017-10-27T09:41:09.448Z</time>
      </trkpt>
      <trkpt lat="43.59677" lon="3.89913">
        <ele>9.5</ele>
        <time>2017-10-27T09:41:10.448Z</time>
      </trkpt>
      <trkpt lat="43.59676" lon="3.8991">
        <ele>9.7</ele>
        <time>2017-10-27T09:41:11.454Z</time>
      </trkpt>
      <trkpt lat="43.59674" lon="3.89907">
        <ele>9.8</ele>
        <time>2017-10-27T09:41:12.447Z</time>
      </trkpt>
      <trkpt lat="43.59673" lon="3.89904">
        <ele>9.9</ele>
        <time>2017-10-27T09:41:13.447Z</time>
      </trkpt>
      <trkpt lat="43.59672" lon="3.89901">
        <ele>9.9</ele>
        <time>2017-10-27T09:41:14.445Z</time>
      </trkpt>
      <trkpt lat="43.59671" lon="3.89898">
        <ele>9.9</ele>
        <time>2017-10-27T09:41:15.449Z</time>
      </trkpt>
      <trkpt lat="43.5967" lon="3.89895">
        <ele>10</ele>
        <time>2017-10-27T09:41:16.445Z</time>
      </trkpt>
      <trkpt lat="43.59669" lon="3.89892">
        <ele>10</ele>
        <time>2017-10-27T09:41:17.451Z</time>
      </trkpt>
      <trkpt lat="43.59669" lon="3.89889">
        <ele>10.1</ele>
        <time>2017-10-27T09:41:18.449Z</time>
      </trkpt>
      <trkpt lat="43.59668" lon="3.89886">
        <ele>10.1</ele>
        <time>2017-10-27T09:41:19.451Z</time>
      </trkpt>
      <trkpt lat="43.59667" lon="3.89883">
        <ele>10.1</ele>
        <time>2017-10-27T09:41:20.448Z</time>
      </trkpt>
      <trkpt lat="43.59665" lon="3.8988">
        <ele>10.1</ele>
        <time>2017-10-27T09:41:21.433Z</time>
      </trkpt>
      <trkpt lat="43.59664" lon="3.89878">
        <ele>10.1</ele>
        <time>2017-10-27T09:41:22.445Z</time>
      </trkpt>
      <trkpt lat="43.59663" lon="3.89875">
        <ele>10.1</ele>
        <time>2017-10-27T09:41:23.445Z</time>
      </trkpt>
      <trkpt lat="43.59661" lon="3.89872">
        <ele>10.1</ele>
        <time>2017-10-27T09:41:24.445Z</time>
      </trkpt>
      <trkpt lat="43.5966" lon="3.89869">
        <ele>10</ele>
        <time>2017-10-27T09:41:25.457Z</time>
      </trkpt>
      <trkpt lat="43.59659" lon="3.89867">
        <ele>10.1</ele>
        <time>2017-10-27T09:41:26.434Z</time>
      </trkpt>
      <trkpt lat="43.59658" lon="3.89864">
        <ele>10.1</ele>
        <time>2017-10-27T09:41:27.432Z</time>
      </trkpt>
      <trkpt lat="43.59657" lon="3.89861">
        <ele>10</ele>
        <time>2017-10-27T09:41:28.440Z</time>
      </trkpt>
      <trkpt lat="43.59655" lon="3.89858">
        <ele>9.9</ele>
        <time>2017-10-27T09:41:29.458Z</time>
      </trkpt>
      <trkpt lat="43.59654" lon="3.89856">
        <ele>9.9</ele>
        <time>2017-10-27T09:41:30.449Z</time>
      </trkpt>
      <trkpt lat="43.59653" lon="3.89854">
        <ele>10</ele>
        <time>2017-10-27T09:41:31.447Z</time>
      </trkpt>
      <trkpt lat="43.59652" lon="3.89851">
        <ele>9.9</ele>
        <time>2017-10-27T09:41:32.450Z</time>
      </trkpt>
      <trkpt lat="43.59651" lon="3.89848">
        <ele>9.9</ele>
        <time>2017-10-27T09:41:33.449Z</time>
      </trkpt>
      <trkpt lat="43.5965" lon="3.89845">
        <ele>10</ele>
        <time>2017-10-27T09:41:34.465Z</time>
      </trkpt>
      <trkpt lat="43.59649" lon="3.89842">
        <ele>10.1</ele>
        <time>2017-10-27T09:41:35.446Z</time>
      </trkpt>
      <trkpt lat="43.59648" lon="3.89839">
        <ele>10.3</ele>
        <time>2017-10-27T09:41:36.457Z</time>
      </trkpt>
      <trkpt lat="43.59647" lon="3.89836">
        <ele>10.5</ele>
        <time>2017-10-27T09:41:37.445Z</time>
      </trkpt>
      <trkpt lat="43.59646" lon="3.89833">
        <ele>10.6</ele>
        <time>2017-10-27T09:41:38.448Z</time>
      </trkpt>
      <trkpt lat="43.59644" lon="3.89829">
        <ele>10.7</ele>
        <time>2017-10-27T09:41:39.448Z</time>
      </trkpt>
      <trkpt lat="43.59642" lon="3.89826">
        <ele>10.9</ele>
        <time>2017-10-27T09:41:40.446Z</time>
      </trkpt>
      <trkpt lat="43.59641" lon="3.89823">
        <ele>10.9</ele>
        <time>2017-10-27T09:41:41.446Z</time>
      </trkpt>
      <trkpt lat="43.59639" lon="3.89819">
        <ele>11.1</ele>
        <time>2017-10-27T09:41:42.451Z</time>
      </trkpt>
      <trkpt lat="43.59637" lon="3.89815">
        <ele>11.1</ele>
        <time>2017-10-27T09:41:43.446Z</time>
      </trkpt>
      <trkpt lat="43.59636" lon="3.89812">
        <ele>11.2</ele>
        <time>2017-10-27T09:41:44.448Z</time>
      </trkpt>
      <trkpt lat="43.59634" lon="3.89808">
        <ele>11.2</ele>
        <time>2017-10-27T09:41:45.447Z</time>
      </trkpt>
      <trkpt lat="43.59632" lon="3.89805">
        <ele>11.1</ele>
        <time>2017-10-27T09:41:46.439Z</time>
      </trkpt>
      <trkpt lat="43.5963" lon="3.89801">
        <ele>11</ele>
        <time>2017-10-27T09:41:47.432Z</time>
      </trkpt>
      <trkpt lat="43.59628" lon="3.89798">
        <ele>11</ele>
        <time>2017-10-27T09:41:48.433Z</time>
      </trkpt>
      <trkpt lat="43.59627" lon="3.89795">
        <ele>10.9</ele>
        <time>2017-10-27T09:41:49.434Z</time>
      </trkpt>
      <trkpt lat="43.59625" lon="3.89792">
        <ele>10.8</ele>
        <time>2017-10-27T09:41:50.434Z</time>
      </trkpt>
      <trkpt lat="43.59623" lon="3.89789">
        <ele>10.9</ele>
        <time>2017-10-27T09:41:51.434Z</time>
      </trkpt>
      <trkpt lat="43.59622" lon="3.89786">
        <ele>10.8</ele>
        <time>2017-10-27T09:41:52.433Z</time>
      </trkpt>
      <trkpt lat="43.5962" lon="3.89783">
        <ele>10.9</ele>
        <time>2017-10-27T09:41:53.439Z</time>
      </trkpt>
      <trkpt lat="43.59618" lon="3.8978">
        <ele>10.9</ele>
        <time>2017-10-27T09:41:54.454Z</time>
      </trkpt>
      <trkpt lat="43.59616" lon="3.89777">
        <ele>10.9</ele>
        <time>2017-10-27T09:41:55.477Z</time>
      </trkpt>
      <trkpt lat="43.59615" lon="3.89774">
        <ele>10.9</ele>
        <time>2017-10-27T09:41:56.446Z</time>
      </trkpt>
      <trkpt lat="43.59613" lon="3.89771">
        <ele>10.9</ele>
        <time>2017-10-27T09:41:57.433Z</time>
      </trkpt>
      <trkpt lat="43.59611" lon="3.89767">
        <ele>10.9</ele>
        <time>2017-10-27T09:41:58.449Z</time>
      </trkpt>
      <trkpt lat="43.59609" lon="3.89764">
        <ele>10.9</ele>
        <time>2017-10-27T09:41:59.451Z</time>
      </trkpt>
      <trkpt lat="43.59606" lon="3.8976">
        <ele>10.8</ele>
        <time>2017-10-27T09:42:00.446Z</time>
      </trkpt>
      <trkpt lat="43.59604" lon="3.89756">
        <ele>10.7</ele>
        <time>2017-10-27T09:42:01.446Z</time>
      </trkpt>
      <trkpt lat="43.59602" lon="3.89753">
        <ele>10.8</ele>
        <time>2017-10-27T09:42:02.446Z</time>
      </trkpt>
      <trkpt lat="43.596" lon="3.89749">
        <ele>10.7</ele>
        <time>2017-10-27T09:42:03.447Z</time>
      </trkpt>
      <trkpt lat="43.59598" lon="3.89745">
        <ele>10.7</ele>
        <time>2017-10-27T09:42:04.448Z</time>
      </trkpt>
      <trkpt lat="43.59596" lon="3.89741">
        <ele>10.6</ele>
        <time>2017-10-27T09:42:05.450Z</time>
      </trkpt>
      <trkpt lat="43.59594" lon="3.89738">
        <ele>10.4</ele>
        <time>2017-10-27T09:42:06.448Z</time>
      </trkpt>
      <trkpt lat="43.59591" lon="3.89735">
        <ele>10.4</ele>
        <time>2017-10-27T09:42:07.446Z</time>
      </trkpt>
      <trkpt lat="43.59589" lon="3.89731">
        <ele>10.4</ele>
        <time>2017-10-27T09:42:08.448Z</time>
      </trkpt>
      <trkpt lat="43.59587" lon="3.89728">
        <ele>10.5</ele>
        <time>2017-10-27T09:42:09.450Z</time>
      </trkpt>
      <trkpt lat="43.59585" lon="3.89725">
        <ele>10.5</ele>
        <time>2017-10-27T09:42:10.446Z</time>
      </trkpt>
      <trkpt lat="43.59583" lon="3.89722">
        <ele>10.5</ele>
        <time>2017-10-27T09:42:11.452Z</time>
      </trkpt>
      <trkpt lat="43.59581" lon="3.89719">
        <ele>10.6</ele>
        <time>2017-10-27T09:42:12.454Z</time>
      </trkpt>
      <trkpt lat="43.59579" lon="3.89716">
        <ele>10.6</ele>
        <time>2017-10-27T09:42:13.446Z</time>
      </trkpt>
      <trkpt lat="43.59577" lon="3.89713">
        <ele>10.5</ele>
        <time>2017-10-27T09:42:14.444Z</time>
      </trkpt>
      <trkpt lat="43.59575" lon="3.8971">
        <ele>10.5</ele>
        <time>2017-10-27T09:42:15.428Z</time>
      </trkpt>
      <trkpt lat="43.59574" lon="3.89707">
        <ele>10.5</ele>
        <time>2017-10-27T09:42:16.431Z</time>
      </trkpt>
      <trkpt lat="43.59572" lon="3.89704">
        <ele>10.5</ele>
        <time>2017-10-27T09:42:17.432Z</time>
      </trkpt>
      <trkpt lat="43.5957" lon="3.89701">
        <ele>10.5</ele>
        <time>2017-10-27T09:42:18.433Z</time>
      </trkpt>
      <trkpt lat="43.59568" lon="3.89698">
        <ele>10.7</ele>
        <time>2017-10-27T09:42:19.434Z</time>
      </trkpt>
      <trkpt lat="43.59566" lon="3.89695">
        <ele>10.8</ele>
        <time>2017-10-27T09:42:20.451Z</time>
      </trkpt>
      <trkpt lat="43.59564" lon="3.89692">
        <ele>10.8</ele>
        <time>2017-10-27T09:42:21.445Z</time>
      </trkpt>
      <trkpt lat="43.59562" lon="3.89688">
        <ele>11</ele>
        <time>2017-10-27T09:42:22.445Z</time>
      </trkpt>
      <trkpt lat="43.5956" lon="3.89685">
        <ele>10.9</ele>
        <time>2017-10-27T09:42:23.445Z</time>
      </trkpt>
      <trkpt lat="43.59557" lon="3.89682">
        <ele>10.8</ele>
        <time>2017-10-27T09:42:24.446Z</time>
      </trkpt>
      <trkpt lat="43.59555" lon="3.89678">
        <ele>10.7</ele>
        <time>2017-10-27T09:42:25.452Z</time>
      </trkpt>
      <trkpt lat="43.59553" lon="3.89675">
        <ele>10.8</ele>
        <time>2017-10-27T09:42:26.446Z</time>
      </trkpt>
      <trkpt lat="43.5955" lon="3.89672">
        <ele>11.1</ele>
        <time>2017-10-27T09:42:27.441Z</time>
      </trkpt>
      <trkpt lat="43.59548" lon="3.89669">
        <ele>11.3</ele>
        <time>2017-10-27T09:42:28.446Z</time>
      </trkpt>
      <trkpt lat="43.59545" lon="3.89667">
        <ele>11.4</ele>
        <time>2017-10-27T09:42:29.447Z</time>
      </trkpt>
      <trkpt lat="43.59543" lon="3.89664">
        <ele>11.5</ele>
        <time>2017-10-27T09:42:30.451Z</time>
      </trkpt>
      <trkpt lat="43.59541" lon="3.89659">
        <ele>11.5</ele>
        <time>2017-10-27T09:42:31.445Z</time>
      </trkpt>
      <trkpt lat="43.59539" lon="3.89655">
        <ele>11.4</ele>
        <time>2017-10-27T09:42:32.446Z</time>
      </trkpt>
      <trkpt lat="43.59539" lon="3.8965">
        <ele>11.3</ele>
        <time>2017-10-27T09:42:33.445Z</time>
      </trkpt>
      <trkpt lat="43.59538" lon="3.89646">
        <ele>11.3</ele>
        <time>2017-10-27T09:42:34.456Z</time>
      </trkpt>
      <trkpt lat="43.59539" lon="3.89641">
        <ele>11.2</ele>
        <time>2017-10-27T09:42:35.447Z</time>
      </trkpt>
      <trkpt lat="43.5954" lon="3.89637">
        <ele>11.1</ele>
        <time>2017-10-27T09:42:36.435Z</time>
      </trkpt>
      <trkpt lat="43.59541" lon="3.89632">
        <ele>11.1</ele>
        <time>2017-10-27T09:42:37.432Z</time>
      </trkpt>
      <trkpt lat="43.59543" lon="3.89628">
        <ele>11</ele>
        <time>2017-10-27T09:42:38.431Z</time>
      </trkpt>
      <trkpt lat="43.59545" lon="3.89624">
        <ele>11</ele>
        <time>2017-10-27T09:42:39.431Z</time>
      </trkpt>
      <trkpt lat="43.59546" lon="3.89619">
        <ele>11</ele>
        <time>2017-10-27T09:42:40.448Z</time>
      </trkpt>
      <trkpt lat="43.59548" lon="3.89615">
        <ele>11</ele>
        <time>2017-10-27T09:42:41.445Z</time>
      </trkpt>
      <trkpt lat="43.5955" lon="3.89611">
        <ele>11</ele>
        <time>2017-10-27T09:42:42.434Z</time>
      </trkpt>
      <trkpt lat="43.59551" lon="3.89607">
        <ele>11</ele>
        <time>2017-10-27T09:42:43.432Z</time>
      </trkpt>
      <trkpt lat="43.59553" lon="3.89603">
        <ele>11.1</ele>
        <time>2017-10-27T09:42:44.445Z</time>
      </trkpt>
      <trkpt lat="43.59554" lon="3.896">
        <ele>11.1</ele>
        <time>2017-10-27T09:42:45.446Z</time>
      </trkpt>
      <trkpt lat="43.59556" lon="3.89597">
        <ele>11.1</ele>
        <time>2017-10-27T09:42:46.440Z</time>
      </trkpt>
      <trkpt lat="43.59557" lon="3.89594">
        <ele>11.1</ele>
        <time>2017-10-27T09:42:47.455Z</time>
      </trkpt>
      <trkpt lat="43.59559" lon="3.89591">
        <ele>11.1</ele>
        <time>2017-10-27T09:42:48.454Z</time>
      </trkpt>
      <trkpt lat="43.5956" lon="3.89587">
        <ele>11.2</ele>
        <time>2017-10-27T09:42:49.474Z</time>
      </trkpt>
      <trkpt lat="43.59561" lon="3.89584">
        <ele>11.3</ele>
        <time>2017-10-27T09:42:50.445Z</time>
      </trkpt>
      <trkpt lat="43.59562" lon="3.89581">
        <ele>11.3</ele>
        <time>2017-10-27T09:42:51.446Z</time>
      </trkpt>
      <trkpt lat="43.59564" lon="3.89577">
        <ele>11.3</ele>
        <time>2017-10-27T09:42:52.444Z</time>
      </trkpt>
      <trkpt lat="43.59566" lon="3.89574">
        <ele>11.3</ele>
        <time>2017-10-27T09:42:53.445Z</time>
      </trkpt>
      <trkpt lat="43.59568" lon="3.89571">
        <ele>11.3</ele>
        <time>2017-10-27T09:42:54.446Z</time>
      </trkpt>
      <trkpt lat="43.5957" lon="3.89568">
        <ele>11.3</ele>
        <time>2017-10-27T09:42:55.433Z</time>
      </trkpt>
      <trkpt lat="43.59571" lon="3.89564">
        <ele>11.3</ele>
        <time>2017-10-27T09:42:56.432Z</time>
      </trkpt>
      <trkpt lat="43.59573" lon="3.89561">
        <ele>11.4</ele>
        <time>2017-10-27T09:42:57.432Z</time>
      </trkpt>
      <trkpt lat="43.59574" lon="3.89558">
        <ele>11.2</ele>
        <time>2017-10-27T09:42:58.452Z</time>
      </trkpt>
      <trkpt lat="43.59575" lon="3.89555">
        <ele>11.3</ele>
        <time>2017-10-27T09:42:59.451Z</time>
      </trkpt>
      <trkpt lat="43.59577" lon="3.89552">
        <ele>11.3</ele>
        <time>2017-10-27T09:43:00.434Z</time>
      </trkpt>
      <trkpt lat="43.5958" lon="3.89549">
        <ele>11.4</ele>
        <time>2017-10-27T09:43:01.446Z</time>
      </trkpt>
      <trkpt lat="43.59582" lon="3.89545">
        <ele>11.5</ele>
        <time>2017-10-27T09:43:02.446Z</time>
      </trkpt>
      <trkpt lat="43.59583" lon="3.89541">
        <ele>11.5</ele>
        <time>2017-10-27T09:43:03.456Z</time>
      </trkpt>
      <trkpt lat="43.59586" lon="3.89537">
        <ele>11.5</ele>
        <time>2017-10-27T09:43:04.446Z</time>
      </trkpt>
      <trkpt lat="43.59588" lon="3.89534">
        <ele>11.4</ele>
        <time>2017-10-27T09:43:05.433Z</time>
      </trkpt>
      <trkpt lat="43.5959" lon="3.8953">
        <ele>11.3</ele>
        <time>2017-10-27T09:43:06.448Z</time>
      </trkpt>
      <trkpt lat="43.59593" lon="3.89527">
        <ele>11.3</ele>
        <time>2017-10-27T09:43:07.454Z</time>
      </trkpt>
      <trkpt lat="43.59595" lon="3.89523">
        <ele>11.3</ele>
        <time>2017-10-27T09:43:08.446Z</time>
      </trkpt>
      <trkpt lat="43.59597" lon="3.8952">
        <ele>11.3</ele>
        <time>2017-10-27T09:43:09.445Z</time>
      </trkpt>
      <trkpt lat="43.59599" lon="3.89517">
        <ele>11.3</ele>
        <time>2017-10-27T09:43:10.446Z</time>
      </trkpt>
      <trkpt lat="43.59601" lon="3.89514">
        <ele>11.2</ele>
        <time>2017-10-27T09:43:11.445Z</time>
      </trkpt>
      <trkpt lat="43.59603" lon="3.89511">
        <ele>11.3</ele>
        <time>2017-10-27T09:43:12.457Z</time>
      </trkpt>
      <trkpt lat="43.59604" lon="3.89508">
        <ele>11.5</ele>
        <time>2017-10-27T09:43:13.444Z</time>
      </trkpt>
      <trkpt lat="43.59605" lon="3.89506">
        <ele>11.5</ele>
        <time>2017-10-27T09:43:14.447Z</time>
      </trkpt>
      <trkpt lat="43.59607" lon="3.89504">
        <ele>11.4</ele>
        <time>2017-10-27T09:43:15.445Z</time>
      </trkpt>
      <trkpt lat="43.59608" lon="3.89501">
        <ele>11.4</ele>
        <time>2017-10-27T09:43:16.437Z</time>
      </trkpt>
      <trkpt lat="43.5961" lon="3.89498">
        <ele>11.4</ele>
        <time>2017-10-27T09:43:17.432Z</time>
      </trkpt>
      <trkpt lat="43.59611" lon="3.89495">
        <ele>11.4</ele>
        <time>2017-10-27T09:43:18.435Z</time>
      </trkpt>
      <trkpt lat="43.59612" lon="3.89492">
        <ele>11.5</ele>
        <time>2017-10-27T09:43:19.433Z</time>
      </trkpt>
      <trkpt lat="43.59614" lon="3.89489">
        <ele>11.6</ele>
        <time>2017-10-27T09:43:20.447Z</time>
      </trkpt>
      <trkpt lat="43.59615" lon="3.89487">
        <ele>11.6</ele>
        <time>2017-10-27T09:43:21.445Z</time>
      </trkpt>
      <trkpt lat="43.59617" lon="3.89484">
        <ele>11.7</ele>
        <time>2017-10-27T09:43:22.447Z</time>
      </trkpt>
      <trkpt lat="43.59618" lon="3.89481">
        <ele>11.7</ele>
        <time>2017-10-27T09:43:23.448Z</time>
      </trkpt>
      <trkpt lat="43.5962" lon="3.89478">
        <ele>11.7</ele>
        <time>2017-10-27T09:43:24.450Z</time>
      </trkpt>
      <trkpt lat="43.59621" lon="3.89476">
        <ele>11.8</ele>
        <time>2017-10-27T09:43:25.445Z</time>
      </trkpt>
      <trkpt lat="43.59622" lon="3.89473">
        <ele>11.7</ele>
        <time>2017-10-27T09:43:26.448Z</time>
      </trkpt>
      <trkpt lat="43.59624" lon="3.8947">
        <ele>11.7</ele>
        <time>2017-10-27T09:43:27.446Z</time>
      </trkpt>
      <trkpt lat="43.59625" lon="3.89468">
        <ele>11.6</ele>
        <time>2017-10-27T09:43:28.445Z</time>
      </trkpt>
      <trkpt lat="43.59626" lon="3.89465">
        <ele>11.5</ele>
        <time>2017-10-27T09:43:29.445Z</time>
      </trkpt>
      <trkpt lat="43.59628" lon="3.89463">
        <ele>11.7</ele>
        <time>2017-10-27T09:43:30.446Z</time>
      </trkpt>
      <trkpt lat="43.59629" lon="3.89461">
        <ele>11.6</ele>
        <time>2017-10-27T09:43:31.447Z</time>
      </trkpt>
      <trkpt lat="43.5963" lon="3.8946">
        <ele>11.5</ele>
        <time>2017-10-27T09:43:32.452Z</time>
      </trkpt>
      <trkpt lat="43.59634" lon="3.89461">
        <ele>11.7</ele>
        <time>2017-10-27T09:43:38.437Z</time>
      </trkpt>
      <trkpt lat="43.59637" lon="3.89461">
        <ele>11.8</ele>
        <time>2017-10-27T09:43:39.443Z</time>
      </trkpt>
      <trkpt lat="43.5964" lon="3.8946">
        <ele>11.9</ele>
        <time>2017-10-27T09:43:40.447Z</time>
      </trkpt>
      <trkpt lat="43.59642" lon="3.89458">
        <ele>11.9</ele>
        <time>2017-10-27T09:43:41.455Z</time>
      </trkpt>
      <trkpt lat="43.59644" lon="3.89456">
        <ele>12</ele>
        <time>2017-10-27T09:43:42.435Z</time>
      </trkpt>
      <trkpt lat="43.59645" lon="3.89453">
        <ele>12</ele>
        <time>2017-10-27T09:43:43.432Z</time>
      </trkpt>
      <trkpt lat="43.59647" lon="3.8945">
        <ele>12.2</ele>
        <time>2017-10-27T09:43:44.438Z</time>
      </trkpt>
      <trkpt lat="43.59648" lon="3.89447">
        <ele>12.2</ele>
        <time>2017-10-27T09:43:45.446Z</time>
      </trkpt>
      <trkpt lat="43.5965" lon="3.89444">
        <ele>12.2</ele>
        <time>2017-10-27T09:43:46.450Z</time>
      </trkpt>
      <trkpt lat="43.59651" lon="3.89441">
        <ele>12.3</ele>
        <time>2017-10-27T09:43:47.451Z</time>
      </trkpt>
      <trkpt lat="43.59653" lon="3.89438">
        <ele>12.2</ele>
        <time>2017-10-27T09:43:48.447Z</time>
      </trkpt>
      <trkpt lat="43.59654" lon="3.89435">
        <ele>12.1</ele>
        <time>2017-10-27T09:43:49.447Z</time>
      </trkpt>
      <trkpt lat="43.59656" lon="3.89432">
        <ele>12.1</ele>
        <time>2017-10-27T09:43:50.446Z</time>
      </trkpt>
      <trkpt lat="43.59657" lon="3.89429">
        <ele>12.2</ele>
        <time>2017-10-27T09:43:51.431Z</time>
      </trkpt>
      <trkpt lat="43.59659" lon="3.89426">
        <ele>12</ele>
        <time>2017-10-27T09:43:52.445Z</time>
      </trkpt>
      <trkpt lat="43.5966" lon="3.89423">
        <ele>12</ele>
        <time>2017-10-27T09:43:53.457Z</time>
      </trkpt>
      <trkpt lat="43.59662" lon="3.8942">
        <ele>12</ele>
        <time>2017-10-27T09:43:54.453Z</time>
      </trkpt>
      <trkpt lat="43.59663" lon="3.89417">
        <ele>12</ele>
        <time>2017-10-27T09:43:55.446Z</time>
      </trkpt>
      <trkpt lat="43.59665" lon="3.89414">
        <ele>11.8</ele>
        <time>2017-10-27T09:43:56.448Z</time>
      </trkpt>
      <trkpt lat="43.59667" lon="3.89411">
        <ele>11.8</ele>
        <time>2017-10-27T09:43:57.431Z</time>
      </trkpt>
      <trkpt lat="43.59668" lon="3.89408">
        <ele>11.8</ele>
        <time>2017-10-27T09:43:58.445Z</time>
      </trkpt>
      <trkpt lat="43.5967" lon="3.89405">
        <ele>11.7</ele>
        <time>2017-10-27T09:43:59.445Z</time>
      </trkpt>
      <trkpt lat="43.59672" lon="3.89402">
        <ele>11.8</ele>
        <time>2017-10-27T09:44:00.453Z</time>
      </trkpt>
      <trkpt lat="43.59673" lon="3.89399">
        <ele>11.9</ele>
        <time>2017-10-27T09:44:01.432Z</time>
      </trkpt>
      <trkpt lat="43.59675" lon="3.89396">
        <ele>11.9</ele>
        <time>2017-10-27T09:44:02.433Z</time>
      </trkpt>
      <trkpt lat="43.59676" lon="3.89393">
        <ele>11.9</ele>
        <time>2017-10-27T09:44:03.432Z</time>
      </trkpt>
      <trkpt lat="43.59678" lon="3.8939">
        <ele>12</ele>
        <time>2017-10-27T09:44:04.437Z</time>
      </trkpt>
      <trkpt lat="43.59679" lon="3.89387">
        <ele>12</ele>
        <time>2017-10-27T09:44:05.444Z</time>
      </trkpt>
      <trkpt lat="43.5968" lon="3.89385">
        <ele>12.1</ele>
        <time>2017-10-27T09:44:06.451Z</time>
      </trkpt>
      <trkpt lat="43.59682" lon="3.89382">
        <ele>12</ele>
        <time>2017-10-27T09:44:07.447Z</time>
      </trkpt>
      <trkpt lat="43.59683" lon="3.8938">
        <ele>11.9</ele>
        <time>2017-10-27T09:44:08.448Z</time>
      </trkpt>
      <trkpt lat="43.59684" lon="3.89377">
        <ele>11.9</ele>
        <time>2017-10-27T09:44:09.440Z</time>
      </trkpt>
      <trkpt lat="43.59685" lon="3.89375">
        <ele>11.9</ele>
        <time>2017-10-27T09:44:10.440Z</time>
      </trkpt>
      <trkpt lat="43.59687" lon="3.89372">
        <ele>11.9</ele>
        <time>2017-10-27T09:44:11.434Z</time>
      </trkpt>
      <trkpt lat="43.59688" lon="3.89369">
        <ele>12</ele>
        <time>2017-10-27T09:44:12.434Z</time>
      </trkpt>
      <trkpt lat="43.59689" lon="3.89366">
        <ele>11.9</ele>
        <time>2017-10-27T09:44:13.432Z</time>
      </trkpt>
      <trkpt lat="43.5969" lon="3.89364">
        <ele>11.9</ele>
        <time>2017-10-27T09:44:14.436Z</time>
      </trkpt>
      <trkpt lat="43.59691" lon="3.89362">
        <ele>11.8</ele>
        <time>2017-10-27T09:44:15.450Z</time>
      </trkpt>
      <trkpt lat="43.59692" lon="3.8936">
        <ele>11.7</ele>
        <time>2017-10-27T09:44:16.449Z</time>
      </trkpt>
      <trkpt lat="43.59693" lon="3.89358">
        <ele>11.6</ele>
        <time>2017-10-27T09:44:17.445Z</time>
      </trkpt>
      <trkpt lat="43.59695" lon="3.89351">
        <ele>11.6</ele>
        <time>2017-10-27T09:44:23.448Z</time>
      </trkpt>
      <trkpt lat="43.59696" lon="3.89348">
        <ele>11.8</ele>
        <time>2017-10-27T09:44:24.445Z</time>
      </trkpt>
      <trkpt lat="43.59698" lon="3.89345">
        <ele>11.9</ele>
        <time>2017-10-27T09:44:25.450Z</time>
      </trkpt>
      <trkpt lat="43.597" lon="3.89341">
        <ele>11.8</ele>
        <time>2017-10-27T09:44:26.455Z</time>
      </trkpt>
      <trkpt lat="43.59702" lon="3.89337">
        <ele>11.8</ele>
        <time>2017-10-27T09:44:27.432Z</time>
      </trkpt>
      <trkpt lat="43.59705" lon="3.89332">
        <ele>11.7</ele>
        <time>2017-10-27T09:44:28.435Z</time>
      </trkpt>
      <trkpt lat="43.59706" lon="3.89328">
        <ele>11.6</ele>
        <time>2017-10-27T09:44:29.432Z</time>
      </trkpt>
      <trkpt lat="43.59708" lon="3.89324">
        <ele>11.7</ele>
        <time>2017-10-27T09:44:30.437Z</time>
      </trkpt>
      <trkpt lat="43.5971" lon="3.89319">
        <ele>11.8</ele>
        <time>2017-10-27T09:44:31.433Z</time>
      </trkpt>
      <trkpt lat="43.59712" lon="3.89315">
        <ele>11.8</ele>
        <time>2017-10-27T09:44:32.447Z</time>
      </trkpt>
      <trkpt lat="43.59713" lon="3.89312">
        <ele>11.8</ele>
        <time>2017-10-27T09:44:33.432Z</time>
      </trkpt>
      <trkpt lat="43.59714" lon="3.89308">
        <ele>11.7</ele>
        <time>2017-10-27T09:44:34.444Z</time>
      </trkpt>
      <trkpt lat="43.59715" lon="3.89305">
        <ele>11.8</ele>
        <time>2017-10-27T09:44:35.446Z</time>
      </trkpt>
      <trkpt lat="43.59716" lon="3.89302">
        <ele>11.7</ele>
        <time>2017-10-27T09:44:36.454Z</time>
      </trkpt>
      <trkpt lat="43.59718" lon="3.893">
        <ele>11.6</ele>
        <time>2017-10-27T09:44:37.447Z</time>
      </trkpt>
      <trkpt lat="43.59719" lon="3.89297">
        <ele>11.5</ele>
        <time>2017-10-27T09:44:38.448Z</time>
      </trkpt>
      <trkpt lat="43.5972" lon="3.89295">
        <ele>11.5</ele>
        <time>2017-10-27T09:44:39.447Z</time>
      </trkpt>
      <trkpt lat="43.59721" lon="3.89293">
        <ele>11.5</ele>
        <time>2017-10-27T09:44:40.447Z</time>
      </trkpt>
      <trkpt lat="43.59722" lon="3.89291">
        <ele>11.5</ele>
        <time>2017-10-27T09:44:41.449Z</time>
      </trkpt>
      <trkpt lat="43.59723" lon="3.89289">
        <ele>11.4</ele>
        <time>2017-10-27T09:44:42.454Z</time>
      </trkpt>
      <trkpt lat="43.59723" lon="3.89286">
        <ele>11.4</ele>
        <time>2017-10-27T09:44:43.448Z</time>
      </trkpt>
      <trkpt lat="43.59721" lon="3.89283">
        <ele>11.1</ele>
        <time>2017-10-27T09:44:45.447Z</time>
      </trkpt>
      <trkpt lat="43.59721" lon="3.89283">
        <ele>11.1</ele>
        <time>2017-10-27T09:44:58.220Z</time>
      </trkpt>
      <trkpt lat="43.59721" lon="3.8928">
        <ele>10.8</ele>
        <time>2017-10-27T09:45:03.435Z</time>
      </trkpt>
      <trkpt lat="43.59722" lon="3.89277">
        <ele>10.9</ele>
        <time>2017-10-27T09:45:04.447Z</time>
      </trkpt>
      <trkpt lat="43.59722" lon="3.89273">
        <ele>10.9</ele>
        <time>2017-10-27T09:45:05.432Z</time>
      </trkpt>
      <trkpt lat="43.59723" lon="3.8927">
        <ele>10.9</ele>
        <time>2017-10-27T09:45:06.446Z</time>
      </trkpt>
      <trkpt lat="43.59725" lon="3.89267">
        <ele>10.8</ele>
        <time>2017-10-27T09:45:07.447Z</time>
      </trkpt>
      <trkpt lat="43.59727" lon="3.89266">
        <ele>10.8</ele>
        <time>2017-10-27T09:45:08.442Z</time>
      </trkpt>
      <trkpt lat="43.59729" lon="3.89266">
        <ele>10.8</ele>
        <time>2017-10-27T09:45:09.432Z</time>
      </trkpt>
      <trkpt lat="43.59732" lon="3.89266">
        <ele>10.7</ele>
        <time>2017-10-27T09:45:10.431Z</time>
      </trkpt>
      <trkpt lat="43.59734" lon="3.89265">
        <ele>10.7</ele>
        <time>2017-10-27T09:45:11.437Z</time>
      </trkpt>
      <trkpt lat="43.59736" lon="3.89264">
        <ele>10.8</ele>
        <time>2017-10-27T09:45:12.474Z</time>
      </trkpt>
      <trkpt lat="43.59738" lon="3.89261">
        <ele>10.9</ele>
        <time>2017-10-27T09:45:13.464Z</time>
      </trkpt>
      <trkpt lat="43.5974" lon="3.89258">
        <ele>10.7</ele>
        <time>2017-10-27T09:45:14.449Z</time>
      </trkpt>
      <trkpt lat="43.59741" lon="3.89254">
        <ele>10.8</ele>
        <time>2017-10-27T09:45:15.448Z</time>
      </trkpt>
      <trkpt lat="43.59742" lon="3.8925">
        <ele>10.6</ele>
        <time>2017-10-27T09:45:16.454Z</time>
      </trkpt>
      <trkpt lat="43.59743" lon="3.89247">
        <ele>10.5</ele>
        <time>2017-10-27T09:45:17.442Z</time>
      </trkpt>
      <trkpt lat="43.59744" lon="3.89244">
        <ele>10.4</ele>
        <time>2017-10-27T09:45:18.447Z</time>
      </trkpt>
      <trkpt lat="43.59746" lon="3.8924">
        <ele>10.6</ele>
        <time>2017-10-27T09:45:19.447Z</time>
      </trkpt>
      <trkpt lat="43.59747" lon="3.89237">
        <ele>10.5</ele>
        <time>2017-10-27T09:45:20.455Z</time>
      </trkpt>
      <trkpt lat="43.59748" lon="3.89234">
        <ele>10.7</ele>
        <time>2017-10-27T09:45:21.448Z</time>
      </trkpt>
      <trkpt lat="43.59749" lon="3.89231">
        <ele>10.4</ele>
        <time>2017-10-27T09:45:22.455Z</time>
      </trkpt>
      <trkpt lat="43.5975" lon="3.89228">
        <ele>10.5</ele>
        <time>2017-10-27T09:45:23.449Z</time>
      </trkpt>
      <trkpt lat="43.59752" lon="3.89225">
        <ele>10.1</ele>
        <time>2017-10-27T09:45:24.447Z</time>
      </trkpt>
      <trkpt lat="43.59753" lon="3.89221">
        <ele>10.1</ele>
        <time>2017-10-27T09:45:25.446Z</time>
      </trkpt>
      <trkpt lat="43.59754" lon="3.89218">
        <ele>9.8</ele>
        <time>2017-10-27T09:45:26.445Z</time>
      </trkpt>
      <trkpt lat="43.59755" lon="3.89215">
        <ele>9.8</ele>
        <time>2017-10-27T09:45:27.445Z</time>
      </trkpt>
      <trkpt lat="43.59756" lon="3.89212">
        <ele>9.7</ele>
        <time>2017-10-27T09:45:28.445Z</time>
      </trkpt>
      <trkpt lat="43.59757" lon="3.89209">
        <ele>9.6</ele>
        <time>2017-10-27T09:45:29.446Z</time>
      </trkpt>
      <trkpt lat="43.59758" lon="3.89207">
        <ele>9.7</ele>
        <time>2017-10-27T09:45:30.434Z</time>
      </trkpt>
      <trkpt lat="43.59759" lon="3.89205">
        <ele>9.5</ele>
        <time>2017-10-27T09:45:31.433Z</time>
      </trkpt>
      <trkpt lat="43.59759" lon="3.89203">
        <ele>9.5</ele>
        <time>2017-10-27T09:45:32.433Z</time>
      </trkpt>
      <trkpt lat="43.59759" lon="3.89201">
        <ele>9.6</ele>
        <time>2017-10-27T09:45:33.433Z</time>
      </trkpt>
      <trkpt lat="43.5976" lon="3.89199">
        <ele>9.6</ele>
        <time>2017-10-27T09:45:34.450Z</time>
      </trkpt>
      <trkpt lat="43.5976" lon="3.89199">
        <ele>9.6</ele>
        <time>2017-10-27T09:47:04.731Z</time>
      </trkpt>
      <trkpt lat="43.59763" lon="3.89194">
        <ele>7</ele>
        <time>2017-10-27T09:47:15.433Z</time>
      </trkpt>
      <trkpt lat="43.59763" lon="3.89192">
        <ele>6.7</ele>
        <time>2017-10-27T09:47:16.452Z</time>
      </trkpt>
      <trkpt lat="43.59764" lon="3.8919">
        <ele>6.5</ele>
        <time>2017-10-27T09:47:17.445Z</time>
      </trkpt>
      <trkpt lat="43.59765" lon="3.89187">
        <ele>6.4</ele>
        <time>2017-10-27T09:47:18.446Z</time>
      </trkpt>
      <trkpt lat="43.59766" lon="3.89185">
        <ele>6.4</ele>
        <time>2017-10-27T09:47:19.445Z</time>
      </trkpt>
      <trkpt lat="43.59767" lon="3.89183">
        <ele>6.3</ele>
        <time>2017-10-27T09:47:20.446Z</time>
      </trkpt>
      <trkpt lat="43.59769" lon="3.89181">
        <ele>6.5</ele>
        <time>2017-10-27T09:47:21.449Z</time>
      </trkpt>
      <trkpt lat="43.59771" lon="3.8918">
        <ele>6.4</ele>
        <time>2017-10-27T09:47:22.452Z</time>
      </trkpt>
      <trkpt lat="43.59774" lon="3.89178">
        <ele>6.4</ele>
        <time>2017-10-27T09:47:23.450Z</time>
      </trkpt>
      <trkpt lat="43.59776" lon="3.89177">
        <ele>6.4</ele>
        <time>2017-10-27T09:47:24.446Z</time>
      </trkpt>
      <trkpt lat="43.59778" lon="3.89174">
        <ele>6.6</ele>
        <time>2017-10-27T09:47:25.447Z</time>
      </trkpt>
      <trkpt lat="43.5978" lon="3.89171">
        <ele>6.6</ele>
        <time>2017-10-27T09:47:26.448Z</time>
      </trkpt>
      <trkpt lat="43.59781" lon="3.89168">
        <ele>6.7</ele>
        <time>2017-10-27T09:47:27.432Z</time>
      </trkpt>
      <trkpt lat="43.59783" lon="3.89164">
        <ele>6.9</ele>
        <time>2017-10-27T09:47:28.430Z</time>
      </trkpt>
      <trkpt lat="43.59785" lon="3.89161">
        <ele>7.1</ele>
        <time>2017-10-27T09:47:29.432Z</time>
      </trkpt>
      <trkpt lat="43.59787" lon="3.89158">
        <ele>7.2</ele>
        <time>2017-10-27T09:47:30.454Z</time>
      </trkpt>
      <trkpt lat="43.59789" lon="3.89155">
        <ele>7.3</ele>
        <time>2017-10-27T09:47:31.447Z</time>
      </trkpt>
      <trkpt lat="43.59791" lon="3.89152">
        <ele>7.3</ele>
        <time>2017-10-27T09:47:32.449Z</time>
      </trkpt>
      <trkpt lat="43.59793" lon="3.89148">
        <ele>7.5</ele>
        <time>2017-10-27T09:47:33.444Z</time>
      </trkpt>
      <trkpt lat="43.59795" lon="3.89145">
        <ele>7.5</ele>
        <time>2017-10-27T09:47:34.445Z</time>
      </trkpt>
      <trkpt lat="43.59797" lon="3.89142">
        <ele>7.6</ele>
        <time>2017-10-27T09:47:35.445Z</time>
      </trkpt>
      <trkpt lat="43.59799" lon="3.89139">
        <ele>7.6</ele>
        <time>2017-10-27T09:47:36.445Z</time>
      </trkpt>
      <trkpt lat="43.59801" lon="3.89136">
        <ele>7.6</ele>
        <time>2017-10-27T09:47:37.445Z</time>
      </trkpt>
      <trkpt lat="43.59803" lon="3.89133">
        <ele>7.6</ele>
        <time>2017-10-27T09:47:38.454Z</time>
      </trkpt>
      <trkpt lat="43.59805" lon="3.8913">
        <ele>7.7</ele>
        <time>2017-10-27T09:47:39.444Z</time>
      </trkpt>
      <trkpt lat="43.59807" lon="3.89127">
        <ele>7.8</ele>
        <time>2017-10-27T09:47:40.451Z</time>
      </trkpt>
      <trkpt lat="43.59809" lon="3.89124">
        <ele>7.8</ele>
        <time>2017-10-27T09:47:41.446Z</time>
      </trkpt>
      <trkpt lat="43.59811" lon="3.89121">
        <ele>7.9</ele>
        <time>2017-10-27T09:47:42.447Z</time>
      </trkpt>
      <trkpt lat="43.59812" lon="3.89118">
        <ele>7.9</ele>
        <time>2017-10-27T09:47:43.446Z</time>
      </trkpt>
      <trkpt lat="43.59814" lon="3.89115">
        <ele>7.9</ele>
        <time>2017-10-27T09:47:44.435Z</time>
      </trkpt>
      <trkpt lat="43.59816" lon="3.89112">
        <ele>8</ele>
        <time>2017-10-27T09:47:45.434Z</time>
      </trkpt>
      <trkpt lat="43.59818" lon="3.89109">
        <ele>8</ele>
        <time>2017-10-27T09:47:46.432Z</time>
      </trkpt>
      <trkpt lat="43.59821" lon="3.89106">
        <ele>8</ele>
        <time>2017-10-27T09:47:47.437Z</time>
      </trkpt>
      <trkpt lat="43.59822" lon="3.89103">
        <ele>8</ele>
        <time>2017-10-27T09:47:48.447Z</time>
      </trkpt>
      <trkpt lat="43.59824" lon="3.891">
        <ele>8.1</ele>
        <time>2017-10-27T09:47:49.446Z</time>
      </trkpt>
      <trkpt lat="43.59827" lon="3.89097">
        <ele>8.2</ele>
        <time>2017-10-27T09:47:50.447Z</time>
      </trkpt>
      <trkpt lat="43.59829" lon="3.89094">
        <ele>8.2</ele>
        <time>2017-10-27T09:47:51.444Z</time>
      </trkpt>
      <trkpt lat="43.59831" lon="3.89091">
        <ele>8.2</ele>
        <time>2017-10-27T09:47:52.443Z</time>
      </trkpt>
      <trkpt lat="43.59833" lon="3.89088">
        <ele>8.2</ele>
        <time>2017-10-27T09:47:53.445Z</time>
      </trkpt>
      <trkpt lat="43.59835" lon="3.89085">
        <ele>8.2</ele>
        <time>2017-10-27T09:47:54.449Z</time>
      </trkpt>
      <trkpt lat="43.59837" lon="3.89082">
        <ele>8.3</ele>
        <time>2017-10-27T09:47:55.444Z</time>
      </trkpt>
      <trkpt lat="43.59838" lon="3.89079">
        <ele>8.3</ele>
        <time>2017-10-27T09:47:56.445Z</time>
      </trkpt>
      <trkpt lat="43.5984" lon="3.89076">
        <ele>8.3</ele>
        <time>2017-10-27T09:47:57.432Z</time>
      </trkpt>
      <trkpt lat="43.59842" lon="3.89074">
        <ele>8.4</ele>
        <time>2017-10-27T09:47:58.450Z</time>
      </trkpt>
      <trkpt lat="43.59844" lon="3.89071">
        <ele>8.5</ele>
        <time>2017-10-27T09:47:59.444Z</time>
      </trkpt>
      <trkpt lat="43.59846" lon="3.89068">
        <ele>8.5</ele>
        <time>2017-10-27T09:48:00.446Z</time>
      </trkpt>
      <trkpt lat="43.59848" lon="3.89065">
        <ele>8.6</ele>
        <time>2017-10-27T09:48:01.432Z</time>
      </trkpt>
      <trkpt lat="43.5985" lon="3.89062">
        <ele>8.6</ele>
        <time>2017-10-27T09:48:02.431Z</time>
      </trkpt>
      <trkpt lat="43.59851" lon="3.89059">
        <ele>8.7</ele>
        <time>2017-10-27T09:48:03.432Z</time>
      </trkpt>
      <trkpt lat="43.59853" lon="3.89056">
        <ele>8.8</ele>
        <time>2017-10-27T09:48:04.446Z</time>
      </trkpt>
      <trkpt lat="43.59855" lon="3.89053">
        <ele>8.9</ele>
        <time>2017-10-27T09:48:05.448Z</time>
      </trkpt>
      <trkpt lat="43.59857" lon="3.8905">
        <ele>9</ele>
        <time>2017-10-27T09:48:06.455Z</time>
      </trkpt>
      <trkpt lat="43.59858" lon="3.89047">
        <ele>9.1</ele>
        <time>2017-10-27T09:48:07.452Z</time>
      </trkpt>
      <trkpt lat="43.5986" lon="3.89044">
        <ele>9.1</ele>
        <time>2017-10-27T09:48:08.445Z</time>
      </trkpt>
      <trkpt lat="43.59862" lon="3.89042">
        <ele>9.1</ele>
        <time>2017-10-27T09:48:09.445Z</time>
      </trkpt>
      <trkpt lat="43.59863" lon="3.89039">
        <ele>9.1</ele>
        <time>2017-10-27T09:48:10.443Z</time>
      </trkpt>
      <trkpt lat="43.59865" lon="3.89036">
        <ele>9.2</ele>
        <time>2017-10-27T09:48:11.444Z</time>
      </trkpt>
      <trkpt lat="43.59867" lon="3.89033">
        <ele>9.1</ele>
        <time>2017-10-27T09:48:12.445Z</time>
      </trkpt>
      <trkpt lat="43.59868" lon="3.8903">
        <ele>9.1</ele>
        <time>2017-10-27T09:48:13.444Z</time>
      </trkpt>
      <trkpt lat="43.5987" lon="3.89027">
        <ele>9.2</ele>
        <time>2017-10-27T09:48:14.444Z</time>
      </trkpt>
      <trkpt lat="43.59871" lon="3.89024">
        <ele>9.3</ele>
        <time>2017-10-27T09:48:15.445Z</time>
      </trkpt>
      <trkpt lat="43.59873" lon="3.89021">
        <ele>9.3</ele>
        <time>2017-10-27T09:48:16.444Z</time>
      </trkpt>
      <trkpt lat="43.59874" lon="3.89018">
        <ele>9.3</ele>
        <time>2017-10-27T09:48:17.445Z</time>
      </trkpt>
      <trkpt lat="43.59876" lon="3.89014">
        <ele>9.3</ele>
        <time>2017-10-27T09:48:18.456Z</time>
      </trkpt>
      <trkpt lat="43.59877" lon="3.89011">
        <ele>9.4</ele>
        <time>2017-10-27T09:48:19.444Z</time>
      </trkpt>
      <trkpt lat="43.59878" lon="3.89008">
        <ele>9.5</ele>
        <time>2017-10-27T09:48:20.431Z</time>
      </trkpt>
      <trkpt lat="43.5988" lon="3.89005">
        <ele>9.5</ele>
        <time>2017-10-27T09:48:21.432Z</time>
      </trkpt>
      <trkpt lat="43.59881" lon="3.89003">
        <ele>9.6</ele>
        <time>2017-10-27T09:48:22.440Z</time>
      </trkpt>
      <trkpt lat="43.59883" lon="3.89">
        <ele>9.7</ele>
        <time>2017-10-27T09:48:23.448Z</time>
      </trkpt>
      <trkpt lat="43.59884" lon="3.88997">
        <ele>9.7</ele>
        <time>2017-10-27T09:48:24.450Z</time>
      </trkpt>
      <trkpt lat="43.59886" lon="3.88993">
        <ele>9.8</ele>
        <time>2017-10-27T09:48:25.435Z</time>
      </trkpt>
      <trkpt lat="43.59887" lon="3.88991">
        <ele>9.9</ele>
        <time>2017-10-27T09:48:26.445Z</time>
      </trkpt>
      <trkpt lat="43.59889" lon="3.88988">
        <ele>10</ele>
        <time>2017-10-27T09:48:27.451Z</time>
      </trkpt>
      <trkpt lat="43.59891" lon="3.88985">
        <ele>10</ele>
        <time>2017-10-27T09:48:28.446Z</time>
      </trkpt>
      <trkpt lat="43.59892" lon="3.88982">
        <ele>10.1</ele>
        <time>2017-10-27T09:48:29.445Z</time>
      </trkpt>
      <trkpt lat="43.59894" lon="3.88979">
        <ele>10.1</ele>
        <time>2017-10-27T09:48:30.445Z</time>
      </trkpt>
      <trkpt lat="43.59896" lon="3.88977">
        <ele>10.3</ele>
        <time>2017-10-27T09:48:31.448Z</time>
      </trkpt>
      <trkpt lat="43.59898" lon="3.88974">
        <ele>10.3</ele>
        <time>2017-10-27T09:48:32.444Z</time>
      </trkpt>
      <trkpt lat="43.59899" lon="3.88971">
        <ele>10.2</ele>
        <time>2017-10-27T09:48:33.445Z</time>
      </trkpt>
      <trkpt lat="43.59901" lon="3.88968">
        <ele>9.9</ele>
        <time>2017-10-27T09:48:34.454Z</time>
      </trkpt>
      <trkpt lat="43.59903" lon="3.88965">
        <ele>9.5</ele>
        <time>2017-10-27T09:48:35.444Z</time>
      </trkpt>
      <trkpt lat="43.59904" lon="3.88962">
        <ele>9.4</ele>
        <time>2017-10-27T09:48:36.446Z</time>
      </trkpt>
      <trkpt lat="43.59906" lon="3.88959">
        <ele>9.3</ele>
        <time>2017-10-27T09:48:37.432Z</time>
      </trkpt>
      <trkpt lat="43.59907" lon="3.88956">
        <ele>9.2</ele>
        <time>2017-10-27T09:48:38.433Z</time>
      </trkpt>
      <trkpt lat="43.59909" lon="3.88953">
        <ele>8.9</ele>
        <time>2017-10-27T09:48:39.432Z</time>
      </trkpt>
      <trkpt lat="43.5991" lon="3.8895">
        <ele>8.8</ele>
        <time>2017-10-27T09:48:40.448Z</time>
      </trkpt>
      <trkpt lat="43.59912" lon="3.88947">
        <ele>8.9</ele>
        <time>2017-10-27T09:48:41.450Z</time>
      </trkpt>
      <trkpt lat="43.59914" lon="3.88945">
        <ele>8.8</ele>
        <time>2017-10-27T09:48:42.445Z</time>
      </trkpt>
      <trkpt lat="43.59915" lon="3.88941">
        <ele>8.9</ele>
        <time>2017-10-27T09:48:43.450Z</time>
      </trkpt>
      <trkpt lat="43.59917" lon="3.88938">
        <ele>8.7</ele>
        <time>2017-10-27T09:48:44.445Z</time>
      </trkpt>
      <trkpt lat="43.59918" lon="3.88935">
        <ele>8.6</ele>
        <time>2017-10-27T09:48:45.458Z</time>
      </trkpt>
      <trkpt lat="43.5992" lon="3.88932">
        <ele>8.6</ele>
        <time>2017-10-27T09:48:46.446Z</time>
      </trkpt>
      <trkpt lat="43.59922" lon="3.88928">
        <ele>8.9</ele>
        <time>2017-10-27T09:48:47.454Z</time>
      </trkpt>
      <trkpt lat="43.59923" lon="3.88925">
        <ele>8.9</ele>
        <time>2017-10-27T09:48:48.446Z</time>
      </trkpt>
      <trkpt lat="43.59925" lon="3.88922">
        <ele>9</ele>
        <time>2017-10-27T09:48:49.448Z</time>
      </trkpt>
      <trkpt lat="43.59926" lon="3.88919">
        <ele>9.4</ele>
        <time>2017-10-27T09:48:50.446Z</time>
      </trkpt>
      <trkpt lat="43.59928" lon="3.88916">
        <ele>9.6</ele>
        <time>2017-10-27T09:48:51.445Z</time>
      </trkpt>
      <trkpt lat="43.5993" lon="3.88913">
        <ele>9.7</ele>
        <time>2017-10-27T09:48:52.443Z</time>
      </trkpt>
      <trkpt lat="43.59932" lon="3.8891">
        <ele>10</ele>
        <time>2017-10-27T09:48:53.453Z</time>
      </trkpt>
      <trkpt lat="43.59934" lon="3.88907">
        <ele>10.1</ele>
        <time>2017-10-27T09:48:54.451Z</time>
      </trkpt>
      <trkpt lat="43.59936" lon="3.88904">
        <ele>10.2</ele>
        <time>2017-10-27T09:48:55.443Z</time>
      </trkpt>
      <trkpt lat="43.59937" lon="3.88901">
        <ele>10.3</ele>
        <time>2017-10-27T09:48:56.431Z</time>
      </trkpt>
      <trkpt lat="43.59939" lon="3.88898">
        <ele>10.5</ele>
        <time>2017-10-27T09:48:57.431Z</time>
      </trkpt>
      <trkpt lat="43.59941" lon="3.88896">
        <ele>10.6</ele>
        <time>2017-10-27T09:48:58.444Z</time>
      </trkpt>
      <trkpt lat="43.59943" lon="3.88893">
        <ele>10.6</ele>
        <time>2017-10-27T09:48:59.451Z</time>
      </trkpt>
      <trkpt lat="43.59945" lon="3.8889">
        <ele>10.7</ele>
        <time>2017-10-27T09:49:00.454Z</time>
      </trkpt>
      <trkpt lat="43.59946" lon="3.88887">
        <ele>10.7</ele>
        <time>2017-10-27T09:49:01.452Z</time>
      </trkpt>
      <trkpt lat="43.59948" lon="3.88884">
        <ele>10.7</ele>
        <time>2017-10-27T09:49:02.446Z</time>
      </trkpt>
      <trkpt lat="43.59949" lon="3.88881">
        <ele>10.7</ele>
        <time>2017-10-27T09:49:03.444Z</time>
      </trkpt>
      <trkpt lat="43.59951" lon="3.88878">
        <ele>10.9</ele>
        <time>2017-10-27T09:49:04.430Z</time>
      </trkpt>
      <trkpt lat="43.59953" lon="3.88875">
        <ele>10.9</ele>
        <time>2017-10-27T09:49:05.431Z</time>
      </trkpt>
      <trkpt lat="43.59954" lon="3.88872">
        <ele>10.9</ele>
        <time>2017-10-27T09:49:06.437Z</time>
      </trkpt>
      <trkpt lat="43.59956" lon="3.88869">
        <ele>11</ele>
        <time>2017-10-27T09:49:07.431Z</time>
      </trkpt>
      <trkpt lat="43.59957" lon="3.88866">
        <ele>11.1</ele>
        <time>2017-10-27T09:49:08.444Z</time>
      </trkpt>
      <trkpt lat="43.59959" lon="3.88863">
        <ele>11</ele>
        <time>2017-10-27T09:49:09.444Z</time>
      </trkpt>
      <trkpt lat="43.59961" lon="3.8886">
        <ele>11.1</ele>
        <time>2017-10-27T09:49:10.446Z</time>
      </trkpt>
      <trkpt lat="43.59962" lon="3.88857">
        <ele>11.2</ele>
        <time>2017-10-27T09:49:11.444Z</time>
      </trkpt>
      <trkpt lat="43.59964" lon="3.88854">
        <ele>11.2</ele>
        <time>2017-10-27T09:49:12.448Z</time>
      </trkpt>
      <trkpt lat="43.59965" lon="3.88851">
        <ele>11.2</ele>
        <time>2017-10-27T09:49:13.446Z</time>
      </trkpt>
      <trkpt lat="43.59967" lon="3.88848">
        <ele>11.2</ele>
        <time>2017-10-27T09:49:14.445Z</time>
      </trkpt>
      <trkpt lat="43.59969" lon="3.88845">
        <ele>11.3</ele>
        <time>2017-10-27T09:49:15.432Z</time>
      </trkpt>
      <trkpt lat="43.5997" lon="3.88842">
        <ele>11.2</ele>
        <time>2017-10-27T09:49:16.430Z</time>
      </trkpt>
      <trkpt lat="43.59972" lon="3.88839">
        <ele>11.2</ele>
        <time>2017-10-27T09:49:17.437Z</time>
      </trkpt>
      <trkpt lat="43.59973" lon="3.88837">
        <ele>11.2</ele>
        <time>2017-10-27T09:49:18.457Z</time>
      </trkpt>
      <trkpt lat="43.59975" lon="3.88834">
        <ele>11.2</ele>
        <time>2017-10-27T09:49:19.453Z</time>
      </trkpt>
      <trkpt lat="43.59977" lon="3.88831">
        <ele>11.3</ele>
        <time>2017-10-27T09:49:20.450Z</time>
      </trkpt>
      <trkpt lat="43.59978" lon="3.88828">
        <ele>11.4</ele>
        <time>2017-10-27T09:49:21.450Z</time>
      </trkpt>
      <trkpt lat="43.5998" lon="3.88825">
        <ele>11.5</ele>
        <time>2017-10-27T09:49:22.451Z</time>
      </trkpt>
      <trkpt lat="43.59982" lon="3.88822">
        <ele>11.6</ele>
        <time>2017-10-27T09:49:23.461Z</time>
      </trkpt>
      <trkpt lat="43.59983" lon="3.88819">
        <ele>11.8</ele>
        <time>2017-10-27T09:49:24.452Z</time>
      </trkpt>
      <trkpt lat="43.59985" lon="3.88816">
        <ele>11.9</ele>
        <time>2017-10-27T09:49:25.444Z</time>
      </trkpt>
      <trkpt lat="43.59986" lon="3.88812">
        <ele>12.1</ele>
        <time>2017-10-27T09:49:26.445Z</time>
      </trkpt>
      <trkpt lat="43.59988" lon="3.88809">
        <ele>12.2</ele>
        <time>2017-10-27T09:49:27.445Z</time>
      </trkpt>
      <trkpt lat="43.59989" lon="3.88806">
        <ele>12.3</ele>
        <time>2017-10-27T09:49:28.451Z</time>
      </trkpt>
      <trkpt lat="43.59991" lon="3.88803">
        <ele>12.4</ele>
        <time>2017-10-27T09:49:29.446Z</time>
      </trkpt>
      <trkpt lat="43.59992" lon="3.888">
        <ele>12.4</ele>
        <time>2017-10-27T09:49:30.445Z</time>
      </trkpt>
      <trkpt lat="43.59993" lon="3.88796">
        <ele>12.5</ele>
        <time>2017-10-27T09:49:31.445Z</time>
      </trkpt>
      <trkpt lat="43.59995" lon="3.88793">
        <ele>12.5</ele>
        <time>2017-10-27T09:49:32.448Z</time>
      </trkpt>
      <trkpt lat="43.59996" lon="3.8879">
        <ele>12.5</ele>
        <time>2017-10-27T09:49:33.450Z</time>
      </trkpt>
      <trkpt lat="43.59997" lon="3.88786">
        <ele>12.6</ele>
        <time>2017-10-27T09:49:34.443Z</time>
      </trkpt>
      <trkpt lat="43.59999" lon="3.88782">
        <ele>12.6</ele>
        <time>2017-10-27T09:49:35.428Z</time>
      </trkpt>
      <trkpt lat="43.6" lon="3.88779">
        <ele>12.7</ele>
        <time>2017-10-27T09:49:36.446Z</time>
      </trkpt>
      <trkpt lat="43.60001" lon="3.88775">
        <ele>12.8</ele>
        <time>2017-10-27T09:49:37.439Z</time>
      </trkpt>
      <trkpt lat="43.60003" lon="3.88771">
        <ele>12.9</ele>
        <time>2017-10-27T09:49:38.445Z</time>
      </trkpt>
      <trkpt lat="43.60004" lon="3.88768">
        <ele>12.9</ele>
        <time>2017-10-27T09:49:39.431Z</time>
      </trkpt>
      <trkpt lat="43.60005" lon="3.88764">
        <ele>13</ele>
        <time>2017-10-27T09:49:40.462Z</time>
      </trkpt>
      <trkpt lat="43.60007" lon="3.88761">
        <ele>13</ele>
        <time>2017-10-27T09:49:41.432Z</time>
      </trkpt>
      <trkpt lat="43.60008" lon="3.88757">
        <ele>13</ele>
        <time>2017-10-27T09:49:42.437Z</time>
      </trkpt>
      <trkpt lat="43.60009" lon="3.88753">
        <ele>13</ele>
        <time>2017-10-27T09:49:43.454Z</time>
      </trkpt>
      <trkpt lat="43.60011" lon="3.8875">
        <ele>13</ele>
        <time>2017-10-27T09:49:44.444Z</time>
      </trkpt>
      <trkpt lat="43.60012" lon="3.88746">
        <ele>13</ele>
        <time>2017-10-27T09:49:45.444Z</time>
      </trkpt>
      <trkpt lat="43.60013" lon="3.88742">
        <ele>13.1</ele>
        <time>2017-10-27T09:49:46.445Z</time>
      </trkpt>
      <trkpt lat="43.60015" lon="3.88739">
        <ele>13.1</ele>
        <time>2017-10-27T09:49:47.446Z</time>
      </trkpt>
      <trkpt lat="43.60016" lon="3.88735">
        <ele>13.1</ele>
        <time>2017-10-27T09:49:48.447Z</time>
      </trkpt>
      <trkpt lat="43.60018" lon="3.88732">
        <ele>13.1</ele>
        <time>2017-10-27T09:49:49.447Z</time>
      </trkpt>
      <trkpt lat="43.6002" lon="3.88729">
        <ele>13.2</ele>
        <time>2017-10-27T09:49:50.444Z</time>
      </trkpt>
      <trkpt lat="43.60021" lon="3.88726">
        <ele>13.2</ele>
        <time>2017-10-27T09:49:51.439Z</time>
      </trkpt>
      <trkpt lat="43.60023" lon="3.88724">
        <ele>13.2</ele>
        <time>2017-10-27T09:49:52.433Z</time>
      </trkpt>
      <trkpt lat="43.60024" lon="3.88721">
        <ele>13.2</ele>
        <time>2017-10-27T09:49:53.431Z</time>
      </trkpt>
      <trkpt lat="43.60026" lon="3.88718">
        <ele>13.1</ele>
        <time>2017-10-27T09:49:54.445Z</time>
      </trkpt>
      <trkpt lat="43.60028" lon="3.88716">
        <ele>13.1</ele>
        <time>2017-10-27T09:49:55.439Z</time>
      </trkpt>
      <trkpt lat="43.60029" lon="3.88713">
        <ele>13.3</ele>
        <time>2017-10-27T09:49:56.437Z</time>
      </trkpt>
      <trkpt lat="43.60031" lon="3.8871">
        <ele>13.4</ele>
        <time>2017-10-27T09:49:57.434Z</time>
      </trkpt>
      <trkpt lat="43.60033" lon="3.88707">
        <ele>13.6</ele>
        <time>2017-10-27T09:49:58.445Z</time>
      </trkpt>
      <trkpt lat="43.60035" lon="3.88704">
        <ele>13.6</ele>
        <time>2017-10-27T09:49:59.448Z</time>
      </trkpt>
      <trkpt lat="43.60036" lon="3.88702">
        <ele>13.7</ele>
        <time>2017-10-27T09:50:00.433Z</time>
      </trkpt>
      <trkpt lat="43.60038" lon="3.88699">
        <ele>13.8</ele>
        <time>2017-10-27T09:50:01.445Z</time>
      </trkpt>
      <trkpt lat="43.6004" lon="3.88696">
        <ele>13.9</ele>
        <time>2017-10-27T09:50:02.441Z</time>
      </trkpt>
      <trkpt lat="43.60041" lon="3.88693">
        <ele>13.9</ele>
        <time>2017-10-27T09:50:03.436Z</time>
      </trkpt>
      <trkpt lat="43.60043" lon="3.88691">
        <ele>13.9</ele>
        <time>2017-10-27T09:50:04.443Z</time>
      </trkpt>
      <trkpt lat="43.60045" lon="3.88688">
        <ele>14.1</ele>
        <time>2017-10-27T09:50:05.443Z</time>
      </trkpt>
      <trkpt lat="43.60047" lon="3.88685">
        <ele>14.3</ele>
        <time>2017-10-27T09:50:06.432Z</time>
      </trkpt>
      <trkpt lat="43.60048" lon="3.88683">
        <ele>14.4</ele>
        <time>2017-10-27T09:50:07.432Z</time>
      </trkpt>
      <trkpt lat="43.6005" lon="3.8868">
        <ele>14.4</ele>
        <time>2017-10-27T09:50:08.431Z</time>
      </trkpt>
      <trkpt lat="43.60052" lon="3.88677">
        <ele>14.6</ele>
        <time>2017-10-27T09:50:09.450Z</time>
      </trkpt>
      <trkpt lat="43.60054" lon="3.88675">
        <ele>14.6</ele>
        <time>2017-10-27T09:50:10.444Z</time>
      </trkpt>
      <trkpt lat="43.60055" lon="3.88672">
        <ele>14.5</ele>
        <time>2017-10-27T09:50:11.450Z</time>
      </trkpt>
      <trkpt lat="43.60057" lon="3.88669">
        <ele>14.6</ele>
        <time>2017-10-27T09:50:12.447Z</time>
      </trkpt>
      <trkpt lat="43.60059" lon="3.88666">
        <ele>14.5</ele>
        <time>2017-10-27T09:50:13.444Z</time>
      </trkpt>
      <trkpt lat="43.60061" lon="3.88662">
        <ele>14.7</ele>
        <time>2017-10-27T09:50:14.451Z</time>
      </trkpt>
      <trkpt lat="43.60064" lon="3.88658">
        <ele>14.6</ele>
        <time>2017-10-27T09:50:15.445Z</time>
      </trkpt>
      <trkpt lat="43.60066" lon="3.88654">
        <ele>14.5</ele>
        <time>2017-10-27T09:50:16.445Z</time>
      </trkpt>
      <trkpt lat="43.60068" lon="3.8865">
        <ele>14.6</ele>
        <time>2017-10-27T09:50:17.444Z</time>
      </trkpt>
      <trkpt lat="43.6007" lon="3.88647">
        <ele>14.7</ele>
        <time>2017-10-27T09:50:18.445Z</time>
      </trkpt>
      <trkpt lat="43.60072" lon="3.88644">
        <ele>14.6</ele>
        <time>2017-10-27T09:50:19.444Z</time>
      </trkpt>
      <trkpt lat="43.60074" lon="3.88641">
        <ele>14.6</ele>
        <time>2017-10-27T09:50:20.444Z</time>
      </trkpt>
      <trkpt lat="43.60075" lon="3.88637">
        <ele>14.3</ele>
        <time>2017-10-27T09:50:21.445Z</time>
      </trkpt>
      <trkpt lat="43.60077" lon="3.88634">
        <ele>14.6</ele>
        <time>2017-10-27T09:50:22.445Z</time>
      </trkpt>
      <trkpt lat="43.60079" lon="3.88631">
        <ele>14.3</ele>
        <time>2017-10-27T09:50:23.432Z</time>
      </trkpt>
      <trkpt lat="43.60081" lon="3.88628">
        <ele>14.3</ele>
        <time>2017-10-27T09:50:24.433Z</time>
      </trkpt>
      <trkpt lat="43.60082" lon="3.88625">
        <ele>14.5</ele>
        <time>2017-10-27T09:50:25.431Z</time>
      </trkpt>
      <trkpt lat="43.60084" lon="3.88622">
        <ele>14.5</ele>
        <time>2017-10-27T09:50:26.433Z</time>
      </trkpt>
      <trkpt lat="43.60086" lon="3.88619">
        <ele>14.5</ele>
        <time>2017-10-27T09:50:27.444Z</time>
      </trkpt>
      <trkpt lat="43.60087" lon="3.88615">
        <ele>14.5</ele>
        <time>2017-10-27T09:50:28.447Z</time>
      </trkpt>
      <trkpt lat="43.60089" lon="3.88612">
        <ele>14.7</ele>
        <time>2017-10-27T09:50:29.449Z</time>
      </trkpt>
      <trkpt lat="43.6009" lon="3.88609">
        <ele>14.8</ele>
        <time>2017-10-27T09:50:30.444Z</time>
      </trkpt>
      <trkpt lat="43.60091" lon="3.88606">
        <ele>14.9</ele>
        <time>2017-10-27T09:50:31.448Z</time>
      </trkpt>
      <trkpt lat="43.60093" lon="3.88603">
        <ele>14.9</ele>
        <time>2017-10-27T09:50:32.444Z</time>
      </trkpt>
      <trkpt lat="43.60094" lon="3.886">
        <ele>15.2</ele>
        <time>2017-10-27T09:50:33.444Z</time>
      </trkpt>
      <trkpt lat="43.60096" lon="3.88597">
        <ele>15.4</ele>
        <time>2017-10-27T09:50:34.444Z</time>
      </trkpt>
      <trkpt lat="43.60097" lon="3.88594">
        <ele>15.4</ele>
        <time>2017-10-27T09:50:35.445Z</time>
      </trkpt>
      <trkpt lat="43.60099" lon="3.88592">
        <ele>15.3</ele>
        <time>2017-10-27T09:50:36.432Z</time>
      </trkpt>
      <trkpt lat="43.60101" lon="3.88589">
        <ele>15.5</ele>
        <time>2017-10-27T09:50:37.452Z</time>
      </trkpt>
      <trkpt lat="43.60102" lon="3.88586">
        <ele>15.6</ele>
        <time>2017-10-27T09:50:38.444Z</time>
      </trkpt>
      <trkpt lat="43.60103" lon="3.88583">
        <ele>15.4</ele>
        <time>2017-10-27T09:50:39.444Z</time>
      </trkpt>
      <trkpt lat="43.60104" lon="3.88579">
        <ele>16.2</ele>
        <time>2017-10-27T09:50:40.443Z</time>
      </trkpt>
      <trkpt lat="43.60105" lon="3.88576">
        <ele>16.6</ele>
        <time>2017-10-27T09:50:41.442Z</time>
      </trkpt>
      <trkpt lat="43.60105" lon="3.88573">
        <ele>16.8</ele>
        <time>2017-10-27T09:50:42.432Z</time>
      </trkpt>
      <trkpt lat="43.60106" lon="3.8857">
        <ele>16.7</ele>
        <time>2017-10-27T09:50:43.432Z</time>
      </trkpt>
      <trkpt lat="43.60106" lon="3.88566">
        <ele>16.7</ele>
        <time>2017-10-27T09:50:44.481Z</time>
      </trkpt>
      <trkpt lat="43.60106" lon="3.88563">
        <ele>16.8</ele>
        <time>2017-10-27T09:50:45.462Z</time>
      </trkpt>
      <trkpt lat="43.60107" lon="3.8856">
        <ele>16.6</ele>
        <time>2017-10-27T09:50:46.461Z</time>
      </trkpt>
      <trkpt lat="43.60107" lon="3.88557">
        <ele>16.8</ele>
        <time>2017-10-27T09:50:47.445Z</time>
      </trkpt>
      <trkpt lat="43.60107" lon="3.88554">
        <ele>16.9</ele>
        <time>2017-10-27T09:50:48.462Z</time>
      </trkpt>
      <trkpt lat="43.60107" lon="3.88551">
        <ele>17</ele>
        <time>2017-10-27T09:50:49.447Z</time>
      </trkpt>
      <trkpt lat="43.60107" lon="3.88547">
        <ele>16.9</ele>
        <time>2017-10-27T09:50:50.442Z</time>
      </trkpt>
      <trkpt lat="43.60107" lon="3.88544">
        <ele>17</ele>
        <time>2017-10-27T09:50:51.445Z</time>
      </trkpt>
      <trkpt lat="43.60107" lon="3.88541">
        <ele>16.9</ele>
        <time>2017-10-27T09:50:52.448Z</time>
      </trkpt>
      <trkpt lat="43.60107" lon="3.88538">
        <ele>17</ele>
        <time>2017-10-27T09:50:53.445Z</time>
      </trkpt>
      <trkpt lat="43.60107" lon="3.88534">
        <ele>17.1</ele>
        <time>2017-10-27T09:50:54.452Z</time>
      </trkpt>
      <trkpt lat="43.60107" lon="3.88531">
        <ele>17.3</ele>
        <time>2017-10-27T09:50:55.445Z</time>
      </trkpt>
      <trkpt lat="43.60107" lon="3.88528">
        <ele>17.3</ele>
        <time>2017-10-27T09:50:56.445Z</time>
      </trkpt>
      <trkpt lat="43.60107" lon="3.88525">
        <ele>17.4</ele>
        <time>2017-10-27T09:50:57.434Z</time>
      </trkpt>
      <trkpt lat="43.60107" lon="3.88522">
        <ele>17.3</ele>
        <time>2017-10-27T09:50:58.443Z</time>
      </trkpt>
      <trkpt lat="43.60107" lon="3.8852">
        <ele>17</ele>
        <time>2017-10-27T09:50:59.446Z</time>
      </trkpt>
      <trkpt lat="43.60107" lon="3.88518">
        <ele>16.9</ele>
        <time>2017-10-27T09:51:00.449Z</time>
      </trkpt>
      <trkpt lat="43.60107" lon="3.88515">
        <ele>16.8</ele>
        <time>2017-10-27T09:51:01.445Z</time>
      </trkpt>
      <trkpt lat="43.60107" lon="3.88513">
        <ele>16.9</ele>
        <time>2017-10-27T09:51:02.431Z</time>
      </trkpt>
      <trkpt lat="43.60108" lon="3.8851">
        <ele>16.8</ele>
        <time>2017-10-27T09:51:03.432Z</time>
      </trkpt>
      <trkpt lat="43.60108" lon="3.88508">
        <ele>16.8</ele>
        <time>2017-10-27T09:51:04.431Z</time>
      </trkpt>
      <trkpt lat="43.60108" lon="3.88505">
        <ele>16.8</ele>
        <time>2017-10-27T09:51:05.432Z</time>
      </trkpt>
      <trkpt lat="43.60109" lon="3.88503">
        <ele>17</ele>
        <time>2017-10-27T09:51:06.452Z</time>
      </trkpt>
      <trkpt lat="43.60109" lon="3.88501">
        <ele>17</ele>
        <time>2017-10-27T09:51:07.447Z</time>
      </trkpt>
      <trkpt lat="43.60109" lon="3.88499">
        <ele>17.1</ele>
        <time>2017-10-27T09:51:08.447Z</time>
      </trkpt>
      <trkpt lat="43.6011" lon="3.88497">
        <ele>17.2</ele>
        <time>2017-10-27T09:51:09.445Z</time>
      </trkpt>
      <trkpt lat="43.60111" lon="3.88496">
        <ele>17.5</ele>
        <time>2017-10-27T09:51:10.444Z</time>
      </trkpt>
      <trkpt lat="43.60111" lon="3.88493">
        <ele>17.5</ele>
        <time>2017-10-27T09:51:11.446Z</time>
      </trkpt>
      <trkpt lat="43.60111" lon="3.88491">
        <ele>17.4</ele>
        <time>2017-10-27T09:51:12.448Z</time>
      </trkpt>
      <trkpt lat="43.60111" lon="3.88489">
        <ele>17.4</ele>
        <time>2017-10-27T09:51:13.448Z</time>
      </trkpt>
      <trkpt lat="43.60112" lon="3.88488">
        <ele>17.6</ele>
        <time>2017-10-27T09:51:14.445Z</time>
      </trkpt>
      <trkpt lat="43.60113" lon="3.88485">
        <ele>17.7</ele>
        <time>2017-10-27T09:51:15.445Z</time>
      </trkpt>
      <trkpt lat="43.60114" lon="3.88482">
        <ele>17.9</ele>
        <time>2017-10-27T09:51:16.445Z</time>
      </trkpt>
      <trkpt lat="43.60114" lon="3.88478">
        <ele>17.8</ele>
        <time>2017-10-27T09:51:17.452Z</time>
      </trkpt>
      <trkpt lat="43.60114" lon="3.88473">
        <ele>17.7</ele>
        <time>2017-10-27T09:51:18.447Z</time>
      </trkpt>
      <trkpt lat="43.60115" lon="3.88469">
        <ele>17.6</ele>
        <time>2017-10-27T09:51:19.432Z</time>
      </trkpt>
      <trkpt lat="43.60114" lon="3.88465">
        <ele>17.7</ele>
        <time>2017-10-27T09:51:20.431Z</time>
      </trkpt>
      <trkpt lat="43.60114" lon="3.88461">
        <ele>18</ele>
        <time>2017-10-27T09:51:21.445Z</time>
      </trkpt>
      <trkpt lat="43.60114" lon="3.88458">
        <ele>18.4</ele>
        <time>2017-10-27T09:51:22.446Z</time>
      </trkpt>
      <trkpt lat="43.60114" lon="3.88455">
        <ele>18.7</ele>
        <time>2017-10-27T09:51:23.455Z</time>
      </trkpt>
      <trkpt lat="43.60115" lon="3.88453">
        <ele>19.1</ele>
        <time>2017-10-27T09:51:24.449Z</time>
      </trkpt>
      <trkpt lat="43.60117" lon="3.8845">
        <ele>19.3</ele>
        <time>2017-10-27T09:51:25.438Z</time>
      </trkpt>
      <trkpt lat="43.60118" lon="3.88448">
        <ele>19.5</ele>
        <time>2017-10-27T09:51:26.454Z</time>
      </trkpt>
      <trkpt lat="43.60117" lon="3.88444">
        <ele>20</ele>
        <time>2017-10-27T09:51:27.456Z</time>
      </trkpt>
      <trkpt lat="43.60117" lon="3.8844">
        <ele>20.4</ele>
        <time>2017-10-27T09:51:28.444Z</time>
      </trkpt>
      <trkpt lat="43.60117" lon="3.88437">
        <ele>20.6</ele>
        <time>2017-10-27T09:51:29.445Z</time>
      </trkpt>
      <trkpt lat="43.60117" lon="3.88434">
        <ele>20.8</ele>
        <time>2017-10-27T09:51:30.448Z</time>
      </trkpt>
      <trkpt lat="43.60117" lon="3.8843">
        <ele>21.2</ele>
        <time>2017-10-27T09:51:31.445Z</time>
      </trkpt>
      <trkpt lat="43.60118" lon="3.88427">
        <ele>21.5</ele>
        <time>2017-10-27T09:51:32.444Z</time>
      </trkpt>
      <trkpt lat="43.60119" lon="3.88424">
        <ele>21.8</ele>
        <time>2017-10-27T09:51:33.454Z</time>
      </trkpt>
      <trkpt lat="43.60119" lon="3.88421">
        <ele>22.3</ele>
        <time>2017-10-27T09:51:34.447Z</time>
      </trkpt>
      <trkpt lat="43.60119" lon="3.88418">
        <ele>22.5</ele>
        <time>2017-10-27T09:51:35.445Z</time>
      </trkpt>
      <trkpt lat="43.6012" lon="3.88415">
        <ele>22.8</ele>
        <time>2017-10-27T09:51:36.432Z</time>
      </trkpt>
      <trkpt lat="43.6012" lon="3.88412">
        <ele>23.2</ele>
        <time>2017-10-27T09:51:37.431Z</time>
      </trkpt>
      <trkpt lat="43.6012" lon="3.8841">
        <ele>23.5</ele>
        <time>2017-10-27T09:51:38.431Z</time>
      </trkpt>
      <trkpt lat="43.6012" lon="3.88407">
        <ele>23.8</ele>
        <time>2017-10-27T09:51:39.432Z</time>
      </trkpt>
      <trkpt lat="43.60121" lon="3.88403">
        <ele>24</ele>
        <time>2017-10-27T09:51:40.452Z</time>
      </trkpt>
      <trkpt lat="43.60121" lon="3.88401">
        <ele>24.3</ele>
        <time>2017-10-27T09:51:41.445Z</time>
      </trkpt>
      <trkpt lat="43.60122" lon="3.88398">
        <ele>24.5</ele>
        <time>2017-10-27T09:51:42.448Z</time>
      </trkpt>
      <trkpt lat="43.60123" lon="3.88396">
        <ele>24.8</ele>
        <time>2017-10-27T09:51:43.446Z</time>
      </trkpt>
      <trkpt lat="43.60124" lon="3.88393">
        <ele>25</ele>
        <time>2017-10-27T09:51:44.445Z</time>
      </trkpt>
      <trkpt lat="43.60124" lon="3.88391">
        <ele>25.2</ele>
        <time>2017-10-27T09:51:45.447Z</time>
      </trkpt>
      <trkpt lat="43.60125" lon="3.88389">
        <ele>25.5</ele>
        <time>2017-10-27T09:51:46.445Z</time>
      </trkpt>
      <trkpt lat="43.60124" lon="3.88385">
        <ele>25.5</ele>
        <time>2017-10-27T09:51:47.433Z</time>
      </trkpt>
      <trkpt lat="43.60125" lon="3.88383">
        <ele>25.6</ele>
        <time>2017-10-27T09:51:48.444Z</time>
      </trkpt>
      <trkpt lat="43.60125" lon="3.8838">
        <ele>25.8</ele>
        <time>2017-10-27T09:51:49.445Z</time>
      </trkpt>
      <trkpt lat="43.60124" lon="3.88377">
        <ele>25.9</ele>
        <time>2017-10-27T09:51:50.451Z</time>
      </trkpt>
      <trkpt lat="43.60125" lon="3.88374">
        <ele>26.4</ele>
        <time>2017-10-27T09:51:51.454Z</time>
      </trkpt>
      <trkpt lat="43.60125" lon="3.88371">
        <ele>26.6</ele>
        <time>2017-10-27T09:51:52.450Z</time>
      </trkpt>
      <trkpt lat="43.60125" lon="3.88368">
        <ele>26.7</ele>
        <time>2017-10-27T09:51:53.448Z</time>
      </trkpt>
      <trkpt lat="43.60125" lon="3.88366">
        <ele>26.9</ele>
        <time>2017-10-27T09:51:54.447Z</time>
      </trkpt>
      <trkpt lat="43.60124" lon="3.88363">
        <ele>27</ele>
        <time>2017-10-27T09:51:55.446Z</time>
      </trkpt>
      <trkpt lat="43.60124" lon="3.8836">
        <ele>27.2</ele>
        <time>2017-10-27T09:51:56.445Z</time>
      </trkpt>
      <trkpt lat="43.60124" lon="3.88358">
        <ele>27.4</ele>
        <time>2017-10-27T09:51:57.434Z</time>
      </trkpt>
      <trkpt lat="43.60126" lon="3.88353">
        <ele>27.8</ele>
        <time>2017-10-27T09:51:58.446Z</time>
      </trkpt>
      <trkpt lat="43.60127" lon="3.8835">
        <ele>28.1</ele>
        <time>2017-10-27T09:51:59.447Z</time>
      </trkpt>
      <trkpt lat="43.60129" lon="3.88346">
        <ele>28.4</ele>
        <time>2017-10-27T09:52:00.447Z</time>
      </trkpt>
      <trkpt lat="43.6013" lon="3.88343">
        <ele>28.7</ele>
        <time>2017-10-27T09:52:01.434Z</time>
      </trkpt>
      <trkpt lat="43.60132" lon="3.88339">
        <ele>28.9</ele>
        <time>2017-10-27T09:52:02.433Z</time>
      </trkpt>
      <trkpt lat="43.60133" lon="3.88335">
        <ele>28.9</ele>
        <time>2017-10-27T09:52:03.431Z</time>
      </trkpt>
      <trkpt lat="43.60135" lon="3.88332">
        <ele>29.2</ele>
        <time>2017-10-27T09:52:04.434Z</time>
      </trkpt>
      <trkpt lat="43.60136" lon="3.88328">
        <ele>29</ele>
        <time>2017-10-27T09:52:05.431Z</time>
      </trkpt>
      <trkpt lat="43.60138" lon="3.88324">
        <ele>29.1</ele>
        <time>2017-10-27T09:52:06.432Z</time>
      </trkpt>
      <trkpt lat="43.60139" lon="3.8832">
        <ele>29.1</ele>
        <time>2017-10-27T09:52:07.437Z</time>
      </trkpt>
      <trkpt lat="43.6014" lon="3.88317">
        <ele>29.1</ele>
        <time>2017-10-27T09:52:08.431Z</time>
      </trkpt>
      <trkpt lat="43.60142" lon="3.88314">
        <ele>29.1</ele>
        <time>2017-10-27T09:52:09.446Z</time>
      </trkpt>
      <trkpt lat="43.60142" lon="3.8831">
        <ele>29.4</ele>
        <time>2017-10-27T09:52:10.447Z</time>
      </trkpt>
      <trkpt lat="43.60144" lon="3.88308">
        <ele>29.7</ele>
        <time>2017-10-27T09:52:11.463Z</time>
      </trkpt>
      <trkpt lat="43.60145" lon="3.88307">
        <ele>30.1</ele>
        <time>2017-10-27T09:52:12.455Z</time>
      </trkpt>
      <trkpt lat="43.60146" lon="3.88305">
        <ele>30.5</ele>
        <time>2017-10-27T09:52:13.463Z</time>
      </trkpt>
      <trkpt lat="43.60146" lon="3.88303">
        <ele>30.7</ele>
        <time>2017-10-27T09:52:14.464Z</time>
      </trkpt>
      <trkpt lat="43.60146" lon="3.88301">
        <ele>30.7</ele>
        <time>2017-10-27T09:52:15.442Z</time>
      </trkpt>
      <trkpt lat="43.60146" lon="3.88298">
        <ele>30.9</ele>
        <time>2017-10-27T09:52:16.445Z</time>
      </trkpt>
      <trkpt lat="43.60147" lon="3.88296">
        <ele>31.2</ele>
        <time>2017-10-27T09:52:17.445Z</time>
      </trkpt>
      <trkpt lat="43.60148" lon="3.88293">
        <ele>31.1</ele>
        <time>2017-10-27T09:52:18.454Z</time>
      </trkpt>
      <trkpt lat="43.60149" lon="3.8829">
        <ele>31</ele>
        <time>2017-10-27T09:52:19.446Z</time>
      </trkpt>
      <trkpt lat="43.6015" lon="3.88287">
        <ele>30.5</ele>
        <time>2017-10-27T09:52:20.453Z</time>
      </trkpt>
      <trkpt lat="43.60149" lon="3.88284">
        <ele>29.9</ele>
        <time>2017-10-27T09:52:21.449Z</time>
      </trkpt>
      <trkpt lat="43.60149" lon="3.8828">
        <ele>29.7</ele>
        <time>2017-10-27T09:52:22.449Z</time>
      </trkpt>
      <trkpt lat="43.60148" lon="3.88277">
        <ele>29.5</ele>
        <time>2017-10-27T09:52:23.445Z</time>
      </trkpt>
      <trkpt lat="43.60148" lon="3.88274">
        <ele>29.1</ele>
        <time>2017-10-27T09:52:24.435Z</time>
      </trkpt>
      <trkpt lat="43.60149" lon="3.8827">
        <ele>28.9</ele>
        <time>2017-10-27T09:52:25.433Z</time>
      </trkpt>
      <trkpt lat="43.60149" lon="3.88266">
        <ele>29</ele>
        <time>2017-10-27T09:52:26.431Z</time>
      </trkpt>
      <trkpt lat="43.6015" lon="3.88263">
        <ele>28.9</ele>
        <time>2017-10-27T09:52:27.442Z</time>
      </trkpt>
      <trkpt lat="43.6015" lon="3.8826">
        <ele>28.3</ele>
        <time>2017-10-27T09:52:28.446Z</time>
      </trkpt>
      <trkpt lat="43.60149" lon="3.88256">
        <ele>28.3</ele>
        <time>2017-10-27T09:52:29.445Z</time>
      </trkpt>
      <trkpt lat="43.60149" lon="3.88253">
        <ele>28.3</ele>
        <time>2017-10-27T09:52:30.447Z</time>
      </trkpt>
      <trkpt lat="43.60148" lon="3.88249">
        <ele>28.2</ele>
        <time>2017-10-27T09:52:31.448Z</time>
      </trkpt>
      <trkpt lat="43.60147" lon="3.88246">
        <ele>27.7</ele>
        <time>2017-10-27T09:52:32.445Z</time>
      </trkpt>
      <trkpt lat="43.60146" lon="3.88243">
        <ele>27.6</ele>
        <time>2017-10-27T09:52:33.446Z</time>
      </trkpt>
      <trkpt lat="43.60145" lon="3.8824">
        <ele>27.5</ele>
        <time>2017-10-27T09:52:34.449Z</time>
      </trkpt>
      <trkpt lat="43.60143" lon="3.88236">
        <ele>27.2</ele>
        <time>2017-10-27T09:52:35.445Z</time>
      </trkpt>
      <trkpt lat="43.60142" lon="3.88233">
        <ele>26.6</ele>
        <time>2017-10-27T09:52:36.446Z</time>
      </trkpt>
      <trkpt lat="43.6014" lon="3.88229">
        <ele>25.7</ele>
        <time>2017-10-27T09:52:37.445Z</time>
      </trkpt>
      <trkpt lat="43.60139" lon="3.88226">
        <ele>25.4</ele>
        <time>2017-10-27T09:52:38.447Z</time>
      </trkpt>
      <trkpt lat="43.60137" lon="3.88222">
        <ele>24.8</ele>
        <time>2017-10-27T09:52:39.446Z</time>
      </trkpt>
      <trkpt lat="43.60136" lon="3.88219">
        <ele>24.3</ele>
        <time>2017-10-27T09:52:40.445Z</time>
      </trkpt>
      <trkpt lat="43.60134" lon="3.88215">
        <ele>23.6</ele>
        <time>2017-10-27T09:52:41.445Z</time>
      </trkpt>
      <trkpt lat="43.60133" lon="3.88212">
        <ele>23.8</ele>
        <time>2017-10-27T09:52:42.446Z</time>
      </trkpt>
      <trkpt lat="43.60132" lon="3.88209">
        <ele>24</ele>
        <time>2017-10-27T09:52:43.450Z</time>
      </trkpt>
      <trkpt lat="43.60131" lon="3.88206">
        <ele>24.2</ele>
        <time>2017-10-27T09:52:44.431Z</time>
      </trkpt>
      <trkpt lat="43.6013" lon="3.88202">
        <ele>24.8</ele>
        <time>2017-10-27T09:52:45.434Z</time>
      </trkpt>
      <trkpt lat="43.60129" lon="3.88199">
        <ele>24.8</ele>
        <time>2017-10-27T09:52:46.431Z</time>
      </trkpt>
      <trkpt lat="43.60127" lon="3.88195">
        <ele>24.8</ele>
        <time>2017-10-27T09:52:47.432Z</time>
      </trkpt>
      <trkpt lat="43.60126" lon="3.88191">
        <ele>24.8</ele>
        <time>2017-10-27T09:52:48.452Z</time>
      </trkpt>
      <trkpt lat="43.60124" lon="3.88188">
        <ele>24.7</ele>
        <time>2017-10-27T09:52:49.445Z</time>
      </trkpt>
      <trkpt lat="43.60123" lon="3.88184">
        <ele>24.9</ele>
        <time>2017-10-27T09:52:50.445Z</time>
      </trkpt>
      <trkpt lat="43.60122" lon="3.88181">
        <ele>25.5</ele>
        <time>2017-10-27T09:52:51.445Z</time>
      </trkpt>
      <trkpt lat="43.60121" lon="3.88178">
        <ele>25.7</ele>
        <time>2017-10-27T09:52:52.444Z</time>
      </trkpt>
      <trkpt lat="43.6012" lon="3.88175">
        <ele>26.2</ele>
        <time>2017-10-27T09:52:53.441Z</time>
      </trkpt>
      <trkpt lat="43.60118" lon="3.88174">
        <ele>26.9</ele>
        <time>2017-10-27T09:52:54.432Z</time>
      </trkpt>
      <trkpt lat="43.60116" lon="3.88172">
        <ele>26.9</ele>
        <time>2017-10-27T09:52:55.431Z</time>
      </trkpt>
      <trkpt lat="43.60115" lon="3.8817">
        <ele>26.8</ele>
        <time>2017-10-27T09:52:56.444Z</time>
      </trkpt>
      <trkpt lat="43.60114" lon="3.88168">
        <ele>26.9</ele>
        <time>2017-10-27T09:52:57.436Z</time>
      </trkpt>
      <trkpt lat="43.60114" lon="3.88166">
        <ele>27.2</ele>
        <time>2017-10-27T09:52:58.444Z</time>
      </trkpt>
      <trkpt lat="43.60113" lon="3.88163">
        <ele>27.2</ele>
        <time>2017-10-27T09:52:59.444Z</time>
      </trkpt>
      <trkpt lat="43.60113" lon="3.88161">
        <ele>27.4</ele>
        <time>2017-10-27T09:53:00.454Z</time>
      </trkpt>
      <trkpt lat="43.60113" lon="3.88159">
        <ele>27.4</ele>
        <time>2017-10-27T09:53:01.436Z</time>
      </trkpt>
      <trkpt lat="43.60112" lon="3.88156">
        <ele>27.5</ele>
        <time>2017-10-27T09:53:02.445Z</time>
      </trkpt>
      <trkpt lat="43.60112" lon="3.88154">
        <ele>27.5</ele>
        <time>2017-10-27T09:53:03.453Z</time>
      </trkpt>
      <trkpt lat="43.60112" lon="3.88151">
        <ele>27.5</ele>
        <time>2017-10-27T09:53:04.432Z</time>
      </trkpt>
      <trkpt lat="43.60111" lon="3.88149">
        <ele>27.7</ele>
        <time>2017-10-27T09:53:05.434Z</time>
      </trkpt>
      <trkpt lat="43.60111" lon="3.88146">
        <ele>27.8</ele>
        <time>2017-10-27T09:53:06.434Z</time>
      </trkpt>
      <trkpt lat="43.6011" lon="3.88144">
        <ele>27.9</ele>
        <time>2017-10-27T09:53:07.465Z</time>
      </trkpt>
      <trkpt lat="43.60109" lon="3.88141">
        <ele>28.2</ele>
        <time>2017-10-27T09:53:08.448Z</time>
      </trkpt>
      <trkpt lat="43.60108" lon="3.88139">
        <ele>28.5</ele>
        <time>2017-10-27T09:53:09.451Z</time>
      </trkpt>
      <trkpt lat="43.60108" lon="3.88137">
        <ele>28.7</ele>
        <time>2017-10-27T09:53:10.432Z</time>
      </trkpt>
      <trkpt lat="43.60107" lon="3.88135">
        <ele>28.8</ele>
        <time>2017-10-27T09:53:11.445Z</time>
      </trkpt>
      <trkpt lat="43.60107" lon="3.88132">
        <ele>29</ele>
        <time>2017-10-27T09:53:12.445Z</time>
      </trkpt>
      <trkpt lat="43.60107" lon="3.88128">
        <ele>29.1</ele>
        <time>2017-10-27T09:53:13.445Z</time>
      </trkpt>
      <trkpt lat="43.60107" lon="3.88126">
        <ele>29.2</ele>
        <time>2017-10-27T09:53:14.444Z</time>
      </trkpt>
      <trkpt lat="43.60106" lon="3.88123">
        <ele>29.2</ele>
        <time>2017-10-27T09:53:15.447Z</time>
      </trkpt>
      <trkpt lat="43.60106" lon="3.88119">
        <ele>28.8</ele>
        <time>2017-10-27T09:53:16.443Z</time>
      </trkpt>
      <trkpt lat="43.60105" lon="3.88116">
        <ele>28.6</ele>
        <time>2017-10-27T09:53:17.445Z</time>
      </trkpt>
      <trkpt lat="43.60105" lon="3.88112">
        <ele>28.5</ele>
        <time>2017-10-27T09:53:18.445Z</time>
      </trkpt>
      <trkpt lat="43.60104" lon="3.88108">
        <ele>28.6</ele>
        <time>2017-10-27T09:53:19.444Z</time>
      </trkpt>
      <trkpt lat="43.60104" lon="3.88105">
        <ele>28.5</ele>
        <time>2017-10-27T09:53:20.445Z</time>
      </trkpt>
      <trkpt lat="43.60104" lon="3.88101">
        <ele>28.9</ele>
        <time>2017-10-27T09:53:21.444Z</time>
      </trkpt>
      <trkpt lat="43.60103" lon="3.88097">
        <ele>28.7</ele>
        <time>2017-10-27T09:53:22.431Z</time>
      </trkpt>
      <trkpt lat="43.60102" lon="3.88094">
        <ele>28.4</ele>
        <time>2017-10-27T09:53:23.432Z</time>
      </trkpt>
      <trkpt lat="43.60101" lon="3.88089">
        <ele>28</ele>
        <time>2017-10-27T09:53:24.433Z</time>
      </trkpt>
      <trkpt lat="43.601" lon="3.88085">
        <ele>27.6</ele>
        <time>2017-10-27T09:53:25.463Z</time>
      </trkpt>
      <trkpt lat="43.60098" lon="3.8808">
        <ele>27.6</ele>
        <time>2017-10-27T09:53:26.474Z</time>
      </trkpt>
      <trkpt lat="43.60097" lon="3.88076">
        <ele>27.5</ele>
        <time>2017-10-27T09:53:27.446Z</time>
      </trkpt>
      <trkpt lat="43.60095" lon="3.88071">
        <ele>27.2</ele>
        <time>2017-10-27T09:53:28.445Z</time>
      </trkpt>
      <trkpt lat="43.60093" lon="3.88066">
        <ele>26.9</ele>
        <time>2017-10-27T09:53:29.441Z</time>
      </trkpt>
      <trkpt lat="43.60092" lon="3.88062">
        <ele>26.7</ele>
        <time>2017-10-27T09:53:30.437Z</time>
      </trkpt>
      <trkpt lat="43.60091" lon="3.88057">
        <ele>26.1</ele>
        <time>2017-10-27T09:53:31.432Z</time>
      </trkpt>
      <trkpt lat="43.60089" lon="3.88053">
        <ele>26</ele>
        <time>2017-10-27T09:53:32.445Z</time>
      </trkpt>
      <trkpt lat="43.60088" lon="3.88048">
        <ele>25.8</ele>
        <time>2017-10-27T09:53:33.450Z</time>
      </trkpt>
      <trkpt lat="43.60087" lon="3.88045">
        <ele>25.7</ele>
        <time>2017-10-27T09:53:34.437Z</time>
      </trkpt>
      <trkpt lat="43.60086" lon="3.88041">
        <ele>25.4</ele>
        <time>2017-10-27T09:53:35.436Z</time>
      </trkpt>
      <trkpt lat="43.60086" lon="3.88037">
        <ele>25.2</ele>
        <time>2017-10-27T09:53:36.448Z</time>
      </trkpt>
      <trkpt lat="43.60084" lon="3.88033">
        <ele>25</ele>
        <time>2017-10-27T09:53:37.457Z</time>
      </trkpt>
      <trkpt lat="43.60083" lon="3.88028">
        <ele>24.9</ele>
        <time>2017-10-27T09:53:38.466Z</time>
      </trkpt>
      <trkpt lat="43.60082" lon="3.88024">
        <ele>24.7</ele>
        <time>2017-10-27T09:53:39.436Z</time>
      </trkpt>
      <trkpt lat="43.6008" lon="3.88019">
        <ele>24.3</ele>
        <time>2017-10-27T09:53:40.448Z</time>
      </trkpt>
      <trkpt lat="43.60079" lon="3.88015">
        <ele>24.2</ele>
        <time>2017-10-27T09:53:41.446Z</time>
      </trkpt>
      <trkpt lat="43.60078" lon="3.8801">
        <ele>24</ele>
        <time>2017-10-27T09:53:42.446Z</time>
      </trkpt>
      <trkpt lat="43.60077" lon="3.88006">
        <ele>23.8</ele>
        <time>2017-10-27T09:53:43.445Z</time>
      </trkpt>
      <trkpt lat="43.60076" lon="3.88001">
        <ele>24</ele>
        <time>2017-10-27T09:53:44.445Z</time>
      </trkpt>
      <trkpt lat="43.60075" lon="3.87997">
        <ele>23.8</ele>
        <time>2017-10-27T09:53:45.451Z</time>
      </trkpt>
      <trkpt lat="43.60074" lon="3.87993">
        <ele>23.7</ele>
        <time>2017-10-27T09:53:46.431Z</time>
      </trkpt>
      <trkpt lat="43.60072" lon="3.87989">
        <ele>23.6</ele>
        <time>2017-10-27T09:53:47.437Z</time>
      </trkpt>
      <trkpt lat="43.60072" lon="3.87985">
        <ele>23.6</ele>
        <time>2017-10-27T09:53:48.438Z</time>
      </trkpt>
      <trkpt lat="43.60071" lon="3.87982">
        <ele>24</ele>
        <time>2017-10-27T09:53:49.446Z</time>
      </trkpt>
      <trkpt lat="43.6007" lon="3.87978">
        <ele>23.9</ele>
        <time>2017-10-27T09:53:50.452Z</time>
      </trkpt>
      <trkpt lat="43.60069" lon="3.87975">
        <ele>25</ele>
        <time>2017-10-27T09:53:51.451Z</time>
      </trkpt>
      <trkpt lat="43.60068" lon="3.87972">
        <ele>25.2</ele>
        <time>2017-10-27T09:53:52.445Z</time>
      </trkpt>
      <trkpt lat="43.60066" lon="3.8797">
        <ele>25.2</ele>
        <time>2017-10-27T09:53:53.446Z</time>
      </trkpt>
      <trkpt lat="43.60064" lon="3.87967">
        <ele>25</ele>
        <time>2017-10-27T09:53:54.447Z</time>
      </trkpt>
      <trkpt lat="43.60062" lon="3.87966">
        <ele>24.7</ele>
        <time>2017-10-27T09:53:55.442Z</time>
      </trkpt>
      <trkpt lat="43.60061" lon="3.87964">
        <ele>24.5</ele>
        <time>2017-10-27T09:53:56.447Z</time>
      </trkpt>
      <trkpt lat="43.60059" lon="3.87963">
        <ele>24.2</ele>
        <time>2017-10-27T09:53:57.432Z</time>
      </trkpt>
      <trkpt lat="43.60059" lon="3.87963">
        <ele>24.2</ele>
        <time>2017-10-27T09:54:06.298Z</time>
      </trkpt>
      <trkpt lat="43.60057" lon="3.87957">
        <ele>24.5</ele>
        <time>2017-10-27T09:54:15.447Z</time>
      </trkpt>
      <trkpt lat="43.60056" lon="3.87955">
        <ele>24.5</ele>
        <time>2017-10-27T09:54:16.449Z</time>
      </trkpt>
      <trkpt lat="43.60054" lon="3.87952">
        <ele>24.5</ele>
        <time>2017-10-27T09:54:17.434Z</time>
      </trkpt>
      <trkpt lat="43.60053" lon="3.87949">
        <ele>24.4</ele>
        <time>2017-10-27T09:54:18.447Z</time>
      </trkpt>
      <trkpt lat="43.60052" lon="3.87945">
        <ele>23.7</ele>
        <time>2017-10-27T09:54:19.448Z</time>
      </trkpt>
      <trkpt lat="43.6005" lon="3.87942">
        <ele>23.2</ele>
        <time>2017-10-27T09:54:20.433Z</time>
      </trkpt>
      <trkpt lat="43.60048" lon="3.87939">
        <ele>22.5</ele>
        <time>2017-10-27T09:54:21.432Z</time>
      </trkpt>
      <trkpt lat="43.60044" lon="3.87937">
        <ele>22.4</ele>
        <time>2017-10-27T09:54:22.431Z</time>
      </trkpt>
      <trkpt lat="43.6004" lon="3.87936">
        <ele>22.1</ele>
        <time>2017-10-27T09:54:23.433Z</time>
      </trkpt>
      <trkpt lat="43.60037" lon="3.87936">
        <ele>22.1</ele>
        <time>2017-10-27T09:54:24.449Z</time>
      </trkpt>
      <trkpt lat="43.60033" lon="3.87935">
        <ele>22.3</ele>
        <time>2017-10-27T09:54:25.436Z</time>
      </trkpt>
      <trkpt lat="43.60029" lon="3.87934">
        <ele>21.4</ele>
        <time>2017-10-27T09:54:26.453Z</time>
      </trkpt>
      <trkpt lat="43.60025" lon="3.87932">
        <ele>22.3</ele>
        <time>2017-10-27T09:54:27.464Z</time>
      </trkpt>
      <trkpt lat="43.60021" lon="3.87931">
        <ele>22.4</ele>
        <time>2017-10-27T09:54:28.462Z</time>
      </trkpt>
      <trkpt lat="43.60017" lon="3.8793">
        <ele>22.7</ele>
        <time>2017-10-27T09:54:29.464Z</time>
      </trkpt>
      <trkpt lat="43.60014" lon="3.87929">
        <ele>22.7</ele>
        <time>2017-10-27T09:54:30.446Z</time>
      </trkpt>
      <trkpt lat="43.6001" lon="3.87928">
        <ele>22.9</ele>
        <time>2017-10-27T09:54:31.444Z</time>
      </trkpt>
      <trkpt lat="43.60006" lon="3.87927">
        <ele>23.1</ele>
        <time>2017-10-27T09:54:32.431Z</time>
      </trkpt>
      <trkpt lat="43.60002" lon="3.87926">
        <ele>23.1</ele>
        <time>2017-10-27T09:54:33.439Z</time>
      </trkpt>
      <trkpt lat="43.59999" lon="3.87925">
        <ele>23.1</ele>
        <time>2017-10-27T09:54:34.449Z</time>
      </trkpt>
      <trkpt lat="43.59995" lon="3.87924">
        <ele>23.2</ele>
        <time>2017-10-27T09:54:35.444Z</time>
      </trkpt>
      <trkpt lat="43.59992" lon="3.87923">
        <ele>23.3</ele>
        <time>2017-10-27T09:54:36.446Z</time>
      </trkpt>
      <trkpt lat="43.59988" lon="3.87923">
        <ele>23.4</ele>
        <time>2017-10-27T09:54:37.444Z</time>
      </trkpt>
      <trkpt lat="43.59985" lon="3.87922">
        <ele>23.5</ele>
        <time>2017-10-27T09:54:38.433Z</time>
      </trkpt>
      <trkpt lat="43.59982" lon="3.87921">
        <ele>23.5</ele>
        <time>2017-10-27T09:54:39.432Z</time>
      </trkpt>
      <trkpt lat="43.59978" lon="3.8792">
        <ele>23.6</ele>
        <time>2017-10-27T09:54:40.430Z</time>
      </trkpt>
      <trkpt lat="43.59975" lon="3.8792">
        <ele>23.6</ele>
        <time>2017-10-27T09:54:41.432Z</time>
      </trkpt>
      <trkpt lat="43.59972" lon="3.87919">
        <ele>23.5</ele>
        <time>2017-10-27T09:54:42.478Z</time>
      </trkpt>
      <trkpt lat="43.59969" lon="3.87918">
        <ele>23.4</ele>
        <time>2017-10-27T09:54:43.445Z</time>
      </trkpt>
      <trkpt lat="43.59965" lon="3.87918">
        <ele>23.7</ele>
        <time>2017-10-27T09:54:44.452Z</time>
      </trkpt>
      <trkpt lat="43.59962" lon="3.87917">
        <ele>23.7</ele>
        <time>2017-10-27T09:54:45.450Z</time>
      </trkpt>
      <trkpt lat="43.59959" lon="3.87916">
        <ele>24.3</ele>
        <time>2017-10-27T09:54:46.446Z</time>
      </trkpt>
      <trkpt lat="43.59956" lon="3.87915">
        <ele>24.3</ele>
        <time>2017-10-27T09:54:47.446Z</time>
      </trkpt>
      <trkpt lat="43.59952" lon="3.87915">
        <ele>24.3</ele>
        <time>2017-10-27T09:54:48.445Z</time>
      </trkpt>
      <trkpt lat="43.59949" lon="3.87914">
        <ele>24.2</ele>
        <time>2017-10-27T09:54:49.445Z</time>
      </trkpt>
      <trkpt lat="43.59946" lon="3.87913">
        <ele>24.4</ele>
        <time>2017-10-27T09:54:50.446Z</time>
      </trkpt>
      <trkpt lat="43.59943" lon="3.87912">
        <ele>24.1</ele>
        <time>2017-10-27T09:54:51.446Z</time>
      </trkpt>
      <trkpt lat="43.5994" lon="3.87911">
        <ele>24.1</ele>
        <time>2017-10-27T09:54:52.449Z</time>
      </trkpt>
      <trkpt lat="43.59936" lon="3.8791">
        <ele>24.2</ele>
        <time>2017-10-27T09:54:53.449Z</time>
      </trkpt>
      <trkpt lat="43.59933" lon="3.87908">
        <ele>24.3</ele>
        <time>2017-10-27T09:54:54.448Z</time>
      </trkpt>
      <trkpt lat="43.5993" lon="3.87907">
        <ele>24.3</ele>
        <time>2017-10-27T09:54:55.447Z</time>
      </trkpt>
      <trkpt lat="43.59926" lon="3.87906">
        <ele>24.4</ele>
        <time>2017-10-27T09:54:56.446Z</time>
      </trkpt>
      <trkpt lat="43.59923" lon="3.87905">
        <ele>24.5</ele>
        <time>2017-10-27T09:54:57.437Z</time>
      </trkpt>
      <trkpt lat="43.5992" lon="3.87903">
        <ele>24.6</ele>
        <time>2017-10-27T09:54:58.447Z</time>
      </trkpt>
      <trkpt lat="43.59917" lon="3.87902">
        <ele>24.8</ele>
        <time>2017-10-27T09:54:59.448Z</time>
      </trkpt>
      <trkpt lat="43.59914" lon="3.87901">
        <ele>25.2</ele>
        <time>2017-10-27T09:55:00.449Z</time>
      </trkpt>
      <trkpt lat="43.59911" lon="3.87899">
        <ele>25.4</ele>
        <time>2017-10-27T09:55:01.449Z</time>
      </trkpt>
      <trkpt lat="43.59908" lon="3.87898">
        <ele>25.6</ele>
        <time>2017-10-27T09:55:02.454Z</time>
      </trkpt>
      <trkpt lat="43.59905" lon="3.87897">
        <ele>25.7</ele>
        <time>2017-10-27T09:55:03.451Z</time>
      </trkpt>
      <trkpt lat="43.59902" lon="3.87896">
        <ele>25.8</ele>
        <time>2017-10-27T09:55:04.432Z</time>
      </trkpt>
      <trkpt lat="43.59898" lon="3.87895">
        <ele>25.9</ele>
        <time>2017-10-27T09:55:05.432Z</time>
      </trkpt>
      <trkpt lat="43.59895" lon="3.87893">
        <ele>26</ele>
        <time>2017-10-27T09:55:06.433Z</time>
      </trkpt>
      <trkpt lat="43.59892" lon="3.87892">
        <ele>26.2</ele>
        <time>2017-10-27T09:55:07.433Z</time>
      </trkpt>
      <trkpt lat="43.59889" lon="3.87891">
        <ele>26.4</ele>
        <time>2017-10-27T09:55:08.446Z</time>
      </trkpt>
      <trkpt lat="43.59886" lon="3.87889">
        <ele>26.7</ele>
        <time>2017-10-27T09:55:09.445Z</time>
      </trkpt>
      <trkpt lat="43.59883" lon="3.87888">
        <ele>26.6</ele>
        <time>2017-10-27T09:55:10.445Z</time>
      </trkpt>
      <trkpt lat="43.5988" lon="3.87887">
        <ele>26.8</ele>
        <time>2017-10-27T09:55:11.446Z</time>
      </trkpt>
      <trkpt lat="43.59877" lon="3.87886">
        <ele>26.4</ele>
        <time>2017-10-27T09:55:12.447Z</time>
      </trkpt>
      <trkpt lat="43.59874" lon="3.87885">
        <ele>26.4</ele>
        <time>2017-10-27T09:55:13.445Z</time>
      </trkpt>
      <trkpt lat="43.5987" lon="3.87884">
        <ele>26.6</ele>
        <time>2017-10-27T09:55:14.445Z</time>
      </trkpt>
      <trkpt lat="43.59867" lon="3.87883">
        <ele>26.6</ele>
        <time>2017-10-27T09:55:15.445Z</time>
      </trkpt>
      <trkpt lat="43.59864" lon="3.87881">
        <ele>26.6</ele>
        <time>2017-10-27T09:55:16.445Z</time>
      </trkpt>
      <trkpt lat="43.59861" lon="3.8788">
        <ele>26.6</ele>
        <time>2017-10-27T09:55:17.454Z</time>
      </trkpt>
      <trkpt lat="43.59858" lon="3.87879">
        <ele>26.7</ele>
        <time>2017-10-27T09:55:18.447Z</time>
      </trkpt>
      <trkpt lat="43.59855" lon="3.87878">
        <ele>26.8</ele>
        <time>2017-10-27T09:55:19.438Z</time>
      </trkpt>
      <trkpt lat="43.59852" lon="3.87876">
        <ele>27</ele>
        <time>2017-10-27T09:55:20.431Z</time>
      </trkpt>
      <trkpt lat="43.59849" lon="3.87875">
        <ele>27.1</ele>
        <time>2017-10-27T09:55:21.432Z</time>
      </trkpt>
      <trkpt lat="43.59846" lon="3.87874">
        <ele>27.2</ele>
        <time>2017-10-27T09:55:22.438Z</time>
      </trkpt>
      <trkpt lat="43.59842" lon="3.87872">
        <ele>27.3</ele>
        <time>2017-10-27T09:55:23.445Z</time>
      </trkpt>
      <trkpt lat="43.59839" lon="3.87871">
        <ele>27.3</ele>
        <time>2017-10-27T09:55:24.446Z</time>
      </trkpt>
      <trkpt lat="43.59836" lon="3.87869">
        <ele>27.3</ele>
        <time>2017-10-27T09:55:25.445Z</time>
      </trkpt>
      <trkpt lat="43.59833" lon="3.87868">
        <ele>27.5</ele>
        <time>2017-10-27T09:55:26.445Z</time>
      </trkpt>
      <trkpt lat="43.5983" lon="3.87866">
        <ele>27.5</ele>
        <time>2017-10-27T09:55:27.446Z</time>
      </trkpt>
      <trkpt lat="43.59827" lon="3.87864">
        <ele>27.5</ele>
        <time>2017-10-27T09:55:28.431Z</time>
      </trkpt>
      <trkpt lat="43.59824" lon="3.87862">
        <ele>27.6</ele>
        <time>2017-10-27T09:55:29.432Z</time>
      </trkpt>
      <trkpt lat="43.59821" lon="3.8786">
        <ele>27.6</ele>
        <time>2017-10-27T09:55:30.433Z</time>
      </trkpt>
      <trkpt lat="43.59817" lon="3.87858">
        <ele>27.6</ele>
        <time>2017-10-27T09:55:31.437Z</time>
      </trkpt>
      <trkpt lat="43.59814" lon="3.87856">
        <ele>28</ele>
        <time>2017-10-27T09:55:32.452Z</time>
      </trkpt>
      <trkpt lat="43.59811" lon="3.87854">
        <ele>28</ele>
        <time>2017-10-27T09:55:33.450Z</time>
      </trkpt>
      <trkpt lat="43.59807" lon="3.87852">
        <ele>28.1</ele>
        <time>2017-10-27T09:55:34.445Z</time>
      </trkpt>
      <trkpt lat="43.59804" lon="3.8785">
        <ele>28.2</ele>
        <time>2017-10-27T09:55:35.445Z</time>
      </trkpt>
      <trkpt lat="43.59801" lon="3.87848">
        <ele>28.3</ele>
        <time>2017-10-27T09:55:36.445Z</time>
      </trkpt>
      <trkpt lat="43.59797" lon="3.87846">
        <ele>28.2</ele>
        <time>2017-10-27T09:55:37.447Z</time>
      </trkpt>
      <trkpt lat="43.59794" lon="3.87844">
        <ele>28.2</ele>
        <time>2017-10-27T09:55:38.456Z</time>
      </trkpt>
      <trkpt lat="43.59791" lon="3.87842">
        <ele>28.1</ele>
        <time>2017-10-27T09:55:39.446Z</time>
      </trkpt>
      <trkpt lat="43.59788" lon="3.87839">
        <ele>28.1</ele>
        <time>2017-10-27T09:55:40.444Z</time>
      </trkpt>
      <trkpt lat="43.59785" lon="3.87837">
        <ele>28.2</ele>
        <time>2017-10-27T09:55:41.445Z</time>
      </trkpt>
      <trkpt lat="43.59781" lon="3.87835">
        <ele>28.2</ele>
        <time>2017-10-27T09:55:42.446Z</time>
      </trkpt>
      <trkpt lat="43.59778" lon="3.87833">
        <ele>28.4</ele>
        <time>2017-10-27T09:55:43.445Z</time>
      </trkpt>
      <trkpt lat="43.59774" lon="3.8783">
        <ele>28.6</ele>
        <time>2017-10-27T09:55:44.445Z</time>
      </trkpt>
      <trkpt lat="43.59771" lon="3.87828">
        <ele>28.7</ele>
        <time>2017-10-27T09:55:45.445Z</time>
      </trkpt>
      <trkpt lat="43.59767" lon="3.87826">
        <ele>28.8</ele>
        <time>2017-10-27T09:55:46.444Z</time>
      </trkpt>
      <trkpt lat="43.59764" lon="3.87824">
        <ele>28.7</ele>
        <time>2017-10-27T09:55:47.432Z</time>
      </trkpt>
      <trkpt lat="43.59761" lon="3.87822">
        <ele>28.7</ele>
        <time>2017-10-27T09:55:48.434Z</time>
      </trkpt>
      <trkpt lat="43.59758" lon="3.8782">
        <ele>28.6</ele>
        <time>2017-10-27T09:55:49.432Z</time>
      </trkpt>
      <trkpt lat="43.59755" lon="3.87818">
        <ele>28.4</ele>
        <time>2017-10-27T09:55:50.431Z</time>
      </trkpt>
      <trkpt lat="43.59752" lon="3.87815">
        <ele>28.1</ele>
        <time>2017-10-27T09:55:51.447Z</time>
      </trkpt>
      <trkpt lat="43.59748" lon="3.87814">
        <ele>28.1</ele>
        <time>2017-10-27T09:55:52.444Z</time>
      </trkpt>
      <trkpt lat="43.59745" lon="3.87811">
        <ele>27.9</ele>
        <time>2017-10-27T09:55:53.445Z</time>
      </trkpt>
      <trkpt lat="43.59742" lon="3.87809">
        <ele>27.8</ele>
        <time>2017-10-27T09:55:54.448Z</time>
      </trkpt>
      <trkpt lat="43.59739" lon="3.87807">
        <ele>28</ele>
        <time>2017-10-27T09:55:55.443Z</time>
      </trkpt>
      <trkpt lat="43.59736" lon="3.87805">
        <ele>28.2</ele>
        <time>2017-10-27T09:55:56.445Z</time>
      </trkpt>
      <trkpt lat="43.59733" lon="3.87803">
        <ele>28.3</ele>
        <time>2017-10-27T09:55:57.432Z</time>
      </trkpt>
      <trkpt lat="43.5973" lon="3.87801">
        <ele>28.2</ele>
        <time>2017-10-27T09:55:58.444Z</time>
      </trkpt>
      <trkpt lat="43.59727" lon="3.87799">
        <ele>27.9</ele>
        <time>2017-10-27T09:55:59.456Z</time>
      </trkpt>
      <trkpt lat="43.59724" lon="3.87797">
        <ele>27.9</ele>
        <time>2017-10-27T09:56:00.448Z</time>
      </trkpt>
      <trkpt lat="43.59721" lon="3.87795">
        <ele>27.8</ele>
        <time>2017-10-27T09:56:01.445Z</time>
      </trkpt>
      <trkpt lat="43.59718" lon="3.87793">
        <ele>27.9</ele>
        <time>2017-10-27T09:56:02.445Z</time>
      </trkpt>
      <trkpt lat="43.59715" lon="3.87791">
        <ele>27.8</ele>
        <time>2017-10-27T09:56:03.435Z</time>
      </trkpt>
      <trkpt lat="43.59713" lon="3.8779">
        <ele>27.9</ele>
        <time>2017-10-27T09:56:04.444Z</time>
      </trkpt>
      <trkpt lat="43.59711" lon="3.87789">
        <ele>27.8</ele>
        <time>2017-10-27T09:56:05.434Z</time>
      </trkpt>
      <trkpt lat="43.5971" lon="3.87789">
        <ele>27.8</ele>
        <time>2017-10-27T09:56:06.432Z</time>
      </trkpt>
      <trkpt lat="43.59708" lon="3.87787">
        <ele>28.4</ele>
        <time>2017-10-27T09:56:08.445Z</time>
      </trkpt>
      <trkpt lat="43.59707" lon="3.87785">
        <ele>28.5</ele>
        <time>2017-10-27T09:56:09.457Z</time>
      </trkpt>
      <trkpt lat="43.59707" lon="3.87782">
        <ele>28.6</ele>
        <time>2017-10-27T09:56:10.445Z</time>
      </trkpt>
      <trkpt lat="43.59707" lon="3.87779">
        <ele>28.8</ele>
        <time>2017-10-27T09:56:11.448Z</time>
      </trkpt>
      <trkpt lat="43.59706" lon="3.87776">
        <ele>29</ele>
        <time>2017-10-27T09:56:12.446Z</time>
      </trkpt>
      <trkpt lat="43.59706" lon="3.87773">
        <ele>29.1</ele>
        <time>2017-10-27T09:56:13.440Z</time>
      </trkpt>
      <trkpt lat="43.59705" lon="3.8777">
        <ele>29.5</ele>
        <time>2017-10-27T09:56:14.446Z</time>
      </trkpt>
      <trkpt lat="43.59705" lon="3.87768">
        <ele>29.8</ele>
        <time>2017-10-27T09:56:15.444Z</time>
      </trkpt>
      <trkpt lat="43.59706" lon="3.87766">
        <ele>30</ele>
        <time>2017-10-27T09:56:16.444Z</time>
      </trkpt>
      <trkpt lat="43.59706" lon="3.87766">
        <ele>30</ele>
        <time>2017-10-27T09:56:30.495Z</time>
      </trkpt>
      <trkpt lat="43.59703" lon="3.87762">
        <ele>30.7</ele>
        <time>2017-10-27T09:56:37.454Z</time>
      </trkpt>
      <trkpt lat="43.59701" lon="3.87762">
        <ele>30.7</ele>
        <time>2017-10-27T09:56:38.446Z</time>
      </trkpt>
      <trkpt lat="43.59698" lon="3.87761">
        <ele>30.6</ele>
        <time>2017-10-27T09:56:39.446Z</time>
      </trkpt>
      <trkpt lat="43.59695" lon="3.8776">
        <ele>30.5</ele>
        <time>2017-10-27T09:56:40.449Z</time>
      </trkpt>
      <trkpt lat="43.59692" lon="3.8776">
        <ele>30.4</ele>
        <time>2017-10-27T09:56:41.445Z</time>
      </trkpt>
      <trkpt lat="43.59689" lon="3.8776">
        <ele>30.3</ele>
        <time>2017-10-27T09:56:42.451Z</time>
      </trkpt>
      <trkpt lat="43.59685" lon="3.8776">
        <ele>30.1</ele>
        <time>2017-10-27T09:56:43.447Z</time>
      </trkpt>
      <trkpt lat="43.59682" lon="3.8776">
        <ele>30</ele>
        <time>2017-10-27T09:56:44.445Z</time>
      </trkpt>
      <trkpt lat="43.59678" lon="3.8776">
        <ele>29.7</ele>
        <time>2017-10-27T09:56:45.432Z</time>
      </trkpt>
      <trkpt lat="43.59675" lon="3.8776">
        <ele>29.4</ele>
        <time>2017-10-27T09:56:46.434Z</time>
      </trkpt>
      <trkpt lat="43.59671" lon="3.87759">
        <ele>29.2</ele>
        <time>2017-10-27T09:56:47.432Z</time>
      </trkpt>
      <trkpt lat="43.59667" lon="3.87759">
        <ele>28.8</ele>
        <time>2017-10-27T09:56:48.438Z</time>
      </trkpt>
      <trkpt lat="43.59663" lon="3.87759">
        <ele>29.4</ele>
        <time>2017-10-27T09:56:49.447Z</time>
      </trkpt>
      <trkpt lat="43.59659" lon="3.87759">
        <ele>29.3</ele>
        <time>2017-10-27T09:56:50.449Z</time>
      </trkpt>
      <trkpt lat="43.59655" lon="3.87759">
        <ele>29.2</ele>
        <time>2017-10-27T09:56:51.451Z</time>
      </trkpt>
      <trkpt lat="43.59651" lon="3.87759">
        <ele>29.1</ele>
        <time>2017-10-27T09:56:52.445Z</time>
      </trkpt>
      <trkpt lat="43.59647" lon="3.87758">
        <ele>29</ele>
        <time>2017-10-27T09:56:53.445Z</time>
      </trkpt>
      <trkpt lat="43.59643" lon="3.87758">
        <ele>28.7</ele>
        <time>2017-10-27T09:56:54.446Z</time>
      </trkpt>
      <trkpt lat="43.59639" lon="3.87757">
        <ele>28.5</ele>
        <time>2017-10-27T09:56:55.446Z</time>
      </trkpt>
      <trkpt lat="43.59635" lon="3.87757">
        <ele>28.3</ele>
        <time>2017-10-27T09:56:56.444Z</time>
      </trkpt>
      <trkpt lat="43.59631" lon="3.87756">
        <ele>28.1</ele>
        <time>2017-10-27T09:56:57.447Z</time>
      </trkpt>
      <trkpt lat="43.59627" lon="3.87754">
        <ele>27.8</ele>
        <time>2017-10-27T09:56:58.451Z</time>
      </trkpt>
      <trkpt lat="43.59625" lon="3.8775">
        <ele>27.6</ele>
        <time>2017-10-27T09:56:59.445Z</time>
      </trkpt>
      <trkpt lat="43.59624" lon="3.87746">
        <ele>27.5</ele>
        <time>2017-10-27T09:57:00.448Z</time>
      </trkpt>
      <trkpt lat="43.59625" lon="3.87742">
        <ele>27.4</ele>
        <time>2017-10-27T09:57:01.448Z</time>
      </trkpt>
      <trkpt lat="43.59627" lon="3.87738">
        <ele>27.6</ele>
        <time>2017-10-27T09:57:02.431Z</time>
      </trkpt>
      <trkpt lat="43.59628" lon="3.87734">
        <ele>27.9</ele>
        <time>2017-10-27T09:57:03.432Z</time>
      </trkpt>
      <trkpt lat="43.59629" lon="3.8773">
        <ele>27.9</ele>
        <time>2017-10-27T09:57:04.431Z</time>
      </trkpt>
      <trkpt lat="43.59631" lon="3.87727">
        <ele>27.9</ele>
        <time>2017-10-27T09:57:05.451Z</time>
      </trkpt>
      <trkpt lat="43.59632" lon="3.87723">
        <ele>27.9</ele>
        <time>2017-10-27T09:57:06.446Z</time>
      </trkpt>
      <trkpt lat="43.59634" lon="3.8772">
        <ele>27.9</ele>
        <time>2017-10-27T09:57:07.445Z</time>
      </trkpt>
      <trkpt lat="43.59636" lon="3.87717">
        <ele>27.9</ele>
        <time>2017-10-27T09:57:08.442Z</time>
      </trkpt>
      <trkpt lat="43.59637" lon="3.87714">
        <ele>27.9</ele>
        <time>2017-10-27T09:57:09.432Z</time>
      </trkpt>
      <trkpt lat="43.59639" lon="3.87711">
        <ele>27.9</ele>
        <time>2017-10-27T09:57:10.445Z</time>
      </trkpt>
      <trkpt lat="43.5964" lon="3.87709">
        <ele>27.9</ele>
        <time>2017-10-27T09:57:11.446Z</time>
      </trkpt>
      <trkpt lat="43.59641" lon="3.87706">
        <ele>27.9</ele>
        <time>2017-10-27T09:57:12.445Z</time>
      </trkpt>
      <trkpt lat="43.59643" lon="3.87704">
        <ele>27.9</ele>
        <time>2017-10-27T09:57:13.446Z</time>
      </trkpt>
      <trkpt lat="43.59644" lon="3.87702">
        <ele>27.9</ele>
        <time>2017-10-27T09:57:14.445Z</time>
      </trkpt>
      <trkpt lat="43.59646" lon="3.87699">
        <ele>27.8</ele>
        <time>2017-10-27T09:57:15.456Z</time>
      </trkpt>
      <trkpt lat="43.59647" lon="3.87696">
        <ele>27.7</ele>
        <time>2017-10-27T09:57:16.445Z</time>
      </trkpt>
      <trkpt lat="43.59649" lon="3.87693">
        <ele>27.5</ele>
        <time>2017-10-27T09:57:17.445Z</time>
      </trkpt>
      <trkpt lat="43.59651" lon="3.87689">
        <ele>27.3</ele>
        <time>2017-10-27T09:57:18.455Z</time>
      </trkpt>
      <trkpt lat="43.59653" lon="3.87685">
        <ele>27.2</ele>
        <time>2017-10-27T09:57:19.441Z</time>
      </trkpt>
      <trkpt lat="43.59656" lon="3.87682">
        <ele>26.9</ele>
        <time>2017-10-27T09:57:20.432Z</time>
      </trkpt>
      <trkpt lat="43.59659" lon="3.87678">
        <ele>26.6</ele>
        <time>2017-10-27T09:57:21.432Z</time>
      </trkpt>
      <trkpt lat="43.59662" lon="3.87674">
        <ele>26.3</ele>
        <time>2017-10-27T09:57:22.431Z</time>
      </trkpt>
      <trkpt lat="43.59665" lon="3.8767">
        <ele>26</ele>
        <time>2017-10-27T09:57:23.432Z</time>
      </trkpt>
      <trkpt lat="43.59668" lon="3.87666">
        <ele>25.7</ele>
        <time>2017-10-27T09:57:24.448Z</time>
      </trkpt>
      <trkpt lat="43.59672" lon="3.87661">
        <ele>25.3</ele>
        <time>2017-10-27T09:57:25.445Z</time>
      </trkpt>
      <trkpt lat="43.59676" lon="3.87657">
        <ele>25</ele>
        <time>2017-10-27T09:57:26.446Z</time>
      </trkpt>
      <trkpt lat="43.5968" lon="3.87652">
        <ele>24.8</ele>
        <time>2017-10-27T09:57:27.444Z</time>
      </trkpt>
      <trkpt lat="43.59683" lon="3.87648">
        <ele>24.6</ele>
        <time>2017-10-27T09:57:28.445Z</time>
      </trkpt>
      <trkpt lat="43.59687" lon="3.87644">
        <ele>24.4</ele>
        <time>2017-10-27T09:57:29.446Z</time>
      </trkpt>
      <trkpt lat="43.5969" lon="3.8764">
        <ele>24.2</ele>
        <time>2017-10-27T09:57:30.432Z</time>
      </trkpt>
      <trkpt lat="43.59693" lon="3.87637">
        <ele>24.1</ele>
        <time>2017-10-27T09:57:31.447Z</time>
      </trkpt>
      <trkpt lat="43.59695" lon="3.87635">
        <ele>24.1</ele>
        <time>2017-10-27T09:57:32.446Z</time>
      </trkpt>
      <trkpt lat="43.59695" lon="3.87633">
        <ele>24.2</ele>
        <time>2017-10-27T09:57:33.446Z</time>
      </trkpt>
      <trkpt lat="43.59695" lon="3.87631">
        <ele>24.2</ele>
        <time>2017-10-27T09:57:34.449Z</time>
      </trkpt>
      <trkpt lat="43.59694" lon="3.87629">
        <ele>24.2</ele>
        <time>2017-10-27T09:57:35.451Z</time>
      </trkpt>
      <trkpt lat="43.59693" lon="3.87627">
        <ele>23.9</ele>
        <time>2017-10-27T09:57:36.449Z</time>
      </trkpt>
      <trkpt lat="43.59691" lon="3.87626">
        <ele>24.1</ele>
        <time>2017-10-27T09:57:37.451Z</time>
      </trkpt>
      <trkpt lat="43.5969" lon="3.87624">
        <ele>23.9</ele>
        <time>2017-10-27T09:57:38.445Z</time>
      </trkpt>
      <trkpt lat="43.59688" lon="3.87622">
        <ele>23.9</ele>
        <time>2017-10-27T09:57:39.448Z</time>
      </trkpt>
      <trkpt lat="43.59687" lon="3.8762">
        <ele>23.8</ele>
        <time>2017-10-27T09:57:40.445Z</time>
      </trkpt>
      <trkpt lat="43.59685" lon="3.87619">
        <ele>23.7</ele>
        <time>2017-10-27T09:57:41.449Z</time>
      </trkpt>
      <trkpt lat="43.59684" lon="3.87618">
        <ele>23.6</ele>
        <time>2017-10-27T09:57:42.446Z</time>
      </trkpt>
      <trkpt lat="43.59681" lon="3.87618">
        <ele>23.5</ele>
        <time>2017-10-27T09:57:44.431Z</time>
      </trkpt>
      <trkpt lat="43.59679" lon="3.87617">
        <ele>23.4</ele>
        <time>2017-10-27T09:57:46.445Z</time>
      </trkpt>
      <trkpt lat="43.59675" lon="3.87609">
        <ele>22.8</ele>
        <time>2017-10-27T09:57:56.438Z</time>
      </trkpt>
      <trkpt lat="43.59675" lon="3.87605">
        <ele>22.7</ele>
        <time>2017-10-27T09:57:58.431Z</time>
      </trkpt>
      <trkpt lat="43.59674" lon="3.87601">
        <ele>22.7</ele>
        <time>2017-10-27T09:57:59.432Z</time>
      </trkpt>
      <trkpt lat="43.59674" lon="3.87598">
        <ele>22.6</ele>
        <time>2017-10-27T09:58:00.433Z</time>
      </trkpt>
      <trkpt lat="43.59672" lon="3.87594">
        <ele>22.4</ele>
        <time>2017-10-27T09:58:01.443Z</time>
      </trkpt>
      <trkpt lat="43.5967" lon="3.87591">
        <ele>22.2</ele>
        <time>2017-10-27T09:58:02.441Z</time>
      </trkpt>
      <trkpt lat="43.59667" lon="3.87588">
        <ele>22.2</ele>
        <time>2017-10-27T09:58:03.459Z</time>
      </trkpt>
      <trkpt lat="43.59664" lon="3.87584">
        <ele>22</ele>
        <time>2017-10-27T09:58:04.461Z</time>
      </trkpt>
      <trkpt lat="43.59662" lon="3.87581">
        <ele>22</ele>
        <time>2017-10-27T09:58:05.464Z</time>
      </trkpt>
      <trkpt lat="43.5966" lon="3.87577">
        <ele>21.9</ele>
        <time>2017-10-27T09:58:06.449Z</time>
      </trkpt>
      <trkpt lat="43.59659" lon="3.87572">
        <ele>21.6</ele>
        <time>2017-10-27T09:58:07.446Z</time>
      </trkpt>
      <trkpt lat="43.59659" lon="3.87568">
        <ele>21.9</ele>
        <time>2017-10-27T09:58:08.445Z</time>
      </trkpt>
      <trkpt lat="43.59659" lon="3.87563">
        <ele>22</ele>
        <time>2017-10-27T09:58:09.447Z</time>
      </trkpt>
      <trkpt lat="43.59659" lon="3.87559">
        <ele>21.9</ele>
        <time>2017-10-27T09:58:10.447Z</time>
      </trkpt>
      <trkpt lat="43.5966" lon="3.87554">
        <ele>21.6</ele>
        <time>2017-10-27T09:58:11.449Z</time>
      </trkpt>
      <trkpt lat="43.5966" lon="3.87549">
        <ele>20.9</ele>
        <time>2017-10-27T09:58:12.446Z</time>
      </trkpt>
      <trkpt lat="43.59662" lon="3.87545">
        <ele>20.9</ele>
        <time>2017-10-27T09:58:13.446Z</time>
      </trkpt>
      <trkpt lat="43.59664" lon="3.87542">
        <ele>20.8</ele>
        <time>2017-10-27T09:58:14.445Z</time>
      </trkpt>
      <trkpt lat="43.59666" lon="3.87538">
        <ele>20.9</ele>
        <time>2017-10-27T09:58:15.445Z</time>
      </trkpt>
      <trkpt lat="43.59669" lon="3.87534">
        <ele>21.1</ele>
        <time>2017-10-27T09:58:16.444Z</time>
      </trkpt>
      <trkpt lat="43.59671" lon="3.8753">
        <ele>21.2</ele>
        <time>2017-10-27T09:58:17.452Z</time>
      </trkpt>
      <trkpt lat="43.59673" lon="3.87527">
        <ele>21.4</ele>
        <time>2017-10-27T09:58:18.446Z</time>
      </trkpt>
      <trkpt lat="43.59676" lon="3.87523">
        <ele>21.9</ele>
        <time>2017-10-27T09:58:19.436Z</time>
      </trkpt>
      <trkpt lat="43.59678" lon="3.8752">
        <ele>21.7</ele>
        <time>2017-10-27T09:58:20.432Z</time>
      </trkpt>
      <trkpt lat="43.5968" lon="3.87516">
        <ele>21.7</ele>
        <time>2017-10-27T09:58:21.432Z</time>
      </trkpt>
      <trkpt lat="43.59682" lon="3.87512">
        <ele>21.7</ele>
        <time>2017-10-27T09:58:22.459Z</time>
      </trkpt>
      <trkpt lat="43.59683" lon="3.87508">
        <ele>21.7</ele>
        <time>2017-10-27T09:58:23.449Z</time>
      </trkpt>
      <trkpt lat="43.59684" lon="3.87504">
        <ele>21.7</ele>
        <time>2017-10-27T09:58:24.452Z</time>
      </trkpt>
      <trkpt lat="43.59686" lon="3.875">
        <ele>21.7</ele>
        <time>2017-10-27T09:58:25.445Z</time>
      </trkpt>
      <trkpt lat="43.59687" lon="3.87496">
        <ele>21.8</ele>
        <time>2017-10-27T09:58:26.444Z</time>
      </trkpt>
      <trkpt lat="43.59688" lon="3.87492">
        <ele>21.8</ele>
        <time>2017-10-27T09:58:27.444Z</time>
      </trkpt>
      <trkpt lat="43.59688" lon="3.87488">
        <ele>21.9</ele>
        <time>2017-10-27T09:58:28.444Z</time>
      </trkpt>
      <trkpt lat="43.59688" lon="3.87483">
        <ele>22.3</ele>
        <time>2017-10-27T09:58:29.445Z</time>
      </trkpt>
      <trkpt lat="43.59688" lon="3.87479">
        <ele>22.6</ele>
        <time>2017-10-27T09:58:30.446Z</time>
      </trkpt>
      <trkpt lat="43.59689" lon="3.87474">
        <ele>22.5</ele>
        <time>2017-10-27T09:58:31.444Z</time>
      </trkpt>
      <trkpt lat="43.59689" lon="3.8747">
        <ele>22.6</ele>
        <time>2017-10-27T09:58:32.445Z</time>
      </trkpt>
      <trkpt lat="43.59689" lon="3.87465">
        <ele>22.6</ele>
        <time>2017-10-27T09:58:33.445Z</time>
      </trkpt>
      <trkpt lat="43.59689" lon="3.87461">
        <ele>22.6</ele>
        <time>2017-10-27T09:58:34.453Z</time>
      </trkpt>
      <trkpt lat="43.59688" lon="3.87456">
        <ele>22.7</ele>
        <time>2017-10-27T09:58:35.445Z</time>
      </trkpt>
      <trkpt lat="43.59688" lon="3.87451">
        <ele>22.7</ele>
        <time>2017-10-27T09:58:36.433Z</time>
      </trkpt>
      <trkpt lat="43.59687" lon="3.87446">
        <ele>22.6</ele>
        <time>2017-10-27T09:58:37.432Z</time>
      </trkpt>
      <trkpt lat="43.59686" lon="3.87441">
        <ele>22.5</ele>
        <time>2017-10-27T09:58:38.433Z</time>
      </trkpt>
      <trkpt lat="43.59684" lon="3.87437">
        <ele>22.8</ele>
        <time>2017-10-27T09:58:39.444Z</time>
      </trkpt>
      <trkpt lat="43.59682" lon="3.87432">
        <ele>22.7</ele>
        <time>2017-10-27T09:58:40.452Z</time>
      </trkpt>
      <trkpt lat="43.59679" lon="3.87427">
        <ele>22.6</ele>
        <time>2017-10-27T09:58:41.450Z</time>
      </trkpt>
      <trkpt lat="43.59677" lon="3.87423">
        <ele>22.4</ele>
        <time>2017-10-27T09:58:42.447Z</time>
      </trkpt>
      <trkpt lat="43.59674" lon="3.87419">
        <ele>22.3</ele>
        <time>2017-10-27T09:58:43.454Z</time>
      </trkpt>
      <trkpt lat="43.59671" lon="3.87414">
        <ele>22.1</ele>
        <time>2017-10-27T09:58:44.446Z</time>
      </trkpt>
      <trkpt lat="43.59668" lon="3.8741">
        <ele>22</ele>
        <time>2017-10-27T09:58:45.448Z</time>
      </trkpt>
      <trkpt lat="43.59665" lon="3.87406">
        <ele>21.9</ele>
        <time>2017-10-27T09:58:46.444Z</time>
      </trkpt>
      <trkpt lat="43.59662" lon="3.87401">
        <ele>21.8</ele>
        <time>2017-10-27T09:58:47.444Z</time>
      </trkpt>
      <trkpt lat="43.59659" lon="3.87396">
        <ele>21.7</ele>
        <time>2017-10-27T09:58:48.446Z</time>
      </trkpt>
      <trkpt lat="43.59656" lon="3.87392">
        <ele>21.6</ele>
        <time>2017-10-27T09:58:49.441Z</time>
      </trkpt>
      <trkpt lat="43.59653" lon="3.87387">
        <ele>21.6</ele>
        <time>2017-10-27T09:58:50.442Z</time>
      </trkpt>
      <trkpt lat="43.59651" lon="3.87382">
        <ele>21.6</ele>
        <time>2017-10-27T09:58:51.446Z</time>
      </trkpt>
      <trkpt lat="43.59648" lon="3.87378">
        <ele>21.6</ele>
        <time>2017-10-27T09:58:52.446Z</time>
      </trkpt>
      <trkpt lat="43.59646" lon="3.87374">
        <ele>21.6</ele>
        <time>2017-10-27T09:58:53.448Z</time>
      </trkpt>
      <trkpt lat="43.59643" lon="3.8737">
        <ele>21.6</ele>
        <time>2017-10-27T09:58:54.440Z</time>
      </trkpt>
      <trkpt lat="43.59641" lon="3.87366">
        <ele>21.6</ele>
        <time>2017-10-27T09:58:55.432Z</time>
      </trkpt>
      <trkpt lat="43.59638" lon="3.87364">
        <ele>21.6</ele>
        <time>2017-10-27T09:58:56.434Z</time>
      </trkpt>
      <trkpt lat="43.59636" lon="3.87361">
        <ele>21.7</ele>
        <time>2017-10-27T09:58:57.433Z</time>
      </trkpt>
      <trkpt lat="43.59635" lon="3.87358">
        <ele>21.8</ele>
        <time>2017-10-27T09:58:58.470Z</time>
      </trkpt>
      <trkpt lat="43.59635" lon="3.87356">
        <ele>22</ele>
        <time>2017-10-27T09:58:59.445Z</time>
      </trkpt>
      <trkpt lat="43.59635" lon="3.87353">
        <ele>21.5</ele>
        <time>2017-10-27T09:59:01.447Z</time>
      </trkpt>
      <trkpt lat="43.59633" lon="3.87352">
        <ele>21.2</ele>
        <time>2017-10-27T09:59:03.447Z</time>
      </trkpt>
      <trkpt lat="43.5963" lon="3.87351">
        <ele>21.2</ele>
        <time>2017-10-27T09:59:05.445Z</time>
      </trkpt>
      <trkpt lat="43.59629" lon="3.8735">
        <ele>21.3</ele>
        <time>2017-10-27T09:59:06.441Z</time>
      </trkpt>
      <trkpt lat="43.59627" lon="3.87347">
        <ele>21.1</ele>
        <time>2017-10-27T09:59:08.450Z</time>
      </trkpt>
      <trkpt lat="43.59628" lon="3.87345">
        <ele>21.1</ele>
        <time>2017-10-27T09:59:09.446Z</time>
      </trkpt>
      <trkpt lat="43.5963" lon="3.87343">
        <ele>21.2</ele>
        <time>2017-10-27T09:59:10.446Z</time>
      </trkpt>
      <trkpt lat="43.59631" lon="3.8734">
        <ele>21.5</ele>
        <time>2017-10-27T09:59:11.446Z</time>
      </trkpt>
      <trkpt lat="43.59633" lon="3.87338">
        <ele>21.5</ele>
        <time>2017-10-27T09:59:12.448Z</time>
      </trkpt>
      <trkpt lat="43.59635" lon="3.87335">
        <ele>21.6</ele>
        <time>2017-10-27T09:59:13.445Z</time>
      </trkpt>
      <trkpt lat="43.59637" lon="3.87333">
        <ele>21.6</ele>
        <time>2017-10-27T09:59:14.446Z</time>
      </trkpt>
      <trkpt lat="43.59639" lon="3.8733">
        <ele>21.7</ele>
        <time>2017-10-27T09:59:15.445Z</time>
      </trkpt>
      <trkpt lat="43.59641" lon="3.87328">
        <ele>21.8</ele>
        <time>2017-10-27T09:59:16.450Z</time>
      </trkpt>
      <trkpt lat="43.59643" lon="3.87326">
        <ele>21.9</ele>
        <time>2017-10-27T09:59:17.446Z</time>
      </trkpt>
      <trkpt lat="43.59645" lon="3.87323">
        <ele>22</ele>
        <time>2017-10-27T09:59:18.446Z</time>
      </trkpt>
      <trkpt lat="43.59647" lon="3.87321">
        <ele>22.1</ele>
        <time>2017-10-27T09:59:19.432Z</time>
      </trkpt>
      <trkpt lat="43.59649" lon="3.87319">
        <ele>22.2</ele>
        <time>2017-10-27T09:59:20.431Z</time>
      </trkpt>
      <trkpt lat="43.59651" lon="3.87317">
        <ele>22.3</ele>
        <time>2017-10-27T09:59:21.438Z</time>
      </trkpt>
      <trkpt lat="43.59653" lon="3.87314">
        <ele>22.4</ele>
        <time>2017-10-27T09:59:22.452Z</time>
      </trkpt>
      <trkpt lat="43.59656" lon="3.87313">
        <ele>22.5</ele>
        <time>2017-10-27T09:59:23.447Z</time>
      </trkpt>
      <trkpt lat="43.59658" lon="3.87311">
        <ele>22.6</ele>
        <time>2017-10-27T09:59:24.454Z</time>
      </trkpt>
      <trkpt lat="43.59661" lon="3.87309">
        <ele>22.7</ele>
        <time>2017-10-27T09:59:25.432Z</time>
      </trkpt>
      <trkpt lat="43.59664" lon="3.87307">
        <ele>22.8</ele>
        <time>2017-10-27T09:59:26.444Z</time>
      </trkpt>
      <trkpt lat="43.59666" lon="3.87305">
        <ele>23.1</ele>
        <time>2017-10-27T09:59:27.445Z</time>
      </trkpt>
      <trkpt lat="43.59669" lon="3.87303">
        <ele>23.3</ele>
        <time>2017-10-27T09:59:28.452Z</time>
      </trkpt>
      <trkpt lat="43.59671" lon="3.873">
        <ele>23.5</ele>
        <time>2017-10-27T09:59:29.432Z</time>
      </trkpt>
      <trkpt lat="43.59673" lon="3.87297">
        <ele>23.7</ele>
        <time>2017-10-27T09:59:30.445Z</time>
      </trkpt>
      <trkpt lat="43.59675" lon="3.87294">
        <ele>23.8</ele>
        <time>2017-10-27T09:59:31.444Z</time>
      </trkpt>
      <trkpt lat="43.59677" lon="3.87291">
        <ele>24</ele>
        <time>2017-10-27T09:59:32.445Z</time>
      </trkpt>
      <trkpt lat="43.59678" lon="3.87288">
        <ele>24.2</ele>
        <time>2017-10-27T09:59:33.445Z</time>
      </trkpt>
      <trkpt lat="43.5968" lon="3.87285">
        <ele>24.3</ele>
        <time>2017-10-27T09:59:34.434Z</time>
      </trkpt>
      <trkpt lat="43.59682" lon="3.87283">
        <ele>24.3</ele>
        <time>2017-10-27T09:59:35.433Z</time>
      </trkpt>
      <trkpt lat="43.59685" lon="3.8728">
        <ele>24.4</ele>
        <time>2017-10-27T09:59:36.445Z</time>
      </trkpt>
      <trkpt lat="43.59687" lon="3.87277">
        <ele>24.5</ele>
        <time>2017-10-27T09:59:37.436Z</time>
      </trkpt>
      <trkpt lat="43.59688" lon="3.87274">
        <ele>24.6</ele>
        <time>2017-10-27T09:59:38.440Z</time>
      </trkpt>
      <trkpt lat="43.5969" lon="3.87272">
        <ele>24.7</ele>
        <time>2017-10-27T09:59:39.446Z</time>
      </trkpt>
      <trkpt lat="43.59692" lon="3.87269">
        <ele>24.8</ele>
        <time>2017-10-27T09:59:40.448Z</time>
      </trkpt>
      <trkpt lat="43.59694" lon="3.87266">
        <ele>24.9</ele>
        <time>2017-10-27T09:59:41.455Z</time>
      </trkpt>
      <trkpt lat="43.59696" lon="3.87264">
        <ele>25.1</ele>
        <time>2017-10-27T09:59:42.446Z</time>
      </trkpt>
      <trkpt lat="43.59698" lon="3.87261">
        <ele>25.2</ele>
        <time>2017-10-27T09:59:43.454Z</time>
      </trkpt>
      <trkpt lat="43.59699" lon="3.87258">
        <ele>25.4</ele>
        <time>2017-10-27T09:59:44.445Z</time>
      </trkpt>
      <trkpt lat="43.59701" lon="3.87255">
        <ele>25.5</ele>
        <time>2017-10-27T09:59:45.446Z</time>
      </trkpt>
      <trkpt lat="43.59703" lon="3.87252">
        <ele>25.6</ele>
        <time>2017-10-27T09:59:46.445Z</time>
      </trkpt>
      <trkpt lat="43.59704" lon="3.87249">
        <ele>25.6</ele>
        <time>2017-10-27T09:59:47.451Z</time>
      </trkpt>
      <trkpt lat="43.59706" lon="3.87246">
        <ele>25.7</ele>
        <time>2017-10-27T09:59:48.444Z</time>
      </trkpt>
      <trkpt lat="43.59708" lon="3.87243">
        <ele>25.9</ele>
        <time>2017-10-27T09:59:49.446Z</time>
      </trkpt>
      <trkpt lat="43.5971" lon="3.8724">
        <ele>25.9</ele>
        <time>2017-10-27T09:59:50.444Z</time>
      </trkpt>
      <trkpt lat="43.59711" lon="3.87237">
        <ele>26</ele>
        <time>2017-10-27T09:59:51.446Z</time>
      </trkpt>
      <trkpt lat="43.59713" lon="3.87235">
        <ele>26</ele>
        <time>2017-10-27T09:59:52.447Z</time>
      </trkpt>
      <trkpt lat="43.59715" lon="3.87233">
        <ele>26.2</ele>
        <time>2017-10-27T09:59:53.449Z</time>
      </trkpt>
      <trkpt lat="43.59717" lon="3.87232">
        <ele>26.3</ele>
        <time>2017-10-27T09:59:54.445Z</time>
      </trkpt>
      <trkpt lat="43.59719" lon="3.8723">
        <ele>26.4</ele>
        <time>2017-10-27T09:59:55.434Z</time>
      </trkpt>
      <trkpt lat="43.5972" lon="3.87227">
        <ele>26.5</ele>
        <time>2017-10-27T09:59:56.450Z</time>
      </trkpt>
      <trkpt lat="43.59722" lon="3.87225">
        <ele>26.5</ele>
        <time>2017-10-27T09:59:57.432Z</time>
      </trkpt>
      <trkpt lat="43.59723" lon="3.87223">
        <ele>26.5</ele>
        <time>2017-10-27T09:59:58.431Z</time>
      </trkpt>
      <trkpt lat="43.59724" lon="3.87221">
        <ele>26.5</ele>
        <time>2017-10-27T09:59:59.434Z</time>
      </trkpt>
      <trkpt lat="43.59726" lon="3.87219">
        <ele>26.6</ele>
        <time>2017-10-27T10:00:00.447Z</time>
      </trkpt>
      <trkpt lat="43.59727" lon="3.87218">
        <ele>26.7</ele>
        <time>2017-10-27T10:00:01.448Z</time>
      </trkpt>
      <trkpt lat="43.59728" lon="3.87216">
        <ele>26.8</ele>
        <time>2017-10-27T10:00:02.445Z</time>
      </trkpt>
      <trkpt lat="43.59729" lon="3.87215">
        <ele>26.9</ele>
        <time>2017-10-27T10:00:03.453Z</time>
      </trkpt>
      <trkpt lat="43.5973" lon="3.87213">
        <ele>26.9</ele>
        <time>2017-10-27T10:00:04.445Z</time>
      </trkpt>
      <trkpt lat="43.59731" lon="3.87212">
        <ele>27</ele>
        <time>2017-10-27T10:00:05.454Z</time>
      </trkpt>
      <trkpt lat="43.59732" lon="3.8721">
        <ele>27</ele>
        <time>2017-10-27T10:00:06.442Z</time>
      </trkpt>
      <trkpt lat="43.59733" lon="3.87209">
        <ele>27.2</ele>
        <time>2017-10-27T10:00:07.443Z</time>
      </trkpt>
      <trkpt lat="43.59734" lon="3.87207">
        <ele>27.3</ele>
        <time>2017-10-27T10:00:08.461Z</time>
      </trkpt>
      <trkpt lat="43.59736" lon="3.87205">
        <ele>27.3</ele>
        <time>2017-10-27T10:00:10.462Z</time>
      </trkpt>
      <trkpt lat="43.59737" lon="3.87203">
        <ele>27.2</ele>
        <time>2017-10-27T10:00:11.464Z</time>
      </trkpt>
      <trkpt lat="43.59738" lon="3.87202">
        <ele>27.2</ele>
        <time>2017-10-27T10:00:12.455Z</time>
      </trkpt>
      <trkpt lat="43.59739" lon="3.87201">
        <ele>27.4</ele>
        <time>2017-10-27T10:00:13.469Z</time>
      </trkpt>
      <trkpt lat="43.59741" lon="3.87198">
        <ele>27.5</ele>
        <time>2017-10-27T10:00:15.448Z</time>
      </trkpt>
      <trkpt lat="43.59742" lon="3.87196">
        <ele>27.6</ele>
        <time>2017-10-27T10:00:17.452Z</time>
      </trkpt>
      <trkpt lat="43.59744" lon="3.87193">
        <ele>27.7</ele>
        <time>2017-10-27T10:00:19.445Z</time>
      </trkpt>
      <trkpt lat="43.59746" lon="3.8719">
        <ele>27.8</ele>
        <time>2017-10-27T10:00:21.446Z</time>
      </trkpt>
      <trkpt lat="43.59747" lon="3.87188">
        <ele>27.8</ele>
        <time>2017-10-27T10:00:22.453Z</time>
      </trkpt>
      <trkpt lat="43.59748" lon="3.87186">
        <ele>27.8</ele>
        <time>2017-10-27T10:00:23.445Z</time>
      </trkpt>
      <trkpt lat="43.59749" lon="3.87183">
        <ele>28</ele>
        <time>2017-10-27T10:00:24.448Z</time>
      </trkpt>
      <trkpt lat="43.59751" lon="3.87181">
        <ele>28</ele>
        <time>2017-10-27T10:00:25.445Z</time>
      </trkpt>
      <trkpt lat="43.59753" lon="3.87179">
        <ele>28</ele>
        <time>2017-10-27T10:00:26.445Z</time>
      </trkpt>
      <trkpt lat="43.59755" lon="3.87178">
        <ele>28</ele>
        <time>2017-10-27T10:00:27.432Z</time>
      </trkpt>
      <trkpt lat="43.59757" lon="3.87176">
        <ele>28</ele>
        <time>2017-10-27T10:00:28.432Z</time>
      </trkpt>
      <trkpt lat="43.59758" lon="3.87174">
        <ele>28</ele>
        <time>2017-10-27T10:00:29.435Z</time>
      </trkpt>
      <trkpt lat="43.5976" lon="3.87171">
        <ele>27.9</ele>
        <time>2017-10-27T10:00:30.445Z</time>
      </trkpt>
      <trkpt lat="43.59762" lon="3.87169">
        <ele>27.9</ele>
        <time>2017-10-27T10:00:31.450Z</time>
      </trkpt>
      <trkpt lat="43.59764" lon="3.87166">
        <ele>27.9</ele>
        <time>2017-10-27T10:00:32.432Z</time>
      </trkpt>
      <trkpt lat="43.59765" lon="3.87164">
        <ele>27.9</ele>
        <time>2017-10-27T10:00:33.432Z</time>
      </trkpt>
      <trkpt lat="43.59767" lon="3.87161">
        <ele>28</ele>
        <time>2017-10-27T10:00:34.431Z</time>
      </trkpt>
      <trkpt lat="43.59769" lon="3.87159">
        <ele>28</ele>
        <time>2017-10-27T10:00:35.432Z</time>
      </trkpt>
      <trkpt lat="43.59771" lon="3.87156">
        <ele>28.1</ele>
        <time>2017-10-27T10:00:36.432Z</time>
      </trkpt>
      <trkpt lat="43.59773" lon="3.87154">
        <ele>28.1</ele>
        <time>2017-10-27T10:00:37.433Z</time>
      </trkpt>
      <trkpt lat="43.59774" lon="3.87151">
        <ele>28.2</ele>
        <time>2017-10-27T10:00:38.433Z</time>
      </trkpt>
      <trkpt lat="43.59776" lon="3.87149">
        <ele>28.3</ele>
        <time>2017-10-27T10:00:39.446Z</time>
      </trkpt>
      <trkpt lat="43.59777" lon="3.87146">
        <ele>28.3</ele>
        <time>2017-10-27T10:00:40.444Z</time>
      </trkpt>
      <trkpt lat="43.59779" lon="3.87144">
        <ele>28.4</ele>
        <time>2017-10-27T10:00:41.451Z</time>
      </trkpt>
      <trkpt lat="43.5978" lon="3.87142">
        <ele>28.4</ele>
        <time>2017-10-27T10:00:42.446Z</time>
      </trkpt>
      <trkpt lat="43.59782" lon="3.8714">
        <ele>28.4</ele>
        <time>2017-10-27T10:00:43.455Z</time>
      </trkpt>
      <trkpt lat="43.59783" lon="3.87138">
        <ele>28.4</ele>
        <time>2017-10-27T10:00:44.445Z</time>
      </trkpt>
      <trkpt lat="43.59784" lon="3.87136">
        <ele>28.3</ele>
        <time>2017-10-27T10:00:45.447Z</time>
      </trkpt>
      <trkpt lat="43.59786" lon="3.87134">
        <ele>28.3</ele>
        <time>2017-10-27T10:00:46.444Z</time>
      </trkpt>
      <trkpt lat="43.59787" lon="3.87132">
        <ele>28.4</ele>
        <time>2017-10-27T10:00:47.432Z</time>
      </trkpt>
      <trkpt lat="43.59788" lon="3.87131">
        <ele>28.3</ele>
        <time>2017-10-27T10:00:48.432Z</time>
      </trkpt>
      <trkpt lat="43.59791" lon="3.87127">
        <ele>28.2</ele>
        <time>2017-10-27T10:00:52.446Z</time>
      </trkpt>
      <trkpt lat="43.59794" lon="3.87127">
        <ele>27.9</ele>
        <time>2017-10-27T10:00:54.449Z</time>
      </trkpt>
      <trkpt lat="43.59796" lon="3.87127">
        <ele>27.8</ele>
        <time>2017-10-27T10:00:56.431Z</time>
      </trkpt>
      <trkpt lat="43.59796" lon="3.87127">
        <ele>27.8</ele>
        <time>2017-10-27T10:01:14.173Z</time>
      </trkpt>
      <trkpt lat="43.59799" lon="3.87124">
        <ele>27.6</ele>
        <time>2017-10-27T10:01:22.444Z</time>
      </trkpt>
      <trkpt lat="43.598" lon="3.87121">
        <ele>27.6</ele>
        <time>2017-10-27T10:01:23.448Z</time>
      </trkpt>
      <trkpt lat="43.598" lon="3.87118">
        <ele>27.5</ele>
        <time>2017-10-27T10:01:24.456Z</time>
      </trkpt>
      <trkpt lat="43.59801" lon="3.87114">
        <ele>27.3</ele>
        <time>2017-10-27T10:01:25.447Z</time>
      </trkpt>
      <trkpt lat="43.59801" lon="3.8711">
        <ele>27.3</ele>
        <time>2017-10-27T10:01:26.451Z</time>
      </trkpt>
      <trkpt lat="43.59802" lon="3.87106">
        <ele>27.3</ele>
        <time>2017-10-27T10:01:27.447Z</time>
      </trkpt>
      <trkpt lat="43.59804" lon="3.87102">
        <ele>27.4</ele>
        <time>2017-10-27T10:01:28.447Z</time>
      </trkpt>
      <trkpt lat="43.59806" lon="3.87099">
        <ele>27.3</ele>
        <time>2017-10-27T10:01:29.445Z</time>
      </trkpt>
      <trkpt lat="43.59808" lon="3.87096">
        <ele>27.4</ele>
        <time>2017-10-27T10:01:30.449Z</time>
      </trkpt>
      <trkpt lat="43.5981" lon="3.87093">
        <ele>27.4</ele>
        <time>2017-10-27T10:01:31.445Z</time>
      </trkpt>
      <trkpt lat="43.59812" lon="3.87091">
        <ele>27.4</ele>
        <time>2017-10-27T10:01:32.445Z</time>
      </trkpt>
      <trkpt lat="43.59814" lon="3.87088">
        <ele>27.4</ele>
        <time>2017-10-27T10:01:33.432Z</time>
      </trkpt>
      <trkpt lat="43.59816" lon="3.87086">
        <ele>27.5</ele>
        <time>2017-10-27T10:01:34.432Z</time>
      </trkpt>
      <trkpt lat="43.59818" lon="3.87083">
        <ele>27.5</ele>
        <time>2017-10-27T10:01:35.432Z</time>
      </trkpt>
      <trkpt lat="43.5982" lon="3.8708">
        <ele>27.7</ele>
        <time>2017-10-27T10:01:36.433Z</time>
      </trkpt>
      <trkpt lat="43.59822" lon="3.87078">
        <ele>27.7</ele>
        <time>2017-10-27T10:01:37.457Z</time>
      </trkpt>
      <trkpt lat="43.59824" lon="3.87075">
        <ele>27.8</ele>
        <time>2017-10-27T10:01:38.447Z</time>
      </trkpt>
      <trkpt lat="43.59826" lon="3.87072">
        <ele>27.8</ele>
        <time>2017-10-27T10:01:39.446Z</time>
      </trkpt>
      <trkpt lat="43.59828" lon="3.87069">
        <ele>27.9</ele>
        <time>2017-10-27T10:01:40.444Z</time>
      </trkpt>
      <trkpt lat="43.59829" lon="3.87067">
        <ele>27.9</ele>
        <time>2017-10-27T10:01:41.445Z</time>
      </trkpt>
      <trkpt lat="43.59831" lon="3.87064">
        <ele>28</ele>
        <time>2017-10-27T10:01:42.446Z</time>
      </trkpt>
      <trkpt lat="43.59833" lon="3.87061">
        <ele>28</ele>
        <time>2017-10-27T10:01:43.446Z</time>
      </trkpt>
      <trkpt lat="43.59835" lon="3.87059">
        <ele>28.1</ele>
        <time>2017-10-27T10:01:44.447Z</time>
      </trkpt>
      <trkpt lat="43.59837" lon="3.87056">
        <ele>28.1</ele>
        <time>2017-10-27T10:01:45.437Z</time>
      </trkpt>
      <trkpt lat="43.59839" lon="3.87054">
        <ele>28.1</ele>
        <time>2017-10-27T10:01:46.444Z</time>
      </trkpt>
      <trkpt lat="43.59841" lon="3.87051">
        <ele>28.2</ele>
        <time>2017-10-27T10:01:47.445Z</time>
      </trkpt>
      <trkpt lat="43.59843" lon="3.87049">
        <ele>28.3</ele>
        <time>2017-10-27T10:01:48.441Z</time>
      </trkpt>
      <trkpt lat="43.59845" lon="3.87046">
        <ele>28.3</ele>
        <time>2017-10-27T10:01:49.445Z</time>
      </trkpt>
      <trkpt lat="43.59847" lon="3.87043">
        <ele>28.4</ele>
        <time>2017-10-27T10:01:50.444Z</time>
      </trkpt>
      <trkpt lat="43.59849" lon="3.87041">
        <ele>28.4</ele>
        <time>2017-10-27T10:01:51.445Z</time>
      </trkpt>
      <trkpt lat="43.59851" lon="3.87038">
        <ele>28.5</ele>
        <time>2017-10-27T10:01:52.448Z</time>
      </trkpt>
      <trkpt lat="43.59853" lon="3.87035">
        <ele>28.5</ele>
        <time>2017-10-27T10:01:53.445Z</time>
      </trkpt>
      <trkpt lat="43.59855" lon="3.87032">
        <ele>28.5</ele>
        <time>2017-10-27T10:01:54.434Z</time>
      </trkpt>
      <trkpt lat="43.59857" lon="3.8703">
        <ele>28.6</ele>
        <time>2017-10-27T10:01:55.432Z</time>
      </trkpt>
      <trkpt lat="43.59859" lon="3.87027">
        <ele>28.6</ele>
        <time>2017-10-27T10:01:56.431Z</time>
      </trkpt>
      <trkpt lat="43.59861" lon="3.87024">
        <ele>28.6</ele>
        <time>2017-10-27T10:01:57.432Z</time>
      </trkpt>
      <trkpt lat="43.59863" lon="3.87022">
        <ele>28.7</ele>
        <time>2017-10-27T10:01:58.431Z</time>
      </trkpt>
      <trkpt lat="43.59865" lon="3.87019">
        <ele>28.7</ele>
        <time>2017-10-27T10:01:59.445Z</time>
      </trkpt>
      <trkpt lat="43.59867" lon="3.87016">
        <ele>28.8</ele>
        <time>2017-10-27T10:02:00.446Z</time>
      </trkpt>
      <trkpt lat="43.59869" lon="3.87014">
        <ele>28.8</ele>
        <time>2017-10-27T10:02:01.447Z</time>
      </trkpt>
      <trkpt lat="43.59871" lon="3.87011">
        <ele>28.9</ele>
        <time>2017-10-27T10:02:02.454Z</time>
      </trkpt>
      <trkpt lat="43.59873" lon="3.87008">
        <ele>29</ele>
        <time>2017-10-27T10:02:03.450Z</time>
      </trkpt>
      <trkpt lat="43.59875" lon="3.87006">
        <ele>29</ele>
        <time>2017-10-27T10:02:04.444Z</time>
      </trkpt>
      <trkpt lat="43.59877" lon="3.87003">
        <ele>29.1</ele>
        <time>2017-10-27T10:02:05.444Z</time>
      </trkpt>
      <trkpt lat="43.59879" lon="3.87">
        <ele>29.1</ele>
        <time>2017-10-27T10:02:06.454Z</time>
      </trkpt>
      <trkpt lat="43.5988" lon="3.86997">
        <ele>29.2</ele>
        <time>2017-10-27T10:02:07.445Z</time>
      </trkpt>
      <trkpt lat="43.59882" lon="3.86995">
        <ele>29.2</ele>
        <time>2017-10-27T10:02:08.450Z</time>
      </trkpt>
      <trkpt lat="43.59884" lon="3.86992">
        <ele>29.2</ele>
        <time>2017-10-27T10:02:09.445Z</time>
      </trkpt>
      <trkpt lat="43.59886" lon="3.8699">
        <ele>29.2</ele>
        <time>2017-10-27T10:02:10.444Z</time>
      </trkpt>
      <trkpt lat="43.59888" lon="3.86987">
        <ele>29.3</ele>
        <time>2017-10-27T10:02:11.446Z</time>
      </trkpt>
      <trkpt lat="43.5989" lon="3.86984">
        <ele>29.3</ele>
        <time>2017-10-27T10:02:12.433Z</time>
      </trkpt>
      <trkpt lat="43.59892" lon="3.86981">
        <ele>29.4</ele>
        <time>2017-10-27T10:02:13.432Z</time>
      </trkpt>
      <trkpt lat="43.59893" lon="3.86979">
        <ele>29.4</ele>
        <time>2017-10-27T10:02:14.432Z</time>
      </trkpt>
      <trkpt lat="43.59895" lon="3.86976">
        <ele>29.4</ele>
        <time>2017-10-27T10:02:15.434Z</time>
      </trkpt>
      <trkpt lat="43.59897" lon="3.86973">
        <ele>29.5</ele>
        <time>2017-10-27T10:02:16.431Z</time>
      </trkpt>
      <trkpt lat="43.59899" lon="3.8697">
        <ele>29.5</ele>
        <time>2017-10-27T10:02:17.446Z</time>
      </trkpt>
      <trkpt lat="43.59901" lon="3.86967">
        <ele>29.5</ele>
        <time>2017-10-27T10:02:18.452Z</time>
      </trkpt>
      <trkpt lat="43.59903" lon="3.86964">
        <ele>29.5</ele>
        <time>2017-10-27T10:02:19.452Z</time>
      </trkpt>
      <trkpt lat="43.59906" lon="3.86961">
        <ele>29.5</ele>
        <time>2017-10-27T10:02:20.448Z</time>
      </trkpt>
      <trkpt lat="43.59908" lon="3.86958">
        <ele>29.5</ele>
        <time>2017-10-27T10:02:21.445Z</time>
      </trkpt>
      <trkpt lat="43.5991" lon="3.86955">
        <ele>29.5</ele>
        <time>2017-10-27T10:02:22.444Z</time>
      </trkpt>
      <trkpt lat="43.59912" lon="3.86952">
        <ele>29.6</ele>
        <time>2017-10-27T10:02:23.445Z</time>
      </trkpt>
      <trkpt lat="43.59914" lon="3.86949">
        <ele>29.7</ele>
        <time>2017-10-27T10:02:24.442Z</time>
      </trkpt>
      <trkpt lat="43.59916" lon="3.86945">
        <ele>29.7</ele>
        <time>2017-10-27T10:02:25.445Z</time>
      </trkpt>
      <trkpt lat="43.59919" lon="3.86942">
        <ele>29.7</ele>
        <time>2017-10-27T10:02:26.445Z</time>
      </trkpt>
      <trkpt lat="43.59921" lon="3.86939">
        <ele>29.8</ele>
        <time>2017-10-27T10:02:27.433Z</time>
      </trkpt>
      <trkpt lat="43.59923" lon="3.86936">
        <ele>29.8</ele>
        <time>2017-10-27T10:02:28.447Z</time>
      </trkpt>
      <trkpt lat="43.59925" lon="3.86933">
        <ele>29.8</ele>
        <time>2017-10-27T10:02:29.433Z</time>
      </trkpt>
      <trkpt lat="43.59928" lon="3.8693">
        <ele>29.9</ele>
        <time>2017-10-27T10:02:30.433Z</time>
      </trkpt>
      <trkpt lat="43.5993" lon="3.86927">
        <ele>29.9</ele>
        <time>2017-10-27T10:02:31.432Z</time>
      </trkpt>
      <trkpt lat="43.59932" lon="3.86924">
        <ele>29.9</ele>
        <time>2017-10-27T10:02:32.431Z</time>
      </trkpt>
      <trkpt lat="43.59934" lon="3.8692">
        <ele>29.9</ele>
        <time>2017-10-27T10:02:33.432Z</time>
      </trkpt>
      <trkpt lat="43.59937" lon="3.86917">
        <ele>30</ele>
        <time>2017-10-27T10:02:34.431Z</time>
      </trkpt>
      <trkpt lat="43.59939" lon="3.86914">
        <ele>30</ele>
        <time>2017-10-27T10:02:35.439Z</time>
      </trkpt>
      <trkpt lat="43.59941" lon="3.8691">
        <ele>30</ele>
        <time>2017-10-27T10:02:36.438Z</time>
      </trkpt>
      <trkpt lat="43.59944" lon="3.86907">
        <ele>30.1</ele>
        <time>2017-10-27T10:02:37.437Z</time>
      </trkpt>
      <trkpt lat="43.59946" lon="3.86903">
        <ele>30.1</ele>
        <time>2017-10-27T10:02:38.446Z</time>
      </trkpt>
      <trkpt lat="43.59948" lon="3.869">
        <ele>30.2</ele>
        <time>2017-10-27T10:02:39.432Z</time>
      </trkpt>
      <trkpt lat="43.5995" lon="3.86897">
        <ele>30.3</ele>
        <time>2017-10-27T10:02:40.458Z</time>
      </trkpt>
      <trkpt lat="43.59952" lon="3.86894">
        <ele>30.3</ele>
        <time>2017-10-27T10:02:41.446Z</time>
      </trkpt>
      <trkpt lat="43.59954" lon="3.8689">
        <ele>30.4</ele>
        <time>2017-10-27T10:02:42.449Z</time>
      </trkpt>
      <trkpt lat="43.59956" lon="3.86887">
        <ele>30.4</ele>
        <time>2017-10-27T10:02:43.450Z</time>
      </trkpt>
      <trkpt lat="43.59958" lon="3.86884">
        <ele>30.5</ele>
        <time>2017-10-27T10:02:44.445Z</time>
      </trkpt>
      <trkpt lat="43.5996" lon="3.86881">
        <ele>30.5</ele>
        <time>2017-10-27T10:02:45.449Z</time>
      </trkpt>
      <trkpt lat="43.59962" lon="3.86878">
        <ele>30.5</ele>
        <time>2017-10-27T10:02:46.445Z</time>
      </trkpt>
      <trkpt lat="43.59965" lon="3.86875">
        <ele>30.6</ele>
        <time>2017-10-27T10:02:47.456Z</time>
      </trkpt>
      <trkpt lat="43.59967" lon="3.86872">
        <ele>30.7</ele>
        <time>2017-10-27T10:02:48.447Z</time>
      </trkpt>
      <trkpt lat="43.59969" lon="3.86868">
        <ele>30.7</ele>
        <time>2017-10-27T10:02:49.448Z</time>
      </trkpt>
      <trkpt lat="43.59971" lon="3.86865">
        <ele>30.7</ele>
        <time>2017-10-27T10:02:50.445Z</time>
      </trkpt>
      <trkpt lat="43.59973" lon="3.86862">
        <ele>30.8</ele>
        <time>2017-10-27T10:02:51.446Z</time>
      </trkpt>
      <trkpt lat="43.59975" lon="3.86859">
        <ele>30.8</ele>
        <time>2017-10-27T10:02:52.444Z</time>
      </trkpt>
      <trkpt lat="43.59977" lon="3.86857">
        <ele>30.8</ele>
        <time>2017-10-27T10:02:53.445Z</time>
      </trkpt>
      <trkpt lat="43.59979" lon="3.86854">
        <ele>30.9</ele>
        <time>2017-10-27T10:02:54.446Z</time>
      </trkpt>
      <trkpt lat="43.59981" lon="3.86851">
        <ele>30.9</ele>
        <time>2017-10-27T10:02:55.447Z</time>
      </trkpt>
      <trkpt lat="43.59983" lon="3.86848">
        <ele>31</ele>
        <time>2017-10-27T10:02:56.449Z</time>
      </trkpt>
      <trkpt lat="43.59985" lon="3.86845">
        <ele>31</ele>
        <time>2017-10-27T10:02:57.437Z</time>
      </trkpt>
      <trkpt lat="43.59987" lon="3.86842">
        <ele>31.1</ele>
        <time>2017-10-27T10:02:58.433Z</time>
      </trkpt>
      <trkpt lat="43.59989" lon="3.86839">
        <ele>31.1</ele>
        <time>2017-10-27T10:02:59.434Z</time>
      </trkpt>
      <trkpt lat="43.59991" lon="3.86836">
        <ele>31.2</ele>
        <time>2017-10-27T10:03:00.432Z</time>
      </trkpt>
      <trkpt lat="43.59993" lon="3.86834">
        <ele>31.2</ele>
        <time>2017-10-27T10:03:01.438Z</time>
      </trkpt>
      <trkpt lat="43.59995" lon="3.86831">
        <ele>31.2</ele>
        <time>2017-10-27T10:03:02.450Z</time>
      </trkpt>
      <trkpt lat="43.59996" lon="3.86828">
        <ele>31.3</ele>
        <time>2017-10-27T10:03:03.448Z</time>
      </trkpt>
      <trkpt lat="43.59998" lon="3.86826">
        <ele>31.3</ele>
        <time>2017-10-27T10:03:04.444Z</time>
      </trkpt>
      <trkpt lat="43.6" lon="3.86823">
        <ele>31.3</ele>
        <time>2017-10-27T10:03:05.445Z</time>
      </trkpt>
      <trkpt lat="43.60001" lon="3.86821">
        <ele>31.4</ele>
        <time>2017-10-27T10:03:06.446Z</time>
      </trkpt>
      <trkpt lat="43.60003" lon="3.86819">
        <ele>31.4</ele>
        <time>2017-10-27T10:03:07.445Z</time>
      </trkpt>
      <trkpt lat="43.60005" lon="3.86817">
        <ele>31.5</ele>
        <time>2017-10-27T10:03:08.444Z</time>
      </trkpt>
      <trkpt lat="43.60007" lon="3.86815">
        <ele>31.5</ele>
        <time>2017-10-27T10:03:09.447Z</time>
      </trkpt>
      <trkpt lat="43.60009" lon="3.86813">
        <ele>31.6</ele>
        <time>2017-10-27T10:03:10.446Z</time>
      </trkpt>
      <trkpt lat="43.60011" lon="3.86811">
        <ele>31.6</ele>
        <time>2017-10-27T10:03:11.456Z</time>
      </trkpt>
      <trkpt lat="43.60013" lon="3.86808">
        <ele>31.7</ele>
        <time>2017-10-27T10:03:12.447Z</time>
      </trkpt>
      <trkpt lat="43.60015" lon="3.86806">
        <ele>31.7</ele>
        <time>2017-10-27T10:03:13.432Z</time>
      </trkpt>
      <trkpt lat="43.60016" lon="3.86803">
        <ele>31.7</ele>
        <time>2017-10-27T10:03:14.444Z</time>
      </trkpt>
      <trkpt lat="43.60018" lon="3.868">
        <ele>31.8</ele>
        <time>2017-10-27T10:03:15.439Z</time>
      </trkpt>
      <trkpt lat="43.6002" lon="3.86797">
        <ele>31.8</ele>
        <time>2017-10-27T10:03:16.431Z</time>
      </trkpt>
      <trkpt lat="43.60022" lon="3.86795">
        <ele>31.9</ele>
        <time>2017-10-27T10:03:17.432Z</time>
      </trkpt>
      <trkpt lat="43.60024" lon="3.86792">
        <ele>32</ele>
        <time>2017-10-27T10:03:18.436Z</time>
      </trkpt>
      <trkpt lat="43.60026" lon="3.86789">
        <ele>32.1</ele>
        <time>2017-10-27T10:03:19.442Z</time>
      </trkpt>
      <trkpt lat="43.60027" lon="3.86787">
        <ele>32.2</ele>
        <time>2017-10-27T10:03:20.455Z</time>
      </trkpt>
      <trkpt lat="43.60029" lon="3.86784">
        <ele>32.3</ele>
        <time>2017-10-27T10:03:21.473Z</time>
      </trkpt>
      <trkpt lat="43.6003" lon="3.86783">
        <ele>32.4</ele>
        <time>2017-10-27T10:03:22.456Z</time>
      </trkpt>
      <trkpt lat="43.60031" lon="3.86781">
        <ele>32.5</ele>
        <time>2017-10-27T10:03:23.445Z</time>
      </trkpt>
      <trkpt lat="43.60032" lon="3.86779">
        <ele>32.6</ele>
        <time>2017-10-27T10:03:24.447Z</time>
      </trkpt>
      <trkpt lat="43.60033" lon="3.86777">
        <ele>32.7</ele>
        <time>2017-10-27T10:03:25.446Z</time>
      </trkpt>
      <trkpt lat="43.60035" lon="3.86776">
        <ele>32.7</ele>
        <time>2017-10-27T10:03:26.447Z</time>
      </trkpt>
      <trkpt lat="43.60036" lon="3.86774">
        <ele>32.7</ele>
        <time>2017-10-27T10:03:27.449Z</time>
      </trkpt>
      <trkpt lat="43.60038" lon="3.86772">
        <ele>32.7</ele>
        <time>2017-10-27T10:03:28.448Z</time>
      </trkpt>
      <trkpt lat="43.6004" lon="3.8677">
        <ele>32.7</ele>
        <time>2017-10-27T10:03:29.446Z</time>
      </trkpt>
      <trkpt lat="43.60041" lon="3.86768">
        <ele>32.8</ele>
        <time>2017-10-27T10:03:30.446Z</time>
      </trkpt>
      <trkpt lat="43.60042" lon="3.86766">
        <ele>32.8</ele>
        <time>2017-10-27T10:03:31.445Z</time>
      </trkpt>
      <trkpt lat="43.60043" lon="3.86764">
        <ele>33.1</ele>
        <time>2017-10-27T10:03:32.444Z</time>
      </trkpt>
      <trkpt lat="43.60044" lon="3.86762">
        <ele>33.2</ele>
        <time>2017-10-27T10:03:33.445Z</time>
      </trkpt>
      <trkpt lat="43.60045" lon="3.86761">
        <ele>33.2</ele>
        <time>2017-10-27T10:03:34.446Z</time>
      </trkpt>
      <trkpt lat="43.60049" lon="3.86762">
        <ele>33.2</ele>
        <time>2017-10-27T10:03:41.448Z</time>
      </trkpt>
      <trkpt lat="43.6005" lon="3.86764">
        <ele>33</ele>
        <time>2017-10-27T10:03:42.435Z</time>
      </trkpt>
      <trkpt lat="43.60052" lon="3.86766">
        <ele>32.9</ele>
        <time>2017-10-27T10:03:43.433Z</time>
      </trkpt>
      <trkpt lat="43.60053" lon="3.86767">
        <ele>32.8</ele>
        <time>2017-10-27T10:03:44.437Z</time>
      </trkpt>
      <trkpt lat="43.60055" lon="3.86769">
        <ele>32.5</ele>
        <time>2017-10-27T10:03:45.450Z</time>
      </trkpt>
      <trkpt lat="43.60056" lon="3.86771">
        <ele>31.9</ele>
        <time>2017-10-27T10:03:46.453Z</time>
      </trkpt>
      <trkpt lat="43.60058" lon="3.86773">
        <ele>31.6</ele>
        <time>2017-10-27T10:03:47.455Z</time>
      </trkpt>
      <trkpt lat="43.60059" lon="3.86775">
        <ele>31.3</ele>
        <time>2017-10-27T10:03:48.447Z</time>
      </trkpt>
      <trkpt lat="43.6006" lon="3.86776">
        <ele>30.9</ele>
        <time>2017-10-27T10:03:49.429Z</time>
      </trkpt>
      <trkpt lat="43.60065" lon="3.86775">
        <ele>30.1</ele>
        <time>2017-10-27T10:03:56.445Z</time>
      </trkpt>
      <trkpt lat="43.60066" lon="3.86774">
        <ele>30.1</ele>
        <time>2017-10-27T10:03:57.443Z</time>
      </trkpt>
      <trkpt lat="43.60067" lon="3.86773">
        <ele>30.2</ele>
        <time>2017-10-27T10:03:58.446Z</time>
      </trkpt>
      <trkpt lat="43.60069" lon="3.86771">
        <ele>30.3</ele>
        <time>2017-10-27T10:03:59.452Z</time>
      </trkpt>
      <trkpt lat="43.60069" lon="3.86771">
        <ele>30.3</ele>
        <time>2017-10-27T10:04:06.916Z</time>
      </trkpt>
      <trkpt lat="43.60073" lon="3.86766">
        <ele>30.5</ele>
        <time>2017-10-27T10:04:19.445Z</time>
      </trkpt>
      <trkpt lat="43.60074" lon="3.86764">
        <ele>30.5</ele>
        <time>2017-10-27T10:04:20.445Z</time>
      </trkpt>
      <trkpt lat="43.60075" lon="3.86762">
        <ele>30.5</ele>
        <time>2017-10-27T10:04:21.439Z</time>
      </trkpt>
      <trkpt lat="43.60076" lon="3.8676">
        <ele>30.5</ele>
        <time>2017-10-27T10:04:22.444Z</time>
      </trkpt>
      <trkpt lat="43.60077" lon="3.86759">
        <ele>30.5</ele>
        <time>2017-10-27T10:04:23.449Z</time>
      </trkpt>
      <trkpt lat="43.60079" lon="3.86758">
        <ele>30.4</ele>
        <time>2017-10-27T10:04:24.446Z</time>
      </trkpt>
      <trkpt lat="43.6008" lon="3.86756">
        <ele>30.4</ele>
        <time>2017-10-27T10:04:25.448Z</time>
      </trkpt>
      <trkpt lat="43.6008" lon="3.86754">
        <ele>30.4</ele>
        <time>2017-10-27T10:04:26.431Z</time>
      </trkpt>
      <trkpt lat="43.60081" lon="3.86752">
        <ele>30.3</ele>
        <time>2017-10-27T10:04:27.434Z</time>
      </trkpt>
      <trkpt lat="43.60083" lon="3.8675">
        <ele>30.2</ele>
        <time>2017-10-27T10:04:29.447Z</time>
      </trkpt>
      <trkpt lat="43.60085" lon="3.86749">
        <ele>30.2</ele>
        <time>2017-10-27T10:04:30.437Z</time>
      </trkpt>
      <trkpt lat="43.60086" lon="3.86748">
        <ele>30.1</ele>
        <time>2017-10-27T10:04:31.446Z</time>
      </trkpt>
      <trkpt lat="43.60087" lon="3.86745">
        <ele>29.9</ele>
        <time>2017-10-27T10:04:32.458Z</time>
      </trkpt>
      <trkpt lat="43.60088" lon="3.86743">
        <ele>29.7</ele>
        <time>2017-10-27T10:04:33.446Z</time>
      </trkpt>
      <trkpt lat="43.6009" lon="3.86741">
        <ele>29.4</ele>
        <time>2017-10-27T10:04:34.449Z</time>
      </trkpt>
      <trkpt lat="43.60091" lon="3.86738">
        <ele>29.3</ele>
        <time>2017-10-27T10:04:35.445Z</time>
      </trkpt>
      <trkpt lat="43.60094" lon="3.86736">
        <ele>29.1</ele>
        <time>2017-10-27T10:04:36.448Z</time>
      </trkpt>
      <trkpt lat="43.60096" lon="3.86733">
        <ele>28.9</ele>
        <time>2017-10-27T10:04:37.444Z</time>
      </trkpt>
      <trkpt lat="43.60097" lon="3.86729">
        <ele>28.7</ele>
        <time>2017-10-27T10:04:38.449Z</time>
      </trkpt>
      <trkpt lat="43.60099" lon="3.86726">
        <ele>28.7</ele>
        <time>2017-10-27T10:04:39.449Z</time>
      </trkpt>
      <trkpt lat="43.601" lon="3.86721">
        <ele>28.8</ele>
        <time>2017-10-27T10:04:40.430Z</time>
      </trkpt>
      <trkpt lat="43.60101" lon="3.86716">
        <ele>28.8</ele>
        <time>2017-10-27T10:04:41.443Z</time>
      </trkpt>
      <trkpt lat="43.60101" lon="3.86712">
        <ele>28.6</ele>
        <time>2017-10-27T10:04:42.446Z</time>
      </trkpt>
      <trkpt lat="43.60102" lon="3.86708">
        <ele>28.5</ele>
        <time>2017-10-27T10:04:43.444Z</time>
      </trkpt>
      <trkpt lat="43.60102" lon="3.86704">
        <ele>28.4</ele>
        <time>2017-10-27T10:04:44.444Z</time>
      </trkpt>
      <trkpt lat="43.60103" lon="3.867">
        <ele>28.8</ele>
        <time>2017-10-27T10:04:45.443Z</time>
      </trkpt>
      <trkpt lat="43.60103" lon="3.86696">
        <ele>28.9</ele>
        <time>2017-10-27T10:04:46.432Z</time>
      </trkpt>
      <trkpt lat="43.60104" lon="3.86693">
        <ele>28.6</ele>
        <time>2017-10-27T10:04:47.431Z</time>
      </trkpt>
      <trkpt lat="43.60105" lon="3.86689">
        <ele>28.7</ele>
        <time>2017-10-27T10:04:48.432Z</time>
      </trkpt>
      <trkpt lat="43.60106" lon="3.86685">
        <ele>28</ele>
        <time>2017-10-27T10:04:49.433Z</time>
      </trkpt>
      <trkpt lat="43.60106" lon="3.86681">
        <ele>28.2</ele>
        <time>2017-10-27T10:04:50.439Z</time>
      </trkpt>
      <trkpt lat="43.60107" lon="3.86678">
        <ele>28.4</ele>
        <time>2017-10-27T10:04:51.431Z</time>
      </trkpt>
      <trkpt lat="43.60108" lon="3.86674">
        <ele>28.7</ele>
        <time>2017-10-27T10:04:52.446Z</time>
      </trkpt>
      <trkpt lat="43.60108" lon="3.8667">
        <ele>28.8</ele>
        <time>2017-10-27T10:04:53.447Z</time>
      </trkpt>
      <trkpt lat="43.60109" lon="3.86666">
        <ele>28.8</ele>
        <time>2017-10-27T10:04:54.450Z</time>
      </trkpt>
      <trkpt lat="43.60109" lon="3.86663">
        <ele>28.5</ele>
        <time>2017-10-27T10:04:55.451Z</time>
      </trkpt>
      <trkpt lat="43.60109" lon="3.86659">
        <ele>28.3</ele>
        <time>2017-10-27T10:04:56.438Z</time>
      </trkpt>
      <trkpt lat="43.6011" lon="3.86655">
        <ele>28.3</ele>
        <time>2017-10-27T10:04:57.431Z</time>
      </trkpt>
      <trkpt lat="43.6011" lon="3.86651">
        <ele>28.2</ele>
        <time>2017-10-27T10:04:58.447Z</time>
      </trkpt>
      <trkpt lat="43.6011" lon="3.86647">
        <ele>28.5</ele>
        <time>2017-10-27T10:04:59.453Z</time>
      </trkpt>
      <trkpt lat="43.6011" lon="3.86643">
        <ele>29.2</ele>
        <time>2017-10-27T10:05:00.444Z</time>
      </trkpt>
      <trkpt lat="43.60111" lon="3.86639">
        <ele>29.2</ele>
        <time>2017-10-27T10:05:01.443Z</time>
      </trkpt>
      <trkpt lat="43.60111" lon="3.86635">
        <ele>29.1</ele>
        <time>2017-10-27T10:05:02.445Z</time>
      </trkpt>
      <trkpt lat="43.60112" lon="3.86631">
        <ele>28.5</ele>
        <time>2017-10-27T10:05:03.444Z</time>
      </trkpt>
      <trkpt lat="43.60112" lon="3.86627">
        <ele>28.6</ele>
        <time>2017-10-27T10:05:04.436Z</time>
      </trkpt>
      <trkpt lat="43.60113" lon="3.86623">
        <ele>28.6</ele>
        <time>2017-10-27T10:05:05.453Z</time>
      </trkpt>
      <trkpt lat="43.60113" lon="3.86619">
        <ele>28.6</ele>
        <time>2017-10-27T10:05:06.446Z</time>
      </trkpt>
      <trkpt lat="43.60114" lon="3.86615">
        <ele>28.6</ele>
        <time>2017-10-27T10:05:07.444Z</time>
      </trkpt>
      <trkpt lat="43.60114" lon="3.8661">
        <ele>28.7</ele>
        <time>2017-10-27T10:05:08.442Z</time>
      </trkpt>
      <trkpt lat="43.60115" lon="3.86606">
        <ele>28.8</ele>
        <time>2017-10-27T10:05:09.439Z</time>
      </trkpt>
      <trkpt lat="43.60115" lon="3.86602">
        <ele>29</ele>
        <time>2017-10-27T10:05:10.430Z</time>
      </trkpt>
      <trkpt lat="43.60116" lon="3.86598">
        <ele>29.2</ele>
        <time>2017-10-27T10:05:11.436Z</time>
      </trkpt>
      <trkpt lat="43.60116" lon="3.86594">
        <ele>29.4</ele>
        <time>2017-10-27T10:05:12.449Z</time>
      </trkpt>
      <trkpt lat="43.60116" lon="3.86589">
        <ele>29.6</ele>
        <time>2017-10-27T10:05:13.435Z</time>
      </trkpt>
      <trkpt lat="43.60117" lon="3.86585">
        <ele>29.6</ele>
        <time>2017-10-27T10:05:14.431Z</time>
      </trkpt>
      <trkpt lat="43.60117" lon="3.86581">
        <ele>29.5</ele>
        <time>2017-10-27T10:05:15.431Z</time>
      </trkpt>
      <trkpt lat="43.60118" lon="3.86578">
        <ele>29.6</ele>
        <time>2017-10-27T10:05:16.431Z</time>
      </trkpt>
      <trkpt lat="43.60118" lon="3.86574">
        <ele>29.6</ele>
        <time>2017-10-27T10:05:17.431Z</time>
      </trkpt>
      <trkpt lat="43.60119" lon="3.86569">
        <ele>29.5</ele>
        <time>2017-10-27T10:05:18.451Z</time>
      </trkpt>
      <trkpt lat="43.60119" lon="3.86565">
        <ele>29.3</ele>
        <time>2017-10-27T10:05:19.470Z</time>
      </trkpt>
      <trkpt lat="43.60119" lon="3.86561">
        <ele>29.3</ele>
        <time>2017-10-27T10:05:20.467Z</time>
      </trkpt>
      <trkpt lat="43.6012" lon="3.86556">
        <ele>29.6</ele>
        <time>2017-10-27T10:05:21.447Z</time>
      </trkpt>
      <trkpt lat="43.6012" lon="3.86552">
        <ele>29.6</ele>
        <time>2017-10-27T10:05:22.449Z</time>
      </trkpt>
      <trkpt lat="43.60121" lon="3.86549">
        <ele>29.2</ele>
        <time>2017-10-27T10:05:23.444Z</time>
      </trkpt>
      <trkpt lat="43.60121" lon="3.86545">
        <ele>29.4</ele>
        <time>2017-10-27T10:05:24.447Z</time>
      </trkpt>
      <trkpt lat="43.60121" lon="3.86541">
        <ele>29.7</ele>
        <time>2017-10-27T10:05:25.445Z</time>
      </trkpt>
      <trkpt lat="43.60122" lon="3.86536">
        <ele>30.1</ele>
        <time>2017-10-27T10:05:26.444Z</time>
      </trkpt>
      <trkpt lat="43.60122" lon="3.86532">
        <ele>30.7</ele>
        <time>2017-10-27T10:05:27.445Z</time>
      </trkpt>
      <trkpt lat="43.60123" lon="3.86528">
        <ele>31.4</ele>
        <time>2017-10-27T10:05:28.444Z</time>
      </trkpt>
      <trkpt lat="43.60124" lon="3.86524">
        <ele>31.2</ele>
        <time>2017-10-27T10:05:29.444Z</time>
      </trkpt>
      <trkpt lat="43.60124" lon="3.8652">
        <ele>31.6</ele>
        <time>2017-10-27T10:05:30.445Z</time>
      </trkpt>
      <trkpt lat="43.60125" lon="3.86515">
        <ele>31.6</ele>
        <time>2017-10-27T10:05:31.444Z</time>
      </trkpt>
      <trkpt lat="43.60125" lon="3.86511">
        <ele>31.4</ele>
        <time>2017-10-27T10:05:32.431Z</time>
      </trkpt>
      <trkpt lat="43.60126" lon="3.86507">
        <ele>31.1</ele>
        <time>2017-10-27T10:05:33.431Z</time>
      </trkpt>
      <trkpt lat="43.60126" lon="3.86503">
        <ele>30.8</ele>
        <time>2017-10-27T10:05:34.431Z</time>
      </trkpt>
      <trkpt lat="43.60126" lon="3.86499">
        <ele>30.6</ele>
        <time>2017-10-27T10:05:35.473Z</time>
      </trkpt>
      <trkpt lat="43.60127" lon="3.86494">
        <ele>30.4</ele>
        <time>2017-10-27T10:05:36.432Z</time>
      </trkpt>
      <trkpt lat="43.60127" lon="3.8649">
        <ele>30.5</ele>
        <time>2017-10-27T10:05:37.444Z</time>
      </trkpt>
      <trkpt lat="43.60127" lon="3.86486">
        <ele>30.6</ele>
        <time>2017-10-27T10:05:38.448Z</time>
      </trkpt>
      <trkpt lat="43.60128" lon="3.86482">
        <ele>30.5</ele>
        <time>2017-10-27T10:05:39.441Z</time>
      </trkpt>
      <trkpt lat="43.60129" lon="3.86478">
        <ele>30.5</ele>
        <time>2017-10-27T10:05:40.438Z</time>
      </trkpt>
      <trkpt lat="43.60129" lon="3.86474">
        <ele>30.7</ele>
        <time>2017-10-27T10:05:41.446Z</time>
      </trkpt>
      <trkpt lat="43.6013" lon="3.8647">
        <ele>30.7</ele>
        <time>2017-10-27T10:05:42.450Z</time>
      </trkpt>
      <trkpt lat="43.6013" lon="3.86466">
        <ele>30.9</ele>
        <time>2017-10-27T10:05:43.445Z</time>
      </trkpt>
      <trkpt lat="43.6013" lon="3.86462">
        <ele>31.1</ele>
        <time>2017-10-27T10:05:44.436Z</time>
      </trkpt>
      <trkpt lat="43.6013" lon="3.86458">
        <ele>31.4</ele>
        <time>2017-10-27T10:05:45.435Z</time>
      </trkpt>
      <trkpt lat="43.6013" lon="3.86453">
        <ele>31.5</ele>
        <time>2017-10-27T10:05:46.445Z</time>
      </trkpt>
      <trkpt lat="43.6013" lon="3.86449">
        <ele>31.5</ele>
        <time>2017-10-27T10:05:47.451Z</time>
      </trkpt>
      <trkpt lat="43.60131" lon="3.86445">
        <ele>31.4</ele>
        <time>2017-10-27T10:05:48.441Z</time>
      </trkpt>
      <trkpt lat="43.60131" lon="3.86441">
        <ele>31.7</ele>
        <time>2017-10-27T10:05:49.427Z</time>
      </trkpt>
      <trkpt lat="43.60132" lon="3.86437">
        <ele>31.7</ele>
        <time>2017-10-27T10:05:50.444Z</time>
      </trkpt>
      <trkpt lat="43.60132" lon="3.86433">
        <ele>31.8</ele>
        <time>2017-10-27T10:05:51.440Z</time>
      </trkpt>
      <trkpt lat="43.60133" lon="3.86429">
        <ele>32</ele>
        <time>2017-10-27T10:05:52.444Z</time>
      </trkpt>
      <trkpt lat="43.60133" lon="3.86425">
        <ele>31.9</ele>
        <time>2017-10-27T10:05:53.453Z</time>
      </trkpt>
      <trkpt lat="43.60134" lon="3.86421">
        <ele>31.9</ele>
        <time>2017-10-27T10:05:54.446Z</time>
      </trkpt>
      <trkpt lat="43.60134" lon="3.86418">
        <ele>31.8</ele>
        <time>2017-10-27T10:05:55.444Z</time>
      </trkpt>
      <trkpt lat="43.60134" lon="3.86413">
        <ele>31.8</ele>
        <time>2017-10-27T10:05:56.431Z</time>
      </trkpt>
      <trkpt lat="43.60134" lon="3.8641">
        <ele>32.2</ele>
        <time>2017-10-27T10:05:57.433Z</time>
      </trkpt>
      <trkpt lat="43.60135" lon="3.86406">
        <ele>32.3</ele>
        <time>2017-10-27T10:05:58.448Z</time>
      </trkpt>
      <trkpt lat="43.60135" lon="3.86402">
        <ele>31.9</ele>
        <time>2017-10-27T10:05:59.489Z</time>
      </trkpt>
      <trkpt lat="43.60135" lon="3.86398">
        <ele>32.3</ele>
        <time>2017-10-27T10:06:00.445Z</time>
      </trkpt>
      <trkpt lat="43.60136" lon="3.86394">
        <ele>32.2</ele>
        <time>2017-10-27T10:06:01.444Z</time>
      </trkpt>
      <trkpt lat="43.60136" lon="3.86391">
        <ele>32.2</ele>
        <time>2017-10-27T10:06:02.445Z</time>
      </trkpt>
      <trkpt lat="43.60137" lon="3.86386">
        <ele>32.2</ele>
        <time>2017-10-27T10:06:03.441Z</time>
      </trkpt>
      <trkpt lat="43.60137" lon="3.86382">
        <ele>32.5</ele>
        <time>2017-10-27T10:06:04.430Z</time>
      </trkpt>
      <trkpt lat="43.60137" lon="3.86378">
        <ele>32.7</ele>
        <time>2017-10-27T10:06:05.444Z</time>
      </trkpt>
      <trkpt lat="43.60137" lon="3.86375">
        <ele>32.9</ele>
        <time>2017-10-27T10:06:06.435Z</time>
      </trkpt>
      <trkpt lat="43.60138" lon="3.86371">
        <ele>32.8</ele>
        <time>2017-10-27T10:06:07.439Z</time>
      </trkpt>
      <trkpt lat="43.60138" lon="3.86368">
        <ele>32.7</ele>
        <time>2017-10-27T10:06:08.444Z</time>
      </trkpt>
      <trkpt lat="43.60139" lon="3.86364">
        <ele>32.8</ele>
        <time>2017-10-27T10:06:09.452Z</time>
      </trkpt>
      <trkpt lat="43.60139" lon="3.86361">
        <ele>33</ele>
        <time>2017-10-27T10:06:10.445Z</time>
      </trkpt>
      <trkpt lat="43.6014" lon="3.86357">
        <ele>32.6</ele>
        <time>2017-10-27T10:06:11.444Z</time>
      </trkpt>
      <trkpt lat="43.6014" lon="3.86353">
        <ele>32.3</ele>
        <time>2017-10-27T10:06:12.465Z</time>
      </trkpt>
      <trkpt lat="43.6014" lon="3.86349">
        <ele>32.2</ele>
        <time>2017-10-27T10:06:13.446Z</time>
      </trkpt>
      <trkpt lat="43.6014" lon="3.86346">
        <ele>32.2</ele>
        <time>2017-10-27T10:06:14.443Z</time>
      </trkpt>
      <trkpt lat="43.6014" lon="3.86342">
        <ele>32.3</ele>
        <time>2017-10-27T10:06:15.433Z</time>
      </trkpt>
      <trkpt lat="43.60141" lon="3.86339">
        <ele>32.4</ele>
        <time>2017-10-27T10:06:16.431Z</time>
      </trkpt>
      <trkpt lat="43.60141" lon="3.86335">
        <ele>32.4</ele>
        <time>2017-10-27T10:06:17.431Z</time>
      </trkpt>
      <trkpt lat="43.60142" lon="3.86332">
        <ele>32.8</ele>
        <time>2017-10-27T10:06:18.432Z</time>
      </trkpt>
      <trkpt lat="43.60142" lon="3.86328">
        <ele>32.9</ele>
        <time>2017-10-27T10:06:19.445Z</time>
      </trkpt>
      <trkpt lat="43.60142" lon="3.86325">
        <ele>33.2</ele>
        <time>2017-10-27T10:06:20.445Z</time>
      </trkpt>
      <trkpt lat="43.60142" lon="3.86322">
        <ele>33.5</ele>
        <time>2017-10-27T10:06:21.447Z</time>
      </trkpt>
      <trkpt lat="43.60143" lon="3.86319">
        <ele>33.7</ele>
        <time>2017-10-27T10:06:22.455Z</time>
      </trkpt>
      <trkpt lat="43.60143" lon="3.86315">
        <ele>34.3</ele>
        <time>2017-10-27T10:06:23.452Z</time>
      </trkpt>
      <trkpt lat="43.60144" lon="3.86312">
        <ele>34.6</ele>
        <time>2017-10-27T10:06:24.431Z</time>
      </trkpt>
      <trkpt lat="43.60144" lon="3.86309">
        <ele>34.8</ele>
        <time>2017-10-27T10:06:25.448Z</time>
      </trkpt>
      <trkpt lat="43.60145" lon="3.86306">
        <ele>35</ele>
        <time>2017-10-27T10:06:26.444Z</time>
      </trkpt>
      <trkpt lat="43.60146" lon="3.86304">
        <ele>35</ele>
        <time>2017-10-27T10:06:27.444Z</time>
      </trkpt>
      <trkpt lat="43.60148" lon="3.86302">
        <ele>35.2</ele>
        <time>2017-10-27T10:06:28.444Z</time>
      </trkpt>
      <trkpt lat="43.6015" lon="3.863">
        <ele>35.2</ele>
        <time>2017-10-27T10:06:29.445Z</time>
      </trkpt>
      <trkpt lat="43.60152" lon="3.86298">
        <ele>35</ele>
        <time>2017-10-27T10:06:30.445Z</time>
      </trkpt>
      <trkpt lat="43.60154" lon="3.86295">
        <ele>35.6</ele>
        <time>2017-10-27T10:06:31.444Z</time>
      </trkpt>
      <trkpt lat="43.60156" lon="3.86293">
        <ele>35.7</ele>
        <time>2017-10-27T10:06:32.452Z</time>
      </trkpt>
      <trkpt lat="43.60158" lon="3.86292">
        <ele>35.9</ele>
        <time>2017-10-27T10:06:33.444Z</time>
      </trkpt>
      <trkpt lat="43.60161" lon="3.8629">
        <ele>35.5</ele>
        <time>2017-10-27T10:06:34.449Z</time>
      </trkpt>
      <trkpt lat="43.60163" lon="3.86289">
        <ele>35.4</ele>
        <time>2017-10-27T10:06:35.452Z</time>
      </trkpt>
      <trkpt lat="43.60166" lon="3.8629">
        <ele>35.4</ele>
        <time>2017-10-27T10:06:36.445Z</time>
      </trkpt>
      <trkpt lat="43.60168" lon="3.86291">
        <ele>35.4</ele>
        <time>2017-10-27T10:06:37.431Z</time>
      </trkpt>
      <trkpt lat="43.6017" lon="3.86292">
        <ele>35.4</ele>
        <time>2017-10-27T10:06:38.430Z</time>
      </trkpt>
      <trkpt lat="43.60172" lon="3.86294">
        <ele>35.5</ele>
        <time>2017-10-27T10:06:39.438Z</time>
      </trkpt>
      <trkpt lat="43.60174" lon="3.86296">
        <ele>35.6</ele>
        <time>2017-10-27T10:06:40.444Z</time>
      </trkpt>
      <trkpt lat="43.60177" lon="3.86297">
        <ele>35.7</ele>
        <time>2017-10-27T10:06:41.446Z</time>
      </trkpt>
      <trkpt lat="43.60179" lon="3.86299">
        <ele>35.7</ele>
        <time>2017-10-27T10:06:42.451Z</time>
      </trkpt>
      <trkpt lat="43.60182" lon="3.86301">
        <ele>35.7</ele>
        <time>2017-10-27T10:06:43.431Z</time>
      </trkpt>
      <trkpt lat="43.60184" lon="3.86302">
        <ele>36</ele>
        <time>2017-10-27T10:06:44.444Z</time>
      </trkpt>
      <trkpt lat="43.60187" lon="3.86304">
        <ele>36</ele>
        <time>2017-10-27T10:06:45.441Z</time>
      </trkpt>
      <trkpt lat="43.60189" lon="3.86306">
        <ele>36.4</ele>
        <time>2017-10-27T10:06:46.444Z</time>
      </trkpt>
      <trkpt lat="43.60192" lon="3.86308">
        <ele>36.4</ele>
        <time>2017-10-27T10:06:47.446Z</time>
      </trkpt>
      <trkpt lat="43.60194" lon="3.86309">
        <ele>36.4</ele>
        <time>2017-10-27T10:06:48.446Z</time>
      </trkpt>
      <trkpt lat="43.60197" lon="3.86311">
        <ele>36.4</ele>
        <time>2017-10-27T10:06:49.445Z</time>
      </trkpt>
      <trkpt lat="43.60199" lon="3.86313">
        <ele>36.5</ele>
        <time>2017-10-27T10:06:50.443Z</time>
      </trkpt>
      <trkpt lat="43.60202" lon="3.86315">
        <ele>36.7</ele>
        <time>2017-10-27T10:06:51.444Z</time>
      </trkpt>
      <trkpt lat="43.60205" lon="3.86316">
        <ele>36.9</ele>
        <time>2017-10-27T10:06:52.446Z</time>
      </trkpt>
      <trkpt lat="43.60207" lon="3.86317">
        <ele>37.1</ele>
        <time>2017-10-27T10:06:53.444Z</time>
      </trkpt>
      <trkpt lat="43.6021" lon="3.86319">
        <ele>37</ele>
        <time>2017-10-27T10:06:54.445Z</time>
      </trkpt>
      <trkpt lat="43.60213" lon="3.8632">
        <ele>37.3</ele>
        <time>2017-10-27T10:06:55.437Z</time>
      </trkpt>
      <trkpt lat="43.60215" lon="3.86322">
        <ele>37.4</ele>
        <time>2017-10-27T10:06:56.431Z</time>
      </trkpt>
      <trkpt lat="43.60218" lon="3.86323">
        <ele>37.4</ele>
        <time>2017-10-27T10:06:57.435Z</time>
      </trkpt>
      <trkpt lat="43.6022" lon="3.86325">
        <ele>37.1</ele>
        <time>2017-10-27T10:06:58.440Z</time>
      </trkpt>
      <trkpt lat="43.60223" lon="3.86326">
        <ele>37.6</ele>
        <time>2017-10-27T10:06:59.461Z</time>
      </trkpt>
      <trkpt lat="43.60225" lon="3.86328">
        <ele>37.6</ele>
        <time>2017-10-27T10:07:00.445Z</time>
      </trkpt>
      <trkpt lat="43.60227" lon="3.86329">
        <ele>37.7</ele>
        <time>2017-10-27T10:07:01.449Z</time>
      </trkpt>
      <trkpt lat="43.6023" lon="3.8633">
        <ele>37.5</ele>
        <time>2017-10-27T10:07:02.446Z</time>
      </trkpt>
      <trkpt lat="43.60232" lon="3.86332">
        <ele>37.6</ele>
        <time>2017-10-27T10:07:03.446Z</time>
      </trkpt>
      <trkpt lat="43.60235" lon="3.86333">
        <ele>37.8</ele>
        <time>2017-10-27T10:07:04.443Z</time>
      </trkpt>
      <trkpt lat="43.60237" lon="3.86334">
        <ele>38</ele>
        <time>2017-10-27T10:07:05.443Z</time>
      </trkpt>
      <trkpt lat="43.60239" lon="3.86336">
        <ele>38.3</ele>
        <time>2017-10-27T10:07:06.448Z</time>
      </trkpt>
      <trkpt lat="43.60241" lon="3.86337">
        <ele>38.5</ele>
        <time>2017-10-27T10:07:07.445Z</time>
      </trkpt>
      <trkpt lat="43.60244" lon="3.86338">
        <ele>38.9</ele>
        <time>2017-10-27T10:07:08.446Z</time>
      </trkpt>
      <trkpt lat="43.60246" lon="3.8634">
        <ele>39.3</ele>
        <time>2017-10-27T10:07:09.444Z</time>
      </trkpt>
      <trkpt lat="43.60248" lon="3.86341">
        <ele>39.8</ele>
        <time>2017-10-27T10:07:10.448Z</time>
      </trkpt>
      <trkpt lat="43.60249" lon="3.86343">
        <ele>40.5</ele>
        <time>2017-10-27T10:07:11.445Z</time>
      </trkpt>
      <trkpt lat="43.60251" lon="3.86344">
        <ele>40.8</ele>
        <time>2017-10-27T10:07:12.445Z</time>
      </trkpt>
      <trkpt lat="43.60254" lon="3.86346">
        <ele>41.1</ele>
        <time>2017-10-27T10:07:13.431Z</time>
      </trkpt>
      <trkpt lat="43.60256" lon="3.86348">
        <ele>41.5</ele>
        <time>2017-10-27T10:07:14.431Z</time>
      </trkpt>
      <trkpt lat="43.60258" lon="3.86349">
        <ele>41.8</ele>
        <time>2017-10-27T10:07:15.432Z</time>
      </trkpt>
      <trkpt lat="43.60261" lon="3.86351">
        <ele>41.8</ele>
        <time>2017-10-27T10:07:16.441Z</time>
      </trkpt>
      <trkpt lat="43.60263" lon="3.86352">
        <ele>41.9</ele>
        <time>2017-10-27T10:07:17.432Z</time>
      </trkpt>
      <trkpt lat="43.60266" lon="3.86353">
        <ele>41.8</ele>
        <time>2017-10-27T10:07:18.448Z</time>
      </trkpt>
      <trkpt lat="43.60268" lon="3.86354">
        <ele>41.8</ele>
        <time>2017-10-27T10:07:19.450Z</time>
      </trkpt>
      <trkpt lat="43.6027" lon="3.86354">
        <ele>41.8</ele>
        <time>2017-10-27T10:07:20.430Z</time>
      </trkpt>
      <trkpt lat="43.60272" lon="3.86356">
        <ele>42.1</ele>
        <time>2017-10-27T10:07:21.438Z</time>
      </trkpt>
      <trkpt lat="43.60273" lon="3.86357">
        <ele>42.2</ele>
        <time>2017-10-27T10:07:22.450Z</time>
      </trkpt>
      <trkpt lat="43.60273" lon="3.86357">
        <ele>42.2</ele>
        <time>2017-10-27T10:07:27.564Z</time>
      </trkpt>
      <trkpt lat="43.60276" lon="3.86358">
        <ele>41.7</ele>
        <time>2017-10-27T10:07:34.433Z</time>
      </trkpt>
      <trkpt lat="43.60277" lon="3.86359">
        <ele>41.7</ele>
        <time>2017-10-27T10:07:35.445Z</time>
      </trkpt>
      <trkpt lat="43.60279" lon="3.86359">
        <ele>41.8</ele>
        <time>2017-10-27T10:07:36.446Z</time>
      </trkpt>
      <trkpt lat="43.60281" lon="3.86358">
        <ele>41.7</ele>
        <time>2017-10-27T10:07:37.450Z</time>
      </trkpt>
      <trkpt lat="43.60283" lon="3.86356">
        <ele>41.6</ele>
        <time>2017-10-27T10:07:38.452Z</time>
      </trkpt>
      <trkpt lat="43.60285" lon="3.86353">
        <ele>41.6</ele>
        <time>2017-10-27T10:07:39.450Z</time>
      </trkpt>
      <trkpt lat="43.60287" lon="3.86349">
        <ele>41.5</ele>
        <time>2017-10-27T10:07:40.450Z</time>
      </trkpt>
      <trkpt lat="43.60288" lon="3.86345">
        <ele>41.5</ele>
        <time>2017-10-27T10:07:41.448Z</time>
      </trkpt>
      <trkpt lat="43.60289" lon="3.86341">
        <ele>41.6</ele>
        <time>2017-10-27T10:07:42.456Z</time>
      </trkpt>
      <trkpt lat="43.6029" lon="3.86336">
        <ele>41.7</ele>
        <time>2017-10-27T10:07:43.445Z</time>
      </trkpt>
      <trkpt lat="43.60291" lon="3.86332">
        <ele>41.6</ele>
        <time>2017-10-27T10:07:44.446Z</time>
      </trkpt>
      <trkpt lat="43.60293" lon="3.86327">
        <ele>41.6</ele>
        <time>2017-10-27T10:07:45.444Z</time>
      </trkpt>
      <trkpt lat="43.60294" lon="3.86323">
        <ele>41.6</ele>
        <time>2017-10-27T10:07:46.450Z</time>
      </trkpt>
      <trkpt lat="43.60295" lon="3.86318">
        <ele>41.6</ele>
        <time>2017-10-27T10:07:47.456Z</time>
      </trkpt>
      <trkpt lat="43.60296" lon="3.86314">
        <ele>41.5</ele>
        <time>2017-10-27T10:07:48.432Z</time>
      </trkpt>
      <trkpt lat="43.60297" lon="3.8631">
        <ele>41.5</ele>
        <time>2017-10-27T10:07:49.432Z</time>
      </trkpt>
      <trkpt lat="43.60298" lon="3.86306">
        <ele>41.4</ele>
        <time>2017-10-27T10:07:50.431Z</time>
      </trkpt>
      <trkpt lat="43.603" lon="3.86302">
        <ele>41.3</ele>
        <time>2017-10-27T10:07:51.445Z</time>
      </trkpt>
      <trkpt lat="43.60301" lon="3.86298">
        <ele>41.4</ele>
        <time>2017-10-27T10:07:52.443Z</time>
      </trkpt>
      <trkpt lat="43.60302" lon="3.86294">
        <ele>41.3</ele>
        <time>2017-10-27T10:07:53.434Z</time>
      </trkpt>
      <trkpt lat="43.60303" lon="3.8629">
        <ele>41</ele>
        <time>2017-10-27T10:07:54.448Z</time>
      </trkpt>
      <trkpt lat="43.60304" lon="3.86285">
        <ele>40.8</ele>
        <time>2017-10-27T10:07:55.448Z</time>
      </trkpt>
      <trkpt lat="43.60305" lon="3.86281">
        <ele>40.7</ele>
        <time>2017-10-27T10:07:56.451Z</time>
      </trkpt>
      <trkpt lat="43.60307" lon="3.86277">
        <ele>40.7</ele>
        <time>2017-10-27T10:07:57.454Z</time>
      </trkpt>
      <trkpt lat="43.60308" lon="3.86273">
        <ele>40.9</ele>
        <time>2017-10-27T10:07:58.444Z</time>
      </trkpt>
      <trkpt lat="43.60309" lon="3.86268">
        <ele>40.8</ele>
        <time>2017-10-27T10:07:59.454Z</time>
      </trkpt>
      <trkpt lat="43.6031" lon="3.86264">
        <ele>40.8</ele>
        <time>2017-10-27T10:08:00.430Z</time>
      </trkpt>
      <trkpt lat="43.60311" lon="3.8626">
        <ele>40.8</ele>
        <time>2017-10-27T10:08:01.441Z</time>
      </trkpt>
      <trkpt lat="43.60312" lon="3.86255">
        <ele>40.5</ele>
        <time>2017-10-27T10:08:02.446Z</time>
      </trkpt>
      <trkpt lat="43.60313" lon="3.86251">
        <ele>40.5</ele>
        <time>2017-10-27T10:08:03.440Z</time>
      </trkpt>
      <trkpt lat="43.60315" lon="3.86247">
        <ele>40.5</ele>
        <time>2017-10-27T10:08:04.443Z</time>
      </trkpt>
      <trkpt lat="43.60316" lon="3.86243">
        <ele>40.5</ele>
        <time>2017-10-27T10:08:05.446Z</time>
      </trkpt>
      <trkpt lat="43.60317" lon="3.86239">
        <ele>40.5</ele>
        <time>2017-10-27T10:08:06.454Z</time>
      </trkpt>
      <trkpt lat="43.60318" lon="3.86235">
        <ele>40.3</ele>
        <time>2017-10-27T10:08:07.445Z</time>
      </trkpt>
      <trkpt lat="43.60319" lon="3.86231">
        <ele>40.3</ele>
        <time>2017-10-27T10:08:08.500Z</time>
      </trkpt>
      <trkpt lat="43.60321" lon="3.86226">
        <ele>40.2</ele>
        <time>2017-10-27T10:08:09.452Z</time>
      </trkpt>
      <trkpt lat="43.60322" lon="3.86223">
        <ele>39.9</ele>
        <time>2017-10-27T10:08:10.445Z</time>
      </trkpt>
      <trkpt lat="43.60323" lon="3.86219">
        <ele>39.8</ele>
        <time>2017-10-27T10:08:11.432Z</time>
      </trkpt>
      <trkpt lat="43.60324" lon="3.86215">
        <ele>39.6</ele>
        <time>2017-10-27T10:08:12.432Z</time>
      </trkpt>
      <trkpt lat="43.60326" lon="3.86212">
        <ele>39.4</ele>
        <time>2017-10-27T10:08:13.434Z</time>
      </trkpt>
      <trkpt lat="43.60327" lon="3.86208">
        <ele>39.1</ele>
        <time>2017-10-27T10:08:14.445Z</time>
      </trkpt>
      <trkpt lat="43.60328" lon="3.86205">
        <ele>38.7</ele>
        <time>2017-10-27T10:08:15.451Z</time>
      </trkpt>
      <trkpt lat="43.60329" lon="3.86202">
        <ele>38.3</ele>
        <time>2017-10-27T10:08:16.446Z</time>
      </trkpt>
      <trkpt lat="43.6033" lon="3.86198">
        <ele>37.9</ele>
        <time>2017-10-27T10:08:17.453Z</time>
      </trkpt>
      <trkpt lat="43.60331" lon="3.86195">
        <ele>37.6</ele>
        <time>2017-10-27T10:08:18.445Z</time>
      </trkpt>
      <trkpt lat="43.60332" lon="3.86191">
        <ele>37.4</ele>
        <time>2017-10-27T10:08:19.446Z</time>
      </trkpt>
      <trkpt lat="43.60333" lon="3.86187">
        <ele>37.3</ele>
        <time>2017-10-27T10:08:20.444Z</time>
      </trkpt>
      <trkpt lat="43.60335" lon="3.86184">
        <ele>37.4</ele>
        <time>2017-10-27T10:08:21.444Z</time>
      </trkpt>
      <trkpt lat="43.60336" lon="3.8618">
        <ele>37.5</ele>
        <time>2017-10-27T10:08:22.444Z</time>
      </trkpt>
      <trkpt lat="43.60336" lon="3.86176">
        <ele>37.7</ele>
        <time>2017-10-27T10:08:23.444Z</time>
      </trkpt>
      <trkpt lat="43.60338" lon="3.86172">
        <ele>38</ele>
        <time>2017-10-27T10:08:24.445Z</time>
      </trkpt>
      <trkpt lat="43.60338" lon="3.86168">
        <ele>38.3</ele>
        <time>2017-10-27T10:08:25.444Z</time>
      </trkpt>
      <trkpt lat="43.60339" lon="3.86164">
        <ele>38.4</ele>
        <time>2017-10-27T10:08:26.451Z</time>
      </trkpt>
      <trkpt lat="43.6034" lon="3.8616">
        <ele>38.3</ele>
        <time>2017-10-27T10:08:27.445Z</time>
      </trkpt>
      <trkpt lat="43.60341" lon="3.86156">
        <ele>38.4</ele>
        <time>2017-10-27T10:08:28.430Z</time>
      </trkpt>
      <trkpt lat="43.60342" lon="3.86152">
        <ele>38.7</ele>
        <time>2017-10-27T10:08:29.432Z</time>
      </trkpt>
      <trkpt lat="43.60343" lon="3.86148">
        <ele>38.8</ele>
        <time>2017-10-27T10:08:30.433Z</time>
      </trkpt>
      <trkpt lat="43.60344" lon="3.86145">
        <ele>39.1</ele>
        <time>2017-10-27T10:08:31.432Z</time>
      </trkpt>
      <trkpt lat="43.60346" lon="3.86142">
        <ele>39.3</ele>
        <time>2017-10-27T10:08:32.448Z</time>
      </trkpt>
      <trkpt lat="43.60347" lon="3.86139">
        <ele>39.3</ele>
        <time>2017-10-27T10:08:33.444Z</time>
      </trkpt>
      <trkpt lat="43.60347" lon="3.86137">
        <ele>39.4</ele>
        <time>2017-10-27T10:08:34.450Z</time>
      </trkpt>
      <trkpt lat="43.60348" lon="3.86135">
        <ele>39.6</ele>
        <time>2017-10-27T10:08:35.446Z</time>
      </trkpt>
      <trkpt lat="43.60348" lon="3.86133">
        <ele>39.7</ele>
        <time>2017-10-27T10:08:36.445Z</time>
      </trkpt>
      <trkpt lat="43.60348" lon="3.86133">
        <ele>39.7</ele>
        <time>2017-10-27T10:09:55.661Z</time>
      </trkpt>
      <trkpt lat="43.60349" lon="3.86127">
        <ele>40.6</ele>
        <time>2017-10-27T10:10:07.452Z</time>
      </trkpt>
      <trkpt lat="43.60349" lon="3.86125">
        <ele>40.6</ele>
        <time>2017-10-27T10:10:08.456Z</time>
      </trkpt>
      <trkpt lat="43.6035" lon="3.86122">
        <ele>40.6</ele>
        <time>2017-10-27T10:10:09.445Z</time>
      </trkpt>
      <trkpt lat="43.6035" lon="3.86118">
        <ele>40.6</ele>
        <time>2017-10-27T10:10:10.444Z</time>
      </trkpt>
      <trkpt lat="43.60351" lon="3.86115">
        <ele>40.5</ele>
        <time>2017-10-27T10:10:11.444Z</time>
      </trkpt>
      <trkpt lat="43.60352" lon="3.86111">
        <ele>40.5</ele>
        <time>2017-10-27T10:10:12.432Z</time>
      </trkpt>
      <trkpt lat="43.60353" lon="3.86107">
        <ele>40.5</ele>
        <time>2017-10-27T10:10:13.431Z</time>
      </trkpt>
      <trkpt lat="43.60354" lon="3.86103">
        <ele>40.5</ele>
        <time>2017-10-27T10:10:14.431Z</time>
      </trkpt>
      <trkpt lat="43.60355" lon="3.86099">
        <ele>40.3</ele>
        <time>2017-10-27T10:10:15.432Z</time>
      </trkpt>
      <trkpt lat="43.60356" lon="3.86094">
        <ele>40.5</ele>
        <time>2017-10-27T10:10:16.453Z</time>
      </trkpt>
      <trkpt lat="43.60357" lon="3.8609">
        <ele>40.6</ele>
        <time>2017-10-27T10:10:17.453Z</time>
      </trkpt>
      <trkpt lat="43.60358" lon="3.86086">
        <ele>40.7</ele>
        <time>2017-10-27T10:10:18.447Z</time>
      </trkpt>
      <trkpt lat="43.60359" lon="3.86081">
        <ele>40.7</ele>
        <time>2017-10-27T10:10:19.448Z</time>
      </trkpt>
      <trkpt lat="43.6036" lon="3.86077">
        <ele>40.7</ele>
        <time>2017-10-27T10:10:20.452Z</time>
      </trkpt>
      <trkpt lat="43.60361" lon="3.86073">
        <ele>40.6</ele>
        <time>2017-10-27T10:10:21.451Z</time>
      </trkpt>
      <trkpt lat="43.60361" lon="3.86068">
        <ele>40.8</ele>
        <time>2017-10-27T10:10:22.442Z</time>
      </trkpt>
      <trkpt lat="43.60362" lon="3.86064">
        <ele>40.7</ele>
        <time>2017-10-27T10:10:23.444Z</time>
      </trkpt>
      <trkpt lat="43.60363" lon="3.86059">
        <ele>40.7</ele>
        <time>2017-10-27T10:10:24.445Z</time>
      </trkpt>
      <trkpt lat="43.60364" lon="3.86055">
        <ele>40.6</ele>
        <time>2017-10-27T10:10:25.445Z</time>
      </trkpt>
      <trkpt lat="43.60365" lon="3.8605">
        <ele>40.5</ele>
        <time>2017-10-27T10:10:26.456Z</time>
      </trkpt>
      <trkpt lat="43.60366" lon="3.86046">
        <ele>40.4</ele>
        <time>2017-10-27T10:10:27.445Z</time>
      </trkpt>
      <trkpt lat="43.60367" lon="3.86041">
        <ele>40.2</ele>
        <time>2017-10-27T10:10:28.446Z</time>
      </trkpt>
      <trkpt lat="43.60367" lon="3.86036">
        <ele>40.1</ele>
        <time>2017-10-27T10:10:29.445Z</time>
      </trkpt>
      <trkpt lat="43.60368" lon="3.86032">
        <ele>39.9</ele>
        <time>2017-10-27T10:10:30.450Z</time>
      </trkpt>
      <trkpt lat="43.60369" lon="3.86027">
        <ele>39.8</ele>
        <time>2017-10-27T10:10:31.449Z</time>
      </trkpt>
      <trkpt lat="43.6037" lon="3.86023">
        <ele>39.5</ele>
        <time>2017-10-27T10:10:32.443Z</time>
      </trkpt>
      <trkpt lat="43.60371" lon="3.86018">
        <ele>39.3</ele>
        <time>2017-10-27T10:10:33.445Z</time>
      </trkpt>
      <trkpt lat="43.60372" lon="3.86014">
        <ele>39.1</ele>
        <time>2017-10-27T10:10:34.446Z</time>
      </trkpt>
      <trkpt lat="43.60373" lon="3.86009">
        <ele>38.9</ele>
        <time>2017-10-27T10:10:35.432Z</time>
      </trkpt>
      <trkpt lat="43.60374" lon="3.86005">
        <ele>39.1</ele>
        <time>2017-10-27T10:10:36.433Z</time>
      </trkpt>
      <trkpt lat="43.60375" lon="3.86">
        <ele>39.3</ele>
        <time>2017-10-27T10:10:37.433Z</time>
      </trkpt>
      <trkpt lat="43.60375" lon="3.85996">
        <ele>39.2</ele>
        <time>2017-10-27T10:10:38.439Z</time>
      </trkpt>
      <trkpt lat="43.60377" lon="3.85992">
        <ele>39.1</ele>
        <time>2017-10-27T10:10:39.445Z</time>
      </trkpt>
      <trkpt lat="43.60377" lon="3.85987">
        <ele>39.2</ele>
        <time>2017-10-27T10:10:40.437Z</time>
      </trkpt>
      <trkpt lat="43.60379" lon="3.85983">
        <ele>39.1</ele>
        <time>2017-10-27T10:10:41.437Z</time>
      </trkpt>
      <trkpt lat="43.6038" lon="3.85979">
        <ele>38.9</ele>
        <time>2017-10-27T10:10:42.443Z</time>
      </trkpt>
      <trkpt lat="43.6038" lon="3.85975">
        <ele>38.7</ele>
        <time>2017-10-27T10:10:43.443Z</time>
      </trkpt>
      <trkpt lat="43.60381" lon="3.85971">
        <ele>38.5</ele>
        <time>2017-10-27T10:10:44.438Z</time>
      </trkpt>
      <trkpt lat="43.60381" lon="3.85967">
        <ele>38.5</ele>
        <time>2017-10-27T10:10:45.445Z</time>
      </trkpt>
      <trkpt lat="43.60382" lon="3.85963">
        <ele>37.7</ele>
        <time>2017-10-27T10:10:46.438Z</time>
      </trkpt>
      <trkpt lat="43.60383" lon="3.8596">
        <ele>37.5</ele>
        <time>2017-10-27T10:10:47.452Z</time>
      </trkpt>
      <trkpt lat="43.60384" lon="3.85956">
        <ele>37.3</ele>
        <time>2017-10-27T10:10:48.467Z</time>
      </trkpt>
      <trkpt lat="43.60385" lon="3.85952">
        <ele>37.3</ele>
        <time>2017-10-27T10:10:49.469Z</time>
      </trkpt>
      <trkpt lat="43.60386" lon="3.85948">
        <ele>36.9</ele>
        <time>2017-10-27T10:10:50.444Z</time>
      </trkpt>
      <trkpt lat="43.60387" lon="3.85944">
        <ele>36.3</ele>
        <time>2017-10-27T10:10:51.444Z</time>
      </trkpt>
      <trkpt lat="43.60388" lon="3.8594">
        <ele>36.3</ele>
        <time>2017-10-27T10:10:52.443Z</time>
      </trkpt>
      <trkpt lat="43.60389" lon="3.85936">
        <ele>36.6</ele>
        <time>2017-10-27T10:10:53.450Z</time>
      </trkpt>
      <trkpt lat="43.6039" lon="3.85932">
        <ele>36.8</ele>
        <time>2017-10-27T10:10:54.432Z</time>
      </trkpt>
      <trkpt lat="43.60391" lon="3.85928">
        <ele>37.2</ele>
        <time>2017-10-27T10:10:55.431Z</time>
      </trkpt>
      <trkpt lat="43.60392" lon="3.85924">
        <ele>37.2</ele>
        <time>2017-10-27T10:10:56.431Z</time>
      </trkpt>
      <trkpt lat="43.60393" lon="3.8592">
        <ele>37.7</ele>
        <time>2017-10-27T10:10:57.432Z</time>
      </trkpt>
      <trkpt lat="43.60393" lon="3.85916">
        <ele>38.1</ele>
        <time>2017-10-27T10:10:58.442Z</time>
      </trkpt>
      <trkpt lat="43.60394" lon="3.85912">
        <ele>38.6</ele>
        <time>2017-10-27T10:10:59.446Z</time>
      </trkpt>
      <trkpt lat="43.60396" lon="3.85909">
        <ele>37.5</ele>
        <time>2017-10-27T10:11:00.432Z</time>
      </trkpt>
      <trkpt lat="43.60397" lon="3.85905">
        <ele>37.5</ele>
        <time>2017-10-27T10:11:01.445Z</time>
      </trkpt>
      <trkpt lat="43.60398" lon="3.85902">
        <ele>37.5</ele>
        <time>2017-10-27T10:11:02.431Z</time>
      </trkpt>
      <trkpt lat="43.60399" lon="3.85898">
        <ele>37.6</ele>
        <time>2017-10-27T10:11:03.454Z</time>
      </trkpt>
      <trkpt lat="43.604" lon="3.85895">
        <ele>37.6</ele>
        <time>2017-10-27T10:11:04.451Z</time>
      </trkpt>
      <trkpt lat="43.60401" lon="3.85892">
        <ele>37.7</ele>
        <time>2017-10-27T10:11:05.444Z</time>
      </trkpt>
      <trkpt lat="43.60402" lon="3.85888">
        <ele>37.8</ele>
        <time>2017-10-27T10:11:06.446Z</time>
      </trkpt>
      <trkpt lat="43.60403" lon="3.85885">
        <ele>37.6</ele>
        <time>2017-10-27T10:11:07.444Z</time>
      </trkpt>
      <trkpt lat="43.60404" lon="3.85882">
        <ele>38.3</ele>
        <time>2017-10-27T10:11:08.443Z</time>
      </trkpt>
      <trkpt lat="43.60405" lon="3.85879">
        <ele>38.3</ele>
        <time>2017-10-27T10:11:09.444Z</time>
      </trkpt>
      <trkpt lat="43.60406" lon="3.85877">
        <ele>38.4</ele>
        <time>2017-10-27T10:11:10.443Z</time>
      </trkpt>
      <trkpt lat="43.60407" lon="3.85874">
        <ele>38.7</ele>
        <time>2017-10-27T10:11:11.446Z</time>
      </trkpt>
      <trkpt lat="43.60407" lon="3.85871">
        <ele>38.8</ele>
        <time>2017-10-27T10:11:12.432Z</time>
      </trkpt>
      <trkpt lat="43.60408" lon="3.85868">
        <ele>39</ele>
        <time>2017-10-27T10:11:13.431Z</time>
      </trkpt>
      <trkpt lat="43.60409" lon="3.85866">
        <ele>39</ele>
        <time>2017-10-27T10:11:14.434Z</time>
      </trkpt>
      <trkpt lat="43.60409" lon="3.85864">
        <ele>39</ele>
        <time>2017-10-27T10:11:15.437Z</time>
      </trkpt>
      <trkpt lat="43.60411" lon="3.85859">
        <ele>39.3</ele>
        <time>2017-10-27T10:11:25.435Z</time>
      </trkpt>
      <trkpt lat="43.60412" lon="3.85856">
        <ele>39.3</ele>
        <time>2017-10-27T10:11:26.462Z</time>
      </trkpt>
      <trkpt lat="43.60413" lon="3.85854">
        <ele>39.3</ele>
        <time>2017-10-27T10:11:27.431Z</time>
      </trkpt>
      <trkpt lat="43.60415" lon="3.85851">
        <ele>39.4</ele>
        <time>2017-10-27T10:11:28.444Z</time>
      </trkpt>
      <trkpt lat="43.60416" lon="3.85848">
        <ele>39.8</ele>
        <time>2017-10-27T10:11:29.445Z</time>
      </trkpt>
      <trkpt lat="43.60418" lon="3.85845">
        <ele>39.9</ele>
        <time>2017-10-27T10:11:30.445Z</time>
      </trkpt>
      <trkpt lat="43.60419" lon="3.85842">
        <ele>40</ele>
        <time>2017-10-27T10:11:31.447Z</time>
      </trkpt>
      <trkpt lat="43.6042" lon="3.85839">
        <ele>40.1</ele>
        <time>2017-10-27T10:11:32.445Z</time>
      </trkpt>
      <trkpt lat="43.60421" lon="3.85836">
        <ele>40.2</ele>
        <time>2017-10-27T10:11:33.445Z</time>
      </trkpt>
      <trkpt lat="43.60422" lon="3.85833">
        <ele>40.2</ele>
        <time>2017-10-27T10:11:34.444Z</time>
      </trkpt>
      <trkpt lat="43.60423" lon="3.85829">
        <ele>40.1</ele>
        <time>2017-10-27T10:11:35.445Z</time>
      </trkpt>
      <trkpt lat="43.60424" lon="3.85826">
        <ele>40.1</ele>
        <time>2017-10-27T10:11:36.445Z</time>
      </trkpt>
      <trkpt lat="43.60425" lon="3.85823">
        <ele>40.1</ele>
        <time>2017-10-27T10:11:37.445Z</time>
      </trkpt>
      <trkpt lat="43.60426" lon="3.85819">
        <ele>40.1</ele>
        <time>2017-10-27T10:11:38.445Z</time>
      </trkpt>
      <trkpt lat="43.60427" lon="3.85816">
        <ele>40.1</ele>
        <time>2017-10-27T10:11:39.431Z</time>
      </trkpt>
      <trkpt lat="43.60428" lon="3.85813">
        <ele>40.1</ele>
        <time>2017-10-27T10:11:40.431Z</time>
      </trkpt>
      <trkpt lat="43.60429" lon="3.85809">
        <ele>40.2</ele>
        <time>2017-10-27T10:11:41.433Z</time>
      </trkpt>
      <trkpt lat="43.6043" lon="3.85806">
        <ele>41</ele>
        <time>2017-10-27T10:11:42.437Z</time>
      </trkpt>
      <trkpt lat="43.60431" lon="3.85803">
        <ele>40.4</ele>
        <time>2017-10-27T10:11:43.446Z</time>
      </trkpt>
      <trkpt lat="43.60431" lon="3.858">
        <ele>40.4</ele>
        <time>2017-10-27T10:11:44.448Z</time>
      </trkpt>
      <trkpt lat="43.60432" lon="3.85796">
        <ele>40.9</ele>
        <time>2017-10-27T10:11:45.452Z</time>
      </trkpt>
      <trkpt lat="43.60433" lon="3.85793">
        <ele>41.2</ele>
        <time>2017-10-27T10:11:46.454Z</time>
      </trkpt>
      <trkpt lat="43.60434" lon="3.8579">
        <ele>41.2</ele>
        <time>2017-10-27T10:11:47.446Z</time>
      </trkpt>
      <trkpt lat="43.60435" lon="3.85787">
        <ele>41.3</ele>
        <time>2017-10-27T10:11:48.454Z</time>
      </trkpt>
      <trkpt lat="43.60436" lon="3.85784">
        <ele>41.4</ele>
        <time>2017-10-27T10:11:49.443Z</time>
      </trkpt>
      <trkpt lat="43.60437" lon="3.85781">
        <ele>41.6</ele>
        <time>2017-10-27T10:11:50.446Z</time>
      </trkpt>
      <trkpt lat="43.60437" lon="3.85778">
        <ele>41.7</ele>
        <time>2017-10-27T10:11:51.432Z</time>
      </trkpt>
      <trkpt lat="43.60438" lon="3.85775">
        <ele>41.8</ele>
        <time>2017-10-27T10:11:52.442Z</time>
      </trkpt>
      <trkpt lat="43.60439" lon="3.85772">
        <ele>41.9</ele>
        <time>2017-10-27T10:11:53.445Z</time>
      </trkpt>
      <trkpt lat="43.6044" lon="3.85769">
        <ele>42.1</ele>
        <time>2017-10-27T10:11:54.444Z</time>
      </trkpt>
      <trkpt lat="43.6044" lon="3.85766">
        <ele>42.2</ele>
        <time>2017-10-27T10:11:55.444Z</time>
      </trkpt>
      <trkpt lat="43.60441" lon="3.85763">
        <ele>42.3</ele>
        <time>2017-10-27T10:11:56.443Z</time>
      </trkpt>
      <trkpt lat="43.60442" lon="3.8576">
        <ele>42.4</ele>
        <time>2017-10-27T10:11:57.449Z</time>
      </trkpt>
      <trkpt lat="43.60443" lon="3.85758">
        <ele>42.5</ele>
        <time>2017-10-27T10:11:58.430Z</time>
      </trkpt>
      <trkpt lat="43.60444" lon="3.85756">
        <ele>42.6</ele>
        <time>2017-10-27T10:11:59.434Z</time>
      </trkpt>
      <trkpt lat="43.60445" lon="3.85753">
        <ele>42.6</ele>
        <time>2017-10-27T10:12:00.434Z</time>
      </trkpt>
      <trkpt lat="43.60446" lon="3.8575">
        <ele>42.7</ele>
        <time>2017-10-27T10:12:01.453Z</time>
      </trkpt>
      <trkpt lat="43.60447" lon="3.85747">
        <ele>42.8</ele>
        <time>2017-10-27T10:12:02.446Z</time>
      </trkpt>
      <trkpt lat="43.60448" lon="3.85744">
        <ele>42.8</ele>
        <time>2017-10-27T10:12:03.446Z</time>
      </trkpt>
      <trkpt lat="43.60449" lon="3.85741">
        <ele>43</ele>
        <time>2017-10-27T10:12:04.441Z</time>
      </trkpt>
      <trkpt lat="43.6045" lon="3.85738">
        <ele>43.1</ele>
        <time>2017-10-27T10:12:05.448Z</time>
      </trkpt>
      <trkpt lat="43.6045" lon="3.85734">
        <ele>43.3</ele>
        <time>2017-10-27T10:12:06.447Z</time>
      </trkpt>
      <trkpt lat="43.60451" lon="3.85731">
        <ele>43.4</ele>
        <time>2017-10-27T10:12:07.445Z</time>
      </trkpt>
      <trkpt lat="43.60452" lon="3.85728">
        <ele>43.6</ele>
        <time>2017-10-27T10:12:08.432Z</time>
      </trkpt>
      <trkpt lat="43.60453" lon="3.85725">
        <ele>43.7</ele>
        <time>2017-10-27T10:12:09.437Z</time>
      </trkpt>
      <trkpt lat="43.60454" lon="3.85721">
        <ele>43.8</ele>
        <time>2017-10-27T10:12:10.442Z</time>
      </trkpt>
      <trkpt lat="43.60455" lon="3.85718">
        <ele>44</ele>
        <time>2017-10-27T10:12:11.439Z</time>
      </trkpt>
      <trkpt lat="43.60456" lon="3.85715">
        <ele>44.2</ele>
        <time>2017-10-27T10:12:12.446Z</time>
      </trkpt>
      <trkpt lat="43.60457" lon="3.85712">
        <ele>44.3</ele>
        <time>2017-10-27T10:12:13.433Z</time>
      </trkpt>
      <trkpt lat="43.60458" lon="3.85709">
        <ele>44.5</ele>
        <time>2017-10-27T10:12:14.475Z</time>
      </trkpt>
      <trkpt lat="43.60459" lon="3.85706">
        <ele>44.6</ele>
        <time>2017-10-27T10:12:15.442Z</time>
      </trkpt>
      <trkpt lat="43.6046" lon="3.85702">
        <ele>44.8</ele>
        <time>2017-10-27T10:12:16.450Z</time>
      </trkpt>
      <trkpt lat="43.60461" lon="3.85699">
        <ele>45</ele>
        <time>2017-10-27T10:12:17.445Z</time>
      </trkpt>
      <trkpt lat="43.60462" lon="3.85696">
        <ele>45.1</ele>
        <time>2017-10-27T10:12:18.445Z</time>
      </trkpt>
      <trkpt lat="43.60463" lon="3.85693">
        <ele>45.3</ele>
        <time>2017-10-27T10:12:19.445Z</time>
      </trkpt>
      <trkpt lat="43.60464" lon="3.85689">
        <ele>45.4</ele>
        <time>2017-10-27T10:12:20.432Z</time>
      </trkpt>
      <trkpt lat="43.60465" lon="3.85686">
        <ele>45.5</ele>
        <time>2017-10-27T10:12:21.431Z</time>
      </trkpt>
      <trkpt lat="43.60466" lon="3.85683">
        <ele>45.6</ele>
        <time>2017-10-27T10:12:22.430Z</time>
      </trkpt>
      <trkpt lat="43.60467" lon="3.8568">
        <ele>45.8</ele>
        <time>2017-10-27T10:12:23.434Z</time>
      </trkpt>
      <trkpt lat="43.60468" lon="3.85677">
        <ele>46</ele>
        <time>2017-10-27T10:12:24.440Z</time>
      </trkpt>
      <trkpt lat="43.60468" lon="3.85674">
        <ele>46.1</ele>
        <time>2017-10-27T10:12:25.432Z</time>
      </trkpt>
      <trkpt lat="43.60469" lon="3.85671">
        <ele>46.3</ele>
        <time>2017-10-27T10:12:26.445Z</time>
      </trkpt>
      <trkpt lat="43.6047" lon="3.85667">
        <ele>46.5</ele>
        <time>2017-10-27T10:12:27.434Z</time>
      </trkpt>
      <trkpt lat="43.60471" lon="3.85664">
        <ele>46.7</ele>
        <time>2017-10-27T10:12:28.444Z</time>
      </trkpt>
      <trkpt lat="43.60472" lon="3.85661">
        <ele>46.9</ele>
        <time>2017-10-27T10:12:29.446Z</time>
      </trkpt>
      <trkpt lat="43.60473" lon="3.85658">
        <ele>47.1</ele>
        <time>2017-10-27T10:12:30.449Z</time>
      </trkpt>
      <trkpt lat="43.60474" lon="3.85655">
        <ele>47.4</ele>
        <time>2017-10-27T10:12:31.445Z</time>
      </trkpt>
      <trkpt lat="43.60475" lon="3.85651">
        <ele>47.7</ele>
        <time>2017-10-27T10:12:32.447Z</time>
      </trkpt>
      <trkpt lat="43.60476" lon="3.85648">
        <ele>48.1</ele>
        <time>2017-10-27T10:12:33.446Z</time>
      </trkpt>
      <trkpt lat="43.60477" lon="3.85644">
        <ele>48.4</ele>
        <time>2017-10-27T10:12:34.451Z</time>
      </trkpt>
      <trkpt lat="43.60477" lon="3.85641">
        <ele>48.6</ele>
        <time>2017-10-27T10:12:35.452Z</time>
      </trkpt>
      <trkpt lat="43.60478" lon="3.85637">
        <ele>48.6</ele>
        <time>2017-10-27T10:12:36.448Z</time>
      </trkpt>
      <trkpt lat="43.60479" lon="3.85634">
        <ele>48.9</ele>
        <time>2017-10-27T10:12:37.454Z</time>
      </trkpt>
      <trkpt lat="43.60481" lon="3.85631">
        <ele>49</ele>
        <time>2017-10-27T10:12:38.447Z</time>
      </trkpt>
      <trkpt lat="43.60482" lon="3.85627">
        <ele>49.2</ele>
        <time>2017-10-27T10:12:39.456Z</time>
      </trkpt>
      <trkpt lat="43.60483" lon="3.85624">
        <ele>49.5</ele>
        <time>2017-10-27T10:12:40.444Z</time>
      </trkpt>
      <trkpt lat="43.60483" lon="3.8562">
        <ele>49.7</ele>
        <time>2017-10-27T10:12:41.446Z</time>
      </trkpt>
      <trkpt lat="43.60484" lon="3.85617">
        <ele>49.8</ele>
        <time>2017-10-27T10:12:42.448Z</time>
      </trkpt>
      <trkpt lat="43.60485" lon="3.85614">
        <ele>50.1</ele>
        <time>2017-10-27T10:12:43.452Z</time>
      </trkpt>
      <trkpt lat="43.60486" lon="3.85611">
        <ele>50.2</ele>
        <time>2017-10-27T10:12:44.455Z</time>
      </trkpt>
      <trkpt lat="43.60487" lon="3.85608">
        <ele>50.4</ele>
        <time>2017-10-27T10:12:45.436Z</time>
      </trkpt>
      <trkpt lat="43.60488" lon="3.85605">
        <ele>50.5</ele>
        <time>2017-10-27T10:12:46.432Z</time>
      </trkpt>
      <trkpt lat="43.60489" lon="3.85602">
        <ele>50.6</ele>
        <time>2017-10-27T10:12:47.432Z</time>
      </trkpt>
      <trkpt lat="43.6049" lon="3.85599">
        <ele>50.7</ele>
        <time>2017-10-27T10:12:48.435Z</time>
      </trkpt>
      <trkpt lat="43.60491" lon="3.85596">
        <ele>50.7</ele>
        <time>2017-10-27T10:12:49.448Z</time>
      </trkpt>
      <trkpt lat="43.60492" lon="3.85593">
        <ele>50.7</ele>
        <time>2017-10-27T10:12:50.437Z</time>
      </trkpt>
      <trkpt lat="43.60493" lon="3.8559">
        <ele>50.8</ele>
        <time>2017-10-27T10:12:51.432Z</time>
      </trkpt>
      <trkpt lat="43.60494" lon="3.85588">
        <ele>50.7</ele>
        <time>2017-10-27T10:12:52.434Z</time>
      </trkpt>
      <trkpt lat="43.60495" lon="3.85585">
        <ele>50.7</ele>
        <time>2017-10-27T10:12:53.459Z</time>
      </trkpt>
      <trkpt lat="43.60495" lon="3.85582">
        <ele>50.8</ele>
        <time>2017-10-27T10:12:54.448Z</time>
      </trkpt>
      <trkpt lat="43.60496" lon="3.85579">
        <ele>50.8</ele>
        <time>2017-10-27T10:12:55.465Z</time>
      </trkpt>
      <trkpt lat="43.60497" lon="3.85576">
        <ele>50.9</ele>
        <time>2017-10-27T10:12:56.431Z</time>
      </trkpt>
      <trkpt lat="43.60498" lon="3.85573">
        <ele>50.9</ele>
        <time>2017-10-27T10:12:57.433Z</time>
      </trkpt>
      <trkpt lat="43.60499" lon="3.8557">
        <ele>50.9</ele>
        <time>2017-10-27T10:12:58.450Z</time>
      </trkpt>
      <trkpt lat="43.60499" lon="3.85567">
        <ele>50.9</ele>
        <time>2017-10-27T10:12:59.450Z</time>
      </trkpt>
      <trkpt lat="43.605" lon="3.85564">
        <ele>51</ele>
        <time>2017-10-27T10:13:00.446Z</time>
      </trkpt>
      <trkpt lat="43.60501" lon="3.8556">
        <ele>51</ele>
        <time>2017-10-27T10:13:01.443Z</time>
      </trkpt>
      <trkpt lat="43.60502" lon="3.85557">
        <ele>51.1</ele>
        <time>2017-10-27T10:13:02.448Z</time>
      </trkpt>
      <trkpt lat="43.60503" lon="3.85554">
        <ele>51.1</ele>
        <time>2017-10-27T10:13:03.444Z</time>
      </trkpt>
      <trkpt lat="43.60503" lon="3.85551">
        <ele>51.2</ele>
        <time>2017-10-27T10:13:04.452Z</time>
      </trkpt>
      <trkpt lat="43.60504" lon="3.85547">
        <ele>51.3</ele>
        <time>2017-10-27T10:13:05.444Z</time>
      </trkpt>
      <trkpt lat="43.60504" lon="3.85544">
        <ele>51.5</ele>
        <time>2017-10-27T10:13:06.439Z</time>
      </trkpt>
      <trkpt lat="43.60505" lon="3.85541">
        <ele>51.7</ele>
        <time>2017-10-27T10:13:07.431Z</time>
      </trkpt>
      <trkpt lat="43.60506" lon="3.85538">
        <ele>51.8</ele>
        <time>2017-10-27T10:13:08.430Z</time>
      </trkpt>
      <trkpt lat="43.60507" lon="3.85535">
        <ele>51.9</ele>
        <time>2017-10-27T10:13:09.445Z</time>
      </trkpt>
      <trkpt lat="43.60508" lon="3.85532">
        <ele>51.8</ele>
        <time>2017-10-27T10:13:10.442Z</time>
      </trkpt>
      <trkpt lat="43.60508" lon="3.85528">
        <ele>51.9</ele>
        <time>2017-10-27T10:13:11.445Z</time>
      </trkpt>
      <trkpt lat="43.60509" lon="3.85525">
        <ele>51.9</ele>
        <time>2017-10-27T10:13:12.450Z</time>
      </trkpt>
      <trkpt lat="43.6051" lon="3.85522">
        <ele>51.9</ele>
        <time>2017-10-27T10:13:13.449Z</time>
      </trkpt>
      <trkpt lat="43.60511" lon="3.85519">
        <ele>51.9</ele>
        <time>2017-10-27T10:13:14.447Z</time>
      </trkpt>
      <trkpt lat="43.60512" lon="3.85516">
        <ele>51.8</ele>
        <time>2017-10-27T10:13:15.440Z</time>
      </trkpt>
      <trkpt lat="43.60513" lon="3.85513">
        <ele>51.9</ele>
        <time>2017-10-27T10:13:16.443Z</time>
      </trkpt>
      <trkpt lat="43.60513" lon="3.8551">
        <ele>52</ele>
        <time>2017-10-27T10:13:17.444Z</time>
      </trkpt>
      <trkpt lat="43.60514" lon="3.85507">
        <ele>51.9</ele>
        <time>2017-10-27T10:13:18.450Z</time>
      </trkpt>
      <trkpt lat="43.60515" lon="3.85504">
        <ele>51.9</ele>
        <time>2017-10-27T10:13:19.454Z</time>
      </trkpt>
      <trkpt lat="43.60516" lon="3.85501">
        <ele>52</ele>
        <time>2017-10-27T10:13:20.447Z</time>
      </trkpt>
      <trkpt lat="43.60516" lon="3.85498">
        <ele>52</ele>
        <time>2017-10-27T10:13:21.454Z</time>
      </trkpt>
      <trkpt lat="43.60517" lon="3.85494">
        <ele>52</ele>
        <time>2017-10-27T10:13:22.444Z</time>
      </trkpt>
      <trkpt lat="43.60517" lon="3.85491">
        <ele>52.2</ele>
        <time>2017-10-27T10:13:23.433Z</time>
      </trkpt>
      <trkpt lat="43.60518" lon="3.85488">
        <ele>52.3</ele>
        <time>2017-10-27T10:13:24.446Z</time>
      </trkpt>
      <trkpt lat="43.60519" lon="3.85485">
        <ele>52.4</ele>
        <time>2017-10-27T10:13:25.446Z</time>
      </trkpt>
      <trkpt lat="43.60519" lon="3.85481">
        <ele>52.4</ele>
        <time>2017-10-27T10:13:26.446Z</time>
      </trkpt>
      <trkpt lat="43.6052" lon="3.85478">
        <ele>52.4</ele>
        <time>2017-10-27T10:13:27.433Z</time>
      </trkpt>
      <trkpt lat="43.60521" lon="3.85474">
        <ele>52.3</ele>
        <time>2017-10-27T10:13:28.431Z</time>
      </trkpt>
      <trkpt lat="43.60522" lon="3.85471">
        <ele>52.4</ele>
        <time>2017-10-27T10:13:29.435Z</time>
      </trkpt>
      <trkpt lat="43.60523" lon="3.85468">
        <ele>52.3</ele>
        <time>2017-10-27T10:13:30.445Z</time>
      </trkpt>
      <trkpt lat="43.60524" lon="3.85465">
        <ele>52.2</ele>
        <time>2017-10-27T10:13:31.447Z</time>
      </trkpt>
      <trkpt lat="43.60525" lon="3.85462">
        <ele>52.3</ele>
        <time>2017-10-27T10:13:32.451Z</time>
      </trkpt>
      <trkpt lat="43.60526" lon="3.85459">
        <ele>52.1</ele>
        <time>2017-10-27T10:13:33.450Z</time>
      </trkpt>
      <trkpt lat="43.60527" lon="3.85455">
        <ele>52.5</ele>
        <time>2017-10-27T10:13:34.448Z</time>
      </trkpt>
      <trkpt lat="43.60528" lon="3.85452">
        <ele>52.6</ele>
        <time>2017-10-27T10:13:35.444Z</time>
      </trkpt>
      <trkpt lat="43.60528" lon="3.85449">
        <ele>52.7</ele>
        <time>2017-10-27T10:13:36.445Z</time>
      </trkpt>
      <trkpt lat="43.60529" lon="3.85447">
        <ele>52.7</ele>
        <time>2017-10-27T10:13:37.445Z</time>
      </trkpt>
      <trkpt lat="43.6053" lon="3.85444">
        <ele>52.8</ele>
        <time>2017-10-27T10:13:38.445Z</time>
      </trkpt>
      <trkpt lat="43.60531" lon="3.85441">
        <ele>52.9</ele>
        <time>2017-10-27T10:13:39.448Z</time>
      </trkpt>
      <trkpt lat="43.60531" lon="3.85438">
        <ele>53</ele>
        <time>2017-10-27T10:13:40.445Z</time>
      </trkpt>
      <trkpt lat="43.60532" lon="3.85435">
        <ele>53.1</ele>
        <time>2017-10-27T10:13:41.445Z</time>
      </trkpt>
      <trkpt lat="43.60533" lon="3.85432">
        <ele>53.3</ele>
        <time>2017-10-27T10:13:42.448Z</time>
      </trkpt>
      <trkpt lat="43.60534" lon="3.8543">
        <ele>53.2</ele>
        <time>2017-10-27T10:13:43.446Z</time>
      </trkpt>
      <trkpt lat="43.60535" lon="3.85427">
        <ele>52.9</ele>
        <time>2017-10-27T10:13:44.432Z</time>
      </trkpt>
      <trkpt lat="43.60536" lon="3.85424">
        <ele>52.8</ele>
        <time>2017-10-27T10:13:45.436Z</time>
      </trkpt>
      <trkpt lat="43.60536" lon="3.85422">
        <ele>52.9</ele>
        <time>2017-10-27T10:13:46.433Z</time>
      </trkpt>
      <trkpt lat="43.60537" lon="3.85418">
        <ele>53.2</ele>
        <time>2017-10-27T10:13:47.434Z</time>
      </trkpt>
      <trkpt lat="43.60538" lon="3.85415">
        <ele>53.3</ele>
        <time>2017-10-27T10:13:48.453Z</time>
      </trkpt>
      <trkpt lat="43.60538" lon="3.85413">
        <ele>53.5</ele>
        <time>2017-10-27T10:13:49.431Z</time>
      </trkpt>
      <trkpt lat="43.60539" lon="3.8541">
        <ele>53.5</ele>
        <time>2017-10-27T10:13:50.444Z</time>
      </trkpt>
      <trkpt lat="43.6054" lon="3.85407">
        <ele>53.6</ele>
        <time>2017-10-27T10:13:51.446Z</time>
      </trkpt>
      <trkpt lat="43.60541" lon="3.85404">
        <ele>53.8</ele>
        <time>2017-10-27T10:13:52.444Z</time>
      </trkpt>
      <trkpt lat="43.60541" lon="3.85401">
        <ele>53.8</ele>
        <time>2017-10-27T10:13:53.444Z</time>
      </trkpt>
      <trkpt lat="43.60542" lon="3.85398">
        <ele>53.9</ele>
        <time>2017-10-27T10:13:54.438Z</time>
      </trkpt>
      <trkpt lat="43.60542" lon="3.85395">
        <ele>54</ele>
        <time>2017-10-27T10:13:55.444Z</time>
      </trkpt>
      <trkpt lat="43.60543" lon="3.85392">
        <ele>54.2</ele>
        <time>2017-10-27T10:13:56.450Z</time>
      </trkpt>
      <trkpt lat="43.60544" lon="3.85389">
        <ele>54.4</ele>
        <time>2017-10-27T10:13:57.432Z</time>
      </trkpt>
      <trkpt lat="43.60545" lon="3.85386">
        <ele>54.3</ele>
        <time>2017-10-27T10:13:58.445Z</time>
      </trkpt>
      <trkpt lat="43.60546" lon="3.85384">
        <ele>53.9</ele>
        <time>2017-10-27T10:13:59.446Z</time>
      </trkpt>
      <trkpt lat="43.60547" lon="3.85381">
        <ele>54</ele>
        <time>2017-10-27T10:14:00.446Z</time>
      </trkpt>
      <trkpt lat="43.60547" lon="3.85378">
        <ele>54</ele>
        <time>2017-10-27T10:14:01.445Z</time>
      </trkpt>
      <trkpt lat="43.60548" lon="3.85375">
        <ele>54.1</ele>
        <time>2017-10-27T10:14:02.432Z</time>
      </trkpt>
      <trkpt lat="43.60549" lon="3.85372">
        <ele>54.6</ele>
        <time>2017-10-27T10:14:03.432Z</time>
      </trkpt>
      <trkpt lat="43.6055" lon="3.85369">
        <ele>54.8</ele>
        <time>2017-10-27T10:14:04.431Z</time>
      </trkpt>
      <trkpt lat="43.60551" lon="3.85366">
        <ele>55.1</ele>
        <time>2017-10-27T10:14:05.443Z</time>
      </trkpt>
      <trkpt lat="43.60551" lon="3.85363">
        <ele>55.3</ele>
        <time>2017-10-27T10:14:06.449Z</time>
      </trkpt>
      <trkpt lat="43.60552" lon="3.8536">
        <ele>55.2</ele>
        <time>2017-10-27T10:14:07.435Z</time>
      </trkpt>
      <trkpt lat="43.60553" lon="3.85357">
        <ele>54.9</ele>
        <time>2017-10-27T10:14:08.447Z</time>
      </trkpt>
      <trkpt lat="43.60554" lon="3.85354">
        <ele>55.1</ele>
        <time>2017-10-27T10:14:09.445Z</time>
      </trkpt>
      <trkpt lat="43.60555" lon="3.85351">
        <ele>55.5</ele>
        <time>2017-10-27T10:14:10.444Z</time>
      </trkpt>
      <trkpt lat="43.60555" lon="3.85348">
        <ele>55.5</ele>
        <time>2017-10-27T10:14:11.445Z</time>
      </trkpt>
      <trkpt lat="43.60556" lon="3.85345">
        <ele>55.4</ele>
        <time>2017-10-27T10:14:12.456Z</time>
      </trkpt>
      <trkpt lat="43.60557" lon="3.85343">
        <ele>55.4</ele>
        <time>2017-10-27T10:14:13.451Z</time>
      </trkpt>
      <trkpt lat="43.60558" lon="3.8534">
        <ele>55.5</ele>
        <time>2017-10-27T10:14:14.444Z</time>
      </trkpt>
      <trkpt lat="43.6056" lon="3.85337">
        <ele>55.7</ele>
        <time>2017-10-27T10:14:15.445Z</time>
      </trkpt>
      <trkpt lat="43.60561" lon="3.85335">
        <ele>55.4</ele>
        <time>2017-10-27T10:14:16.446Z</time>
      </trkpt>
      <trkpt lat="43.60563" lon="3.85332">
        <ele>55.6</ele>
        <time>2017-10-27T10:14:17.445Z</time>
      </trkpt>
      <trkpt lat="43.60564" lon="3.85328">
        <ele>56.2</ele>
        <time>2017-10-27T10:14:18.446Z</time>
      </trkpt>
      <trkpt lat="43.60565" lon="3.85325">
        <ele>56.5</ele>
        <time>2017-10-27T10:14:19.445Z</time>
      </trkpt>
      <trkpt lat="43.60566" lon="3.85322">
        <ele>57.2</ele>
        <time>2017-10-27T10:14:20.445Z</time>
      </trkpt>
      <trkpt lat="43.60567" lon="3.85319">
        <ele>57.6</ele>
        <time>2017-10-27T10:14:21.432Z</time>
      </trkpt>
      <trkpt lat="43.60568" lon="3.85316">
        <ele>57.8</ele>
        <time>2017-10-27T10:14:22.444Z</time>
      </trkpt>
      <trkpt lat="43.6057" lon="3.85312">
        <ele>58</ele>
        <time>2017-10-27T10:14:23.433Z</time>
      </trkpt>
      <trkpt lat="43.60571" lon="3.85309">
        <ele>58.2</ele>
        <time>2017-10-27T10:14:24.432Z</time>
      </trkpt>
      <trkpt lat="43.60572" lon="3.85305">
        <ele>58.7</ele>
        <time>2017-10-27T10:14:25.437Z</time>
      </trkpt>
      <trkpt lat="43.60573" lon="3.85301">
        <ele>59.1</ele>
        <time>2017-10-27T10:14:26.461Z</time>
      </trkpt>
      <trkpt lat="43.60575" lon="3.85298">
        <ele>59.4</ele>
        <time>2017-10-27T10:14:27.446Z</time>
      </trkpt>
      <trkpt lat="43.60576" lon="3.85294">
        <ele>59.7</ele>
        <time>2017-10-27T10:14:28.444Z</time>
      </trkpt>
      <trkpt lat="43.60577" lon="3.85291">
        <ele>60</ele>
        <time>2017-10-27T10:14:29.445Z</time>
      </trkpt>
      <trkpt lat="43.60578" lon="3.85288">
        <ele>59.7</ele>
        <time>2017-10-27T10:14:30.446Z</time>
      </trkpt>
      <trkpt lat="43.6058" lon="3.85285">
        <ele>59.3</ele>
        <time>2017-10-27T10:14:31.446Z</time>
      </trkpt>
      <trkpt lat="43.60581" lon="3.85282">
        <ele>59.5</ele>
        <time>2017-10-27T10:14:32.446Z</time>
      </trkpt>
      <trkpt lat="43.60582" lon="3.85279">
        <ele>59.5</ele>
        <time>2017-10-27T10:14:33.444Z</time>
      </trkpt>
      <trkpt lat="43.60583" lon="3.85275">
        <ele>59.6</ele>
        <time>2017-10-27T10:14:34.449Z</time>
      </trkpt>
      <trkpt lat="43.60585" lon="3.85272">
        <ele>59.7</ele>
        <time>2017-10-27T10:14:35.445Z</time>
      </trkpt>
      <trkpt lat="43.60586" lon="3.8527">
        <ele>59.8</ele>
        <time>2017-10-27T10:14:36.446Z</time>
      </trkpt>
      <trkpt lat="43.60587" lon="3.85266">
        <ele>59.9</ele>
        <time>2017-10-27T10:14:37.446Z</time>
      </trkpt>
      <trkpt lat="43.60588" lon="3.85264">
        <ele>59.9</ele>
        <time>2017-10-27T10:14:38.442Z</time>
      </trkpt>
      <trkpt lat="43.6059" lon="3.85261">
        <ele>60.1</ele>
        <time>2017-10-27T10:14:39.454Z</time>
      </trkpt>
      <trkpt lat="43.60591" lon="3.85258">
        <ele>60</ele>
        <time>2017-10-27T10:14:40.447Z</time>
      </trkpt>
      <trkpt lat="43.60593" lon="3.85255">
        <ele>60.2</ele>
        <time>2017-10-27T10:14:41.446Z</time>
      </trkpt>
      <trkpt lat="43.60594" lon="3.85252">
        <ele>60.3</ele>
        <time>2017-10-27T10:14:42.434Z</time>
      </trkpt>
      <trkpt lat="43.60595" lon="3.8525">
        <ele>60.5</ele>
        <time>2017-10-27T10:14:43.432Z</time>
      </trkpt>
      <trkpt lat="43.60596" lon="3.85247">
        <ele>60.9</ele>
        <time>2017-10-27T10:14:44.432Z</time>
      </trkpt>
      <trkpt lat="43.60597" lon="3.85244">
        <ele>61.5</ele>
        <time>2017-10-27T10:14:45.440Z</time>
      </trkpt>
      <trkpt lat="43.60599" lon="3.85241">
        <ele>61.4</ele>
        <time>2017-10-27T10:14:46.439Z</time>
      </trkpt>
      <trkpt lat="43.606" lon="3.85238">
        <ele>61.2</ele>
        <time>2017-10-27T10:14:47.448Z</time>
      </trkpt>
      <trkpt lat="43.60601" lon="3.85235">
        <ele>61</ele>
        <time>2017-10-27T10:14:48.453Z</time>
      </trkpt>
      <trkpt lat="43.60603" lon="3.85233">
        <ele>60.9</ele>
        <time>2017-10-27T10:14:49.461Z</time>
      </trkpt>
      <trkpt lat="43.60605" lon="3.8523">
        <ele>60.8</ele>
        <time>2017-10-27T10:14:50.450Z</time>
      </trkpt>
      <trkpt lat="43.60606" lon="3.85227">
        <ele>60.8</ele>
        <time>2017-10-27T10:14:51.461Z</time>
      </trkpt>
      <trkpt lat="43.60608" lon="3.85224">
        <ele>60.9</ele>
        <time>2017-10-27T10:14:52.445Z</time>
      </trkpt>
      <trkpt lat="43.60609" lon="3.85221">
        <ele>60.9</ele>
        <time>2017-10-27T10:14:53.448Z</time>
      </trkpt>
      <trkpt lat="43.60611" lon="3.85219">
        <ele>60.8</ele>
        <time>2017-10-27T10:14:54.433Z</time>
      </trkpt>
      <trkpt lat="43.60613" lon="3.85216">
        <ele>60.9</ele>
        <time>2017-10-27T10:14:55.448Z</time>
      </trkpt>
      <trkpt lat="43.60614" lon="3.85213">
        <ele>60.8</ele>
        <time>2017-10-27T10:14:56.452Z</time>
      </trkpt>
      <trkpt lat="43.60616" lon="3.8521">
        <ele>60.7</ele>
        <time>2017-10-27T10:14:57.445Z</time>
      </trkpt>
      <trkpt lat="43.60617" lon="3.85207">
        <ele>60.4</ele>
        <time>2017-10-27T10:14:58.448Z</time>
      </trkpt>
      <trkpt lat="43.60619" lon="3.85204">
        <ele>60.9</ele>
        <time>2017-10-27T10:14:59.447Z</time>
      </trkpt>
      <trkpt lat="43.6062" lon="3.85201">
        <ele>61</ele>
        <time>2017-10-27T10:15:00.448Z</time>
      </trkpt>
      <trkpt lat="43.60622" lon="3.85199">
        <ele>60.9</ele>
        <time>2017-10-27T10:15:01.448Z</time>
      </trkpt>
      <trkpt lat="43.60624" lon="3.85197">
        <ele>60.8</ele>
        <time>2017-10-27T10:15:02.450Z</time>
      </trkpt>
      <trkpt lat="43.60626" lon="3.85195">
        <ele>60.6</ele>
        <time>2017-10-27T10:15:03.458Z</time>
      </trkpt>
      <trkpt lat="43.60628" lon="3.85194">
        <ele>60.4</ele>
        <time>2017-10-27T10:15:04.450Z</time>
      </trkpt>
      <trkpt lat="43.6063" lon="3.85192">
        <ele>60.1</ele>
        <time>2017-10-27T10:15:05.446Z</time>
      </trkpt>
      <trkpt lat="43.60632" lon="3.8519">
        <ele>60</ele>
        <time>2017-10-27T10:15:06.445Z</time>
      </trkpt>
      <trkpt lat="43.60633" lon="3.85187">
        <ele>59.9</ele>
        <time>2017-10-27T10:15:07.434Z</time>
      </trkpt>
      <trkpt lat="43.60635" lon="3.85184">
        <ele>60.1</ele>
        <time>2017-10-27T10:15:08.431Z</time>
      </trkpt>
      <trkpt lat="43.60636" lon="3.85182">
        <ele>60.1</ele>
        <time>2017-10-27T10:15:09.432Z</time>
      </trkpt>
      <trkpt lat="43.60638" lon="3.8518">
        <ele>60</ele>
        <time>2017-10-27T10:15:10.431Z</time>
      </trkpt>
      <trkpt lat="43.6064" lon="3.85177">
        <ele>60</ele>
        <time>2017-10-27T10:15:11.436Z</time>
      </trkpt>
      <trkpt lat="43.60642" lon="3.85175">
        <ele>60</ele>
        <time>2017-10-27T10:15:12.446Z</time>
      </trkpt>
      <trkpt lat="43.60643" lon="3.85173">
        <ele>60.1</ele>
        <time>2017-10-27T10:15:13.444Z</time>
      </trkpt>
      <trkpt lat="43.60645" lon="3.8517">
        <ele>60.1</ele>
        <time>2017-10-27T10:15:14.450Z</time>
      </trkpt>
      <trkpt lat="43.60647" lon="3.85168">
        <ele>60.2</ele>
        <time>2017-10-27T10:15:15.446Z</time>
      </trkpt>
      <trkpt lat="43.60648" lon="3.85166">
        <ele>60.3</ele>
        <time>2017-10-27T10:15:16.443Z</time>
      </trkpt>
      <trkpt lat="43.6065" lon="3.85164">
        <ele>60.5</ele>
        <time>2017-10-27T10:15:17.441Z</time>
      </trkpt>
      <trkpt lat="43.60652" lon="3.85162">
        <ele>60.6</ele>
        <time>2017-10-27T10:15:18.451Z</time>
      </trkpt>
      <trkpt lat="43.60653" lon="3.85159">
        <ele>60.6</ele>
        <time>2017-10-27T10:15:19.444Z</time>
      </trkpt>
      <trkpt lat="43.60655" lon="3.85157">
        <ele>60.8</ele>
        <time>2017-10-27T10:15:20.444Z</time>
      </trkpt>
      <trkpt lat="43.60657" lon="3.85154">
        <ele>61</ele>
        <time>2017-10-27T10:15:21.453Z</time>
      </trkpt>
      <trkpt lat="43.60659" lon="3.85152">
        <ele>61</ele>
        <time>2017-10-27T10:15:22.436Z</time>
      </trkpt>
      <trkpt lat="43.6066" lon="3.8515">
        <ele>61.1</ele>
        <time>2017-10-27T10:15:23.445Z</time>
      </trkpt>
      <trkpt lat="43.60662" lon="3.85147">
        <ele>61.2</ele>
        <time>2017-10-27T10:15:24.456Z</time>
      </trkpt>
      <trkpt lat="43.60663" lon="3.85145">
        <ele>61.3</ele>
        <time>2017-10-27T10:15:25.445Z</time>
      </trkpt>
      <trkpt lat="43.60665" lon="3.85142">
        <ele>61.4</ele>
        <time>2017-10-27T10:15:26.445Z</time>
      </trkpt>
      <trkpt lat="43.60667" lon="3.8514">
        <ele>61.4</ele>
        <time>2017-10-27T10:15:27.445Z</time>
      </trkpt>
      <trkpt lat="43.60668" lon="3.85138">
        <ele>61.4</ele>
        <time>2017-10-27T10:15:28.446Z</time>
      </trkpt>
      <trkpt lat="43.6067" lon="3.85136">
        <ele>61.5</ele>
        <time>2017-10-27T10:15:29.445Z</time>
      </trkpt>
      <trkpt lat="43.60671" lon="3.85133">
        <ele>61.6</ele>
        <time>2017-10-27T10:15:30.432Z</time>
      </trkpt>
      <trkpt lat="43.60673" lon="3.85131">
        <ele>61.6</ele>
        <time>2017-10-27T10:15:31.434Z</time>
      </trkpt>
      <trkpt lat="43.60675" lon="3.85129">
        <ele>61.7</ele>
        <time>2017-10-27T10:15:32.434Z</time>
      </trkpt>
      <trkpt lat="43.60677" lon="3.85126">
        <ele>62</ele>
        <time>2017-10-27T10:15:33.435Z</time>
      </trkpt>
      <trkpt lat="43.60679" lon="3.85123">
        <ele>61.9</ele>
        <time>2017-10-27T10:15:34.431Z</time>
      </trkpt>
      <trkpt lat="43.6068" lon="3.8512">
        <ele>61.9</ele>
        <time>2017-10-27T10:15:35.432Z</time>
      </trkpt>
      <trkpt lat="43.60682" lon="3.85117">
        <ele>61.9</ele>
        <time>2017-10-27T10:15:36.446Z</time>
      </trkpt>
      <trkpt lat="43.60684" lon="3.85114">
        <ele>62</ele>
        <time>2017-10-27T10:15:37.434Z</time>
      </trkpt>
      <trkpt lat="43.60686" lon="3.85111">
        <ele>62.1</ele>
        <time>2017-10-27T10:15:38.448Z</time>
      </trkpt>
      <trkpt lat="43.60687" lon="3.85108">
        <ele>62.2</ele>
        <time>2017-10-27T10:15:39.445Z</time>
      </trkpt>
      <trkpt lat="43.60689" lon="3.85105">
        <ele>62.3</ele>
        <time>2017-10-27T10:15:40.444Z</time>
      </trkpt>
      <trkpt lat="43.60691" lon="3.85102">
        <ele>62.4</ele>
        <time>2017-10-27T10:15:41.445Z</time>
      </trkpt>
      <trkpt lat="43.60693" lon="3.851">
        <ele>62.4</ele>
        <time>2017-10-27T10:15:42.448Z</time>
      </trkpt>
      <trkpt lat="43.60694" lon="3.85097">
        <ele>62.4</ele>
        <time>2017-10-27T10:15:43.444Z</time>
      </trkpt>
      <trkpt lat="43.60695" lon="3.85094">
        <ele>62.6</ele>
        <time>2017-10-27T10:15:44.431Z</time>
      </trkpt>
      <trkpt lat="43.60697" lon="3.85091">
        <ele>62.7</ele>
        <time>2017-10-27T10:15:45.444Z</time>
      </trkpt>
      <trkpt lat="43.60698" lon="3.85089">
        <ele>62.6</ele>
        <time>2017-10-27T10:15:46.438Z</time>
      </trkpt>
      <trkpt lat="43.607" lon="3.85086">
        <ele>62.6</ele>
        <time>2017-10-27T10:15:47.437Z</time>
      </trkpt>
      <trkpt lat="43.60701" lon="3.85083">
        <ele>62.7</ele>
        <time>2017-10-27T10:15:48.435Z</time>
      </trkpt>
      <trkpt lat="43.60703" lon="3.8508">
        <ele>62.8</ele>
        <time>2017-10-27T10:15:49.433Z</time>
      </trkpt>
      <trkpt lat="43.60705" lon="3.85077">
        <ele>62.9</ele>
        <time>2017-10-27T10:15:50.433Z</time>
      </trkpt>
      <trkpt lat="43.60706" lon="3.85074">
        <ele>63</ele>
        <time>2017-10-27T10:15:51.432Z</time>
      </trkpt>
      <trkpt lat="43.60707" lon="3.85071">
        <ele>63</ele>
        <time>2017-10-27T10:15:52.445Z</time>
      </trkpt>
      <trkpt lat="43.60709" lon="3.85068">
        <ele>63</ele>
        <time>2017-10-27T10:15:53.445Z</time>
      </trkpt>
      <trkpt lat="43.60709" lon="3.85064">
        <ele>63</ele>
        <time>2017-10-27T10:15:54.453Z</time>
      </trkpt>
      <trkpt lat="43.6071" lon="3.85061">
        <ele>63</ele>
        <time>2017-10-27T10:15:55.445Z</time>
      </trkpt>
      <trkpt lat="43.60711" lon="3.85058">
        <ele>63</ele>
        <time>2017-10-27T10:15:56.444Z</time>
      </trkpt>
      <trkpt lat="43.60712" lon="3.85054">
        <ele>63.1</ele>
        <time>2017-10-27T10:15:57.443Z</time>
      </trkpt>
      <trkpt lat="43.60713" lon="3.85052">
        <ele>63.2</ele>
        <time>2017-10-27T10:15:58.446Z</time>
      </trkpt>
      <trkpt lat="43.60714" lon="3.85049">
        <ele>63.2</ele>
        <time>2017-10-27T10:15:59.445Z</time>
      </trkpt>
      <trkpt lat="43.60715" lon="3.85047">
        <ele>63.2</ele>
        <time>2017-10-27T10:16:00.445Z</time>
      </trkpt>
      <trkpt lat="43.60716" lon="3.85045">
        <ele>63.3</ele>
        <time>2017-10-27T10:16:01.445Z</time>
      </trkpt>
      <trkpt lat="43.60717" lon="3.85042">
        <ele>63.3</ele>
        <time>2017-10-27T10:16:02.445Z</time>
      </trkpt>
      <trkpt lat="43.60717" lon="3.85038">
        <ele>63.2</ele>
        <time>2017-10-27T10:16:03.445Z</time>
      </trkpt>
      <trkpt lat="43.60718" lon="3.85035">
        <ele>63.2</ele>
        <time>2017-10-27T10:16:04.449Z</time>
      </trkpt>
      <trkpt lat="43.60719" lon="3.85031">
        <ele>63.3</ele>
        <time>2017-10-27T10:16:05.447Z</time>
      </trkpt>
      <trkpt lat="43.6072" lon="3.85027">
        <ele>63.3</ele>
        <time>2017-10-27T10:16:06.433Z</time>
      </trkpt>
      <trkpt lat="43.60721" lon="3.85024">
        <ele>63.3</ele>
        <time>2017-10-27T10:16:07.432Z</time>
      </trkpt>
      <trkpt lat="43.60722" lon="3.8502">
        <ele>62.9</ele>
        <time>2017-10-27T10:16:08.434Z</time>
      </trkpt>
      <trkpt lat="43.60723" lon="3.85017">
        <ele>62.9</ele>
        <time>2017-10-27T10:16:09.436Z</time>
      </trkpt>
      <trkpt lat="43.60724" lon="3.85013">
        <ele>62.9</ele>
        <time>2017-10-27T10:16:10.445Z</time>
      </trkpt>
      <trkpt lat="43.60725" lon="3.85009">
        <ele>62.8</ele>
        <time>2017-10-27T10:16:11.445Z</time>
      </trkpt>
      <trkpt lat="43.60726" lon="3.85005">
        <ele>62.8</ele>
        <time>2017-10-27T10:16:12.455Z</time>
      </trkpt>
      <trkpt lat="43.60727" lon="3.85002">
        <ele>62.7</ele>
        <time>2017-10-27T10:16:13.449Z</time>
      </trkpt>
      <trkpt lat="43.60729" lon="3.84998">
        <ele>62.6</ele>
        <time>2017-10-27T10:16:14.451Z</time>
      </trkpt>
      <trkpt lat="43.6073" lon="3.84994">
        <ele>62.5</ele>
        <time>2017-10-27T10:16:15.448Z</time>
      </trkpt>
      <trkpt lat="43.60732" lon="3.84991">
        <ele>62.5</ele>
        <time>2017-10-27T10:16:16.454Z</time>
      </trkpt>
      <trkpt lat="43.60734" lon="3.84988">
        <ele>62.6</ele>
        <time>2017-10-27T10:16:17.454Z</time>
      </trkpt>
      <trkpt lat="43.60736" lon="3.84985">
        <ele>62.6</ele>
        <time>2017-10-27T10:16:18.450Z</time>
      </trkpt>
      <trkpt lat="43.60738" lon="3.84982">
        <ele>62.6</ele>
        <time>2017-10-27T10:16:19.445Z</time>
      </trkpt>
      <trkpt lat="43.6074" lon="3.84979">
        <ele>62.5</ele>
        <time>2017-10-27T10:16:20.447Z</time>
      </trkpt>
      <trkpt lat="43.60741" lon="3.84975">
        <ele>62.5</ele>
        <time>2017-10-27T10:16:21.445Z</time>
      </trkpt>
      <trkpt lat="43.60743" lon="3.84972">
        <ele>62.5</ele>
        <time>2017-10-27T10:16:22.445Z</time>
      </trkpt>
      <trkpt lat="43.60745" lon="3.84969">
        <ele>62.5</ele>
        <time>2017-10-27T10:16:23.445Z</time>
      </trkpt>
      <trkpt lat="43.60747" lon="3.84966">
        <ele>62.6</ele>
        <time>2017-10-27T10:16:24.446Z</time>
      </trkpt>
      <trkpt lat="43.60748" lon="3.84963">
        <ele>62.6</ele>
        <time>2017-10-27T10:16:25.432Z</time>
      </trkpt>
      <trkpt lat="43.6075" lon="3.8496">
        <ele>62.6</ele>
        <time>2017-10-27T10:16:26.432Z</time>
      </trkpt>
      <trkpt lat="43.60752" lon="3.84956">
        <ele>62.7</ele>
        <time>2017-10-27T10:16:27.433Z</time>
      </trkpt>
      <trkpt lat="43.60754" lon="3.84953">
        <ele>62.6</ele>
        <time>2017-10-27T10:16:28.438Z</time>
      </trkpt>
      <trkpt lat="43.60755" lon="3.8495">
        <ele>62.6</ele>
        <time>2017-10-27T10:16:29.445Z</time>
      </trkpt>
      <trkpt lat="43.60757" lon="3.84947">
        <ele>62.6</ele>
        <time>2017-10-27T10:16:30.448Z</time>
      </trkpt>
      <trkpt lat="43.60759" lon="3.84944">
        <ele>62.6</ele>
        <time>2017-10-27T10:16:31.449Z</time>
      </trkpt>
      <trkpt lat="43.6076" lon="3.84941">
        <ele>62.6</ele>
        <time>2017-10-27T10:16:32.448Z</time>
      </trkpt>
      <trkpt lat="43.60762" lon="3.84938">
        <ele>62.6</ele>
        <time>2017-10-27T10:16:33.448Z</time>
      </trkpt>
      <trkpt lat="43.60763" lon="3.84935">
        <ele>62.7</ele>
        <time>2017-10-27T10:16:34.446Z</time>
      </trkpt>
      <trkpt lat="43.60765" lon="3.84932">
        <ele>62.7</ele>
        <time>2017-10-27T10:16:35.447Z</time>
      </trkpt>
      <trkpt lat="43.60767" lon="3.84929">
        <ele>62.7</ele>
        <time>2017-10-27T10:16:36.446Z</time>
      </trkpt>
      <trkpt lat="43.60768" lon="3.84926">
        <ele>62.8</ele>
        <time>2017-10-27T10:16:37.458Z</time>
      </trkpt>
      <trkpt lat="43.6077" lon="3.84923">
        <ele>62.8</ele>
        <time>2017-10-27T10:16:38.445Z</time>
      </trkpt>
      <trkpt lat="43.60772" lon="3.8492">
        <ele>62.8</ele>
        <time>2017-10-27T10:16:39.450Z</time>
      </trkpt>
      <trkpt lat="43.60773" lon="3.84918">
        <ele>62.8</ele>
        <time>2017-10-27T10:16:40.444Z</time>
      </trkpt>
      <trkpt lat="43.60775" lon="3.84915">
        <ele>63</ele>
        <time>2017-10-27T10:16:41.432Z</time>
      </trkpt>
      <trkpt lat="43.60777" lon="3.84913">
        <ele>63</ele>
        <time>2017-10-27T10:16:42.433Z</time>
      </trkpt>
      <trkpt lat="43.60778" lon="3.8491">
        <ele>63.1</ele>
        <time>2017-10-27T10:16:43.432Z</time>
      </trkpt>
      <trkpt lat="43.6078" lon="3.84907">
        <ele>63.1</ele>
        <time>2017-10-27T10:16:44.445Z</time>
      </trkpt>
      <trkpt lat="43.60781" lon="3.84905">
        <ele>63.1</ele>
        <time>2017-10-27T10:16:45.443Z</time>
      </trkpt>
      <trkpt lat="43.60783" lon="3.84902">
        <ele>63.1</ele>
        <time>2017-10-27T10:16:46.444Z</time>
      </trkpt>
      <trkpt lat="43.60784" lon="3.84899">
        <ele>63.2</ele>
        <time>2017-10-27T10:16:47.434Z</time>
      </trkpt>
      <trkpt lat="43.60786" lon="3.84896">
        <ele>63.2</ele>
        <time>2017-10-27T10:16:48.434Z</time>
      </trkpt>
      <trkpt lat="43.60787" lon="3.84894">
        <ele>63.2</ele>
        <time>2017-10-27T10:16:49.436Z</time>
      </trkpt>
      <trkpt lat="43.60789" lon="3.84891">
        <ele>63.2</ele>
        <time>2017-10-27T10:16:50.437Z</time>
      </trkpt>
      <trkpt lat="43.60791" lon="3.84889">
        <ele>63.2</ele>
        <time>2017-10-27T10:16:51.446Z</time>
      </trkpt>
      <trkpt lat="43.60792" lon="3.84886">
        <ele>63.2</ele>
        <time>2017-10-27T10:16:52.448Z</time>
      </trkpt>
      <trkpt lat="43.60794" lon="3.84884">
        <ele>63.1</ele>
        <time>2017-10-27T10:16:53.444Z</time>
      </trkpt>
      <trkpt lat="43.60796" lon="3.84881">
        <ele>62.9</ele>
        <time>2017-10-27T10:16:54.447Z</time>
      </trkpt>
      <trkpt lat="43.60797" lon="3.84878">
        <ele>62.8</ele>
        <time>2017-10-27T10:16:55.450Z</time>
      </trkpt>
      <trkpt lat="43.60799" lon="3.84875">
        <ele>62.7</ele>
        <time>2017-10-27T10:16:56.435Z</time>
      </trkpt>
      <trkpt lat="43.60801" lon="3.84872">
        <ele>62.8</ele>
        <time>2017-10-27T10:16:57.433Z</time>
      </trkpt>
      <trkpt lat="43.60802" lon="3.84869">
        <ele>62.8</ele>
        <time>2017-10-27T10:16:58.444Z</time>
      </trkpt>
      <trkpt lat="43.60804" lon="3.84866">
        <ele>62.9</ele>
        <time>2017-10-27T10:16:59.445Z</time>
      </trkpt>
      <trkpt lat="43.60805" lon="3.84863">
        <ele>62.9</ele>
        <time>2017-10-27T10:17:00.453Z</time>
      </trkpt>
      <trkpt lat="43.60807" lon="3.84861">
        <ele>62.9</ele>
        <time>2017-10-27T10:17:01.445Z</time>
      </trkpt>
      <trkpt lat="43.60808" lon="3.84858">
        <ele>62.9</ele>
        <time>2017-10-27T10:17:02.456Z</time>
      </trkpt>
      <trkpt lat="43.6081" lon="3.84855">
        <ele>62.9</ele>
        <time>2017-10-27T10:17:03.446Z</time>
      </trkpt>
      <trkpt lat="43.60811" lon="3.84853">
        <ele>62.9</ele>
        <time>2017-10-27T10:17:04.446Z</time>
      </trkpt>
      <trkpt lat="43.60813" lon="3.8485">
        <ele>63</ele>
        <time>2017-10-27T10:17:05.447Z</time>
      </trkpt>
      <trkpt lat="43.60814" lon="3.84848">
        <ele>63</ele>
        <time>2017-10-27T10:17:06.437Z</time>
      </trkpt>
      <trkpt lat="43.60815" lon="3.84845">
        <ele>63</ele>
        <time>2017-10-27T10:17:07.448Z</time>
      </trkpt>
      <trkpt lat="43.60817" lon="3.84843">
        <ele>63.1</ele>
        <time>2017-10-27T10:17:08.447Z</time>
      </trkpt>
      <trkpt lat="43.60818" lon="3.84841">
        <ele>63.1</ele>
        <time>2017-10-27T10:17:09.432Z</time>
      </trkpt>
      <trkpt lat="43.60819" lon="3.84839">
        <ele>63.2</ele>
        <time>2017-10-27T10:17:10.432Z</time>
      </trkpt>
      <trkpt lat="43.60821" lon="3.84836">
        <ele>63.3</ele>
        <time>2017-10-27T10:17:11.440Z</time>
      </trkpt>
      <trkpt lat="43.60822" lon="3.84834">
        <ele>63.3</ele>
        <time>2017-10-27T10:17:12.446Z</time>
      </trkpt>
      <trkpt lat="43.60823" lon="3.84831">
        <ele>63.4</ele>
        <time>2017-10-27T10:17:13.445Z</time>
      </trkpt>
      <trkpt lat="43.60825" lon="3.84829">
        <ele>63.5</ele>
        <time>2017-10-27T10:17:14.446Z</time>
      </trkpt>
      <trkpt lat="43.60826" lon="3.84827">
        <ele>63.5</ele>
        <time>2017-10-27T10:17:15.452Z</time>
      </trkpt>
      <trkpt lat="43.60828" lon="3.84824">
        <ele>63.6</ele>
        <time>2017-10-27T10:17:16.451Z</time>
      </trkpt>
      <trkpt lat="43.60829" lon="3.84822">
        <ele>63.7</ele>
        <time>2017-10-27T10:17:17.447Z</time>
      </trkpt>
      <trkpt lat="43.60831" lon="3.8482">
        <ele>63.8</ele>
        <time>2017-10-27T10:17:18.437Z</time>
      </trkpt>
      <trkpt lat="43.60832" lon="3.84817">
        <ele>63.9</ele>
        <time>2017-10-27T10:17:19.438Z</time>
      </trkpt>
      <trkpt lat="43.60834" lon="3.84815">
        <ele>64</ele>
        <time>2017-10-27T10:17:20.460Z</time>
      </trkpt>
      <trkpt lat="43.60835" lon="3.84812">
        <ele>64.1</ele>
        <time>2017-10-27T10:17:21.448Z</time>
      </trkpt>
      <trkpt lat="43.60836" lon="3.8481">
        <ele>64.3</ele>
        <time>2017-10-27T10:17:22.448Z</time>
      </trkpt>
      <trkpt lat="43.60838" lon="3.84807">
        <ele>64.5</ele>
        <time>2017-10-27T10:17:23.471Z</time>
      </trkpt>
      <trkpt lat="43.60839" lon="3.84805">
        <ele>64.6</ele>
        <time>2017-10-27T10:17:24.447Z</time>
      </trkpt>
      <trkpt lat="43.6084" lon="3.84803">
        <ele>64.7</ele>
        <time>2017-10-27T10:17:25.445Z</time>
      </trkpt>
      <trkpt lat="43.60842" lon="3.84801">
        <ele>64.7</ele>
        <time>2017-10-27T10:17:26.445Z</time>
      </trkpt>
      <trkpt lat="43.60843" lon="3.84798">
        <ele>64.6</ele>
        <time>2017-10-27T10:17:27.455Z</time>
      </trkpt>
      <trkpt lat="43.60844" lon="3.84796">
        <ele>64.7</ele>
        <time>2017-10-27T10:17:28.444Z</time>
      </trkpt>
      <trkpt lat="43.60845" lon="3.84795">
        <ele>64.6</ele>
        <time>2017-10-27T10:17:29.453Z</time>
      </trkpt>
      <trkpt lat="43.60847" lon="3.84793">
        <ele>64.7</ele>
        <time>2017-10-27T10:17:31.448Z</time>
      </trkpt>
      <trkpt lat="43.6085" lon="3.8479">
        <ele>64.8</ele>
        <time>2017-10-27T10:17:34.439Z</time>
      </trkpt>
      <trkpt lat="43.60851" lon="3.84788">
        <ele>64.8</ele>
        <time>2017-10-27T10:17:35.444Z</time>
      </trkpt>
      <trkpt lat="43.60853" lon="3.84785">
        <ele>65</ele>
        <time>2017-10-27T10:17:36.447Z</time>
      </trkpt>
      <trkpt lat="43.60854" lon="3.84781">
        <ele>65</ele>
        <time>2017-10-27T10:17:37.448Z</time>
      </trkpt>
      <trkpt lat="43.60856" lon="3.84778">
        <ele>65</ele>
        <time>2017-10-27T10:17:38.447Z</time>
      </trkpt>
      <trkpt lat="43.60857" lon="3.84775">
        <ele>65.2</ele>
        <time>2017-10-27T10:17:39.445Z</time>
      </trkpt>
      <trkpt lat="43.60858" lon="3.84772">
        <ele>65.2</ele>
        <time>2017-10-27T10:17:40.446Z</time>
      </trkpt>
      <trkpt lat="43.60859" lon="3.84769">
        <ele>65.4</ele>
        <time>2017-10-27T10:17:41.447Z</time>
      </trkpt>
      <trkpt lat="43.60859" lon="3.84766">
        <ele>65.4</ele>
        <time>2017-10-27T10:17:42.451Z</time>
      </trkpt>
      <trkpt lat="43.6086" lon="3.84763">
        <ele>65.5</ele>
        <time>2017-10-27T10:17:43.450Z</time>
      </trkpt>
      <trkpt lat="43.6086" lon="3.8476">
        <ele>65.5</ele>
        <time>2017-10-27T10:17:44.448Z</time>
      </trkpt>
      <trkpt lat="43.60861" lon="3.84757">
        <ele>65.5</ele>
        <time>2017-10-27T10:17:45.445Z</time>
      </trkpt>
      <trkpt lat="43.60862" lon="3.84753">
        <ele>65.5</ele>
        <time>2017-10-27T10:17:46.455Z</time>
      </trkpt>
      <trkpt lat="43.60862" lon="3.8475">
        <ele>65.4</ele>
        <time>2017-10-27T10:17:47.445Z</time>
      </trkpt>
      <trkpt lat="43.60863" lon="3.84747">
        <ele>65.4</ele>
        <time>2017-10-27T10:17:48.450Z</time>
      </trkpt>
      <trkpt lat="43.60863" lon="3.84744">
        <ele>65.4</ele>
        <time>2017-10-27T10:17:49.447Z</time>
      </trkpt>
      <trkpt lat="43.60863" lon="3.8474">
        <ele>65.4</ele>
        <time>2017-10-27T10:17:50.435Z</time>
      </trkpt>
      <trkpt lat="43.60863" lon="3.84737">
        <ele>65.4</ele>
        <time>2017-10-27T10:17:51.445Z</time>
      </trkpt>
      <trkpt lat="43.60863" lon="3.84734">
        <ele>65.3</ele>
        <time>2017-10-27T10:17:52.432Z</time>
      </trkpt>
      <trkpt lat="43.60864" lon="3.8473">
        <ele>65.3</ele>
        <time>2017-10-27T10:17:53.433Z</time>
      </trkpt>
      <trkpt lat="43.60864" lon="3.84727">
        <ele>65.3</ele>
        <time>2017-10-27T10:17:54.436Z</time>
      </trkpt>
      <trkpt lat="43.60864" lon="3.84724">
        <ele>65.3</ele>
        <time>2017-10-27T10:17:55.436Z</time>
      </trkpt>
      <trkpt lat="43.60864" lon="3.8472">
        <ele>65.3</ele>
        <time>2017-10-27T10:17:56.446Z</time>
      </trkpt>
      <trkpt lat="43.60864" lon="3.84717">
        <ele>65.2</ele>
        <time>2017-10-27T10:17:57.437Z</time>
      </trkpt>
      <trkpt lat="43.60864" lon="3.84713">
        <ele>65.2</ele>
        <time>2017-10-27T10:17:58.433Z</time>
      </trkpt>
      <trkpt lat="43.60864" lon="3.8471">
        <ele>65.2</ele>
        <time>2017-10-27T10:17:59.444Z</time>
      </trkpt>
      <trkpt lat="43.60864" lon="3.84707">
        <ele>65.2</ele>
        <time>2017-10-27T10:18:00.446Z</time>
      </trkpt>
      <trkpt lat="43.60864" lon="3.84704">
        <ele>65.3</ele>
        <time>2017-10-27T10:18:01.446Z</time>
      </trkpt>
      <trkpt lat="43.60864" lon="3.847">
        <ele>65.3</ele>
        <time>2017-10-27T10:18:02.445Z</time>
      </trkpt>
      <trkpt lat="43.60864" lon="3.84697">
        <ele>65.3</ele>
        <time>2017-10-27T10:18:03.448Z</time>
      </trkpt>
      <trkpt lat="43.60864" lon="3.84693">
        <ele>65.2</ele>
        <time>2017-10-27T10:18:04.444Z</time>
      </trkpt>
      <trkpt lat="43.60864" lon="3.84689">
        <ele>65.2</ele>
        <time>2017-10-27T10:18:05.450Z</time>
      </trkpt>
      <trkpt lat="43.60865" lon="3.84685">
        <ele>65.2</ele>
        <time>2017-10-27T10:18:06.445Z</time>
      </trkpt>
      <trkpt lat="43.60865" lon="3.84682">
        <ele>65.1</ele>
        <time>2017-10-27T10:18:07.445Z</time>
      </trkpt>
      <trkpt lat="43.60865" lon="3.84679">
        <ele>65.2</ele>
        <time>2017-10-27T10:18:08.444Z</time>
      </trkpt>
      <trkpt lat="43.60865" lon="3.84676">
        <ele>65.2</ele>
        <time>2017-10-27T10:18:09.445Z</time>
      </trkpt>
      <trkpt lat="43.60865" lon="3.84673">
        <ele>65.2</ele>
        <time>2017-10-27T10:18:10.443Z</time>
      </trkpt>
      <trkpt lat="43.60865" lon="3.8467">
        <ele>65.1</ele>
        <time>2017-10-27T10:18:11.451Z</time>
      </trkpt>
      <trkpt lat="43.60865" lon="3.84667">
        <ele>65.1</ele>
        <time>2017-10-27T10:18:12.432Z</time>
      </trkpt>
      <trkpt lat="43.60865" lon="3.84663">
        <ele>65</ele>
        <time>2017-10-27T10:18:13.433Z</time>
      </trkpt>
      <trkpt lat="43.60865" lon="3.8466">
        <ele>65</ele>
        <time>2017-10-27T10:18:14.444Z</time>
      </trkpt>
      <trkpt lat="43.60865" lon="3.84656">
        <ele>65</ele>
        <time>2017-10-27T10:18:15.451Z</time>
      </trkpt>
      <trkpt lat="43.60866" lon="3.84653">
        <ele>65</ele>
        <time>2017-10-27T10:18:16.446Z</time>
      </trkpt>
      <trkpt lat="43.60866" lon="3.84649">
        <ele>65</ele>
        <time>2017-10-27T10:18:17.446Z</time>
      </trkpt>
      <trkpt lat="43.60866" lon="3.84646">
        <ele>65</ele>
        <time>2017-10-27T10:18:18.463Z</time>
      </trkpt>
      <trkpt lat="43.60866" lon="3.84642">
        <ele>64.9</ele>
        <time>2017-10-27T10:18:19.445Z</time>
      </trkpt>
      <trkpt lat="43.60866" lon="3.84638">
        <ele>64.9</ele>
        <time>2017-10-27T10:18:20.450Z</time>
      </trkpt>
      <trkpt lat="43.60866" lon="3.84635">
        <ele>64.8</ele>
        <time>2017-10-27T10:18:21.445Z</time>
      </trkpt>
      <trkpt lat="43.60866" lon="3.84631">
        <ele>64.7</ele>
        <time>2017-10-27T10:18:22.447Z</time>
      </trkpt>
      <trkpt lat="43.60866" lon="3.84627">
        <ele>64.7</ele>
        <time>2017-10-27T10:18:23.445Z</time>
      </trkpt>
      <trkpt lat="43.60867" lon="3.84623">
        <ele>64.7</ele>
        <time>2017-10-27T10:18:24.445Z</time>
      </trkpt>
      <trkpt lat="43.60867" lon="3.84619">
        <ele>64.6</ele>
        <time>2017-10-27T10:18:25.445Z</time>
      </trkpt>
      <trkpt lat="43.60867" lon="3.84615">
        <ele>64.6</ele>
        <time>2017-10-27T10:18:26.445Z</time>
      </trkpt>
      <trkpt lat="43.60867" lon="3.8461">
        <ele>64.5</ele>
        <time>2017-10-27T10:18:27.451Z</time>
      </trkpt>
      <trkpt lat="43.60867" lon="3.84605">
        <ele>64.5</ele>
        <time>2017-10-27T10:18:28.447Z</time>
      </trkpt>
      <trkpt lat="43.60867" lon="3.84601">
        <ele>64.4</ele>
        <time>2017-10-27T10:18:29.433Z</time>
      </trkpt>
      <trkpt lat="43.60867" lon="3.84596">
        <ele>64.4</ele>
        <time>2017-10-27T10:18:30.445Z</time>
      </trkpt>
      <trkpt lat="43.60867" lon="3.84592">
        <ele>64.3</ele>
        <time>2017-10-27T10:18:31.432Z</time>
      </trkpt>
      <trkpt lat="43.60867" lon="3.84587">
        <ele>64.2</ele>
        <time>2017-10-27T10:18:32.435Z</time>
      </trkpt>
      <trkpt lat="43.60868" lon="3.84582">
        <ele>64.2</ele>
        <time>2017-10-27T10:18:33.432Z</time>
      </trkpt>
      <trkpt lat="43.60868" lon="3.84577">
        <ele>64</ele>
        <time>2017-10-27T10:18:34.451Z</time>
      </trkpt>
      <trkpt lat="43.60868" lon="3.84572">
        <ele>63.9</ele>
        <time>2017-10-27T10:18:35.433Z</time>
      </trkpt>
      <trkpt lat="43.60868" lon="3.84567">
        <ele>63.9</ele>
        <time>2017-10-27T10:18:36.434Z</time>
      </trkpt>
      <trkpt lat="43.60869" lon="3.84562">
        <ele>63.9</ele>
        <time>2017-10-27T10:18:37.435Z</time>
      </trkpt>
      <trkpt lat="43.60869" lon="3.84557">
        <ele>63.9</ele>
        <time>2017-10-27T10:18:38.439Z</time>
      </trkpt>
      <trkpt lat="43.6087" lon="3.84552">
        <ele>63.8</ele>
        <time>2017-10-27T10:18:39.447Z</time>
      </trkpt>
      <trkpt lat="43.6087" lon="3.84547">
        <ele>63.6</ele>
        <time>2017-10-27T10:18:40.445Z</time>
      </trkpt>
      <trkpt lat="43.60871" lon="3.84542">
        <ele>63.7</ele>
        <time>2017-10-27T10:18:41.445Z</time>
      </trkpt>
      <trkpt lat="43.60871" lon="3.84537">
        <ele>63.6</ele>
        <time>2017-10-27T10:18:42.454Z</time>
      </trkpt>
      <trkpt lat="43.60871" lon="3.84532">
        <ele>63.4</ele>
        <time>2017-10-27T10:18:43.448Z</time>
      </trkpt>
      <trkpt lat="43.60871" lon="3.84527">
        <ele>63.3</ele>
        <time>2017-10-27T10:18:44.448Z</time>
      </trkpt>
      <trkpt lat="43.60871" lon="3.84523">
        <ele>63.2</ele>
        <time>2017-10-27T10:18:45.451Z</time>
      </trkpt>
      <trkpt lat="43.60872" lon="3.84518">
        <ele>63.1</ele>
        <time>2017-10-27T10:18:46.448Z</time>
      </trkpt>
      <trkpt lat="43.60872" lon="3.84513">
        <ele>63</ele>
        <time>2017-10-27T10:18:47.445Z</time>
      </trkpt>
      <trkpt lat="43.60872" lon="3.84508">
        <ele>62.9</ele>
        <time>2017-10-27T10:18:48.445Z</time>
      </trkpt>
      <trkpt lat="43.60872" lon="3.84502">
        <ele>62.8</ele>
        <time>2017-10-27T10:18:49.445Z</time>
      </trkpt>
      <trkpt lat="43.60872" lon="3.84497">
        <ele>62.6</ele>
        <time>2017-10-27T10:18:50.445Z</time>
      </trkpt>
      <trkpt lat="43.60873" lon="3.84492">
        <ele>62.6</ele>
        <time>2017-10-27T10:18:51.445Z</time>
      </trkpt>
      <trkpt lat="43.60873" lon="3.84487">
        <ele>62.5</ele>
        <time>2017-10-27T10:18:52.444Z</time>
      </trkpt>
      <trkpt lat="43.60873" lon="3.84481">
        <ele>62.4</ele>
        <time>2017-10-27T10:18:53.445Z</time>
      </trkpt>
      <trkpt lat="43.60873" lon="3.84476">
        <ele>62.2</ele>
        <time>2017-10-27T10:18:54.432Z</time>
      </trkpt>
      <trkpt lat="43.60873" lon="3.8447">
        <ele>62.1</ele>
        <time>2017-10-27T10:18:55.433Z</time>
      </trkpt>
      <trkpt lat="43.60873" lon="3.84465">
        <ele>62</ele>
        <time>2017-10-27T10:18:56.432Z</time>
      </trkpt>
      <trkpt lat="43.60873" lon="3.8446">
        <ele>61.9</ele>
        <time>2017-10-27T10:18:57.433Z</time>
      </trkpt>
      <trkpt lat="43.60874" lon="3.84455">
        <ele>61.8</ele>
        <time>2017-10-27T10:18:58.444Z</time>
      </trkpt>
      <trkpt lat="43.60874" lon="3.84449">
        <ele>61.7</ele>
        <time>2017-10-27T10:18:59.449Z</time>
      </trkpt>
      <trkpt lat="43.60874" lon="3.84444">
        <ele>61.6</ele>
        <time>2017-10-27T10:19:00.446Z</time>
      </trkpt>
      <trkpt lat="43.60874" lon="3.8444">
        <ele>61.5</ele>
        <time>2017-10-27T10:19:01.445Z</time>
      </trkpt>
      <trkpt lat="43.60874" lon="3.84435">
        <ele>61.4</ele>
        <time>2017-10-27T10:19:02.445Z</time>
      </trkpt>
      <trkpt lat="43.60874" lon="3.8443">
        <ele>61.3</ele>
        <time>2017-10-27T10:19:03.445Z</time>
      </trkpt>
      <trkpt lat="43.60875" lon="3.84425">
        <ele>61.2</ele>
        <time>2017-10-27T10:19:04.443Z</time>
      </trkpt>
      <trkpt lat="43.60875" lon="3.8442">
        <ele>61.1</ele>
        <time>2017-10-27T10:19:05.445Z</time>
      </trkpt>
      <trkpt lat="43.60875" lon="3.84415">
        <ele>61</ele>
        <time>2017-10-27T10:19:06.445Z</time>
      </trkpt>
      <trkpt lat="43.60875" lon="3.8441">
        <ele>60.9</ele>
        <time>2017-10-27T10:19:07.446Z</time>
      </trkpt>
      <trkpt lat="43.60875" lon="3.84406">
        <ele>60.8</ele>
        <time>2017-10-27T10:19:08.445Z</time>
      </trkpt>
      <trkpt lat="43.60875" lon="3.84402">
        <ele>60.7</ele>
        <time>2017-10-27T10:19:09.446Z</time>
      </trkpt>
      <trkpt lat="43.60876" lon="3.84398">
        <ele>60.7</ele>
        <time>2017-10-27T10:19:10.444Z</time>
      </trkpt>
      <trkpt lat="43.60876" lon="3.84395">
        <ele>60.6</ele>
        <time>2017-10-27T10:19:11.444Z</time>
      </trkpt>
      <trkpt lat="43.60876" lon="3.84392">
        <ele>60.6</ele>
        <time>2017-10-27T10:19:12.445Z</time>
      </trkpt>
      <trkpt lat="43.60876" lon="3.84389">
        <ele>60.5</ele>
        <time>2017-10-27T10:19:13.452Z</time>
      </trkpt>
      <trkpt lat="43.60875" lon="3.84386">
        <ele>60.5</ele>
        <time>2017-10-27T10:19:14.431Z</time>
      </trkpt>
      <trkpt lat="43.60874" lon="3.84382">
        <ele>60.3</ele>
        <time>2017-10-27T10:19:15.432Z</time>
      </trkpt>
      <trkpt lat="43.60872" lon="3.84379">
        <ele>60.2</ele>
        <time>2017-10-27T10:19:16.430Z</time>
      </trkpt>
      <trkpt lat="43.60871" lon="3.84375">
        <ele>60.2</ele>
        <time>2017-10-27T10:19:17.437Z</time>
      </trkpt>
      <trkpt lat="43.6087" lon="3.84371">
        <ele>60.2</ele>
        <time>2017-10-27T10:19:18.453Z</time>
      </trkpt>
      <trkpt lat="43.60868" lon="3.84367">
        <ele>60.3</ele>
        <time>2017-10-27T10:19:19.454Z</time>
      </trkpt>
      <trkpt lat="43.60866" lon="3.84364">
        <ele>60.4</ele>
        <time>2017-10-27T10:19:20.468Z</time>
      </trkpt>
      <trkpt lat="43.60864" lon="3.84361">
        <ele>60.6</ele>
        <time>2017-10-27T10:19:21.467Z</time>
      </trkpt>
      <trkpt lat="43.60862" lon="3.84357">
        <ele>60.7</ele>
        <time>2017-10-27T10:19:22.444Z</time>
      </trkpt>
      <trkpt lat="43.60861" lon="3.84354">
        <ele>60.8</ele>
        <time>2017-10-27T10:19:23.448Z</time>
      </trkpt>
      <trkpt lat="43.60859" lon="3.8435">
        <ele>60.9</ele>
        <time>2017-10-27T10:19:24.445Z</time>
      </trkpt>
      <trkpt lat="43.60857" lon="3.84346">
        <ele>61</ele>
        <time>2017-10-27T10:19:25.448Z</time>
      </trkpt>
      <trkpt lat="43.60855" lon="3.84343">
        <ele>61.1</ele>
        <time>2017-10-27T10:19:26.446Z</time>
      </trkpt>
      <trkpt lat="43.60853" lon="3.84339">
        <ele>61.1</ele>
        <time>2017-10-27T10:19:27.449Z</time>
      </trkpt>
      <trkpt lat="43.60851" lon="3.84335">
        <ele>61.1</ele>
        <time>2017-10-27T10:19:28.454Z</time>
      </trkpt>
      <trkpt lat="43.60849" lon="3.84331">
        <ele>61.1</ele>
        <time>2017-10-27T10:19:29.447Z</time>
      </trkpt>
      <trkpt lat="43.60847" lon="3.84328">
        <ele>61.2</ele>
        <time>2017-10-27T10:19:30.448Z</time>
      </trkpt>
      <trkpt lat="43.60845" lon="3.84324">
        <ele>61.2</ele>
        <time>2017-10-27T10:19:31.447Z</time>
      </trkpt>
      <trkpt lat="43.60844" lon="3.84321">
        <ele>61.3</ele>
        <time>2017-10-27T10:19:32.445Z</time>
      </trkpt>
      <trkpt lat="43.60843" lon="3.84317">
        <ele>61.2</ele>
        <time>2017-10-27T10:19:33.447Z</time>
      </trkpt>
      <trkpt lat="43.60843" lon="3.84313">
        <ele>61</ele>
        <time>2017-10-27T10:19:34.439Z</time>
      </trkpt>
      <trkpt lat="43.60844" lon="3.8431">
        <ele>61</ele>
        <time>2017-10-27T10:19:35.447Z</time>
      </trkpt>
      <trkpt lat="43.60846" lon="3.84307">
        <ele>61.2</ele>
        <time>2017-10-27T10:19:36.446Z</time>
      </trkpt>
      <trkpt lat="43.60848" lon="3.84305">
        <ele>61.1</ele>
        <time>2017-10-27T10:19:37.439Z</time>
      </trkpt>
      <trkpt lat="43.60851" lon="3.84303">
        <ele>61</ele>
        <time>2017-10-27T10:19:38.445Z</time>
      </trkpt>
      <trkpt lat="43.60853" lon="3.84301">
        <ele>60.8</ele>
        <time>2017-10-27T10:19:39.435Z</time>
      </trkpt>
      <trkpt lat="43.60854" lon="3.84298">
        <ele>60.8</ele>
        <time>2017-10-27T10:19:40.431Z</time>
      </trkpt>
      <trkpt lat="43.60855" lon="3.84294">
        <ele>61</ele>
        <time>2017-10-27T10:19:41.449Z</time>
      </trkpt>
      <trkpt lat="43.60855" lon="3.8429">
        <ele>61.1</ele>
        <time>2017-10-27T10:19:42.449Z</time>
      </trkpt>
      <trkpt lat="43.60854" lon="3.84288">
        <ele>61.1</ele>
        <time>2017-10-27T10:19:43.445Z</time>
      </trkpt>
      <trkpt lat="43.60852" lon="3.84286">
        <ele>61</ele>
        <time>2017-10-27T10:19:44.444Z</time>
      </trkpt>
      <trkpt lat="43.60851" lon="3.84284">
        <ele>61</ele>
        <time>2017-10-27T10:19:45.433Z</time>
      </trkpt>
      <trkpt lat="43.60849" lon="3.84283">
        <ele>61.2</ele>
        <time>2017-10-27T10:19:46.443Z</time>
      </trkpt>
      <trkpt lat="43.60847" lon="3.84281">
        <ele>61.3</ele>
        <time>2017-10-27T10:19:47.446Z</time>
      </trkpt>
      <trkpt lat="43.60846" lon="3.84279">
        <ele>61.2</ele>
        <time>2017-10-27T10:19:48.446Z</time>
      </trkpt>
      <trkpt lat="43.60844" lon="3.84278">
        <ele>61.3</ele>
        <time>2017-10-27T10:19:49.444Z</time>
      </trkpt>
      <trkpt lat="43.60842" lon="3.84276">
        <ele>61.2</ele>
        <time>2017-10-27T10:19:50.444Z</time>
      </trkpt>
      <trkpt lat="43.6084" lon="3.84273">
        <ele>61.2</ele>
        <time>2017-10-27T10:19:51.445Z</time>
      </trkpt>
      <trkpt lat="43.60839" lon="3.84271">
        <ele>61</ele>
        <time>2017-10-27T10:19:52.448Z</time>
      </trkpt>
      <trkpt lat="43.60837" lon="3.84268">
        <ele>60.9</ele>
        <time>2017-10-27T10:19:53.444Z</time>
      </trkpt>
      <trkpt lat="43.60835" lon="3.84264">
        <ele>61.1</ele>
        <time>2017-10-27T10:19:54.446Z</time>
      </trkpt>
      <trkpt lat="43.60833" lon="3.8426">
        <ele>61.1</ele>
        <time>2017-10-27T10:19:55.444Z</time>
      </trkpt>
      <trkpt lat="43.60831" lon="3.84255">
        <ele>61.1</ele>
        <time>2017-10-27T10:19:56.431Z</time>
      </trkpt>
      <trkpt lat="43.60828" lon="3.84251">
        <ele>61</ele>
        <time>2017-10-27T10:19:57.438Z</time>
      </trkpt>
      <trkpt lat="43.60826" lon="3.84247">
        <ele>60.4</ele>
        <time>2017-10-27T10:19:58.435Z</time>
      </trkpt>
      <trkpt lat="43.60824" lon="3.84244">
        <ele>60.8</ele>
        <time>2017-10-27T10:19:59.456Z</time>
      </trkpt>
      <trkpt lat="43.60823" lon="3.8424">
        <ele>60.8</ele>
        <time>2017-10-27T10:20:00.455Z</time>
      </trkpt>
      <trkpt lat="43.60822" lon="3.84236">
        <ele>60.5</ele>
        <time>2017-10-27T10:20:01.448Z</time>
      </trkpt>
      <trkpt lat="43.6082" lon="3.84233">
        <ele>60.3</ele>
        <time>2017-10-27T10:20:02.450Z</time>
      </trkpt>
      <trkpt lat="43.60819" lon="3.8423">
        <ele>60.2</ele>
        <time>2017-10-27T10:20:03.453Z</time>
      </trkpt>
      <trkpt lat="43.60817" lon="3.84227">
        <ele>60.3</ele>
        <time>2017-10-27T10:20:04.452Z</time>
      </trkpt>
      <trkpt lat="43.60816" lon="3.84224">
        <ele>60.2</ele>
        <time>2017-10-27T10:20:05.444Z</time>
      </trkpt>
      <trkpt lat="43.60815" lon="3.84222">
        <ele>60.2</ele>
        <time>2017-10-27T10:20:06.444Z</time>
      </trkpt>
      <trkpt lat="43.60813" lon="3.8422">
        <ele>60</ele>
        <time>2017-10-27T10:20:07.444Z</time>
      </trkpt>
      <trkpt lat="43.60811" lon="3.84217">
        <ele>59.8</ele>
        <time>2017-10-27T10:20:08.444Z</time>
      </trkpt>
      <trkpt lat="43.6081" lon="3.84215">
        <ele>59.5</ele>
        <time>2017-10-27T10:20:09.444Z</time>
      </trkpt>
      <trkpt lat="43.60809" lon="3.84211">
        <ele>58.3</ele>
        <time>2017-10-27T10:20:10.455Z</time>
      </trkpt>
      <trkpt lat="43.60808" lon="3.84209">
        <ele>57.5</ele>
        <time>2017-10-27T10:20:11.441Z</time>
      </trkpt>
      <trkpt lat="43.60807" lon="3.84206">
        <ele>57</ele>
        <time>2017-10-27T10:20:12.433Z</time>
      </trkpt>
      <trkpt lat="43.60806" lon="3.84203">
        <ele>56.4</ele>
        <time>2017-10-27T10:20:13.439Z</time>
      </trkpt>
      <trkpt lat="43.60805" lon="3.842">
        <ele>56</ele>
        <time>2017-10-27T10:20:14.431Z</time>
      </trkpt>
      <trkpt lat="43.60804" lon="3.84197">
        <ele>55.5</ele>
        <time>2017-10-27T10:20:15.433Z</time>
      </trkpt>
      <trkpt lat="43.60805" lon="3.84193">
        <ele>55.2</ele>
        <time>2017-10-27T10:20:16.445Z</time>
      </trkpt>
      <trkpt lat="43.60804" lon="3.8419">
        <ele>54.8</ele>
        <time>2017-10-27T10:20:17.434Z</time>
      </trkpt>
      <trkpt lat="43.60804" lon="3.84186">
        <ele>54.9</ele>
        <time>2017-10-27T10:20:18.437Z</time>
      </trkpt>
      <trkpt lat="43.60804" lon="3.84182">
        <ele>55.2</ele>
        <time>2017-10-27T10:20:19.448Z</time>
      </trkpt>
      <trkpt lat="43.60804" lon="3.84179">
        <ele>55</ele>
        <time>2017-10-27T10:20:20.432Z</time>
      </trkpt>
      <trkpt lat="43.60804" lon="3.84175">
        <ele>54.8</ele>
        <time>2017-10-27T10:20:21.445Z</time>
      </trkpt>
      <trkpt lat="43.60804" lon="3.84171">
        <ele>54.9</ele>
        <time>2017-10-27T10:20:22.432Z</time>
      </trkpt>
      <trkpt lat="43.60804" lon="3.84167">
        <ele>55.3</ele>
        <time>2017-10-27T10:20:23.456Z</time>
      </trkpt>
      <trkpt lat="43.60804" lon="3.84163">
        <ele>55.3</ele>
        <time>2017-10-27T10:20:24.446Z</time>
      </trkpt>
      <trkpt lat="43.60804" lon="3.84159">
        <ele>55.4</ele>
        <time>2017-10-27T10:20:25.445Z</time>
      </trkpt>
      <trkpt lat="43.60804" lon="3.84155">
        <ele>55.5</ele>
        <time>2017-10-27T10:20:26.444Z</time>
      </trkpt>
      <trkpt lat="43.60803" lon="3.84151">
        <ele>55.4</ele>
        <time>2017-10-27T10:20:27.451Z</time>
      </trkpt>
      <trkpt lat="43.60803" lon="3.84148">
        <ele>55.5</ele>
        <time>2017-10-27T10:20:28.444Z</time>
      </trkpt>
    </trkseg>
  </trk>
</gpx>